<?xml version="1.0" encoding="UTF-8" standalone="no" ?>
<gpx xmlns="http://www.topografix.com/GPX/1/1" xmlns:xsi="http://www.w3.org/2001/XMLSchema-instance" xsi:schemaLocation="http://www.topografix.com/GPX/1/1 http://www.topografix.com/GPX/1/1/gpx.xsd" version="1.1" creator="VisuGPX - https://www.visugpx.com">
  <metadata>
    <name>Grande Boucle Saint-Aybert, Marchipont, Sebourg.</name>
  </metadata>
  <trk>
    <name><![CDATA[Parcours du 2022-05-09 08:09:42]]></name>
    <extensions>
      <line xmlns="http://www.topografix.com/GPX/gpx_style/0/2">
        <color>0000FF</color>
        <width>4</width>
      </line>
    </extensions>
    <trkseg>
      <trkpt lat="50.44995" lon="3.52652">
        <ele>29.5</ele>
        <time>2022-05-09T06:09:55.000Z</time>
      </trkpt>
      <trkpt lat="50.45002" lon="3.52661">
        <ele>29.8</ele>
        <time>2022-05-09T06:09:56.359Z</time>
      </trkpt>
      <trkpt lat="50.45007" lon="3.52668">
        <ele>30.1</ele>
        <time>2022-05-09T06:09:57.799Z</time>
      </trkpt>
      <trkpt lat="50.45012" lon="3.52674">
        <ele>30.3</ele>
        <time>2022-05-09T06:09:59.000Z</time>
      </trkpt>
      <trkpt lat="50.45016" lon="3.52683">
        <ele>30.6</ele>
        <time>2022-05-09T06:10:00.138Z</time>
      </trkpt>
      <trkpt lat="50.45023" lon="3.5269">
        <ele>30.8</ele>
        <time>2022-05-09T06:10:02.721Z</time>
      </trkpt>
      <trkpt lat="50.45029" lon="3.52699">
        <ele>31</ele>
        <time>2022-05-09T06:10:05.000Z</time>
      </trkpt>
      <trkpt lat="50.45033" lon="3.52704">
        <ele>30.8</ele>
        <time>2022-05-09T06:10:06.681Z</time>
      </trkpt>
      <trkpt lat="50.45037" lon="3.52709">
        <ele>30.7</ele>
        <time>2022-05-09T06:10:07.980Z</time>
      </trkpt>
      <trkpt lat="50.45042" lon="3.52715">
        <ele>30.5</ele>
        <time>2022-05-09T06:10:09.078Z</time>
      </trkpt>
      <trkpt lat="50.45046" lon="3.52722">
        <ele>30.3</ele>
        <time>2022-05-09T06:10:11.000Z</time>
      </trkpt>
      <trkpt lat="50.4505" lon="3.52727">
        <ele>30.2</ele>
        <time>2022-05-09T06:10:12.000Z</time>
      </trkpt>
      <trkpt lat="50.45056" lon="3.52735">
        <ele>30</ele>
        <time>2022-05-09T06:10:14.000Z</time>
      </trkpt>
      <trkpt lat="50.4506" lon="3.5274">
        <ele>30</ele>
        <time>2022-05-09T06:10:15.000Z</time>
      </trkpt>
      <trkpt lat="50.45069" lon="3.52751">
        <ele>30</ele>
        <time>2022-05-09T06:10:17.000Z</time>
      </trkpt>
      <trkpt lat="50.45073" lon="3.52756">
        <ele>30</ele>
        <time>2022-05-09T06:10:18.000Z</time>
      </trkpt>
      <trkpt lat="50.45078" lon="3.52761">
        <ele>30</ele>
        <time>2022-05-09T06:10:19.000Z</time>
      </trkpt>
      <trkpt lat="50.45081" lon="3.52767">
        <ele>30</ele>
        <time>2022-05-09T06:10:20.000Z</time>
      </trkpt>
      <trkpt lat="50.45085" lon="3.52772">
        <ele>29.9</ele>
        <time>2022-05-09T06:10:21.000Z</time>
      </trkpt>
      <trkpt lat="50.45089" lon="3.52778">
        <ele>29.8</ele>
        <time>2022-05-09T06:10:22.000Z</time>
      </trkpt>
      <trkpt lat="50.45093" lon="3.52783">
        <ele>29.5</ele>
        <time>2022-05-09T06:10:23.000Z</time>
      </trkpt>
      <trkpt lat="50.45097" lon="3.52788">
        <ele>29.3</ele>
        <time>2022-05-09T06:10:23.996Z</time>
      </trkpt>
      <trkpt lat="50.45102" lon="3.52794">
        <ele>29.1</ele>
        <time>2022-05-09T06:10:25.000Z</time>
      </trkpt>
      <trkpt lat="50.45106" lon="3.52799">
        <ele>29</ele>
        <time>2022-05-09T06:10:26.000Z</time>
      </trkpt>
      <trkpt lat="50.4511" lon="3.52805">
        <ele>29</ele>
        <time>2022-05-09T06:10:27.000Z</time>
      </trkpt>
      <trkpt lat="50.45114" lon="3.5281">
        <ele>28.9</ele>
        <time>2022-05-09T06:10:28.000Z</time>
      </trkpt>
      <trkpt lat="50.45118" lon="3.52816">
        <ele>28.7</ele>
        <time>2022-05-09T06:10:29.000Z</time>
      </trkpt>
      <trkpt lat="50.45122" lon="3.52821">
        <ele>28.6</ele>
        <time>2022-05-09T06:10:30.000Z</time>
      </trkpt>
      <trkpt lat="50.45126" lon="3.52826">
        <ele>28.5</ele>
        <time>2022-05-09T06:10:31.000Z</time>
      </trkpt>
      <trkpt lat="50.4513" lon="3.52832">
        <ele>28.3</ele>
        <time>2022-05-09T06:10:32.000Z</time>
      </trkpt>
      <trkpt lat="50.45135" lon="3.52838">
        <ele>28.3</ele>
        <time>2022-05-09T06:10:33.000Z</time>
      </trkpt>
      <trkpt lat="50.45139" lon="3.52844">
        <ele>28.4</ele>
        <time>2022-05-09T06:10:34.000Z</time>
      </trkpt>
      <trkpt lat="50.45143" lon="3.5285">
        <ele>28.5</ele>
        <time>2022-05-09T06:10:35.000Z</time>
      </trkpt>
      <trkpt lat="50.45147" lon="3.52856">
        <ele>28.5</ele>
        <time>2022-05-09T06:10:36.000Z</time>
      </trkpt>
      <trkpt lat="50.45151" lon="3.52862">
        <ele>28.6</ele>
        <time>2022-05-09T06:10:37.000Z</time>
      </trkpt>
      <trkpt lat="50.45155" lon="3.52867">
        <ele>28.5</ele>
        <time>2022-05-09T06:10:38.000Z</time>
      </trkpt>
      <trkpt lat="50.4516" lon="3.52873">
        <ele>28.6</ele>
        <time>2022-05-09T06:10:39.000Z</time>
      </trkpt>
      <trkpt lat="50.45164" lon="3.52879">
        <ele>28.7</ele>
        <time>2022-05-09T06:10:40.000Z</time>
      </trkpt>
      <trkpt lat="50.45169" lon="3.52884">
        <ele>28.7</ele>
        <time>2022-05-09T06:10:41.000Z</time>
      </trkpt>
      <trkpt lat="50.45172" lon="3.52888">
        <ele>28.8</ele>
        <time>2022-05-09T06:10:41.945Z</time>
      </trkpt>
      <trkpt lat="50.45178" lon="3.52895">
        <ele>28.7</ele>
        <time>2022-05-09T06:10:43.000Z</time>
      </trkpt>
      <trkpt lat="50.45182" lon="3.52902">
        <ele>28.7</ele>
        <time>2022-05-09T06:10:44.000Z</time>
      </trkpt>
      <trkpt lat="50.45189" lon="3.52911">
        <ele>28.8</ele>
        <time>2022-05-09T06:10:46.000Z</time>
      </trkpt>
      <trkpt lat="50.45192" lon="3.52916">
        <ele>29</ele>
        <time>2022-05-09T06:10:47.000Z</time>
      </trkpt>
      <trkpt lat="50.45196" lon="3.52921">
        <ele>29.2</ele>
        <time>2022-05-09T06:10:48.000Z</time>
      </trkpt>
      <trkpt lat="50.45199" lon="3.52926">
        <ele>29.3</ele>
        <time>2022-05-09T06:10:49.000Z</time>
      </trkpt>
      <trkpt lat="50.45205" lon="3.52935">
        <ele>29.4</ele>
        <time>2022-05-09T06:10:51.000Z</time>
      </trkpt>
      <trkpt lat="50.45209" lon="3.52941">
        <ele>29.4</ele>
        <time>2022-05-09T06:10:52.000Z</time>
      </trkpt>
      <trkpt lat="50.45213" lon="3.52946">
        <ele>29.4</ele>
        <time>2022-05-09T06:10:53.000Z</time>
      </trkpt>
      <trkpt lat="50.45216" lon="3.52951">
        <ele>29.4</ele>
        <time>2022-05-09T06:10:54.000Z</time>
      </trkpt>
      <trkpt lat="50.4522" lon="3.52957">
        <ele>29.5</ele>
        <time>2022-05-09T06:10:55.000Z</time>
      </trkpt>
      <trkpt lat="50.45226" lon="3.52965">
        <ele>29.8</ele>
        <time>2022-05-09T06:10:57.000Z</time>
      </trkpt>
      <trkpt lat="50.4523" lon="3.52971">
        <ele>30</ele>
        <time>2022-05-09T06:10:58.000Z</time>
      </trkpt>
      <trkpt lat="50.45236" lon="3.5298">
        <ele>30</ele>
        <time>2022-05-09T06:11:00.000Z</time>
      </trkpt>
      <trkpt lat="50.45243" lon="3.52991">
        <ele>30</ele>
        <time>2022-05-09T06:11:02.000Z</time>
      </trkpt>
      <trkpt lat="50.45247" lon="3.52996">
        <ele>30</ele>
        <time>2022-05-09T06:11:03.000Z</time>
      </trkpt>
      <trkpt lat="50.4525" lon="3.53002">
        <ele>30</ele>
        <time>2022-05-09T06:11:04.000Z</time>
      </trkpt>
      <trkpt lat="50.45254" lon="3.53009">
        <ele>30</ele>
        <time>2022-05-09T06:11:05.000Z</time>
      </trkpt>
      <trkpt lat="50.4526" lon="3.53019">
        <ele>30</ele>
        <time>2022-05-09T06:11:07.000Z</time>
      </trkpt>
      <trkpt lat="50.45266" lon="3.53029">
        <ele>30</ele>
        <time>2022-05-09T06:11:09.000Z</time>
      </trkpt>
      <trkpt lat="50.45273" lon="3.5304">
        <ele>30.1</ele>
        <time>2022-05-09T06:11:11.000Z</time>
      </trkpt>
      <trkpt lat="50.45276" lon="3.53046">
        <ele>30</ele>
        <time>2022-05-09T06:11:12.000Z</time>
      </trkpt>
      <trkpt lat="50.4528" lon="3.53051">
        <ele>30</ele>
        <time>2022-05-09T06:11:13.000Z</time>
      </trkpt>
      <trkpt lat="50.45283" lon="3.53056">
        <ele>30</ele>
        <time>2022-05-09T06:11:14.000Z</time>
      </trkpt>
      <trkpt lat="50.45291" lon="3.53068">
        <ele>30</ele>
        <time>2022-05-09T06:11:16.000Z</time>
      </trkpt>
      <trkpt lat="50.45295" lon="3.53073">
        <ele>30</ele>
        <time>2022-05-09T06:11:17.000Z</time>
      </trkpt>
      <trkpt lat="50.45299" lon="3.53079">
        <ele>30</ele>
        <time>2022-05-09T06:11:18.000Z</time>
      </trkpt>
      <trkpt lat="50.45303" lon="3.53084">
        <ele>30</ele>
        <time>2022-05-09T06:11:19.000Z</time>
      </trkpt>
      <trkpt lat="50.45308" lon="3.5309">
        <ele>29.9</ele>
        <time>2022-05-09T06:11:20.000Z</time>
      </trkpt>
      <trkpt lat="50.45312" lon="3.53096">
        <ele>29.8</ele>
        <time>2022-05-09T06:11:21.000Z</time>
      </trkpt>
      <trkpt lat="50.45317" lon="3.53102">
        <ele>29.6</ele>
        <time>2022-05-09T06:11:22.000Z</time>
      </trkpt>
      <trkpt lat="50.45321" lon="3.53106">
        <ele>29.4</ele>
        <time>2022-05-09T06:11:23.000Z</time>
      </trkpt>
      <trkpt lat="50.45325" lon="3.53112">
        <ele>29.3</ele>
        <time>2022-05-09T06:11:24.000Z</time>
      </trkpt>
      <trkpt lat="50.4533" lon="3.53118">
        <ele>29.1</ele>
        <time>2022-05-09T06:11:25.000Z</time>
      </trkpt>
      <trkpt lat="50.45334" lon="3.53123">
        <ele>29</ele>
        <time>2022-05-09T06:11:26.000Z</time>
      </trkpt>
      <trkpt lat="50.45338" lon="3.53129">
        <ele>29</ele>
        <time>2022-05-09T06:11:27.000Z</time>
      </trkpt>
      <trkpt lat="50.45346" lon="3.5314">
        <ele>29</ele>
        <time>2022-05-09T06:11:29.000Z</time>
      </trkpt>
      <trkpt lat="50.45349" lon="3.53145">
        <ele>29</ele>
        <time>2022-05-09T06:11:30.000Z</time>
      </trkpt>
      <trkpt lat="50.45353" lon="3.53151">
        <ele>29</ele>
        <time>2022-05-09T06:11:31.000Z</time>
      </trkpt>
      <trkpt lat="50.45357" lon="3.53156">
        <ele>29</ele>
        <time>2022-05-09T06:11:32.000Z</time>
      </trkpt>
      <trkpt lat="50.45361" lon="3.53162">
        <ele>29</ele>
        <time>2022-05-09T06:11:33.000Z</time>
      </trkpt>
      <trkpt lat="50.45365" lon="3.53167">
        <ele>28.8</ele>
        <time>2022-05-09T06:11:34.000Z</time>
      </trkpt>
      <trkpt lat="50.4537" lon="3.53173">
        <ele>28.7</ele>
        <time>2022-05-09T06:11:35.000Z</time>
      </trkpt>
      <trkpt lat="50.45378" lon="3.53185">
        <ele>28.4</ele>
        <time>2022-05-09T06:11:37.000Z</time>
      </trkpt>
      <trkpt lat="50.45382" lon="3.53191">
        <ele>28.2</ele>
        <time>2022-05-09T06:11:38.000Z</time>
      </trkpt>
      <trkpt lat="50.45386" lon="3.53197">
        <ele>28.1</ele>
        <time>2022-05-09T06:11:39.000Z</time>
      </trkpt>
      <trkpt lat="50.4539" lon="3.53203">
        <ele>27.9</ele>
        <time>2022-05-09T06:11:40.000Z</time>
      </trkpt>
      <trkpt lat="50.45396" lon="3.53209">
        <ele>27.8</ele>
        <time>2022-05-09T06:11:41.000Z</time>
      </trkpt>
      <trkpt lat="50.45401" lon="3.53214">
        <ele>27.6</ele>
        <time>2022-05-09T06:11:42.000Z</time>
      </trkpt>
      <trkpt lat="50.45406" lon="3.5322">
        <ele>27.4</ele>
        <time>2022-05-09T06:11:43.000Z</time>
      </trkpt>
      <trkpt lat="50.45411" lon="3.53227">
        <ele>27.2</ele>
        <time>2022-05-09T06:11:44.000Z</time>
      </trkpt>
      <trkpt lat="50.45416" lon="3.53235">
        <ele>27</ele>
        <time>2022-05-09T06:11:45.000Z</time>
      </trkpt>
      <trkpt lat="50.45422" lon="3.53243">
        <ele>26.8</ele>
        <time>2022-05-09T06:11:46.000Z</time>
      </trkpt>
      <trkpt lat="50.45428" lon="3.53249">
        <ele>26.6</ele>
        <time>2022-05-09T06:11:47.000Z</time>
      </trkpt>
      <trkpt lat="50.45433" lon="3.53254">
        <ele>26.3</ele>
        <time>2022-05-09T06:11:48.054Z</time>
      </trkpt>
      <trkpt lat="50.45442" lon="3.53265">
        <ele>26</ele>
        <time>2022-05-09T06:11:49.000Z</time>
      </trkpt>
      <trkpt lat="50.45448" lon="3.53273">
        <ele>25.9</ele>
        <time>2022-05-09T06:11:50.000Z</time>
      </trkpt>
      <trkpt lat="50.45455" lon="3.53281">
        <ele>25.6</ele>
        <time>2022-05-09T06:11:51.000Z</time>
      </trkpt>
      <trkpt lat="50.45461" lon="3.53289">
        <ele>25.2</ele>
        <time>2022-05-09T06:11:52.000Z</time>
      </trkpt>
      <trkpt lat="50.45468" lon="3.53297">
        <ele>25.1</ele>
        <time>2022-05-09T06:11:53.000Z</time>
      </trkpt>
      <trkpt lat="50.45474" lon="3.53305">
        <ele>24.9</ele>
        <time>2022-05-09T06:11:54.000Z</time>
      </trkpt>
      <trkpt lat="50.4548" lon="3.53313">
        <ele>24.7</ele>
        <time>2022-05-09T06:11:55.000Z</time>
      </trkpt>
      <trkpt lat="50.45485" lon="3.5332">
        <ele>24.5</ele>
        <time>2022-05-09T06:11:56.000Z</time>
      </trkpt>
      <trkpt lat="50.4549" lon="3.53328">
        <ele>24.4</ele>
        <time>2022-05-09T06:11:57.000Z</time>
      </trkpt>
      <trkpt lat="50.45495" lon="3.53337">
        <ele>24.2</ele>
        <time>2022-05-09T06:11:58.000Z</time>
      </trkpt>
      <trkpt lat="50.45498" lon="3.53343">
        <ele>24.1</ele>
        <time>2022-05-09T06:11:59.048Z</time>
      </trkpt>
      <trkpt lat="50.45501" lon="3.53356">
        <ele>24</ele>
        <time>2022-05-09T06:12:00.000Z</time>
      </trkpt>
      <trkpt lat="50.45503" lon="3.53366">
        <ele>24</ele>
        <time>2022-05-09T06:12:01.000Z</time>
      </trkpt>
      <trkpt lat="50.45505" lon="3.53376">
        <ele>24</ele>
        <time>2022-05-09T06:12:02.000Z</time>
      </trkpt>
      <trkpt lat="50.45506" lon="3.53386">
        <ele>24</ele>
        <time>2022-05-09T06:12:03.000Z</time>
      </trkpt>
      <trkpt lat="50.45506" lon="3.53397">
        <ele>24</ele>
        <time>2022-05-09T06:12:04.000Z</time>
      </trkpt>
      <trkpt lat="50.45506" lon="3.53407">
        <ele>24</ele>
        <time>2022-05-09T06:12:05.000Z</time>
      </trkpt>
      <trkpt lat="50.45505" lon="3.5342">
        <ele>24</ele>
        <time>2022-05-09T06:12:06.000Z</time>
      </trkpt>
      <trkpt lat="50.45503" lon="3.53431">
        <ele>24</ele>
        <time>2022-05-09T06:12:07.000Z</time>
      </trkpt>
      <trkpt lat="50.45501" lon="3.53441">
        <ele>24</ele>
        <time>2022-05-09T06:12:08.000Z</time>
      </trkpt>
      <trkpt lat="50.45499" lon="3.53451">
        <ele>24</ele>
        <time>2022-05-09T06:12:09.000Z</time>
      </trkpt>
      <trkpt lat="50.45497" lon="3.5346">
        <ele>24</ele>
        <time>2022-05-09T06:12:10.000Z</time>
      </trkpt>
      <trkpt lat="50.45494" lon="3.53469">
        <ele>24</ele>
        <time>2022-05-09T06:12:11.000Z</time>
      </trkpt>
      <trkpt lat="50.45492" lon="3.53489">
        <ele>23.4</ele>
        <time>2022-05-09T06:12:13.000Z</time>
      </trkpt>
      <trkpt lat="50.45493" lon="3.53499">
        <ele>23</ele>
        <time>2022-05-09T06:12:14.000Z</time>
      </trkpt>
      <trkpt lat="50.45495" lon="3.53509">
        <ele>23</ele>
        <time>2022-05-09T06:12:15.000Z</time>
      </trkpt>
      <trkpt lat="50.45499" lon="3.53517">
        <ele>23</ele>
        <time>2022-05-09T06:12:16.000Z</time>
      </trkpt>
      <trkpt lat="50.45505" lon="3.53524">
        <ele>23</ele>
        <time>2022-05-09T06:12:17.000Z</time>
      </trkpt>
      <trkpt lat="50.45516" lon="3.53537">
        <ele>23</ele>
        <time>2022-05-09T06:12:19.000Z</time>
      </trkpt>
      <trkpt lat="50.45522" lon="3.53543">
        <ele>23</ele>
        <time>2022-05-09T06:12:20.000Z</time>
      </trkpt>
      <trkpt lat="50.45527" lon="3.53549">
        <ele>23</ele>
        <time>2022-05-09T06:12:21.000Z</time>
      </trkpt>
      <trkpt lat="50.45532" lon="3.53555">
        <ele>23</ele>
        <time>2022-05-09T06:12:22.000Z</time>
      </trkpt>
      <trkpt lat="50.45537" lon="3.5356">
        <ele>23</ele>
        <time>2022-05-09T06:12:23.000Z</time>
      </trkpt>
      <trkpt lat="50.45542" lon="3.53566">
        <ele>23</ele>
        <time>2022-05-09T06:12:24.000Z</time>
      </trkpt>
      <trkpt lat="50.45548" lon="3.53572">
        <ele>23</ele>
        <time>2022-05-09T06:12:25.000Z</time>
      </trkpt>
      <trkpt lat="50.45553" lon="3.53579">
        <ele>23</ele>
        <time>2022-05-09T06:12:26.000Z</time>
      </trkpt>
      <trkpt lat="50.45557" lon="3.53584">
        <ele>23</ele>
        <time>2022-05-09T06:12:27.000Z</time>
      </trkpt>
      <trkpt lat="50.45561" lon="3.5359">
        <ele>22.8</ele>
        <time>2022-05-09T06:12:28.000Z</time>
      </trkpt>
      <trkpt lat="50.45567" lon="3.53596">
        <ele>22.6</ele>
        <time>2022-05-09T06:12:29.000Z</time>
      </trkpt>
      <trkpt lat="50.45572" lon="3.536">
        <ele>22.4</ele>
        <time>2022-05-09T06:12:30.000Z</time>
      </trkpt>
      <trkpt lat="50.45577" lon="3.53604">
        <ele>22.2</ele>
        <time>2022-05-09T06:12:31.000Z</time>
      </trkpt>
      <trkpt lat="50.45582" lon="3.53608">
        <ele>22</ele>
        <time>2022-05-09T06:12:32.000Z</time>
      </trkpt>
      <trkpt lat="50.45587" lon="3.53615">
        <ele>22</ele>
        <time>2022-05-09T06:12:34.000Z</time>
      </trkpt>
      <trkpt lat="50.4559" lon="3.53623">
        <ele>22</ele>
        <time>2022-05-09T06:12:37.000Z</time>
      </trkpt>
      <trkpt lat="50.45591" lon="3.53631">
        <ele>22</ele>
        <time>2022-05-09T06:12:39.000Z</time>
      </trkpt>
      <trkpt lat="50.45587" lon="3.53642">
        <ele>22.1</ele>
        <time>2022-05-09T06:12:41.000Z</time>
      </trkpt>
      <trkpt lat="50.45586" lon="3.53649">
        <ele>22.3</ele>
        <time>2022-05-09T06:12:42.230Z</time>
      </trkpt>
      <trkpt lat="50.45585" lon="3.53658">
        <ele>22.6</ele>
        <time>2022-05-09T06:12:43.393Z</time>
      </trkpt>
      <trkpt lat="50.45583" lon="3.53669">
        <ele>23</ele>
        <time>2022-05-09T06:12:44.895Z</time>
      </trkpt>
      <trkpt lat="50.45581" lon="3.53677">
        <ele>23</ele>
        <time>2022-05-09T06:12:46.000Z</time>
      </trkpt>
      <trkpt lat="50.4558" lon="3.53684">
        <ele>23</ele>
        <time>2022-05-09T06:12:47.000Z</time>
      </trkpt>
      <trkpt lat="50.45579" lon="3.53691">
        <ele>23</ele>
        <time>2022-05-09T06:12:48.000Z</time>
      </trkpt>
      <trkpt lat="50.45577" lon="3.53698">
        <ele>23</ele>
        <time>2022-05-09T06:12:49.000Z</time>
      </trkpt>
      <trkpt lat="50.45572" lon="3.53711">
        <ele>23</ele>
        <time>2022-05-09T06:12:51.807Z</time>
      </trkpt>
      <trkpt lat="50.4557" lon="3.5372">
        <ele>23</ele>
        <time>2022-05-09T06:12:53.085Z</time>
      </trkpt>
      <trkpt lat="50.45569" lon="3.53734">
        <ele>22.8</ele>
        <time>2022-05-09T06:12:55.126Z</time>
      </trkpt>
      <trkpt lat="50.45566" lon="3.53745">
        <ele>22.7</ele>
        <time>2022-05-09T06:12:56.968Z</time>
      </trkpt>
      <trkpt lat="50.45564" lon="3.53752">
        <ele>22.7</ele>
        <time>2022-05-09T06:12:58.000Z</time>
      </trkpt>
      <trkpt lat="50.45563" lon="3.53759">
        <ele>22.7</ele>
        <time>2022-05-09T06:12:59.066Z</time>
      </trkpt>
      <trkpt lat="50.45562" lon="3.53766">
        <ele>22.8</ele>
        <time>2022-05-09T06:13:00.000Z</time>
      </trkpt>
      <trkpt lat="50.45558" lon="3.5378">
        <ele>22.9</ele>
        <time>2022-05-09T06:13:02.548Z</time>
      </trkpt>
      <trkpt lat="50.45557" lon="3.53787">
        <ele>23</ele>
        <time>2022-05-09T06:13:03.704Z</time>
      </trkpt>
      <trkpt lat="50.45555" lon="3.53795">
        <ele>23</ele>
        <time>2022-05-09T06:13:04.948Z</time>
      </trkpt>
      <trkpt lat="50.45554" lon="3.53802">
        <ele>23</ele>
        <time>2022-05-09T06:13:06.086Z</time>
      </trkpt>
      <trkpt lat="50.45551" lon="3.53814">
        <ele>23</ele>
        <time>2022-05-09T06:13:08.000Z</time>
      </trkpt>
      <trkpt lat="50.45548" lon="3.53828">
        <ele>23</ele>
        <time>2022-05-09T06:13:10.445Z</time>
      </trkpt>
      <trkpt lat="50.45546" lon="3.53835">
        <ele>23</ele>
        <time>2022-05-09T06:13:11.905Z</time>
      </trkpt>
      <trkpt lat="50.45544" lon="3.53841">
        <ele>23</ele>
        <time>2022-05-09T06:13:15.000Z</time>
      </trkpt>
      <trkpt lat="50.45541" lon="3.53857">
        <ele>23</ele>
        <time>2022-05-09T06:13:24.649Z</time>
      </trkpt>
      <trkpt lat="50.45537" lon="3.53874">
        <ele>22.8</ele>
        <time>2022-05-09T06:13:35.089Z</time>
      </trkpt>
      <trkpt lat="50.45533" lon="3.53889">
        <ele>22.8</ele>
        <time>2022-05-09T06:13:44.174Z</time>
      </trkpt>
      <trkpt lat="50.45529" lon="3.53909">
        <ele>23</ele>
        <time>2022-05-09T06:13:56.145Z</time>
      </trkpt>
      <trkpt lat="50.45525" lon="3.53925">
        <ele>22.7</ele>
        <time>2022-05-09T06:14:06.116Z</time>
      </trkpt>
      <trkpt lat="50.45521" lon="3.53934">
        <ele>22.5</ele>
        <time>2022-05-09T06:14:12.373Z</time>
      </trkpt>
      <trkpt lat="50.45526" lon="3.53946">
        <ele>22.1</ele>
        <time>2022-05-09T06:14:20.000Z</time>
      </trkpt>
      <trkpt lat="50.45527" lon="3.53958">
        <ele>22</ele>
        <time>2022-05-09T06:14:22.044Z</time>
      </trkpt>
      <trkpt lat="50.45532" lon="3.53961">
        <ele>21.8</ele>
        <time>2022-05-09T06:14:23.048Z</time>
      </trkpt>
      <trkpt lat="50.45537" lon="3.53962">
        <ele>21.7</ele>
        <time>2022-05-09T06:14:24.067Z</time>
      </trkpt>
      <trkpt lat="50.45544" lon="3.53963">
        <ele>21.4</ele>
        <time>2022-05-09T06:14:25.000Z</time>
      </trkpt>
      <trkpt lat="50.45549" lon="3.53964">
        <ele>21.2</ele>
        <time>2022-05-09T06:14:26.000Z</time>
      </trkpt>
      <trkpt lat="50.45556" lon="3.53966">
        <ele>21</ele>
        <time>2022-05-09T06:14:27.000Z</time>
      </trkpt>
      <trkpt lat="50.45561" lon="3.53968">
        <ele>20.8</ele>
        <time>2022-05-09T06:14:28.000Z</time>
      </trkpt>
      <trkpt lat="50.45568" lon="3.53971">
        <ele>20.6</ele>
        <time>2022-05-09T06:14:29.000Z</time>
      </trkpt>
      <trkpt lat="50.45576" lon="3.53974">
        <ele>20.2</ele>
        <time>2022-05-09T06:14:30.000Z</time>
      </trkpt>
      <trkpt lat="50.45582" lon="3.53977">
        <ele>19.9</ele>
        <time>2022-05-09T06:14:31.000Z</time>
      </trkpt>
      <trkpt lat="50.45588" lon="3.53979">
        <ele>19.6</ele>
        <time>2022-05-09T06:14:32.000Z</time>
      </trkpt>
      <trkpt lat="50.45596" lon="3.53982">
        <ele>19.2</ele>
        <time>2022-05-09T06:14:33.000Z</time>
      </trkpt>
      <trkpt lat="50.45602" lon="3.53984">
        <ele>18.9</ele>
        <time>2022-05-09T06:14:34.000Z</time>
      </trkpt>
      <trkpt lat="50.45608" lon="3.53984">
        <ele>18.7</ele>
        <time>2022-05-09T06:14:35.000Z</time>
      </trkpt>
      <trkpt lat="50.45614" lon="3.53985">
        <ele>18.4</ele>
        <time>2022-05-09T06:14:36.000Z</time>
      </trkpt>
      <trkpt lat="50.45622" lon="3.53988">
        <ele>18</ele>
        <time>2022-05-09T06:14:37.000Z</time>
      </trkpt>
      <trkpt lat="50.45628" lon="3.53993">
        <ele>17.6</ele>
        <time>2022-05-09T06:14:38.000Z</time>
      </trkpt>
      <trkpt lat="50.45634" lon="3.54">
        <ele>17.2</ele>
        <time>2022-05-09T06:14:39.000Z</time>
      </trkpt>
      <trkpt lat="50.45639" lon="3.54008">
        <ele>17</ele>
        <time>2022-05-09T06:14:40.000Z</time>
      </trkpt>
      <trkpt lat="50.45644" lon="3.54015">
        <ele>17</ele>
        <time>2022-05-09T06:14:41.000Z</time>
      </trkpt>
      <trkpt lat="50.4565" lon="3.54024">
        <ele>17</ele>
        <time>2022-05-09T06:14:42.000Z</time>
      </trkpt>
      <trkpt lat="50.45656" lon="3.54033">
        <ele>17</ele>
        <time>2022-05-09T06:14:43.000Z</time>
      </trkpt>
      <trkpt lat="50.45661" lon="3.54041">
        <ele>17</ele>
        <time>2022-05-09T06:14:44.000Z</time>
      </trkpt>
      <trkpt lat="50.45668" lon="3.54049">
        <ele>16.9</ele>
        <time>2022-05-09T06:14:45.000Z</time>
      </trkpt>
      <trkpt lat="50.45674" lon="3.54056">
        <ele>16.7</ele>
        <time>2022-05-09T06:14:46.000Z</time>
      </trkpt>
      <trkpt lat="50.4568" lon="3.54062">
        <ele>16.6</ele>
        <time>2022-05-09T06:14:47.000Z</time>
      </trkpt>
      <trkpt lat="50.45686" lon="3.54069">
        <ele>16.6</ele>
        <time>2022-05-09T06:14:48.000Z</time>
      </trkpt>
      <trkpt lat="50.45692" lon="3.54076">
        <ele>16.8</ele>
        <time>2022-05-09T06:14:49.000Z</time>
      </trkpt>
      <trkpt lat="50.45696" lon="3.54081">
        <ele>16.9</ele>
        <time>2022-05-09T06:14:49.916Z</time>
      </trkpt>
      <trkpt lat="50.45704" lon="3.5409">
        <ele>17</ele>
        <time>2022-05-09T06:14:51.000Z</time>
      </trkpt>
      <trkpt lat="50.4571" lon="3.54098">
        <ele>17</ele>
        <time>2022-05-09T06:14:52.000Z</time>
      </trkpt>
      <trkpt lat="50.45715" lon="3.54101">
        <ele>17</ele>
        <time>2022-05-09T06:14:53.000Z</time>
      </trkpt>
      <trkpt lat="50.45721" lon="3.54104">
        <ele>17</ele>
        <time>2022-05-09T06:14:54.000Z</time>
      </trkpt>
      <trkpt lat="50.45727" lon="3.54108">
        <ele>17.1</ele>
        <time>2022-05-09T06:14:55.000Z</time>
      </trkpt>
      <trkpt lat="50.45733" lon="3.54112">
        <ele>17.4</ele>
        <time>2022-05-09T06:14:56.000Z</time>
      </trkpt>
      <trkpt lat="50.45738" lon="3.54117">
        <ele>17.7</ele>
        <time>2022-05-09T06:14:57.000Z</time>
      </trkpt>
      <trkpt lat="50.45739" lon="3.54124">
        <ele>17.8</ele>
        <time>2022-05-09T06:14:58.000Z</time>
      </trkpt>
      <trkpt lat="50.45736" lon="3.54136">
        <ele>17.9</ele>
        <time>2022-05-09T06:15:00.000Z</time>
      </trkpt>
      <trkpt lat="50.4573" lon="3.54144">
        <ele>18.1</ele>
        <time>2022-05-09T06:15:01.000Z</time>
      </trkpt>
      <trkpt lat="50.45726" lon="3.5415">
        <ele>18.3</ele>
        <time>2022-05-09T06:15:02.000Z</time>
      </trkpt>
      <trkpt lat="50.45722" lon="3.54159">
        <ele>18.7</ele>
        <time>2022-05-09T06:15:03.000Z</time>
      </trkpt>
      <trkpt lat="50.45717" lon="3.54171">
        <ele>19</ele>
        <time>2022-05-09T06:15:05.000Z</time>
      </trkpt>
      <trkpt lat="50.45713" lon="3.5418">
        <ele>19</ele>
        <time>2022-05-09T06:15:06.000Z</time>
      </trkpt>
      <trkpt lat="50.45711" lon="3.54186">
        <ele>19</ele>
        <time>2022-05-09T06:15:07.000Z</time>
      </trkpt>
      <trkpt lat="50.45708" lon="3.54192">
        <ele>19</ele>
        <time>2022-05-09T06:15:08.000Z</time>
      </trkpt>
      <trkpt lat="50.45705" lon="3.54201">
        <ele>19</ele>
        <time>2022-05-09T06:15:09.000Z</time>
      </trkpt>
      <trkpt lat="50.45703" lon="3.54207">
        <ele>19</ele>
        <time>2022-05-09T06:15:10.000Z</time>
      </trkpt>
      <trkpt lat="50.45701" lon="3.54214">
        <ele>19</ele>
        <time>2022-05-09T06:15:11.000Z</time>
      </trkpt>
      <trkpt lat="50.45697" lon="3.54223">
        <ele>19</ele>
        <time>2022-05-09T06:15:12.000Z</time>
      </trkpt>
      <trkpt lat="50.45695" lon="3.5423">
        <ele>19</ele>
        <time>2022-05-09T06:15:13.000Z</time>
      </trkpt>
      <trkpt lat="50.45691" lon="3.54239">
        <ele>19.1</ele>
        <time>2022-05-09T06:15:14.000Z</time>
      </trkpt>
      <trkpt lat="50.45688" lon="3.54246">
        <ele>19.2</ele>
        <time>2022-05-09T06:15:15.000Z</time>
      </trkpt>
      <trkpt lat="50.45686" lon="3.54252">
        <ele>19.3</ele>
        <time>2022-05-09T06:15:16.000Z</time>
      </trkpt>
      <trkpt lat="50.45684" lon="3.54259">
        <ele>19.4</ele>
        <time>2022-05-09T06:15:17.000Z</time>
      </trkpt>
      <trkpt lat="50.4568" lon="3.54267">
        <ele>19.5</ele>
        <time>2022-05-09T06:15:18.000Z</time>
      </trkpt>
      <trkpt lat="50.45675" lon="3.5428">
        <ele>19.7</ele>
        <time>2022-05-09T06:15:20.000Z</time>
      </trkpt>
      <trkpt lat="50.45672" lon="3.54294">
        <ele>19.8</ele>
        <time>2022-05-09T06:15:22.000Z</time>
      </trkpt>
      <trkpt lat="50.45669" lon="3.54303">
        <ele>19.9</ele>
        <time>2022-05-09T06:15:23.000Z</time>
      </trkpt>
      <trkpt lat="50.45667" lon="3.54309">
        <ele>19.9</ele>
        <time>2022-05-09T06:15:24.000Z</time>
      </trkpt>
      <trkpt lat="50.45664" lon="3.54317">
        <ele>19.6</ele>
        <time>2022-05-09T06:15:25.000Z</time>
      </trkpt>
      <trkpt lat="50.45662" lon="3.54324">
        <ele>19.4</ele>
        <time>2022-05-09T06:15:26.000Z</time>
      </trkpt>
      <trkpt lat="50.4566" lon="3.54331">
        <ele>19.3</ele>
        <time>2022-05-09T06:15:27.000Z</time>
      </trkpt>
      <trkpt lat="50.45657" lon="3.54337">
        <ele>19.3</ele>
        <time>2022-05-09T06:15:28.000Z</time>
      </trkpt>
      <trkpt lat="50.45654" lon="3.54346">
        <ele>19.3</ele>
        <time>2022-05-09T06:15:29.000Z</time>
      </trkpt>
      <trkpt lat="50.45649" lon="3.54358">
        <ele>19.1</ele>
        <time>2022-05-09T06:15:31.000Z</time>
      </trkpt>
      <trkpt lat="50.45647" lon="3.54366">
        <ele>19</ele>
        <time>2022-05-09T06:15:32.000Z</time>
      </trkpt>
      <trkpt lat="50.45643" lon="3.54379">
        <ele>19</ele>
        <time>2022-05-09T06:15:34.000Z</time>
      </trkpt>
      <trkpt lat="50.4564" lon="3.54388">
        <ele>19</ele>
        <time>2022-05-09T06:15:35.000Z</time>
      </trkpt>
      <trkpt lat="50.45639" lon="3.54395">
        <ele>19</ele>
        <time>2022-05-09T06:15:36.000Z</time>
      </trkpt>
      <trkpt lat="50.45635" lon="3.54407">
        <ele>19</ele>
        <time>2022-05-09T06:15:38.000Z</time>
      </trkpt>
      <trkpt lat="50.45631" lon="3.54421">
        <ele>19</ele>
        <time>2022-05-09T06:15:40.000Z</time>
      </trkpt>
      <trkpt lat="50.45629" lon="3.54428">
        <ele>19</ele>
        <time>2022-05-09T06:15:41.000Z</time>
      </trkpt>
      <trkpt lat="50.45627" lon="3.54437">
        <ele>19</ele>
        <time>2022-05-09T06:15:42.000Z</time>
      </trkpt>
      <trkpt lat="50.45625" lon="3.54443">
        <ele>19</ele>
        <time>2022-05-09T06:15:43.000Z</time>
      </trkpt>
      <trkpt lat="50.45623" lon="3.5445">
        <ele>18.8</ele>
        <time>2022-05-09T06:15:44.000Z</time>
      </trkpt>
      <trkpt lat="50.45621" lon="3.54457">
        <ele>18.6</ele>
        <time>2022-05-09T06:15:45.000Z</time>
      </trkpt>
      <trkpt lat="50.4562" lon="3.54464">
        <ele>18.3</ele>
        <time>2022-05-09T06:15:46.000Z</time>
      </trkpt>
      <trkpt lat="50.45617" lon="3.54472">
        <ele>18</ele>
        <time>2022-05-09T06:15:47.000Z</time>
      </trkpt>
      <trkpt lat="50.45615" lon="3.54486">
        <ele>18</ele>
        <time>2022-05-09T06:15:49.000Z</time>
      </trkpt>
      <trkpt lat="50.45613" lon="3.54494">
        <ele>18</ele>
        <time>2022-05-09T06:15:50.000Z</time>
      </trkpt>
      <trkpt lat="50.45612" lon="3.54501">
        <ele>18</ele>
        <time>2022-05-09T06:15:51.000Z</time>
      </trkpt>
      <trkpt lat="50.4561" lon="3.54508">
        <ele>18</ele>
        <time>2022-05-09T06:15:52.000Z</time>
      </trkpt>
      <trkpt lat="50.45609" lon="3.54515">
        <ele>18</ele>
        <time>2022-05-09T06:15:53.000Z</time>
      </trkpt>
      <trkpt lat="50.45607" lon="3.54524">
        <ele>18</ele>
        <time>2022-05-09T06:15:54.000Z</time>
      </trkpt>
      <trkpt lat="50.45604" lon="3.54539">
        <ele>18</ele>
        <time>2022-05-09T06:15:56.000Z</time>
      </trkpt>
      <trkpt lat="50.456" lon="3.54555">
        <ele>18</ele>
        <time>2022-05-09T06:15:58.000Z</time>
      </trkpt>
      <trkpt lat="50.45599" lon="3.54562">
        <ele>18</ele>
        <time>2022-05-09T06:15:59.000Z</time>
      </trkpt>
      <trkpt lat="50.45597" lon="3.54569">
        <ele>18</ele>
        <time>2022-05-09T06:16:00.000Z</time>
      </trkpt>
      <trkpt lat="50.45596" lon="3.54576">
        <ele>18</ele>
        <time>2022-05-09T06:16:01.000Z</time>
      </trkpt>
      <trkpt lat="50.45594" lon="3.54584">
        <ele>18</ele>
        <time>2022-05-09T06:16:02.000Z</time>
      </trkpt>
      <trkpt lat="50.45593" lon="3.54593">
        <ele>18</ele>
        <time>2022-05-09T06:16:03.000Z</time>
      </trkpt>
      <trkpt lat="50.45591" lon="3.546">
        <ele>18</ele>
        <time>2022-05-09T06:16:04.000Z</time>
      </trkpt>
      <trkpt lat="50.4559" lon="3.54608">
        <ele>18</ele>
        <time>2022-05-09T06:16:05.000Z</time>
      </trkpt>
      <trkpt lat="50.45589" lon="3.54615">
        <ele>18</ele>
        <time>2022-05-09T06:16:06.000Z</time>
      </trkpt>
      <trkpt lat="50.45588" lon="3.54623">
        <ele>18</ele>
        <time>2022-05-09T06:16:07.000Z</time>
      </trkpt>
      <trkpt lat="50.45587" lon="3.5463">
        <ele>18</ele>
        <time>2022-05-09T06:16:08.000Z</time>
      </trkpt>
      <trkpt lat="50.45586" lon="3.54639">
        <ele>18</ele>
        <time>2022-05-09T06:16:09.000Z</time>
      </trkpt>
      <trkpt lat="50.45583" lon="3.54653">
        <ele>18</ele>
        <time>2022-05-09T06:16:11.000Z</time>
      </trkpt>
      <trkpt lat="50.45581" lon="3.54661">
        <ele>18</ele>
        <time>2022-05-09T06:16:12.000Z</time>
      </trkpt>
      <trkpt lat="50.45579" lon="3.54672">
        <ele>18</ele>
        <time>2022-05-09T06:16:14.000Z</time>
      </trkpt>
      <trkpt lat="50.45576" lon="3.54685">
        <ele>18</ele>
        <time>2022-05-09T06:16:16.000Z</time>
      </trkpt>
      <trkpt lat="50.45574" lon="3.54699">
        <ele>18</ele>
        <time>2022-05-09T06:16:18.000Z</time>
      </trkpt>
      <trkpt lat="50.45572" lon="3.54714">
        <ele>18</ele>
        <time>2022-05-09T06:16:20.000Z</time>
      </trkpt>
      <trkpt lat="50.45569" lon="3.54727">
        <ele>18.1</ele>
        <time>2022-05-09T06:16:22.000Z</time>
      </trkpt>
      <trkpt lat="50.45567" lon="3.54733">
        <ele>18.2</ele>
        <time>2022-05-09T06:16:23.000Z</time>
      </trkpt>
      <trkpt lat="50.45567" lon="3.54742">
        <ele>18.4</ele>
        <time>2022-05-09T06:16:24.000Z</time>
      </trkpt>
      <trkpt lat="50.45564" lon="3.54759">
        <ele>18.7</ele>
        <time>2022-05-09T06:16:26.000Z</time>
      </trkpt>
      <trkpt lat="50.45564" lon="3.54769">
        <ele>18.7</ele>
        <time>2022-05-09T06:16:28.000Z</time>
      </trkpt>
      <trkpt lat="50.45562" lon="3.54784">
        <ele>18.8</ele>
        <time>2022-05-09T06:16:30.000Z</time>
      </trkpt>
      <trkpt lat="50.4556" lon="3.54798">
        <ele>18.9</ele>
        <time>2022-05-09T06:16:32.000Z</time>
      </trkpt>
      <trkpt lat="50.45558" lon="3.54805">
        <ele>18.9</ele>
        <time>2022-05-09T06:16:33.000Z</time>
      </trkpt>
      <trkpt lat="50.45557" lon="3.54812">
        <ele>18.9</ele>
        <time>2022-05-09T06:16:34.000Z</time>
      </trkpt>
      <trkpt lat="50.45556" lon="3.5482">
        <ele>19</ele>
        <time>2022-05-09T06:16:35.000Z</time>
      </trkpt>
      <trkpt lat="50.45556" lon="3.54828">
        <ele>19</ele>
        <time>2022-05-09T06:16:36.000Z</time>
      </trkpt>
      <trkpt lat="50.45554" lon="3.54838">
        <ele>19</ele>
        <time>2022-05-09T06:16:37.000Z</time>
      </trkpt>
      <trkpt lat="50.45552" lon="3.54852">
        <ele>19</ele>
        <time>2022-05-09T06:16:39.000Z</time>
      </trkpt>
      <trkpt lat="50.45551" lon="3.5486">
        <ele>19</ele>
        <time>2022-05-09T06:16:40.000Z</time>
      </trkpt>
      <trkpt lat="50.45549" lon="3.54872">
        <ele>18.7</ele>
        <time>2022-05-09T06:16:42.000Z</time>
      </trkpt>
      <trkpt lat="50.45548" lon="3.54881">
        <ele>18.5</ele>
        <time>2022-05-09T06:16:44.000Z</time>
      </trkpt>
      <trkpt lat="50.45547" lon="3.5489">
        <ele>18.3</ele>
        <time>2022-05-09T06:16:46.000Z</time>
      </trkpt>
      <trkpt lat="50.45545" lon="3.54899">
        <ele>18.2</ele>
        <time>2022-05-09T06:16:47.000Z</time>
      </trkpt>
      <trkpt lat="50.45544" lon="3.54906">
        <ele>18.2</ele>
        <time>2022-05-09T06:16:48.000Z</time>
      </trkpt>
      <trkpt lat="50.45543" lon="3.54915">
        <ele>18</ele>
        <time>2022-05-09T06:16:49.429Z</time>
      </trkpt>
      <trkpt lat="50.45542" lon="3.54924">
        <ele>18</ele>
        <time>2022-05-09T06:16:50.370Z</time>
      </trkpt>
      <trkpt lat="50.45541" lon="3.54936">
        <ele>18</ele>
        <time>2022-05-09T06:16:52.773Z</time>
      </trkpt>
      <trkpt lat="50.45538" lon="3.54948">
        <ele>18.1</ele>
        <time>2022-05-09T06:16:54.000Z</time>
      </trkpt>
      <trkpt lat="50.45537" lon="3.54955">
        <ele>18.2</ele>
        <time>2022-05-09T06:16:55.000Z</time>
      </trkpt>
      <trkpt lat="50.45536" lon="3.54962">
        <ele>18.4</ele>
        <time>2022-05-09T06:16:56.000Z</time>
      </trkpt>
      <trkpt lat="50.45535" lon="3.54976">
        <ele>18.7</ele>
        <time>2022-05-09T06:16:58.000Z</time>
      </trkpt>
      <trkpt lat="50.45535" lon="3.54983">
        <ele>18.8</ele>
        <time>2022-05-09T06:16:59.000Z</time>
      </trkpt>
      <trkpt lat="50.45534" lon="3.54992">
        <ele>18.8</ele>
        <time>2022-05-09T06:17:00.000Z</time>
      </trkpt>
      <trkpt lat="50.45533" lon="3.55">
        <ele>18.8</ele>
        <time>2022-05-09T06:17:01.000Z</time>
      </trkpt>
      <trkpt lat="50.45532" lon="3.55007">
        <ele>18.9</ele>
        <time>2022-05-09T06:17:02.000Z</time>
      </trkpt>
      <trkpt lat="50.45531" lon="3.55014">
        <ele>18.9</ele>
        <time>2022-05-09T06:17:03.000Z</time>
      </trkpt>
      <trkpt lat="50.4553" lon="3.55023">
        <ele>18.9</ele>
        <time>2022-05-09T06:17:04.000Z</time>
      </trkpt>
      <trkpt lat="50.45529" lon="3.5504">
        <ele>19</ele>
        <time>2022-05-09T06:17:06.000Z</time>
      </trkpt>
      <trkpt lat="50.45528" lon="3.55048">
        <ele>19</ele>
        <time>2022-05-09T06:17:07.000Z</time>
      </trkpt>
      <trkpt lat="50.45527" lon="3.55055">
        <ele>19</ele>
        <time>2022-05-09T06:17:08.000Z</time>
      </trkpt>
      <trkpt lat="50.45525" lon="3.55063">
        <ele>19.1</ele>
        <time>2022-05-09T06:17:09.000Z</time>
      </trkpt>
      <trkpt lat="50.45523" lon="3.55072">
        <ele>19.2</ele>
        <time>2022-05-09T06:17:10.000Z</time>
      </trkpt>
      <trkpt lat="50.45521" lon="3.55089">
        <ele>19.2</ele>
        <time>2022-05-09T06:17:12.000Z</time>
      </trkpt>
      <trkpt lat="50.4552" lon="3.55097">
        <ele>19.1</ele>
        <time>2022-05-09T06:17:13.000Z</time>
      </trkpt>
      <trkpt lat="50.45519" lon="3.55104">
        <ele>19.1</ele>
        <time>2022-05-09T06:17:14.000Z</time>
      </trkpt>
      <trkpt lat="50.45518" lon="3.55112">
        <ele>19</ele>
        <time>2022-05-09T06:17:15.000Z</time>
      </trkpt>
      <trkpt lat="50.45517" lon="3.55121">
        <ele>18.8</ele>
        <time>2022-05-09T06:17:16.000Z</time>
      </trkpt>
      <trkpt lat="50.45515" lon="3.55137">
        <ele>18.5</ele>
        <time>2022-05-09T06:17:18.000Z</time>
      </trkpt>
      <trkpt lat="50.45512" lon="3.55151">
        <ele>18.6</ele>
        <time>2022-05-09T06:17:20.000Z</time>
      </trkpt>
      <trkpt lat="50.4551" lon="3.55161">
        <ele>18.6</ele>
        <time>2022-05-09T06:17:21.000Z</time>
      </trkpt>
      <trkpt lat="50.45509" lon="3.5517">
        <ele>18.7</ele>
        <time>2022-05-09T06:17:22.000Z</time>
      </trkpt>
      <trkpt lat="50.45508" lon="3.55179">
        <ele>18.7</ele>
        <time>2022-05-09T06:17:23.000Z</time>
      </trkpt>
      <trkpt lat="50.45507" lon="3.55187">
        <ele>18.7</ele>
        <time>2022-05-09T06:17:24.000Z</time>
      </trkpt>
      <trkpt lat="50.45506" lon="3.55195">
        <ele>18.8</ele>
        <time>2022-05-09T06:17:25.000Z</time>
      </trkpt>
      <trkpt lat="50.45503" lon="3.55205">
        <ele>18.9</ele>
        <time>2022-05-09T06:17:26.000Z</time>
      </trkpt>
      <trkpt lat="50.45502" lon="3.55212">
        <ele>18.9</ele>
        <time>2022-05-09T06:17:27.000Z</time>
      </trkpt>
      <trkpt lat="50.455" lon="3.55221">
        <ele>19</ele>
        <time>2022-05-09T06:17:28.000Z</time>
      </trkpt>
      <trkpt lat="50.45498" lon="3.5523">
        <ele>18.7</ele>
        <time>2022-05-09T06:17:29.000Z</time>
      </trkpt>
      <trkpt lat="50.45497" lon="3.55238">
        <ele>18.5</ele>
        <time>2022-05-09T06:17:30.000Z</time>
      </trkpt>
      <trkpt lat="50.45495" lon="3.55246">
        <ele>18.3</ele>
        <time>2022-05-09T06:17:31.000Z</time>
      </trkpt>
      <trkpt lat="50.45494" lon="3.55255">
        <ele>18.2</ele>
        <time>2022-05-09T06:17:32.000Z</time>
      </trkpt>
      <trkpt lat="50.45491" lon="3.5527">
        <ele>18.3</ele>
        <time>2022-05-09T06:17:34.000Z</time>
      </trkpt>
      <trkpt lat="50.4549" lon="3.55279">
        <ele>18.4</ele>
        <time>2022-05-09T06:17:35.000Z</time>
      </trkpt>
      <trkpt lat="50.45488" lon="3.55286">
        <ele>18.3</ele>
        <time>2022-05-09T06:17:36.000Z</time>
      </trkpt>
      <trkpt lat="50.45486" lon="3.55295">
        <ele>18.2</ele>
        <time>2022-05-09T06:17:37.000Z</time>
      </trkpt>
      <trkpt lat="50.45485" lon="3.55302">
        <ele>18.1</ele>
        <time>2022-05-09T06:17:38.000Z</time>
      </trkpt>
      <trkpt lat="50.45484" lon="3.55309">
        <ele>18</ele>
        <time>2022-05-09T06:17:39.000Z</time>
      </trkpt>
      <trkpt lat="50.45481" lon="3.55324">
        <ele>18</ele>
        <time>2022-05-09T06:17:41.000Z</time>
      </trkpt>
      <trkpt lat="50.45478" lon="3.55338">
        <ele>18</ele>
        <time>2022-05-09T06:17:43.000Z</time>
      </trkpt>
      <trkpt lat="50.45476" lon="3.55345">
        <ele>17.9</ele>
        <time>2022-05-09T06:17:44.000Z</time>
      </trkpt>
      <trkpt lat="50.45473" lon="3.55357">
        <ele>18</ele>
        <time>2022-05-09T06:17:46.000Z</time>
      </trkpt>
      <trkpt lat="50.45472" lon="3.55365">
        <ele>18</ele>
        <time>2022-05-09T06:17:47.000Z</time>
      </trkpt>
      <trkpt lat="50.45469" lon="3.55377">
        <ele>18</ele>
        <time>2022-05-09T06:17:49.000Z</time>
      </trkpt>
      <trkpt lat="50.45467" lon="3.55388">
        <ele>18</ele>
        <time>2022-05-09T06:17:51.000Z</time>
      </trkpt>
      <trkpt lat="50.45465" lon="3.55398">
        <ele>18</ele>
        <time>2022-05-09T06:17:52.000Z</time>
      </trkpt>
      <trkpt lat="50.45463" lon="3.55407">
        <ele>18</ele>
        <time>2022-05-09T06:17:54.000Z</time>
      </trkpt>
      <trkpt lat="50.45462" lon="3.55416">
        <ele>18</ele>
        <time>2022-05-09T06:17:55.000Z</time>
      </trkpt>
      <trkpt lat="50.4546" lon="3.55423">
        <ele>18</ele>
        <time>2022-05-09T06:17:56.000Z</time>
      </trkpt>
      <trkpt lat="50.45459" lon="3.5543">
        <ele>18</ele>
        <time>2022-05-09T06:17:57.000Z</time>
      </trkpt>
      <trkpt lat="50.45458" lon="3.55439">
        <ele>18</ele>
        <time>2022-05-09T06:17:58.017Z</time>
      </trkpt>
      <trkpt lat="50.45456" lon="3.55454">
        <ele>18</ele>
        <time>2022-05-09T06:18:01.079Z</time>
      </trkpt>
      <trkpt lat="50.45454" lon="3.55463">
        <ele>18</ele>
        <time>2022-05-09T06:18:02.000Z</time>
      </trkpt>
      <trkpt lat="50.45452" lon="3.55474">
        <ele>18</ele>
        <time>2022-05-09T06:18:03.000Z</time>
      </trkpt>
      <trkpt lat="50.45449" lon="3.55486">
        <ele>18</ele>
        <time>2022-05-09T06:18:05.144Z</time>
      </trkpt>
      <trkpt lat="50.45447" lon="3.55495">
        <ele>18</ele>
        <time>2022-05-09T06:18:06.143Z</time>
      </trkpt>
      <trkpt lat="50.45445" lon="3.55506">
        <ele>18</ele>
        <time>2022-05-09T06:18:07.942Z</time>
      </trkpt>
      <trkpt lat="50.45443" lon="3.55515">
        <ele>18</ele>
        <time>2022-05-09T06:18:09.066Z</time>
      </trkpt>
      <trkpt lat="50.45441" lon="3.55524">
        <ele>18</ele>
        <time>2022-05-09T06:18:11.000Z</time>
      </trkpt>
      <trkpt lat="50.4544" lon="3.55533">
        <ele>17.9</ele>
        <time>2022-05-09T06:18:12.130Z</time>
      </trkpt>
      <trkpt lat="50.45437" lon="3.55548">
        <ele>17.5</ele>
        <time>2022-05-09T06:18:14.567Z</time>
      </trkpt>
      <trkpt lat="50.45435" lon="3.55557">
        <ele>17.3</ele>
        <time>2022-05-09T06:18:15.793Z</time>
      </trkpt>
      <trkpt lat="50.45433" lon="3.55565">
        <ele>17.3</ele>
        <time>2022-05-09T06:18:17.030Z</time>
      </trkpt>
      <trkpt lat="50.45431" lon="3.55573">
        <ele>17.2</ele>
        <time>2022-05-09T06:18:18.000Z</time>
      </trkpt>
      <trkpt lat="50.4543" lon="3.55581">
        <ele>17.1</ele>
        <time>2022-05-09T06:18:18.907Z</time>
      </trkpt>
      <trkpt lat="50.45429" lon="3.55588">
        <ele>17</ele>
        <time>2022-05-09T06:18:20.000Z</time>
      </trkpt>
      <trkpt lat="50.45428" lon="3.55597">
        <ele>17</ele>
        <time>2022-05-09T06:18:21.150Z</time>
      </trkpt>
      <trkpt lat="50.45425" lon="3.55605">
        <ele>17</ele>
        <time>2022-05-09T06:18:22.835Z</time>
      </trkpt>
      <trkpt lat="50.45424" lon="3.55615">
        <ele>17</ele>
        <time>2022-05-09T06:18:25.000Z</time>
      </trkpt>
      <trkpt lat="50.45422" lon="3.55624">
        <ele>17</ele>
        <time>2022-05-09T06:18:26.000Z</time>
      </trkpt>
      <trkpt lat="50.45419" lon="3.55633">
        <ele>17</ele>
        <time>2022-05-09T06:18:27.011Z</time>
      </trkpt>
      <trkpt lat="50.45418" lon="3.55643">
        <ele>17</ele>
        <time>2022-05-09T06:18:29.090Z</time>
      </trkpt>
      <trkpt lat="50.45417" lon="3.5565">
        <ele>17</ele>
        <time>2022-05-09T06:18:30.000Z</time>
      </trkpt>
      <trkpt lat="50.45414" lon="3.5566">
        <ele>17</ele>
        <time>2022-05-09T06:18:32.080Z</time>
      </trkpt>
      <trkpt lat="50.45411" lon="3.55668">
        <ele>17</ele>
        <time>2022-05-09T06:18:33.000Z</time>
      </trkpt>
      <trkpt lat="50.45409" lon="3.55681">
        <ele>17</ele>
        <time>2022-05-09T06:18:34.462Z</time>
      </trkpt>
      <trkpt lat="50.45407" lon="3.55694">
        <ele>17</ele>
        <time>2022-05-09T06:18:36.000Z</time>
      </trkpt>
      <trkpt lat="50.45404" lon="3.55706">
        <ele>17</ele>
        <time>2022-05-09T06:18:38.811Z</time>
      </trkpt>
      <trkpt lat="50.45401" lon="3.55718">
        <ele>17</ele>
        <time>2022-05-09T06:18:40.030Z</time>
      </trkpt>
      <trkpt lat="50.45399" lon="3.55728">
        <ele>16.9</ele>
        <time>2022-05-09T06:18:41.894Z</time>
      </trkpt>
      <trkpt lat="50.45397" lon="3.55738">
        <ele>16.8</ele>
        <time>2022-05-09T06:18:42.992Z</time>
      </trkpt>
      <trkpt lat="50.45395" lon="3.55752">
        <ele>16.8</ele>
        <time>2022-05-09T06:18:45.000Z</time>
      </trkpt>
      <trkpt lat="50.45392" lon="3.55761">
        <ele>16.9</ele>
        <time>2022-05-09T06:18:46.753Z</time>
      </trkpt>
      <trkpt lat="50.4539" lon="3.55768">
        <ele>16.9</ele>
        <time>2022-05-09T06:18:48.134Z</time>
      </trkpt>
      <trkpt lat="50.45389" lon="3.55777">
        <ele>17</ele>
        <time>2022-05-09T06:18:49.414Z</time>
      </trkpt>
      <trkpt lat="50.45387" lon="3.55786">
        <ele>17</ele>
        <time>2022-05-09T06:18:50.932Z</time>
      </trkpt>
      <trkpt lat="50.45386" lon="3.55795">
        <ele>17</ele>
        <time>2022-05-09T06:18:52.000Z</time>
      </trkpt>
      <trkpt lat="50.45384" lon="3.55807">
        <ele>17</ele>
        <time>2022-05-09T06:18:53.150Z</time>
      </trkpt>
      <trkpt lat="50.45383" lon="3.55818">
        <ele>17</ele>
        <time>2022-05-09T06:18:55.152Z</time>
      </trkpt>
      <trkpt lat="50.45381" lon="3.55828">
        <ele>17</ele>
        <time>2022-05-09T06:18:56.992Z</time>
      </trkpt>
      <trkpt lat="50.45378" lon="3.55843">
        <ele>17</ele>
        <time>2022-05-09T06:18:59.000Z</time>
      </trkpt>
      <trkpt lat="50.45376" lon="3.55852">
        <ele>17</ele>
        <time>2022-05-09T06:19:00.000Z</time>
      </trkpt>
      <trkpt lat="50.45373" lon="3.55867">
        <ele>17</ele>
        <time>2022-05-09T06:19:03.299Z</time>
      </trkpt>
      <trkpt lat="50.4537" lon="3.55881">
        <ele>17</ele>
        <time>2022-05-09T06:19:05.079Z</time>
      </trkpt>
      <trkpt lat="50.45367" lon="3.55891">
        <ele>17</ele>
        <time>2022-05-09T06:19:06.000Z</time>
      </trkpt>
      <trkpt lat="50.45364" lon="3.55903">
        <ele>17</ele>
        <time>2022-05-09T06:19:08.000Z</time>
      </trkpt>
      <trkpt lat="50.45362" lon="3.55915">
        <ele>17</ele>
        <time>2022-05-09T06:19:10.000Z</time>
      </trkpt>
      <trkpt lat="50.45358" lon="3.55929">
        <ele>17</ele>
        <time>2022-05-09T06:19:12.000Z</time>
      </trkpt>
      <trkpt lat="50.45357" lon="3.55937">
        <ele>17</ele>
        <time>2022-05-09T06:19:13.759Z</time>
      </trkpt>
      <trkpt lat="50.45356" lon="3.55945">
        <ele>17</ele>
        <time>2022-05-09T06:19:14.782Z</time>
      </trkpt>
      <trkpt lat="50.45354" lon="3.55955">
        <ele>17.4</ele>
        <time>2022-05-09T06:19:17.000Z</time>
      </trkpt>
      <trkpt lat="50.45352" lon="3.55963">
        <ele>17.7</ele>
        <time>2022-05-09T06:19:18.000Z</time>
      </trkpt>
      <trkpt lat="50.45351" lon="3.5597">
        <ele>17.9</ele>
        <time>2022-05-09T06:19:19.000Z</time>
      </trkpt>
      <trkpt lat="50.45351" lon="3.55979">
        <ele>18</ele>
        <time>2022-05-09T06:19:20.441Z</time>
      </trkpt>
      <trkpt lat="50.45349" lon="3.55989">
        <ele>18</ele>
        <time>2022-05-09T06:19:22.640Z</time>
      </trkpt>
      <trkpt lat="50.45345" lon="3.56">
        <ele>18</ele>
        <time>2022-05-09T06:19:24.042Z</time>
      </trkpt>
      <trkpt lat="50.45344" lon="3.56007">
        <ele>18</ele>
        <time>2022-05-09T06:19:25.000Z</time>
      </trkpt>
      <trkpt lat="50.45341" lon="3.56016">
        <ele>18</ele>
        <time>2022-05-09T06:19:27.000Z</time>
      </trkpt>
      <trkpt lat="50.45339" lon="3.56027">
        <ele>18</ele>
        <time>2022-05-09T06:19:29.000Z</time>
      </trkpt>
      <trkpt lat="50.45336" lon="3.56042">
        <ele>18</ele>
        <time>2022-05-09T06:19:31.320Z</time>
      </trkpt>
      <trkpt lat="50.45333" lon="3.56057">
        <ele>18</ele>
        <time>2022-05-09T06:19:34.041Z</time>
      </trkpt>
      <trkpt lat="50.45331" lon="3.56069">
        <ele>18</ele>
        <time>2022-05-09T06:19:36.000Z</time>
      </trkpt>
      <trkpt lat="50.4533" lon="3.56077">
        <ele>18.1</ele>
        <time>2022-05-09T06:19:37.000Z</time>
      </trkpt>
      <trkpt lat="50.45328" lon="3.56085">
        <ele>18.2</ele>
        <time>2022-05-09T06:19:39.082Z</time>
      </trkpt>
      <trkpt lat="50.45327" lon="3.56092">
        <ele>18.2</ele>
        <time>2022-05-09T06:19:40.000Z</time>
      </trkpt>
      <trkpt lat="50.45324" lon="3.56103">
        <ele>18.3</ele>
        <time>2022-05-09T06:19:42.131Z</time>
      </trkpt>
      <trkpt lat="50.45322" lon="3.56118">
        <ele>18.6</ele>
        <time>2022-05-09T06:19:44.000Z</time>
      </trkpt>
      <trkpt lat="50.4532" lon="3.56129">
        <ele>18.8</ele>
        <time>2022-05-09T06:19:45.594Z</time>
      </trkpt>
      <trkpt lat="50.45317" lon="3.56141">
        <ele>19</ele>
        <time>2022-05-09T06:19:46.877Z</time>
      </trkpt>
      <trkpt lat="50.45312" lon="3.56159">
        <ele>19</ele>
        <time>2022-05-09T06:19:50.000Z</time>
      </trkpt>
      <trkpt lat="50.45309" lon="3.56172">
        <ele>19</ele>
        <time>2022-05-09T06:19:52.000Z</time>
      </trkpt>
      <trkpt lat="50.45308" lon="3.56179">
        <ele>19</ele>
        <time>2022-05-09T06:19:53.000Z</time>
      </trkpt>
      <trkpt lat="50.45306" lon="3.56187">
        <ele>19</ele>
        <time>2022-05-09T06:19:54.000Z</time>
      </trkpt>
      <trkpt lat="50.45303" lon="3.56201">
        <ele>19</ele>
        <time>2022-05-09T06:19:56.000Z</time>
      </trkpt>
      <trkpt lat="50.453" lon="3.56213">
        <ele>19</ele>
        <time>2022-05-09T06:19:58.000Z</time>
      </trkpt>
      <trkpt lat="50.45298" lon="3.56221">
        <ele>19</ele>
        <time>2022-05-09T06:19:59.000Z</time>
      </trkpt>
      <trkpt lat="50.45296" lon="3.56234">
        <ele>19.4</ele>
        <time>2022-05-09T06:20:01.000Z</time>
      </trkpt>
      <trkpt lat="50.45293" lon="3.56245">
        <ele>19.8</ele>
        <time>2022-05-09T06:20:03.000Z</time>
      </trkpt>
      <trkpt lat="50.4529" lon="3.56261">
        <ele>19.8</ele>
        <time>2022-05-09T06:20:05.000Z</time>
      </trkpt>
      <trkpt lat="50.45286" lon="3.56274">
        <ele>19.7</ele>
        <time>2022-05-09T06:20:07.000Z</time>
      </trkpt>
      <trkpt lat="50.45285" lon="3.56282">
        <ele>19.6</ele>
        <time>2022-05-09T06:20:08.000Z</time>
      </trkpt>
      <trkpt lat="50.45283" lon="3.56294">
        <ele>19.5</ele>
        <time>2022-05-09T06:20:10.000Z</time>
      </trkpt>
      <trkpt lat="50.45278" lon="3.56305">
        <ele>19.9</ele>
        <time>2022-05-09T06:20:12.350Z</time>
      </trkpt>
      <trkpt lat="50.45276" lon="3.56319">
        <ele>19.7</ele>
        <time>2022-05-09T06:20:14.153Z</time>
      </trkpt>
      <trkpt lat="50.45276" lon="3.5633">
        <ele>19.3</ele>
        <time>2022-05-09T06:20:15.508Z</time>
      </trkpt>
      <trkpt lat="50.45274" lon="3.56339">
        <ele>19.2</ele>
        <time>2022-05-09T06:20:16.619Z</time>
      </trkpt>
      <trkpt lat="50.45273" lon="3.56351">
        <ele>19</ele>
        <time>2022-05-09T06:20:18.912Z</time>
      </trkpt>
      <trkpt lat="50.45271" lon="3.56364">
        <ele>18.8</ele>
        <time>2022-05-09T06:20:21.188Z</time>
      </trkpt>
      <trkpt lat="50.45269" lon="3.56375">
        <ele>18.5</ele>
        <time>2022-05-09T06:20:23.000Z</time>
      </trkpt>
      <trkpt lat="50.45268" lon="3.56388">
        <ele>17.9</ele>
        <time>2022-05-09T06:20:25.000Z</time>
      </trkpt>
      <trkpt lat="50.45268" lon="3.56395">
        <ele>17.5</ele>
        <time>2022-05-09T06:20:26.000Z</time>
      </trkpt>
      <trkpt lat="50.45266" lon="3.56404">
        <ele>17.3</ele>
        <time>2022-05-09T06:20:27.000Z</time>
      </trkpt>
      <trkpt lat="50.45263" lon="3.56412">
        <ele>17.5</ele>
        <time>2022-05-09T06:20:29.083Z</time>
      </trkpt>
      <trkpt lat="50.45259" lon="3.56416">
        <ele>17.7</ele>
        <time>2022-05-09T06:20:30.682Z</time>
      </trkpt>
      <trkpt lat="50.45254" lon="3.56412">
        <ele>18.7</ele>
        <time>2022-05-09T06:20:38.022Z</time>
      </trkpt>
      <trkpt lat="50.45251" lon="3.56405">
        <ele>19.7</ele>
        <time>2022-05-09T06:20:40.025Z</time>
      </trkpt>
      <trkpt lat="50.45248" lon="3.56396">
        <ele>20.5</ele>
        <time>2022-05-09T06:20:41.382Z</time>
      </trkpt>
      <trkpt lat="50.45247" lon="3.56389">
        <ele>20.8</ele>
        <time>2022-05-09T06:20:42.923Z</time>
      </trkpt>
      <trkpt lat="50.45252" lon="3.56392">
        <ele>20.4</ele>
        <time>2022-05-09T06:21:03.000Z</time>
      </trkpt>
      <trkpt lat="50.45257" lon="3.56397">
        <ele>19.3</ele>
        <time>2022-05-09T06:21:07.000Z</time>
      </trkpt>
      <trkpt lat="50.45261" lon="3.56402">
        <ele>18.3</ele>
        <time>2022-05-09T06:21:08.000Z</time>
      </trkpt>
      <trkpt lat="50.45266" lon="3.56409">
        <ele>17.1</ele>
        <time>2022-05-09T06:21:10.000Z</time>
      </trkpt>
      <trkpt lat="50.4527" lon="3.56415">
        <ele>16.2</ele>
        <time>2022-05-09T06:21:11.000Z</time>
      </trkpt>
      <trkpt lat="50.45279" lon="3.5643">
        <ele>14.6</ele>
        <time>2022-05-09T06:21:13.780Z</time>
      </trkpt>
      <trkpt lat="50.45285" lon="3.56437">
        <ele>14.5</ele>
        <time>2022-05-09T06:21:15.961Z</time>
      </trkpt>
      <trkpt lat="50.45292" lon="3.56447">
        <ele>14.5</ele>
        <time>2022-05-09T06:21:17.790Z</time>
      </trkpt>
      <trkpt lat="50.45299" lon="3.56456">
        <ele>14.8</ele>
        <time>2022-05-09T06:21:20.000Z</time>
      </trkpt>
      <trkpt lat="50.45303" lon="3.56461">
        <ele>14.9</ele>
        <time>2022-05-09T06:21:21.188Z</time>
      </trkpt>
      <trkpt lat="50.45308" lon="3.56468">
        <ele>15.5</ele>
        <time>2022-05-09T06:21:22.642Z</time>
      </trkpt>
      <trkpt lat="50.45312" lon="3.56477">
        <ele>16.8</ele>
        <time>2022-05-09T06:21:24.001Z</time>
      </trkpt>
      <trkpt lat="50.45318" lon="3.56485">
        <ele>18.4</ele>
        <time>2022-05-09T06:21:26.684Z</time>
      </trkpt>
      <trkpt lat="50.45322" lon="3.56491">
        <ele>19.4</ele>
        <time>2022-05-09T06:21:28.000Z</time>
      </trkpt>
      <trkpt lat="50.45329" lon="3.565">
        <ele>21</ele>
        <time>2022-05-09T06:21:30.000Z</time>
      </trkpt>
      <trkpt lat="50.45333" lon="3.56506">
        <ele>21.5</ele>
        <time>2022-05-09T06:21:31.000Z</time>
      </trkpt>
      <trkpt lat="50.45337" lon="3.56512">
        <ele>21.3</ele>
        <time>2022-05-09T06:21:32.902Z</time>
      </trkpt>
      <trkpt lat="50.45341" lon="3.56519">
        <ele>21</ele>
        <time>2022-05-09T06:21:34.082Z</time>
      </trkpt>
      <trkpt lat="50.45348" lon="3.56529">
        <ele>21</ele>
        <time>2022-05-09T06:21:36.345Z</time>
      </trkpt>
      <trkpt lat="50.45353" lon="3.56541">
        <ele>21.4</ele>
        <time>2022-05-09T06:21:39.000Z</time>
      </trkpt>
      <trkpt lat="50.45356" lon="3.56551">
        <ele>21.6</ele>
        <time>2022-05-09T06:21:40.103Z</time>
      </trkpt>
      <trkpt lat="50.45358" lon="3.56568">
        <ele>21.8</ele>
        <time>2022-05-09T06:21:43.000Z</time>
      </trkpt>
      <trkpt lat="50.45357" lon="3.56576">
        <ele>21.7</ele>
        <time>2022-05-09T06:21:45.000Z</time>
      </trkpt>
      <trkpt lat="50.45358" lon="3.56584">
        <ele>21.8</ele>
        <time>2022-05-09T06:21:46.000Z</time>
      </trkpt>
      <trkpt lat="50.45361" lon="3.56592">
        <ele>22</ele>
        <time>2022-05-09T06:21:48.000Z</time>
      </trkpt>
      <trkpt lat="50.45366" lon="3.56598">
        <ele>22</ele>
        <time>2022-05-09T06:21:49.000Z</time>
      </trkpt>
      <trkpt lat="50.45375" lon="3.56606">
        <ele>21.7</ele>
        <time>2022-05-09T06:21:51.000Z</time>
      </trkpt>
      <trkpt lat="50.45383" lon="3.56606">
        <ele>21.5</ele>
        <time>2022-05-09T06:21:53.000Z</time>
      </trkpt>
      <trkpt lat="50.45389" lon="3.56603">
        <ele>21.6</ele>
        <time>2022-05-09T06:21:54.000Z</time>
      </trkpt>
      <trkpt lat="50.45397" lon="3.56597">
        <ele>21.7</ele>
        <time>2022-05-09T06:21:56.000Z</time>
      </trkpt>
      <trkpt lat="50.45402" lon="3.56593">
        <ele>21.9</ele>
        <time>2022-05-09T06:21:57.000Z</time>
      </trkpt>
      <trkpt lat="50.45407" lon="3.56592">
        <ele>21.7</ele>
        <time>2022-05-09T06:21:58.000Z</time>
      </trkpt>
      <trkpt lat="50.45416" lon="3.56595">
        <ele>21.2</ele>
        <time>2022-05-09T06:22:00.000Z</time>
      </trkpt>
      <trkpt lat="50.4542" lon="3.56597">
        <ele>20.9</ele>
        <time>2022-05-09T06:22:01.000Z</time>
      </trkpt>
      <trkpt lat="50.45425" lon="3.566">
        <ele>20.7</ele>
        <time>2022-05-09T06:22:02.000Z</time>
      </trkpt>
      <trkpt lat="50.45431" lon="3.56604">
        <ele>20.6</ele>
        <time>2022-05-09T06:22:03.000Z</time>
      </trkpt>
      <trkpt lat="50.45436" lon="3.56607">
        <ele>20.7</ele>
        <time>2022-05-09T06:22:04.000Z</time>
      </trkpt>
      <trkpt lat="50.45441" lon="3.56612">
        <ele>20.8</ele>
        <time>2022-05-09T06:22:05.000Z</time>
      </trkpt>
      <trkpt lat="50.45447" lon="3.56617">
        <ele>20.2</ele>
        <time>2022-05-09T06:22:06.000Z</time>
      </trkpt>
      <trkpt lat="50.45452" lon="3.56622">
        <ele>19.6</ele>
        <time>2022-05-09T06:22:07.000Z</time>
      </trkpt>
      <trkpt lat="50.45458" lon="3.56627">
        <ele>19.2</ele>
        <time>2022-05-09T06:22:08.000Z</time>
      </trkpt>
      <trkpt lat="50.45464" lon="3.56633">
        <ele>19.3</ele>
        <time>2022-05-09T06:22:09.000Z</time>
      </trkpt>
      <trkpt lat="50.4547" lon="3.56639">
        <ele>19.8</ele>
        <time>2022-05-09T06:22:10.000Z</time>
      </trkpt>
      <trkpt lat="50.45476" lon="3.56645">
        <ele>19.4</ele>
        <time>2022-05-09T06:22:11.000Z</time>
      </trkpt>
      <trkpt lat="50.45482" lon="3.56651">
        <ele>18.8</ele>
        <time>2022-05-09T06:22:12.000Z</time>
      </trkpt>
      <trkpt lat="50.45488" lon="3.56657">
        <ele>18.3</ele>
        <time>2022-05-09T06:22:13.000Z</time>
      </trkpt>
      <trkpt lat="50.45494" lon="3.56663">
        <ele>18.1</ele>
        <time>2022-05-09T06:22:14.000Z</time>
      </trkpt>
      <trkpt lat="50.455" lon="3.5667">
        <ele>18</ele>
        <time>2022-05-09T06:22:15.000Z</time>
      </trkpt>
      <trkpt lat="50.45507" lon="3.56677">
        <ele>18</ele>
        <time>2022-05-09T06:22:16.000Z</time>
      </trkpt>
      <trkpt lat="50.45515" lon="3.56684">
        <ele>18</ele>
        <time>2022-05-09T06:22:17.000Z</time>
      </trkpt>
      <trkpt lat="50.45521" lon="3.5669">
        <ele>18</ele>
        <time>2022-05-09T06:22:18.000Z</time>
      </trkpt>
      <trkpt lat="50.45529" lon="3.56697">
        <ele>18</ele>
        <time>2022-05-09T06:22:19.000Z</time>
      </trkpt>
      <trkpt lat="50.45534" lon="3.56702">
        <ele>18</ele>
        <time>2022-05-09T06:22:20.000Z</time>
      </trkpt>
      <trkpt lat="50.45539" lon="3.56708">
        <ele>18</ele>
        <time>2022-05-09T06:22:21.000Z</time>
      </trkpt>
      <trkpt lat="50.45544" lon="3.56712">
        <ele>18</ele>
        <time>2022-05-09T06:22:22.000Z</time>
      </trkpt>
      <trkpt lat="50.4555" lon="3.56717">
        <ele>18</ele>
        <time>2022-05-09T06:22:23.000Z</time>
      </trkpt>
      <trkpt lat="50.45554" lon="3.56722">
        <ele>18</ele>
        <time>2022-05-09T06:22:24.000Z</time>
      </trkpt>
      <trkpt lat="50.45556" lon="3.56729">
        <ele>18</ele>
        <time>2022-05-09T06:22:26.000Z</time>
      </trkpt>
      <trkpt lat="50.4555" lon="3.56741">
        <ele>17.9</ele>
        <time>2022-05-09T06:22:28.000Z</time>
      </trkpt>
      <trkpt lat="50.45547" lon="3.56751">
        <ele>17.7</ele>
        <time>2022-05-09T06:22:29.000Z</time>
      </trkpt>
      <trkpt lat="50.45545" lon="3.56762">
        <ele>17.4</ele>
        <time>2022-05-09T06:22:30.000Z</time>
      </trkpt>
      <trkpt lat="50.45544" lon="3.56774">
        <ele>17.1</ele>
        <time>2022-05-09T06:22:31.000Z</time>
      </trkpt>
      <trkpt lat="50.45544" lon="3.56784">
        <ele>17</ele>
        <time>2022-05-09T06:22:32.000Z</time>
      </trkpt>
      <trkpt lat="50.45543" lon="3.56792">
        <ele>17</ele>
        <time>2022-05-09T06:22:33.000Z</time>
      </trkpt>
      <trkpt lat="50.45543" lon="3.56802">
        <ele>17</ele>
        <time>2022-05-09T06:22:34.000Z</time>
      </trkpt>
      <trkpt lat="50.45542" lon="3.56812">
        <ele>17</ele>
        <time>2022-05-09T06:22:35.000Z</time>
      </trkpt>
      <trkpt lat="50.45541" lon="3.56822">
        <ele>17</ele>
        <time>2022-05-09T06:22:36.000Z</time>
      </trkpt>
      <trkpt lat="50.45541" lon="3.56831">
        <ele>17</ele>
        <time>2022-05-09T06:22:37.000Z</time>
      </trkpt>
      <trkpt lat="50.45541" lon="3.56841">
        <ele>17</ele>
        <time>2022-05-09T06:22:38.000Z</time>
      </trkpt>
      <trkpt lat="50.4554" lon="3.56848">
        <ele>17</ele>
        <time>2022-05-09T06:22:39.000Z</time>
      </trkpt>
      <trkpt lat="50.45538" lon="3.56866">
        <ele>17</ele>
        <time>2022-05-09T06:22:41.000Z</time>
      </trkpt>
      <trkpt lat="50.45538" lon="3.56875">
        <ele>17</ele>
        <time>2022-05-09T06:22:42.000Z</time>
      </trkpt>
      <trkpt lat="50.45537" lon="3.56883">
        <ele>17</ele>
        <time>2022-05-09T06:22:43.000Z</time>
      </trkpt>
      <trkpt lat="50.45537" lon="3.56891">
        <ele>17</ele>
        <time>2022-05-09T06:22:44.000Z</time>
      </trkpt>
      <trkpt lat="50.45537" lon="3.569">
        <ele>17</ele>
        <time>2022-05-09T06:22:45.000Z</time>
      </trkpt>
      <trkpt lat="50.45536" lon="3.56908">
        <ele>17</ele>
        <time>2022-05-09T06:22:46.000Z</time>
      </trkpt>
      <trkpt lat="50.45536" lon="3.56916">
        <ele>17</ele>
        <time>2022-05-09T06:22:47.000Z</time>
      </trkpt>
      <trkpt lat="50.45536" lon="3.56924">
        <ele>17.1</ele>
        <time>2022-05-09T06:22:48.000Z</time>
      </trkpt>
      <trkpt lat="50.45536" lon="3.56933">
        <ele>17.2</ele>
        <time>2022-05-09T06:22:49.000Z</time>
      </trkpt>
      <trkpt lat="50.45535" lon="3.56942">
        <ele>17.2</ele>
        <time>2022-05-09T06:22:50.000Z</time>
      </trkpt>
      <trkpt lat="50.45535" lon="3.56949">
        <ele>17.2</ele>
        <time>2022-05-09T06:22:51.000Z</time>
      </trkpt>
      <trkpt lat="50.45534" lon="3.56958">
        <ele>17.2</ele>
        <time>2022-05-09T06:22:52.000Z</time>
      </trkpt>
      <trkpt lat="50.45531" lon="3.56965">
        <ele>17.1</ele>
        <time>2022-05-09T06:22:53.000Z</time>
      </trkpt>
      <trkpt lat="50.45529" lon="3.56972">
        <ele>17.1</ele>
        <time>2022-05-09T06:22:54.000Z</time>
      </trkpt>
      <trkpt lat="50.45527" lon="3.5698">
        <ele>17</ele>
        <time>2022-05-09T06:22:55.000Z</time>
      </trkpt>
      <trkpt lat="50.45524" lon="3.5699">
        <ele>17</ele>
        <time>2022-05-09T06:22:56.970Z</time>
      </trkpt>
      <trkpt lat="50.45521" lon="3.57001">
        <ele>17</ele>
        <time>2022-05-09T06:22:58.000Z</time>
      </trkpt>
      <trkpt lat="50.45518" lon="3.57008">
        <ele>17</ele>
        <time>2022-05-09T06:22:59.000Z</time>
      </trkpt>
      <trkpt lat="50.45513" lon="3.57022">
        <ele>17</ele>
        <time>2022-05-09T06:23:01.000Z</time>
      </trkpt>
      <trkpt lat="50.45511" lon="3.5703">
        <ele>17</ele>
        <time>2022-05-09T06:23:02.000Z</time>
      </trkpt>
      <trkpt lat="50.45508" lon="3.57037">
        <ele>17</ele>
        <time>2022-05-09T06:23:03.000Z</time>
      </trkpt>
      <trkpt lat="50.45506" lon="3.57044">
        <ele>17</ele>
        <time>2022-05-09T06:23:04.000Z</time>
      </trkpt>
      <trkpt lat="50.45504" lon="3.57051">
        <ele>17</ele>
        <time>2022-05-09T06:23:05.000Z</time>
      </trkpt>
      <trkpt lat="50.45503" lon="3.57058">
        <ele>17</ele>
        <time>2022-05-09T06:23:06.000Z</time>
      </trkpt>
      <trkpt lat="50.45501" lon="3.57065">
        <ele>17</ele>
        <time>2022-05-09T06:23:07.000Z</time>
      </trkpt>
      <trkpt lat="50.45499" lon="3.57077">
        <ele>17</ele>
        <time>2022-05-09T06:23:09.068Z</time>
      </trkpt>
      <trkpt lat="50.45497" lon="3.57085">
        <ele>17</ele>
        <time>2022-05-09T06:23:10.000Z</time>
      </trkpt>
      <trkpt lat="50.45495" lon="3.57092">
        <ele>17</ele>
        <time>2022-05-09T06:23:11.000Z</time>
      </trkpt>
      <trkpt lat="50.45495" lon="3.571">
        <ele>17</ele>
        <time>2022-05-09T06:23:12.000Z</time>
      </trkpt>
      <trkpt lat="50.45492" lon="3.57113">
        <ele>17</ele>
        <time>2022-05-09T06:23:14.000Z</time>
      </trkpt>
      <trkpt lat="50.4549" lon="3.57121">
        <ele>17</ele>
        <time>2022-05-09T06:23:15.000Z</time>
      </trkpt>
      <trkpt lat="50.45487" lon="3.57128">
        <ele>17</ele>
        <time>2022-05-09T06:23:16.000Z</time>
      </trkpt>
      <trkpt lat="50.45482" lon="3.5714">
        <ele>17</ele>
        <time>2022-05-09T06:23:18.000Z</time>
      </trkpt>
      <trkpt lat="50.45479" lon="3.57146">
        <ele>17.1</ele>
        <time>2022-05-09T06:23:19.000Z</time>
      </trkpt>
      <trkpt lat="50.45477" lon="3.57153">
        <ele>17.1</ele>
        <time>2022-05-09T06:23:20.000Z</time>
      </trkpt>
      <trkpt lat="50.45474" lon="3.57159">
        <ele>17</ele>
        <time>2022-05-09T06:23:21.000Z</time>
      </trkpt>
      <trkpt lat="50.45471" lon="3.57165">
        <ele>17</ele>
        <time>2022-05-09T06:23:22.000Z</time>
      </trkpt>
      <trkpt lat="50.45468" lon="3.57172">
        <ele>17</ele>
        <time>2022-05-09T06:23:23.000Z</time>
      </trkpt>
      <trkpt lat="50.45466" lon="3.57178">
        <ele>17</ele>
        <time>2022-05-09T06:23:24.000Z</time>
      </trkpt>
      <trkpt lat="50.45461" lon="3.57192">
        <ele>17</ele>
        <time>2022-05-09T06:23:26.000Z</time>
      </trkpt>
      <trkpt lat="50.45459" lon="3.57198">
        <ele>17.1</ele>
        <time>2022-05-09T06:23:27.000Z</time>
      </trkpt>
      <trkpt lat="50.45453" lon="3.57211">
        <ele>17.2</ele>
        <time>2022-05-09T06:23:29.000Z</time>
      </trkpt>
      <trkpt lat="50.4545" lon="3.57217">
        <ele>17.2</ele>
        <time>2022-05-09T06:23:30.000Z</time>
      </trkpt>
      <trkpt lat="50.45448" lon="3.57224">
        <ele>17.1</ele>
        <time>2022-05-09T06:23:31.000Z</time>
      </trkpt>
      <trkpt lat="50.45446" lon="3.57231">
        <ele>17.1</ele>
        <time>2022-05-09T06:23:32.000Z</time>
      </trkpt>
      <trkpt lat="50.45442" lon="3.57244">
        <ele>17.1</ele>
        <time>2022-05-09T06:23:34.000Z</time>
      </trkpt>
      <trkpt lat="50.4544" lon="3.5725">
        <ele>17.2</ele>
        <time>2022-05-09T06:23:35.000Z</time>
      </trkpt>
      <trkpt lat="50.45437" lon="3.57256">
        <ele>17.4</ele>
        <time>2022-05-09T06:23:36.000Z</time>
      </trkpt>
      <trkpt lat="50.45435" lon="3.57263">
        <ele>17.6</ele>
        <time>2022-05-09T06:23:37.000Z</time>
      </trkpt>
      <trkpt lat="50.45431" lon="3.57277">
        <ele>18</ele>
        <time>2022-05-09T06:23:39.000Z</time>
      </trkpt>
      <trkpt lat="50.45429" lon="3.57284">
        <ele>17.9</ele>
        <time>2022-05-09T06:23:40.000Z</time>
      </trkpt>
      <trkpt lat="50.45426" lon="3.57298">
        <ele>17.5</ele>
        <time>2022-05-09T06:23:42.000Z</time>
      </trkpt>
      <trkpt lat="50.45422" lon="3.5731">
        <ele>17.2</ele>
        <time>2022-05-09T06:23:44.000Z</time>
      </trkpt>
      <trkpt lat="50.45417" lon="3.57323">
        <ele>17</ele>
        <time>2022-05-09T06:23:46.000Z</time>
      </trkpt>
      <trkpt lat="50.45414" lon="3.57335">
        <ele>17.5</ele>
        <time>2022-05-09T06:23:48.000Z</time>
      </trkpt>
      <trkpt lat="50.45412" lon="3.57342">
        <ele>17.8</ele>
        <time>2022-05-09T06:23:49.000Z</time>
      </trkpt>
      <trkpt lat="50.4541" lon="3.57349">
        <ele>17.9</ele>
        <time>2022-05-09T06:23:50.000Z</time>
      </trkpt>
      <trkpt lat="50.45408" lon="3.57356">
        <ele>18</ele>
        <time>2022-05-09T06:23:51.000Z</time>
      </trkpt>
      <trkpt lat="50.45405" lon="3.57367">
        <ele>18.1</ele>
        <time>2022-05-09T06:23:53.000Z</time>
      </trkpt>
      <trkpt lat="50.45401" lon="3.5738">
        <ele>17.9</ele>
        <time>2022-05-09T06:23:55.000Z</time>
      </trkpt>
      <trkpt lat="50.45398" lon="3.57387">
        <ele>17.8</ele>
        <time>2022-05-09T06:23:56.000Z</time>
      </trkpt>
      <trkpt lat="50.45396" lon="3.57394">
        <ele>17.6</ele>
        <time>2022-05-09T06:23:57.000Z</time>
      </trkpt>
      <trkpt lat="50.45392" lon="3.57407">
        <ele>17.4</ele>
        <time>2022-05-09T06:23:59.000Z</time>
      </trkpt>
      <trkpt lat="50.4539" lon="3.57414">
        <ele>17.1</ele>
        <time>2022-05-09T06:24:00.000Z</time>
      </trkpt>
      <trkpt lat="50.45387" lon="3.5742">
        <ele>17.2</ele>
        <time>2022-05-09T06:24:01.000Z</time>
      </trkpt>
      <trkpt lat="50.45384" lon="3.57427">
        <ele>17.4</ele>
        <time>2022-05-09T06:24:02.000Z</time>
      </trkpt>
      <trkpt lat="50.45379" lon="3.57438">
        <ele>17.5</ele>
        <time>2022-05-09T06:24:04.000Z</time>
      </trkpt>
      <trkpt lat="50.45375" lon="3.57444">
        <ele>17.5</ele>
        <time>2022-05-09T06:24:05.000Z</time>
      </trkpt>
      <trkpt lat="50.4537" lon="3.57453">
        <ele>17.6</ele>
        <time>2022-05-09T06:24:07.072Z</time>
      </trkpt>
      <trkpt lat="50.45366" lon="3.5746">
        <ele>17.5</ele>
        <time>2022-05-09T06:24:08.000Z</time>
      </trkpt>
      <trkpt lat="50.45362" lon="3.57465">
        <ele>17.3</ele>
        <time>2022-05-09T06:24:09.000Z</time>
      </trkpt>
      <trkpt lat="50.45359" lon="3.57471">
        <ele>17.2</ele>
        <time>2022-05-09T06:24:10.000Z</time>
      </trkpt>
      <trkpt lat="50.45353" lon="3.57483">
        <ele>17.4</ele>
        <time>2022-05-09T06:24:12.000Z</time>
      </trkpt>
      <trkpt lat="50.45349" lon="3.57488">
        <ele>17.4</ele>
        <time>2022-05-09T06:24:13.000Z</time>
      </trkpt>
      <trkpt lat="50.45346" lon="3.57494">
        <ele>17.2</ele>
        <time>2022-05-09T06:24:14.000Z</time>
      </trkpt>
      <trkpt lat="50.45344" lon="3.57501">
        <ele>17</ele>
        <time>2022-05-09T06:24:15.000Z</time>
      </trkpt>
      <trkpt lat="50.45339" lon="3.57512">
        <ele>17.1</ele>
        <time>2022-05-09T06:24:17.000Z</time>
      </trkpt>
      <trkpt lat="50.45334" lon="3.57524">
        <ele>17</ele>
        <time>2022-05-09T06:24:19.000Z</time>
      </trkpt>
      <trkpt lat="50.4533" lon="3.57532">
        <ele>17.1</ele>
        <time>2022-05-09T06:24:21.000Z</time>
      </trkpt>
      <trkpt lat="50.45325" lon="3.57544">
        <ele>17</ele>
        <time>2022-05-09T06:24:23.000Z</time>
      </trkpt>
      <trkpt lat="50.45322" lon="3.57551">
        <ele>16.7</ele>
        <time>2022-05-09T06:24:24.000Z</time>
      </trkpt>
      <trkpt lat="50.45317" lon="3.57561">
        <ele>16.4</ele>
        <time>2022-05-09T06:24:26.000Z</time>
      </trkpt>
      <trkpt lat="50.45313" lon="3.57572">
        <ele>16.3</ele>
        <time>2022-05-09T06:24:28.000Z</time>
      </trkpt>
      <trkpt lat="50.45307" lon="3.57587">
        <ele>16.1</ele>
        <time>2022-05-09T06:24:30.000Z</time>
      </trkpt>
      <trkpt lat="50.45302" lon="3.57597">
        <ele>16.2</ele>
        <time>2022-05-09T06:24:32.000Z</time>
      </trkpt>
      <trkpt lat="50.45299" lon="3.57603">
        <ele>16.3</ele>
        <time>2022-05-09T06:24:33.000Z</time>
      </trkpt>
      <trkpt lat="50.45296" lon="3.57609">
        <ele>16.4</ele>
        <time>2022-05-09T06:24:34.000Z</time>
      </trkpt>
      <trkpt lat="50.45294" lon="3.57616">
        <ele>16.5</ele>
        <time>2022-05-09T06:24:35.000Z</time>
      </trkpt>
      <trkpt lat="50.45288" lon="3.57628">
        <ele>16.9</ele>
        <time>2022-05-09T06:24:37.000Z</time>
      </trkpt>
      <trkpt lat="50.45285" lon="3.57633">
        <ele>16.9</ele>
        <time>2022-05-09T06:24:38.000Z</time>
      </trkpt>
      <trkpt lat="50.45278" lon="3.57644">
        <ele>17</ele>
        <time>2022-05-09T06:24:40.000Z</time>
      </trkpt>
      <trkpt lat="50.45274" lon="3.57649">
        <ele>17.2</ele>
        <time>2022-05-09T06:24:41.000Z</time>
      </trkpt>
      <trkpt lat="50.45271" lon="3.57654">
        <ele>17.4</ele>
        <time>2022-05-09T06:24:42.000Z</time>
      </trkpt>
      <trkpt lat="50.45267" lon="3.57661">
        <ele>17.5</ele>
        <time>2022-05-09T06:24:43.000Z</time>
      </trkpt>
      <trkpt lat="50.45265" lon="3.57666">
        <ele>17.5</ele>
        <time>2022-05-09T06:24:44.000Z</time>
      </trkpt>
      <trkpt lat="50.45262" lon="3.57673">
        <ele>17.6</ele>
        <time>2022-05-09T06:24:46.000Z</time>
      </trkpt>
      <trkpt lat="50.4526" lon="3.5768">
        <ele>17.6</ele>
        <time>2022-05-09T06:24:47.000Z</time>
      </trkpt>
      <trkpt lat="50.45259" lon="3.57687">
        <ele>17.7</ele>
        <time>2022-05-09T06:24:48.000Z</time>
      </trkpt>
      <trkpt lat="50.45259" lon="3.57695">
        <ele>17.7</ele>
        <time>2022-05-09T06:24:49.000Z</time>
      </trkpt>
      <trkpt lat="50.45262" lon="3.57708">
        <ele>17.8</ele>
        <time>2022-05-09T06:24:51.000Z</time>
      </trkpt>
      <trkpt lat="50.45263" lon="3.57715">
        <ele>17.9</ele>
        <time>2022-05-09T06:24:52.000Z</time>
      </trkpt>
      <trkpt lat="50.45263" lon="3.57723">
        <ele>18</ele>
        <time>2022-05-09T06:24:53.000Z</time>
      </trkpt>
      <trkpt lat="50.45266" lon="3.5773">
        <ele>18.2</ele>
        <time>2022-05-09T06:24:54.114Z</time>
      </trkpt>
      <trkpt lat="50.45272" lon="3.57741">
        <ele>18.5</ele>
        <time>2022-05-09T06:24:56.000Z</time>
      </trkpt>
      <trkpt lat="50.45275" lon="3.57749">
        <ele>18.8</ele>
        <time>2022-05-09T06:24:57.481Z</time>
      </trkpt>
      <trkpt lat="50.45278" lon="3.57763">
        <ele>19.5</ele>
        <time>2022-05-09T06:25:00.000Z</time>
      </trkpt>
      <trkpt lat="50.4528" lon="3.57772">
        <ele>19.9</ele>
        <time>2022-05-09T06:25:02.073Z</time>
      </trkpt>
      <trkpt lat="50.45277" lon="3.57782">
        <ele>20.1</ele>
        <time>2022-05-09T06:25:04.000Z</time>
      </trkpt>
      <trkpt lat="50.45276" lon="3.5779">
        <ele>20.3</ele>
        <time>2022-05-09T06:25:06.000Z</time>
      </trkpt>
      <trkpt lat="50.45272" lon="3.57797">
        <ele>20.5</ele>
        <time>2022-05-09T06:25:08.000Z</time>
      </trkpt>
      <trkpt lat="50.45269" lon="3.57805">
        <ele>20.7</ele>
        <time>2022-05-09T06:25:10.000Z</time>
      </trkpt>
      <trkpt lat="50.45267" lon="3.57814">
        <ele>20.6</ele>
        <time>2022-05-09T06:25:12.000Z</time>
      </trkpt>
      <trkpt lat="50.45269" lon="3.57826">
        <ele>20.7</ele>
        <time>2022-05-09T06:25:14.000Z</time>
      </trkpt>
      <trkpt lat="50.45273" lon="3.57831">
        <ele>20.8</ele>
        <time>2022-05-09T06:25:16.000Z</time>
      </trkpt>
      <trkpt lat="50.45279" lon="3.57833">
        <ele>21.1</ele>
        <time>2022-05-09T06:25:18.615Z</time>
      </trkpt>
      <trkpt lat="50.45285" lon="3.57834">
        <ele>21.3</ele>
        <time>2022-05-09T06:25:20.000Z</time>
      </trkpt>
      <trkpt lat="50.45291" lon="3.57833">
        <ele>21.5</ele>
        <time>2022-05-09T06:25:22.000Z</time>
      </trkpt>
      <trkpt lat="50.45295" lon="3.5783">
        <ele>21.6</ele>
        <time>2022-05-09T06:25:23.000Z</time>
      </trkpt>
      <trkpt lat="50.45302" lon="3.57825">
        <ele>21.9</ele>
        <time>2022-05-09T06:25:25.000Z</time>
      </trkpt>
      <trkpt lat="50.45307" lon="3.5782">
        <ele>22.1</ele>
        <time>2022-05-09T06:25:27.000Z</time>
      </trkpt>
      <trkpt lat="50.45312" lon="3.57818">
        <ele>22.3</ele>
        <time>2022-05-09T06:25:28.893Z</time>
      </trkpt>
      <trkpt lat="50.45317" lon="3.57822">
        <ele>22.7</ele>
        <time>2022-05-09T06:25:31.000Z</time>
      </trkpt>
      <trkpt lat="50.45322" lon="3.57827">
        <ele>23</ele>
        <time>2022-05-09T06:25:33.000Z</time>
      </trkpt>
      <trkpt lat="50.45329" lon="3.57832">
        <ele>23.6</ele>
        <time>2022-05-09T06:25:35.000Z</time>
      </trkpt>
      <trkpt lat="50.45334" lon="3.57838">
        <ele>24.2</ele>
        <time>2022-05-09T06:25:37.000Z</time>
      </trkpt>
      <trkpt lat="50.45339" lon="3.57844">
        <ele>24.7</ele>
        <time>2022-05-09T06:25:39.075Z</time>
      </trkpt>
      <trkpt lat="50.45345" lon="3.57849">
        <ele>25.2</ele>
        <time>2022-05-09T06:25:41.000Z</time>
      </trkpt>
      <trkpt lat="50.45353" lon="3.57855">
        <ele>25.6</ele>
        <time>2022-05-09T06:25:43.000Z</time>
      </trkpt>
      <trkpt lat="50.45358" lon="3.57863">
        <ele>25.9</ele>
        <time>2022-05-09T06:25:46.074Z</time>
      </trkpt>
      <trkpt lat="50.45363" lon="3.5787">
        <ele>26</ele>
        <time>2022-05-09T06:25:49.000Z</time>
      </trkpt>
      <trkpt lat="50.45365" lon="3.57879">
        <ele>26</ele>
        <time>2022-05-09T06:25:52.000Z</time>
      </trkpt>
      <trkpt lat="50.45361" lon="3.57888">
        <ele>26</ele>
        <time>2022-05-09T06:25:54.000Z</time>
      </trkpt>
      <trkpt lat="50.4536" lon="3.57898">
        <ele>26.3</ele>
        <time>2022-05-09T06:25:56.000Z</time>
      </trkpt>
      <trkpt lat="50.45357" lon="3.5791">
        <ele>26.7</ele>
        <time>2022-05-09T06:25:58.000Z</time>
      </trkpt>
      <trkpt lat="50.45356" lon="3.5792">
        <ele>26.8</ele>
        <time>2022-05-09T06:26:00.000Z</time>
      </trkpt>
      <trkpt lat="50.45354" lon="3.57931">
        <ele>26.7</ele>
        <time>2022-05-09T06:26:02.000Z</time>
      </trkpt>
      <trkpt lat="50.45351" lon="3.5794">
        <ele>26.6</ele>
        <time>2022-05-09T06:26:04.000Z</time>
      </trkpt>
      <trkpt lat="50.45349" lon="3.5795">
        <ele>26.7</ele>
        <time>2022-05-09T06:26:06.000Z</time>
      </trkpt>
      <trkpt lat="50.45347" lon="3.57958">
        <ele>26.8</ele>
        <time>2022-05-09T06:26:07.034Z</time>
      </trkpt>
      <trkpt lat="50.45346" lon="3.57967">
        <ele>26.9</ele>
        <time>2022-05-09T06:26:08.953Z</time>
      </trkpt>
      <trkpt lat="50.45343" lon="3.57982">
        <ele>27</ele>
        <time>2022-05-09T06:26:12.000Z</time>
      </trkpt>
      <trkpt lat="50.45341" lon="3.5799">
        <ele>27</ele>
        <time>2022-05-09T06:26:13.000Z</time>
      </trkpt>
      <trkpt lat="50.4534" lon="3.58">
        <ele>27</ele>
        <time>2022-05-09T06:26:15.000Z</time>
      </trkpt>
      <trkpt lat="50.45337" lon="3.58007">
        <ele>27</ele>
        <time>2022-05-09T06:26:16.000Z</time>
      </trkpt>
      <trkpt lat="50.45336" lon="3.58021">
        <ele>27</ele>
        <time>2022-05-09T06:26:18.000Z</time>
      </trkpt>
      <trkpt lat="50.45335" lon="3.58031">
        <ele>27</ele>
        <time>2022-05-09T06:26:20.000Z</time>
      </trkpt>
      <trkpt lat="50.45333" lon="3.58043">
        <ele>27</ele>
        <time>2022-05-09T06:26:22.035Z</time>
      </trkpt>
      <trkpt lat="50.4533" lon="3.5805">
        <ele>27</ele>
        <time>2022-05-09T06:26:23.475Z</time>
      </trkpt>
      <trkpt lat="50.45327" lon="3.58065">
        <ele>27</ele>
        <time>2022-05-09T06:26:26.000Z</time>
      </trkpt>
      <trkpt lat="50.45325" lon="3.58073">
        <ele>27</ele>
        <time>2022-05-09T06:26:27.879Z</time>
      </trkpt>
      <trkpt lat="50.45322" lon="3.5809">
        <ele>27</ele>
        <time>2022-05-09T06:26:30.937Z</time>
      </trkpt>
      <trkpt lat="50.45322" lon="3.58099">
        <ele>27</ele>
        <time>2022-05-09T06:26:33.013Z</time>
      </trkpt>
      <trkpt lat="50.4532" lon="3.58106">
        <ele>27</ele>
        <time>2022-05-09T06:26:34.000Z</time>
      </trkpt>
      <trkpt lat="50.45317" lon="3.58116">
        <ele>27</ele>
        <time>2022-05-09T06:26:35.000Z</time>
      </trkpt>
      <trkpt lat="50.45314" lon="3.58133">
        <ele>27</ele>
        <time>2022-05-09T06:26:38.000Z</time>
      </trkpt>
      <trkpt lat="50.4531" lon="3.58148">
        <ele>27.1</ele>
        <time>2022-05-09T06:26:40.075Z</time>
      </trkpt>
      <trkpt lat="50.45308" lon="3.58159">
        <ele>27.1</ele>
        <time>2022-05-09T06:26:42.000Z</time>
      </trkpt>
      <trkpt lat="50.45307" lon="3.58168">
        <ele>27.1</ele>
        <time>2022-05-09T06:26:43.915Z</time>
      </trkpt>
      <trkpt lat="50.45305" lon="3.58176">
        <ele>27.3</ele>
        <time>2022-05-09T06:26:45.000Z</time>
      </trkpt>
      <trkpt lat="50.45304" lon="3.58185">
        <ele>27.6</ele>
        <time>2022-05-09T06:26:46.000Z</time>
      </trkpt>
      <trkpt lat="50.45302" lon="3.58197">
        <ele>27.9</ele>
        <time>2022-05-09T06:26:48.000Z</time>
      </trkpt>
      <trkpt lat="50.453" lon="3.58212">
        <ele>27.8</ele>
        <time>2022-05-09T06:26:49.993Z</time>
      </trkpt>
      <trkpt lat="50.45298" lon="3.58225">
        <ele>27.8</ele>
        <time>2022-05-09T06:26:52.000Z</time>
      </trkpt>
      <trkpt lat="50.45296" lon="3.58236">
        <ele>27.8</ele>
        <time>2022-05-09T06:26:54.000Z</time>
      </trkpt>
      <trkpt lat="50.45294" lon="3.58245">
        <ele>27.9</ele>
        <time>2022-05-09T06:26:55.000Z</time>
      </trkpt>
      <trkpt lat="50.45293" lon="3.58252">
        <ele>28</ele>
        <time>2022-05-09T06:26:56.383Z</time>
      </trkpt>
      <trkpt lat="50.45291" lon="3.58265">
        <ele>28</ele>
        <time>2022-05-09T06:26:58.513Z</time>
      </trkpt>
      <trkpt lat="50.45289" lon="3.58272">
        <ele>28</ele>
        <time>2022-05-09T06:26:59.493Z</time>
      </trkpt>
      <trkpt lat="50.45288" lon="3.58279">
        <ele>28</ele>
        <time>2022-05-09T06:27:00.758Z</time>
      </trkpt>
      <trkpt lat="50.45287" lon="3.5829">
        <ele>28</ele>
        <time>2022-05-09T06:27:02.000Z</time>
      </trkpt>
      <trkpt lat="50.45285" lon="3.58299">
        <ele>28</ele>
        <time>2022-05-09T06:27:03.000Z</time>
      </trkpt>
      <trkpt lat="50.45284" lon="3.58307">
        <ele>28</ele>
        <time>2022-05-09T06:27:05.476Z</time>
      </trkpt>
      <trkpt lat="50.45282" lon="3.58316">
        <ele>28</ele>
        <time>2022-05-09T06:27:07.017Z</time>
      </trkpt>
      <trkpt lat="50.45281" lon="3.58322">
        <ele>28</ele>
        <time>2022-05-09T06:27:08.000Z</time>
      </trkpt>
      <trkpt lat="50.45279" lon="3.58333">
        <ele>28</ele>
        <time>2022-05-09T06:27:10.000Z</time>
      </trkpt>
      <trkpt lat="50.45278" lon="3.58342">
        <ele>28</ele>
        <time>2022-05-09T06:27:11.000Z</time>
      </trkpt>
      <trkpt lat="50.45276" lon="3.58355">
        <ele>28</ele>
        <time>2022-05-09T06:27:13.000Z</time>
      </trkpt>
      <trkpt lat="50.45274" lon="3.58367">
        <ele>28</ele>
        <time>2022-05-09T06:27:15.574Z</time>
      </trkpt>
      <trkpt lat="50.4527" lon="3.58385">
        <ele>28</ele>
        <time>2022-05-09T06:27:18.756Z</time>
      </trkpt>
      <trkpt lat="50.45268" lon="3.58399">
        <ele>28</ele>
        <time>2022-05-09T06:27:21.000Z</time>
      </trkpt>
      <trkpt lat="50.45267" lon="3.58407">
        <ele>28</ele>
        <time>2022-05-09T06:27:23.000Z</time>
      </trkpt>
      <trkpt lat="50.45265" lon="3.58417">
        <ele>28</ele>
        <time>2022-05-09T06:27:24.272Z</time>
      </trkpt>
      <trkpt lat="50.45262" lon="3.58432">
        <ele>28</ele>
        <time>2022-05-09T06:27:27.096Z</time>
      </trkpt>
      <trkpt lat="50.45261" lon="3.58442">
        <ele>28</ele>
        <time>2022-05-09T06:27:28.492Z</time>
      </trkpt>
      <trkpt lat="50.45259" lon="3.58449">
        <ele>28</ele>
        <time>2022-05-09T06:27:29.975Z</time>
      </trkpt>
      <trkpt lat="50.45258" lon="3.58459">
        <ele>28</ele>
        <time>2022-05-09T06:27:31.000Z</time>
      </trkpt>
      <trkpt lat="50.45257" lon="3.58471">
        <ele>28</ele>
        <time>2022-05-09T06:27:33.000Z</time>
      </trkpt>
      <trkpt lat="50.45256" lon="3.58487">
        <ele>28</ele>
        <time>2022-05-09T06:27:35.000Z</time>
      </trkpt>
      <trkpt lat="50.45255" lon="3.585">
        <ele>28</ele>
        <time>2022-05-09T06:27:37.000Z</time>
      </trkpt>
      <trkpt lat="50.45255" lon="3.58514">
        <ele>28</ele>
        <time>2022-05-09T06:27:39.000Z</time>
      </trkpt>
      <trkpt lat="50.45255" lon="3.58523">
        <ele>28</ele>
        <time>2022-05-09T06:27:40.000Z</time>
      </trkpt>
      <trkpt lat="50.45254" lon="3.58538">
        <ele>28</ele>
        <time>2022-05-09T06:27:42.000Z</time>
      </trkpt>
      <trkpt lat="50.45254" lon="3.58552">
        <ele>28</ele>
        <time>2022-05-09T06:27:44.000Z</time>
      </trkpt>
      <trkpt lat="50.45253" lon="3.58566">
        <ele>28</ele>
        <time>2022-05-09T06:27:46.000Z</time>
      </trkpt>
      <trkpt lat="50.45253" lon="3.58573">
        <ele>28</ele>
        <time>2022-05-09T06:27:47.000Z</time>
      </trkpt>
      <trkpt lat="50.45253" lon="3.58588">
        <ele>28</ele>
        <time>2022-05-09T06:27:49.000Z</time>
      </trkpt>
      <trkpt lat="50.45254" lon="3.58597">
        <ele>28</ele>
        <time>2022-05-09T06:27:50.000Z</time>
      </trkpt>
      <trkpt lat="50.45254" lon="3.58607">
        <ele>28</ele>
        <time>2022-05-09T06:27:52.000Z</time>
      </trkpt>
      <trkpt lat="50.45255" lon="3.58619">
        <ele>28.2</ele>
        <time>2022-05-09T06:27:53.000Z</time>
      </trkpt>
      <trkpt lat="50.45255" lon="3.58632">
        <ele>28.6</ele>
        <time>2022-05-09T06:27:55.088Z</time>
      </trkpt>
      <trkpt lat="50.45257" lon="3.58645">
        <ele>28.8</ele>
        <time>2022-05-09T06:27:57.026Z</time>
      </trkpt>
      <trkpt lat="50.45259" lon="3.58658">
        <ele>28.9</ele>
        <time>2022-05-09T06:27:59.000Z</time>
      </trkpt>
      <trkpt lat="50.45261" lon="3.58674">
        <ele>29</ele>
        <time>2022-05-09T06:28:01.000Z</time>
      </trkpt>
      <trkpt lat="50.45262" lon="3.58686">
        <ele>29</ele>
        <time>2022-05-09T06:28:03.094Z</time>
      </trkpt>
      <trkpt lat="50.45263" lon="3.58697">
        <ele>29</ele>
        <time>2022-05-09T06:28:04.736Z</time>
      </trkpt>
      <trkpt lat="50.45263" lon="3.58707">
        <ele>29</ele>
        <time>2022-05-09T06:28:06.334Z</time>
      </trkpt>
      <trkpt lat="50.45261" lon="3.58724">
        <ele>29</ele>
        <time>2022-05-09T06:28:09.000Z</time>
      </trkpt>
      <trkpt lat="50.45268" lon="3.58734">
        <ele>29</ele>
        <time>2022-05-09T06:28:11.000Z</time>
      </trkpt>
      <trkpt lat="50.45274" lon="3.58742">
        <ele>29</ele>
        <time>2022-05-09T06:28:13.000Z</time>
      </trkpt>
      <trkpt lat="50.45282" lon="3.58746">
        <ele>29</ele>
        <time>2022-05-09T06:28:15.000Z</time>
      </trkpt>
      <trkpt lat="50.45291" lon="3.58749">
        <ele>29</ele>
        <time>2022-05-09T06:28:17.000Z</time>
      </trkpt>
      <trkpt lat="50.45295" lon="3.58751">
        <ele>29</ele>
        <time>2022-05-09T06:28:18.000Z</time>
      </trkpt>
      <trkpt lat="50.453" lon="3.58754">
        <ele>29</ele>
        <time>2022-05-09T06:28:19.000Z</time>
      </trkpt>
      <trkpt lat="50.45305" lon="3.58758">
        <ele>29</ele>
        <time>2022-05-09T06:28:20.000Z</time>
      </trkpt>
      <trkpt lat="50.45307" lon="3.58765">
        <ele>29</ele>
        <time>2022-05-09T06:28:21.000Z</time>
      </trkpt>
      <trkpt lat="50.45309" lon="3.58774">
        <ele>28.9</ele>
        <time>2022-05-09T06:28:22.000Z</time>
      </trkpt>
      <trkpt lat="50.45309" lon="3.58782">
        <ele>28.8</ele>
        <time>2022-05-09T06:28:23.000Z</time>
      </trkpt>
      <trkpt lat="50.45309" lon="3.58789">
        <ele>28.5</ele>
        <time>2022-05-09T06:28:24.000Z</time>
      </trkpt>
      <trkpt lat="50.45309" lon="3.58797">
        <ele>28.3</ele>
        <time>2022-05-09T06:28:25.000Z</time>
      </trkpt>
      <trkpt lat="50.4531" lon="3.58804">
        <ele>28</ele>
        <time>2022-05-09T06:28:26.000Z</time>
      </trkpt>
      <trkpt lat="50.4531" lon="3.58812">
        <ele>28</ele>
        <time>2022-05-09T06:28:27.000Z</time>
      </trkpt>
      <trkpt lat="50.4531" lon="3.58819">
        <ele>27.9</ele>
        <time>2022-05-09T06:28:28.000Z</time>
      </trkpt>
      <trkpt lat="50.45311" lon="3.58828">
        <ele>27.9</ele>
        <time>2022-05-09T06:28:29.000Z</time>
      </trkpt>
      <trkpt lat="50.45311" lon="3.58836">
        <ele>27.7</ele>
        <time>2022-05-09T06:28:30.000Z</time>
      </trkpt>
      <trkpt lat="50.45311" lon="3.58845">
        <ele>27.5</ele>
        <time>2022-05-09T06:28:31.000Z</time>
      </trkpt>
      <trkpt lat="50.45312" lon="3.58859">
        <ele>27.1</ele>
        <time>2022-05-09T06:28:33.000Z</time>
      </trkpt>
      <trkpt lat="50.45312" lon="3.58869">
        <ele>27</ele>
        <time>2022-05-09T06:28:35.000Z</time>
      </trkpt>
      <trkpt lat="50.4531" lon="3.5888">
        <ele>27</ele>
        <time>2022-05-09T06:28:38.000Z</time>
      </trkpt>
      <trkpt lat="50.45305" lon="3.58881">
        <ele>27</ele>
        <time>2022-05-09T06:28:40.000Z</time>
      </trkpt>
      <trkpt lat="50.45298" lon="3.58884">
        <ele>26.9</ele>
        <time>2022-05-09T06:28:42.000Z</time>
      </trkpt>
      <trkpt lat="50.45295" lon="3.58896">
        <ele>27</ele>
        <time>2022-05-09T06:28:44.000Z</time>
      </trkpt>
      <trkpt lat="50.45294" lon="3.58911">
        <ele>27</ele>
        <time>2022-05-09T06:28:45.774Z</time>
      </trkpt>
      <trkpt lat="50.4529" lon="3.58924">
        <ele>26.7</ele>
        <time>2022-05-09T06:28:48.000Z</time>
      </trkpt>
      <trkpt lat="50.45287" lon="3.58933">
        <ele>26.4</ele>
        <time>2022-05-09T06:28:49.000Z</time>
      </trkpt>
      <trkpt lat="50.45284" lon="3.58939">
        <ele>26.2</ele>
        <time>2022-05-09T06:28:50.000Z</time>
      </trkpt>
      <trkpt lat="50.4528" lon="3.58946">
        <ele>26</ele>
        <time>2022-05-09T06:28:51.000Z</time>
      </trkpt>
      <trkpt lat="50.45275" lon="3.58958">
        <ele>25.9</ele>
        <time>2022-05-09T06:28:53.000Z</time>
      </trkpt>
      <trkpt lat="50.45272" lon="3.58966">
        <ele>25.6</ele>
        <time>2022-05-09T06:28:54.000Z</time>
      </trkpt>
      <trkpt lat="50.45269" lon="3.58972">
        <ele>25.4</ele>
        <time>2022-05-09T06:28:55.000Z</time>
      </trkpt>
      <trkpt lat="50.45266" lon="3.5898">
        <ele>25.2</ele>
        <time>2022-05-09T06:28:56.000Z</time>
      </trkpt>
      <trkpt lat="50.45263" lon="3.58985">
        <ele>25.2</ele>
        <time>2022-05-09T06:28:57.000Z</time>
      </trkpt>
      <trkpt lat="50.45259" lon="3.58992">
        <ele>25.1</ele>
        <time>2022-05-09T06:28:58.000Z</time>
      </trkpt>
      <trkpt lat="50.45255" lon="3.59">
        <ele>25.2</ele>
        <time>2022-05-09T06:28:59.000Z</time>
      </trkpt>
      <trkpt lat="50.45251" lon="3.59006">
        <ele>25</ele>
        <time>2022-05-09T06:29:00.000Z</time>
      </trkpt>
      <trkpt lat="50.45248" lon="3.59013">
        <ele>24.7</ele>
        <time>2022-05-09T06:29:01.000Z</time>
      </trkpt>
      <trkpt lat="50.45245" lon="3.59022">
        <ele>24.3</ele>
        <time>2022-05-09T06:29:02.000Z</time>
      </trkpt>
      <trkpt lat="50.45242" lon="3.59029">
        <ele>24.1</ele>
        <time>2022-05-09T06:29:03.000Z</time>
      </trkpt>
      <trkpt lat="50.45236" lon="3.59038">
        <ele>23.9</ele>
        <time>2022-05-09T06:29:04.000Z</time>
      </trkpt>
      <trkpt lat="50.45233" lon="3.59044">
        <ele>23.9</ele>
        <time>2022-05-09T06:29:05.000Z</time>
      </trkpt>
      <trkpt lat="50.45229" lon="3.59051">
        <ele>24</ele>
        <time>2022-05-09T06:29:06.000Z</time>
      </trkpt>
      <trkpt lat="50.45226" lon="3.59057">
        <ele>24.1</ele>
        <time>2022-05-09T06:29:07.000Z</time>
      </trkpt>
      <trkpt lat="50.45221" lon="3.59065">
        <ele>24</ele>
        <time>2022-05-09T06:29:08.000Z</time>
      </trkpt>
      <trkpt lat="50.45217" lon="3.59073">
        <ele>24</ele>
        <time>2022-05-09T06:29:09.000Z</time>
      </trkpt>
      <trkpt lat="50.45214" lon="3.5908">
        <ele>24</ele>
        <time>2022-05-09T06:29:10.000Z</time>
      </trkpt>
      <trkpt lat="50.4521" lon="3.59087">
        <ele>23.9</ele>
        <time>2022-05-09T06:29:11.000Z</time>
      </trkpt>
      <trkpt lat="50.45206" lon="3.59095">
        <ele>23.8</ele>
        <time>2022-05-09T06:29:12.000Z</time>
      </trkpt>
      <trkpt lat="50.45202" lon="3.59102">
        <ele>23.5</ele>
        <time>2022-05-09T06:29:13.000Z</time>
      </trkpt>
      <trkpt lat="50.45198" lon="3.5911">
        <ele>23.2</ele>
        <time>2022-05-09T06:29:14.000Z</time>
      </trkpt>
      <trkpt lat="50.45194" lon="3.59117">
        <ele>23.1</ele>
        <time>2022-05-09T06:29:15.000Z</time>
      </trkpt>
      <trkpt lat="50.4519" lon="3.59124">
        <ele>23.5</ele>
        <time>2022-05-09T06:29:16.000Z</time>
      </trkpt>
      <trkpt lat="50.45187" lon="3.59132">
        <ele>23.9</ele>
        <time>2022-05-09T06:29:17.000Z</time>
      </trkpt>
      <trkpt lat="50.45183" lon="3.5914">
        <ele>24.2</ele>
        <time>2022-05-09T06:29:18.000Z</time>
      </trkpt>
      <trkpt lat="50.45179" lon="3.59148">
        <ele>24.3</ele>
        <time>2022-05-09T06:29:19.000Z</time>
      </trkpt>
      <trkpt lat="50.45174" lon="3.59162">
        <ele>24</ele>
        <time>2022-05-09T06:29:21.000Z</time>
      </trkpt>
      <trkpt lat="50.45172" lon="3.59172">
        <ele>23.5</ele>
        <time>2022-05-09T06:29:22.000Z</time>
      </trkpt>
      <trkpt lat="50.45172" lon="3.59182">
        <ele>22.8</ele>
        <time>2022-05-09T06:29:23.000Z</time>
      </trkpt>
      <trkpt lat="50.45173" lon="3.59191">
        <ele>22.2</ele>
        <time>2022-05-09T06:29:24.000Z</time>
      </trkpt>
      <trkpt lat="50.45176" lon="3.59198">
        <ele>22</ele>
        <time>2022-05-09T06:29:25.000Z</time>
      </trkpt>
      <trkpt lat="50.45181" lon="3.59202">
        <ele>22</ele>
        <time>2022-05-09T06:29:26.000Z</time>
      </trkpt>
      <trkpt lat="50.45186" lon="3.59205">
        <ele>22</ele>
        <time>2022-05-09T06:29:27.000Z</time>
      </trkpt>
      <trkpt lat="50.4519" lon="3.59209">
        <ele>22</ele>
        <time>2022-05-09T06:29:28.000Z</time>
      </trkpt>
      <trkpt lat="50.45195" lon="3.59215">
        <ele>22</ele>
        <time>2022-05-09T06:29:29.000Z</time>
      </trkpt>
      <trkpt lat="50.45198" lon="3.59222">
        <ele>22.1</ele>
        <time>2022-05-09T06:29:31.000Z</time>
      </trkpt>
      <trkpt lat="50.452" lon="3.59231">
        <ele>22.2</ele>
        <time>2022-05-09T06:29:32.000Z</time>
      </trkpt>
      <trkpt lat="50.45203" lon="3.59238">
        <ele>22.1</ele>
        <time>2022-05-09T06:29:34.000Z</time>
      </trkpt>
      <trkpt lat="50.45207" lon="3.59241">
        <ele>22.1</ele>
        <time>2022-05-09T06:29:36.000Z</time>
      </trkpt>
      <trkpt lat="50.45209" lon="3.59234">
        <ele>22.3</ele>
        <time>2022-05-09T06:29:39.663Z</time>
      </trkpt>
      <trkpt lat="50.45212" lon="3.59239">
        <ele>22.3</ele>
        <time>2022-05-09T06:29:41.783Z</time>
      </trkpt>
      <trkpt lat="50.45216" lon="3.59246">
        <ele>22.1</ele>
        <time>2022-05-09T06:29:42.942Z</time>
      </trkpt>
      <trkpt lat="50.4522" lon="3.59249">
        <ele>22</ele>
        <time>2022-05-09T06:29:44.000Z</time>
      </trkpt>
      <trkpt lat="50.45226" lon="3.59258">
        <ele>22.1</ele>
        <time>2022-05-09T06:29:46.044Z</time>
      </trkpt>
      <trkpt lat="50.45231" lon="3.59262">
        <ele>22.3</ele>
        <time>2022-05-09T06:29:48.000Z</time>
      </trkpt>
      <trkpt lat="50.45235" lon="3.59278">
        <ele>22.4</ele>
        <time>2022-05-09T06:29:51.105Z</time>
      </trkpt>
      <trkpt lat="50.45233" lon="3.59295">
        <ele>22.1</ele>
        <time>2022-05-09T06:29:53.000Z</time>
      </trkpt>
      <trkpt lat="50.45231" lon="3.59304">
        <ele>22</ele>
        <time>2022-05-09T06:29:54.000Z</time>
      </trkpt>
      <trkpt lat="50.45227" lon="3.59316">
        <ele>21.9</ele>
        <time>2022-05-09T06:29:55.000Z</time>
      </trkpt>
      <trkpt lat="50.45224" lon="3.59326">
        <ele>21.9</ele>
        <time>2022-05-09T06:29:56.000Z</time>
      </trkpt>
      <trkpt lat="50.45219" lon="3.59337">
        <ele>21.8</ele>
        <time>2022-05-09T06:29:57.000Z</time>
      </trkpt>
      <trkpt lat="50.45215" lon="3.59351">
        <ele>21.3</ele>
        <time>2022-05-09T06:29:58.000Z</time>
      </trkpt>
      <trkpt lat="50.45212" lon="3.5936">
        <ele>21</ele>
        <time>2022-05-09T06:29:59.000Z</time>
      </trkpt>
      <trkpt lat="50.45211" lon="3.59372">
        <ele>20.6</ele>
        <time>2022-05-09T06:30:00.000Z</time>
      </trkpt>
      <trkpt lat="50.45212" lon="3.59379">
        <ele>20.3</ele>
        <time>2022-05-09T06:30:01.000Z</time>
      </trkpt>
      <trkpt lat="50.45214" lon="3.59389">
        <ele>20</ele>
        <time>2022-05-09T06:30:02.000Z</time>
      </trkpt>
      <trkpt lat="50.45214" lon="3.59396">
        <ele>20</ele>
        <time>2022-05-09T06:30:03.000Z</time>
      </trkpt>
      <trkpt lat="50.45212" lon="3.59406">
        <ele>20</ele>
        <time>2022-05-09T06:30:04.000Z</time>
      </trkpt>
      <trkpt lat="50.45211" lon="3.59413">
        <ele>20</ele>
        <time>2022-05-09T06:30:05.000Z</time>
      </trkpt>
      <trkpt lat="50.45212" lon="3.5942">
        <ele>20</ele>
        <time>2022-05-09T06:30:06.000Z</time>
      </trkpt>
      <trkpt lat="50.45216" lon="3.59429">
        <ele>20</ele>
        <time>2022-05-09T06:30:07.000Z</time>
      </trkpt>
      <trkpt lat="50.45219" lon="3.59436">
        <ele>20</ele>
        <time>2022-05-09T06:30:08.000Z</time>
      </trkpt>
      <trkpt lat="50.45222" lon="3.59443">
        <ele>20</ele>
        <time>2022-05-09T06:30:09.000Z</time>
      </trkpt>
      <trkpt lat="50.45225" lon="3.5945">
        <ele>20.2</ele>
        <time>2022-05-09T06:30:10.000Z</time>
      </trkpt>
      <trkpt lat="50.45229" lon="3.59457">
        <ele>20.4</ele>
        <time>2022-05-09T06:30:11.000Z</time>
      </trkpt>
      <trkpt lat="50.45232" lon="3.59466">
        <ele>20.8</ele>
        <time>2022-05-09T06:30:12.000Z</time>
      </trkpt>
      <trkpt lat="50.45235" lon="3.59474">
        <ele>21</ele>
        <time>2022-05-09T06:30:13.000Z</time>
      </trkpt>
      <trkpt lat="50.45239" lon="3.59483">
        <ele>21</ele>
        <time>2022-05-09T06:30:14.000Z</time>
      </trkpt>
      <trkpt lat="50.45242" lon="3.5949">
        <ele>21</ele>
        <time>2022-05-09T06:30:15.000Z</time>
      </trkpt>
      <trkpt lat="50.45244" lon="3.595">
        <ele>21</ele>
        <time>2022-05-09T06:30:16.000Z</time>
      </trkpt>
      <trkpt lat="50.45246" lon="3.59508">
        <ele>21</ele>
        <time>2022-05-09T06:30:17.000Z</time>
      </trkpt>
      <trkpt lat="50.45248" lon="3.59516">
        <ele>21</ele>
        <time>2022-05-09T06:30:18.000Z</time>
      </trkpt>
      <trkpt lat="50.45251" lon="3.59525">
        <ele>20.9</ele>
        <time>2022-05-09T06:30:19.000Z</time>
      </trkpt>
      <trkpt lat="50.45253" lon="3.59532">
        <ele>20.7</ele>
        <time>2022-05-09T06:30:20.000Z</time>
      </trkpt>
      <trkpt lat="50.45254" lon="3.5954">
        <ele>20.3</ele>
        <time>2022-05-09T06:30:21.000Z</time>
      </trkpt>
      <trkpt lat="50.45255" lon="3.59548">
        <ele>20</ele>
        <time>2022-05-09T06:30:22.000Z</time>
      </trkpt>
      <trkpt lat="50.45257" lon="3.59557">
        <ele>19.7</ele>
        <time>2022-05-09T06:30:23.000Z</time>
      </trkpt>
      <trkpt lat="50.45258" lon="3.59564">
        <ele>19.4</ele>
        <time>2022-05-09T06:30:24.000Z</time>
      </trkpt>
      <trkpt lat="50.45259" lon="3.59572">
        <ele>19.1</ele>
        <time>2022-05-09T06:30:25.000Z</time>
      </trkpt>
      <trkpt lat="50.4526" lon="3.59579">
        <ele>18.8</ele>
        <time>2022-05-09T06:30:26.000Z</time>
      </trkpt>
      <trkpt lat="50.45262" lon="3.59588">
        <ele>18.4</ele>
        <time>2022-05-09T06:30:27.000Z</time>
      </trkpt>
      <trkpt lat="50.45269" lon="3.59596">
        <ele>17.8</ele>
        <time>2022-05-09T06:30:29.000Z</time>
      </trkpt>
      <trkpt lat="50.45274" lon="3.59597">
        <ele>17.6</ele>
        <time>2022-05-09T06:30:30.000Z</time>
      </trkpt>
      <trkpt lat="50.45279" lon="3.59596">
        <ele>17.5</ele>
        <time>2022-05-09T06:30:32.000Z</time>
      </trkpt>
      <trkpt lat="50.45275" lon="3.5961">
        <ele>17.2</ele>
        <time>2022-05-09T06:30:59.000Z</time>
      </trkpt>
      <trkpt lat="50.4527" lon="3.59622">
        <ele>16.9</ele>
        <time>2022-05-09T06:31:01.706Z</time>
      </trkpt>
      <trkpt lat="50.45262" lon="3.59639">
        <ele>16.6</ele>
        <time>2022-05-09T06:31:03.887Z</time>
      </trkpt>
      <trkpt lat="50.45258" lon="3.59643">
        <ele>16.6</ele>
        <time>2022-05-09T06:31:05.000Z</time>
      </trkpt>
      <trkpt lat="50.45251" lon="3.59654">
        <ele>16.4</ele>
        <time>2022-05-09T06:31:07.000Z</time>
      </trkpt>
      <trkpt lat="50.45247" lon="3.59665">
        <ele>16.2</ele>
        <time>2022-05-09T06:31:09.000Z</time>
      </trkpt>
      <trkpt lat="50.45244" lon="3.59671">
        <ele>16.2</ele>
        <time>2022-05-09T06:31:10.000Z</time>
      </trkpt>
      <trkpt lat="50.45238" lon="3.59679">
        <ele>16.4</ele>
        <time>2022-05-09T06:31:12.000Z</time>
      </trkpt>
      <trkpt lat="50.45234" lon="3.59685">
        <ele>16.6</ele>
        <time>2022-05-09T06:31:13.000Z</time>
      </trkpt>
      <trkpt lat="50.45226" lon="3.59695">
        <ele>16.8</ele>
        <time>2022-05-09T06:31:15.000Z</time>
      </trkpt>
      <trkpt lat="50.45223" lon="3.597">
        <ele>16.8</ele>
        <time>2022-05-09T06:31:16.000Z</time>
      </trkpt>
      <trkpt lat="50.4522" lon="3.59705">
        <ele>16.7</ele>
        <time>2022-05-09T06:31:17.000Z</time>
      </trkpt>
      <trkpt lat="50.45212" lon="3.59715">
        <ele>16.5</ele>
        <time>2022-05-09T06:31:19.000Z</time>
      </trkpt>
      <trkpt lat="50.45204" lon="3.59723">
        <ele>16.7</ele>
        <time>2022-05-09T06:31:21.410Z</time>
      </trkpt>
      <trkpt lat="50.45198" lon="3.59729">
        <ele>16.7</ele>
        <time>2022-05-09T06:31:23.000Z</time>
      </trkpt>
      <trkpt lat="50.45195" lon="3.59733">
        <ele>16.6</ele>
        <time>2022-05-09T06:31:24.000Z</time>
      </trkpt>
      <trkpt lat="50.45191" lon="3.59737">
        <ele>16.5</ele>
        <time>2022-05-09T06:31:25.000Z</time>
      </trkpt>
      <trkpt lat="50.45186" lon="3.59742">
        <ele>16.3</ele>
        <time>2022-05-09T06:31:26.000Z</time>
      </trkpt>
      <trkpt lat="50.45179" lon="3.5975">
        <ele>16</ele>
        <time>2022-05-09T06:31:28.000Z</time>
      </trkpt>
      <trkpt lat="50.45175" lon="3.59756">
        <ele>16</ele>
        <time>2022-05-09T06:31:29.000Z</time>
      </trkpt>
      <trkpt lat="50.45168" lon="3.59762">
        <ele>16</ele>
        <time>2022-05-09T06:31:31.000Z</time>
      </trkpt>
      <trkpt lat="50.45161" lon="3.59767">
        <ele>16.1</ele>
        <time>2022-05-09T06:31:33.000Z</time>
      </trkpt>
      <trkpt lat="50.45156" lon="3.59772">
        <ele>16.1</ele>
        <time>2022-05-09T06:31:35.050Z</time>
      </trkpt>
      <trkpt lat="50.45149" lon="3.59778">
        <ele>16</ele>
        <time>2022-05-09T06:31:36.000Z</time>
      </trkpt>
      <trkpt lat="50.45145" lon="3.59782">
        <ele>16</ele>
        <time>2022-05-09T06:31:37.000Z</time>
      </trkpt>
      <trkpt lat="50.4514" lon="3.59786">
        <ele>16</ele>
        <time>2022-05-09T06:31:38.000Z</time>
      </trkpt>
      <trkpt lat="50.45135" lon="3.5979">
        <ele>16.1</ele>
        <time>2022-05-09T06:31:39.000Z</time>
      </trkpt>
      <trkpt lat="50.45131" lon="3.59793">
        <ele>16.3</ele>
        <time>2022-05-09T06:31:40.000Z</time>
      </trkpt>
      <trkpt lat="50.45126" lon="3.59797">
        <ele>16.5</ele>
        <time>2022-05-09T06:31:41.000Z</time>
      </trkpt>
      <trkpt lat="50.45121" lon="3.598">
        <ele>16.6</ele>
        <time>2022-05-09T06:31:42.000Z</time>
      </trkpt>
      <trkpt lat="50.45117" lon="3.59803">
        <ele>16.8</ele>
        <time>2022-05-09T06:31:43.000Z</time>
      </trkpt>
      <trkpt lat="50.45113" lon="3.59805">
        <ele>17</ele>
        <time>2022-05-09T06:31:44.000Z</time>
      </trkpt>
      <trkpt lat="50.45108" lon="3.59808">
        <ele>16.9</ele>
        <time>2022-05-09T06:31:45.000Z</time>
      </trkpt>
      <trkpt lat="50.45103" lon="3.59811">
        <ele>16.9</ele>
        <time>2022-05-09T06:31:46.000Z</time>
      </trkpt>
      <trkpt lat="50.45099" lon="3.59813">
        <ele>16.8</ele>
        <time>2022-05-09T06:31:47.000Z</time>
      </trkpt>
      <trkpt lat="50.45091" lon="3.59818">
        <ele>16.9</ele>
        <time>2022-05-09T06:31:49.000Z</time>
      </trkpt>
      <trkpt lat="50.45084" lon="3.59823">
        <ele>17</ele>
        <time>2022-05-09T06:31:51.000Z</time>
      </trkpt>
      <trkpt lat="50.45075" lon="3.5983">
        <ele>17</ele>
        <time>2022-05-09T06:31:53.000Z</time>
      </trkpt>
      <trkpt lat="50.45066" lon="3.59833">
        <ele>17</ele>
        <time>2022-05-09T06:31:55.098Z</time>
      </trkpt>
      <trkpt lat="50.45058" lon="3.59838">
        <ele>17.1</ele>
        <time>2022-05-09T06:31:56.918Z</time>
      </trkpt>
      <trkpt lat="50.4505" lon="3.59841">
        <ele>17.3</ele>
        <time>2022-05-09T06:31:59.000Z</time>
      </trkpt>
      <trkpt lat="50.45046" lon="3.59844">
        <ele>17.4</ele>
        <time>2022-05-09T06:32:00.160Z</time>
      </trkpt>
      <trkpt lat="50.45034" lon="3.59851">
        <ele>17.6</ele>
        <time>2022-05-09T06:32:02.740Z</time>
      </trkpt>
      <trkpt lat="50.45028" lon="3.59853">
        <ele>17.7</ele>
        <time>2022-05-09T06:32:04.083Z</time>
      </trkpt>
      <trkpt lat="50.45022" lon="3.59857">
        <ele>17.9</ele>
        <time>2022-05-09T06:32:05.918Z</time>
      </trkpt>
      <trkpt lat="50.45016" lon="3.59862">
        <ele>18</ele>
        <time>2022-05-09T06:32:08.000Z</time>
      </trkpt>
      <trkpt lat="50.45011" lon="3.59863">
        <ele>18</ele>
        <time>2022-05-09T06:32:08.981Z</time>
      </trkpt>
      <trkpt lat="50.45006" lon="3.59869">
        <ele>17.9</ele>
        <time>2022-05-09T06:32:11.000Z</time>
      </trkpt>
      <trkpt lat="50.45001" lon="3.5987">
        <ele>18</ele>
        <time>2022-05-09T06:32:12.000Z</time>
      </trkpt>
      <trkpt lat="50.44996" lon="3.59872">
        <ele>18.1</ele>
        <time>2022-05-09T06:32:13.000Z</time>
      </trkpt>
      <trkpt lat="50.44988" lon="3.59875">
        <ele>18.4</ele>
        <time>2022-05-09T06:32:15.342Z</time>
      </trkpt>
      <trkpt lat="50.44978" lon="3.59878">
        <ele>18.8</ele>
        <time>2022-05-09T06:32:18.000Z</time>
      </trkpt>
      <trkpt lat="50.44969" lon="3.5988">
        <ele>19</ele>
        <time>2022-05-09T06:32:20.000Z</time>
      </trkpt>
      <trkpt lat="50.44962" lon="3.59887">
        <ele>19</ele>
        <time>2022-05-09T06:32:22.000Z</time>
      </trkpt>
      <trkpt lat="50.44963" lon="3.59898">
        <ele>18.8</ele>
        <time>2022-05-09T06:32:23.944Z</time>
      </trkpt>
      <trkpt lat="50.44965" lon="3.59909">
        <ele>18.5</ele>
        <time>2022-05-09T06:32:26.000Z</time>
      </trkpt>
      <trkpt lat="50.44964" lon="3.5992">
        <ele>18.3</ele>
        <time>2022-05-09T06:32:28.000Z</time>
      </trkpt>
      <trkpt lat="50.44964" lon="3.59932">
        <ele>18.3</ele>
        <time>2022-05-09T06:32:30.000Z</time>
      </trkpt>
      <trkpt lat="50.44965" lon="3.59947">
        <ele>18.3</ele>
        <time>2022-05-09T06:32:32.000Z</time>
      </trkpt>
      <trkpt lat="50.44965" lon="3.59961">
        <ele>18.3</ele>
        <time>2022-05-09T06:32:34.397Z</time>
      </trkpt>
      <trkpt lat="50.44965" lon="3.5997">
        <ele>18.3</ele>
        <time>2022-05-09T06:32:35.838Z</time>
      </trkpt>
      <trkpt lat="50.44965" lon="3.59983">
        <ele>18.3</ele>
        <time>2022-05-09T06:32:37.998Z</time>
      </trkpt>
      <trkpt lat="50.44966" lon="3.59997">
        <ele>18.2</ele>
        <time>2022-05-09T06:32:40.057Z</time>
      </trkpt>
      <trkpt lat="50.44968" lon="3.60005">
        <ele>18.3</ele>
        <time>2022-05-09T06:32:41.000Z</time>
      </trkpt>
      <trkpt lat="50.44968" lon="3.60012">
        <ele>18.5</ele>
        <time>2022-05-09T06:32:42.000Z</time>
      </trkpt>
      <trkpt lat="50.44966" lon="3.60025">
        <ele>18.9</ele>
        <time>2022-05-09T06:32:45.000Z</time>
      </trkpt>
      <trkpt lat="50.44967" lon="3.60031">
        <ele>19</ele>
        <time>2022-05-09T06:32:46.000Z</time>
      </trkpt>
      <trkpt lat="50.44967" lon="3.60043">
        <ele>19</ele>
        <time>2022-05-09T06:32:48.000Z</time>
      </trkpt>
      <trkpt lat="50.44966" lon="3.60053">
        <ele>19</ele>
        <time>2022-05-09T06:32:51.000Z</time>
      </trkpt>
      <trkpt lat="50.44966" lon="3.60043">
        <ele>19</ele>
        <time>2022-05-09T06:33:02.966Z</time>
      </trkpt>
      <trkpt lat="50.44965" lon="3.60032">
        <ele>19</ele>
        <time>2022-05-09T06:33:05.000Z</time>
      </trkpt>
      <trkpt lat="50.44959" lon="3.60033">
        <ele>19</ele>
        <time>2022-05-09T06:33:08.000Z</time>
      </trkpt>
      <trkpt lat="50.44959" lon="3.60042">
        <ele>19</ele>
        <time>2022-05-09T06:33:32.946Z</time>
      </trkpt>
      <trkpt lat="50.44954" lon="3.60042">
        <ele>19</ele>
        <time>2022-05-09T06:33:35.786Z</time>
      </trkpt>
      <trkpt lat="50.44949" lon="3.60043">
        <ele>19</ele>
        <time>2022-05-09T06:33:38.066Z</time>
      </trkpt>
      <trkpt lat="50.44945" lon="3.60043">
        <ele>19</ele>
        <time>2022-05-09T06:33:40.000Z</time>
      </trkpt>
      <trkpt lat="50.4494" lon="3.60045">
        <ele>18.9</ele>
        <time>2022-05-09T06:33:42.665Z</time>
      </trkpt>
      <trkpt lat="50.44935" lon="3.60045">
        <ele>18.6</ele>
        <time>2022-05-09T06:33:46.043Z</time>
      </trkpt>
      <trkpt lat="50.4493" lon="3.60044">
        <ele>18.5</ele>
        <time>2022-05-09T06:34:01.827Z</time>
      </trkpt>
      <trkpt lat="50.4493" lon="3.60037">
        <ele>18.5</ele>
        <time>2022-05-09T06:34:02.415Z</time>
      </trkpt>
      <trkpt lat="50.44932" lon="3.6003">
        <ele>18.5</ele>
        <time>2022-05-09T06:34:03.000Z</time>
      </trkpt>
      <trkpt lat="50.44934" lon="3.60034">
        <ele>18.6</ele>
        <time>2022-05-09T06:34:05.779Z</time>
      </trkpt>
      <trkpt lat="50.44935" lon="3.60039">
        <ele>18.6</ele>
        <time>2022-05-09T06:34:08.726Z</time>
      </trkpt>
      <trkpt lat="50.44936" lon="3.6005">
        <ele>18.7</ele>
        <time>2022-05-09T06:34:10.170Z</time>
      </trkpt>
      <trkpt lat="50.44936" lon="3.60059">
        <ele>18.7</ele>
        <time>2022-05-09T06:34:11.348Z</time>
      </trkpt>
      <trkpt lat="50.44936" lon="3.60069">
        <ele>18.7</ele>
        <time>2022-05-09T06:34:12.889Z</time>
      </trkpt>
      <trkpt lat="50.44935" lon="3.60077">
        <ele>18.7</ele>
        <time>2022-05-09T06:34:14.000Z</time>
      </trkpt>
      <trkpt lat="50.44936" lon="3.60085">
        <ele>18.7</ele>
        <time>2022-05-09T06:34:15.000Z</time>
      </trkpt>
      <trkpt lat="50.44936" lon="3.60093">
        <ele>18.7</ele>
        <time>2022-05-09T06:34:16.000Z</time>
      </trkpt>
      <trkpt lat="50.44936" lon="3.60101">
        <ele>18.7</ele>
        <time>2022-05-09T06:34:16.945Z</time>
      </trkpt>
      <trkpt lat="50.44936" lon="3.60108">
        <ele>18.7</ele>
        <time>2022-05-09T06:34:18.000Z</time>
      </trkpt>
      <trkpt lat="50.44936" lon="3.60115">
        <ele>18.5</ele>
        <time>2022-05-09T06:34:19.000Z</time>
      </trkpt>
      <trkpt lat="50.44936" lon="3.60123">
        <ele>18.2</ele>
        <time>2022-05-09T06:34:20.000Z</time>
      </trkpt>
      <trkpt lat="50.44936" lon="3.6013">
        <ele>18</ele>
        <time>2022-05-09T06:34:21.000Z</time>
      </trkpt>
      <trkpt lat="50.44936" lon="3.60138">
        <ele>17.7</ele>
        <time>2022-05-09T06:34:22.000Z</time>
      </trkpt>
      <trkpt lat="50.44935" lon="3.6015">
        <ele>17.7</ele>
        <time>2022-05-09T06:34:23.000Z</time>
      </trkpt>
      <trkpt lat="50.44935" lon="3.60161">
        <ele>17.7</ele>
        <time>2022-05-09T06:34:25.000Z</time>
      </trkpt>
      <trkpt lat="50.44935" lon="3.60168">
        <ele>17.7</ele>
        <time>2022-05-09T06:34:26.000Z</time>
      </trkpt>
      <trkpt lat="50.44935" lon="3.60183">
        <ele>17.7</ele>
        <time>2022-05-09T06:34:29.000Z</time>
      </trkpt>
      <trkpt lat="50.44935" lon="3.60198">
        <ele>17.6</ele>
        <time>2022-05-09T06:34:30.000Z</time>
      </trkpt>
      <trkpt lat="50.44934" lon="3.6021">
        <ele>17.3</ele>
        <time>2022-05-09T06:34:32.000Z</time>
      </trkpt>
      <trkpt lat="50.44934" lon="3.60218">
        <ele>17.1</ele>
        <time>2022-05-09T06:34:33.000Z</time>
      </trkpt>
      <trkpt lat="50.44934" lon="3.60226">
        <ele>17</ele>
        <time>2022-05-09T06:34:34.000Z</time>
      </trkpt>
      <trkpt lat="50.44934" lon="3.60233">
        <ele>17</ele>
        <time>2022-05-09T06:34:35.000Z</time>
      </trkpt>
      <trkpt lat="50.44935" lon="3.60242">
        <ele>17</ele>
        <time>2022-05-09T06:34:36.000Z</time>
      </trkpt>
      <trkpt lat="50.44935" lon="3.60257">
        <ele>17</ele>
        <time>2022-05-09T06:34:38.000Z</time>
      </trkpt>
      <trkpt lat="50.44935" lon="3.60265">
        <ele>17</ele>
        <time>2022-05-09T06:34:39.000Z</time>
      </trkpt>
      <trkpt lat="50.44935" lon="3.60281">
        <ele>17</ele>
        <time>2022-05-09T06:34:41.000Z</time>
      </trkpt>
      <trkpt lat="50.44935" lon="3.60297">
        <ele>16.8</ele>
        <time>2022-05-09T06:34:43.000Z</time>
      </trkpt>
      <trkpt lat="50.44935" lon="3.60304">
        <ele>16.7</ele>
        <time>2022-05-09T06:34:44.000Z</time>
      </trkpt>
      <trkpt lat="50.44935" lon="3.60318">
        <ele>16.6</ele>
        <time>2022-05-09T06:34:46.000Z</time>
      </trkpt>
      <trkpt lat="50.44935" lon="3.60327">
        <ele>16.7</ele>
        <time>2022-05-09T06:34:47.000Z</time>
      </trkpt>
      <trkpt lat="50.44936" lon="3.60334">
        <ele>16.7</ele>
        <time>2022-05-09T06:34:48.000Z</time>
      </trkpt>
      <trkpt lat="50.44936" lon="3.60341">
        <ele>16.8</ele>
        <time>2022-05-09T06:34:49.000Z</time>
      </trkpt>
      <trkpt lat="50.44937" lon="3.6035">
        <ele>16.9</ele>
        <time>2022-05-09T06:34:50.000Z</time>
      </trkpt>
      <trkpt lat="50.44937" lon="3.60363">
        <ele>17</ele>
        <time>2022-05-09T06:34:52.000Z</time>
      </trkpt>
      <trkpt lat="50.44936" lon="3.60372">
        <ele>17.3</ele>
        <time>2022-05-09T06:34:53.000Z</time>
      </trkpt>
      <trkpt lat="50.44936" lon="3.60379">
        <ele>17.5</ele>
        <time>2022-05-09T06:34:54.000Z</time>
      </trkpt>
      <trkpt lat="50.44937" lon="3.60386">
        <ele>17.7</ele>
        <time>2022-05-09T06:34:55.000Z</time>
      </trkpt>
      <trkpt lat="50.44937" lon="3.60393">
        <ele>17.8</ele>
        <time>2022-05-09T06:34:56.000Z</time>
      </trkpt>
      <trkpt lat="50.44937" lon="3.60403">
        <ele>17.9</ele>
        <time>2022-05-09T06:34:57.000Z</time>
      </trkpt>
      <trkpt lat="50.44936" lon="3.60417">
        <ele>18</ele>
        <time>2022-05-09T06:34:59.000Z</time>
      </trkpt>
      <trkpt lat="50.44937" lon="3.60426">
        <ele>17.7</ele>
        <time>2022-05-09T06:35:00.000Z</time>
      </trkpt>
      <trkpt lat="50.44938" lon="3.60439">
        <ele>17.2</ele>
        <time>2022-05-09T06:35:02.000Z</time>
      </trkpt>
      <trkpt lat="50.44938" lon="3.60448">
        <ele>17</ele>
        <time>2022-05-09T06:35:03.000Z</time>
      </trkpt>
      <trkpt lat="50.44938" lon="3.60461">
        <ele>17</ele>
        <time>2022-05-09T06:35:05.000Z</time>
      </trkpt>
      <trkpt lat="50.44939" lon="3.6047">
        <ele>17</ele>
        <time>2022-05-09T06:35:06.000Z</time>
      </trkpt>
      <trkpt lat="50.44939" lon="3.60478">
        <ele>17</ele>
        <time>2022-05-09T06:35:07.000Z</time>
      </trkpt>
      <trkpt lat="50.44939" lon="3.60491">
        <ele>17</ele>
        <time>2022-05-09T06:35:09.000Z</time>
      </trkpt>
      <trkpt lat="50.44939" lon="3.60499">
        <ele>17</ele>
        <time>2022-05-09T06:35:10.000Z</time>
      </trkpt>
      <trkpt lat="50.44939" lon="3.60508">
        <ele>16.7</ele>
        <time>2022-05-09T06:35:12.000Z</time>
      </trkpt>
      <trkpt lat="50.44939" lon="3.60518">
        <ele>16.4</ele>
        <time>2022-05-09T06:35:13.000Z</time>
      </trkpt>
      <trkpt lat="50.44938" lon="3.60532">
        <ele>16</ele>
        <time>2022-05-09T06:35:15.000Z</time>
      </trkpt>
      <trkpt lat="50.44938" lon="3.60557">
        <ele>16</ele>
        <time>2022-05-09T06:35:18.985Z</time>
      </trkpt>
      <trkpt lat="50.44938" lon="3.60575">
        <ele>16</ele>
        <time>2022-05-09T06:35:20.905Z</time>
      </trkpt>
      <trkpt lat="50.44939" lon="3.60587">
        <ele>15.9</ele>
        <time>2022-05-09T06:35:23.000Z</time>
      </trkpt>
      <trkpt lat="50.44939" lon="3.60597">
        <ele>15.5</ele>
        <time>2022-05-09T06:35:24.000Z</time>
      </trkpt>
      <trkpt lat="50.4494" lon="3.60607">
        <ele>15.1</ele>
        <time>2022-05-09T06:35:26.000Z</time>
      </trkpt>
      <trkpt lat="50.4494" lon="3.60616">
        <ele>14.8</ele>
        <time>2022-05-09T06:35:27.000Z</time>
      </trkpt>
      <trkpt lat="50.44941" lon="3.6063">
        <ele>14.3</ele>
        <time>2022-05-09T06:35:29.507Z</time>
      </trkpt>
      <trkpt lat="50.44941" lon="3.60639">
        <ele>14</ele>
        <time>2022-05-09T06:35:30.486Z</time>
      </trkpt>
      <trkpt lat="50.4494" lon="3.60647">
        <ele>14</ele>
        <time>2022-05-09T06:35:31.625Z</time>
      </trkpt>
      <trkpt lat="50.4494" lon="3.60656">
        <ele>14</ele>
        <time>2022-05-09T06:35:33.665Z</time>
      </trkpt>
      <trkpt lat="50.44941" lon="3.60665">
        <ele>14</ele>
        <time>2022-05-09T06:35:34.567Z</time>
      </trkpt>
      <trkpt lat="50.44942" lon="3.60673">
        <ele>14</ele>
        <time>2022-05-09T06:35:35.964Z</time>
      </trkpt>
      <trkpt lat="50.44942" lon="3.60683">
        <ele>14</ele>
        <time>2022-05-09T06:35:38.048Z</time>
      </trkpt>
      <trkpt lat="50.44943" lon="3.60691">
        <ele>14</ele>
        <time>2022-05-09T06:35:40.000Z</time>
      </trkpt>
      <trkpt lat="50.44943" lon="3.60704">
        <ele>14</ele>
        <time>2022-05-09T06:35:41.945Z</time>
      </trkpt>
      <trkpt lat="50.44942" lon="3.60712">
        <ele>14</ele>
        <time>2022-05-09T06:35:42.987Z</time>
      </trkpt>
      <trkpt lat="50.44943" lon="3.60723">
        <ele>14</ele>
        <time>2022-05-09T06:35:45.148Z</time>
      </trkpt>
      <trkpt lat="50.44943" lon="3.60731">
        <ele>14</ele>
        <time>2022-05-09T06:35:46.466Z</time>
      </trkpt>
      <trkpt lat="50.44944" lon="3.60745">
        <ele>14</ele>
        <time>2022-05-09T06:35:49.000Z</time>
      </trkpt>
      <trkpt lat="50.44945" lon="3.60759">
        <ele>14.3</ele>
        <time>2022-05-09T06:35:51.427Z</time>
      </trkpt>
      <trkpt lat="50.44946" lon="3.60766">
        <ele>14.6</ele>
        <time>2022-05-09T06:35:53.000Z</time>
      </trkpt>
      <trkpt lat="50.44954" lon="3.60766">
        <ele>14.6</ele>
        <time>2022-05-09T06:35:54.924Z</time>
      </trkpt>
      <trkpt lat="50.4496" lon="3.6076">
        <ele>14.4</ele>
        <time>2022-05-09T06:35:56.485Z</time>
      </trkpt>
      <trkpt lat="50.44968" lon="3.6076">
        <ele>14.3</ele>
        <time>2022-05-09T06:35:58.868Z</time>
      </trkpt>
      <trkpt lat="50.44974" lon="3.60762">
        <ele>14.4</ele>
        <time>2022-05-09T06:36:00.085Z</time>
      </trkpt>
      <trkpt lat="50.44974" lon="3.6077">
        <ele>14.7</ele>
        <time>2022-05-09T06:36:01.000Z</time>
      </trkpt>
      <trkpt lat="50.44974" lon="3.60778">
        <ele>14.9</ele>
        <time>2022-05-09T06:36:02.637Z</time>
      </trkpt>
      <trkpt lat="50.44975" lon="3.60791">
        <ele>14.9</ele>
        <time>2022-05-09T06:36:05.206Z</time>
      </trkpt>
      <trkpt lat="50.44976" lon="3.60805">
        <ele>14.9</ele>
        <time>2022-05-09T06:36:07.272Z</time>
      </trkpt>
      <trkpt lat="50.44976" lon="3.60819">
        <ele>15.4</ele>
        <time>2022-05-09T06:36:09.000Z</time>
      </trkpt>
      <trkpt lat="50.44975" lon="3.60827">
        <ele>15.7</ele>
        <time>2022-05-09T06:36:10.000Z</time>
      </trkpt>
      <trkpt lat="50.44974" lon="3.60836">
        <ele>16</ele>
        <time>2022-05-09T06:36:11.000Z</time>
      </trkpt>
      <trkpt lat="50.44974" lon="3.60843">
        <ele>16.3</ele>
        <time>2022-05-09T06:36:12.000Z</time>
      </trkpt>
      <trkpt lat="50.44973" lon="3.60853">
        <ele>16.7</ele>
        <time>2022-05-09T06:36:13.000Z</time>
      </trkpt>
      <trkpt lat="50.44975" lon="3.60862">
        <ele>16.8</ele>
        <time>2022-05-09T06:36:15.308Z</time>
      </trkpt>
      <trkpt lat="50.44974" lon="3.60873">
        <ele>17.3</ele>
        <time>2022-05-09T06:36:16.286Z</time>
      </trkpt>
      <trkpt lat="50.44973" lon="3.60888">
        <ele>17.9</ele>
        <time>2022-05-09T06:36:18.171Z</time>
      </trkpt>
      <trkpt lat="50.44973" lon="3.60897">
        <ele>18</ele>
        <time>2022-05-09T06:36:19.489Z</time>
      </trkpt>
      <trkpt lat="50.44974" lon="3.6091">
        <ele>17.8</ele>
        <time>2022-05-09T06:36:21.908Z</time>
      </trkpt>
      <trkpt lat="50.44974" lon="3.60925">
        <ele>17.6</ele>
        <time>2022-05-09T06:36:24.000Z</time>
      </trkpt>
      <trkpt lat="50.44975" lon="3.60937">
        <ele>17</ele>
        <time>2022-05-09T06:36:27.000Z</time>
      </trkpt>
      <trkpt lat="50.44974" lon="3.60945">
        <ele>16.8</ele>
        <time>2022-05-09T06:38:43.004Z</time>
      </trkpt>
      <trkpt lat="50.44974" lon="3.60957">
        <ele>16.9</ele>
        <time>2022-05-09T06:38:45.905Z</time>
      </trkpt>
      <trkpt lat="50.44973" lon="3.60965">
        <ele>16.9</ele>
        <time>2022-05-09T06:38:47.000Z</time>
      </trkpt>
      <trkpt lat="50.44973" lon="3.60983">
        <ele>16.6</ele>
        <time>2022-05-09T06:38:49.000Z</time>
      </trkpt>
      <trkpt lat="50.44973" lon="3.60998">
        <ele>16</ele>
        <time>2022-05-09T06:38:51.000Z</time>
      </trkpt>
      <trkpt lat="50.44974" lon="3.61016">
        <ele>15.9</ele>
        <time>2022-05-09T06:38:53.000Z</time>
      </trkpt>
      <trkpt lat="50.44973" lon="3.61025">
        <ele>16</ele>
        <time>2022-05-09T06:38:53.903Z</time>
      </trkpt>
      <trkpt lat="50.44974" lon="3.61034">
        <ele>15.9</ele>
        <time>2022-05-09T06:38:55.000Z</time>
      </trkpt>
      <trkpt lat="50.44974" lon="3.61042">
        <ele>15.9</ele>
        <time>2022-05-09T06:38:55.944Z</time>
      </trkpt>
      <trkpt lat="50.44973" lon="3.61049">
        <ele>16</ele>
        <time>2022-05-09T06:38:57.000Z</time>
      </trkpt>
      <trkpt lat="50.44973" lon="3.61056">
        <ele>16</ele>
        <time>2022-05-09T06:38:58.000Z</time>
      </trkpt>
      <trkpt lat="50.44973" lon="3.61065">
        <ele>16</ele>
        <time>2022-05-09T06:38:59.505Z</time>
      </trkpt>
      <trkpt lat="50.44974" lon="3.61075">
        <ele>15.9</ele>
        <time>2022-05-09T06:39:01.000Z</time>
      </trkpt>
      <trkpt lat="50.44975" lon="3.61089">
        <ele>15.9</ele>
        <time>2022-05-09T06:39:02.982Z</time>
      </trkpt>
      <trkpt lat="50.44974" lon="3.61102">
        <ele>15.9</ele>
        <time>2022-05-09T06:39:05.000Z</time>
      </trkpt>
      <trkpt lat="50.44974" lon="3.61116">
        <ele>15.9</ele>
        <time>2022-05-09T06:39:07.000Z</time>
      </trkpt>
      <trkpt lat="50.44975" lon="3.61123">
        <ele>15.9</ele>
        <time>2022-05-09T06:39:08.000Z</time>
      </trkpt>
      <trkpt lat="50.44975" lon="3.61137">
        <ele>15.9</ele>
        <time>2022-05-09T06:39:10.000Z</time>
      </trkpt>
      <trkpt lat="50.44975" lon="3.61146">
        <ele>15.9</ele>
        <time>2022-05-09T06:39:11.000Z</time>
      </trkpt>
      <trkpt lat="50.44975" lon="3.61154">
        <ele>15.9</ele>
        <time>2022-05-09T06:39:12.000Z</time>
      </trkpt>
      <trkpt lat="50.44975" lon="3.61161">
        <ele>15.9</ele>
        <time>2022-05-09T06:39:13.000Z</time>
      </trkpt>
      <trkpt lat="50.44975" lon="3.61175">
        <ele>15.6</ele>
        <time>2022-05-09T06:39:15.000Z</time>
      </trkpt>
      <trkpt lat="50.44975" lon="3.61187">
        <ele>15.2</ele>
        <time>2022-05-09T06:39:17.000Z</time>
      </trkpt>
      <trkpt lat="50.44976" lon="3.61195">
        <ele>15</ele>
        <time>2022-05-09T06:39:18.000Z</time>
      </trkpt>
      <trkpt lat="50.44976" lon="3.61202">
        <ele>15</ele>
        <time>2022-05-09T06:39:19.000Z</time>
      </trkpt>
      <trkpt lat="50.44976" lon="3.61211">
        <ele>15</ele>
        <time>2022-05-09T06:39:20.000Z</time>
      </trkpt>
      <trkpt lat="50.44976" lon="3.61224">
        <ele>15</ele>
        <time>2022-05-09T06:39:22.000Z</time>
      </trkpt>
      <trkpt lat="50.44977" lon="3.61231">
        <ele>15</ele>
        <time>2022-05-09T06:39:23.000Z</time>
      </trkpt>
      <trkpt lat="50.44977" lon="3.61246">
        <ele>15</ele>
        <time>2022-05-09T06:39:25.000Z</time>
      </trkpt>
      <trkpt lat="50.44978" lon="3.61258">
        <ele>15</ele>
        <time>2022-05-09T06:39:27.000Z</time>
      </trkpt>
      <trkpt lat="50.44978" lon="3.61265">
        <ele>15</ele>
        <time>2022-05-09T06:39:28.000Z</time>
      </trkpt>
      <trkpt lat="50.44978" lon="3.61279">
        <ele>15</ele>
        <time>2022-05-09T06:39:30.000Z</time>
      </trkpt>
      <trkpt lat="50.44978" lon="3.61288">
        <ele>15</ele>
        <time>2022-05-09T06:39:31.000Z</time>
      </trkpt>
      <trkpt lat="50.44978" lon="3.613">
        <ele>15</ele>
        <time>2022-05-09T06:39:33.000Z</time>
      </trkpt>
      <trkpt lat="50.44978" lon="3.61312">
        <ele>15.2</ele>
        <time>2022-05-09T06:39:35.000Z</time>
      </trkpt>
      <trkpt lat="50.44977" lon="3.61325">
        <ele>15.6</ele>
        <time>2022-05-09T06:39:37.000Z</time>
      </trkpt>
      <trkpt lat="50.44977" lon="3.61338">
        <ele>15.8</ele>
        <time>2022-05-09T06:39:39.099Z</time>
      </trkpt>
      <trkpt lat="50.4498" lon="3.61352">
        <ele>15.7</ele>
        <time>2022-05-09T06:39:40.853Z</time>
      </trkpt>
      <trkpt lat="50.44979" lon="3.6136">
        <ele>15.8</ele>
        <time>2022-05-09T06:39:41.776Z</time>
      </trkpt>
      <trkpt lat="50.44979" lon="3.6137">
        <ele>15.8</ele>
        <time>2022-05-09T06:39:42.794Z</time>
      </trkpt>
      <trkpt lat="50.44979" lon="3.61379">
        <ele>15.8</ele>
        <time>2022-05-09T06:39:44.000Z</time>
      </trkpt>
      <trkpt lat="50.44979" lon="3.61393">
        <ele>15.7</ele>
        <time>2022-05-09T06:39:46.000Z</time>
      </trkpt>
      <trkpt lat="50.44979" lon="3.61402">
        <ele>15.4</ele>
        <time>2022-05-09T06:39:47.000Z</time>
      </trkpt>
      <trkpt lat="50.44979" lon="3.61414">
        <ele>15.1</ele>
        <time>2022-05-09T06:39:49.000Z</time>
      </trkpt>
      <trkpt lat="50.44979" lon="3.61423">
        <ele>15</ele>
        <time>2022-05-09T06:39:50.000Z</time>
      </trkpt>
      <trkpt lat="50.44979" lon="3.61435">
        <ele>15</ele>
        <time>2022-05-09T06:39:52.000Z</time>
      </trkpt>
      <trkpt lat="50.44979" lon="3.61443">
        <ele>15</ele>
        <time>2022-05-09T06:39:53.000Z</time>
      </trkpt>
      <trkpt lat="50.4498" lon="3.61457">
        <ele>15</ele>
        <time>2022-05-09T06:39:55.000Z</time>
      </trkpt>
      <trkpt lat="50.4498" lon="3.61471">
        <ele>15</ele>
        <time>2022-05-09T06:39:57.000Z</time>
      </trkpt>
      <trkpt lat="50.4498" lon="3.61482">
        <ele>15</ele>
        <time>2022-05-09T06:39:59.000Z</time>
      </trkpt>
      <trkpt lat="50.4498" lon="3.6149">
        <ele>15</ele>
        <time>2022-05-09T06:40:00.000Z</time>
      </trkpt>
      <trkpt lat="50.4498" lon="3.61508">
        <ele>15</ele>
        <time>2022-05-09T06:40:02.924Z</time>
      </trkpt>
      <trkpt lat="50.44981" lon="3.61521">
        <ele>15</ele>
        <time>2022-05-09T06:40:04.341Z</time>
      </trkpt>
      <trkpt lat="50.44982" lon="3.61531">
        <ele>15.1</ele>
        <time>2022-05-09T06:40:05.660Z</time>
      </trkpt>
      <trkpt lat="50.44981" lon="3.61539">
        <ele>15.3</ele>
        <time>2022-05-09T06:40:06.857Z</time>
      </trkpt>
      <trkpt lat="50.4498" lon="3.61548">
        <ele>15.5</ele>
        <time>2022-05-09T06:40:08.100Z</time>
      </trkpt>
      <trkpt lat="50.4498" lon="3.61558">
        <ele>15.8</ele>
        <time>2022-05-09T06:40:09.498Z</time>
      </trkpt>
      <trkpt lat="50.44981" lon="3.61573">
        <ele>15.9</ele>
        <time>2022-05-09T06:40:11.738Z</time>
      </trkpt>
      <trkpt lat="50.44982" lon="3.61586">
        <ele>16</ele>
        <time>2022-05-09T06:40:13.880Z</time>
      </trkpt>
      <trkpt lat="50.44981" lon="3.61595">
        <ele>16</ele>
        <time>2022-05-09T06:40:16.000Z</time>
      </trkpt>
      <trkpt lat="50.44981" lon="3.61603">
        <ele>16</ele>
        <time>2022-05-09T06:40:17.041Z</time>
      </trkpt>
      <trkpt lat="50.44982" lon="3.61615">
        <ele>16</ele>
        <time>2022-05-09T06:40:19.000Z</time>
      </trkpt>
      <trkpt lat="50.44983" lon="3.61629">
        <ele>16</ele>
        <time>2022-05-09T06:40:21.158Z</time>
      </trkpt>
      <trkpt lat="50.44983" lon="3.61647">
        <ele>16</ele>
        <time>2022-05-09T06:40:23.975Z</time>
      </trkpt>
      <trkpt lat="50.44984" lon="3.61656">
        <ele>16</ele>
        <time>2022-05-09T06:40:25.419Z</time>
      </trkpt>
      <trkpt lat="50.44985" lon="3.61664">
        <ele>16</ele>
        <time>2022-05-09T06:40:26.661Z</time>
      </trkpt>
      <trkpt lat="50.44983" lon="3.61678">
        <ele>16</ele>
        <time>2022-05-09T06:40:29.100Z</time>
      </trkpt>
      <trkpt lat="50.44984" lon="3.61698">
        <ele>16</ele>
        <time>2022-05-09T06:40:32.000Z</time>
      </trkpt>
      <trkpt lat="50.44983" lon="3.61709">
        <ele>16</ele>
        <time>2022-05-09T06:40:34.000Z</time>
      </trkpt>
      <trkpt lat="50.44983" lon="3.61719">
        <ele>16</ele>
        <time>2022-05-09T06:40:34.899Z</time>
      </trkpt>
      <trkpt lat="50.44984" lon="3.61726">
        <ele>16.1</ele>
        <time>2022-05-09T06:40:36.000Z</time>
      </trkpt>
      <trkpt lat="50.44984" lon="3.61747">
        <ele>16.9</ele>
        <time>2022-05-09T06:40:38.999Z</time>
      </trkpt>
      <trkpt lat="50.44984" lon="3.61754">
        <ele>17</ele>
        <time>2022-05-09T06:40:40.198Z</time>
      </trkpt>
      <trkpt lat="50.44984" lon="3.61774">
        <ele>17</ele>
        <time>2022-05-09T06:40:42.777Z</time>
      </trkpt>
      <trkpt lat="50.44984" lon="3.61786">
        <ele>17</ele>
        <time>2022-05-09T06:40:45.077Z</time>
      </trkpt>
      <trkpt lat="50.44985" lon="3.61793">
        <ele>17</ele>
        <time>2022-05-09T06:40:46.000Z</time>
      </trkpt>
      <trkpt lat="50.44985" lon="3.61804">
        <ele>17</ele>
        <time>2022-05-09T06:40:47.982Z</time>
      </trkpt>
      <trkpt lat="50.44986" lon="3.61813">
        <ele>17</ele>
        <time>2022-05-09T06:40:48.936Z</time>
      </trkpt>
      <trkpt lat="50.44985" lon="3.61833">
        <ele>17</ele>
        <time>2022-05-09T06:40:51.921Z</time>
      </trkpt>
      <trkpt lat="50.44986" lon="3.61843">
        <ele>17</ele>
        <time>2022-05-09T06:40:53.978Z</time>
      </trkpt>
      <trkpt lat="50.44986" lon="3.61854">
        <ele>17</ele>
        <time>2022-05-09T06:40:55.021Z</time>
      </trkpt>
      <trkpt lat="50.44986" lon="3.61865">
        <ele>17</ele>
        <time>2022-05-09T06:40:57.000Z</time>
      </trkpt>
      <trkpt lat="50.44988" lon="3.61875">
        <ele>17</ele>
        <time>2022-05-09T06:40:58.000Z</time>
      </trkpt>
      <trkpt lat="50.44986" lon="3.61891">
        <ele>17</ele>
        <time>2022-05-09T06:41:01.000Z</time>
      </trkpt>
      <trkpt lat="50.44987" lon="3.619">
        <ele>17</ele>
        <time>2022-05-09T06:41:01.898Z</time>
      </trkpt>
      <trkpt lat="50.44988" lon="3.61908">
        <ele>17</ele>
        <time>2022-05-09T06:41:02.862Z</time>
      </trkpt>
      <trkpt lat="50.44988" lon="3.6192">
        <ele>17</ele>
        <time>2022-05-09T06:41:05.076Z</time>
      </trkpt>
      <trkpt lat="50.44988" lon="3.61928">
        <ele>17</ele>
        <time>2022-05-09T06:41:06.000Z</time>
      </trkpt>
      <trkpt lat="50.44988" lon="3.6194">
        <ele>17</ele>
        <time>2022-05-09T06:41:08.000Z</time>
      </trkpt>
      <trkpt lat="50.44988" lon="3.61948">
        <ele>17.1</ele>
        <time>2022-05-09T06:41:09.418Z</time>
      </trkpt>
      <trkpt lat="50.44989" lon="3.61958">
        <ele>17.2</ele>
        <time>2022-05-09T06:41:10.818Z</time>
      </trkpt>
      <trkpt lat="50.4499" lon="3.61967">
        <ele>17.3</ele>
        <time>2022-05-09T06:41:12.037Z</time>
      </trkpt>
      <trkpt lat="50.44988" lon="3.61981">
        <ele>17.3</ele>
        <time>2022-05-09T06:41:14.059Z</time>
      </trkpt>
      <trkpt lat="50.44988" lon="3.61993">
        <ele>17.1</ele>
        <time>2022-05-09T06:41:16.000Z</time>
      </trkpt>
      <trkpt lat="50.44988" lon="3.62001">
        <ele>17</ele>
        <time>2022-05-09T06:41:17.000Z</time>
      </trkpt>
      <trkpt lat="50.44988" lon="3.62014">
        <ele>17</ele>
        <time>2022-05-09T06:41:19.600Z</time>
      </trkpt>
      <trkpt lat="50.44987" lon="3.62025">
        <ele>17</ele>
        <time>2022-05-09T06:41:20.819Z</time>
      </trkpt>
      <trkpt lat="50.44988" lon="3.62033">
        <ele>16.9</ele>
        <time>2022-05-09T06:41:22.018Z</time>
      </trkpt>
      <trkpt lat="50.44987" lon="3.62046">
        <ele>16.7</ele>
        <time>2022-05-09T06:41:24.000Z</time>
      </trkpt>
      <trkpt lat="50.44987" lon="3.62056">
        <ele>16.5</ele>
        <time>2022-05-09T06:41:26.000Z</time>
      </trkpt>
      <trkpt lat="50.44988" lon="3.62073">
        <ele>16.4</ele>
        <time>2022-05-09T06:41:29.038Z</time>
      </trkpt>
      <trkpt lat="50.44987" lon="3.62086">
        <ele>16.5</ele>
        <time>2022-05-09T06:41:31.000Z</time>
      </trkpt>
      <trkpt lat="50.44987" lon="3.62094">
        <ele>16.5</ele>
        <time>2022-05-09T06:41:31.939Z</time>
      </trkpt>
      <trkpt lat="50.44987" lon="3.62105">
        <ele>16.5</ele>
        <time>2022-05-09T06:41:34.017Z</time>
      </trkpt>
      <trkpt lat="50.44987" lon="3.62113">
        <ele>16.5</ele>
        <time>2022-05-09T06:41:35.000Z</time>
      </trkpt>
      <trkpt lat="50.44989" lon="3.62129">
        <ele>16.4</ele>
        <time>2022-05-09T06:41:38.000Z</time>
      </trkpt>
      <trkpt lat="50.4499" lon="3.62139">
        <ele>16.4</ele>
        <time>2022-05-09T06:41:39.000Z</time>
      </trkpt>
      <trkpt lat="50.44991" lon="3.62147">
        <ele>16.5</ele>
        <time>2022-05-09T06:41:39.959Z</time>
      </trkpt>
      <trkpt lat="50.44991" lon="3.62156">
        <ele>16.7</ele>
        <time>2022-05-09T06:41:42.000Z</time>
      </trkpt>
      <trkpt lat="50.44991" lon="3.62165">
        <ele>17</ele>
        <time>2022-05-09T06:41:44.000Z</time>
      </trkpt>
      <trkpt lat="50.4499" lon="3.62176">
        <ele>17</ele>
        <time>2022-05-09T06:41:45.722Z</time>
      </trkpt>
      <trkpt lat="50.4499" lon="3.62184">
        <ele>17</ele>
        <time>2022-05-09T06:41:47.000Z</time>
      </trkpt>
      <trkpt lat="50.4499" lon="3.62197">
        <ele>17</ele>
        <time>2022-05-09T06:41:49.000Z</time>
      </trkpt>
      <trkpt lat="50.4499" lon="3.62204">
        <ele>17</ele>
        <time>2022-05-09T06:41:50.000Z</time>
      </trkpt>
      <trkpt lat="50.4499" lon="3.62212">
        <ele>17</ele>
        <time>2022-05-09T06:41:51.039Z</time>
      </trkpt>
      <trkpt lat="50.44991" lon="3.62223">
        <ele>17</ele>
        <time>2022-05-09T06:41:52.916Z</time>
      </trkpt>
      <trkpt lat="50.44992" lon="3.62236">
        <ele>17</ele>
        <time>2022-05-09T06:41:56.000Z</time>
      </trkpt>
      <trkpt lat="50.44988" lon="3.62235">
        <ele>17</ele>
        <time>2022-05-09T06:41:58.159Z</time>
      </trkpt>
      <trkpt lat="50.44985" lon="3.62226">
        <ele>17</ele>
        <time>2022-05-09T06:42:00.000Z</time>
      </trkpt>
      <trkpt lat="50.44981" lon="3.62231">
        <ele>17</ele>
        <time>2022-05-09T06:42:03.459Z</time>
      </trkpt>
      <trkpt lat="50.44973" lon="3.62235">
        <ele>17</ele>
        <time>2022-05-09T06:42:06.000Z</time>
      </trkpt>
      <trkpt lat="50.4497" lon="3.62245">
        <ele>17</ele>
        <time>2022-05-09T06:42:08.000Z</time>
      </trkpt>
      <trkpt lat="50.44968" lon="3.62256">
        <ele>17</ele>
        <time>2022-05-09T06:42:09.979Z</time>
      </trkpt>
      <trkpt lat="50.44969" lon="3.62265">
        <ele>17</ele>
        <time>2022-05-09T06:42:12.000Z</time>
      </trkpt>
      <trkpt lat="50.44969" lon="3.62275">
        <ele>17</ele>
        <time>2022-05-09T06:42:13.100Z</time>
      </trkpt>
      <trkpt lat="50.44969" lon="3.62282">
        <ele>17</ele>
        <time>2022-05-09T06:42:14.541Z</time>
      </trkpt>
      <trkpt lat="50.4497" lon="3.62294">
        <ele>17</ele>
        <time>2022-05-09T06:42:16.099Z</time>
      </trkpt>
      <trkpt lat="50.44971" lon="3.6231">
        <ele>17</ele>
        <time>2022-05-09T06:42:18.008Z</time>
      </trkpt>
      <trkpt lat="50.4497" lon="3.62322">
        <ele>17</ele>
        <time>2022-05-09T06:42:20.000Z</time>
      </trkpt>
      <trkpt lat="50.44972" lon="3.62338">
        <ele>17</ele>
        <time>2022-05-09T06:42:22.000Z</time>
      </trkpt>
      <trkpt lat="50.44972" lon="3.62349">
        <ele>17</ele>
        <time>2022-05-09T06:42:23.000Z</time>
      </trkpt>
      <trkpt lat="50.44975" lon="3.62367">
        <ele>17</ele>
        <time>2022-05-09T06:42:26.083Z</time>
      </trkpt>
      <trkpt lat="50.44973" lon="3.62382">
        <ele>17</ele>
        <time>2022-05-09T06:42:28.000Z</time>
      </trkpt>
      <trkpt lat="50.44973" lon="3.62395">
        <ele>17</ele>
        <time>2022-05-09T06:42:30.000Z</time>
      </trkpt>
      <trkpt lat="50.44973" lon="3.62404">
        <ele>17</ele>
        <time>2022-05-09T06:42:31.000Z</time>
      </trkpt>
      <trkpt lat="50.44973" lon="3.62418">
        <ele>17</ele>
        <time>2022-05-09T06:42:33.000Z</time>
      </trkpt>
      <trkpt lat="50.44973" lon="3.62425">
        <ele>17</ele>
        <time>2022-05-09T06:42:34.000Z</time>
      </trkpt>
      <trkpt lat="50.44972" lon="3.62439">
        <ele>17</ele>
        <time>2022-05-09T06:42:36.000Z</time>
      </trkpt>
      <trkpt lat="50.44971" lon="3.62447">
        <ele>17</ele>
        <time>2022-05-09T06:42:37.000Z</time>
      </trkpt>
      <trkpt lat="50.44971" lon="3.62459">
        <ele>17</ele>
        <time>2022-05-09T06:42:39.000Z</time>
      </trkpt>
      <trkpt lat="50.44971" lon="3.62468">
        <ele>17</ele>
        <time>2022-05-09T06:42:40.000Z</time>
      </trkpt>
      <trkpt lat="50.44972" lon="3.62475">
        <ele>17</ele>
        <time>2022-05-09T06:42:41.000Z</time>
      </trkpt>
      <trkpt lat="50.44972" lon="3.62488">
        <ele>17</ele>
        <time>2022-05-09T06:42:43.000Z</time>
      </trkpt>
      <trkpt lat="50.44973" lon="3.62502">
        <ele>17</ele>
        <time>2022-05-09T06:42:45.000Z</time>
      </trkpt>
      <trkpt lat="50.44973" lon="3.62511">
        <ele>17</ele>
        <time>2022-05-09T06:42:46.000Z</time>
      </trkpt>
      <trkpt lat="50.44973" lon="3.62526">
        <ele>17</ele>
        <time>2022-05-09T06:42:48.000Z</time>
      </trkpt>
      <trkpt lat="50.44973" lon="3.62533">
        <ele>17</ele>
        <time>2022-05-09T06:42:49.000Z</time>
      </trkpt>
      <trkpt lat="50.44974" lon="3.62547">
        <ele>17</ele>
        <time>2022-05-09T06:42:51.000Z</time>
      </trkpt>
      <trkpt lat="50.44974" lon="3.62554">
        <ele>17</ele>
        <time>2022-05-09T06:42:52.000Z</time>
      </trkpt>
      <trkpt lat="50.44975" lon="3.62561">
        <ele>17.2</ele>
        <time>2022-05-09T06:42:53.000Z</time>
      </trkpt>
      <trkpt lat="50.44975" lon="3.62568">
        <ele>17.5</ele>
        <time>2022-05-09T06:42:54.000Z</time>
      </trkpt>
      <trkpt lat="50.44975" lon="3.62577">
        <ele>17.8</ele>
        <time>2022-05-09T06:42:55.000Z</time>
      </trkpt>
      <trkpt lat="50.44976" lon="3.6259">
        <ele>18</ele>
        <time>2022-05-09T06:42:57.000Z</time>
      </trkpt>
      <trkpt lat="50.44976" lon="3.62599">
        <ele>18</ele>
        <time>2022-05-09T06:42:58.000Z</time>
      </trkpt>
      <trkpt lat="50.44976" lon="3.62606">
        <ele>18</ele>
        <time>2022-05-09T06:42:59.000Z</time>
      </trkpt>
      <trkpt lat="50.44976" lon="3.62613">
        <ele>18</ele>
        <time>2022-05-09T06:43:00.000Z</time>
      </trkpt>
      <trkpt lat="50.44977" lon="3.62627">
        <ele>18</ele>
        <time>2022-05-09T06:43:02.000Z</time>
      </trkpt>
      <trkpt lat="50.44978" lon="3.62635">
        <ele>18</ele>
        <time>2022-05-09T06:43:03.000Z</time>
      </trkpt>
      <trkpt lat="50.44978" lon="3.62649">
        <ele>18</ele>
        <time>2022-05-09T06:43:05.000Z</time>
      </trkpt>
      <trkpt lat="50.44978" lon="3.62663">
        <ele>18</ele>
        <time>2022-05-09T06:43:07.000Z</time>
      </trkpt>
      <trkpt lat="50.44978" lon="3.62671">
        <ele>18</ele>
        <time>2022-05-09T06:43:08.000Z</time>
      </trkpt>
      <trkpt lat="50.4498" lon="3.62685">
        <ele>18</ele>
        <time>2022-05-09T06:43:10.000Z</time>
      </trkpt>
      <trkpt lat="50.44981" lon="3.62694">
        <ele>18</ele>
        <time>2022-05-09T06:43:12.000Z</time>
      </trkpt>
      <trkpt lat="50.44982" lon="3.62707">
        <ele>18</ele>
        <time>2022-05-09T06:43:14.000Z</time>
      </trkpt>
      <trkpt lat="50.44982" lon="3.6272">
        <ele>18</ele>
        <time>2022-05-09T06:43:16.000Z</time>
      </trkpt>
      <trkpt lat="50.44983" lon="3.6273">
        <ele>18</ele>
        <time>2022-05-09T06:43:18.000Z</time>
      </trkpt>
      <trkpt lat="50.44984" lon="3.6275">
        <ele>18</ele>
        <time>2022-05-09T06:43:20.443Z</time>
      </trkpt>
      <trkpt lat="50.44984" lon="3.62758">
        <ele>18</ele>
        <time>2022-05-09T06:43:22.066Z</time>
      </trkpt>
      <trkpt lat="50.44987" lon="3.62773">
        <ele>18</ele>
        <time>2022-05-09T06:43:23.866Z</time>
      </trkpt>
      <trkpt lat="50.44986" lon="3.62784">
        <ele>18</ele>
        <time>2022-05-09T06:43:25.844Z</time>
      </trkpt>
      <trkpt lat="50.44987" lon="3.62793">
        <ele>18</ele>
        <time>2022-05-09T06:43:27.000Z</time>
      </trkpt>
      <trkpt lat="50.44988" lon="3.62805">
        <ele>18</ele>
        <time>2022-05-09T06:43:28.908Z</time>
      </trkpt>
      <trkpt lat="50.44989" lon="3.62813">
        <ele>18</ele>
        <time>2022-05-09T06:43:30.000Z</time>
      </trkpt>
      <trkpt lat="50.44989" lon="3.62822">
        <ele>18</ele>
        <time>2022-05-09T06:43:31.645Z</time>
      </trkpt>
      <trkpt lat="50.44989" lon="3.62834">
        <ele>18</ele>
        <time>2022-05-09T06:43:32.861Z</time>
      </trkpt>
      <trkpt lat="50.44991" lon="3.62849">
        <ele>18</ele>
        <time>2022-05-09T06:43:35.402Z</time>
      </trkpt>
      <trkpt lat="50.44992" lon="3.62866">
        <ele>18</ele>
        <time>2022-05-09T06:43:37.586Z</time>
      </trkpt>
      <trkpt lat="50.44994" lon="3.62884">
        <ele>18</ele>
        <time>2022-05-09T06:43:40.304Z</time>
      </trkpt>
      <trkpt lat="50.44996" lon="3.62892">
        <ele>18</ele>
        <time>2022-05-09T06:43:41.723Z</time>
      </trkpt>
      <trkpt lat="50.44996" lon="3.629">
        <ele>18</ele>
        <time>2022-05-09T06:43:43.081Z</time>
      </trkpt>
      <trkpt lat="50.44997" lon="3.62916">
        <ele>18</ele>
        <time>2022-05-09T06:43:45.000Z</time>
      </trkpt>
      <trkpt lat="50.44998" lon="3.62928">
        <ele>17.6</ele>
        <time>2022-05-09T06:43:47.000Z</time>
      </trkpt>
      <trkpt lat="50.44998" lon="3.62938">
        <ele>17.3</ele>
        <time>2022-05-09T06:43:48.000Z</time>
      </trkpt>
      <trkpt lat="50.44996" lon="3.62955">
        <ele>17.1</ele>
        <time>2022-05-09T06:43:51.000Z</time>
      </trkpt>
      <trkpt lat="50.44999" lon="3.62969">
        <ele>17</ele>
        <time>2022-05-09T06:43:53.164Z</time>
      </trkpt>
      <trkpt lat="50.44999" lon="3.62981">
        <ele>17</ele>
        <time>2022-05-09T06:43:54.565Z</time>
      </trkpt>
      <trkpt lat="50.45001" lon="3.62999">
        <ele>17</ele>
        <time>2022-05-09T06:43:57.000Z</time>
      </trkpt>
      <trkpt lat="50.45002" lon="3.63007">
        <ele>17</ele>
        <time>2022-05-09T06:43:58.000Z</time>
      </trkpt>
      <trkpt lat="50.45002" lon="3.63026">
        <ele>17</ele>
        <time>2022-05-09T06:44:00.864Z</time>
      </trkpt>
      <trkpt lat="50.45005" lon="3.63044">
        <ele>17</ele>
        <time>2022-05-09T06:44:04.124Z</time>
      </trkpt>
      <trkpt lat="50.45005" lon="3.63057">
        <ele>17</ele>
        <time>2022-05-09T06:44:06.000Z</time>
      </trkpt>
      <trkpt lat="50.45006" lon="3.6307">
        <ele>17</ele>
        <time>2022-05-09T06:44:08.000Z</time>
      </trkpt>
      <trkpt lat="50.45005" lon="3.63082">
        <ele>17</ele>
        <time>2022-05-09T06:44:10.023Z</time>
      </trkpt>
      <trkpt lat="50.45006" lon="3.63094">
        <ele>17</ele>
        <time>2022-05-09T06:44:11.925Z</time>
      </trkpt>
      <trkpt lat="50.45006" lon="3.63101">
        <ele>17</ele>
        <time>2022-05-09T06:44:13.126Z</time>
      </trkpt>
      <trkpt lat="50.45007" lon="3.63112">
        <ele>17</ele>
        <time>2022-05-09T06:44:14.548Z</time>
      </trkpt>
      <trkpt lat="50.45008" lon="3.63126">
        <ele>17</ele>
        <time>2022-05-09T06:44:16.706Z</time>
      </trkpt>
      <trkpt lat="50.45008" lon="3.63133">
        <ele>17</ele>
        <time>2022-05-09T06:44:17.786Z</time>
      </trkpt>
      <trkpt lat="50.45008" lon="3.63146">
        <ele>17</ele>
        <time>2022-05-09T06:44:20.000Z</time>
      </trkpt>
      <trkpt lat="50.45008" lon="3.63163">
        <ele>17</ele>
        <time>2022-05-09T06:44:22.000Z</time>
      </trkpt>
      <trkpt lat="50.45008" lon="3.63175">
        <ele>16.8</ele>
        <time>2022-05-09T06:44:24.123Z</time>
      </trkpt>
      <trkpt lat="50.45009" lon="3.63187">
        <ele>16.5</ele>
        <time>2022-05-09T06:44:26.000Z</time>
      </trkpt>
      <trkpt lat="50.45011" lon="3.63195">
        <ele>16.4</ele>
        <time>2022-05-09T06:44:27.117Z</time>
      </trkpt>
      <trkpt lat="50.45012" lon="3.63206">
        <ele>16.4</ele>
        <time>2022-05-09T06:44:29.129Z</time>
      </trkpt>
      <trkpt lat="50.4501" lon="3.63215">
        <ele>16.3</ele>
        <time>2022-05-09T06:44:31.386Z</time>
      </trkpt>
      <trkpt lat="50.4501" lon="3.63228">
        <ele>16.3</ele>
        <time>2022-05-09T06:44:33.807Z</time>
      </trkpt>
      <trkpt lat="50.4501" lon="3.63235">
        <ele>16.2</ele>
        <time>2022-05-09T06:44:35.000Z</time>
      </trkpt>
      <trkpt lat="50.45011" lon="3.63247">
        <ele>16</ele>
        <time>2022-05-09T06:44:37.000Z</time>
      </trkpt>
      <trkpt lat="50.45012" lon="3.63254">
        <ele>16</ele>
        <time>2022-05-09T06:44:38.221Z</time>
      </trkpt>
      <trkpt lat="50.45012" lon="3.63267">
        <ele>16</ele>
        <time>2022-05-09T06:44:40.386Z</time>
      </trkpt>
      <trkpt lat="50.45013" lon="3.6328">
        <ele>16</ele>
        <time>2022-05-09T06:44:42.506Z</time>
      </trkpt>
      <trkpt lat="50.45013" lon="3.63294">
        <ele>16</ele>
        <time>2022-05-09T06:44:45.000Z</time>
      </trkpt>
      <trkpt lat="50.45014" lon="3.6331">
        <ele>16</ele>
        <time>2022-05-09T06:44:47.767Z</time>
      </trkpt>
      <trkpt lat="50.45014" lon="3.63319">
        <ele>16</ele>
        <time>2022-05-09T06:44:48.984Z</time>
      </trkpt>
      <trkpt lat="50.45015" lon="3.63333">
        <ele>16</ele>
        <time>2022-05-09T06:44:51.000Z</time>
      </trkpt>
      <trkpt lat="50.45015" lon="3.63344">
        <ele>15.6</ele>
        <time>2022-05-09T06:44:53.000Z</time>
      </trkpt>
      <trkpt lat="50.45016" lon="3.63354">
        <ele>15.2</ele>
        <time>2022-05-09T06:44:54.102Z</time>
      </trkpt>
      <trkpt lat="50.45016" lon="3.63362">
        <ele>15</ele>
        <time>2022-05-09T06:44:56.000Z</time>
      </trkpt>
      <trkpt lat="50.45017" lon="3.63371">
        <ele>15.3</ele>
        <time>2022-05-09T06:44:57.103Z</time>
      </trkpt>
      <trkpt lat="50.45016" lon="3.63381">
        <ele>15.7</ele>
        <time>2022-05-09T06:44:59.000Z</time>
      </trkpt>
      <trkpt lat="50.45018" lon="3.63394">
        <ele>16</ele>
        <time>2022-05-09T06:45:01.000Z</time>
      </trkpt>
      <trkpt lat="50.45018" lon="3.63404">
        <ele>16</ele>
        <time>2022-05-09T06:45:02.023Z</time>
      </trkpt>
      <trkpt lat="50.45018" lon="3.63414">
        <ele>16</ele>
        <time>2022-05-09T06:45:04.110Z</time>
      </trkpt>
      <trkpt lat="50.45018" lon="3.63426">
        <ele>15.9</ele>
        <time>2022-05-09T06:45:05.667Z</time>
      </trkpt>
      <trkpt lat="50.45019" lon="3.63441">
        <ele>15.7</ele>
        <time>2022-05-09T06:45:07.822Z</time>
      </trkpt>
      <trkpt lat="50.45019" lon="3.63449">
        <ele>15.7</ele>
        <time>2022-05-09T06:45:08.949Z</time>
      </trkpt>
      <trkpt lat="50.45019" lon="3.6346">
        <ele>15.7</ele>
        <time>2022-05-09T06:45:11.000Z</time>
      </trkpt>
      <trkpt lat="50.4502" lon="3.63469">
        <ele>15.7</ele>
        <time>2022-05-09T06:45:13.000Z</time>
      </trkpt>
      <trkpt lat="50.45022" lon="3.6348">
        <ele>15.8</ele>
        <time>2022-05-09T06:45:15.066Z</time>
      </trkpt>
      <trkpt lat="50.45024" lon="3.63489">
        <ele>15.9</ele>
        <time>2022-05-09T06:45:16.445Z</time>
      </trkpt>
      <trkpt lat="50.45023" lon="3.635">
        <ele>16</ele>
        <time>2022-05-09T06:45:19.000Z</time>
      </trkpt>
      <trkpt lat="50.45024" lon="3.6351">
        <ele>16.3</ele>
        <time>2022-05-09T06:45:21.000Z</time>
      </trkpt>
      <trkpt lat="50.45025" lon="3.63517">
        <ele>16.6</ele>
        <time>2022-05-09T06:45:22.000Z</time>
      </trkpt>
      <trkpt lat="50.45024" lon="3.63528">
        <ele>16.9</ele>
        <time>2022-05-09T06:45:24.000Z</time>
      </trkpt>
      <trkpt lat="50.45025" lon="3.63539">
        <ele>16.9</ele>
        <time>2022-05-09T06:45:26.000Z</time>
      </trkpt>
      <trkpt lat="50.45026" lon="3.63547">
        <ele>17</ele>
        <time>2022-05-09T06:45:29.000Z</time>
      </trkpt>
      <trkpt lat="50.45027" lon="3.63557">
        <ele>17</ele>
        <time>2022-05-09T06:45:50.000Z</time>
      </trkpt>
      <trkpt lat="50.45028" lon="3.63565">
        <ele>17</ele>
        <time>2022-05-09T06:45:50.989Z</time>
      </trkpt>
      <trkpt lat="50.45027" lon="3.63577">
        <ele>17</ele>
        <time>2022-05-09T06:45:52.000Z</time>
      </trkpt>
      <trkpt lat="50.45027" lon="3.63585">
        <ele>17.1</ele>
        <time>2022-05-09T06:45:53.000Z</time>
      </trkpt>
      <trkpt lat="50.45027" lon="3.63593">
        <ele>17.4</ele>
        <time>2022-05-09T06:45:54.000Z</time>
      </trkpt>
      <trkpt lat="50.45028" lon="3.63602">
        <ele>17.7</ele>
        <time>2022-05-09T06:45:55.123Z</time>
      </trkpt>
      <trkpt lat="50.45028" lon="3.63609">
        <ele>17.9</ele>
        <time>2022-05-09T06:45:56.026Z</time>
      </trkpt>
      <trkpt lat="50.45028" lon="3.63617">
        <ele>18</ele>
        <time>2022-05-09T06:45:57.000Z</time>
      </trkpt>
      <trkpt lat="50.45028" lon="3.63624">
        <ele>18</ele>
        <time>2022-05-09T06:45:58.000Z</time>
      </trkpt>
      <trkpt lat="50.45028" lon="3.63632">
        <ele>18</ele>
        <time>2022-05-09T06:45:59.007Z</time>
      </trkpt>
      <trkpt lat="50.45028" lon="3.6364">
        <ele>18.1</ele>
        <time>2022-05-09T06:46:00.044Z</time>
      </trkpt>
      <trkpt lat="50.45029" lon="3.63647">
        <ele>18.6</ele>
        <time>2022-05-09T06:46:01.000Z</time>
      </trkpt>
      <trkpt lat="50.4503" lon="3.63654">
        <ele>19</ele>
        <time>2022-05-09T06:46:02.167Z</time>
      </trkpt>
      <trkpt lat="50.4503" lon="3.63662">
        <ele>19.5</ele>
        <time>2022-05-09T06:46:03.285Z</time>
      </trkpt>
      <trkpt lat="50.4503" lon="3.63673">
        <ele>19.9</ele>
        <time>2022-05-09T06:46:05.000Z</time>
      </trkpt>
      <trkpt lat="50.4503" lon="3.63683">
        <ele>19.9</ele>
        <time>2022-05-09T06:46:06.424Z</time>
      </trkpt>
      <trkpt lat="50.45031" lon="3.63692">
        <ele>19.9</ele>
        <time>2022-05-09T06:46:07.744Z</time>
      </trkpt>
      <trkpt lat="50.4503" lon="3.63702">
        <ele>20.2</ele>
        <time>2022-05-09T06:46:09.125Z</time>
      </trkpt>
      <trkpt lat="50.4503" lon="3.63709">
        <ele>20.4</ele>
        <time>2022-05-09T06:46:10.224Z</time>
      </trkpt>
      <trkpt lat="50.45031" lon="3.63727">
        <ele>20.6</ele>
        <time>2022-05-09T06:46:13.146Z</time>
      </trkpt>
      <trkpt lat="50.45031" lon="3.63735">
        <ele>20.3</ele>
        <time>2022-05-09T06:46:14.426Z</time>
      </trkpt>
      <trkpt lat="50.45031" lon="3.63747">
        <ele>20</ele>
        <time>2022-05-09T06:46:16.000Z</time>
      </trkpt>
      <trkpt lat="50.45031" lon="3.63759">
        <ele>19.9</ele>
        <time>2022-05-09T06:46:18.000Z</time>
      </trkpt>
      <trkpt lat="50.45031" lon="3.63767">
        <ele>19.9</ele>
        <time>2022-05-09T06:46:19.000Z</time>
      </trkpt>
      <trkpt lat="50.45031" lon="3.63781">
        <ele>19.9</ele>
        <time>2022-05-09T06:46:20.787Z</time>
      </trkpt>
      <trkpt lat="50.45031" lon="3.6379">
        <ele>19.9</ele>
        <time>2022-05-09T06:46:22.165Z</time>
      </trkpt>
      <trkpt lat="50.45032" lon="3.63804">
        <ele>19.8</ele>
        <time>2022-05-09T06:46:24.665Z</time>
      </trkpt>
      <trkpt lat="50.45032" lon="3.63815">
        <ele>20.1</ele>
        <time>2022-05-09T06:46:26.966Z</time>
      </trkpt>
      <trkpt lat="50.45033" lon="3.6383">
        <ele>20.5</ele>
        <time>2022-05-09T06:46:29.447Z</time>
      </trkpt>
      <trkpt lat="50.45034" lon="3.63838">
        <ele>20.6</ele>
        <time>2022-05-09T06:46:30.675Z</time>
      </trkpt>
      <trkpt lat="50.45034" lon="3.63853">
        <ele>20.5</ele>
        <time>2022-05-09T06:46:33.022Z</time>
      </trkpt>
      <trkpt lat="50.45034" lon="3.63861">
        <ele>20.5</ele>
        <time>2022-05-09T06:46:34.000Z</time>
      </trkpt>
      <trkpt lat="50.45034" lon="3.63874">
        <ele>20.7</ele>
        <time>2022-05-09T06:46:36.000Z</time>
      </trkpt>
      <trkpt lat="50.45034" lon="3.63881">
        <ele>20.7</ele>
        <time>2022-05-09T06:46:37.000Z</time>
      </trkpt>
      <trkpt lat="50.45033" lon="3.63894">
        <ele>20.7</ele>
        <time>2022-05-09T06:46:38.948Z</time>
      </trkpt>
      <trkpt lat="50.45033" lon="3.63908">
        <ele>20.3</ele>
        <time>2022-05-09T06:46:41.000Z</time>
      </trkpt>
      <trkpt lat="50.45033" lon="3.63919">
        <ele>20.1</ele>
        <time>2022-05-09T06:46:42.000Z</time>
      </trkpt>
      <trkpt lat="50.45033" lon="3.63934">
        <ele>20.5</ele>
        <time>2022-05-09T06:46:44.000Z</time>
      </trkpt>
      <trkpt lat="50.45034" lon="3.63946">
        <ele>20.8</ele>
        <time>2022-05-09T06:46:46.087Z</time>
      </trkpt>
      <trkpt lat="50.45034" lon="3.63954">
        <ele>20.8</ele>
        <time>2022-05-09T06:46:47.000Z</time>
      </trkpt>
      <trkpt lat="50.45034" lon="3.6397">
        <ele>20.8</ele>
        <time>2022-05-09T06:46:50.000Z</time>
      </trkpt>
      <trkpt lat="50.45036" lon="3.63989">
        <ele>20.3</ele>
        <time>2022-05-09T06:46:52.862Z</time>
      </trkpt>
      <trkpt lat="50.45036" lon="3.63998">
        <ele>20</ele>
        <time>2022-05-09T06:46:53.986Z</time>
      </trkpt>
      <trkpt lat="50.45037" lon="3.64007">
        <ele>20</ele>
        <time>2022-05-09T06:46:56.000Z</time>
      </trkpt>
      <trkpt lat="50.45037" lon="3.64026">
        <ele>20</ele>
        <time>2022-05-09T06:46:58.543Z</time>
      </trkpt>
      <trkpt lat="50.45037" lon="3.64037">
        <ele>20.2</ele>
        <time>2022-05-09T06:47:00.924Z</time>
      </trkpt>
      <trkpt lat="50.45037" lon="3.6405">
        <ele>20.5</ele>
        <time>2022-05-09T06:47:03.000Z</time>
      </trkpt>
      <trkpt lat="50.45038" lon="3.6406">
        <ele>20.7</ele>
        <time>2022-05-09T06:47:04.000Z</time>
      </trkpt>
      <trkpt lat="50.45038" lon="3.64068">
        <ele>20.8</ele>
        <time>2022-05-09T06:47:05.465Z</time>
      </trkpt>
      <trkpt lat="50.45038" lon="3.64081">
        <ele>21</ele>
        <time>2022-05-09T06:47:08.000Z</time>
      </trkpt>
      <trkpt lat="50.45039" lon="3.64089">
        <ele>20.9</ele>
        <time>2022-05-09T06:47:09.165Z</time>
      </trkpt>
      <trkpt lat="50.45038" lon="3.64101">
        <ele>20.8</ele>
        <time>2022-05-09T06:47:11.005Z</time>
      </trkpt>
      <trkpt lat="50.45039" lon="3.64117">
        <ele>20.6</ele>
        <time>2022-05-09T06:47:13.305Z</time>
      </trkpt>
      <trkpt lat="50.45039" lon="3.64128">
        <ele>20.6</ele>
        <time>2022-05-09T06:47:14.783Z</time>
      </trkpt>
      <trkpt lat="50.45039" lon="3.6414">
        <ele>20.6</ele>
        <time>2022-05-09T06:47:16.548Z</time>
      </trkpt>
      <trkpt lat="50.45039" lon="3.64152">
        <ele>20.6</ele>
        <time>2022-05-09T06:47:18.846Z</time>
      </trkpt>
      <trkpt lat="50.45039" lon="3.64164">
        <ele>20.6</ele>
        <time>2022-05-09T06:47:20.144Z</time>
      </trkpt>
      <trkpt lat="50.4504" lon="3.64178">
        <ele>20.6</ele>
        <time>2022-05-09T06:47:22.000Z</time>
      </trkpt>
      <trkpt lat="50.45041" lon="3.6419">
        <ele>20.5</ele>
        <time>2022-05-09T06:47:23.898Z</time>
      </trkpt>
      <trkpt lat="50.45041" lon="3.64199">
        <ele>20.5</ele>
        <time>2022-05-09T06:47:26.000Z</time>
      </trkpt>
      <trkpt lat="50.45041" lon="3.64212">
        <ele>20.5</ele>
        <time>2022-05-09T06:47:28.000Z</time>
      </trkpt>
      <trkpt lat="50.45041" lon="3.64222">
        <ele>20.5</ele>
        <time>2022-05-09T06:47:29.000Z</time>
      </trkpt>
      <trkpt lat="50.45041" lon="3.64233">
        <ele>20.3</ele>
        <time>2022-05-09T06:47:31.000Z</time>
      </trkpt>
      <trkpt lat="50.45041" lon="3.64242">
        <ele>20.2</ele>
        <time>2022-05-09T06:47:32.000Z</time>
      </trkpt>
      <trkpt lat="50.45042" lon="3.6425">
        <ele>20</ele>
        <time>2022-05-09T06:47:33.000Z</time>
      </trkpt>
      <trkpt lat="50.45042" lon="3.64263">
        <ele>20</ele>
        <time>2022-05-09T06:47:35.000Z</time>
      </trkpt>
      <trkpt lat="50.45043" lon="3.64272">
        <ele>19.9</ele>
        <time>2022-05-09T06:47:36.000Z</time>
      </trkpt>
      <trkpt lat="50.45043" lon="3.64284">
        <ele>19.9</ele>
        <time>2022-05-09T06:47:37.925Z</time>
      </trkpt>
      <trkpt lat="50.45043" lon="3.64292">
        <ele>19.9</ele>
        <time>2022-05-09T06:47:39.000Z</time>
      </trkpt>
      <trkpt lat="50.45043" lon="3.64301">
        <ele>19.9</ele>
        <time>2022-05-09T06:47:40.000Z</time>
      </trkpt>
      <trkpt lat="50.45043" lon="3.64313">
        <ele>19.9</ele>
        <time>2022-05-09T06:47:42.000Z</time>
      </trkpt>
      <trkpt lat="50.45043" lon="3.64326">
        <ele>19.9</ele>
        <time>2022-05-09T06:47:44.000Z</time>
      </trkpt>
      <trkpt lat="50.45044" lon="3.64338">
        <ele>19.9</ele>
        <time>2022-05-09T06:47:46.000Z</time>
      </trkpt>
      <trkpt lat="50.45044" lon="3.64355">
        <ele>19.8</ele>
        <time>2022-05-09T06:47:48.000Z</time>
      </trkpt>
      <trkpt lat="50.45044" lon="3.64365">
        <ele>19.9</ele>
        <time>2022-05-09T06:47:50.000Z</time>
      </trkpt>
      <trkpt lat="50.45044" lon="3.64374">
        <ele>19.9</ele>
        <time>2022-05-09T06:47:51.000Z</time>
      </trkpt>
      <trkpt lat="50.45044" lon="3.64386">
        <ele>20</ele>
        <time>2022-05-09T06:47:53.000Z</time>
      </trkpt>
      <trkpt lat="50.45045" lon="3.64398">
        <ele>19.9</ele>
        <time>2022-05-09T06:47:55.000Z</time>
      </trkpt>
      <trkpt lat="50.45045" lon="3.64409">
        <ele>19.7</ele>
        <time>2022-05-09T06:47:56.005Z</time>
      </trkpt>
      <trkpt lat="50.45045" lon="3.64421">
        <ele>19.6</ele>
        <time>2022-05-09T06:47:58.000Z</time>
      </trkpt>
      <trkpt lat="50.45045" lon="3.64443">
        <ele>19.6</ele>
        <time>2022-05-09T06:48:01.001Z</time>
      </trkpt>
      <trkpt lat="50.45046" lon="3.64451">
        <ele>19.7</ele>
        <time>2022-05-09T06:48:02.000Z</time>
      </trkpt>
      <trkpt lat="50.45046" lon="3.64464">
        <ele>19.9</ele>
        <time>2022-05-09T06:48:04.000Z</time>
      </trkpt>
      <trkpt lat="50.45046" lon="3.64475">
        <ele>20</ele>
        <time>2022-05-09T06:48:06.000Z</time>
      </trkpt>
      <trkpt lat="50.45047" lon="3.64487">
        <ele>20</ele>
        <time>2022-05-09T06:48:08.000Z</time>
      </trkpt>
      <trkpt lat="50.45047" lon="3.64499">
        <ele>20</ele>
        <time>2022-05-09T06:48:10.000Z</time>
      </trkpt>
      <trkpt lat="50.45047" lon="3.64512">
        <ele>20.1</ele>
        <time>2022-05-09T06:48:12.000Z</time>
      </trkpt>
      <trkpt lat="50.45047" lon="3.64519">
        <ele>20.2</ele>
        <time>2022-05-09T06:48:13.000Z</time>
      </trkpt>
      <trkpt lat="50.45047" lon="3.64534">
        <ele>20.2</ele>
        <time>2022-05-09T06:48:15.000Z</time>
      </trkpt>
      <trkpt lat="50.45047" lon="3.64548">
        <ele>20.1</ele>
        <time>2022-05-09T06:48:17.002Z</time>
      </trkpt>
      <trkpt lat="50.45047" lon="3.64563">
        <ele>20</ele>
        <time>2022-05-09T06:48:19.409Z</time>
      </trkpt>
      <trkpt lat="50.45048" lon="3.64571">
        <ele>20</ele>
        <time>2022-05-09T06:48:20.589Z</time>
      </trkpt>
      <trkpt lat="50.45048" lon="3.6458">
        <ele>20</ele>
        <time>2022-05-09T06:48:22.000Z</time>
      </trkpt>
      <trkpt lat="50.45048" lon="3.64593">
        <ele>20</ele>
        <time>2022-05-09T06:48:23.965Z</time>
      </trkpt>
      <trkpt lat="50.45048" lon="3.64608">
        <ele>20</ele>
        <time>2022-05-09T06:48:26.000Z</time>
      </trkpt>
      <trkpt lat="50.45048" lon="3.64615">
        <ele>20</ele>
        <time>2022-05-09T06:48:27.000Z</time>
      </trkpt>
      <trkpt lat="50.45048" lon="3.64625">
        <ele>20</ele>
        <time>2022-05-09T06:48:28.624Z</time>
      </trkpt>
      <trkpt lat="50.45048" lon="3.64634">
        <ele>20</ele>
        <time>2022-05-09T06:48:29.926Z</time>
      </trkpt>
      <trkpt lat="50.45049" lon="3.6465">
        <ele>20</ele>
        <time>2022-05-09T06:48:32.352Z</time>
      </trkpt>
      <trkpt lat="50.45049" lon="3.64657">
        <ele>20</ele>
        <time>2022-05-09T06:48:33.462Z</time>
      </trkpt>
      <trkpt lat="50.45049" lon="3.64664">
        <ele>20</ele>
        <time>2022-05-09T06:48:34.515Z</time>
      </trkpt>
      <trkpt lat="50.45049" lon="3.64678">
        <ele>20</ele>
        <time>2022-05-09T06:48:36.734Z</time>
      </trkpt>
      <trkpt lat="50.45049" lon="3.6469">
        <ele>20</ele>
        <time>2022-05-09T06:48:38.910Z</time>
      </trkpt>
      <trkpt lat="50.45049" lon="3.64703">
        <ele>20.2</ele>
        <time>2022-05-09T06:48:41.000Z</time>
      </trkpt>
      <trkpt lat="50.45049" lon="3.64716">
        <ele>20.6</ele>
        <time>2022-05-09T06:48:43.000Z</time>
      </trkpt>
      <trkpt lat="50.4505" lon="3.6473">
        <ele>20.6</ele>
        <time>2022-05-09T06:48:45.000Z</time>
      </trkpt>
      <trkpt lat="50.4505" lon="3.64741">
        <ele>20.3</ele>
        <time>2022-05-09T06:48:47.000Z</time>
      </trkpt>
      <trkpt lat="50.4505" lon="3.64756">
        <ele>20</ele>
        <time>2022-05-09T06:48:49.000Z</time>
      </trkpt>
      <trkpt lat="50.4505" lon="3.64766">
        <ele>20</ele>
        <time>2022-05-09T06:48:51.000Z</time>
      </trkpt>
      <trkpt lat="50.45051" lon="3.64775">
        <ele>20</ele>
        <time>2022-05-09T06:48:52.000Z</time>
      </trkpt>
      <trkpt lat="50.4505" lon="3.64783">
        <ele>20</ele>
        <time>2022-05-09T06:48:53.070Z</time>
      </trkpt>
      <trkpt lat="50.4505" lon="3.64794">
        <ele>19.9</ele>
        <time>2022-05-09T06:48:55.000Z</time>
      </trkpt>
      <trkpt lat="50.4505" lon="3.64805">
        <ele>19.8</ele>
        <time>2022-05-09T06:48:57.041Z</time>
      </trkpt>
      <trkpt lat="50.4505" lon="3.64818">
        <ele>19.8</ele>
        <time>2022-05-09T06:48:59.000Z</time>
      </trkpt>
      <trkpt lat="50.45049" lon="3.64829">
        <ele>19.8</ele>
        <time>2022-05-09T06:49:01.000Z</time>
      </trkpt>
      <trkpt lat="50.45049" lon="3.64838">
        <ele>19.9</ele>
        <time>2022-05-09T06:49:02.000Z</time>
      </trkpt>
      <trkpt lat="50.4505" lon="3.64845">
        <ele>20.1</ele>
        <time>2022-05-09T06:49:03.000Z</time>
      </trkpt>
      <trkpt lat="50.4505" lon="3.64856">
        <ele>20.4</ele>
        <time>2022-05-09T06:49:05.000Z</time>
      </trkpt>
      <trkpt lat="50.45049" lon="3.64869">
        <ele>20.6</ele>
        <time>2022-05-09T06:49:07.385Z</time>
      </trkpt>
      <trkpt lat="50.4505" lon="3.64878">
        <ele>20.6</ele>
        <time>2022-05-09T06:49:08.864Z</time>
      </trkpt>
      <trkpt lat="50.4505" lon="3.64886">
        <ele>20.6</ele>
        <time>2022-05-09T06:49:10.000Z</time>
      </trkpt>
      <trkpt lat="50.4505" lon="3.64897">
        <ele>20.4</ele>
        <time>2022-05-09T06:49:12.000Z</time>
      </trkpt>
      <trkpt lat="50.4505" lon="3.64905">
        <ele>20.1</ele>
        <time>2022-05-09T06:49:13.152Z</time>
      </trkpt>
      <trkpt lat="50.4505" lon="3.64918">
        <ele>19.7</ele>
        <time>2022-05-09T06:49:15.000Z</time>
      </trkpt>
      <trkpt lat="50.4505" lon="3.64935">
        <ele>19.3</ele>
        <time>2022-05-09T06:49:16.925Z</time>
      </trkpt>
      <trkpt lat="50.4505" lon="3.64945">
        <ele>19</ele>
        <time>2022-05-09T06:49:19.000Z</time>
      </trkpt>
      <trkpt lat="50.4505" lon="3.64958">
        <ele>19</ele>
        <time>2022-05-09T06:49:21.000Z</time>
      </trkpt>
      <trkpt lat="50.45051" lon="3.64972">
        <ele>19</ele>
        <time>2022-05-09T06:49:23.146Z</time>
      </trkpt>
      <trkpt lat="50.45051" lon="3.64987">
        <ele>19</ele>
        <time>2022-05-09T06:49:25.000Z</time>
      </trkpt>
      <trkpt lat="50.4505" lon="3.64998">
        <ele>19</ele>
        <time>2022-05-09T06:49:27.025Z</time>
      </trkpt>
      <trkpt lat="50.4505" lon="3.65011">
        <ele>18.9</ele>
        <time>2022-05-09T06:49:28.744Z</time>
      </trkpt>
      <trkpt lat="50.4505" lon="3.65019">
        <ele>18.9</ele>
        <time>2022-05-09T06:49:30.000Z</time>
      </trkpt>
      <trkpt lat="50.4505" lon="3.65036">
        <ele>18.8</ele>
        <time>2022-05-09T06:49:32.000Z</time>
      </trkpt>
      <trkpt lat="50.45051" lon="3.65046">
        <ele>18.8</ele>
        <time>2022-05-09T06:49:34.000Z</time>
      </trkpt>
      <trkpt lat="50.45051" lon="3.65054">
        <ele>18.8</ele>
        <time>2022-05-09T06:49:35.000Z</time>
      </trkpt>
      <trkpt lat="50.4505" lon="3.65066">
        <ele>18.8</ele>
        <time>2022-05-09T06:49:37.073Z</time>
      </trkpt>
      <trkpt lat="50.4505" lon="3.65078">
        <ele>18.8</ele>
        <time>2022-05-09T06:49:39.000Z</time>
      </trkpt>
      <trkpt lat="50.4505" lon="3.65093">
        <ele>18.8</ele>
        <time>2022-05-09T06:49:41.000Z</time>
      </trkpt>
      <trkpt lat="50.45051" lon="3.65102">
        <ele>18.8</ele>
        <time>2022-05-09T06:49:42.325Z</time>
      </trkpt>
      <trkpt lat="50.45051" lon="3.65112">
        <ele>18.8</ele>
        <time>2022-05-09T06:49:43.968Z</time>
      </trkpt>
      <trkpt lat="50.45051" lon="3.65123">
        <ele>18.8</ele>
        <time>2022-05-09T06:49:46.000Z</time>
      </trkpt>
      <trkpt lat="50.45051" lon="3.65137">
        <ele>18.8</ele>
        <time>2022-05-09T06:49:48.000Z</time>
      </trkpt>
      <trkpt lat="50.45051" lon="3.65148">
        <ele>18.8</ele>
        <time>2022-05-09T06:49:49.000Z</time>
      </trkpt>
      <trkpt lat="50.45051" lon="3.65161">
        <ele>18.9</ele>
        <time>2022-05-09T06:49:51.587Z</time>
      </trkpt>
      <trkpt lat="50.45051" lon="3.6517">
        <ele>18.9</ele>
        <time>2022-05-09T06:49:53.026Z</time>
      </trkpt>
      <trkpt lat="50.45052" lon="3.65183">
        <ele>19.3</ele>
        <time>2022-05-09T06:49:55.000Z</time>
      </trkpt>
      <trkpt lat="50.45052" lon="3.65195">
        <ele>19.6</ele>
        <time>2022-05-09T06:49:57.000Z</time>
      </trkpt>
      <trkpt lat="50.45052" lon="3.65207">
        <ele>19.6</ele>
        <time>2022-05-09T06:49:58.966Z</time>
      </trkpt>
      <trkpt lat="50.45052" lon="3.65219">
        <ele>19.6</ele>
        <time>2022-05-09T06:50:00.924Z</time>
      </trkpt>
      <trkpt lat="50.45051" lon="3.65232">
        <ele>19.8</ele>
        <time>2022-05-09T06:50:03.108Z</time>
      </trkpt>
      <trkpt lat="50.4505" lon="3.65245">
        <ele>20.1</ele>
        <time>2022-05-09T06:50:05.125Z</time>
      </trkpt>
      <trkpt lat="50.45052" lon="3.65257">
        <ele>20.7</ele>
        <time>2022-05-09T06:50:07.128Z</time>
      </trkpt>
      <trkpt lat="50.45052" lon="3.65266">
        <ele>21</ele>
        <time>2022-05-09T06:50:09.222Z</time>
      </trkpt>
      <trkpt lat="50.45051" lon="3.65273">
        <ele>21.2</ele>
        <time>2022-05-09T06:50:11.085Z</time>
      </trkpt>
      <trkpt lat="50.45052" lon="3.65283">
        <ele>21.3</ele>
        <time>2022-05-09T06:50:13.905Z</time>
      </trkpt>
      <trkpt lat="50.45052" lon="3.65291">
        <ele>21</ele>
        <time>2022-05-09T06:50:16.000Z</time>
      </trkpt>
      <trkpt lat="50.45052" lon="3.65302">
        <ele>20.6</ele>
        <time>2022-05-09T06:50:20.000Z</time>
      </trkpt>
      <trkpt lat="50.4505" lon="3.65309">
        <ele>20</ele>
        <time>2022-05-09T06:50:24.000Z</time>
      </trkpt>
      <trkpt lat="50.45046" lon="3.65309">
        <ele>19.5</ele>
        <time>2022-05-09T06:50:30.746Z</time>
      </trkpt>
      <trkpt lat="50.4504" lon="3.65308">
        <ele>18.8</ele>
        <time>2022-05-09T06:50:32.924Z</time>
      </trkpt>
      <trkpt lat="50.45034" lon="3.65308">
        <ele>17.9</ele>
        <time>2022-05-09T06:50:35.000Z</time>
      </trkpt>
      <trkpt lat="50.45029" lon="3.65309">
        <ele>17.2</ele>
        <time>2022-05-09T06:50:36.025Z</time>
      </trkpt>
      <trkpt lat="50.45022" lon="3.6531">
        <ele>16.8</ele>
        <time>2022-05-09T06:50:38.000Z</time>
      </trkpt>
      <trkpt lat="50.45015" lon="3.65309">
        <ele>16.6</ele>
        <time>2022-05-09T06:50:40.000Z</time>
      </trkpt>
      <trkpt lat="50.45009" lon="3.6531">
        <ele>16.3</ele>
        <time>2022-05-09T06:50:42.000Z</time>
      </trkpt>
      <trkpt lat="50.45002" lon="3.6531">
        <ele>16.1</ele>
        <time>2022-05-09T06:50:44.000Z</time>
      </trkpt>
      <trkpt lat="50.44997" lon="3.65311">
        <ele>16.6</ele>
        <time>2022-05-09T06:50:46.000Z</time>
      </trkpt>
      <trkpt lat="50.44991" lon="3.65312">
        <ele>17.6</ele>
        <time>2022-05-09T06:50:48.000Z</time>
      </trkpt>
      <trkpt lat="50.44984" lon="3.65312">
        <ele>18.7</ele>
        <time>2022-05-09T06:50:50.000Z</time>
      </trkpt>
      <trkpt lat="50.44977" lon="3.65312">
        <ele>20</ele>
        <time>2022-05-09T06:50:52.000Z</time>
      </trkpt>
      <trkpt lat="50.44971" lon="3.65311">
        <ele>20.8</ele>
        <time>2022-05-09T06:50:53.000Z</time>
      </trkpt>
      <trkpt lat="50.44965" lon="3.65309">
        <ele>20.7</ele>
        <time>2022-05-09T06:50:55.000Z</time>
      </trkpt>
      <trkpt lat="50.44958" lon="3.65309">
        <ele>20.4</ele>
        <time>2022-05-09T06:50:56.964Z</time>
      </trkpt>
      <trkpt lat="50.44953" lon="3.65308">
        <ele>20.3</ele>
        <time>2022-05-09T06:50:58.000Z</time>
      </trkpt>
      <trkpt lat="50.44947" lon="3.65307">
        <ele>20.1</ele>
        <time>2022-05-09T06:50:59.000Z</time>
      </trkpt>
      <trkpt lat="50.44938" lon="3.65308">
        <ele>20</ele>
        <time>2022-05-09T06:51:00.000Z</time>
      </trkpt>
      <trkpt lat="50.44931" lon="3.65309">
        <ele>20</ele>
        <time>2022-05-09T06:51:01.000Z</time>
      </trkpt>
      <trkpt lat="50.44925" lon="3.65311">
        <ele>20</ele>
        <time>2022-05-09T06:51:02.000Z</time>
      </trkpt>
      <trkpt lat="50.44919" lon="3.65312">
        <ele>20</ele>
        <time>2022-05-09T06:51:03.000Z</time>
      </trkpt>
      <trkpt lat="50.44913" lon="3.65313">
        <ele>20</ele>
        <time>2022-05-09T06:51:04.000Z</time>
      </trkpt>
      <trkpt lat="50.44907" lon="3.65315">
        <ele>20.1</ele>
        <time>2022-05-09T06:51:05.000Z</time>
      </trkpt>
      <trkpt lat="50.44902" lon="3.65317">
        <ele>20.2</ele>
        <time>2022-05-09T06:51:06.000Z</time>
      </trkpt>
      <trkpt lat="50.44896" lon="3.65318">
        <ele>20.3</ele>
        <time>2022-05-09T06:51:07.000Z</time>
      </trkpt>
      <trkpt lat="50.44886" lon="3.65319">
        <ele>20.5</ele>
        <time>2022-05-09T06:51:09.000Z</time>
      </trkpt>
      <trkpt lat="50.4488" lon="3.65319">
        <ele>20.6</ele>
        <time>2022-05-09T06:51:10.000Z</time>
      </trkpt>
      <trkpt lat="50.44872" lon="3.65321">
        <ele>20.8</ele>
        <time>2022-05-09T06:51:12.000Z</time>
      </trkpt>
      <trkpt lat="50.44865" lon="3.65322">
        <ele>20.9</ele>
        <time>2022-05-09T06:51:14.000Z</time>
      </trkpt>
      <trkpt lat="50.4486" lon="3.65323">
        <ele>21</ele>
        <time>2022-05-09T06:51:15.000Z</time>
      </trkpt>
      <trkpt lat="50.44855" lon="3.65325">
        <ele>21</ele>
        <time>2022-05-09T06:51:16.000Z</time>
      </trkpt>
      <trkpt lat="50.44849" lon="3.65325">
        <ele>21</ele>
        <time>2022-05-09T06:51:18.000Z</time>
      </trkpt>
      <trkpt lat="50.44843" lon="3.65324">
        <ele>21</ele>
        <time>2022-05-09T06:51:19.000Z</time>
      </trkpt>
      <trkpt lat="50.44836" lon="3.65326">
        <ele>21</ele>
        <time>2022-05-09T06:51:21.000Z</time>
      </trkpt>
      <trkpt lat="50.44829" lon="3.65328">
        <ele>21</ele>
        <time>2022-05-09T06:51:23.000Z</time>
      </trkpt>
      <trkpt lat="50.44824" lon="3.65336">
        <ele>21</ele>
        <time>2022-05-09T06:51:25.000Z</time>
      </trkpt>
      <trkpt lat="50.44822" lon="3.65345">
        <ele>21</ele>
        <time>2022-05-09T06:51:27.004Z</time>
      </trkpt>
      <trkpt lat="50.44821" lon="3.65352">
        <ele>21</ele>
        <time>2022-05-09T06:51:28.000Z</time>
      </trkpt>
      <trkpt lat="50.44818" lon="3.65364">
        <ele>21</ele>
        <time>2022-05-09T06:51:30.000Z</time>
      </trkpt>
      <trkpt lat="50.44816" lon="3.65376">
        <ele>21</ele>
        <time>2022-05-09T06:51:32.000Z</time>
      </trkpt>
      <trkpt lat="50.44813" lon="3.65387">
        <ele>21</ele>
        <time>2022-05-09T06:51:34.000Z</time>
      </trkpt>
      <trkpt lat="50.4481" lon="3.65398">
        <ele>21</ele>
        <time>2022-05-09T06:51:36.000Z</time>
      </trkpt>
      <trkpt lat="50.44807" lon="3.65408">
        <ele>21</ele>
        <time>2022-05-09T06:51:38.000Z</time>
      </trkpt>
      <trkpt lat="50.44804" lon="3.65419">
        <ele>21</ele>
        <time>2022-05-09T06:51:40.000Z</time>
      </trkpt>
      <trkpt lat="50.44801" lon="3.65429">
        <ele>21</ele>
        <time>2022-05-09T06:51:42.000Z</time>
      </trkpt>
      <trkpt lat="50.44798" lon="3.65436">
        <ele>21</ele>
        <time>2022-05-09T06:51:43.926Z</time>
      </trkpt>
      <trkpt lat="50.44794" lon="3.65441">
        <ele>21</ele>
        <time>2022-05-09T06:51:45.000Z</time>
      </trkpt>
      <trkpt lat="50.44789" lon="3.65451">
        <ele>21</ele>
        <time>2022-05-09T06:51:47.000Z</time>
      </trkpt>
      <trkpt lat="50.44784" lon="3.6546">
        <ele>21</ele>
        <time>2022-05-09T06:51:49.000Z</time>
      </trkpt>
      <trkpt lat="50.44778" lon="3.6547">
        <ele>21</ele>
        <time>2022-05-09T06:51:51.000Z</time>
      </trkpt>
      <trkpt lat="50.44773" lon="3.65477">
        <ele>21</ele>
        <time>2022-05-09T06:51:53.000Z</time>
      </trkpt>
      <trkpt lat="50.44769" lon="3.65483">
        <ele>21</ele>
        <time>2022-05-09T06:51:54.000Z</time>
      </trkpt>
      <trkpt lat="50.44762" lon="3.65491">
        <ele>21</ele>
        <time>2022-05-09T06:51:56.000Z</time>
      </trkpt>
      <trkpt lat="50.44757" lon="3.655">
        <ele>21</ele>
        <time>2022-05-09T06:51:58.000Z</time>
      </trkpt>
      <trkpt lat="50.4475" lon="3.65508">
        <ele>21</ele>
        <time>2022-05-09T06:52:00.000Z</time>
      </trkpt>
      <trkpt lat="50.44745" lon="3.65514">
        <ele>20.9</ele>
        <time>2022-05-09T06:52:02.000Z</time>
      </trkpt>
      <trkpt lat="50.44738" lon="3.65521">
        <ele>20.7</ele>
        <time>2022-05-09T06:52:04.000Z</time>
      </trkpt>
      <trkpt lat="50.4473" lon="3.65527">
        <ele>20.3</ele>
        <time>2022-05-09T06:52:06.000Z</time>
      </trkpt>
      <trkpt lat="50.44723" lon="3.65535">
        <ele>20.3</ele>
        <time>2022-05-09T06:52:08.000Z</time>
      </trkpt>
      <trkpt lat="50.44717" lon="3.65542">
        <ele>20.5</ele>
        <time>2022-05-09T06:52:10.000Z</time>
      </trkpt>
      <trkpt lat="50.4471" lon="3.65551">
        <ele>20.8</ele>
        <time>2022-05-09T06:52:12.000Z</time>
      </trkpt>
      <trkpt lat="50.44704" lon="3.65559">
        <ele>21</ele>
        <time>2022-05-09T06:52:14.000Z</time>
      </trkpt>
      <trkpt lat="50.447" lon="3.65563">
        <ele>21</ele>
        <time>2022-05-09T06:52:15.000Z</time>
      </trkpt>
      <trkpt lat="50.44694" lon="3.65572">
        <ele>21</ele>
        <time>2022-05-09T06:52:17.046Z</time>
      </trkpt>
      <trkpt lat="50.44687" lon="3.65581">
        <ele>21</ele>
        <time>2022-05-09T06:52:19.000Z</time>
      </trkpt>
      <trkpt lat="50.44677" lon="3.65591">
        <ele>20.7</ele>
        <time>2022-05-09T06:52:21.000Z</time>
      </trkpt>
      <trkpt lat="50.44673" lon="3.65595">
        <ele>20.6</ele>
        <time>2022-05-09T06:52:22.000Z</time>
      </trkpt>
      <trkpt lat="50.44669" lon="3.656">
        <ele>20.4</ele>
        <time>2022-05-09T06:52:23.000Z</time>
      </trkpt>
      <trkpt lat="50.44665" lon="3.65605">
        <ele>20.3</ele>
        <time>2022-05-09T06:52:24.000Z</time>
      </trkpt>
      <trkpt lat="50.44661" lon="3.65609">
        <ele>20.2</ele>
        <time>2022-05-09T06:52:25.000Z</time>
      </trkpt>
      <trkpt lat="50.44657" lon="3.65614">
        <ele>20.3</ele>
        <time>2022-05-09T06:52:26.000Z</time>
      </trkpt>
      <trkpt lat="50.4465" lon="3.65623">
        <ele>20.3</ele>
        <time>2022-05-09T06:52:28.000Z</time>
      </trkpt>
      <trkpt lat="50.44646" lon="3.65628">
        <ele>20.3</ele>
        <time>2022-05-09T06:52:29.000Z</time>
      </trkpt>
      <trkpt lat="50.44639" lon="3.65637">
        <ele>20.1</ele>
        <time>2022-05-09T06:52:31.000Z</time>
      </trkpt>
      <trkpt lat="50.44633" lon="3.65645">
        <ele>20</ele>
        <time>2022-05-09T06:52:33.041Z</time>
      </trkpt>
      <trkpt lat="50.44629" lon="3.6565">
        <ele>20</ele>
        <time>2022-05-09T06:52:34.000Z</time>
      </trkpt>
      <trkpt lat="50.44625" lon="3.65654">
        <ele>20</ele>
        <time>2022-05-09T06:52:35.000Z</time>
      </trkpt>
      <trkpt lat="50.44619" lon="3.6566">
        <ele>20</ele>
        <time>2022-05-09T06:52:36.937Z</time>
      </trkpt>
      <trkpt lat="50.44613" lon="3.65664">
        <ele>20</ele>
        <time>2022-05-09T06:52:38.000Z</time>
      </trkpt>
      <trkpt lat="50.44609" lon="3.65668">
        <ele>20</ele>
        <time>2022-05-09T06:52:39.000Z</time>
      </trkpt>
      <trkpt lat="50.44605" lon="3.65672">
        <ele>20.1</ele>
        <time>2022-05-09T06:52:40.000Z</time>
      </trkpt>
      <trkpt lat="50.44597" lon="3.65679">
        <ele>20.2</ele>
        <time>2022-05-09T06:52:42.000Z</time>
      </trkpt>
      <trkpt lat="50.44593" lon="3.65683">
        <ele>20.2</ele>
        <time>2022-05-09T06:52:43.000Z</time>
      </trkpt>
      <trkpt lat="50.44585" lon="3.65689">
        <ele>20</ele>
        <time>2022-05-09T06:52:45.000Z</time>
      </trkpt>
      <trkpt lat="50.44581" lon="3.65693">
        <ele>20</ele>
        <time>2022-05-09T06:52:46.000Z</time>
      </trkpt>
      <trkpt lat="50.44572" lon="3.657">
        <ele>20.2</ele>
        <time>2022-05-09T06:52:48.000Z</time>
      </trkpt>
      <trkpt lat="50.44568" lon="3.65703">
        <ele>20.3</ele>
        <time>2022-05-09T06:52:49.000Z</time>
      </trkpt>
      <trkpt lat="50.44561" lon="3.6571">
        <ele>20.6</ele>
        <time>2022-05-09T06:52:51.000Z</time>
      </trkpt>
      <trkpt lat="50.44553" lon="3.65717">
        <ele>20.7</ele>
        <time>2022-05-09T06:52:53.000Z</time>
      </trkpt>
      <trkpt lat="50.44546" lon="3.65724">
        <ele>20.6</ele>
        <time>2022-05-09T06:52:55.000Z</time>
      </trkpt>
      <trkpt lat="50.44538" lon="3.65731">
        <ele>20.4</ele>
        <time>2022-05-09T06:52:57.000Z</time>
      </trkpt>
      <trkpt lat="50.44531" lon="3.65738">
        <ele>20.1</ele>
        <time>2022-05-09T06:52:59.000Z</time>
      </trkpt>
      <trkpt lat="50.44527" lon="3.65741">
        <ele>20</ele>
        <time>2022-05-09T06:53:00.000Z</time>
      </trkpt>
      <trkpt lat="50.44523" lon="3.65745">
        <ele>20</ele>
        <time>2022-05-09T06:53:01.000Z</time>
      </trkpt>
      <trkpt lat="50.44515" lon="3.65751">
        <ele>20</ele>
        <time>2022-05-09T06:53:03.000Z</time>
      </trkpt>
      <trkpt lat="50.44509" lon="3.65758">
        <ele>20</ele>
        <time>2022-05-09T06:53:05.000Z</time>
      </trkpt>
      <trkpt lat="50.44505" lon="3.65762">
        <ele>20</ele>
        <time>2022-05-09T06:53:06.000Z</time>
      </trkpt>
      <trkpt lat="50.44501" lon="3.65766">
        <ele>20</ele>
        <time>2022-05-09T06:53:07.000Z</time>
      </trkpt>
      <trkpt lat="50.44497" lon="3.6577">
        <ele>20</ele>
        <time>2022-05-09T06:53:08.000Z</time>
      </trkpt>
      <trkpt lat="50.4449" lon="3.65777">
        <ele>20</ele>
        <time>2022-05-09T06:53:10.000Z</time>
      </trkpt>
      <trkpt lat="50.44482" lon="3.65784">
        <ele>20.1</ele>
        <time>2022-05-09T06:53:12.000Z</time>
      </trkpt>
      <trkpt lat="50.44478" lon="3.65788">
        <ele>20.1</ele>
        <time>2022-05-09T06:53:13.000Z</time>
      </trkpt>
      <trkpt lat="50.44474" lon="3.65792">
        <ele>20</ele>
        <time>2022-05-09T06:53:14.000Z</time>
      </trkpt>
      <trkpt lat="50.4447" lon="3.65796">
        <ele>20</ele>
        <time>2022-05-09T06:53:15.000Z</time>
      </trkpt>
      <trkpt lat="50.44463" lon="3.65802">
        <ele>20</ele>
        <time>2022-05-09T06:53:17.000Z</time>
      </trkpt>
      <trkpt lat="50.44458" lon="3.65806">
        <ele>20</ele>
        <time>2022-05-09T06:53:18.000Z</time>
      </trkpt>
      <trkpt lat="50.44454" lon="3.65809">
        <ele>20</ele>
        <time>2022-05-09T06:53:19.000Z</time>
      </trkpt>
      <trkpt lat="50.4445" lon="3.65813">
        <ele>20</ele>
        <time>2022-05-09T06:53:20.000Z</time>
      </trkpt>
      <trkpt lat="50.44442" lon="3.65821">
        <ele>20</ele>
        <time>2022-05-09T06:53:22.000Z</time>
      </trkpt>
      <trkpt lat="50.44438" lon="3.65825">
        <ele>20</ele>
        <time>2022-05-09T06:53:23.000Z</time>
      </trkpt>
      <trkpt lat="50.4443" lon="3.65832">
        <ele>20</ele>
        <time>2022-05-09T06:53:25.000Z</time>
      </trkpt>
      <trkpt lat="50.44426" lon="3.65836">
        <ele>20</ele>
        <time>2022-05-09T06:53:26.000Z</time>
      </trkpt>
      <trkpt lat="50.44422" lon="3.6584">
        <ele>20</ele>
        <time>2022-05-09T06:53:27.000Z</time>
      </trkpt>
      <trkpt lat="50.44418" lon="3.65843">
        <ele>20</ele>
        <time>2022-05-09T06:53:28.000Z</time>
      </trkpt>
      <trkpt lat="50.44414" lon="3.65847">
        <ele>20</ele>
        <time>2022-05-09T06:53:29.000Z</time>
      </trkpt>
      <trkpt lat="50.44407" lon="3.65855">
        <ele>20</ele>
        <time>2022-05-09T06:53:31.000Z</time>
      </trkpt>
      <trkpt lat="50.44399" lon="3.65862">
        <ele>20</ele>
        <time>2022-05-09T06:53:33.000Z</time>
      </trkpt>
      <trkpt lat="50.44395" lon="3.65865">
        <ele>20.1</ele>
        <time>2022-05-09T06:53:34.000Z</time>
      </trkpt>
      <trkpt lat="50.44388" lon="3.65871">
        <ele>20.4</ele>
        <time>2022-05-09T06:53:36.000Z</time>
      </trkpt>
      <trkpt lat="50.44384" lon="3.65875">
        <ele>20.4</ele>
        <time>2022-05-09T06:53:37.000Z</time>
      </trkpt>
      <trkpt lat="50.44376" lon="3.65882">
        <ele>20.4</ele>
        <time>2022-05-09T06:53:39.000Z</time>
      </trkpt>
      <trkpt lat="50.44369" lon="3.65888">
        <ele>20.3</ele>
        <time>2022-05-09T06:53:41.000Z</time>
      </trkpt>
      <trkpt lat="50.44362" lon="3.65895">
        <ele>20.2</ele>
        <time>2022-05-09T06:53:43.000Z</time>
      </trkpt>
      <trkpt lat="50.44355" lon="3.65904">
        <ele>20.4</ele>
        <time>2022-05-09T06:53:45.000Z</time>
      </trkpt>
      <trkpt lat="50.44348" lon="3.65911">
        <ele>20.4</ele>
        <time>2022-05-09T06:53:47.000Z</time>
      </trkpt>
      <trkpt lat="50.44344" lon="3.65914">
        <ele>20.3</ele>
        <time>2022-05-09T06:53:48.000Z</time>
      </trkpt>
      <trkpt lat="50.44339" lon="3.65917">
        <ele>20.2</ele>
        <time>2022-05-09T06:53:49.000Z</time>
      </trkpt>
      <trkpt lat="50.44335" lon="3.6592">
        <ele>20.2</ele>
        <time>2022-05-09T06:53:50.000Z</time>
      </trkpt>
      <trkpt lat="50.44331" lon="3.65923">
        <ele>20.2</ele>
        <time>2022-05-09T06:53:51.000Z</time>
      </trkpt>
      <trkpt lat="50.44323" lon="3.6593">
        <ele>20.3</ele>
        <time>2022-05-09T06:53:53.000Z</time>
      </trkpt>
      <trkpt lat="50.44317" lon="3.65936">
        <ele>20.3</ele>
        <time>2022-05-09T06:53:55.018Z</time>
      </trkpt>
      <trkpt lat="50.44311" lon="3.65942">
        <ele>20.2</ele>
        <time>2022-05-09T06:53:56.000Z</time>
      </trkpt>
      <trkpt lat="50.44304" lon="3.65948">
        <ele>20</ele>
        <time>2022-05-09T06:53:58.000Z</time>
      </trkpt>
      <trkpt lat="50.44296" lon="3.65954">
        <ele>20</ele>
        <time>2022-05-09T06:54:00.000Z</time>
      </trkpt>
      <trkpt lat="50.44287" lon="3.65961">
        <ele>20</ele>
        <time>2022-05-09T06:54:02.000Z</time>
      </trkpt>
      <trkpt lat="50.44283" lon="3.65964">
        <ele>20</ele>
        <time>2022-05-09T06:54:03.000Z</time>
      </trkpt>
      <trkpt lat="50.44276" lon="3.6597">
        <ele>20</ele>
        <time>2022-05-09T06:54:05.000Z</time>
      </trkpt>
      <trkpt lat="50.44269" lon="3.65975">
        <ele>20</ele>
        <time>2022-05-09T06:54:07.072Z</time>
      </trkpt>
      <trkpt lat="50.4426" lon="3.6598">
        <ele>20</ele>
        <time>2022-05-09T06:54:09.000Z</time>
      </trkpt>
      <trkpt lat="50.44252" lon="3.65984">
        <ele>20</ele>
        <time>2022-05-09T06:54:11.000Z</time>
      </trkpt>
      <trkpt lat="50.44247" lon="3.65987">
        <ele>20</ele>
        <time>2022-05-09T06:54:12.000Z</time>
      </trkpt>
      <trkpt lat="50.44239" lon="3.6599">
        <ele>20</ele>
        <time>2022-05-09T06:54:14.000Z</time>
      </trkpt>
      <trkpt lat="50.44231" lon="3.65994">
        <ele>20</ele>
        <time>2022-05-09T06:54:16.000Z</time>
      </trkpt>
      <trkpt lat="50.44226" lon="3.65997">
        <ele>20</ele>
        <time>2022-05-09T06:54:17.000Z</time>
      </trkpt>
      <trkpt lat="50.44218" lon="3.66002">
        <ele>20.1</ele>
        <time>2022-05-09T06:54:19.000Z</time>
      </trkpt>
      <trkpt lat="50.44213" lon="3.66004">
        <ele>20.3</ele>
        <time>2022-05-09T06:54:20.000Z</time>
      </trkpt>
      <trkpt lat="50.44205" lon="3.66008">
        <ele>20.4</ele>
        <time>2022-05-09T06:54:22.000Z</time>
      </trkpt>
      <trkpt lat="50.44199" lon="3.66011">
        <ele>20.5</ele>
        <time>2022-05-09T06:54:23.000Z</time>
      </trkpt>
      <trkpt lat="50.44184" lon="3.66019">
        <ele>20.2</ele>
        <time>2022-05-09T06:54:26.980Z</time>
      </trkpt>
      <trkpt lat="50.44176" lon="3.66025">
        <ele>20</ele>
        <time>2022-05-09T06:54:29.000Z</time>
      </trkpt>
      <trkpt lat="50.44166" lon="3.6603">
        <ele>20</ele>
        <time>2022-05-09T06:54:31.000Z</time>
      </trkpt>
      <trkpt lat="50.44159" lon="3.66033">
        <ele>20.2</ele>
        <time>2022-05-09T06:54:33.000Z</time>
      </trkpt>
      <trkpt lat="50.44151" lon="3.66037">
        <ele>20.4</ele>
        <time>2022-05-09T06:54:35.000Z</time>
      </trkpt>
      <trkpt lat="50.44143" lon="3.66042">
        <ele>20.4</ele>
        <time>2022-05-09T06:54:37.000Z</time>
      </trkpt>
      <trkpt lat="50.44135" lon="3.66046">
        <ele>20.3</ele>
        <time>2022-05-09T06:54:39.000Z</time>
      </trkpt>
      <trkpt lat="50.44124" lon="3.66051">
        <ele>20.1</ele>
        <time>2022-05-09T06:54:41.032Z</time>
      </trkpt>
      <trkpt lat="50.4412" lon="3.66054">
        <ele>20</ele>
        <time>2022-05-09T06:54:42.050Z</time>
      </trkpt>
      <trkpt lat="50.44112" lon="3.66058">
        <ele>20</ele>
        <time>2022-05-09T06:54:44.000Z</time>
      </trkpt>
      <trkpt lat="50.44105" lon="3.66062">
        <ele>20.2</ele>
        <time>2022-05-09T06:54:45.949Z</time>
      </trkpt>
      <trkpt lat="50.44099" lon="3.66065">
        <ele>20.3</ele>
        <time>2022-05-09T06:54:48.000Z</time>
      </trkpt>
      <trkpt lat="50.44093" lon="3.66068">
        <ele>20.4</ele>
        <time>2022-05-09T06:54:48.953Z</time>
      </trkpt>
      <trkpt lat="50.44087" lon="3.66071">
        <ele>20.4</ele>
        <time>2022-05-09T06:54:51.000Z</time>
      </trkpt>
      <trkpt lat="50.44082" lon="3.66073">
        <ele>20.3</ele>
        <time>2022-05-09T06:54:52.000Z</time>
      </trkpt>
      <trkpt lat="50.44077" lon="3.66077">
        <ele>20.2</ele>
        <time>2022-05-09T06:54:53.000Z</time>
      </trkpt>
      <trkpt lat="50.4407" lon="3.66081">
        <ele>20</ele>
        <time>2022-05-09T06:54:55.000Z</time>
      </trkpt>
      <trkpt lat="50.44061" lon="3.66086">
        <ele>20</ele>
        <time>2022-05-09T06:54:57.615Z</time>
      </trkpt>
      <trkpt lat="50.44054" lon="3.6609">
        <ele>20</ele>
        <time>2022-05-09T06:54:59.000Z</time>
      </trkpt>
      <trkpt lat="50.44047" lon="3.66094">
        <ele>20</ele>
        <time>2022-05-09T06:55:01.000Z</time>
      </trkpt>
      <trkpt lat="50.44042" lon="3.66097">
        <ele>20</ele>
        <time>2022-05-09T06:55:02.000Z</time>
      </trkpt>
      <trkpt lat="50.44033" lon="3.66101">
        <ele>20</ele>
        <time>2022-05-09T06:55:04.000Z</time>
      </trkpt>
      <trkpt lat="50.44028" lon="3.66104">
        <ele>20</ele>
        <time>2022-05-09T06:55:04.910Z</time>
      </trkpt>
      <trkpt lat="50.44021" lon="3.66108">
        <ele>20</ele>
        <time>2022-05-09T06:55:07.000Z</time>
      </trkpt>
      <trkpt lat="50.44017" lon="3.6611">
        <ele>20</ele>
        <time>2022-05-09T06:55:08.000Z</time>
      </trkpt>
      <trkpt lat="50.44012" lon="3.66113">
        <ele>20</ele>
        <time>2022-05-09T06:55:09.000Z</time>
      </trkpt>
      <trkpt lat="50.44007" lon="3.66115">
        <ele>20</ele>
        <time>2022-05-09T06:55:10.000Z</time>
      </trkpt>
      <trkpt lat="50.44" lon="3.6612">
        <ele>20</ele>
        <time>2022-05-09T06:55:12.000Z</time>
      </trkpt>
      <trkpt lat="50.43992" lon="3.66125">
        <ele>20.2</ele>
        <time>2022-05-09T06:55:14.000Z</time>
      </trkpt>
      <trkpt lat="50.43983" lon="3.66129">
        <ele>20.2</ele>
        <time>2022-05-09T06:55:16.000Z</time>
      </trkpt>
      <trkpt lat="50.43976" lon="3.66133">
        <ele>20.2</ele>
        <time>2022-05-09T06:55:18.000Z</time>
      </trkpt>
      <trkpt lat="50.43971" lon="3.66136">
        <ele>20.1</ele>
        <time>2022-05-09T06:55:19.000Z</time>
      </trkpt>
      <trkpt lat="50.43964" lon="3.66138">
        <ele>20</ele>
        <time>2022-05-09T06:55:21.000Z</time>
      </trkpt>
      <trkpt lat="50.43959" lon="3.66141">
        <ele>20</ele>
        <time>2022-05-09T06:55:22.000Z</time>
      </trkpt>
      <trkpt lat="50.4395" lon="3.66144">
        <ele>20</ele>
        <time>2022-05-09T06:55:24.000Z</time>
      </trkpt>
      <trkpt lat="50.43941" lon="3.66147">
        <ele>20</ele>
        <time>2022-05-09T06:55:26.000Z</time>
      </trkpt>
      <trkpt lat="50.43933" lon="3.6615">
        <ele>20.2</ele>
        <time>2022-05-09T06:55:28.000Z</time>
      </trkpt>
      <trkpt lat="50.43928" lon="3.66152">
        <ele>20.3</ele>
        <time>2022-05-09T06:55:29.000Z</time>
      </trkpt>
      <trkpt lat="50.4392" lon="3.66153">
        <ele>20.5</ele>
        <time>2022-05-09T06:55:31.000Z</time>
      </trkpt>
      <trkpt lat="50.43912" lon="3.66155">
        <ele>20.6</ele>
        <time>2022-05-09T06:55:33.000Z</time>
      </trkpt>
      <trkpt lat="50.43907" lon="3.66156">
        <ele>20.5</ele>
        <time>2022-05-09T06:55:34.000Z</time>
      </trkpt>
      <trkpt lat="50.43899" lon="3.66157">
        <ele>20.5</ele>
        <time>2022-05-09T06:55:36.000Z</time>
      </trkpt>
      <trkpt lat="50.43893" lon="3.66159">
        <ele>20.3</ele>
        <time>2022-05-09T06:55:37.000Z</time>
      </trkpt>
      <trkpt lat="50.43888" lon="3.6616">
        <ele>20.3</ele>
        <time>2022-05-09T06:55:37.942Z</time>
      </trkpt>
      <trkpt lat="50.43875" lon="3.6616">
        <ele>20.2</ele>
        <time>2022-05-09T06:55:41.000Z</time>
      </trkpt>
      <trkpt lat="50.43869" lon="3.66159">
        <ele>20.3</ele>
        <time>2022-05-09T06:55:42.000Z</time>
      </trkpt>
      <trkpt lat="50.43856" lon="3.66157">
        <ele>20.4</ele>
        <time>2022-05-09T06:55:44.961Z</time>
      </trkpt>
      <trkpt lat="50.43844" lon="3.66151">
        <ele>20.6</ele>
        <time>2022-05-09T06:55:48.000Z</time>
      </trkpt>
      <trkpt lat="50.43839" lon="3.66148">
        <ele>20.7</ele>
        <time>2022-05-09T06:55:49.000Z</time>
      </trkpt>
      <trkpt lat="50.43831" lon="3.66143">
        <ele>20.8</ele>
        <time>2022-05-09T06:55:51.000Z</time>
      </trkpt>
      <trkpt lat="50.43822" lon="3.66136">
        <ele>20.6</ele>
        <time>2022-05-09T06:55:53.000Z</time>
      </trkpt>
      <trkpt lat="50.43814" lon="3.66129">
        <ele>20.4</ele>
        <time>2022-05-09T06:55:56.019Z</time>
      </trkpt>
      <trkpt lat="50.43804" lon="3.66122">
        <ele>20.6</ele>
        <time>2022-05-09T06:55:58.000Z</time>
      </trkpt>
      <trkpt lat="50.43798" lon="3.66111">
        <ele>21</ele>
        <time>2022-05-09T06:56:00.000Z</time>
      </trkpt>
      <trkpt lat="50.43793" lon="3.66107">
        <ele>20.9</ele>
        <time>2022-05-09T06:56:01.982Z</time>
      </trkpt>
      <trkpt lat="50.43788" lon="3.66102">
        <ele>20.9</ele>
        <time>2022-05-09T06:56:03.000Z</time>
      </trkpt>
      <trkpt lat="50.4378" lon="3.66094">
        <ele>20.9</ele>
        <time>2022-05-09T06:56:04.850Z</time>
      </trkpt>
      <trkpt lat="50.43774" lon="3.66088">
        <ele>21.1</ele>
        <time>2022-05-09T06:56:07.020Z</time>
      </trkpt>
      <trkpt lat="50.43769" lon="3.66081">
        <ele>21.2</ele>
        <time>2022-05-09T06:56:08.000Z</time>
      </trkpt>
      <trkpt lat="50.43762" lon="3.66075">
        <ele>21.3</ele>
        <time>2022-05-09T06:56:10.000Z</time>
      </trkpt>
      <trkpt lat="50.43757" lon="3.6607">
        <ele>21.3</ele>
        <time>2022-05-09T06:56:11.000Z</time>
      </trkpt>
      <trkpt lat="50.43749" lon="3.66063">
        <ele>21.3</ele>
        <time>2022-05-09T06:56:13.000Z</time>
      </trkpt>
      <trkpt lat="50.43744" lon="3.66058">
        <ele>21.4</ele>
        <time>2022-05-09T06:56:14.000Z</time>
      </trkpt>
      <trkpt lat="50.43737" lon="3.6605">
        <ele>22</ele>
        <time>2022-05-09T06:56:16.000Z</time>
      </trkpt>
      <trkpt lat="50.43732" lon="3.66046">
        <ele>22.2</ele>
        <time>2022-05-09T06:56:17.000Z</time>
      </trkpt>
      <trkpt lat="50.43723" lon="3.66038">
        <ele>22.4</ele>
        <time>2022-05-09T06:56:19.000Z</time>
      </trkpt>
      <trkpt lat="50.43718" lon="3.66036">
        <ele>22.5</ele>
        <time>2022-05-09T06:56:20.000Z</time>
      </trkpt>
      <trkpt lat="50.43713" lon="3.66034">
        <ele>22.8</ele>
        <time>2022-05-09T06:56:21.000Z</time>
      </trkpt>
      <trkpt lat="50.43709" lon="3.66031">
        <ele>23.2</ele>
        <time>2022-05-09T06:56:22.000Z</time>
      </trkpt>
      <trkpt lat="50.43705" lon="3.66028">
        <ele>23.9</ele>
        <time>2022-05-09T06:56:23.000Z</time>
      </trkpt>
      <trkpt lat="50.43699" lon="3.66025">
        <ele>24.1</ele>
        <time>2022-05-09T06:56:24.000Z</time>
      </trkpt>
      <trkpt lat="50.4369" lon="3.6602">
        <ele>24.1</ele>
        <time>2022-05-09T06:56:26.000Z</time>
      </trkpt>
      <trkpt lat="50.43685" lon="3.66019">
        <ele>24</ele>
        <time>2022-05-09T06:56:27.000Z</time>
      </trkpt>
      <trkpt lat="50.4368" lon="3.66018">
        <ele>24.1</ele>
        <time>2022-05-09T06:56:28.000Z</time>
      </trkpt>
      <trkpt lat="50.43676" lon="3.66017">
        <ele>24.1</ele>
        <time>2022-05-09T06:56:29.000Z</time>
      </trkpt>
      <trkpt lat="50.43671" lon="3.66016">
        <ele>24.2</ele>
        <time>2022-05-09T06:56:30.000Z</time>
      </trkpt>
      <trkpt lat="50.43665" lon="3.66016">
        <ele>24.3</ele>
        <time>2022-05-09T06:56:31.000Z</time>
      </trkpt>
      <trkpt lat="50.4366" lon="3.66016">
        <ele>24.5</ele>
        <time>2022-05-09T06:56:32.000Z</time>
      </trkpt>
      <trkpt lat="50.43655" lon="3.66017">
        <ele>24.6</ele>
        <time>2022-05-09T06:56:33.000Z</time>
      </trkpt>
      <trkpt lat="50.4365" lon="3.66017">
        <ele>24.8</ele>
        <time>2022-05-09T06:56:34.000Z</time>
      </trkpt>
      <trkpt lat="50.43645" lon="3.66018">
        <ele>25.1</ele>
        <time>2022-05-09T06:56:35.000Z</time>
      </trkpt>
      <trkpt lat="50.43641" lon="3.6602">
        <ele>25.5</ele>
        <time>2022-05-09T06:56:36.000Z</time>
      </trkpt>
      <trkpt lat="50.43636" lon="3.66021">
        <ele>25.7</ele>
        <time>2022-05-09T06:56:37.000Z</time>
      </trkpt>
      <trkpt lat="50.43631" lon="3.66022">
        <ele>26.1</ele>
        <time>2022-05-09T06:56:38.000Z</time>
      </trkpt>
      <trkpt lat="50.43625" lon="3.66024">
        <ele>26.7</ele>
        <time>2022-05-09T06:56:39.000Z</time>
      </trkpt>
      <trkpt lat="50.4362" lon="3.66026">
        <ele>27.4</ele>
        <time>2022-05-09T06:56:40.000Z</time>
      </trkpt>
      <trkpt lat="50.43616" lon="3.66029">
        <ele>27.7</ele>
        <time>2022-05-09T06:56:41.000Z</time>
      </trkpt>
      <trkpt lat="50.43611" lon="3.66032">
        <ele>27.4</ele>
        <time>2022-05-09T06:56:42.000Z</time>
      </trkpt>
      <trkpt lat="50.43607" lon="3.66034">
        <ele>26.6</ele>
        <time>2022-05-09T06:56:43.000Z</time>
      </trkpt>
      <trkpt lat="50.43601" lon="3.66038">
        <ele>25.6</ele>
        <time>2022-05-09T06:56:44.000Z</time>
      </trkpt>
      <trkpt lat="50.43593" lon="3.66044">
        <ele>24.6</ele>
        <time>2022-05-09T06:56:46.000Z</time>
      </trkpt>
      <trkpt lat="50.43588" lon="3.66047">
        <ele>24.2</ele>
        <time>2022-05-09T06:56:47.000Z</time>
      </trkpt>
      <trkpt lat="50.43579" lon="3.66051">
        <ele>24.3</ele>
        <time>2022-05-09T06:56:49.000Z</time>
      </trkpt>
      <trkpt lat="50.43574" lon="3.66054">
        <ele>24.9</ele>
        <time>2022-05-09T06:56:50.000Z</time>
      </trkpt>
      <trkpt lat="50.4357" lon="3.66057">
        <ele>25.4</ele>
        <time>2022-05-09T06:56:51.000Z</time>
      </trkpt>
      <trkpt lat="50.43565" lon="3.66059">
        <ele>25.8</ele>
        <time>2022-05-09T06:56:52.000Z</time>
      </trkpt>
      <trkpt lat="50.43561" lon="3.66062">
        <ele>26.1</ele>
        <time>2022-05-09T06:56:53.000Z</time>
      </trkpt>
      <trkpt lat="50.43556" lon="3.66065">
        <ele>26.3</ele>
        <time>2022-05-09T06:56:54.000Z</time>
      </trkpt>
      <trkpt lat="50.43551" lon="3.66069">
        <ele>25.8</ele>
        <time>2022-05-09T06:56:55.000Z</time>
      </trkpt>
      <trkpt lat="50.43547" lon="3.66073">
        <ele>25.6</ele>
        <time>2022-05-09T06:56:56.000Z</time>
      </trkpt>
      <trkpt lat="50.43542" lon="3.66078">
        <ele>26</ele>
        <time>2022-05-09T06:56:57.000Z</time>
      </trkpt>
      <trkpt lat="50.43538" lon="3.66082">
        <ele>26.7</ele>
        <time>2022-05-09T06:56:58.000Z</time>
      </trkpt>
      <trkpt lat="50.43534" lon="3.66087">
        <ele>26.9</ele>
        <time>2022-05-09T06:56:59.000Z</time>
      </trkpt>
      <trkpt lat="50.43529" lon="3.66095">
        <ele>26.6</ele>
        <time>2022-05-09T06:57:00.000Z</time>
      </trkpt>
      <trkpt lat="50.43525" lon="3.66101">
        <ele>26.2</ele>
        <time>2022-05-09T06:57:01.000Z</time>
      </trkpt>
      <trkpt lat="50.4352" lon="3.66107">
        <ele>25.9</ele>
        <time>2022-05-09T06:57:02.000Z</time>
      </trkpt>
      <trkpt lat="50.43516" lon="3.66112">
        <ele>25.8</ele>
        <time>2022-05-09T06:57:03.000Z</time>
      </trkpt>
      <trkpt lat="50.43511" lon="3.66119">
        <ele>25.6</ele>
        <time>2022-05-09T06:57:04.000Z</time>
      </trkpt>
      <trkpt lat="50.43506" lon="3.66126">
        <ele>25.6</ele>
        <time>2022-05-09T06:57:05.000Z</time>
      </trkpt>
      <trkpt lat="50.435" lon="3.66135">
        <ele>26.1</ele>
        <time>2022-05-09T06:57:06.000Z</time>
      </trkpt>
      <trkpt lat="50.43494" lon="3.66141">
        <ele>24.6</ele>
        <time>2022-05-09T06:57:07.000Z</time>
      </trkpt>
      <trkpt lat="50.43488" lon="3.66147">
        <ele>23.5</ele>
        <time>2022-05-09T06:57:08.000Z</time>
      </trkpt>
      <trkpt lat="50.43482" lon="3.66154">
        <ele>23.2</ele>
        <time>2022-05-09T06:57:09.000Z</time>
      </trkpt>
      <trkpt lat="50.43476" lon="3.66161">
        <ele>23.9</ele>
        <time>2022-05-09T06:57:10.000Z</time>
      </trkpt>
      <trkpt lat="50.43469" lon="3.6617">
        <ele>24.3</ele>
        <time>2022-05-09T06:57:11.000Z</time>
      </trkpt>
      <trkpt lat="50.43462" lon="3.66175">
        <ele>23.2</ele>
        <time>2022-05-09T06:57:12.000Z</time>
      </trkpt>
      <trkpt lat="50.43456" lon="3.6618">
        <ele>22.6</ele>
        <time>2022-05-09T06:57:13.000Z</time>
      </trkpt>
      <trkpt lat="50.43449" lon="3.66184">
        <ele>22.4</ele>
        <time>2022-05-09T06:57:14.000Z</time>
      </trkpt>
      <trkpt lat="50.43443" lon="3.66188">
        <ele>22.5</ele>
        <time>2022-05-09T06:57:15.000Z</time>
      </trkpt>
      <trkpt lat="50.43435" lon="3.66193">
        <ele>22.6</ele>
        <time>2022-05-09T06:57:16.000Z</time>
      </trkpt>
      <trkpt lat="50.4343" lon="3.66196">
        <ele>22.4</ele>
        <time>2022-05-09T06:57:17.000Z</time>
      </trkpt>
      <trkpt lat="50.43425" lon="3.66197">
        <ele>22.2</ele>
        <time>2022-05-09T06:57:18.000Z</time>
      </trkpt>
      <trkpt lat="50.4342" lon="3.66198">
        <ele>22</ele>
        <time>2022-05-09T06:57:19.000Z</time>
      </trkpt>
      <trkpt lat="50.43416" lon="3.66203">
        <ele>21.7</ele>
        <time>2022-05-09T06:57:22.000Z</time>
      </trkpt>
      <trkpt lat="50.43421" lon="3.66205">
        <ele>21.7</ele>
        <time>2022-05-09T06:57:24.000Z</time>
      </trkpt>
      <trkpt lat="50.43428" lon="3.662">
        <ele>22.1</ele>
        <time>2022-05-09T06:57:26.000Z</time>
      </trkpt>
      <trkpt lat="50.43436" lon="3.66198">
        <ele>22.5</ele>
        <time>2022-05-09T06:57:28.000Z</time>
      </trkpt>
      <trkpt lat="50.43442" lon="3.66195">
        <ele>22.9</ele>
        <time>2022-05-09T06:57:30.000Z</time>
      </trkpt>
      <trkpt lat="50.43451" lon="3.6619">
        <ele>22.6</ele>
        <time>2022-05-09T06:57:32.000Z</time>
      </trkpt>
      <trkpt lat="50.43457" lon="3.66185">
        <ele>22.6</ele>
        <time>2022-05-09T06:57:34.656Z</time>
      </trkpt>
      <trkpt lat="50.43464" lon="3.66184">
        <ele>22.9</ele>
        <time>2022-05-09T06:57:37.000Z</time>
      </trkpt>
      <trkpt lat="50.4347" lon="3.66185">
        <ele>23</ele>
        <time>2022-05-09T06:57:38.915Z</time>
      </trkpt>
      <trkpt lat="50.43475" lon="3.66184">
        <ele>22.9</ele>
        <time>2022-05-09T06:57:40.854Z</time>
      </trkpt>
      <trkpt lat="50.4348" lon="3.66181">
        <ele>22.7</ele>
        <time>2022-05-09T06:57:42.856Z</time>
      </trkpt>
      <trkpt lat="50.43486" lon="3.66182">
        <ele>22.2</ele>
        <time>2022-05-09T06:57:46.034Z</time>
      </trkpt>
      <trkpt lat="50.43495" lon="3.6618">
        <ele>21.5</ele>
        <time>2022-05-09T06:57:48.934Z</time>
      </trkpt>
      <trkpt lat="50.43501" lon="3.6618">
        <ele>21</ele>
        <time>2022-05-09T06:57:50.000Z</time>
      </trkpt>
      <trkpt lat="50.43505" lon="3.6618">
        <ele>21</ele>
        <time>2022-05-09T06:57:51.000Z</time>
      </trkpt>
      <trkpt lat="50.43512" lon="3.66179">
        <ele>21</ele>
        <time>2022-05-09T06:57:52.000Z</time>
      </trkpt>
      <trkpt lat="50.43516" lon="3.66178">
        <ele>21</ele>
        <time>2022-05-09T06:57:53.000Z</time>
      </trkpt>
      <trkpt lat="50.43524" lon="3.66174">
        <ele>21</ele>
        <time>2022-05-09T06:57:54.000Z</time>
      </trkpt>
      <trkpt lat="50.43534" lon="3.66173">
        <ele>21</ele>
        <time>2022-05-09T06:57:56.000Z</time>
      </trkpt>
      <trkpt lat="50.43541" lon="3.66171">
        <ele>20.9</ele>
        <time>2022-05-09T06:57:57.000Z</time>
      </trkpt>
      <trkpt lat="50.43549" lon="3.6617">
        <ele>20.9</ele>
        <time>2022-05-09T06:57:58.000Z</time>
      </trkpt>
      <trkpt lat="50.43554" lon="3.66169">
        <ele>20.9</ele>
        <time>2022-05-09T06:57:59.000Z</time>
      </trkpt>
      <trkpt lat="50.4356" lon="3.66169">
        <ele>20.9</ele>
        <time>2022-05-09T06:58:00.000Z</time>
      </trkpt>
      <trkpt lat="50.43567" lon="3.66168">
        <ele>21</ele>
        <time>2022-05-09T06:58:01.000Z</time>
      </trkpt>
      <trkpt lat="50.43572" lon="3.66167">
        <ele>21</ele>
        <time>2022-05-09T06:58:02.000Z</time>
      </trkpt>
      <trkpt lat="50.43579" lon="3.66165">
        <ele>21</ele>
        <time>2022-05-09T06:58:03.000Z</time>
      </trkpt>
      <trkpt lat="50.43585" lon="3.66165">
        <ele>21.2</ele>
        <time>2022-05-09T06:58:04.000Z</time>
      </trkpt>
      <trkpt lat="50.4359" lon="3.66165">
        <ele>21.6</ele>
        <time>2022-05-09T06:58:05.000Z</time>
      </trkpt>
      <trkpt lat="50.43596" lon="3.66166">
        <ele>21.9</ele>
        <time>2022-05-09T06:58:06.000Z</time>
      </trkpt>
      <trkpt lat="50.43601" lon="3.66167">
        <ele>22.2</ele>
        <time>2022-05-09T06:58:07.000Z</time>
      </trkpt>
      <trkpt lat="50.43606" lon="3.66174">
        <ele>22.2</ele>
        <time>2022-05-09T06:58:08.000Z</time>
      </trkpt>
      <trkpt lat="50.43608" lon="3.6618">
        <ele>21.8</ele>
        <time>2022-05-09T06:58:09.000Z</time>
      </trkpt>
      <trkpt lat="50.4361" lon="3.66189">
        <ele>21.3</ele>
        <time>2022-05-09T06:58:10.000Z</time>
      </trkpt>
      <trkpt lat="50.43613" lon="3.66197">
        <ele>21</ele>
        <time>2022-05-09T06:58:11.000Z</time>
      </trkpt>
      <trkpt lat="50.43616" lon="3.66204">
        <ele>21.1</ele>
        <time>2022-05-09T06:58:12.000Z</time>
      </trkpt>
      <trkpt lat="50.43619" lon="3.6621">
        <ele>21.2</ele>
        <time>2022-05-09T06:58:13.000Z</time>
      </trkpt>
      <trkpt lat="50.43622" lon="3.66216">
        <ele>21.3</ele>
        <time>2022-05-09T06:58:14.000Z</time>
      </trkpt>
      <trkpt lat="50.43625" lon="3.66224">
        <ele>21.4</ele>
        <time>2022-05-09T06:58:15.000Z</time>
      </trkpt>
      <trkpt lat="50.43629" lon="3.66236">
        <ele>21.3</ele>
        <time>2022-05-09T06:58:17.000Z</time>
      </trkpt>
      <trkpt lat="50.43632" lon="3.66244">
        <ele>21.1</ele>
        <time>2022-05-09T06:58:18.000Z</time>
      </trkpt>
      <trkpt lat="50.43635" lon="3.6625">
        <ele>20.9</ele>
        <time>2022-05-09T06:58:19.000Z</time>
      </trkpt>
      <trkpt lat="50.4364" lon="3.6626">
        <ele>20.7</ele>
        <time>2022-05-09T06:58:21.000Z</time>
      </trkpt>
      <trkpt lat="50.43644" lon="3.6627">
        <ele>20.8</ele>
        <time>2022-05-09T06:58:23.000Z</time>
      </trkpt>
      <trkpt lat="50.43648" lon="3.6628">
        <ele>21</ele>
        <time>2022-05-09T06:58:25.000Z</time>
      </trkpt>
      <trkpt lat="50.43654" lon="3.66294">
        <ele>21.3</ele>
        <time>2022-05-09T06:58:27.534Z</time>
      </trkpt>
      <trkpt lat="50.43657" lon="3.66302">
        <ele>21.4</ele>
        <time>2022-05-09T06:58:29.000Z</time>
      </trkpt>
      <trkpt lat="50.43659" lon="3.66309">
        <ele>21.3</ele>
        <time>2022-05-09T06:58:30.000Z</time>
      </trkpt>
      <trkpt lat="50.43661" lon="3.66316">
        <ele>21.3</ele>
        <time>2022-05-09T06:58:31.000Z</time>
      </trkpt>
      <trkpt lat="50.43665" lon="3.66327">
        <ele>21.1</ele>
        <time>2022-05-09T06:58:33.433Z</time>
      </trkpt>
      <trkpt lat="50.43667" lon="3.66337">
        <ele>21.1</ele>
        <time>2022-05-09T06:58:34.773Z</time>
      </trkpt>
      <trkpt lat="50.4367" lon="3.66342">
        <ele>21.3</ele>
        <time>2022-05-09T06:58:37.000Z</time>
      </trkpt>
      <trkpt lat="50.43673" lon="3.6635">
        <ele>21.5</ele>
        <time>2022-05-09T06:58:38.894Z</time>
      </trkpt>
      <trkpt lat="50.43676" lon="3.66356">
        <ele>21.6</ele>
        <time>2022-05-09T06:58:40.000Z</time>
      </trkpt>
      <trkpt lat="50.43679" lon="3.66367">
        <ele>21.7</ele>
        <time>2022-05-09T06:58:42.676Z</time>
      </trkpt>
      <trkpt lat="50.43682" lon="3.66373">
        <ele>21.6</ele>
        <time>2022-05-09T06:58:44.000Z</time>
      </trkpt>
      <trkpt lat="50.43688" lon="3.66387">
        <ele>21.1</ele>
        <time>2022-05-09T06:58:46.372Z</time>
      </trkpt>
      <trkpt lat="50.43692" lon="3.664">
        <ele>21</ele>
        <time>2022-05-09T06:58:48.797Z</time>
      </trkpt>
      <trkpt lat="50.43696" lon="3.66409">
        <ele>21.1</ele>
        <time>2022-05-09T06:58:51.000Z</time>
      </trkpt>
      <trkpt lat="50.43699" lon="3.66419">
        <ele>21.3</ele>
        <time>2022-05-09T06:58:53.000Z</time>
      </trkpt>
      <trkpt lat="50.43703" lon="3.66427">
        <ele>21.2</ele>
        <time>2022-05-09T06:58:54.000Z</time>
      </trkpt>
      <trkpt lat="50.43706" lon="3.66436">
        <ele>21.1</ele>
        <time>2022-05-09T06:58:56.000Z</time>
      </trkpt>
      <trkpt lat="50.43711" lon="3.66446">
        <ele>21.1</ele>
        <time>2022-05-09T06:58:58.000Z</time>
      </trkpt>
      <trkpt lat="50.43715" lon="3.66458">
        <ele>21.1</ele>
        <time>2022-05-09T06:59:00.000Z</time>
      </trkpt>
      <trkpt lat="50.4372" lon="3.6647">
        <ele>21</ele>
        <time>2022-05-09T06:59:02.000Z</time>
      </trkpt>
      <trkpt lat="50.43723" lon="3.66478">
        <ele>20.9</ele>
        <time>2022-05-09T06:59:04.000Z</time>
      </trkpt>
      <trkpt lat="50.43726" lon="3.66485">
        <ele>20.7</ele>
        <time>2022-05-09T06:59:05.000Z</time>
      </trkpt>
      <trkpt lat="50.43729" lon="3.66492">
        <ele>20.7</ele>
        <time>2022-05-09T06:59:07.000Z</time>
      </trkpt>
      <trkpt lat="50.43734" lon="3.66502">
        <ele>20.8</ele>
        <time>2022-05-09T06:59:09.000Z</time>
      </trkpt>
      <trkpt lat="50.43738" lon="3.6651">
        <ele>20.9</ele>
        <time>2022-05-09T06:59:11.000Z</time>
      </trkpt>
      <trkpt lat="50.43741" lon="3.66517">
        <ele>20.9</ele>
        <time>2022-05-09T06:59:11.894Z</time>
      </trkpt>
      <trkpt lat="50.43743" lon="3.66524">
        <ele>20.9</ele>
        <time>2022-05-09T06:59:13.000Z</time>
      </trkpt>
      <trkpt lat="50.43746" lon="3.66531">
        <ele>20.8</ele>
        <time>2022-05-09T06:59:14.000Z</time>
      </trkpt>
      <trkpt lat="50.43745" lon="3.66539">
        <ele>20.5</ele>
        <time>2022-05-09T06:59:16.095Z</time>
      </trkpt>
      <trkpt lat="50.43739" lon="3.66544">
        <ele>20.3</ele>
        <time>2022-05-09T06:59:18.000Z</time>
      </trkpt>
      <trkpt lat="50.43734" lon="3.66545">
        <ele>20.2</ele>
        <time>2022-05-09T06:59:19.000Z</time>
      </trkpt>
      <trkpt lat="50.43729" lon="3.66546">
        <ele>20.1</ele>
        <time>2022-05-09T06:59:20.572Z</time>
      </trkpt>
      <trkpt lat="50.43723" lon="3.66547">
        <ele>20</ele>
        <time>2022-05-09T06:59:21.816Z</time>
      </trkpt>
      <trkpt lat="50.43715" lon="3.66551">
        <ele>20</ele>
        <time>2022-05-09T06:59:24.000Z</time>
      </trkpt>
      <trkpt lat="50.43708" lon="3.66559">
        <ele>20</ele>
        <time>2022-05-09T06:59:27.000Z</time>
      </trkpt>
      <trkpt lat="50.43701" lon="3.66563">
        <ele>20</ele>
        <time>2022-05-09T06:59:29.814Z</time>
      </trkpt>
      <trkpt lat="50.43695" lon="3.66567">
        <ele>20</ele>
        <time>2022-05-09T06:59:32.000Z</time>
      </trkpt>
      <trkpt lat="50.43689" lon="3.66568">
        <ele>20</ele>
        <time>2022-05-09T06:59:34.075Z</time>
      </trkpt>
      <trkpt lat="50.43682" lon="3.66573">
        <ele>20</ele>
        <time>2022-05-09T06:59:36.000Z</time>
      </trkpt>
      <trkpt lat="50.43676" lon="3.66576">
        <ele>20</ele>
        <time>2022-05-09T06:59:37.935Z</time>
      </trkpt>
      <trkpt lat="50.43668" lon="3.66581">
        <ele>20</ele>
        <time>2022-05-09T06:59:40.000Z</time>
      </trkpt>
      <trkpt lat="50.43663" lon="3.66581">
        <ele>20</ele>
        <time>2022-05-09T06:59:41.533Z</time>
      </trkpt>
      <trkpt lat="50.43658" lon="3.66581">
        <ele>20</ele>
        <time>2022-05-09T06:59:43.000Z</time>
      </trkpt>
      <trkpt lat="50.43652" lon="3.6658">
        <ele>20</ele>
        <time>2022-05-09T06:59:44.016Z</time>
      </trkpt>
      <trkpt lat="50.43646" lon="3.66582">
        <ele>20</ele>
        <time>2022-05-09T06:59:46.156Z</time>
      </trkpt>
      <trkpt lat="50.43639" lon="3.66583">
        <ele>20</ele>
        <time>2022-05-09T06:59:48.235Z</time>
      </trkpt>
      <trkpt lat="50.4363" lon="3.66583">
        <ele>20</ele>
        <time>2022-05-09T06:59:50.434Z</time>
      </trkpt>
      <trkpt lat="50.43625" lon="3.66584">
        <ele>20</ele>
        <time>2022-05-09T06:59:51.453Z</time>
      </trkpt>
      <trkpt lat="50.43619" lon="3.66584">
        <ele>20</ele>
        <time>2022-05-09T06:59:52.755Z</time>
      </trkpt>
      <trkpt lat="50.43613" lon="3.66585">
        <ele>20</ele>
        <time>2022-05-09T06:59:54.000Z</time>
      </trkpt>
      <trkpt lat="50.43606" lon="3.66585">
        <ele>20</ele>
        <time>2022-05-09T06:59:56.000Z</time>
      </trkpt>
      <trkpt lat="50.43598" lon="3.66586">
        <ele>20</ele>
        <time>2022-05-09T06:59:58.000Z</time>
      </trkpt>
      <trkpt lat="50.43593" lon="3.66586">
        <ele>20</ele>
        <time>2022-05-09T07:00:00.000Z</time>
      </trkpt>
      <trkpt lat="50.43588" lon="3.66587">
        <ele>20</ele>
        <time>2022-05-09T07:00:01.000Z</time>
      </trkpt>
      <trkpt lat="50.4358" lon="3.66589">
        <ele>20</ele>
        <time>2022-05-09T07:00:03.000Z</time>
      </trkpt>
      <trkpt lat="50.43572" lon="3.66591">
        <ele>20</ele>
        <time>2022-05-09T07:00:05.000Z</time>
      </trkpt>
      <trkpt lat="50.43567" lon="3.66595">
        <ele>20</ele>
        <time>2022-05-09T07:00:07.000Z</time>
      </trkpt>
      <trkpt lat="50.43562" lon="3.66595">
        <ele>20</ele>
        <time>2022-05-09T07:00:10.000Z</time>
      </trkpt>
      <trkpt lat="50.43554" lon="3.66597">
        <ele>20</ele>
        <time>2022-05-09T07:00:13.014Z</time>
      </trkpt>
      <trkpt lat="50.43547" lon="3.66596">
        <ele>20.2</ele>
        <time>2022-05-09T07:00:16.196Z</time>
      </trkpt>
      <trkpt lat="50.43539" lon="3.66595">
        <ele>20.3</ele>
        <time>2022-05-09T07:00:18.811Z</time>
      </trkpt>
      <trkpt lat="50.43532" lon="3.66595">
        <ele>20.5</ele>
        <time>2022-05-09T07:00:21.000Z</time>
      </trkpt>
      <trkpt lat="50.43528" lon="3.66596">
        <ele>20.6</ele>
        <time>2022-05-09T07:00:23.000Z</time>
      </trkpt>
      <trkpt lat="50.43519" lon="3.66597">
        <ele>20.5</ele>
        <time>2022-05-09T07:00:26.096Z</time>
      </trkpt>
      <trkpt lat="50.43512" lon="3.66599">
        <ele>20.4</ele>
        <time>2022-05-09T07:00:28.498Z</time>
      </trkpt>
      <trkpt lat="50.43507" lon="3.66599">
        <ele>20.5</ele>
        <time>2022-05-09T07:00:30.954Z</time>
      </trkpt>
      <trkpt lat="50.435" lon="3.66599">
        <ele>20.4</ele>
        <time>2022-05-09T07:00:33.000Z</time>
      </trkpt>
      <trkpt lat="50.43495" lon="3.666">
        <ele>20.4</ele>
        <time>2022-05-09T07:00:35.514Z</time>
      </trkpt>
      <trkpt lat="50.43488" lon="3.66602">
        <ele>20.3</ele>
        <time>2022-05-09T07:00:38.000Z</time>
      </trkpt>
      <trkpt lat="50.4348" lon="3.66604">
        <ele>20.2</ele>
        <time>2022-05-09T07:00:40.000Z</time>
      </trkpt>
      <trkpt lat="50.43474" lon="3.66605">
        <ele>20.2</ele>
        <time>2022-05-09T07:00:42.035Z</time>
      </trkpt>
      <trkpt lat="50.43469" lon="3.66607">
        <ele>20.2</ele>
        <time>2022-05-09T07:00:43.000Z</time>
      </trkpt>
      <trkpt lat="50.43463" lon="3.66608">
        <ele>20.4</ele>
        <time>2022-05-09T07:00:45.000Z</time>
      </trkpt>
      <trkpt lat="50.43456" lon="3.6661">
        <ele>20.6</ele>
        <time>2022-05-09T07:00:47.397Z</time>
      </trkpt>
      <trkpt lat="50.4345" lon="3.66612">
        <ele>20.8</ele>
        <time>2022-05-09T07:00:48.913Z</time>
      </trkpt>
      <trkpt lat="50.43442" lon="3.66611">
        <ele>21</ele>
        <time>2022-05-09T07:00:51.000Z</time>
      </trkpt>
      <trkpt lat="50.43438" lon="3.66611">
        <ele>21</ele>
        <time>2022-05-09T07:00:53.000Z</time>
      </trkpt>
      <trkpt lat="50.43431" lon="3.66615">
        <ele>20.9</ele>
        <time>2022-05-09T07:00:56.994Z</time>
      </trkpt>
      <trkpt lat="50.43422" lon="3.66614">
        <ele>20.9</ele>
        <time>2022-05-09T07:01:00.000Z</time>
      </trkpt>
      <trkpt lat="50.43416" lon="3.66615">
        <ele>20.9</ele>
        <time>2022-05-09T07:01:02.000Z</time>
      </trkpt>
      <trkpt lat="50.43408" lon="3.66617">
        <ele>20.9</ele>
        <time>2022-05-09T07:01:04.776Z</time>
      </trkpt>
      <trkpt lat="50.43403" lon="3.66617">
        <ele>20.9</ele>
        <time>2022-05-09T07:01:05.997Z</time>
      </trkpt>
      <trkpt lat="50.43397" lon="3.66616">
        <ele>20.9</ele>
        <time>2022-05-09T07:01:07.915Z</time>
      </trkpt>
      <trkpt lat="50.43391" lon="3.66615">
        <ele>21</ele>
        <time>2022-05-09T07:01:10.000Z</time>
      </trkpt>
      <trkpt lat="50.43386" lon="3.66615">
        <ele>21</ele>
        <time>2022-05-09T07:01:12.000Z</time>
      </trkpt>
      <trkpt lat="50.43376" lon="3.66615">
        <ele>21</ele>
        <time>2022-05-09T07:01:15.434Z</time>
      </trkpt>
      <trkpt lat="50.43369" lon="3.66614">
        <ele>21</ele>
        <time>2022-05-09T07:01:17.873Z</time>
      </trkpt>
      <trkpt lat="50.43362" lon="3.66614">
        <ele>21</ele>
        <time>2022-05-09T07:01:20.000Z</time>
      </trkpt>
      <trkpt lat="50.43357" lon="3.66613">
        <ele>21</ele>
        <time>2022-05-09T07:01:21.000Z</time>
      </trkpt>
      <trkpt lat="50.43351" lon="3.66611">
        <ele>21</ele>
        <time>2022-05-09T07:01:23.695Z</time>
      </trkpt>
      <trkpt lat="50.43345" lon="3.6661">
        <ele>21</ele>
        <time>2022-05-09T07:01:25.933Z</time>
      </trkpt>
      <trkpt lat="50.43339" lon="3.66608">
        <ele>21</ele>
        <time>2022-05-09T07:01:28.017Z</time>
      </trkpt>
      <trkpt lat="50.43332" lon="3.66607">
        <ele>21</ele>
        <time>2022-05-09T07:01:30.000Z</time>
      </trkpt>
      <trkpt lat="50.43327" lon="3.66607">
        <ele>21</ele>
        <time>2022-05-09T07:01:31.556Z</time>
      </trkpt>
      <trkpt lat="50.43322" lon="3.66606">
        <ele>21</ele>
        <time>2022-05-09T07:01:33.072Z</time>
      </trkpt>
      <trkpt lat="50.43316" lon="3.66606">
        <ele>21</ele>
        <time>2022-05-09T07:01:35.137Z</time>
      </trkpt>
      <trkpt lat="50.43309" lon="3.66605">
        <ele>21</ele>
        <time>2022-05-09T07:01:44.896Z</time>
      </trkpt>
      <trkpt lat="50.43302" lon="3.66601">
        <ele>21</ele>
        <time>2022-05-09T07:01:47.000Z</time>
      </trkpt>
      <trkpt lat="50.43296" lon="3.66601">
        <ele>21</ele>
        <time>2022-05-09T07:01:50.033Z</time>
      </trkpt>
      <trkpt lat="50.43291" lon="3.66601">
        <ele>21</ele>
        <time>2022-05-09T07:01:52.000Z</time>
      </trkpt>
      <trkpt lat="50.43286" lon="3.66598">
        <ele>21</ele>
        <time>2022-05-09T07:01:55.000Z</time>
      </trkpt>
      <trkpt lat="50.4328" lon="3.66595">
        <ele>21</ele>
        <time>2022-05-09T07:02:00.000Z</time>
      </trkpt>
      <trkpt lat="50.43274" lon="3.66595">
        <ele>21</ele>
        <time>2022-05-09T07:02:20.000Z</time>
      </trkpt>
      <trkpt lat="50.43266" lon="3.66593">
        <ele>21</ele>
        <time>2022-05-09T07:02:22.094Z</time>
      </trkpt>
      <trkpt lat="50.4326" lon="3.66591">
        <ele>21</ele>
        <time>2022-05-09T07:02:23.000Z</time>
      </trkpt>
      <trkpt lat="50.43256" lon="3.66589">
        <ele>21</ele>
        <time>2022-05-09T07:02:25.000Z</time>
      </trkpt>
      <trkpt lat="50.4325" lon="3.66586">
        <ele>21</ele>
        <time>2022-05-09T07:02:27.000Z</time>
      </trkpt>
      <trkpt lat="50.43243" lon="3.66584">
        <ele>21</ele>
        <time>2022-05-09T07:02:28.954Z</time>
      </trkpt>
      <trkpt lat="50.43238" lon="3.66583">
        <ele>21</ele>
        <time>2022-05-09T07:02:30.894Z</time>
      </trkpt>
      <trkpt lat="50.4323" lon="3.66582">
        <ele>21</ele>
        <time>2022-05-09T07:02:34.115Z</time>
      </trkpt>
      <trkpt lat="50.43224" lon="3.66581">
        <ele>21</ele>
        <time>2022-05-09T07:02:36.000Z</time>
      </trkpt>
      <trkpt lat="50.4322" lon="3.6658">
        <ele>21</ele>
        <time>2022-05-09T07:02:37.877Z</time>
      </trkpt>
      <trkpt lat="50.43211" lon="3.66577">
        <ele>21</ele>
        <time>2022-05-09T07:02:40.137Z</time>
      </trkpt>
      <trkpt lat="50.43205" lon="3.66577">
        <ele>21</ele>
        <time>2022-05-09T07:02:43.000Z</time>
      </trkpt>
      <trkpt lat="50.43199" lon="3.66577">
        <ele>21</ele>
        <time>2022-05-09T07:02:45.000Z</time>
      </trkpt>
      <trkpt lat="50.43193" lon="3.6658">
        <ele>21</ele>
        <time>2022-05-09T07:02:47.715Z</time>
      </trkpt>
      <trkpt lat="50.43189" lon="3.66584">
        <ele>21</ele>
        <time>2022-05-09T07:02:49.000Z</time>
      </trkpt>
      <trkpt lat="50.43187" lon="3.6659">
        <ele>21</ele>
        <time>2022-05-09T07:02:50.534Z</time>
      </trkpt>
      <trkpt lat="50.43184" lon="3.666">
        <ele>21</ele>
        <time>2022-05-09T07:02:52.978Z</time>
      </trkpt>
      <trkpt lat="50.4318" lon="3.6661">
        <ele>21</ele>
        <time>2022-05-09T07:02:57.000Z</time>
      </trkpt>
      <trkpt lat="50.43176" lon="3.66621">
        <ele>21.2</ele>
        <time>2022-05-09T07:03:17.000Z</time>
      </trkpt>
      <trkpt lat="50.43172" lon="3.6663">
        <ele>21.5</ele>
        <time>2022-05-09T07:03:19.000Z</time>
      </trkpt>
      <trkpt lat="50.43171" lon="3.66638">
        <ele>21.8</ele>
        <time>2022-05-09T07:03:21.000Z</time>
      </trkpt>
      <trkpt lat="50.4317" lon="3.66646">
        <ele>21.7</ele>
        <time>2022-05-09T07:03:23.000Z</time>
      </trkpt>
      <trkpt lat="50.43165" lon="3.66657">
        <ele>21.3</ele>
        <time>2022-05-09T07:03:26.833Z</time>
      </trkpt>
      <trkpt lat="50.43163" lon="3.66665">
        <ele>21.1</ele>
        <time>2022-05-09T07:03:28.157Z</time>
      </trkpt>
      <trkpt lat="50.43158" lon="3.66678">
        <ele>21.1</ele>
        <time>2022-05-09T07:03:32.000Z</time>
      </trkpt>
      <trkpt lat="50.43156" lon="3.66687">
        <ele>21.3</ele>
        <time>2022-05-09T07:03:34.572Z</time>
      </trkpt>
      <trkpt lat="50.43152" lon="3.66696">
        <ele>21.5</ele>
        <time>2022-05-09T07:03:36.776Z</time>
      </trkpt>
      <trkpt lat="50.4315" lon="3.66705">
        <ele>21.6</ele>
        <time>2022-05-09T07:03:39.000Z</time>
      </trkpt>
      <trkpt lat="50.43148" lon="3.66714">
        <ele>21.7</ele>
        <time>2022-05-09T07:03:41.000Z</time>
      </trkpt>
      <trkpt lat="50.43145" lon="3.66722">
        <ele>21.8</ele>
        <time>2022-05-09T07:03:43.341Z</time>
      </trkpt>
      <trkpt lat="50.43144" lon="3.66729">
        <ele>21.8</ele>
        <time>2022-05-09T07:03:45.475Z</time>
      </trkpt>
      <trkpt lat="50.43142" lon="3.66736">
        <ele>21.9</ele>
        <time>2022-05-09T07:03:48.000Z</time>
      </trkpt>
      <trkpt lat="50.43141" lon="3.66743">
        <ele>21.9</ele>
        <time>2022-05-09T07:03:59.000Z</time>
      </trkpt>
      <trkpt lat="50.43139" lon="3.66749">
        <ele>22</ele>
        <time>2022-05-09T07:04:07.472Z</time>
      </trkpt>
      <trkpt lat="50.43136" lon="3.66758">
        <ele>21.6</ele>
        <time>2022-05-09T07:04:08.617Z</time>
      </trkpt>
      <trkpt lat="50.43133" lon="3.66769">
        <ele>21.3</ele>
        <time>2022-05-09T07:04:10.633Z</time>
      </trkpt>
      <trkpt lat="50.43131" lon="3.66776">
        <ele>21.1</ele>
        <time>2022-05-09T07:04:12.698Z</time>
      </trkpt>
      <trkpt lat="50.43128" lon="3.66785">
        <ele>21</ele>
        <time>2022-05-09T07:04:14.016Z</time>
      </trkpt>
      <trkpt lat="50.43126" lon="3.66793">
        <ele>21</ele>
        <time>2022-05-09T07:04:16.000Z</time>
      </trkpt>
      <trkpt lat="50.43123" lon="3.66801">
        <ele>21</ele>
        <time>2022-05-09T07:04:33.000Z</time>
      </trkpt>
      <trkpt lat="50.4312" lon="3.6681">
        <ele>21.1</ele>
        <time>2022-05-09T07:04:35.000Z</time>
      </trkpt>
      <trkpt lat="50.43118" lon="3.66817">
        <ele>21.3</ele>
        <time>2022-05-09T07:04:36.000Z</time>
      </trkpt>
      <trkpt lat="50.43116" lon="3.66823">
        <ele>21.5</ele>
        <time>2022-05-09T07:04:38.000Z</time>
      </trkpt>
      <trkpt lat="50.43112" lon="3.66838">
        <ele>22</ele>
        <time>2022-05-09T07:04:41.916Z</time>
      </trkpt>
      <trkpt lat="50.43109" lon="3.66846">
        <ele>21.9</ele>
        <time>2022-05-09T07:04:43.912Z</time>
      </trkpt>
      <trkpt lat="50.43107" lon="3.66854">
        <ele>21.9</ele>
        <time>2022-05-09T07:04:46.000Z</time>
      </trkpt>
      <trkpt lat="50.43103" lon="3.66864">
        <ele>21.8</ele>
        <time>2022-05-09T07:04:48.715Z</time>
      </trkpt>
      <trkpt lat="50.43101" lon="3.66871">
        <ele>21.8</ele>
        <time>2022-05-09T07:04:51.000Z</time>
      </trkpt>
      <trkpt lat="50.43098" lon="3.66877">
        <ele>21.8</ele>
        <time>2022-05-09T07:04:51.915Z</time>
      </trkpt>
      <trkpt lat="50.43096" lon="3.66885">
        <ele>21.9</ele>
        <time>2022-05-09T07:04:55.000Z</time>
      </trkpt>
      <trkpt lat="50.43092" lon="3.66892">
        <ele>22</ele>
        <time>2022-05-09T07:04:57.000Z</time>
      </trkpt>
      <trkpt lat="50.43088" lon="3.66896">
        <ele>22</ele>
        <time>2022-05-09T07:04:59.000Z</time>
      </trkpt>
      <trkpt lat="50.43083" lon="3.669">
        <ele>22</ele>
        <time>2022-05-09T07:05:01.538Z</time>
      </trkpt>
      <trkpt lat="50.43077" lon="3.66902">
        <ele>21.9</ele>
        <time>2022-05-09T07:05:03.457Z</time>
      </trkpt>
      <trkpt lat="50.43071" lon="3.66906">
        <ele>21.8</ele>
        <time>2022-05-09T07:05:05.756Z</time>
      </trkpt>
      <trkpt lat="50.43065" lon="3.6691">
        <ele>21.8</ele>
        <time>2022-05-09T07:05:08.094Z</time>
      </trkpt>
      <trkpt lat="50.43061" lon="3.66914">
        <ele>21.9</ele>
        <time>2022-05-09T07:05:10.000Z</time>
      </trkpt>
      <trkpt lat="50.43054" lon="3.6692">
        <ele>22</ele>
        <time>2022-05-09T07:05:12.733Z</time>
      </trkpt>
      <trkpt lat="50.43049" lon="3.66925">
        <ele>22</ele>
        <time>2022-05-09T07:05:14.653Z</time>
      </trkpt>
      <trkpt lat="50.43042" lon="3.6693">
        <ele>22</ele>
        <time>2022-05-09T07:05:17.514Z</time>
      </trkpt>
      <trkpt lat="50.43036" lon="3.66932">
        <ele>22</ele>
        <time>2022-05-09T07:05:19.000Z</time>
      </trkpt>
      <trkpt lat="50.4303" lon="3.66935">
        <ele>22</ele>
        <time>2022-05-09T07:05:22.177Z</time>
      </trkpt>
      <trkpt lat="50.43025" lon="3.66938">
        <ele>22</ele>
        <time>2022-05-09T07:05:24.735Z</time>
      </trkpt>
      <trkpt lat="50.4302" lon="3.66939">
        <ele>22</ele>
        <time>2022-05-09T07:05:27.389Z</time>
      </trkpt>
      <trkpt lat="50.43013" lon="3.6694">
        <ele>22</ele>
        <time>2022-05-09T07:05:30.000Z</time>
      </trkpt>
      <trkpt lat="50.43007" lon="3.66941">
        <ele>22</ele>
        <time>2022-05-09T07:05:32.000Z</time>
      </trkpt>
      <trkpt lat="50.43001" lon="3.66941">
        <ele>22</ele>
        <time>2022-05-09T07:05:34.000Z</time>
      </trkpt>
      <trkpt lat="50.42993" lon="3.66941">
        <ele>22</ele>
        <time>2022-05-09T07:05:37.000Z</time>
      </trkpt>
      <trkpt lat="50.42983" lon="3.66939">
        <ele>22</ele>
        <time>2022-05-09T07:05:39.833Z</time>
      </trkpt>
      <trkpt lat="50.42977" lon="3.6694">
        <ele>22</ele>
        <time>2022-05-09T07:05:42.000Z</time>
      </trkpt>
      <trkpt lat="50.42971" lon="3.66941">
        <ele>22</ele>
        <time>2022-05-09T07:05:44.120Z</time>
      </trkpt>
      <trkpt lat="50.42966" lon="3.66942">
        <ele>22</ele>
        <time>2022-05-09T07:05:45.916Z</time>
      </trkpt>
      <trkpt lat="50.42958" lon="3.66943">
        <ele>22</ele>
        <time>2022-05-09T07:05:48.455Z</time>
      </trkpt>
      <trkpt lat="50.42952" lon="3.66943">
        <ele>22</ele>
        <time>2022-05-09T07:05:49.954Z</time>
      </trkpt>
      <trkpt lat="50.42947" lon="3.66944">
        <ele>22</ele>
        <time>2022-05-09T07:05:52.000Z</time>
      </trkpt>
      <trkpt lat="50.42942" lon="3.66944">
        <ele>22</ele>
        <time>2022-05-09T07:05:53.156Z</time>
      </trkpt>
      <trkpt lat="50.42934" lon="3.66946">
        <ele>22</ele>
        <time>2022-05-09T07:05:56.000Z</time>
      </trkpt>
      <trkpt lat="50.4293" lon="3.66947">
        <ele>22</ele>
        <time>2022-05-09T07:05:57.433Z</time>
      </trkpt>
      <trkpt lat="50.42925" lon="3.66947">
        <ele>22</ele>
        <time>2022-05-09T07:05:59.797Z</time>
      </trkpt>
      <trkpt lat="50.42919" lon="3.66948">
        <ele>22</ele>
        <time>2022-05-09T07:06:02.174Z</time>
      </trkpt>
      <trkpt lat="50.42912" lon="3.66948">
        <ele>22</ele>
        <time>2022-05-09T07:06:09.000Z</time>
      </trkpt>
      <trkpt lat="50.42905" lon="3.6695">
        <ele>22</ele>
        <time>2022-05-09T07:06:11.000Z</time>
      </trkpt>
      <trkpt lat="50.42899" lon="3.66949">
        <ele>22</ele>
        <time>2022-05-09T07:06:13.012Z</time>
      </trkpt>
      <trkpt lat="50.42893" lon="3.66947">
        <ele>22</ele>
        <time>2022-05-09T07:06:14.496Z</time>
      </trkpt>
      <trkpt lat="50.42885" lon="3.66946">
        <ele>22</ele>
        <time>2022-05-09T07:06:17.000Z</time>
      </trkpt>
      <trkpt lat="50.42879" lon="3.66945">
        <ele>22</ele>
        <time>2022-05-09T07:06:19.000Z</time>
      </trkpt>
      <trkpt lat="50.42874" lon="3.66945">
        <ele>22</ele>
        <time>2022-05-09T07:06:21.000Z</time>
      </trkpt>
      <trkpt lat="50.42869" lon="3.66944">
        <ele>22</ele>
        <time>2022-05-09T07:06:22.000Z</time>
      </trkpt>
      <trkpt lat="50.42862" lon="3.66944">
        <ele>22</ele>
        <time>2022-05-09T07:06:24.016Z</time>
      </trkpt>
      <trkpt lat="50.42854" lon="3.66942">
        <ele>22</ele>
        <time>2022-05-09T07:06:27.113Z</time>
      </trkpt>
      <trkpt lat="50.42849" lon="3.6694">
        <ele>22</ele>
        <time>2022-05-09T07:06:28.596Z</time>
      </trkpt>
      <trkpt lat="50.42845" lon="3.6694">
        <ele>22</ele>
        <time>2022-05-09T07:06:31.000Z</time>
      </trkpt>
      <trkpt lat="50.42837" lon="3.6694">
        <ele>22</ele>
        <time>2022-05-09T07:06:34.000Z</time>
      </trkpt>
      <trkpt lat="50.42828" lon="3.66938">
        <ele>22</ele>
        <time>2022-05-09T07:06:36.494Z</time>
      </trkpt>
      <trkpt lat="50.42823" lon="3.66937">
        <ele>22</ele>
        <time>2022-05-09T07:06:38.000Z</time>
      </trkpt>
      <trkpt lat="50.42816" lon="3.66935">
        <ele>22</ele>
        <time>2022-05-09T07:06:41.054Z</time>
      </trkpt>
      <trkpt lat="50.42806" lon="3.66932">
        <ele>22</ele>
        <time>2022-05-09T07:06:44.695Z</time>
      </trkpt>
      <trkpt lat="50.428" lon="3.66931">
        <ele>22</ele>
        <time>2022-05-09T07:06:47.032Z</time>
      </trkpt>
      <trkpt lat="50.42794" lon="3.66929">
        <ele>22</ele>
        <time>2022-05-09T07:06:49.000Z</time>
      </trkpt>
      <trkpt lat="50.42788" lon="3.66927">
        <ele>22</ele>
        <time>2022-05-09T07:06:51.636Z</time>
      </trkpt>
      <trkpt lat="50.42782" lon="3.66926">
        <ele>22</ele>
        <time>2022-05-09T07:06:54.000Z</time>
      </trkpt>
      <trkpt lat="50.42776" lon="3.66925">
        <ele>22</ele>
        <time>2022-05-09T07:06:56.015Z</time>
      </trkpt>
      <trkpt lat="50.42771" lon="3.66923">
        <ele>22.2</ele>
        <time>2022-05-09T07:06:57.000Z</time>
      </trkpt>
      <trkpt lat="50.42766" lon="3.66921">
        <ele>22.4</ele>
        <time>2022-05-09T07:06:59.092Z</time>
      </trkpt>
      <trkpt lat="50.42759" lon="3.66918">
        <ele>22.7</ele>
        <time>2022-05-09T07:07:02.000Z</time>
      </trkpt>
      <trkpt lat="50.42752" lon="3.66914">
        <ele>22.9</ele>
        <time>2022-05-09T07:07:04.915Z</time>
      </trkpt>
      <trkpt lat="50.42746" lon="3.66909">
        <ele>22.6</ele>
        <time>2022-05-09T07:07:08.000Z</time>
      </trkpt>
      <trkpt lat="50.4274" lon="3.66907">
        <ele>22.4</ele>
        <time>2022-05-09T07:07:10.000Z</time>
      </trkpt>
      <trkpt lat="50.42735" lon="3.66903">
        <ele>22.2</ele>
        <time>2022-05-09T07:07:11.853Z</time>
      </trkpt>
      <trkpt lat="50.4273" lon="3.66903">
        <ele>22.1</ele>
        <time>2022-05-09T07:07:13.034Z</time>
      </trkpt>
      <trkpt lat="50.42724" lon="3.66899">
        <ele>22</ele>
        <time>2022-05-09T07:07:15.714Z</time>
      </trkpt>
      <trkpt lat="50.42716" lon="3.66895">
        <ele>22.2</ele>
        <time>2022-05-09T07:07:18.116Z</time>
      </trkpt>
      <trkpt lat="50.42709" lon="3.66894">
        <ele>22.4</ele>
        <time>2022-05-09T07:07:20.456Z</time>
      </trkpt>
      <trkpt lat="50.42704" lon="3.66894">
        <ele>22.5</ele>
        <time>2022-05-09T07:07:21.814Z</time>
      </trkpt>
      <trkpt lat="50.42699" lon="3.66896">
        <ele>22.6</ele>
        <time>2022-05-09T07:07:22.854Z</time>
      </trkpt>
      <trkpt lat="50.42693" lon="3.66896">
        <ele>22.8</ele>
        <time>2022-05-09T07:07:25.000Z</time>
      </trkpt>
      <trkpt lat="50.42687" lon="3.66896">
        <ele>22.8</ele>
        <time>2022-05-09T07:07:26.000Z</time>
      </trkpt>
      <trkpt lat="50.4268" lon="3.66896">
        <ele>22.8</ele>
        <time>2022-05-09T07:07:28.000Z</time>
      </trkpt>
      <trkpt lat="50.42675" lon="3.66896">
        <ele>22.7</ele>
        <time>2022-05-09T07:07:29.757Z</time>
      </trkpt>
      <trkpt lat="50.4267" lon="3.66897">
        <ele>22.7</ele>
        <time>2022-05-09T07:07:31.034Z</time>
      </trkpt>
      <trkpt lat="50.42661" lon="3.66898">
        <ele>22.7</ele>
        <time>2022-05-09T07:07:33.832Z</time>
      </trkpt>
      <trkpt lat="50.42654" lon="3.66896">
        <ele>22.7</ele>
        <time>2022-05-09T07:07:36.042Z</time>
      </trkpt>
      <trkpt lat="50.4265" lon="3.66897">
        <ele>22.7</ele>
        <time>2022-05-09T07:07:37.000Z</time>
      </trkpt>
      <trkpt lat="50.42645" lon="3.66898">
        <ele>22.7</ele>
        <time>2022-05-09T07:07:39.000Z</time>
      </trkpt>
      <trkpt lat="50.42637" lon="3.669">
        <ele>22.6</ele>
        <time>2022-05-09T07:07:41.000Z</time>
      </trkpt>
      <trkpt lat="50.42633" lon="3.669">
        <ele>22.6</ele>
        <time>2022-05-09T07:07:42.000Z</time>
      </trkpt>
      <trkpt lat="50.42627" lon="3.66899">
        <ele>22.5</ele>
        <time>2022-05-09T07:07:44.076Z</time>
      </trkpt>
      <trkpt lat="50.42621" lon="3.66901">
        <ele>22.5</ele>
        <time>2022-05-09T07:07:46.000Z</time>
      </trkpt>
      <trkpt lat="50.42613" lon="3.66902">
        <ele>22.5</ele>
        <time>2022-05-09T07:07:48.436Z</time>
      </trkpt>
      <trkpt lat="50.42609" lon="3.66904">
        <ele>22.6</ele>
        <time>2022-05-09T07:07:49.557Z</time>
      </trkpt>
      <trkpt lat="50.42603" lon="3.66905">
        <ele>22.7</ele>
        <time>2022-05-09T07:07:50.713Z</time>
      </trkpt>
      <trkpt lat="50.42595" lon="3.66905">
        <ele>22.8</ele>
        <time>2022-05-09T07:07:53.095Z</time>
      </trkpt>
      <trkpt lat="50.42589" lon="3.66905">
        <ele>22.9</ele>
        <time>2022-05-09T07:07:55.000Z</time>
      </trkpt>
      <trkpt lat="50.42582" lon="3.66906">
        <ele>23</ele>
        <time>2022-05-09T07:07:57.276Z</time>
      </trkpt>
      <trkpt lat="50.42577" lon="3.66906">
        <ele>23</ele>
        <time>2022-05-09T07:07:58.539Z</time>
      </trkpt>
      <trkpt lat="50.4257" lon="3.66909">
        <ele>23</ele>
        <time>2022-05-09T07:08:00.875Z</time>
      </trkpt>
      <trkpt lat="50.42564" lon="3.66909">
        <ele>23</ele>
        <time>2022-05-09T07:08:03.000Z</time>
      </trkpt>
      <trkpt lat="50.42558" lon="3.66909">
        <ele>23</ele>
        <time>2022-05-09T07:08:04.000Z</time>
      </trkpt>
      <trkpt lat="50.42551" lon="3.66911">
        <ele>23</ele>
        <time>2022-05-09T07:08:06.236Z</time>
      </trkpt>
      <trkpt lat="50.42543" lon="3.66912">
        <ele>23</ele>
        <time>2022-05-09T07:08:08.793Z</time>
      </trkpt>
      <trkpt lat="50.42539" lon="3.66913">
        <ele>23</ele>
        <time>2022-05-09T07:08:10.075Z</time>
      </trkpt>
      <trkpt lat="50.42534" lon="3.66914">
        <ele>23</ele>
        <time>2022-05-09T07:08:12.000Z</time>
      </trkpt>
      <trkpt lat="50.42529" lon="3.66914">
        <ele>23</ele>
        <time>2022-05-09T07:08:14.000Z</time>
      </trkpt>
      <trkpt lat="50.42524" lon="3.66915">
        <ele>23</ele>
        <time>2022-05-09T07:08:15.000Z</time>
      </trkpt>
      <trkpt lat="50.42517" lon="3.66915">
        <ele>23</ele>
        <time>2022-05-09T07:08:18.573Z</time>
      </trkpt>
      <trkpt lat="50.42509" lon="3.66914">
        <ele>23</ele>
        <time>2022-05-09T07:08:21.000Z</time>
      </trkpt>
      <trkpt lat="50.42501" lon="3.66912">
        <ele>23</ele>
        <time>2022-05-09T07:08:23.000Z</time>
      </trkpt>
      <trkpt lat="50.42497" lon="3.6691">
        <ele>23</ele>
        <time>2022-05-09T07:08:25.034Z</time>
      </trkpt>
      <trkpt lat="50.42489" lon="3.66909">
        <ele>23</ele>
        <time>2022-05-09T07:08:27.515Z</time>
      </trkpt>
      <trkpt lat="50.42482" lon="3.66907">
        <ele>23</ele>
        <time>2022-05-09T07:08:29.978Z</time>
      </trkpt>
      <trkpt lat="50.42476" lon="3.66907">
        <ele>23</ele>
        <time>2022-05-09T07:08:32.000Z</time>
      </trkpt>
      <trkpt lat="50.42467" lon="3.66903">
        <ele>23</ele>
        <time>2022-05-09T07:08:35.000Z</time>
      </trkpt>
      <trkpt lat="50.42461" lon="3.66901">
        <ele>23</ele>
        <time>2022-05-09T07:08:37.000Z</time>
      </trkpt>
      <trkpt lat="50.42455" lon="3.669">
        <ele>23</ele>
        <time>2022-05-09T07:08:39.000Z</time>
      </trkpt>
      <trkpt lat="50.42447" lon="3.66897">
        <ele>23</ele>
        <time>2022-05-09T07:08:41.000Z</time>
      </trkpt>
      <trkpt lat="50.42442" lon="3.66894">
        <ele>23</ele>
        <time>2022-05-09T07:08:44.176Z</time>
      </trkpt>
      <trkpt lat="50.42432" lon="3.66892">
        <ele>23</ele>
        <time>2022-05-09T07:08:47.355Z</time>
      </trkpt>
      <trkpt lat="50.42423" lon="3.6689">
        <ele>23</ele>
        <time>2022-05-09T07:08:50.135Z</time>
      </trkpt>
      <trkpt lat="50.42416" lon="3.66887">
        <ele>23</ele>
        <time>2022-05-09T07:08:53.000Z</time>
      </trkpt>
      <trkpt lat="50.42411" lon="3.66887">
        <ele>23</ele>
        <time>2022-05-09T07:08:55.455Z</time>
      </trkpt>
      <trkpt lat="50.42405" lon="3.66886">
        <ele>23</ele>
        <time>2022-05-09T07:08:58.033Z</time>
      </trkpt>
      <trkpt lat="50.42399" lon="3.66887">
        <ele>23</ele>
        <time>2022-05-09T07:09:00.000Z</time>
      </trkpt>
      <trkpt lat="50.42391" lon="3.66889">
        <ele>23</ele>
        <time>2022-05-09T07:09:03.000Z</time>
      </trkpt>
      <trkpt lat="50.42386" lon="3.6689">
        <ele>23</ele>
        <time>2022-05-09T07:09:04.834Z</time>
      </trkpt>
      <trkpt lat="50.42382" lon="3.66892">
        <ele>23</ele>
        <time>2022-05-09T07:09:06.191Z</time>
      </trkpt>
      <trkpt lat="50.42375" lon="3.66893">
        <ele>23</ele>
        <time>2022-05-09T07:09:08.000Z</time>
      </trkpt>
      <trkpt lat="50.4237" lon="3.66896">
        <ele>23</ele>
        <time>2022-05-09T07:09:09.971Z</time>
      </trkpt>
      <trkpt lat="50.42365" lon="3.66896">
        <ele>23</ele>
        <time>2022-05-09T07:09:11.000Z</time>
      </trkpt>
      <trkpt lat="50.42359" lon="3.66896">
        <ele>23</ele>
        <time>2022-05-09T07:09:13.000Z</time>
      </trkpt>
      <trkpt lat="50.4235" lon="3.66895">
        <ele>23</ele>
        <time>2022-05-09T07:09:15.000Z</time>
      </trkpt>
      <trkpt lat="50.42344" lon="3.66894">
        <ele>23</ele>
        <time>2022-05-09T07:09:17.000Z</time>
      </trkpt>
      <trkpt lat="50.42336" lon="3.66893">
        <ele>23</ele>
        <time>2022-05-09T07:09:19.000Z</time>
      </trkpt>
      <trkpt lat="50.42325" lon="3.66895">
        <ele>23.2</ele>
        <time>2022-05-09T07:09:22.000Z</time>
      </trkpt>
      <trkpt lat="50.4232" lon="3.66895">
        <ele>23.4</ele>
        <time>2022-05-09T07:09:23.000Z</time>
      </trkpt>
      <trkpt lat="50.42316" lon="3.66895">
        <ele>23.5</ele>
        <time>2022-05-09T07:09:25.000Z</time>
      </trkpt>
      <trkpt lat="50.4231" lon="3.66895">
        <ele>23.6</ele>
        <time>2022-05-09T07:09:26.000Z</time>
      </trkpt>
      <trkpt lat="50.42305" lon="3.66896">
        <ele>23.7</ele>
        <time>2022-05-09T07:09:27.000Z</time>
      </trkpt>
      <trkpt lat="50.42295" lon="3.66897">
        <ele>23.4</ele>
        <time>2022-05-09T07:09:30.000Z</time>
      </trkpt>
      <trkpt lat="50.42289" lon="3.669">
        <ele>23.2</ele>
        <time>2022-05-09T07:09:31.000Z</time>
      </trkpt>
      <trkpt lat="50.42285" lon="3.6691">
        <ele>23.1</ele>
        <time>2022-05-09T07:09:33.000Z</time>
      </trkpt>
      <trkpt lat="50.42282" lon="3.66923">
        <ele>23</ele>
        <time>2022-05-09T07:09:35.000Z</time>
      </trkpt>
      <trkpt lat="50.42281" lon="3.66931">
        <ele>23</ele>
        <time>2022-05-09T07:09:37.000Z</time>
      </trkpt>
      <trkpt lat="50.42284" lon="3.66929">
        <ele>23</ele>
        <time>2022-05-09T07:09:41.000Z</time>
      </trkpt>
      <trkpt lat="50.42285" lon="3.6692">
        <ele>23</ele>
        <time>2022-05-09T07:09:43.000Z</time>
      </trkpt>
      <trkpt lat="50.42286" lon="3.66912">
        <ele>23</ele>
        <time>2022-05-09T07:09:45.000Z</time>
      </trkpt>
      <trkpt lat="50.42289" lon="3.66905">
        <ele>23.2</ele>
        <time>2022-05-09T07:09:46.042Z</time>
      </trkpt>
      <trkpt lat="50.42293" lon="3.669">
        <ele>23.3</ele>
        <time>2022-05-09T07:09:47.000Z</time>
      </trkpt>
      <trkpt lat="50.42291" lon="3.6689">
        <ele>23.5</ele>
        <time>2022-05-09T07:09:49.000Z</time>
      </trkpt>
      <trkpt lat="50.42286" lon="3.66874">
        <ele>23.1</ele>
        <time>2022-05-09T07:09:51.396Z</time>
      </trkpt>
      <trkpt lat="50.42284" lon="3.66866">
        <ele>23</ele>
        <time>2022-05-09T07:09:52.576Z</time>
      </trkpt>
      <trkpt lat="50.42282" lon="3.6686">
        <ele>23</ele>
        <time>2022-05-09T07:09:53.796Z</time>
      </trkpt>
      <trkpt lat="50.4228" lon="3.66852">
        <ele>23</ele>
        <time>2022-05-09T07:09:55.000Z</time>
      </trkpt>
      <trkpt lat="50.42276" lon="3.66838">
        <ele>23</ele>
        <time>2022-05-09T07:09:57.954Z</time>
      </trkpt>
      <trkpt lat="50.42272" lon="3.66826">
        <ele>23.3</ele>
        <time>2022-05-09T07:10:00.558Z</time>
      </trkpt>
      <trkpt lat="50.4227" lon="3.6682">
        <ele>23.5</ele>
        <time>2022-05-09T07:10:01.593Z</time>
      </trkpt>
      <trkpt lat="50.42266" lon="3.6681">
        <ele>23.9</ele>
        <time>2022-05-09T07:10:04.095Z</time>
      </trkpt>
      <trkpt lat="50.42261" lon="3.66803">
        <ele>23.9</ele>
        <time>2022-05-09T07:10:06.000Z</time>
      </trkpt>
      <trkpt lat="50.42252" lon="3.66803">
        <ele>23.8</ele>
        <time>2022-05-09T07:10:11.000Z</time>
      </trkpt>
      <trkpt lat="50.42245" lon="3.66804">
        <ele>23.7</ele>
        <time>2022-05-09T07:10:14.000Z</time>
      </trkpt>
      <trkpt lat="50.42239" lon="3.668">
        <ele>23.5</ele>
        <time>2022-05-09T07:10:16.936Z</time>
      </trkpt>
      <trkpt lat="50.42234" lon="3.66797">
        <ele>23.3</ele>
        <time>2022-05-09T07:10:19.015Z</time>
      </trkpt>
      <trkpt lat="50.42224" lon="3.66792">
        <ele>23.4</ele>
        <time>2022-05-09T07:10:22.000Z</time>
      </trkpt>
      <trkpt lat="50.4222" lon="3.66791">
        <ele>23.6</ele>
        <time>2022-05-09T07:10:24.057Z</time>
      </trkpt>
      <trkpt lat="50.42215" lon="3.66792">
        <ele>23.6</ele>
        <time>2022-05-09T07:10:26.376Z</time>
      </trkpt>
      <trkpt lat="50.42209" lon="3.6679">
        <ele>23.8</ele>
        <time>2022-05-09T07:10:28.915Z</time>
      </trkpt>
      <trkpt lat="50.42204" lon="3.66791">
        <ele>23.8</ele>
        <time>2022-05-09T07:10:31.000Z</time>
      </trkpt>
      <trkpt lat="50.42197" lon="3.66794">
        <ele>23.8</ele>
        <time>2022-05-09T07:10:34.114Z</time>
      </trkpt>
      <trkpt lat="50.4219" lon="3.66794">
        <ele>24</ele>
        <time>2022-05-09T07:10:36.773Z</time>
      </trkpt>
      <trkpt lat="50.42184" lon="3.66795">
        <ele>24</ele>
        <time>2022-05-09T07:10:38.076Z</time>
      </trkpt>
      <trkpt lat="50.42178" lon="3.66796">
        <ele>24.1</ele>
        <time>2022-05-09T07:10:40.957Z</time>
      </trkpt>
      <trkpt lat="50.42172" lon="3.66797">
        <ele>24.2</ele>
        <time>2022-05-09T07:10:43.211Z</time>
      </trkpt>
      <trkpt lat="50.42165" lon="3.66798">
        <ele>24.3</ele>
        <time>2022-05-09T07:10:45.815Z</time>
      </trkpt>
      <trkpt lat="50.4216" lon="3.66799">
        <ele>24.4</ele>
        <time>2022-05-09T07:10:47.018Z</time>
      </trkpt>
      <trkpt lat="50.42154" lon="3.66798">
        <ele>24.6</ele>
        <time>2022-05-09T07:10:49.000Z</time>
      </trkpt>
      <trkpt lat="50.4215" lon="3.66799">
        <ele>24.7</ele>
        <time>2022-05-09T07:10:51.000Z</time>
      </trkpt>
      <trkpt lat="50.42142" lon="3.66798">
        <ele>24.9</ele>
        <time>2022-05-09T07:10:54.000Z</time>
      </trkpt>
      <trkpt lat="50.42137" lon="3.66798">
        <ele>25</ele>
        <time>2022-05-09T07:10:57.000Z</time>
      </trkpt>
      <trkpt lat="50.42137" lon="3.668">
        <ele>25</ele>
        <time>2022-05-09T07:11:04.084Z</time>
      </trkpt>
      <trkpt lat="50.42147" lon="3.668">
        <ele>24.8</ele>
        <time>2022-05-09T07:11:05.000Z</time>
      </trkpt>
      <trkpt lat="50.42153" lon="3.66801">
        <ele>24.6</ele>
        <time>2022-05-09T07:11:07.036Z</time>
      </trkpt>
      <trkpt lat="50.42155" lon="3.668">
        <ele>24.5</ele>
        <time>2022-05-09T07:11:11.552Z</time>
      </trkpt>
      <trkpt lat="50.42154" lon="3.6679">
        <ele>24.8</ele>
        <time>2022-05-09T07:11:16.917Z</time>
      </trkpt>
      <trkpt lat="50.42152" lon="3.6678">
        <ele>25</ele>
        <time>2022-05-09T07:11:22.000Z</time>
      </trkpt>
      <trkpt lat="50.42152" lon="3.66768">
        <ele>25</ele>
        <time>2022-05-09T07:11:25.000Z</time>
      </trkpt>
      <trkpt lat="50.42151" lon="3.66758">
        <ele>25</ele>
        <time>2022-05-09T07:11:27.233Z</time>
      </trkpt>
      <trkpt lat="50.42151" lon="3.66749">
        <ele>25</ele>
        <time>2022-05-09T07:11:29.797Z</time>
      </trkpt>
      <trkpt lat="50.4215" lon="3.66743">
        <ele>25</ele>
        <time>2022-05-09T07:11:31.932Z</time>
      </trkpt>
      <trkpt lat="50.42147" lon="3.6674">
        <ele>25</ele>
        <time>2022-05-09T07:11:35.836Z</time>
      </trkpt>
      <trkpt lat="50.42141" lon="3.6674">
        <ele>25</ele>
        <time>2022-05-09T07:11:38.433Z</time>
      </trkpt>
      <trkpt lat="50.42135" lon="3.66739">
        <ele>25</ele>
        <time>2022-05-09T07:11:40.455Z</time>
      </trkpt>
      <trkpt lat="50.42131" lon="3.6674">
        <ele>25</ele>
        <time>2022-05-09T07:11:42.755Z</time>
      </trkpt>
      <trkpt lat="50.42126" lon="3.66742">
        <ele>25</ele>
        <time>2022-05-09T07:11:45.000Z</time>
      </trkpt>
      <trkpt lat="50.42119" lon="3.66745">
        <ele>25</ele>
        <time>2022-05-09T07:11:47.676Z</time>
      </trkpt>
      <trkpt lat="50.42114" lon="3.66746">
        <ele>25</ele>
        <time>2022-05-09T07:11:49.054Z</time>
      </trkpt>
      <trkpt lat="50.42107" lon="3.66749">
        <ele>25</ele>
        <time>2022-05-09T07:11:51.000Z</time>
      </trkpt>
      <trkpt lat="50.42096" lon="3.66754">
        <ele>25</ele>
        <time>2022-05-09T07:11:53.836Z</time>
      </trkpt>
      <trkpt lat="50.42091" lon="3.66756">
        <ele>25</ele>
        <time>2022-05-09T07:11:55.000Z</time>
      </trkpt>
      <trkpt lat="50.42086" lon="3.66757">
        <ele>25</ele>
        <time>2022-05-09T07:11:56.897Z</time>
      </trkpt>
      <trkpt lat="50.4208" lon="3.66758">
        <ele>25</ele>
        <time>2022-05-09T07:11:58.493Z</time>
      </trkpt>
      <trkpt lat="50.42074" lon="3.66759">
        <ele>25</ele>
        <time>2022-05-09T07:11:59.553Z</time>
      </trkpt>
      <trkpt lat="50.42068" lon="3.66761">
        <ele>25</ele>
        <time>2022-05-09T07:12:01.796Z</time>
      </trkpt>
      <trkpt lat="50.42062" lon="3.66763">
        <ele>25</ele>
        <time>2022-05-09T07:12:02.758Z</time>
      </trkpt>
      <trkpt lat="50.42051" lon="3.66768">
        <ele>25</ele>
        <time>2022-05-09T07:12:06.000Z</time>
      </trkpt>
      <trkpt lat="50.42046" lon="3.66769">
        <ele>25</ele>
        <time>2022-05-09T07:12:07.855Z</time>
      </trkpt>
      <trkpt lat="50.42041" lon="3.6677">
        <ele>25</ele>
        <time>2022-05-09T07:12:08.973Z</time>
      </trkpt>
      <trkpt lat="50.42031" lon="3.66772">
        <ele>25</ele>
        <time>2022-05-09T07:12:11.013Z</time>
      </trkpt>
      <trkpt lat="50.42025" lon="3.66775">
        <ele>25</ele>
        <time>2022-05-09T07:12:13.000Z</time>
      </trkpt>
      <trkpt lat="50.4202" lon="3.66777">
        <ele>25</ele>
        <time>2022-05-09T07:12:14.078Z</time>
      </trkpt>
      <trkpt lat="50.42009" lon="3.66781">
        <ele>25</ele>
        <time>2022-05-09T07:12:16.995Z</time>
      </trkpt>
      <trkpt lat="50.42003" lon="3.66782">
        <ele>25</ele>
        <time>2022-05-09T07:12:19.000Z</time>
      </trkpt>
      <trkpt lat="50.41997" lon="3.66784">
        <ele>25</ele>
        <time>2022-05-09T07:12:20.000Z</time>
      </trkpt>
      <trkpt lat="50.41989" lon="3.66787">
        <ele>25</ele>
        <time>2022-05-09T07:12:22.000Z</time>
      </trkpt>
      <trkpt lat="50.41984" lon="3.66789">
        <ele>25</ele>
        <time>2022-05-09T07:12:24.000Z</time>
      </trkpt>
      <trkpt lat="50.41978" lon="3.66791">
        <ele>25</ele>
        <time>2022-05-09T07:12:25.936Z</time>
      </trkpt>
      <trkpt lat="50.41973" lon="3.66794">
        <ele>25</ele>
        <time>2022-05-09T07:12:27.073Z</time>
      </trkpt>
      <trkpt lat="50.41965" lon="3.66798">
        <ele>25</ele>
        <time>2022-05-09T07:12:29.000Z</time>
      </trkpt>
      <trkpt lat="50.41958" lon="3.668">
        <ele>25</ele>
        <time>2022-05-09T07:12:31.074Z</time>
      </trkpt>
      <trkpt lat="50.41952" lon="3.66803">
        <ele>25</ele>
        <time>2022-05-09T07:12:33.000Z</time>
      </trkpt>
      <trkpt lat="50.41945" lon="3.66807">
        <ele>25</ele>
        <time>2022-05-09T07:12:35.514Z</time>
      </trkpt>
      <trkpt lat="50.41939" lon="3.66811">
        <ele>25</ele>
        <time>2022-05-09T07:12:36.813Z</time>
      </trkpt>
      <trkpt lat="50.41934" lon="3.66813">
        <ele>25</ele>
        <time>2022-05-09T07:12:38.000Z</time>
      </trkpt>
      <trkpt lat="50.41929" lon="3.66816">
        <ele>25</ele>
        <time>2022-05-09T07:12:40.000Z</time>
      </trkpt>
      <trkpt lat="50.41924" lon="3.66819">
        <ele>25</ele>
        <time>2022-05-09T07:12:41.119Z</time>
      </trkpt>
      <trkpt lat="50.41917" lon="3.66824">
        <ele>25</ele>
        <time>2022-05-09T07:12:42.796Z</time>
      </trkpt>
      <trkpt lat="50.41912" lon="3.66827">
        <ele>25</ele>
        <time>2022-05-09T07:12:44.920Z</time>
      </trkpt>
      <trkpt lat="50.41904" lon="3.66832">
        <ele>25</ele>
        <time>2022-05-09T07:12:47.434Z</time>
      </trkpt>
      <trkpt lat="50.41893" lon="3.66836">
        <ele>25</ele>
        <time>2022-05-09T07:12:49.854Z</time>
      </trkpt>
      <trkpt lat="50.41886" lon="3.66837">
        <ele>24.9</ele>
        <time>2022-05-09T07:12:52.000Z</time>
      </trkpt>
      <trkpt lat="50.41878" lon="3.66842">
        <ele>24.7</ele>
        <time>2022-05-09T07:12:54.416Z</time>
      </trkpt>
      <trkpt lat="50.41871" lon="3.66848">
        <ele>24.7</ele>
        <time>2022-05-09T07:12:57.114Z</time>
      </trkpt>
      <trkpt lat="50.41866" lon="3.66851">
        <ele>24.7</ele>
        <time>2022-05-09T07:12:58.636Z</time>
      </trkpt>
      <trkpt lat="50.41861" lon="3.66853">
        <ele>24.7</ele>
        <time>2022-05-09T07:13:00.075Z</time>
      </trkpt>
      <trkpt lat="50.41854" lon="3.66856">
        <ele>24.8</ele>
        <time>2022-05-09T07:13:01.756Z</time>
      </trkpt>
      <trkpt lat="50.41847" lon="3.66862">
        <ele>25</ele>
        <time>2022-05-09T07:13:04.000Z</time>
      </trkpt>
      <trkpt lat="50.41841" lon="3.66865">
        <ele>25</ele>
        <time>2022-05-09T07:13:06.000Z</time>
      </trkpt>
      <trkpt lat="50.41835" lon="3.66868">
        <ele>25</ele>
        <time>2022-05-09T07:13:08.000Z</time>
      </trkpt>
      <trkpt lat="50.41827" lon="3.6687">
        <ele>25</ele>
        <time>2022-05-09T07:13:10.000Z</time>
      </trkpt>
      <trkpt lat="50.41816" lon="3.66875">
        <ele>25</ele>
        <time>2022-05-09T07:13:12.956Z</time>
      </trkpt>
      <trkpt lat="50.41812" lon="3.66877">
        <ele>25</ele>
        <time>2022-05-09T07:13:14.000Z</time>
      </trkpt>
      <trkpt lat="50.41808" lon="3.66879">
        <ele>25</ele>
        <time>2022-05-09T07:13:15.000Z</time>
      </trkpt>
      <trkpt lat="50.41803" lon="3.6688">
        <ele>25</ele>
        <time>2022-05-09T07:13:16.074Z</time>
      </trkpt>
      <trkpt lat="50.41795" lon="3.66885">
        <ele>24.9</ele>
        <time>2022-05-09T07:13:18.000Z</time>
      </trkpt>
      <trkpt lat="50.41789" lon="3.66889">
        <ele>25</ele>
        <time>2022-05-09T07:13:19.000Z</time>
      </trkpt>
      <trkpt lat="50.41784" lon="3.66889">
        <ele>25</ele>
        <time>2022-05-09T07:13:20.274Z</time>
      </trkpt>
      <trkpt lat="50.41775" lon="3.66895">
        <ele>25</ele>
        <time>2022-05-09T07:13:22.257Z</time>
      </trkpt>
      <trkpt lat="50.41767" lon="3.66899">
        <ele>25</ele>
        <time>2022-05-09T07:13:24.576Z</time>
      </trkpt>
      <trkpt lat="50.41757" lon="3.66902">
        <ele>25</ele>
        <time>2022-05-09T07:13:27.000Z</time>
      </trkpt>
      <trkpt lat="50.41751" lon="3.66904">
        <ele>25</ele>
        <time>2022-05-09T07:13:28.917Z</time>
      </trkpt>
      <trkpt lat="50.41745" lon="3.66907">
        <ele>24.9</ele>
        <time>2022-05-09T07:13:31.055Z</time>
      </trkpt>
      <trkpt lat="50.41739" lon="3.66911">
        <ele>24.9</ele>
        <time>2022-05-09T07:13:32.034Z</time>
      </trkpt>
      <trkpt lat="50.41732" lon="3.66916">
        <ele>25</ele>
        <time>2022-05-09T07:13:34.000Z</time>
      </trkpt>
      <trkpt lat="50.41725" lon="3.66919">
        <ele>25</ele>
        <time>2022-05-09T07:13:35.851Z</time>
      </trkpt>
      <trkpt lat="50.41721" lon="3.6692">
        <ele>25</ele>
        <time>2022-05-09T07:13:37.000Z</time>
      </trkpt>
      <trkpt lat="50.41712" lon="3.66922">
        <ele>25</ele>
        <time>2022-05-09T07:13:39.857Z</time>
      </trkpt>
      <trkpt lat="50.41708" lon="3.66925">
        <ele>25</ele>
        <time>2022-05-09T07:13:41.000Z</time>
      </trkpt>
      <trkpt lat="50.41701" lon="3.66929">
        <ele>25</ele>
        <time>2022-05-09T07:13:42.914Z</time>
      </trkpt>
      <trkpt lat="50.41693" lon="3.66933">
        <ele>25</ele>
        <time>2022-05-09T07:13:45.112Z</time>
      </trkpt>
      <trkpt lat="50.41688" lon="3.66936">
        <ele>24.9</ele>
        <time>2022-05-09T07:13:46.812Z</time>
      </trkpt>
      <trkpt lat="50.41683" lon="3.66938">
        <ele>24.9</ele>
        <time>2022-05-09T07:13:47.874Z</time>
      </trkpt>
      <trkpt lat="50.41676" lon="3.66941">
        <ele>24.9</ele>
        <time>2022-05-09T07:13:50.236Z</time>
      </trkpt>
      <trkpt lat="50.41671" lon="3.66944">
        <ele>25</ele>
        <time>2022-05-09T07:13:51.513Z</time>
      </trkpt>
      <trkpt lat="50.41664" lon="3.66949">
        <ele>25</ele>
        <time>2022-05-09T07:13:54.033Z</time>
      </trkpt>
      <trkpt lat="50.41656" lon="3.66953">
        <ele>25</ele>
        <time>2022-05-09T07:13:56.000Z</time>
      </trkpt>
      <trkpt lat="50.41649" lon="3.66957">
        <ele>25</ele>
        <time>2022-05-09T07:13:58.555Z</time>
      </trkpt>
      <trkpt lat="50.41643" lon="3.6696">
        <ele>25</ele>
        <time>2022-05-09T07:14:00.000Z</time>
      </trkpt>
      <trkpt lat="50.41637" lon="3.66965">
        <ele>25</ele>
        <time>2022-05-09T07:14:02.113Z</time>
      </trkpt>
      <trkpt lat="50.41632" lon="3.66967">
        <ele>25</ele>
        <time>2022-05-09T07:14:03.775Z</time>
      </trkpt>
      <trkpt lat="50.41625" lon="3.6697">
        <ele>24.9</ele>
        <time>2022-05-09T07:14:05.000Z</time>
      </trkpt>
      <trkpt lat="50.41618" lon="3.66974">
        <ele>25</ele>
        <time>2022-05-09T07:14:07.356Z</time>
      </trkpt>
      <trkpt lat="50.41612" lon="3.66977">
        <ele>25</ele>
        <time>2022-05-09T07:14:09.000Z</time>
      </trkpt>
      <trkpt lat="50.41607" lon="3.66979">
        <ele>25</ele>
        <time>2022-05-09T07:14:11.052Z</time>
      </trkpt>
      <trkpt lat="50.41602" lon="3.66981">
        <ele>25</ele>
        <time>2022-05-09T07:14:12.000Z</time>
      </trkpt>
      <trkpt lat="50.41597" lon="3.66983">
        <ele>25</ele>
        <time>2022-05-09T07:14:13.895Z</time>
      </trkpt>
      <trkpt lat="50.41592" lon="3.66987">
        <ele>25</ele>
        <time>2022-05-09T07:14:15.000Z</time>
      </trkpt>
      <trkpt lat="50.41582" lon="3.66989">
        <ele>25</ele>
        <time>2022-05-09T07:14:17.857Z</time>
      </trkpt>
      <trkpt lat="50.41577" lon="3.66991">
        <ele>24.9</ele>
        <time>2022-05-09T07:14:18.974Z</time>
      </trkpt>
      <trkpt lat="50.41571" lon="3.66995">
        <ele>24.9</ele>
        <time>2022-05-09T07:14:21.000Z</time>
      </trkpt>
      <trkpt lat="50.41563" lon="3.67002">
        <ele>25</ele>
        <time>2022-05-09T07:14:22.955Z</time>
      </trkpt>
      <trkpt lat="50.41555" lon="3.67005">
        <ele>25</ele>
        <time>2022-05-09T07:14:25.000Z</time>
      </trkpt>
      <trkpt lat="50.41545" lon="3.67011">
        <ele>25</ele>
        <time>2022-05-09T07:14:27.738Z</time>
      </trkpt>
      <trkpt lat="50.41539" lon="3.67014">
        <ele>25</ele>
        <time>2022-05-09T07:14:29.917Z</time>
      </trkpt>
      <trkpt lat="50.41533" lon="3.67017">
        <ele>25</ele>
        <time>2022-05-09T07:14:32.000Z</time>
      </trkpt>
      <trkpt lat="50.41526" lon="3.6702">
        <ele>25</ele>
        <time>2022-05-09T07:14:34.000Z</time>
      </trkpt>
      <trkpt lat="50.4152" lon="3.67021">
        <ele>25</ele>
        <time>2022-05-09T07:14:35.975Z</time>
      </trkpt>
      <trkpt lat="50.41511" lon="3.67026">
        <ele>25</ele>
        <time>2022-05-09T07:14:38.079Z</time>
      </trkpt>
      <trkpt lat="50.41504" lon="3.67028">
        <ele>25</ele>
        <time>2022-05-09T07:14:40.112Z</time>
      </trkpt>
      <trkpt lat="50.41497" lon="3.67029">
        <ele>25</ele>
        <time>2022-05-09T07:14:42.000Z</time>
      </trkpt>
      <trkpt lat="50.41487" lon="3.67032">
        <ele>25</ele>
        <time>2022-05-09T07:14:45.000Z</time>
      </trkpt>
      <trkpt lat="50.41482" lon="3.67036">
        <ele>25</ele>
        <time>2022-05-09T07:14:46.000Z</time>
      </trkpt>
      <trkpt lat="50.41472" lon="3.6704">
        <ele>25</ele>
        <time>2022-05-09T07:14:49.000Z</time>
      </trkpt>
      <trkpt lat="50.41467" lon="3.67041">
        <ele>25</ele>
        <time>2022-05-09T07:14:50.000Z</time>
      </trkpt>
      <trkpt lat="50.41464" lon="3.67045">
        <ele>25</ele>
        <time>2022-05-09T07:14:52.000Z</time>
      </trkpt>
      <trkpt lat="50.4146" lon="3.67048">
        <ele>25</ele>
        <time>2022-05-09T07:14:53.234Z</time>
      </trkpt>
      <trkpt lat="50.41455" lon="3.67052">
        <ele>25</ele>
        <time>2022-05-09T07:14:54.937Z</time>
      </trkpt>
      <trkpt lat="50.41449" lon="3.67058">
        <ele>25</ele>
        <time>2022-05-09T07:14:57.000Z</time>
      </trkpt>
      <trkpt lat="50.41443" lon="3.67061">
        <ele>25</ele>
        <time>2022-05-09T07:14:58.932Z</time>
      </trkpt>
      <trkpt lat="50.41437" lon="3.67062">
        <ele>25</ele>
        <time>2022-05-09T07:15:01.075Z</time>
      </trkpt>
      <trkpt lat="50.41428" lon="3.67065">
        <ele>25</ele>
        <time>2022-05-09T07:15:04.000Z</time>
      </trkpt>
      <trkpt lat="50.41424" lon="3.67068">
        <ele>25</ele>
        <time>2022-05-09T07:15:06.096Z</time>
      </trkpt>
      <trkpt lat="50.41418" lon="3.67071">
        <ele>25</ele>
        <time>2022-05-09T07:15:08.000Z</time>
      </trkpt>
      <trkpt lat="50.41412" lon="3.67076">
        <ele>25.1</ele>
        <time>2022-05-09T07:15:10.000Z</time>
      </trkpt>
      <trkpt lat="50.41408" lon="3.67079">
        <ele>25.3</ele>
        <time>2022-05-09T07:15:12.000Z</time>
      </trkpt>
      <trkpt lat="50.414" lon="3.67083">
        <ele>25.6</ele>
        <time>2022-05-09T07:15:14.955Z</time>
      </trkpt>
      <trkpt lat="50.41393" lon="3.67086">
        <ele>25.9</ele>
        <time>2022-05-09T07:15:17.000Z</time>
      </trkpt>
      <trkpt lat="50.41385" lon="3.67091">
        <ele>25.9</ele>
        <time>2022-05-09T07:15:19.053Z</time>
      </trkpt>
      <trkpt lat="50.41379" lon="3.67094">
        <ele>25.8</ele>
        <time>2022-05-09T07:15:21.000Z</time>
      </trkpt>
      <trkpt lat="50.41373" lon="3.67095">
        <ele>25.7</ele>
        <time>2022-05-09T07:15:22.472Z</time>
      </trkpt>
      <trkpt lat="50.41368" lon="3.67096">
        <ele>25.6</ele>
        <time>2022-05-09T07:15:23.774Z</time>
      </trkpt>
      <trkpt lat="50.41363" lon="3.67097">
        <ele>25.5</ele>
        <time>2022-05-09T07:15:25.000Z</time>
      </trkpt>
      <trkpt lat="50.41355" lon="3.671">
        <ele>25.6</ele>
        <time>2022-05-09T07:15:27.000Z</time>
      </trkpt>
      <trkpt lat="50.41347" lon="3.67104">
        <ele>25.8</ele>
        <time>2022-05-09T07:15:29.000Z</time>
      </trkpt>
      <trkpt lat="50.4134" lon="3.67109">
        <ele>25.9</ele>
        <time>2022-05-09T07:15:31.000Z</time>
      </trkpt>
      <trkpt lat="50.41335" lon="3.67111">
        <ele>26</ele>
        <time>2022-05-09T07:15:32.112Z</time>
      </trkpt>
      <trkpt lat="50.41327" lon="3.67115">
        <ele>26</ele>
        <time>2022-05-09T07:15:34.000Z</time>
      </trkpt>
      <trkpt lat="50.41318" lon="3.6712">
        <ele>26.2</ele>
        <time>2022-05-09T07:15:36.000Z</time>
      </trkpt>
      <trkpt lat="50.4131" lon="3.67123">
        <ele>26.4</ele>
        <time>2022-05-09T07:15:38.000Z</time>
      </trkpt>
      <trkpt lat="50.41304" lon="3.67125">
        <ele>26.4</ele>
        <time>2022-05-09T07:15:39.000Z</time>
      </trkpt>
      <trkpt lat="50.41297" lon="3.67127">
        <ele>26.3</ele>
        <time>2022-05-09T07:15:41.000Z</time>
      </trkpt>
      <trkpt lat="50.4129" lon="3.6713">
        <ele>26.1</ele>
        <time>2022-05-09T07:15:43.000Z</time>
      </trkpt>
      <trkpt lat="50.41278" lon="3.67134">
        <ele>25.8</ele>
        <time>2022-05-09T07:15:46.000Z</time>
      </trkpt>
      <trkpt lat="50.4127" lon="3.67136">
        <ele>25.9</ele>
        <time>2022-05-09T07:15:48.000Z</time>
      </trkpt>
      <trkpt lat="50.41263" lon="3.67139">
        <ele>26</ele>
        <time>2022-05-09T07:15:50.000Z</time>
      </trkpt>
      <trkpt lat="50.41256" lon="3.67144">
        <ele>26</ele>
        <time>2022-05-09T07:15:52.000Z</time>
      </trkpt>
      <trkpt lat="50.41247" lon="3.67148">
        <ele>26</ele>
        <time>2022-05-09T07:15:54.000Z</time>
      </trkpt>
      <trkpt lat="50.41239" lon="3.67152">
        <ele>26</ele>
        <time>2022-05-09T07:15:56.000Z</time>
      </trkpt>
      <trkpt lat="50.41231" lon="3.67155">
        <ele>26</ele>
        <time>2022-05-09T07:15:58.000Z</time>
      </trkpt>
      <trkpt lat="50.41223" lon="3.67159">
        <ele>26</ele>
        <time>2022-05-09T07:16:00.000Z</time>
      </trkpt>
      <trkpt lat="50.41214" lon="3.67163">
        <ele>26</ele>
        <time>2022-05-09T07:16:02.000Z</time>
      </trkpt>
      <trkpt lat="50.41206" lon="3.67167">
        <ele>26</ele>
        <time>2022-05-09T07:16:04.000Z</time>
      </trkpt>
      <trkpt lat="50.41199" lon="3.6717">
        <ele>26.1</ele>
        <time>2022-05-09T07:16:06.000Z</time>
      </trkpt>
      <trkpt lat="50.41195" lon="3.67172">
        <ele>26.2</ele>
        <time>2022-05-09T07:16:07.000Z</time>
      </trkpt>
      <trkpt lat="50.41187" lon="3.67175">
        <ele>26.2</ele>
        <time>2022-05-09T07:16:09.000Z</time>
      </trkpt>
      <trkpt lat="50.41179" lon="3.67179">
        <ele>26.2</ele>
        <time>2022-05-09T07:16:11.000Z</time>
      </trkpt>
      <trkpt lat="50.41172" lon="3.67183">
        <ele>26.1</ele>
        <time>2022-05-09T07:16:13.000Z</time>
      </trkpt>
      <trkpt lat="50.41167" lon="3.67186">
        <ele>26</ele>
        <time>2022-05-09T07:16:14.000Z</time>
      </trkpt>
      <trkpt lat="50.41159" lon="3.67191">
        <ele>26</ele>
        <time>2022-05-09T07:16:16.000Z</time>
      </trkpt>
      <trkpt lat="50.41154" lon="3.67192">
        <ele>26</ele>
        <time>2022-05-09T07:16:17.000Z</time>
      </trkpt>
      <trkpt lat="50.41146" lon="3.67195">
        <ele>26</ele>
        <time>2022-05-09T07:16:19.000Z</time>
      </trkpt>
      <trkpt lat="50.41138" lon="3.67197">
        <ele>26</ele>
        <time>2022-05-09T07:16:21.000Z</time>
      </trkpt>
      <trkpt lat="50.41127" lon="3.67202">
        <ele>26</ele>
        <time>2022-05-09T07:16:23.000Z</time>
      </trkpt>
      <trkpt lat="50.4112" lon="3.67206">
        <ele>26</ele>
        <time>2022-05-09T07:16:25.000Z</time>
      </trkpt>
      <trkpt lat="50.41112" lon="3.67211">
        <ele>26</ele>
        <time>2022-05-09T07:16:27.000Z</time>
      </trkpt>
      <trkpt lat="50.41107" lon="3.67215">
        <ele>26</ele>
        <time>2022-05-09T07:16:28.000Z</time>
      </trkpt>
      <trkpt lat="50.41101" lon="3.67218">
        <ele>26</ele>
        <time>2022-05-09T07:16:29.000Z</time>
      </trkpt>
      <trkpt lat="50.41094" lon="3.67223">
        <ele>26</ele>
        <time>2022-05-09T07:16:31.000Z</time>
      </trkpt>
      <trkpt lat="50.41086" lon="3.67226">
        <ele>26.1</ele>
        <time>2022-05-09T07:16:33.000Z</time>
      </trkpt>
      <trkpt lat="50.4108" lon="3.67227">
        <ele>26.2</ele>
        <time>2022-05-09T07:16:34.000Z</time>
      </trkpt>
      <trkpt lat="50.41072" lon="3.6723">
        <ele>26.2</ele>
        <time>2022-05-09T07:16:36.000Z</time>
      </trkpt>
      <trkpt lat="50.41064" lon="3.67235">
        <ele>26.1</ele>
        <time>2022-05-09T07:16:38.000Z</time>
      </trkpt>
      <trkpt lat="50.41055" lon="3.67238">
        <ele>26</ele>
        <time>2022-05-09T07:16:40.000Z</time>
      </trkpt>
      <trkpt lat="50.41049" lon="3.67241">
        <ele>26</ele>
        <time>2022-05-09T07:16:41.965Z</time>
      </trkpt>
      <trkpt lat="50.41042" lon="3.67244">
        <ele>26</ele>
        <time>2022-05-09T07:16:43.000Z</time>
      </trkpt>
      <trkpt lat="50.41037" lon="3.67246">
        <ele>26</ele>
        <time>2022-05-09T07:16:44.000Z</time>
      </trkpt>
      <trkpt lat="50.4103" lon="3.67251">
        <ele>26</ele>
        <time>2022-05-09T07:16:46.000Z</time>
      </trkpt>
      <trkpt lat="50.41022" lon="3.67255">
        <ele>26.2</ele>
        <time>2022-05-09T07:16:48.000Z</time>
      </trkpt>
      <trkpt lat="50.41018" lon="3.67256">
        <ele>26.2</ele>
        <time>2022-05-09T07:16:49.000Z</time>
      </trkpt>
      <trkpt lat="50.41013" lon="3.67258">
        <ele>26.3</ele>
        <time>2022-05-09T07:16:50.000Z</time>
      </trkpt>
      <trkpt lat="50.41008" lon="3.6726">
        <ele>26.4</ele>
        <time>2022-05-09T07:16:51.000Z</time>
      </trkpt>
      <trkpt lat="50.40999" lon="3.67265">
        <ele>26.5</ele>
        <time>2022-05-09T07:16:53.000Z</time>
      </trkpt>
      <trkpt lat="50.40994" lon="3.67267">
        <ele>26.7</ele>
        <time>2022-05-09T07:16:54.000Z</time>
      </trkpt>
      <trkpt lat="50.40987" lon="3.6727">
        <ele>26.9</ele>
        <time>2022-05-09T07:16:56.000Z</time>
      </trkpt>
      <trkpt lat="50.4098" lon="3.67275">
        <ele>27</ele>
        <time>2022-05-09T07:16:58.000Z</time>
      </trkpt>
      <trkpt lat="50.40971" lon="3.6728">
        <ele>27</ele>
        <time>2022-05-09T07:17:00.000Z</time>
      </trkpt>
      <trkpt lat="50.40962" lon="3.67282">
        <ele>27</ele>
        <time>2022-05-09T07:17:02.000Z</time>
      </trkpt>
      <trkpt lat="50.40957" lon="3.67283">
        <ele>27</ele>
        <time>2022-05-09T07:17:03.000Z</time>
      </trkpt>
      <trkpt lat="50.4095" lon="3.67286">
        <ele>27</ele>
        <time>2022-05-09T07:17:05.000Z</time>
      </trkpt>
      <trkpt lat="50.40945" lon="3.67287">
        <ele>27</ele>
        <time>2022-05-09T07:17:06.125Z</time>
      </trkpt>
      <trkpt lat="50.40938" lon="3.6729">
        <ele>27</ele>
        <time>2022-05-09T07:17:07.983Z</time>
      </trkpt>
      <trkpt lat="50.40933" lon="3.67292">
        <ele>27</ele>
        <time>2022-05-09T07:17:09.000Z</time>
      </trkpt>
      <trkpt lat="50.40924" lon="3.67295">
        <ele>27</ele>
        <time>2022-05-09T07:17:11.000Z</time>
      </trkpt>
      <trkpt lat="50.40919" lon="3.67297">
        <ele>27</ele>
        <time>2022-05-09T07:17:13.184Z</time>
      </trkpt>
      <trkpt lat="50.40909" lon="3.673">
        <ele>27</ele>
        <time>2022-05-09T07:17:16.000Z</time>
      </trkpt>
      <trkpt lat="50.40903" lon="3.673">
        <ele>27</ele>
        <time>2022-05-09T07:17:17.663Z</time>
      </trkpt>
      <trkpt lat="50.40895" lon="3.67303">
        <ele>27</ele>
        <time>2022-05-09T07:17:19.904Z</time>
      </trkpt>
      <trkpt lat="50.4089" lon="3.67303">
        <ele>27</ele>
        <time>2022-05-09T07:17:21.049Z</time>
      </trkpt>
      <trkpt lat="50.40883" lon="3.67303">
        <ele>27</ele>
        <time>2022-05-09T07:17:23.045Z</time>
      </trkpt>
      <trkpt lat="50.40874" lon="3.67305">
        <ele>27</ele>
        <time>2022-05-09T07:17:25.000Z</time>
      </trkpt>
      <trkpt lat="50.40865" lon="3.67305">
        <ele>27</ele>
        <time>2022-05-09T07:17:27.063Z</time>
      </trkpt>
      <trkpt lat="50.40857" lon="3.67307">
        <ele>27.1</ele>
        <time>2022-05-09T07:17:29.000Z</time>
      </trkpt>
      <trkpt lat="50.40852" lon="3.67306">
        <ele>27.3</ele>
        <time>2022-05-09T07:17:30.664Z</time>
      </trkpt>
      <trkpt lat="50.40846" lon="3.67306">
        <ele>27.5</ele>
        <time>2022-05-09T07:17:33.085Z</time>
      </trkpt>
      <trkpt lat="50.40839" lon="3.67311">
        <ele>27.6</ele>
        <time>2022-05-09T07:17:35.000Z</time>
      </trkpt>
      <trkpt lat="50.40833" lon="3.67313">
        <ele>27.8</ele>
        <time>2022-05-09T07:17:37.000Z</time>
      </trkpt>
      <trkpt lat="50.40825" lon="3.67315">
        <ele>27.8</ele>
        <time>2022-05-09T07:17:39.521Z</time>
      </trkpt>
      <trkpt lat="50.4082" lon="3.67316">
        <ele>27.8</ele>
        <time>2022-05-09T07:17:40.843Z</time>
      </trkpt>
      <trkpt lat="50.40815" lon="3.67317">
        <ele>27.9</ele>
        <time>2022-05-09T07:17:41.985Z</time>
      </trkpt>
      <trkpt lat="50.40809" lon="3.67317">
        <ele>27.9</ele>
        <time>2022-05-09T07:17:43.723Z</time>
      </trkpt>
      <trkpt lat="50.40804" lon="3.67317">
        <ele>28</ele>
        <time>2022-05-09T07:17:45.124Z</time>
      </trkpt>
      <trkpt lat="50.40798" lon="3.67317">
        <ele>28</ele>
        <time>2022-05-09T07:17:46.585Z</time>
      </trkpt>
      <trkpt lat="50.40791" lon="3.6732">
        <ele>28</ele>
        <time>2022-05-09T07:17:48.582Z</time>
      </trkpt>
      <trkpt lat="50.40787" lon="3.67322">
        <ele>28</ele>
        <time>2022-05-09T07:17:51.000Z</time>
      </trkpt>
      <trkpt lat="50.40779" lon="3.67322">
        <ele>28</ele>
        <time>2022-05-09T07:17:53.000Z</time>
      </trkpt>
      <trkpt lat="50.40772" lon="3.67322">
        <ele>28.5</ele>
        <time>2022-05-09T07:17:56.000Z</time>
      </trkpt>
      <trkpt lat="50.40767" lon="3.67324">
        <ele>29</ele>
        <time>2022-05-09T07:17:58.000Z</time>
      </trkpt>
      <trkpt lat="50.40763" lon="3.67325">
        <ele>29.5</ele>
        <time>2022-05-09T07:18:01.000Z</time>
      </trkpt>
      <trkpt lat="50.40752" lon="3.67336">
        <ele>30.6</ele>
        <time>2022-05-09T07:18:05.121Z</time>
      </trkpt>
      <trkpt lat="50.40744" lon="3.67338">
        <ele>30</ele>
        <time>2022-05-09T07:18:06.707Z</time>
      </trkpt>
      <trkpt lat="50.40738" lon="3.67337">
        <ele>29.5</ele>
        <time>2022-05-09T07:18:08.104Z</time>
      </trkpt>
      <trkpt lat="50.40728" lon="3.67334">
        <ele>28.6</ele>
        <time>2022-05-09T07:18:10.000Z</time>
      </trkpt>
      <trkpt lat="50.40723" lon="3.67333">
        <ele>28.1</ele>
        <time>2022-05-09T07:18:11.000Z</time>
      </trkpt>
      <trkpt lat="50.40717" lon="3.67334">
        <ele>27.8</ele>
        <time>2022-05-09T07:18:13.000Z</time>
      </trkpt>
      <trkpt lat="50.40713" lon="3.67333">
        <ele>27.7</ele>
        <time>2022-05-09T07:18:14.000Z</time>
      </trkpt>
      <trkpt lat="50.40708" lon="3.67331">
        <ele>27.5</ele>
        <time>2022-05-09T07:18:16.000Z</time>
      </trkpt>
      <trkpt lat="50.40703" lon="3.67327">
        <ele>27.4</ele>
        <time>2022-05-09T07:18:17.000Z</time>
      </trkpt>
      <trkpt lat="50.40698" lon="3.67323">
        <ele>27.4</ele>
        <time>2022-05-09T07:18:19.000Z</time>
      </trkpt>
      <trkpt lat="50.40694" lon="3.6732">
        <ele>27.5</ele>
        <time>2022-05-09T07:18:20.000Z</time>
      </trkpt>
      <trkpt lat="50.40689" lon="3.67316">
        <ele>27.8</ele>
        <time>2022-05-09T07:18:22.000Z</time>
      </trkpt>
      <trkpt lat="50.40684" lon="3.67313">
        <ele>27.9</ele>
        <time>2022-05-09T07:18:23.000Z</time>
      </trkpt>
      <trkpt lat="50.40675" lon="3.6731">
        <ele>28.1</ele>
        <time>2022-05-09T07:18:25.000Z</time>
      </trkpt>
      <trkpt lat="50.40668" lon="3.67307">
        <ele>28</ele>
        <time>2022-05-09T07:18:27.000Z</time>
      </trkpt>
      <trkpt lat="50.40663" lon="3.67305">
        <ele>27.9</ele>
        <time>2022-05-09T07:18:28.000Z</time>
      </trkpt>
      <trkpt lat="50.40655" lon="3.67302">
        <ele>27.7</ele>
        <time>2022-05-09T07:18:30.000Z</time>
      </trkpt>
      <trkpt lat="50.4065" lon="3.67301">
        <ele>27.6</ele>
        <time>2022-05-09T07:18:31.000Z</time>
      </trkpt>
      <trkpt lat="50.40644" lon="3.673">
        <ele>27.4</ele>
        <time>2022-05-09T07:18:33.000Z</time>
      </trkpt>
      <trkpt lat="50.40638" lon="3.67296">
        <ele>27.4</ele>
        <time>2022-05-09T07:18:35.000Z</time>
      </trkpt>
      <trkpt lat="50.40633" lon="3.67294">
        <ele>27.7</ele>
        <time>2022-05-09T07:18:36.000Z</time>
      </trkpt>
      <trkpt lat="50.40628" lon="3.67291">
        <ele>27.9</ele>
        <time>2022-05-09T07:18:37.000Z</time>
      </trkpt>
      <trkpt lat="50.40617" lon="3.67286">
        <ele>28.2</ele>
        <time>2022-05-09T07:18:40.000Z</time>
      </trkpt>
      <trkpt lat="50.40608" lon="3.67283">
        <ele>28.2</ele>
        <time>2022-05-09T07:18:42.122Z</time>
      </trkpt>
      <trkpt lat="50.40603" lon="3.67281">
        <ele>28.1</ele>
        <time>2022-05-09T07:18:43.424Z</time>
      </trkpt>
      <trkpt lat="50.40594" lon="3.67279">
        <ele>28</ele>
        <time>2022-05-09T07:18:45.883Z</time>
      </trkpt>
      <trkpt lat="50.40586" lon="3.67278">
        <ele>28</ele>
        <time>2022-05-09T07:18:48.000Z</time>
      </trkpt>
      <trkpt lat="50.4058" lon="3.67278">
        <ele>28</ele>
        <time>2022-05-09T07:18:50.000Z</time>
      </trkpt>
      <trkpt lat="50.40573" lon="3.67277">
        <ele>28</ele>
        <time>2022-05-09T07:18:51.946Z</time>
      </trkpt>
      <trkpt lat="50.40566" lon="3.67276">
        <ele>28</ele>
        <time>2022-05-09T07:18:54.000Z</time>
      </trkpt>
      <trkpt lat="50.40558" lon="3.67277">
        <ele>28</ele>
        <time>2022-05-09T07:18:56.000Z</time>
      </trkpt>
      <trkpt lat="50.40553" lon="3.67278">
        <ele>28.1</ele>
        <time>2022-05-09T07:18:58.000Z</time>
      </trkpt>
      <trkpt lat="50.40547" lon="3.6728">
        <ele>28.4</ele>
        <time>2022-05-09T07:19:00.000Z</time>
      </trkpt>
      <trkpt lat="50.40543" lon="3.67283">
        <ele>28.6</ele>
        <time>2022-05-09T07:19:02.000Z</time>
      </trkpt>
      <trkpt lat="50.40538" lon="3.67284">
        <ele>28.7</ele>
        <time>2022-05-09T07:19:04.000Z</time>
      </trkpt>
      <trkpt lat="50.40532" lon="3.67284">
        <ele>28.9</ele>
        <time>2022-05-09T07:19:06.000Z</time>
      </trkpt>
      <trkpt lat="50.40525" lon="3.67286">
        <ele>29</ele>
        <time>2022-05-09T07:19:08.000Z</time>
      </trkpt>
      <trkpt lat="50.40517" lon="3.67289">
        <ele>28.8</ele>
        <time>2022-05-09T07:19:09.902Z</time>
      </trkpt>
      <trkpt lat="50.40511" lon="3.67292">
        <ele>28.7</ele>
        <time>2022-05-09T07:19:12.000Z</time>
      </trkpt>
      <trkpt lat="50.40507" lon="3.67296">
        <ele>28.5</ele>
        <time>2022-05-09T07:19:13.000Z</time>
      </trkpt>
      <trkpt lat="50.40502" lon="3.67299">
        <ele>28.3</ele>
        <time>2022-05-09T07:19:15.000Z</time>
      </trkpt>
      <trkpt lat="50.40497" lon="3.67301">
        <ele>28.3</ele>
        <time>2022-05-09T07:19:16.000Z</time>
      </trkpt>
      <trkpt lat="50.40491" lon="3.67306">
        <ele>28.3</ele>
        <time>2022-05-09T07:19:18.000Z</time>
      </trkpt>
      <trkpt lat="50.40489" lon="3.67313">
        <ele>28.6</ele>
        <time>2022-05-09T07:19:20.000Z</time>
      </trkpt>
      <trkpt lat="50.40484" lon="3.6732">
        <ele>28.8</ele>
        <time>2022-05-09T07:19:23.000Z</time>
      </trkpt>
      <trkpt lat="50.40477" lon="3.67319">
        <ele>28.9</ele>
        <time>2022-05-09T07:19:26.000Z</time>
      </trkpt>
      <trkpt lat="50.40472" lon="3.67326">
        <ele>29</ele>
        <time>2022-05-09T07:19:28.000Z</time>
      </trkpt>
      <trkpt lat="50.40469" lon="3.67331">
        <ele>29</ele>
        <time>2022-05-09T07:19:30.000Z</time>
      </trkpt>
      <trkpt lat="50.40464" lon="3.67336">
        <ele>28.9</ele>
        <time>2022-05-09T07:19:33.000Z</time>
      </trkpt>
      <trkpt lat="50.40457" lon="3.6734">
        <ele>28.7</ele>
        <time>2022-05-09T07:19:36.000Z</time>
      </trkpt>
      <trkpt lat="50.40451" lon="3.67343">
        <ele>28.7</ele>
        <time>2022-05-09T07:19:38.000Z</time>
      </trkpt>
      <trkpt lat="50.40445" lon="3.67344">
        <ele>28.6</ele>
        <time>2022-05-09T07:19:40.041Z</time>
      </trkpt>
      <trkpt lat="50.40439" lon="3.67346">
        <ele>28.6</ele>
        <time>2022-05-09T07:19:42.024Z</time>
      </trkpt>
      <trkpt lat="50.40433" lon="3.67347">
        <ele>28.5</ele>
        <time>2022-05-09T07:19:45.000Z</time>
      </trkpt>
      <trkpt lat="50.40426" lon="3.67348">
        <ele>28.5</ele>
        <time>2022-05-09T07:19:54.601Z</time>
      </trkpt>
      <trkpt lat="50.40422" lon="3.67354">
        <ele>28.2</ele>
        <time>2022-05-09T07:19:58.000Z</time>
      </trkpt>
      <trkpt lat="50.40416" lon="3.6736">
        <ele>28.1</ele>
        <time>2022-05-09T07:20:00.000Z</time>
      </trkpt>
      <trkpt lat="50.40412" lon="3.67364">
        <ele>28.4</ele>
        <time>2022-05-09T07:20:01.065Z</time>
      </trkpt>
      <trkpt lat="50.40408" lon="3.67368">
        <ele>28.6</ele>
        <time>2022-05-09T07:20:02.000Z</time>
      </trkpt>
      <trkpt lat="50.40397" lon="3.67374">
        <ele>28.9</ele>
        <time>2022-05-09T07:20:05.000Z</time>
      </trkpt>
      <trkpt lat="50.40393" lon="3.67374">
        <ele>29</ele>
        <time>2022-05-09T07:20:06.000Z</time>
      </trkpt>
      <trkpt lat="50.40388" lon="3.67376">
        <ele>29</ele>
        <time>2022-05-09T07:20:08.000Z</time>
      </trkpt>
      <trkpt lat="50.40383" lon="3.67378">
        <ele>29.1</ele>
        <time>2022-05-09T07:20:10.000Z</time>
      </trkpt>
      <trkpt lat="50.40376" lon="3.67379">
        <ele>29.3</ele>
        <time>2022-05-09T07:20:12.000Z</time>
      </trkpt>
      <trkpt lat="50.40371" lon="3.67382">
        <ele>29.5</ele>
        <time>2022-05-09T07:20:14.000Z</time>
      </trkpt>
      <trkpt lat="50.40366" lon="3.67381">
        <ele>29.7</ele>
        <time>2022-05-09T07:20:15.000Z</time>
      </trkpt>
      <trkpt lat="50.40362" lon="3.67383">
        <ele>30</ele>
        <time>2022-05-09T07:20:18.000Z</time>
      </trkpt>
      <trkpt lat="50.40354" lon="3.67387">
        <ele>30</ele>
        <time>2022-05-09T07:20:23.340Z</time>
      </trkpt>
      <trkpt lat="50.40348" lon="3.6739">
        <ele>30</ele>
        <time>2022-05-09T07:20:26.000Z</time>
      </trkpt>
      <trkpt lat="50.40342" lon="3.67393">
        <ele>30</ele>
        <time>2022-05-09T07:20:28.000Z</time>
      </trkpt>
      <trkpt lat="50.40338" lon="3.67396">
        <ele>30</ele>
        <time>2022-05-09T07:20:29.000Z</time>
      </trkpt>
      <trkpt lat="50.40333" lon="3.67397">
        <ele>30</ele>
        <time>2022-05-09T07:20:31.004Z</time>
      </trkpt>
      <trkpt lat="50.40325" lon="3.67398">
        <ele>30</ele>
        <time>2022-05-09T07:20:32.000Z</time>
      </trkpt>
      <trkpt lat="50.40321" lon="3.67402">
        <ele>30</ele>
        <time>2022-05-09T07:20:34.000Z</time>
      </trkpt>
      <trkpt lat="50.40312" lon="3.67404">
        <ele>30</ele>
        <time>2022-05-09T07:20:35.561Z</time>
      </trkpt>
      <trkpt lat="50.40302" lon="3.67407">
        <ele>29.9</ele>
        <time>2022-05-09T07:20:37.000Z</time>
      </trkpt>
      <trkpt lat="50.40297" lon="3.67409">
        <ele>29.7</ele>
        <time>2022-05-09T07:20:38.000Z</time>
      </trkpt>
      <trkpt lat="50.40291" lon="3.6741">
        <ele>29.5</ele>
        <time>2022-05-09T07:20:39.000Z</time>
      </trkpt>
      <trkpt lat="50.40287" lon="3.67411">
        <ele>29.3</ele>
        <time>2022-05-09T07:20:40.000Z</time>
      </trkpt>
      <trkpt lat="50.40282" lon="3.67412">
        <ele>29.1</ele>
        <time>2022-05-09T07:20:41.000Z</time>
      </trkpt>
      <trkpt lat="50.40277" lon="3.67414">
        <ele>29</ele>
        <time>2022-05-09T07:20:42.000Z</time>
      </trkpt>
      <trkpt lat="50.40272" lon="3.67415">
        <ele>29</ele>
        <time>2022-05-09T07:20:43.000Z</time>
      </trkpt>
      <trkpt lat="50.40267" lon="3.67415">
        <ele>29</ele>
        <time>2022-05-09T07:20:44.000Z</time>
      </trkpt>
      <trkpt lat="50.40262" lon="3.67416">
        <ele>29</ele>
        <time>2022-05-09T07:20:45.000Z</time>
      </trkpt>
      <trkpt lat="50.40257" lon="3.67417">
        <ele>29</ele>
        <time>2022-05-09T07:20:46.000Z</time>
      </trkpt>
      <trkpt lat="50.40253" lon="3.67417">
        <ele>29</ele>
        <time>2022-05-09T07:20:47.000Z</time>
      </trkpt>
      <trkpt lat="50.40243" lon="3.67415">
        <ele>29</ele>
        <time>2022-05-09T07:20:49.000Z</time>
      </trkpt>
      <trkpt lat="50.40238" lon="3.67413">
        <ele>29.1</ele>
        <time>2022-05-09T07:20:50.000Z</time>
      </trkpt>
      <trkpt lat="50.40233" lon="3.67412">
        <ele>29.1</ele>
        <time>2022-05-09T07:20:51.000Z</time>
      </trkpt>
      <trkpt lat="50.40229" lon="3.6741">
        <ele>29.1</ele>
        <time>2022-05-09T07:20:52.000Z</time>
      </trkpt>
      <trkpt lat="50.40221" lon="3.67407">
        <ele>29</ele>
        <time>2022-05-09T07:20:54.000Z</time>
      </trkpt>
      <trkpt lat="50.40216" lon="3.67405">
        <ele>29.1</ele>
        <time>2022-05-09T07:20:55.000Z</time>
      </trkpt>
      <trkpt lat="50.40212" lon="3.67403">
        <ele>29.2</ele>
        <time>2022-05-09T07:20:56.000Z</time>
      </trkpt>
      <trkpt lat="50.40203" lon="3.67399">
        <ele>29.2</ele>
        <time>2022-05-09T07:20:58.000Z</time>
      </trkpt>
      <trkpt lat="50.40199" lon="3.67396">
        <ele>29.2</ele>
        <time>2022-05-09T07:20:59.000Z</time>
      </trkpt>
      <trkpt lat="50.40192" lon="3.67392">
        <ele>29.2</ele>
        <time>2022-05-09T07:21:01.000Z</time>
      </trkpt>
      <trkpt lat="50.40188" lon="3.67391">
        <ele>29.3</ele>
        <time>2022-05-09T07:21:02.000Z</time>
      </trkpt>
      <trkpt lat="50.40183" lon="3.6739">
        <ele>29.5</ele>
        <time>2022-05-09T07:21:03.381Z</time>
      </trkpt>
      <trkpt lat="50.40174" lon="3.67389">
        <ele>29.7</ele>
        <time>2022-05-09T07:21:05.634Z</time>
      </trkpt>
      <trkpt lat="50.40165" lon="3.6739">
        <ele>30</ele>
        <time>2022-05-09T07:21:07.981Z</time>
      </trkpt>
      <trkpt lat="50.4016" lon="3.6739">
        <ele>30</ele>
        <time>2022-05-09T07:21:09.000Z</time>
      </trkpt>
      <trkpt lat="50.40149" lon="3.67387">
        <ele>30</ele>
        <time>2022-05-09T07:21:12.000Z</time>
      </trkpt>
      <trkpt lat="50.40139" lon="3.67382">
        <ele>30</ele>
        <time>2022-05-09T07:21:14.601Z</time>
      </trkpt>
      <trkpt lat="50.40133" lon="3.67381">
        <ele>30</ele>
        <time>2022-05-09T07:21:16.000Z</time>
      </trkpt>
      <trkpt lat="50.4013" lon="3.67375">
        <ele>30</ele>
        <time>2022-05-09T07:21:17.000Z</time>
      </trkpt>
      <trkpt lat="50.40126" lon="3.67371">
        <ele>30</ele>
        <time>2022-05-09T07:21:18.000Z</time>
      </trkpt>
      <trkpt lat="50.40121" lon="3.67367">
        <ele>30</ele>
        <time>2022-05-09T07:21:19.000Z</time>
      </trkpt>
      <trkpt lat="50.40116" lon="3.67362">
        <ele>30</ele>
        <time>2022-05-09T07:21:21.223Z</time>
      </trkpt>
      <trkpt lat="50.40109" lon="3.67357">
        <ele>30</ele>
        <time>2022-05-09T07:21:23.018Z</time>
      </trkpt>
      <trkpt lat="50.401" lon="3.67353">
        <ele>30</ele>
        <time>2022-05-09T07:21:25.059Z</time>
      </trkpt>
      <trkpt lat="50.40093" lon="3.6735">
        <ele>30</ele>
        <time>2022-05-09T07:21:27.000Z</time>
      </trkpt>
      <trkpt lat="50.40088" lon="3.67348">
        <ele>30</ele>
        <time>2022-05-09T07:21:27.958Z</time>
      </trkpt>
      <trkpt lat="50.40079" lon="3.67344">
        <ele>30</ele>
        <time>2022-05-09T07:21:30.477Z</time>
      </trkpt>
      <trkpt lat="50.40073" lon="3.67339">
        <ele>30</ele>
        <time>2022-05-09T07:21:33.000Z</time>
      </trkpt>
      <trkpt lat="50.40064" lon="3.67338">
        <ele>30</ele>
        <time>2022-05-09T07:35:46.000Z</time>
      </trkpt>
      <trkpt lat="50.40059" lon="3.67337">
        <ele>30</ele>
        <time>2022-05-09T07:35:47.000Z</time>
      </trkpt>
      <trkpt lat="50.40052" lon="3.67335">
        <ele>30</ele>
        <time>2022-05-09T07:35:49.000Z</time>
      </trkpt>
      <trkpt lat="50.40046" lon="3.67332">
        <ele>30</ele>
        <time>2022-05-09T07:35:51.000Z</time>
      </trkpt>
      <trkpt lat="50.40039" lon="3.6733">
        <ele>30</ele>
        <time>2022-05-09T07:35:53.938Z</time>
      </trkpt>
      <trkpt lat="50.40033" lon="3.67326">
        <ele>30</ele>
        <time>2022-05-09T07:35:56.040Z</time>
      </trkpt>
      <trkpt lat="50.40026" lon="3.67323">
        <ele>30</ele>
        <time>2022-05-09T07:35:58.101Z</time>
      </trkpt>
      <trkpt lat="50.40021" lon="3.6732">
        <ele>30</ele>
        <time>2022-05-09T07:36:00.000Z</time>
      </trkpt>
      <trkpt lat="50.40014" lon="3.67316">
        <ele>30</ele>
        <time>2022-05-09T07:36:02.000Z</time>
      </trkpt>
      <trkpt lat="50.40008" lon="3.67313">
        <ele>30</ele>
        <time>2022-05-09T07:36:03.819Z</time>
      </trkpt>
      <trkpt lat="50.40001" lon="3.67308">
        <ele>30</ele>
        <time>2022-05-09T07:36:05.962Z</time>
      </trkpt>
      <trkpt lat="50.39996" lon="3.67304">
        <ele>30</ele>
        <time>2022-05-09T07:36:08.000Z</time>
      </trkpt>
      <trkpt lat="50.39991" lon="3.67301">
        <ele>30</ele>
        <time>2022-05-09T07:36:10.000Z</time>
      </trkpt>
      <trkpt lat="50.39984" lon="3.67297">
        <ele>30</ele>
        <time>2022-05-09T07:36:12.000Z</time>
      </trkpt>
      <trkpt lat="50.39978" lon="3.67294">
        <ele>30</ele>
        <time>2022-05-09T07:36:13.961Z</time>
      </trkpt>
      <trkpt lat="50.39972" lon="3.67289">
        <ele>30</ele>
        <time>2022-05-09T07:36:17.000Z</time>
      </trkpt>
      <trkpt lat="50.39967" lon="3.67286">
        <ele>30</ele>
        <time>2022-05-09T07:36:20.000Z</time>
      </trkpt>
      <trkpt lat="50.3996" lon="3.67285">
        <ele>30</ele>
        <time>2022-05-09T07:36:33.881Z</time>
      </trkpt>
      <trkpt lat="50.39955" lon="3.67285">
        <ele>30</ele>
        <time>2022-05-09T07:36:35.000Z</time>
      </trkpt>
      <trkpt lat="50.3995" lon="3.67284">
        <ele>30</ele>
        <time>2022-05-09T07:36:38.000Z</time>
      </trkpt>
      <trkpt lat="50.39944" lon="3.67283">
        <ele>30</ele>
        <time>2022-05-09T07:36:40.000Z</time>
      </trkpt>
      <trkpt lat="50.39938" lon="3.67283">
        <ele>30</ele>
        <time>2022-05-09T07:36:42.000Z</time>
      </trkpt>
      <trkpt lat="50.39932" lon="3.67281">
        <ele>30</ele>
        <time>2022-05-09T07:36:44.000Z</time>
      </trkpt>
      <trkpt lat="50.39926" lon="3.6728">
        <ele>30</ele>
        <time>2022-05-09T07:36:46.000Z</time>
      </trkpt>
      <trkpt lat="50.39919" lon="3.67279">
        <ele>30</ele>
        <time>2022-05-09T07:36:48.000Z</time>
      </trkpt>
      <trkpt lat="50.39912" lon="3.67277">
        <ele>30</ele>
        <time>2022-05-09T07:36:50.000Z</time>
      </trkpt>
      <trkpt lat="50.39904" lon="3.67277">
        <ele>30</ele>
        <time>2022-05-09T07:36:52.000Z</time>
      </trkpt>
      <trkpt lat="50.39897" lon="3.67276">
        <ele>30</ele>
        <time>2022-05-09T07:36:54.000Z</time>
      </trkpt>
      <trkpt lat="50.39893" lon="3.67275">
        <ele>30</ele>
        <time>2022-05-09T07:36:55.000Z</time>
      </trkpt>
      <trkpt lat="50.39885" lon="3.67273">
        <ele>30.1</ele>
        <time>2022-05-09T07:36:57.000Z</time>
      </trkpt>
      <trkpt lat="50.39877" lon="3.67273">
        <ele>30.4</ele>
        <time>2022-05-09T07:36:59.000Z</time>
      </trkpt>
      <trkpt lat="50.39868" lon="3.67271">
        <ele>30.6</ele>
        <time>2022-05-09T07:37:01.376Z</time>
      </trkpt>
      <trkpt lat="50.39861" lon="3.67269">
        <ele>30.7</ele>
        <time>2022-05-09T07:37:03.039Z</time>
      </trkpt>
      <trkpt lat="50.39852" lon="3.67267">
        <ele>30.4</ele>
        <time>2022-05-09T07:37:05.000Z</time>
      </trkpt>
      <trkpt lat="50.39844" lon="3.67267">
        <ele>30.2</ele>
        <time>2022-05-09T07:37:07.000Z</time>
      </trkpt>
      <trkpt lat="50.39836" lon="3.67266">
        <ele>30.1</ele>
        <time>2022-05-09T07:37:09.000Z</time>
      </trkpt>
      <trkpt lat="50.39829" lon="3.67263">
        <ele>30</ele>
        <time>2022-05-09T07:37:11.000Z</time>
      </trkpt>
      <trkpt lat="50.39821" lon="3.67262">
        <ele>30</ele>
        <time>2022-05-09T07:37:13.000Z</time>
      </trkpt>
      <trkpt lat="50.39814" lon="3.67262">
        <ele>30</ele>
        <time>2022-05-09T07:37:14.999Z</time>
      </trkpt>
      <trkpt lat="50.39805" lon="3.67261">
        <ele>30</ele>
        <time>2022-05-09T07:37:17.000Z</time>
      </trkpt>
      <trkpt lat="50.39798" lon="3.67261">
        <ele>30.3</ele>
        <time>2022-05-09T07:37:19.000Z</time>
      </trkpt>
      <trkpt lat="50.3979" lon="3.67261">
        <ele>30.5</ele>
        <time>2022-05-09T07:37:21.000Z</time>
      </trkpt>
      <trkpt lat="50.39784" lon="3.67263">
        <ele>30.8</ele>
        <time>2022-05-09T07:37:23.000Z</time>
      </trkpt>
      <trkpt lat="50.39777" lon="3.67267">
        <ele>31</ele>
        <time>2022-05-09T07:37:25.000Z</time>
      </trkpt>
      <trkpt lat="50.39772" lon="3.67268">
        <ele>31</ele>
        <time>2022-05-09T07:37:27.000Z</time>
      </trkpt>
      <trkpt lat="50.39765" lon="3.6727">
        <ele>31</ele>
        <time>2022-05-09T07:37:29.000Z</time>
      </trkpt>
      <trkpt lat="50.3976" lon="3.67272">
        <ele>31</ele>
        <time>2022-05-09T07:37:31.000Z</time>
      </trkpt>
      <trkpt lat="50.39753" lon="3.67274">
        <ele>31</ele>
        <time>2022-05-09T07:37:33.000Z</time>
      </trkpt>
      <trkpt lat="50.39748" lon="3.67277">
        <ele>31.1</ele>
        <time>2022-05-09T07:37:35.000Z</time>
      </trkpt>
      <trkpt lat="50.39741" lon="3.6728">
        <ele>31.3</ele>
        <time>2022-05-09T07:37:37.000Z</time>
      </trkpt>
      <trkpt lat="50.39735" lon="3.67283">
        <ele>31.5</ele>
        <time>2022-05-09T07:37:39.001Z</time>
      </trkpt>
      <trkpt lat="50.39728" lon="3.67285">
        <ele>31.6</ele>
        <time>2022-05-09T07:37:41.000Z</time>
      </trkpt>
      <trkpt lat="50.39722" lon="3.67287">
        <ele>31.7</ele>
        <time>2022-05-09T07:37:43.000Z</time>
      </trkpt>
      <trkpt lat="50.39714" lon="3.6729">
        <ele>31.4</ele>
        <time>2022-05-09T07:37:45.000Z</time>
      </trkpt>
      <trkpt lat="50.3971" lon="3.67292">
        <ele>31.3</ele>
        <time>2022-05-09T07:37:46.000Z</time>
      </trkpt>
      <trkpt lat="50.39702" lon="3.67294">
        <ele>31.1</ele>
        <time>2022-05-09T07:37:48.000Z</time>
      </trkpt>
      <trkpt lat="50.39697" lon="3.67295">
        <ele>31</ele>
        <time>2022-05-09T07:37:49.000Z</time>
      </trkpt>
      <trkpt lat="50.39691" lon="3.67296">
        <ele>31</ele>
        <time>2022-05-09T07:37:50.000Z</time>
      </trkpt>
      <trkpt lat="50.39686" lon="3.67298">
        <ele>31</ele>
        <time>2022-05-09T07:37:51.000Z</time>
      </trkpt>
      <trkpt lat="50.3968" lon="3.67298">
        <ele>31</ele>
        <time>2022-05-09T07:37:52.000Z</time>
      </trkpt>
      <trkpt lat="50.39675" lon="3.67298">
        <ele>31</ele>
        <time>2022-05-09T07:37:53.000Z</time>
      </trkpt>
      <trkpt lat="50.39671" lon="3.67298">
        <ele>31</ele>
        <time>2022-05-09T07:37:54.000Z</time>
      </trkpt>
      <trkpt lat="50.39665" lon="3.67299">
        <ele>31</ele>
        <time>2022-05-09T07:37:55.000Z</time>
      </trkpt>
      <trkpt lat="50.3966" lon="3.67299">
        <ele>31</ele>
        <time>2022-05-09T07:37:56.000Z</time>
      </trkpt>
      <trkpt lat="50.39654" lon="3.67299">
        <ele>31</ele>
        <time>2022-05-09T07:37:57.000Z</time>
      </trkpt>
      <trkpt lat="50.39644" lon="3.67297">
        <ele>31</ele>
        <time>2022-05-09T07:37:59.000Z</time>
      </trkpt>
      <trkpt lat="50.3964" lon="3.67297">
        <ele>31</ele>
        <time>2022-05-09T07:38:00.000Z</time>
      </trkpt>
      <trkpt lat="50.39635" lon="3.67296">
        <ele>31</ele>
        <time>2022-05-09T07:38:01.000Z</time>
      </trkpt>
      <trkpt lat="50.39629" lon="3.67295">
        <ele>31</ele>
        <time>2022-05-09T07:38:02.000Z</time>
      </trkpt>
      <trkpt lat="50.39619" lon="3.67295">
        <ele>31</ele>
        <time>2022-05-09T07:38:04.000Z</time>
      </trkpt>
      <trkpt lat="50.39615" lon="3.67295">
        <ele>31</ele>
        <time>2022-05-09T07:38:05.000Z</time>
      </trkpt>
      <trkpt lat="50.3961" lon="3.67294">
        <ele>31</ele>
        <time>2022-05-09T07:38:06.000Z</time>
      </trkpt>
      <trkpt lat="50.39605" lon="3.67294">
        <ele>30.9</ele>
        <time>2022-05-09T07:38:07.000Z</time>
      </trkpt>
      <trkpt lat="50.39595" lon="3.67295">
        <ele>30.6</ele>
        <time>2022-05-09T07:38:09.000Z</time>
      </trkpt>
      <trkpt lat="50.3959" lon="3.67295">
        <ele>30.5</ele>
        <time>2022-05-09T07:38:10.000Z</time>
      </trkpt>
      <trkpt lat="50.39581" lon="3.67295">
        <ele>30.4</ele>
        <time>2022-05-09T07:38:12.000Z</time>
      </trkpt>
      <trkpt lat="50.39574" lon="3.67292">
        <ele>30.7</ele>
        <time>2022-05-09T07:38:13.000Z</time>
      </trkpt>
      <trkpt lat="50.39566" lon="3.67287">
        <ele>30.9</ele>
        <time>2022-05-09T07:38:15.000Z</time>
      </trkpt>
      <trkpt lat="50.39561" lon="3.67284">
        <ele>31</ele>
        <time>2022-05-09T07:38:16.000Z</time>
      </trkpt>
      <trkpt lat="50.39555" lon="3.6728">
        <ele>31</ele>
        <time>2022-05-09T07:38:18.000Z</time>
      </trkpt>
      <trkpt lat="50.3955" lon="3.67276">
        <ele>31</ele>
        <time>2022-05-09T07:38:20.000Z</time>
      </trkpt>
      <trkpt lat="50.39544" lon="3.6728">
        <ele>31</ele>
        <time>2022-05-09T07:38:24.849Z</time>
      </trkpt>
      <trkpt lat="50.39538" lon="3.67283">
        <ele>31</ele>
        <time>2022-05-09T07:38:29.000Z</time>
      </trkpt>
      <trkpt lat="50.39532" lon="3.67284">
        <ele>31</ele>
        <time>2022-05-09T07:38:31.000Z</time>
      </trkpt>
      <trkpt lat="50.39526" lon="3.67282">
        <ele>30.9</ele>
        <time>2022-05-09T07:38:33.000Z</time>
      </trkpt>
      <trkpt lat="50.39518" lon="3.6728">
        <ele>30.7</ele>
        <time>2022-05-09T07:38:35.060Z</time>
      </trkpt>
      <trkpt lat="50.39512" lon="3.67279">
        <ele>30.4</ele>
        <time>2022-05-09T07:38:36.936Z</time>
      </trkpt>
      <trkpt lat="50.39507" lon="3.67277">
        <ele>30.3</ele>
        <time>2022-05-09T07:38:38.000Z</time>
      </trkpt>
      <trkpt lat="50.395" lon="3.67272">
        <ele>30.4</ele>
        <time>2022-05-09T07:38:40.582Z</time>
      </trkpt>
      <trkpt lat="50.39493" lon="3.6727">
        <ele>30.7</ele>
        <time>2022-05-09T07:38:42.000Z</time>
      </trkpt>
      <trkpt lat="50.39488" lon="3.67267">
        <ele>30.9</ele>
        <time>2022-05-09T07:38:44.000Z</time>
      </trkpt>
      <trkpt lat="50.39483" lon="3.67265">
        <ele>31</ele>
        <time>2022-05-09T07:38:45.000Z</time>
      </trkpt>
      <trkpt lat="50.39479" lon="3.67263">
        <ele>31</ele>
        <time>2022-05-09T07:38:47.000Z</time>
      </trkpt>
      <trkpt lat="50.39473" lon="3.67261">
        <ele>31</ele>
        <time>2022-05-09T07:38:48.959Z</time>
      </trkpt>
      <trkpt lat="50.39466" lon="3.67258">
        <ele>31</ele>
        <time>2022-05-09T07:38:50.918Z</time>
      </trkpt>
      <trkpt lat="50.39458" lon="3.67254">
        <ele>31</ele>
        <time>2022-05-09T07:38:53.000Z</time>
      </trkpt>
      <trkpt lat="50.39445" lon="3.67247">
        <ele>31.1</ele>
        <time>2022-05-09T07:38:56.000Z</time>
      </trkpt>
      <trkpt lat="50.3944" lon="3.67246">
        <ele>31.2</ele>
        <time>2022-05-09T07:38:57.060Z</time>
      </trkpt>
      <trkpt lat="50.39435" lon="3.67242">
        <ele>31.6</ele>
        <time>2022-05-09T07:38:59.920Z</time>
      </trkpt>
      <trkpt lat="50.39429" lon="3.67237">
        <ele>32.2</ele>
        <time>2022-05-09T07:39:02.039Z</time>
      </trkpt>
      <trkpt lat="50.39423" lon="3.67233">
        <ele>33.1</ele>
        <time>2022-05-09T07:39:03.979Z</time>
      </trkpt>
      <trkpt lat="50.39418" lon="3.6723">
        <ele>33.8</ele>
        <time>2022-05-09T07:39:06.000Z</time>
      </trkpt>
      <trkpt lat="50.39413" lon="3.6723">
        <ele>34</ele>
        <time>2022-05-09T07:39:08.000Z</time>
      </trkpt>
      <trkpt lat="50.39406" lon="3.67233">
        <ele>33.6</ele>
        <time>2022-05-09T07:39:10.619Z</time>
      </trkpt>
      <trkpt lat="50.39401" lon="3.67244">
        <ele>32.4</ele>
        <time>2022-05-09T07:39:12.917Z</time>
      </trkpt>
      <trkpt lat="50.39397" lon="3.67253">
        <ele>31.7</ele>
        <time>2022-05-09T07:39:15.159Z</time>
      </trkpt>
      <trkpt lat="50.39395" lon="3.67264">
        <ele>31.8</ele>
        <time>2022-05-09T07:39:17.000Z</time>
      </trkpt>
      <trkpt lat="50.39393" lon="3.67275">
        <ele>31.9</ele>
        <time>2022-05-09T07:39:19.000Z</time>
      </trkpt>
      <trkpt lat="50.39391" lon="3.67283">
        <ele>31.9</ele>
        <time>2022-05-09T07:39:21.061Z</time>
      </trkpt>
      <trkpt lat="50.39387" lon="3.67296">
        <ele>32.1</ele>
        <time>2022-05-09T07:39:23.779Z</time>
      </trkpt>
      <trkpt lat="50.39377" lon="3.67299">
        <ele>32.4</ele>
        <time>2022-05-09T07:39:26.717Z</time>
      </trkpt>
      <trkpt lat="50.3937" lon="3.67303">
        <ele>32.2</ele>
        <time>2022-05-09T07:39:29.000Z</time>
      </trkpt>
      <trkpt lat="50.39365" lon="3.67303">
        <ele>32.3</ele>
        <time>2022-05-09T07:39:33.000Z</time>
      </trkpt>
      <trkpt lat="50.3936" lon="3.67301">
        <ele>32.6</ele>
        <time>2022-05-09T07:39:36.000Z</time>
      </trkpt>
      <trkpt lat="50.39354" lon="3.67298">
        <ele>33</ele>
        <time>2022-05-09T07:39:37.000Z</time>
      </trkpt>
      <trkpt lat="50.3935" lon="3.67295">
        <ele>33.2</ele>
        <time>2022-05-09T07:39:39.000Z</time>
      </trkpt>
      <trkpt lat="50.39343" lon="3.67293">
        <ele>33.2</ele>
        <time>2022-05-09T07:39:41.297Z</time>
      </trkpt>
      <trkpt lat="50.39338" lon="3.67289">
        <ele>33.4</ele>
        <time>2022-05-09T07:39:43.000Z</time>
      </trkpt>
      <trkpt lat="50.39331" lon="3.67287">
        <ele>33.2</ele>
        <time>2022-05-09T07:39:45.025Z</time>
      </trkpt>
      <trkpt lat="50.39324" lon="3.67283">
        <ele>33.1</ele>
        <time>2022-05-09T07:39:48.000Z</time>
      </trkpt>
      <trkpt lat="50.39316" lon="3.67276">
        <ele>32.9</ele>
        <time>2022-05-09T07:39:50.698Z</time>
      </trkpt>
      <trkpt lat="50.39312" lon="3.67271">
        <ele>32.7</ele>
        <time>2022-05-09T07:39:52.000Z</time>
      </trkpt>
      <trkpt lat="50.39307" lon="3.67267">
        <ele>32.5</ele>
        <time>2022-05-09T07:39:53.138Z</time>
      </trkpt>
      <trkpt lat="50.39302" lon="3.67266">
        <ele>32.7</ele>
        <time>2022-05-09T07:39:54.761Z</time>
      </trkpt>
      <trkpt lat="50.39296" lon="3.67266">
        <ele>33.2</ele>
        <time>2022-05-09T07:39:57.000Z</time>
      </trkpt>
      <trkpt lat="50.39291" lon="3.67268">
        <ele>33.6</ele>
        <time>2022-05-09T07:40:00.000Z</time>
      </trkpt>
      <trkpt lat="50.39287" lon="3.67274">
        <ele>33.6</ele>
        <time>2022-05-09T07:40:01.920Z</time>
      </trkpt>
      <trkpt lat="50.39281" lon="3.67274">
        <ele>34</ele>
        <time>2022-05-09T07:40:04.000Z</time>
      </trkpt>
      <trkpt lat="50.39274" lon="3.67272">
        <ele>34.5</ele>
        <time>2022-05-09T07:40:06.120Z</time>
      </trkpt>
      <trkpt lat="50.3927" lon="3.6727">
        <ele>34.7</ele>
        <time>2022-05-09T07:40:07.553Z</time>
      </trkpt>
      <trkpt lat="50.39263" lon="3.67269">
        <ele>34.8</ele>
        <time>2022-05-09T07:40:10.000Z</time>
      </trkpt>
      <trkpt lat="50.39258" lon="3.67269">
        <ele>34.9</ele>
        <time>2022-05-09T07:40:12.098Z</time>
      </trkpt>
      <trkpt lat="50.39251" lon="3.67268">
        <ele>35</ele>
        <time>2022-05-09T07:40:15.000Z</time>
      </trkpt>
      <trkpt lat="50.39244" lon="3.67267">
        <ele>35.2</ele>
        <time>2022-05-09T07:40:17.000Z</time>
      </trkpt>
      <trkpt lat="50.39238" lon="3.67262">
        <ele>36</ele>
        <time>2022-05-09T07:40:20.000Z</time>
      </trkpt>
      <trkpt lat="50.39232" lon="3.67261">
        <ele>36.4</ele>
        <time>2022-05-09T07:40:22.000Z</time>
      </trkpt>
      <trkpt lat="50.39228" lon="3.67263">
        <ele>36</ele>
        <time>2022-05-09T07:40:24.000Z</time>
      </trkpt>
      <trkpt lat="50.39224" lon="3.67269">
        <ele>35</ele>
        <time>2022-05-09T07:40:25.939Z</time>
      </trkpt>
      <trkpt lat="50.39217" lon="3.67271">
        <ele>34.8</ele>
        <time>2022-05-09T07:40:28.239Z</time>
      </trkpt>
      <trkpt lat="50.39211" lon="3.67271">
        <ele>35</ele>
        <time>2022-05-09T07:40:30.078Z</time>
      </trkpt>
      <trkpt lat="50.39201" lon="3.67271">
        <ele>35.5</ele>
        <time>2022-05-09T07:40:32.000Z</time>
      </trkpt>
      <trkpt lat="50.39195" lon="3.67269">
        <ele>36.2</ele>
        <time>2022-05-09T07:40:33.000Z</time>
      </trkpt>
      <trkpt lat="50.39189" lon="3.67267">
        <ele>36</ele>
        <time>2022-05-09T07:40:34.000Z</time>
      </trkpt>
      <trkpt lat="50.39183" lon="3.67266">
        <ele>35.4</ele>
        <time>2022-05-09T07:40:35.000Z</time>
      </trkpt>
      <trkpt lat="50.39177" lon="3.67267">
        <ele>34.4</ele>
        <time>2022-05-09T07:40:36.000Z</time>
      </trkpt>
      <trkpt lat="50.3917" lon="3.67268">
        <ele>33.4</ele>
        <time>2022-05-09T07:40:37.000Z</time>
      </trkpt>
      <trkpt lat="50.39165" lon="3.67269">
        <ele>33</ele>
        <time>2022-05-09T07:40:38.076Z</time>
      </trkpt>
      <trkpt lat="50.39154" lon="3.67269">
        <ele>33</ele>
        <time>2022-05-09T07:40:39.000Z</time>
      </trkpt>
      <trkpt lat="50.39146" lon="3.67268">
        <ele>33</ele>
        <time>2022-05-09T07:40:40.000Z</time>
      </trkpt>
      <trkpt lat="50.39139" lon="3.67268">
        <ele>33</ele>
        <time>2022-05-09T07:40:41.000Z</time>
      </trkpt>
      <trkpt lat="50.39131" lon="3.67268">
        <ele>32.9</ele>
        <time>2022-05-09T07:40:42.000Z</time>
      </trkpt>
      <trkpt lat="50.39126" lon="3.67271">
        <ele>32.9</ele>
        <time>2022-05-09T07:40:43.000Z</time>
      </trkpt>
      <trkpt lat="50.3912" lon="3.67276">
        <ele>32.9</ele>
        <time>2022-05-09T07:40:44.000Z</time>
      </trkpt>
      <trkpt lat="50.39115" lon="3.6728">
        <ele>33</ele>
        <time>2022-05-09T07:40:45.000Z</time>
      </trkpt>
      <trkpt lat="50.39111" lon="3.67283">
        <ele>33</ele>
        <time>2022-05-09T07:40:46.000Z</time>
      </trkpt>
      <trkpt lat="50.39104" lon="3.67289">
        <ele>33.1</ele>
        <time>2022-05-09T07:40:48.000Z</time>
      </trkpt>
      <trkpt lat="50.39099" lon="3.67293">
        <ele>33.2</ele>
        <time>2022-05-09T07:40:50.000Z</time>
      </trkpt>
      <trkpt lat="50.39093" lon="3.67296">
        <ele>33.4</ele>
        <time>2022-05-09T07:40:52.000Z</time>
      </trkpt>
      <trkpt lat="50.39088" lon="3.67298">
        <ele>33.6</ele>
        <time>2022-05-09T07:40:53.000Z</time>
      </trkpt>
      <trkpt lat="50.39082" lon="3.67296">
        <ele>33.7</ele>
        <time>2022-05-09T07:40:56.000Z</time>
      </trkpt>
      <trkpt lat="50.39079" lon="3.67301">
        <ele>33.9</ele>
        <time>2022-05-09T07:41:00.000Z</time>
      </trkpt>
      <trkpt lat="50.39084" lon="3.67302">
        <ele>33.9</ele>
        <time>2022-05-09T07:41:10.150Z</time>
      </trkpt>
      <trkpt lat="50.3909" lon="3.67303">
        <ele>33.7</ele>
        <time>2022-05-09T07:41:11.743Z</time>
      </trkpt>
      <trkpt lat="50.39092" lon="3.67313">
        <ele>33.4</ele>
        <time>2022-05-09T07:41:14.043Z</time>
      </trkpt>
      <trkpt lat="50.39092" lon="3.67321">
        <ele>33.1</ele>
        <time>2022-05-09T07:41:16.000Z</time>
      </trkpt>
      <trkpt lat="50.39091" lon="3.67329">
        <ele>32.9</ele>
        <time>2022-05-09T07:41:18.029Z</time>
      </trkpt>
      <trkpt lat="50.39091" lon="3.67338">
        <ele>32.7</ele>
        <time>2022-05-09T07:41:22.000Z</time>
      </trkpt>
      <trkpt lat="50.39093" lon="3.6733">
        <ele>32.8</ele>
        <time>2022-05-09T07:41:27.000Z</time>
      </trkpt>
      <trkpt lat="50.39092" lon="3.67319">
        <ele>33.2</ele>
        <time>2022-05-09T07:41:29.000Z</time>
      </trkpt>
      <trkpt lat="50.39092" lon="3.67311">
        <ele>33.5</ele>
        <time>2022-05-09T07:41:30.849Z</time>
      </trkpt>
      <trkpt lat="50.39091" lon="3.67303">
        <ele>33.7</ele>
        <time>2022-05-09T07:41:33.000Z</time>
      </trkpt>
      <trkpt lat="50.39089" lon="3.67294">
        <ele>33.5</ele>
        <time>2022-05-09T07:41:36.000Z</time>
      </trkpt>
      <trkpt lat="50.39084" lon="3.67297">
        <ele>33.7</ele>
        <time>2022-05-09T07:41:39.000Z</time>
      </trkpt>
      <trkpt lat="50.39079" lon="3.67301">
        <ele>33.8</ele>
        <time>2022-05-09T07:41:42.000Z</time>
      </trkpt>
      <trkpt lat="50.39074" lon="3.67303">
        <ele>33.9</ele>
        <time>2022-05-09T07:41:45.000Z</time>
      </trkpt>
      <trkpt lat="50.39069" lon="3.67307">
        <ele>34</ele>
        <time>2022-05-09T07:41:47.000Z</time>
      </trkpt>
      <trkpt lat="50.39063" lon="3.6731">
        <ele>34</ele>
        <time>2022-05-09T07:41:49.000Z</time>
      </trkpt>
      <trkpt lat="50.39054" lon="3.67317">
        <ele>34</ele>
        <time>2022-05-09T07:41:52.000Z</time>
      </trkpt>
      <trkpt lat="50.39048" lon="3.6732">
        <ele>34.3</ele>
        <time>2022-05-09T07:41:54.000Z</time>
      </trkpt>
      <trkpt lat="50.39043" lon="3.67326">
        <ele>34.4</ele>
        <time>2022-05-09T07:41:56.000Z</time>
      </trkpt>
      <trkpt lat="50.39038" lon="3.67334">
        <ele>34.6</ele>
        <time>2022-05-09T07:41:58.000Z</time>
      </trkpt>
      <trkpt lat="50.3903" lon="3.67345">
        <ele>34.1</ele>
        <time>2022-05-09T07:42:01.031Z</time>
      </trkpt>
      <trkpt lat="50.39021" lon="3.67355">
        <ele>33.9</ele>
        <time>2022-05-09T07:42:03.000Z</time>
      </trkpt>
      <trkpt lat="50.39016" lon="3.67359">
        <ele>33.9</ele>
        <time>2022-05-09T07:42:04.000Z</time>
      </trkpt>
      <trkpt lat="50.39011" lon="3.67362">
        <ele>34.1</ele>
        <time>2022-05-09T07:42:05.000Z</time>
      </trkpt>
      <trkpt lat="50.39005" lon="3.67366">
        <ele>34.3</ele>
        <time>2022-05-09T07:42:06.000Z</time>
      </trkpt>
      <trkpt lat="50.38997" lon="3.67368">
        <ele>34.2</ele>
        <time>2022-05-09T07:42:07.000Z</time>
      </trkpt>
      <trkpt lat="50.38992" lon="3.6737">
        <ele>34.2</ele>
        <time>2022-05-09T07:42:08.000Z</time>
      </trkpt>
      <trkpt lat="50.38986" lon="3.67372">
        <ele>34</ele>
        <time>2022-05-09T07:42:09.000Z</time>
      </trkpt>
      <trkpt lat="50.38979" lon="3.67381">
        <ele>33.4</ele>
        <time>2022-05-09T07:42:11.000Z</time>
      </trkpt>
      <trkpt lat="50.38972" lon="3.67379">
        <ele>33.7</ele>
        <time>2022-05-09T07:42:13.559Z</time>
      </trkpt>
      <trkpt lat="50.38965" lon="3.6739">
        <ele>33</ele>
        <time>2022-05-09T07:42:14.741Z</time>
      </trkpt>
      <trkpt lat="50.38955" lon="3.6739">
        <ele>33</ele>
        <time>2022-05-09T07:42:16.656Z</time>
      </trkpt>
      <trkpt lat="50.38949" lon="3.67388">
        <ele>33</ele>
        <time>2022-05-09T07:42:19.000Z</time>
      </trkpt>
      <trkpt lat="50.38944" lon="3.67387">
        <ele>33.1</ele>
        <time>2022-05-09T07:42:20.037Z</time>
      </trkpt>
      <trkpt lat="50.38939" lon="3.67385">
        <ele>33.1</ele>
        <time>2022-05-09T07:42:21.938Z</time>
      </trkpt>
      <trkpt lat="50.38935" lon="3.67379">
        <ele>33.4</ele>
        <time>2022-05-09T07:42:24.000Z</time>
      </trkpt>
      <trkpt lat="50.38926" lon="3.67373">
        <ele>33.6</ele>
        <time>2022-05-09T07:42:51.000Z</time>
      </trkpt>
      <trkpt lat="50.38921" lon="3.67369">
        <ele>33.7</ele>
        <time>2022-05-09T07:42:52.921Z</time>
      </trkpt>
      <trkpt lat="50.38917" lon="3.67367">
        <ele>33.8</ele>
        <time>2022-05-09T07:42:54.101Z</time>
      </trkpt>
      <trkpt lat="50.38911" lon="3.67366">
        <ele>33.7</ele>
        <time>2022-05-09T07:42:55.000Z</time>
      </trkpt>
      <trkpt lat="50.389" lon="3.67363">
        <ele>33.4</ele>
        <time>2022-05-09T07:42:57.000Z</time>
      </trkpt>
      <trkpt lat="50.38892" lon="3.67361">
        <ele>33.1</ele>
        <time>2022-05-09T07:42:58.000Z</time>
      </trkpt>
      <trkpt lat="50.38887" lon="3.67362">
        <ele>33</ele>
        <time>2022-05-09T07:42:59.000Z</time>
      </trkpt>
      <trkpt lat="50.38883" lon="3.67361">
        <ele>33</ele>
        <time>2022-05-09T07:43:00.000Z</time>
      </trkpt>
      <trkpt lat="50.38877" lon="3.6736">
        <ele>33.1</ele>
        <time>2022-05-09T07:43:01.000Z</time>
      </trkpt>
      <trkpt lat="50.38871" lon="3.67357">
        <ele>33.2</ele>
        <time>2022-05-09T07:43:02.000Z</time>
      </trkpt>
      <trkpt lat="50.38861" lon="3.67353">
        <ele>33</ele>
        <time>2022-05-09T07:43:04.000Z</time>
      </trkpt>
      <trkpt lat="50.38857" lon="3.6735">
        <ele>33</ele>
        <time>2022-05-09T07:43:05.000Z</time>
      </trkpt>
      <trkpt lat="50.38853" lon="3.67346">
        <ele>33</ele>
        <time>2022-05-09T07:43:06.000Z</time>
      </trkpt>
      <trkpt lat="50.38849" lon="3.67341">
        <ele>33</ele>
        <time>2022-05-09T07:43:07.000Z</time>
      </trkpt>
      <trkpt lat="50.38844" lon="3.67335">
        <ele>33</ele>
        <time>2022-05-09T07:43:09.814Z</time>
      </trkpt>
      <trkpt lat="50.38832" lon="3.67328">
        <ele>32.8</ele>
        <time>2022-05-09T07:43:11.434Z</time>
      </trkpt>
      <trkpt lat="50.38824" lon="3.67324">
        <ele>32.8</ele>
        <time>2022-05-09T07:43:13.000Z</time>
      </trkpt>
      <trkpt lat="50.38816" lon="3.67317">
        <ele>32.8</ele>
        <time>2022-05-09T07:43:15.000Z</time>
      </trkpt>
      <trkpt lat="50.38812" lon="3.67312">
        <ele>32.8</ele>
        <time>2022-05-09T07:43:16.026Z</time>
      </trkpt>
      <trkpt lat="50.38807" lon="3.67305">
        <ele>32.9</ele>
        <time>2022-05-09T07:43:17.827Z</time>
      </trkpt>
      <trkpt lat="50.38801" lon="3.67298">
        <ele>32.8</ele>
        <time>2022-05-09T07:43:19.066Z</time>
      </trkpt>
      <trkpt lat="50.38797" lon="3.67284">
        <ele>32.5</ele>
        <time>2022-05-09T07:43:21.000Z</time>
      </trkpt>
      <trkpt lat="50.38793" lon="3.6727">
        <ele>32.4</ele>
        <time>2022-05-09T07:43:23.186Z</time>
      </trkpt>
      <trkpt lat="50.38791" lon="3.67263">
        <ele>32.5</ele>
        <time>2022-05-09T07:43:25.031Z</time>
      </trkpt>
      <trkpt lat="50.38789" lon="3.67252">
        <ele>32.6</ele>
        <time>2022-05-09T07:43:27.072Z</time>
      </trkpt>
      <trkpt lat="50.38787" lon="3.67241">
        <ele>32.9</ele>
        <time>2022-05-09T07:43:28.987Z</time>
      </trkpt>
      <trkpt lat="50.38784" lon="3.67231">
        <ele>33.3</ele>
        <time>2022-05-09T07:43:29.990Z</time>
      </trkpt>
      <trkpt lat="50.3878" lon="3.67229">
        <ele>33.7</ele>
        <time>2022-05-09T07:43:31.000Z</time>
      </trkpt>
      <trkpt lat="50.38774" lon="3.67225">
        <ele>33.8</ele>
        <time>2022-05-09T07:43:32.000Z</time>
      </trkpt>
      <trkpt lat="50.38765" lon="3.6722">
        <ele>33.7</ele>
        <time>2022-05-09T07:43:34.451Z</time>
      </trkpt>
      <trkpt lat="50.3876" lon="3.67219">
        <ele>33.7</ele>
        <time>2022-05-09T07:43:35.849Z</time>
      </trkpt>
      <trkpt lat="50.38754" lon="3.67218">
        <ele>33.6</ele>
        <time>2022-05-09T07:43:37.028Z</time>
      </trkpt>
      <trkpt lat="50.38748" lon="3.67218">
        <ele>33.4</ele>
        <time>2022-05-09T07:43:38.000Z</time>
      </trkpt>
      <trkpt lat="50.38742" lon="3.67214">
        <ele>33.7</ele>
        <time>2022-05-09T07:43:40.000Z</time>
      </trkpt>
      <trkpt lat="50.38739" lon="3.67209">
        <ele>33.9</ele>
        <time>2022-05-09T07:43:41.000Z</time>
      </trkpt>
      <trkpt lat="50.38735" lon="3.67198">
        <ele>34.2</ele>
        <time>2022-05-09T07:43:43.446Z</time>
      </trkpt>
      <trkpt lat="50.38735" lon="3.67191">
        <ele>34.4</ele>
        <time>2022-05-09T07:43:44.620Z</time>
      </trkpt>
      <trkpt lat="50.38737" lon="3.67181">
        <ele>34.3</ele>
        <time>2022-05-09T07:43:46.811Z</time>
      </trkpt>
      <trkpt lat="50.38741" lon="3.67174">
        <ele>34.5</ele>
        <time>2022-05-09T07:43:49.000Z</time>
      </trkpt>
      <trkpt lat="50.38742" lon="3.67166">
        <ele>34.4</ele>
        <time>2022-05-09T07:43:50.927Z</time>
      </trkpt>
      <trkpt lat="50.38742" lon="3.67158">
        <ele>34</ele>
        <time>2022-05-09T07:43:52.476Z</time>
      </trkpt>
      <trkpt lat="50.38742" lon="3.67144">
        <ele>33.3</ele>
        <time>2022-05-09T07:43:54.932Z</time>
      </trkpt>
      <trkpt lat="50.3874" lon="3.6713">
        <ele>33</ele>
        <time>2022-05-09T07:43:57.000Z</time>
      </trkpt>
      <trkpt lat="50.38735" lon="3.67117">
        <ele>33</ele>
        <time>2022-05-09T07:44:00.000Z</time>
      </trkpt>
      <trkpt lat="50.38731" lon="3.67113">
        <ele>33</ele>
        <time>2022-05-09T07:44:02.146Z</time>
      </trkpt>
      <trkpt lat="50.38723" lon="3.67108">
        <ele>33.1</ele>
        <time>2022-05-09T07:44:04.786Z</time>
      </trkpt>
      <trkpt lat="50.38717" lon="3.67105">
        <ele>33.2</ele>
        <time>2022-05-09T07:44:05.990Z</time>
      </trkpt>
      <trkpt lat="50.38712" lon="3.67102">
        <ele>33.3</ele>
        <time>2022-05-09T07:44:07.000Z</time>
      </trkpt>
      <trkpt lat="50.38703" lon="3.671">
        <ele>33.4</ele>
        <time>2022-05-09T07:44:09.191Z</time>
      </trkpt>
      <trkpt lat="50.38695" lon="3.67098">
        <ele>33.5</ele>
        <time>2022-05-09T07:44:11.031Z</time>
      </trkpt>
      <trkpt lat="50.38691" lon="3.67093">
        <ele>33.6</ele>
        <time>2022-05-09T07:44:12.000Z</time>
      </trkpt>
      <trkpt lat="50.38689" lon="3.67081">
        <ele>33.8</ele>
        <time>2022-05-09T07:44:14.000Z</time>
      </trkpt>
      <trkpt lat="50.38689" lon="3.67073">
        <ele>33.9</ele>
        <time>2022-05-09T07:44:14.991Z</time>
      </trkpt>
      <trkpt lat="50.38689" lon="3.67066">
        <ele>33.9</ele>
        <time>2022-05-09T07:44:16.000Z</time>
      </trkpt>
      <trkpt lat="50.38691" lon="3.67052">
        <ele>33.9</ele>
        <time>2022-05-09T07:44:18.000Z</time>
      </trkpt>
      <trkpt lat="50.38692" lon="3.67044">
        <ele>33.6</ele>
        <time>2022-05-09T07:44:19.148Z</time>
      </trkpt>
      <trkpt lat="50.38693" lon="3.67032">
        <ele>33.2</ele>
        <time>2022-05-09T07:44:20.928Z</time>
      </trkpt>
      <trkpt lat="50.38694" lon="3.6702">
        <ele>33</ele>
        <time>2022-05-09T07:44:23.000Z</time>
      </trkpt>
      <trkpt lat="50.38696" lon="3.67007">
        <ele>33</ele>
        <time>2022-05-09T07:44:24.106Z</time>
      </trkpt>
      <trkpt lat="50.38699" lon="3.66997">
        <ele>33.2</ele>
        <time>2022-05-09T07:44:26.066Z</time>
      </trkpt>
      <trkpt lat="50.38704" lon="3.66993">
        <ele>33.3</ele>
        <time>2022-05-09T07:44:28.628Z</time>
      </trkpt>
      <trkpt lat="50.38711" lon="3.66992">
        <ele>33.6</ele>
        <time>2022-05-09T07:44:30.000Z</time>
      </trkpt>
      <trkpt lat="50.38718" lon="3.66988">
        <ele>33.9</ele>
        <time>2022-05-09T07:44:31.965Z</time>
      </trkpt>
      <trkpt lat="50.38721" lon="3.66984">
        <ele>33.9</ele>
        <time>2022-05-09T07:44:34.000Z</time>
      </trkpt>
      <trkpt lat="50.38723" lon="3.66976">
        <ele>34</ele>
        <time>2022-05-09T07:44:37.000Z</time>
      </trkpt>
      <trkpt lat="50.38723" lon="3.66968">
        <ele>34.2</ele>
        <time>2022-05-09T07:44:41.789Z</time>
      </trkpt>
      <trkpt lat="50.3872" lon="3.66956">
        <ele>34.5</ele>
        <time>2022-05-09T07:44:45.000Z</time>
      </trkpt>
      <trkpt lat="50.38716" lon="3.6695">
        <ele>34.6</ele>
        <time>2022-05-09T07:44:47.000Z</time>
      </trkpt>
      <trkpt lat="50.38712" lon="3.66942">
        <ele>34.7</ele>
        <time>2022-05-09T07:44:49.000Z</time>
      </trkpt>
      <trkpt lat="50.38708" lon="3.66935">
        <ele>34.7</ele>
        <time>2022-05-09T07:44:50.920Z</time>
      </trkpt>
      <trkpt lat="50.38702" lon="3.66927">
        <ele>34.7</ele>
        <time>2022-05-09T07:44:53.000Z</time>
      </trkpt>
      <trkpt lat="50.38696" lon="3.66921">
        <ele>34.9</ele>
        <time>2022-05-09T07:44:55.000Z</time>
      </trkpt>
      <trkpt lat="50.38691" lon="3.66917">
        <ele>34.9</ele>
        <time>2022-05-09T07:44:57.000Z</time>
      </trkpt>
      <trkpt lat="50.38685" lon="3.66913">
        <ele>34.9</ele>
        <time>2022-05-09T07:44:59.000Z</time>
      </trkpt>
      <trkpt lat="50.38679" lon="3.66908">
        <ele>34.9</ele>
        <time>2022-05-09T07:45:01.000Z</time>
      </trkpt>
      <trkpt lat="50.38671" lon="3.66906">
        <ele>34.9</ele>
        <time>2022-05-09T07:45:03.000Z</time>
      </trkpt>
      <trkpt lat="50.38663" lon="3.66902">
        <ele>35.1</ele>
        <time>2022-05-09T07:45:05.000Z</time>
      </trkpt>
      <trkpt lat="50.38655" lon="3.669">
        <ele>35.4</ele>
        <time>2022-05-09T07:45:07.000Z</time>
      </trkpt>
      <trkpt lat="50.38648" lon="3.66899">
        <ele>35.5</ele>
        <time>2022-05-09T07:45:08.950Z</time>
      </trkpt>
      <trkpt lat="50.3864" lon="3.66897">
        <ele>35.7</ele>
        <time>2022-05-09T07:45:11.000Z</time>
      </trkpt>
      <trkpt lat="50.38634" lon="3.66895">
        <ele>35.8</ele>
        <time>2022-05-09T07:45:13.000Z</time>
      </trkpt>
      <trkpt lat="50.38628" lon="3.66891">
        <ele>35.9</ele>
        <time>2022-05-09T07:45:15.027Z</time>
      </trkpt>
      <trkpt lat="50.38621" lon="3.6689">
        <ele>36</ele>
        <time>2022-05-09T07:45:17.255Z</time>
      </trkpt>
      <trkpt lat="50.38614" lon="3.66886">
        <ele>36</ele>
        <time>2022-05-09T07:45:20.000Z</time>
      </trkpt>
      <trkpt lat="50.38608" lon="3.66884">
        <ele>35.9</ele>
        <time>2022-05-09T07:45:22.009Z</time>
      </trkpt>
      <trkpt lat="50.38602" lon="3.66882">
        <ele>35.7</ele>
        <time>2022-05-09T07:45:24.990Z</time>
      </trkpt>
      <trkpt lat="50.38596" lon="3.6688">
        <ele>35.6</ele>
        <time>2022-05-09T07:45:28.000Z</time>
      </trkpt>
      <trkpt lat="50.38601" lon="3.66881">
        <ele>35.7</ele>
        <time>2022-05-09T07:45:32.000Z</time>
      </trkpt>
      <trkpt lat="50.38605" lon="3.66881">
        <ele>35.8</ele>
        <time>2022-05-09T07:47:02.110Z</time>
      </trkpt>
      <trkpt lat="50.386" lon="3.66878">
        <ele>35.8</ele>
        <time>2022-05-09T07:47:03.450Z</time>
      </trkpt>
      <trkpt lat="50.38594" lon="3.66876">
        <ele>35.7</ele>
        <time>2022-05-09T07:47:04.568Z</time>
      </trkpt>
      <trkpt lat="50.38589" lon="3.66873">
        <ele>35.7</ele>
        <time>2022-05-09T07:47:05.630Z</time>
      </trkpt>
      <trkpt lat="50.38583" lon="3.6687">
        <ele>35.7</ele>
        <time>2022-05-09T07:47:07.007Z</time>
      </trkpt>
      <trkpt lat="50.38578" lon="3.66869">
        <ele>35.7</ele>
        <time>2022-05-09T07:47:08.000Z</time>
      </trkpt>
      <trkpt lat="50.38568" lon="3.66866">
        <ele>35.8</ele>
        <time>2022-05-09T07:47:10.000Z</time>
      </trkpt>
      <trkpt lat="50.38562" lon="3.66863">
        <ele>35.9</ele>
        <time>2022-05-09T07:47:12.000Z</time>
      </trkpt>
      <trkpt lat="50.38557" lon="3.66861">
        <ele>36</ele>
        <time>2022-05-09T07:47:13.491Z</time>
      </trkpt>
      <trkpt lat="50.38551" lon="3.66858">
        <ele>35.9</ele>
        <time>2022-05-09T07:47:14.469Z</time>
      </trkpt>
      <trkpt lat="50.38544" lon="3.66855">
        <ele>35.7</ele>
        <time>2022-05-09T07:47:15.867Z</time>
      </trkpt>
      <trkpt lat="50.38539" lon="3.66853">
        <ele>35.6</ele>
        <time>2022-05-09T07:47:17.000Z</time>
      </trkpt>
      <trkpt lat="50.38527" lon="3.66849">
        <ele>35.4</ele>
        <time>2022-05-09T07:47:19.045Z</time>
      </trkpt>
      <trkpt lat="50.38521" lon="3.66844">
        <ele>35.6</ele>
        <time>2022-05-09T07:47:21.000Z</time>
      </trkpt>
      <trkpt lat="50.38516" lon="3.66842">
        <ele>35.7</ele>
        <time>2022-05-09T07:47:22.227Z</time>
      </trkpt>
      <trkpt lat="50.38511" lon="3.66841">
        <ele>35.7</ele>
        <time>2022-05-09T07:47:23.650Z</time>
      </trkpt>
      <trkpt lat="50.38505" lon="3.66838">
        <ele>35.8</ele>
        <time>2022-05-09T07:47:25.728Z</time>
      </trkpt>
      <trkpt lat="50.38494" lon="3.66833">
        <ele>35.8</ele>
        <time>2022-05-09T07:47:28.000Z</time>
      </trkpt>
      <trkpt lat="50.38489" lon="3.6683">
        <ele>35.6</ele>
        <time>2022-05-09T07:47:29.000Z</time>
      </trkpt>
      <trkpt lat="50.38484" lon="3.66828">
        <ele>35.5</ele>
        <time>2022-05-09T07:47:30.000Z</time>
      </trkpt>
      <trkpt lat="50.38478" lon="3.66824">
        <ele>35.5</ele>
        <time>2022-05-09T07:47:32.000Z</time>
      </trkpt>
      <trkpt lat="50.38474" lon="3.66821">
        <ele>35.5</ele>
        <time>2022-05-09T07:47:33.000Z</time>
      </trkpt>
      <trkpt lat="50.38469" lon="3.66818">
        <ele>35.6</ele>
        <time>2022-05-09T07:47:34.000Z</time>
      </trkpt>
      <trkpt lat="50.38465" lon="3.66815">
        <ele>35.6</ele>
        <time>2022-05-09T07:47:35.000Z</time>
      </trkpt>
      <trkpt lat="50.3846" lon="3.66812">
        <ele>35.8</ele>
        <time>2022-05-09T07:47:36.000Z</time>
      </trkpt>
      <trkpt lat="50.38454" lon="3.66808">
        <ele>35.9</ele>
        <time>2022-05-09T07:47:37.000Z</time>
      </trkpt>
      <trkpt lat="50.38444" lon="3.66804">
        <ele>36</ele>
        <time>2022-05-09T07:47:39.653Z</time>
      </trkpt>
      <trkpt lat="50.38439" lon="3.668">
        <ele>35.8</ele>
        <time>2022-05-09T07:47:41.000Z</time>
      </trkpt>
      <trkpt lat="50.38433" lon="3.66797">
        <ele>35.7</ele>
        <time>2022-05-09T07:47:43.066Z</time>
      </trkpt>
      <trkpt lat="50.38427" lon="3.66793">
        <ele>35.7</ele>
        <time>2022-05-09T07:47:44.000Z</time>
      </trkpt>
      <trkpt lat="50.38422" lon="3.66787">
        <ele>35.7</ele>
        <time>2022-05-09T07:47:45.046Z</time>
      </trkpt>
      <trkpt lat="50.38415" lon="3.66784">
        <ele>35.7</ele>
        <time>2022-05-09T07:47:47.425Z</time>
      </trkpt>
      <trkpt lat="50.38411" lon="3.6678">
        <ele>35.7</ele>
        <time>2022-05-09T07:47:48.587Z</time>
      </trkpt>
      <trkpt lat="50.38405" lon="3.66777">
        <ele>35.6</ele>
        <time>2022-05-09T07:47:51.000Z</time>
      </trkpt>
      <trkpt lat="50.384" lon="3.66774">
        <ele>35.7</ele>
        <time>2022-05-09T07:47:52.000Z</time>
      </trkpt>
      <trkpt lat="50.38395" lon="3.66769">
        <ele>35.8</ele>
        <time>2022-05-09T07:47:54.085Z</time>
      </trkpt>
      <trkpt lat="50.38391" lon="3.66766">
        <ele>35.9</ele>
        <time>2022-05-09T07:47:55.000Z</time>
      </trkpt>
      <trkpt lat="50.38386" lon="3.66762">
        <ele>36.1</ele>
        <time>2022-05-09T07:47:57.000Z</time>
      </trkpt>
      <trkpt lat="50.38381" lon="3.66758">
        <ele>36.2</ele>
        <time>2022-05-09T07:47:58.004Z</time>
      </trkpt>
      <trkpt lat="50.38374" lon="3.66754">
        <ele>36.2</ele>
        <time>2022-05-09T07:48:00.144Z</time>
      </trkpt>
      <trkpt lat="50.38366" lon="3.66748">
        <ele>36.2</ele>
        <time>2022-05-09T07:48:01.888Z</time>
      </trkpt>
      <trkpt lat="50.38358" lon="3.6674">
        <ele>36.3</ele>
        <time>2022-05-09T07:48:04.785Z</time>
      </trkpt>
      <trkpt lat="50.38351" lon="3.66735">
        <ele>36.4</ele>
        <time>2022-05-09T07:48:07.000Z</time>
      </trkpt>
      <trkpt lat="50.38347" lon="3.66732">
        <ele>36.5</ele>
        <time>2022-05-09T07:48:08.147Z</time>
      </trkpt>
      <trkpt lat="50.3834" lon="3.66725">
        <ele>36.8</ele>
        <time>2022-05-09T07:48:09.769Z</time>
      </trkpt>
      <trkpt lat="50.38336" lon="3.66722">
        <ele>37</ele>
        <time>2022-05-09T07:48:10.786Z</time>
      </trkpt>
      <trkpt lat="50.38328" lon="3.66716">
        <ele>36.7</ele>
        <time>2022-05-09T07:48:13.148Z</time>
      </trkpt>
      <trkpt lat="50.38323" lon="3.66712">
        <ele>36.5</ele>
        <time>2022-05-09T07:48:14.867Z</time>
      </trkpt>
      <trkpt lat="50.38319" lon="3.66709">
        <ele>36.5</ele>
        <time>2022-05-09T07:48:15.826Z</time>
      </trkpt>
      <trkpt lat="50.38315" lon="3.66706">
        <ele>36.4</ele>
        <time>2022-05-09T07:48:16.770Z</time>
      </trkpt>
      <trkpt lat="50.38309" lon="3.66705">
        <ele>36.3</ele>
        <time>2022-05-09T07:48:18.967Z</time>
      </trkpt>
      <trkpt lat="50.38303" lon="3.66704">
        <ele>36.4</ele>
        <time>2022-05-09T07:48:20.123Z</time>
      </trkpt>
      <trkpt lat="50.38297" lon="3.66701">
        <ele>36.6</ele>
        <time>2022-05-09T07:48:22.209Z</time>
      </trkpt>
      <trkpt lat="50.38288" lon="3.66698">
        <ele>36.8</ele>
        <time>2022-05-09T07:48:23.744Z</time>
      </trkpt>
      <trkpt lat="50.38279" lon="3.66696">
        <ele>37</ele>
        <time>2022-05-09T07:48:26.066Z</time>
      </trkpt>
      <trkpt lat="50.38272" lon="3.66694">
        <ele>36.8</ele>
        <time>2022-05-09T07:48:28.000Z</time>
      </trkpt>
      <trkpt lat="50.38267" lon="3.6669">
        <ele>36.7</ele>
        <time>2022-05-09T07:48:30.000Z</time>
      </trkpt>
      <trkpt lat="50.38262" lon="3.66689">
        <ele>36.6</ele>
        <time>2022-05-09T07:48:31.000Z</time>
      </trkpt>
      <trkpt lat="50.38257" lon="3.66686">
        <ele>36.5</ele>
        <time>2022-05-09T07:48:33.107Z</time>
      </trkpt>
      <trkpt lat="50.38251" lon="3.66684">
        <ele>36.4</ele>
        <time>2022-05-09T07:48:34.043Z</time>
      </trkpt>
      <trkpt lat="50.38242" lon="3.66678">
        <ele>36.3</ele>
        <time>2022-05-09T07:48:36.028Z</time>
      </trkpt>
      <trkpt lat="50.38235" lon="3.66671">
        <ele>36.3</ele>
        <time>2022-05-09T07:48:38.000Z</time>
      </trkpt>
      <trkpt lat="50.38228" lon="3.66663">
        <ele>36.3</ele>
        <time>2022-05-09T07:48:40.000Z</time>
      </trkpt>
      <trkpt lat="50.38224" lon="3.66658">
        <ele>36.4</ele>
        <time>2022-05-09T07:48:41.000Z</time>
      </trkpt>
      <trkpt lat="50.38219" lon="3.66652">
        <ele>36.4</ele>
        <time>2022-05-09T07:48:42.000Z</time>
      </trkpt>
      <trkpt lat="50.38211" lon="3.66642">
        <ele>36.5</ele>
        <time>2022-05-09T07:48:44.000Z</time>
      </trkpt>
      <trkpt lat="50.38204" lon="3.66634">
        <ele>36.4</ele>
        <time>2022-05-09T07:48:46.000Z</time>
      </trkpt>
      <trkpt lat="50.382" lon="3.6663">
        <ele>36.4</ele>
        <time>2022-05-09T07:48:47.000Z</time>
      </trkpt>
      <trkpt lat="50.38192" lon="3.66625">
        <ele>36.5</ele>
        <time>2022-05-09T07:48:49.000Z</time>
      </trkpt>
      <trkpt lat="50.38188" lon="3.66622">
        <ele>36.5</ele>
        <time>2022-05-09T07:48:50.000Z</time>
      </trkpt>
      <trkpt lat="50.38184" lon="3.66618">
        <ele>36.7</ele>
        <time>2022-05-09T07:48:51.000Z</time>
      </trkpt>
      <trkpt lat="50.3818" lon="3.66614">
        <ele>36.8</ele>
        <time>2022-05-09T07:48:52.000Z</time>
      </trkpt>
      <trkpt lat="50.38176" lon="3.66611">
        <ele>37</ele>
        <time>2022-05-09T07:48:53.000Z</time>
      </trkpt>
      <trkpt lat="50.38169" lon="3.66605">
        <ele>37</ele>
        <time>2022-05-09T07:48:55.000Z</time>
      </trkpt>
      <trkpt lat="50.38162" lon="3.66599">
        <ele>36.9</ele>
        <time>2022-05-09T07:48:57.000Z</time>
      </trkpt>
      <trkpt lat="50.38157" lon="3.66596">
        <ele>36.8</ele>
        <time>2022-05-09T07:48:59.000Z</time>
      </trkpt>
      <trkpt lat="50.3815" lon="3.66591">
        <ele>36.8</ele>
        <time>2022-05-09T07:48:59.951Z</time>
      </trkpt>
      <trkpt lat="50.38144" lon="3.66585">
        <ele>36.9</ele>
        <time>2022-05-09T07:49:01.552Z</time>
      </trkpt>
      <trkpt lat="50.3814" lon="3.66581">
        <ele>37.1</ele>
        <time>2022-05-09T07:49:02.771Z</time>
      </trkpt>
      <trkpt lat="50.38136" lon="3.66576">
        <ele>37.2</ele>
        <time>2022-05-09T07:49:04.092Z</time>
      </trkpt>
      <trkpt lat="50.38129" lon="3.66571">
        <ele>37.1</ele>
        <time>2022-05-09T07:49:06.088Z</time>
      </trkpt>
      <trkpt lat="50.38125" lon="3.66567">
        <ele>37.1</ele>
        <time>2022-05-09T07:49:07.000Z</time>
      </trkpt>
      <trkpt lat="50.38119" lon="3.66564">
        <ele>37</ele>
        <time>2022-05-09T07:49:08.052Z</time>
      </trkpt>
      <trkpt lat="50.38113" lon="3.66557">
        <ele>37</ele>
        <time>2022-05-09T07:49:10.136Z</time>
      </trkpt>
      <trkpt lat="50.38106" lon="3.66551">
        <ele>37.2</ele>
        <time>2022-05-09T07:49:12.000Z</time>
      </trkpt>
      <trkpt lat="50.38101" lon="3.66546">
        <ele>37.3</ele>
        <time>2022-05-09T07:49:14.000Z</time>
      </trkpt>
      <trkpt lat="50.38097" lon="3.66543">
        <ele>37.5</ele>
        <time>2022-05-09T07:49:15.030Z</time>
      </trkpt>
      <trkpt lat="50.38089" lon="3.66533">
        <ele>37.8</ele>
        <time>2022-05-09T07:49:17.570Z</time>
      </trkpt>
      <trkpt lat="50.38083" lon="3.66528">
        <ele>38</ele>
        <time>2022-05-09T07:49:19.000Z</time>
      </trkpt>
      <trkpt lat="50.38075" lon="3.66522">
        <ele>37.9</ele>
        <time>2022-05-09T07:49:21.650Z</time>
      </trkpt>
      <trkpt lat="50.38068" lon="3.66516">
        <ele>38.1</ele>
        <time>2022-05-09T07:49:24.000Z</time>
      </trkpt>
      <trkpt lat="50.38063" lon="3.66512">
        <ele>38.3</ele>
        <time>2022-05-09T07:49:25.010Z</time>
      </trkpt>
      <trkpt lat="50.38053" lon="3.66505">
        <ele>38.6</ele>
        <time>2022-05-09T07:49:27.000Z</time>
      </trkpt>
      <trkpt lat="50.38046" lon="3.66498">
        <ele>38.7</ele>
        <time>2022-05-09T07:49:29.000Z</time>
      </trkpt>
      <trkpt lat="50.38037" lon="3.66491">
        <ele>38.5</ele>
        <time>2022-05-09T07:49:31.000Z</time>
      </trkpt>
      <trkpt lat="50.38027" lon="3.66485">
        <ele>38.5</ele>
        <time>2022-05-09T07:49:33.000Z</time>
      </trkpt>
      <trkpt lat="50.38019" lon="3.66478">
        <ele>38.7</ele>
        <time>2022-05-09T07:49:35.574Z</time>
      </trkpt>
      <trkpt lat="50.38015" lon="3.66474">
        <ele>38.9</ele>
        <time>2022-05-09T07:49:36.813Z</time>
      </trkpt>
      <trkpt lat="50.38009" lon="3.66471">
        <ele>39</ele>
        <time>2022-05-09T07:49:38.033Z</time>
      </trkpt>
      <trkpt lat="50.38" lon="3.66465">
        <ele>39</ele>
        <time>2022-05-09T07:49:40.000Z</time>
      </trkpt>
      <trkpt lat="50.37991" lon="3.66458">
        <ele>38.5</ele>
        <time>2022-05-09T07:49:43.314Z</time>
      </trkpt>
      <trkpt lat="50.37985" lon="3.66452">
        <ele>38.3</ele>
        <time>2022-05-09T07:49:45.000Z</time>
      </trkpt>
      <trkpt lat="50.37981" lon="3.66448">
        <ele>38.2</ele>
        <time>2022-05-09T07:49:46.000Z</time>
      </trkpt>
      <trkpt lat="50.37977" lon="3.66445">
        <ele>38.2</ele>
        <time>2022-05-09T07:49:47.000Z</time>
      </trkpt>
      <trkpt lat="50.37973" lon="3.66442">
        <ele>38.1</ele>
        <time>2022-05-09T07:49:48.000Z</time>
      </trkpt>
      <trkpt lat="50.37969" lon="3.66438">
        <ele>38.1</ele>
        <time>2022-05-09T07:49:49.000Z</time>
      </trkpt>
      <trkpt lat="50.37964" lon="3.66434">
        <ele>38.1</ele>
        <time>2022-05-09T07:49:50.000Z</time>
      </trkpt>
      <trkpt lat="50.3796" lon="3.66431">
        <ele>38.1</ele>
        <time>2022-05-09T07:49:51.000Z</time>
      </trkpt>
      <trkpt lat="50.37956" lon="3.66427">
        <ele>38</ele>
        <time>2022-05-09T07:49:52.000Z</time>
      </trkpt>
      <trkpt lat="50.37951" lon="3.66423">
        <ele>38</ele>
        <time>2022-05-09T07:49:53.000Z</time>
      </trkpt>
      <trkpt lat="50.37946" lon="3.66419">
        <ele>38</ele>
        <time>2022-05-09T07:49:54.000Z</time>
      </trkpt>
      <trkpt lat="50.37941" lon="3.66415">
        <ele>37.9</ele>
        <time>2022-05-09T07:49:55.000Z</time>
      </trkpt>
      <trkpt lat="50.37936" lon="3.66412">
        <ele>37.9</ele>
        <time>2022-05-09T07:49:56.000Z</time>
      </trkpt>
      <trkpt lat="50.37931" lon="3.66409">
        <ele>37.8</ele>
        <time>2022-05-09T07:49:57.000Z</time>
      </trkpt>
      <trkpt lat="50.37924" lon="3.66405">
        <ele>37.7</ele>
        <time>2022-05-09T07:49:59.049Z</time>
      </trkpt>
      <trkpt lat="50.37916" lon="3.66403">
        <ele>37.5</ele>
        <time>2022-05-09T07:50:01.000Z</time>
      </trkpt>
      <trkpt lat="50.3791" lon="3.66404">
        <ele>37.4</ele>
        <time>2022-05-09T07:50:03.000Z</time>
      </trkpt>
      <trkpt lat="50.37905" lon="3.66412">
        <ele>37.1</ele>
        <time>2022-05-09T07:50:04.000Z</time>
      </trkpt>
      <trkpt lat="50.37899" lon="3.66412">
        <ele>37.1</ele>
        <time>2022-05-09T07:50:07.000Z</time>
      </trkpt>
      <trkpt lat="50.37896" lon="3.66403">
        <ele>37.1</ele>
        <time>2022-05-09T07:50:07.988Z</time>
      </trkpt>
      <trkpt lat="50.37892" lon="3.66397">
        <ele>37.1</ele>
        <time>2022-05-09T07:50:09.088Z</time>
      </trkpt>
      <trkpt lat="50.37886" lon="3.66392">
        <ele>37</ele>
        <time>2022-05-09T07:50:10.408Z</time>
      </trkpt>
      <trkpt lat="50.37881" lon="3.66387">
        <ele>37.1</ele>
        <time>2022-05-09T07:50:11.702Z</time>
      </trkpt>
      <trkpt lat="50.37876" lon="3.66383">
        <ele>37.2</ele>
        <time>2022-05-09T07:50:12.961Z</time>
      </trkpt>
      <trkpt lat="50.37869" lon="3.66375">
        <ele>37.5</ele>
        <time>2022-05-09T07:50:15.186Z</time>
      </trkpt>
      <trkpt lat="50.37863" lon="3.66371">
        <ele>37.6</ele>
        <time>2022-05-09T07:50:17.025Z</time>
      </trkpt>
      <trkpt lat="50.37859" lon="3.66367">
        <ele>37.8</ele>
        <time>2022-05-09T07:50:18.624Z</time>
      </trkpt>
      <trkpt lat="50.37855" lon="3.66363">
        <ele>37.9</ele>
        <time>2022-05-09T07:50:20.000Z</time>
      </trkpt>
      <trkpt lat="50.3785" lon="3.66358">
        <ele>38.1</ele>
        <time>2022-05-09T07:50:22.000Z</time>
      </trkpt>
      <trkpt lat="50.37845" lon="3.66355">
        <ele>38.2</ele>
        <time>2022-05-09T07:50:23.007Z</time>
      </trkpt>
      <trkpt lat="50.3784" lon="3.66349">
        <ele>38.4</ele>
        <time>2022-05-09T07:50:25.105Z</time>
      </trkpt>
      <trkpt lat="50.37835" lon="3.66344">
        <ele>38.6</ele>
        <time>2022-05-09T07:50:28.005Z</time>
      </trkpt>
      <trkpt lat="50.37828" lon="3.66337">
        <ele>38.7</ele>
        <time>2022-05-09T07:50:30.000Z</time>
      </trkpt>
      <trkpt lat="50.37824" lon="3.66334">
        <ele>38.6</ele>
        <time>2022-05-09T07:50:32.000Z</time>
      </trkpt>
      <trkpt lat="50.37818" lon="3.66327">
        <ele>38.8</ele>
        <time>2022-05-09T07:50:34.000Z</time>
      </trkpt>
      <trkpt lat="50.37808" lon="3.66318">
        <ele>39.1</ele>
        <time>2022-05-09T07:50:37.065Z</time>
      </trkpt>
      <trkpt lat="50.37804" lon="3.66314">
        <ele>39.3</ele>
        <time>2022-05-09T07:50:39.000Z</time>
      </trkpt>
      <trkpt lat="50.37799" lon="3.66308">
        <ele>39.4</ele>
        <time>2022-05-09T07:50:41.000Z</time>
      </trkpt>
      <trkpt lat="50.37794" lon="3.66301">
        <ele>39.4</ele>
        <time>2022-05-09T07:50:43.049Z</time>
      </trkpt>
      <trkpt lat="50.37788" lon="3.66296">
        <ele>39.3</ele>
        <time>2022-05-09T07:50:44.647Z</time>
      </trkpt>
      <trkpt lat="50.3778" lon="3.66288">
        <ele>39.4</ele>
        <time>2022-05-09T07:50:47.000Z</time>
      </trkpt>
      <trkpt lat="50.37776" lon="3.66283">
        <ele>39.6</ele>
        <time>2022-05-09T07:50:49.128Z</time>
      </trkpt>
      <trkpt lat="50.37772" lon="3.66278">
        <ele>39.8</ele>
        <time>2022-05-09T07:50:50.126Z</time>
      </trkpt>
      <trkpt lat="50.37768" lon="3.66273">
        <ele>39.7</ele>
        <time>2022-05-09T07:50:52.000Z</time>
      </trkpt>
      <trkpt lat="50.37763" lon="3.66267">
        <ele>39.7</ele>
        <time>2022-05-09T07:50:54.000Z</time>
      </trkpt>
      <trkpt lat="50.3776" lon="3.66262">
        <ele>39.7</ele>
        <time>2022-05-09T07:50:55.000Z</time>
      </trkpt>
      <trkpt lat="50.37754" lon="3.66254">
        <ele>39.9</ele>
        <time>2022-05-09T07:50:57.000Z</time>
      </trkpt>
      <trkpt lat="50.37745" lon="3.66243">
        <ele>40.3</ele>
        <time>2022-05-09T07:51:00.000Z</time>
      </trkpt>
      <trkpt lat="50.37742" lon="3.66236">
        <ele>40.5</ele>
        <time>2022-05-09T07:51:02.066Z</time>
      </trkpt>
      <trkpt lat="50.37737" lon="3.66227">
        <ele>40.8</ele>
        <time>2022-05-09T07:51:04.000Z</time>
      </trkpt>
      <trkpt lat="50.37734" lon="3.6622">
        <ele>40.9</ele>
        <time>2022-05-09T07:51:05.327Z</time>
      </trkpt>
      <trkpt lat="50.3773" lon="3.66214">
        <ele>40.8</ele>
        <time>2022-05-09T07:51:06.685Z</time>
      </trkpt>
      <trkpt lat="50.37727" lon="3.66208">
        <ele>40.8</ele>
        <time>2022-05-09T07:51:09.000Z</time>
      </trkpt>
      <trkpt lat="50.37723" lon="3.66201">
        <ele>40.8</ele>
        <time>2022-05-09T07:51:10.000Z</time>
      </trkpt>
      <trkpt lat="50.37719" lon="3.66192">
        <ele>40.9</ele>
        <time>2022-05-09T07:51:12.025Z</time>
      </trkpt>
      <trkpt lat="50.37712" lon="3.6618">
        <ele>40.8</ele>
        <time>2022-05-09T07:51:15.000Z</time>
      </trkpt>
      <trkpt lat="50.37708" lon="3.66173">
        <ele>40.9</ele>
        <time>2022-05-09T07:51:17.066Z</time>
      </trkpt>
      <trkpt lat="50.37703" lon="3.66166">
        <ele>41</ele>
        <time>2022-05-09T07:51:19.007Z</time>
      </trkpt>
      <trkpt lat="50.377" lon="3.66161">
        <ele>41.2</ele>
        <time>2022-05-09T07:51:20.000Z</time>
      </trkpt>
      <trkpt lat="50.37694" lon="3.66152">
        <ele>41.5</ele>
        <time>2022-05-09T07:51:23.146Z</time>
      </trkpt>
      <trkpt lat="50.3769" lon="3.66145">
        <ele>41.6</ele>
        <time>2022-05-09T07:51:25.000Z</time>
      </trkpt>
      <trkpt lat="50.37685" lon="3.66137">
        <ele>41.7</ele>
        <time>2022-05-09T07:51:27.043Z</time>
      </trkpt>
      <trkpt lat="50.3768" lon="3.66131">
        <ele>41.6</ele>
        <time>2022-05-09T07:51:29.000Z</time>
      </trkpt>
      <trkpt lat="50.37672" lon="3.66121">
        <ele>41.7</ele>
        <time>2022-05-09T07:51:32.000Z</time>
      </trkpt>
      <trkpt lat="50.37669" lon="3.66114">
        <ele>41.9</ele>
        <time>2022-05-09T07:51:34.000Z</time>
      </trkpt>
      <trkpt lat="50.37665" lon="3.66108">
        <ele>42.2</ele>
        <time>2022-05-09T07:51:34.966Z</time>
      </trkpt>
      <trkpt lat="50.37661" lon="3.66101">
        <ele>42.7</ele>
        <time>2022-05-09T07:51:37.000Z</time>
      </trkpt>
      <trkpt lat="50.37655" lon="3.6609">
        <ele>43.2</ele>
        <time>2022-05-09T07:51:39.764Z</time>
      </trkpt>
      <trkpt lat="50.37648" lon="3.6608">
        <ele>43.5</ele>
        <time>2022-05-09T07:51:42.928Z</time>
      </trkpt>
      <trkpt lat="50.37643" lon="3.66072">
        <ele>43.6</ele>
        <time>2022-05-09T07:51:46.000Z</time>
      </trkpt>
      <trkpt lat="50.37639" lon="3.66064">
        <ele>43.7</ele>
        <time>2022-05-09T07:51:48.168Z</time>
      </trkpt>
      <trkpt lat="50.37634" lon="3.66059">
        <ele>43.9</ele>
        <time>2022-05-09T07:51:50.949Z</time>
      </trkpt>
      <trkpt lat="50.3763" lon="3.66052">
        <ele>44.2</ele>
        <time>2022-05-09T07:51:53.007Z</time>
      </trkpt>
      <trkpt lat="50.37627" lon="3.66046">
        <ele>44.4</ele>
        <time>2022-05-09T07:51:55.000Z</time>
      </trkpt>
      <trkpt lat="50.37623" lon="3.66041">
        <ele>44.5</ele>
        <time>2022-05-09T07:51:56.000Z</time>
      </trkpt>
      <trkpt lat="50.37619" lon="3.66034">
        <ele>44.4</ele>
        <time>2022-05-09T07:51:58.048Z</time>
      </trkpt>
      <trkpt lat="50.37615" lon="3.66027">
        <ele>44.4</ele>
        <time>2022-05-09T07:51:59.990Z</time>
      </trkpt>
      <trkpt lat="50.3761" lon="3.66018">
        <ele>44.8</ele>
        <time>2022-05-09T07:52:02.907Z</time>
      </trkpt>
      <trkpt lat="50.37607" lon="3.66011">
        <ele>45.3</ele>
        <time>2022-05-09T07:52:05.000Z</time>
      </trkpt>
      <trkpt lat="50.37604" lon="3.66006">
        <ele>45.6</ele>
        <time>2022-05-09T07:52:06.000Z</time>
      </trkpt>
      <trkpt lat="50.37601" lon="3.65997">
        <ele>46.1</ele>
        <time>2022-05-09T07:52:08.748Z</time>
      </trkpt>
      <trkpt lat="50.37599" lon="3.65989">
        <ele>46.4</ele>
        <time>2022-05-09T07:52:11.000Z</time>
      </trkpt>
      <trkpt lat="50.37596" lon="3.6598">
        <ele>46.7</ele>
        <time>2022-05-09T07:52:13.126Z</time>
      </trkpt>
      <trkpt lat="50.37594" lon="3.65966">
        <ele>46.8</ele>
        <time>2022-05-09T07:52:16.000Z</time>
      </trkpt>
      <trkpt lat="50.37593" lon="3.65956">
        <ele>46.9</ele>
        <time>2022-05-09T07:52:18.485Z</time>
      </trkpt>
      <trkpt lat="50.37592" lon="3.65947">
        <ele>46.9</ele>
        <time>2022-05-09T07:52:21.125Z</time>
      </trkpt>
      <trkpt lat="50.3759" lon="3.65935">
        <ele>46.8</ele>
        <time>2022-05-09T07:52:22.985Z</time>
      </trkpt>
      <trkpt lat="50.37588" lon="3.65924">
        <ele>46.6</ele>
        <time>2022-05-09T07:52:26.067Z</time>
      </trkpt>
      <trkpt lat="50.37587" lon="3.65915">
        <ele>46.6</ele>
        <time>2022-05-09T07:52:27.746Z</time>
      </trkpt>
      <trkpt lat="50.37585" lon="3.65904">
        <ele>47.1</ele>
        <time>2022-05-09T07:52:30.767Z</time>
      </trkpt>
      <trkpt lat="50.37583" lon="3.65893">
        <ele>47.7</ele>
        <time>2022-05-09T07:52:33.000Z</time>
      </trkpt>
      <trkpt lat="50.37581" lon="3.65886">
        <ele>48.4</ele>
        <time>2022-05-09T07:52:35.128Z</time>
      </trkpt>
      <trkpt lat="50.37579" lon="3.65879">
        <ele>49.1</ele>
        <time>2022-05-09T07:52:36.746Z</time>
      </trkpt>
      <trkpt lat="50.37575" lon="3.65868">
        <ele>49.9</ele>
        <time>2022-05-09T07:52:39.000Z</time>
      </trkpt>
      <trkpt lat="50.37571" lon="3.6586">
        <ele>50.1</ele>
        <time>2022-05-09T07:52:41.000Z</time>
      </trkpt>
      <trkpt lat="50.37567" lon="3.65851">
        <ele>49.9</ele>
        <time>2022-05-09T07:52:43.169Z</time>
      </trkpt>
      <trkpt lat="50.37561" lon="3.65842">
        <ele>49.6</ele>
        <time>2022-05-09T07:52:46.446Z</time>
      </trkpt>
      <trkpt lat="50.37557" lon="3.65833">
        <ele>49.2</ele>
        <time>2022-05-09T07:52:49.000Z</time>
      </trkpt>
      <trkpt lat="50.37552" lon="3.65824">
        <ele>50.1</ele>
        <time>2022-05-09T07:52:52.007Z</time>
      </trkpt>
      <trkpt lat="50.37547" lon="3.65817">
        <ele>50.8</ele>
        <time>2022-05-09T07:52:54.244Z</time>
      </trkpt>
      <trkpt lat="50.37544" lon="3.65809">
        <ele>51.3</ele>
        <time>2022-05-09T07:52:55.967Z</time>
      </trkpt>
      <trkpt lat="50.3754" lon="3.658">
        <ele>51.4</ele>
        <time>2022-05-09T07:52:59.084Z</time>
      </trkpt>
      <trkpt lat="50.37537" lon="3.65791">
        <ele>51.2</ele>
        <time>2022-05-09T07:53:01.066Z</time>
      </trkpt>
      <trkpt lat="50.37534" lon="3.65783">
        <ele>50.8</ele>
        <time>2022-05-09T07:53:03.987Z</time>
      </trkpt>
      <trkpt lat="50.3753" lon="3.65773">
        <ele>50.7</ele>
        <time>2022-05-09T07:53:07.046Z</time>
      </trkpt>
      <trkpt lat="50.37526" lon="3.65767">
        <ele>51.2</ele>
        <time>2022-05-09T07:53:10.000Z</time>
      </trkpt>
      <trkpt lat="50.37523" lon="3.65759">
        <ele>52</ele>
        <time>2022-05-09T07:53:12.000Z</time>
      </trkpt>
      <trkpt lat="50.37519" lon="3.6575">
        <ele>52.7</ele>
        <time>2022-05-09T07:53:16.000Z</time>
      </trkpt>
      <trkpt lat="50.37516" lon="3.65744">
        <ele>52.7</ele>
        <time>2022-05-09T07:53:18.000Z</time>
      </trkpt>
      <trkpt lat="50.37513" lon="3.65737">
        <ele>52.7</ele>
        <time>2022-05-09T07:53:21.000Z</time>
      </trkpt>
      <trkpt lat="50.37511" lon="3.65729">
        <ele>52.7</ele>
        <time>2022-05-09T07:53:23.613Z</time>
      </trkpt>
      <trkpt lat="50.37508" lon="3.65721">
        <ele>52.6</ele>
        <time>2022-05-09T07:53:26.149Z</time>
      </trkpt>
      <trkpt lat="50.37505" lon="3.65713">
        <ele>52.7</ele>
        <time>2022-05-09T07:53:29.630Z</time>
      </trkpt>
      <trkpt lat="50.37503" lon="3.65706">
        <ele>52.7</ele>
        <time>2022-05-09T07:53:32.005Z</time>
      </trkpt>
      <trkpt lat="50.375" lon="3.65699">
        <ele>52.8</ele>
        <time>2022-05-09T07:53:35.000Z</time>
      </trkpt>
      <trkpt lat="50.37497" lon="3.65689">
        <ele>53.2</ele>
        <time>2022-05-09T07:55:28.000Z</time>
      </trkpt>
      <trkpt lat="50.37493" lon="3.65678">
        <ele>53.6</ele>
        <time>2022-05-09T07:55:32.180Z</time>
      </trkpt>
      <trkpt lat="50.3749" lon="3.6567">
        <ele>53.9</ele>
        <time>2022-05-09T07:55:34.759Z</time>
      </trkpt>
      <trkpt lat="50.37488" lon="3.65664">
        <ele>54</ele>
        <time>2022-05-09T07:55:35.878Z</time>
      </trkpt>
      <trkpt lat="50.37484" lon="3.65654">
        <ele>53.7</ele>
        <time>2022-05-09T07:55:38.078Z</time>
      </trkpt>
      <trkpt lat="50.37481" lon="3.65645">
        <ele>53.5</ele>
        <time>2022-05-09T07:55:39.999Z</time>
      </trkpt>
      <trkpt lat="50.37477" lon="3.65634">
        <ele>53.3</ele>
        <time>2022-05-09T07:55:42.261Z</time>
      </trkpt>
      <trkpt lat="50.37472" lon="3.65624">
        <ele>53.5</ele>
        <time>2022-05-09T07:55:44.638Z</time>
      </trkpt>
      <trkpt lat="50.37467" lon="3.65615">
        <ele>53.9</ele>
        <time>2022-05-09T07:55:46.860Z</time>
      </trkpt>
      <trkpt lat="50.37461" lon="3.65605">
        <ele>54.1</ele>
        <time>2022-05-09T07:55:49.000Z</time>
      </trkpt>
      <trkpt lat="50.37457" lon="3.65596">
        <ele>54.2</ele>
        <time>2022-05-09T07:55:51.086Z</time>
      </trkpt>
      <trkpt lat="50.37452" lon="3.65587">
        <ele>54.2</ele>
        <time>2022-05-09T07:55:53.108Z</time>
      </trkpt>
      <trkpt lat="50.37447" lon="3.65577">
        <ele>54.3</ele>
        <time>2022-05-09T07:55:55.501Z</time>
      </trkpt>
      <trkpt lat="50.37443" lon="3.6557">
        <ele>54.5</ele>
        <time>2022-05-09T07:55:56.897Z</time>
      </trkpt>
      <trkpt lat="50.37439" lon="3.65563">
        <ele>54.8</ele>
        <time>2022-05-09T07:55:59.000Z</time>
      </trkpt>
      <trkpt lat="50.37435" lon="3.65555">
        <ele>55</ele>
        <time>2022-05-09T07:56:01.341Z</time>
      </trkpt>
      <trkpt lat="50.37432" lon="3.65546">
        <ele>55</ele>
        <time>2022-05-09T07:56:03.899Z</time>
      </trkpt>
      <trkpt lat="50.3743" lon="3.65539">
        <ele>55</ele>
        <time>2022-05-09T07:56:06.000Z</time>
      </trkpt>
      <trkpt lat="50.37427" lon="3.65531">
        <ele>55</ele>
        <time>2022-05-09T07:56:08.000Z</time>
      </trkpt>
      <trkpt lat="50.37424" lon="3.65522">
        <ele>55.2</ele>
        <time>2022-05-09T07:56:11.041Z</time>
      </trkpt>
      <trkpt lat="50.37422" lon="3.65515">
        <ele>55.5</ele>
        <time>2022-05-09T07:56:13.000Z</time>
      </trkpt>
      <trkpt lat="50.3742" lon="3.65507">
        <ele>55.7</ele>
        <time>2022-05-09T07:56:15.000Z</time>
      </trkpt>
      <trkpt lat="50.37417" lon="3.65498">
        <ele>56</ele>
        <time>2022-05-09T07:56:17.121Z</time>
      </trkpt>
      <trkpt lat="50.37414" lon="3.65487">
        <ele>56</ele>
        <time>2022-05-09T07:56:19.957Z</time>
      </trkpt>
      <trkpt lat="50.37411" lon="3.65477">
        <ele>56</ele>
        <time>2022-05-09T07:56:23.000Z</time>
      </trkpt>
      <trkpt lat="50.37409" lon="3.65469">
        <ele>55.9</ele>
        <time>2022-05-09T07:56:25.000Z</time>
      </trkpt>
      <trkpt lat="50.37407" lon="3.65461">
        <ele>55.7</ele>
        <time>2022-05-09T07:56:27.018Z</time>
      </trkpt>
      <trkpt lat="50.37404" lon="3.65451">
        <ele>55.6</ele>
        <time>2022-05-09T07:56:29.464Z</time>
      </trkpt>
      <trkpt lat="50.37402" lon="3.65443">
        <ele>55.6</ele>
        <time>2022-05-09T07:56:32.000Z</time>
      </trkpt>
      <trkpt lat="50.374" lon="3.65434">
        <ele>55.8</ele>
        <time>2022-05-09T07:56:34.122Z</time>
      </trkpt>
      <trkpt lat="50.37398" lon="3.65423">
        <ele>55.9</ele>
        <time>2022-05-09T07:56:37.000Z</time>
      </trkpt>
      <trkpt lat="50.37397" lon="3.65416">
        <ele>56</ele>
        <time>2022-05-09T07:56:38.000Z</time>
      </trkpt>
      <trkpt lat="50.37393" lon="3.65406">
        <ele>56.1</ele>
        <time>2022-05-09T07:56:39.960Z</time>
      </trkpt>
      <trkpt lat="50.37387" lon="3.65399">
        <ele>56</ele>
        <time>2022-05-09T07:56:41.000Z</time>
      </trkpt>
      <trkpt lat="50.37375" lon="3.65385">
        <ele>56.1</ele>
        <time>2022-05-09T07:56:43.000Z</time>
      </trkpt>
      <trkpt lat="50.37369" lon="3.65379">
        <ele>56.4</ele>
        <time>2022-05-09T07:56:44.000Z</time>
      </trkpt>
      <trkpt lat="50.37365" lon="3.65374">
        <ele>56.5</ele>
        <time>2022-05-09T07:56:45.000Z</time>
      </trkpt>
      <trkpt lat="50.37361" lon="3.6537">
        <ele>56.7</ele>
        <time>2022-05-09T07:56:46.000Z</time>
      </trkpt>
      <trkpt lat="50.37356" lon="3.65364">
        <ele>56.9</ele>
        <time>2022-05-09T07:56:47.000Z</time>
      </trkpt>
      <trkpt lat="50.37349" lon="3.65357">
        <ele>57</ele>
        <time>2022-05-09T07:56:49.000Z</time>
      </trkpt>
      <trkpt lat="50.37343" lon="3.65351">
        <ele>57</ele>
        <time>2022-05-09T07:56:51.000Z</time>
      </trkpt>
      <trkpt lat="50.37337" lon="3.65344">
        <ele>57</ele>
        <time>2022-05-09T07:56:53.000Z</time>
      </trkpt>
      <trkpt lat="50.37332" lon="3.65335">
        <ele>57</ele>
        <time>2022-05-09T07:56:55.000Z</time>
      </trkpt>
      <trkpt lat="50.37327" lon="3.65329">
        <ele>57</ele>
        <time>2022-05-09T07:56:56.614Z</time>
      </trkpt>
      <trkpt lat="50.37322" lon="3.65325">
        <ele>57</ele>
        <time>2022-05-09T07:56:57.735Z</time>
      </trkpt>
      <trkpt lat="50.37314" lon="3.65316">
        <ele>57</ele>
        <time>2022-05-09T07:57:00.116Z</time>
      </trkpt>
      <trkpt lat="50.37309" lon="3.65312">
        <ele>57</ele>
        <time>2022-05-09T07:57:01.623Z</time>
      </trkpt>
      <trkpt lat="50.37304" lon="3.65306">
        <ele>57</ele>
        <time>2022-05-09T07:57:03.011Z</time>
      </trkpt>
      <trkpt lat="50.373" lon="3.65299">
        <ele>57</ele>
        <time>2022-05-09T07:57:05.000Z</time>
      </trkpt>
      <trkpt lat="50.37294" lon="3.65295">
        <ele>57</ele>
        <time>2022-05-09T07:57:08.067Z</time>
      </trkpt>
      <trkpt lat="50.3729" lon="3.6529">
        <ele>57</ele>
        <time>2022-05-09T07:57:10.000Z</time>
      </trkpt>
      <trkpt lat="50.37285" lon="3.65285">
        <ele>57</ele>
        <time>2022-05-09T07:57:12.000Z</time>
      </trkpt>
      <trkpt lat="50.37275" lon="3.65274">
        <ele>57.2</ele>
        <time>2022-05-09T07:57:15.013Z</time>
      </trkpt>
      <trkpt lat="50.37268" lon="3.65267">
        <ele>57.5</ele>
        <time>2022-05-09T07:57:17.000Z</time>
      </trkpt>
      <trkpt lat="50.37262" lon="3.6526">
        <ele>57.5</ele>
        <time>2022-05-09T07:57:19.000Z</time>
      </trkpt>
      <trkpt lat="50.37265" lon="3.65251">
        <ele>57.5</ele>
        <time>2022-05-09T07:57:21.097Z</time>
      </trkpt>
      <trkpt lat="50.37264" lon="3.65238">
        <ele>57.7</ele>
        <time>2022-05-09T07:57:23.000Z</time>
      </trkpt>
      <trkpt lat="50.37263" lon="3.6523">
        <ele>57.9</ele>
        <time>2022-05-09T07:57:24.316Z</time>
      </trkpt>
      <trkpt lat="50.37263" lon="3.65222">
        <ele>58</ele>
        <time>2022-05-09T07:57:25.616Z</time>
      </trkpt>
      <trkpt lat="50.37263" lon="3.65213">
        <ele>58.3</ele>
        <time>2022-05-09T07:57:27.000Z</time>
      </trkpt>
      <trkpt lat="50.37262" lon="3.65201">
        <ele>58.7</ele>
        <time>2022-05-09T07:57:29.000Z</time>
      </trkpt>
      <trkpt lat="50.37261" lon="3.65191">
        <ele>59</ele>
        <time>2022-05-09T07:57:30.934Z</time>
      </trkpt>
      <trkpt lat="50.37261" lon="3.65184">
        <ele>59</ele>
        <time>2022-05-09T07:57:32.000Z</time>
      </trkpt>
      <trkpt lat="50.37261" lon="3.65175">
        <ele>59</ele>
        <time>2022-05-09T07:57:33.593Z</time>
      </trkpt>
      <trkpt lat="50.37261" lon="3.65167">
        <ele>59</ele>
        <time>2022-05-09T07:57:34.775Z</time>
      </trkpt>
      <trkpt lat="50.37261" lon="3.65159">
        <ele>58.8</ele>
        <time>2022-05-09T07:57:36.000Z</time>
      </trkpt>
      <trkpt lat="50.3726" lon="3.65148">
        <ele>58.6</ele>
        <time>2022-05-09T07:57:38.000Z</time>
      </trkpt>
      <trkpt lat="50.37258" lon="3.65136">
        <ele>58.3</ele>
        <time>2022-05-09T07:57:40.000Z</time>
      </trkpt>
      <trkpt lat="50.37255" lon="3.65125">
        <ele>58.2</ele>
        <time>2022-05-09T07:57:42.035Z</time>
      </trkpt>
      <trkpt lat="50.37251" lon="3.65117">
        <ele>58</ele>
        <time>2022-05-09T07:57:44.000Z</time>
      </trkpt>
      <trkpt lat="50.37247" lon="3.6511">
        <ele>58.2</ele>
        <time>2022-05-09T07:57:46.000Z</time>
      </trkpt>
      <trkpt lat="50.37241" lon="3.65104">
        <ele>58.5</ele>
        <time>2022-05-09T07:57:48.095Z</time>
      </trkpt>
      <trkpt lat="50.37237" lon="3.651">
        <ele>58.7</ele>
        <time>2022-05-09T07:57:50.000Z</time>
      </trkpt>
      <trkpt lat="50.37232" lon="3.65093">
        <ele>58.9</ele>
        <time>2022-05-09T07:57:51.915Z</time>
      </trkpt>
      <trkpt lat="50.37227" lon="3.6509">
        <ele>59</ele>
        <time>2022-05-09T07:57:53.935Z</time>
      </trkpt>
      <trkpt lat="50.37219" lon="3.65082">
        <ele>59.1</ele>
        <time>2022-05-09T07:57:56.674Z</time>
      </trkpt>
      <trkpt lat="50.37215" lon="3.65078">
        <ele>59.1</ele>
        <time>2022-05-09T07:57:58.134Z</time>
      </trkpt>
      <trkpt lat="50.37209" lon="3.65073">
        <ele>59.2</ele>
        <time>2022-05-09T07:58:00.237Z</time>
      </trkpt>
      <trkpt lat="50.37203" lon="3.65067">
        <ele>59.2</ele>
        <time>2022-05-09T07:58:02.878Z</time>
      </trkpt>
      <trkpt lat="50.37197" lon="3.65063">
        <ele>59.1</ele>
        <time>2022-05-09T07:58:05.199Z</time>
      </trkpt>
      <trkpt lat="50.37192" lon="3.65057">
        <ele>59.1</ele>
        <time>2022-05-09T07:58:16.782Z</time>
      </trkpt>
      <trkpt lat="50.37191" lon="3.6505">
        <ele>59.3</ele>
        <time>2022-05-09T07:58:24.000Z</time>
      </trkpt>
      <trkpt lat="50.37189" lon="3.65042">
        <ele>59.7</ele>
        <time>2022-05-09T07:58:25.000Z</time>
      </trkpt>
      <trkpt lat="50.37187" lon="3.65035">
        <ele>60</ele>
        <time>2022-05-09T07:58:26.091Z</time>
      </trkpt>
      <trkpt lat="50.37183" lon="3.65029">
        <ele>60.4</ele>
        <time>2022-05-09T07:58:28.536Z</time>
      </trkpt>
      <trkpt lat="50.37186" lon="3.65038">
        <ele>60</ele>
        <time>2022-05-09T07:58:31.936Z</time>
      </trkpt>
      <trkpt lat="50.37188" lon="3.65046">
        <ele>59.6</ele>
        <time>2022-05-09T07:58:34.000Z</time>
      </trkpt>
      <trkpt lat="50.37188" lon="3.65055">
        <ele>59.3</ele>
        <time>2022-05-09T07:58:35.630Z</time>
      </trkpt>
      <trkpt lat="50.37186" lon="3.65057">
        <ele>59.3</ele>
        <time>2022-05-09T07:58:36.436Z</time>
      </trkpt>
      <trkpt lat="50.37182" lon="3.65056">
        <ele>59.4</ele>
        <time>2022-05-09T07:58:37.935Z</time>
      </trkpt>
      <trkpt lat="50.37176" lon="3.65055">
        <ele>59.7</ele>
        <time>2022-05-09T07:58:40.000Z</time>
      </trkpt>
      <trkpt lat="50.3717" lon="3.65052">
        <ele>60</ele>
        <time>2022-05-09T07:58:42.000Z</time>
      </trkpt>
      <trkpt lat="50.37162" lon="3.65049">
        <ele>60.2</ele>
        <time>2022-05-09T07:58:44.000Z</time>
      </trkpt>
      <trkpt lat="50.37157" lon="3.65047">
        <ele>60.3</ele>
        <time>2022-05-09T07:58:45.972Z</time>
      </trkpt>
      <trkpt lat="50.37151" lon="3.65045">
        <ele>60.4</ele>
        <time>2022-05-09T07:58:47.000Z</time>
      </trkpt>
      <trkpt lat="50.37146" lon="3.65044">
        <ele>60.4</ele>
        <time>2022-05-09T07:58:48.974Z</time>
      </trkpt>
      <trkpt lat="50.3714" lon="3.65043">
        <ele>60.4</ele>
        <time>2022-05-09T07:58:50.000Z</time>
      </trkpt>
      <trkpt lat="50.37132" lon="3.65041">
        <ele>60.6</ele>
        <time>2022-05-09T07:58:51.995Z</time>
      </trkpt>
      <trkpt lat="50.37126" lon="3.6504">
        <ele>60.8</ele>
        <time>2022-05-09T07:58:54.334Z</time>
      </trkpt>
      <trkpt lat="50.37118" lon="3.65038">
        <ele>60.9</ele>
        <time>2022-05-09T07:58:56.875Z</time>
      </trkpt>
      <trkpt lat="50.37112" lon="3.65039">
        <ele>61</ele>
        <time>2022-05-09T07:58:59.000Z</time>
      </trkpt>
      <trkpt lat="50.37107" lon="3.65038">
        <ele>61</ele>
        <time>2022-05-09T07:59:01.033Z</time>
      </trkpt>
      <trkpt lat="50.37101" lon="3.65036">
        <ele>61</ele>
        <time>2022-05-09T07:59:03.794Z</time>
      </trkpt>
      <trkpt lat="50.37094" lon="3.65034">
        <ele>61</ele>
        <time>2022-05-09T07:59:06.374Z</time>
      </trkpt>
      <trkpt lat="50.37088" lon="3.65032">
        <ele>61</ele>
        <time>2022-05-09T07:59:08.573Z</time>
      </trkpt>
      <trkpt lat="50.37083" lon="3.65029">
        <ele>61</ele>
        <time>2022-05-09T07:59:10.531Z</time>
      </trkpt>
      <trkpt lat="50.37077" lon="3.65027">
        <ele>61</ele>
        <time>2022-05-09T07:59:12.711Z</time>
      </trkpt>
      <trkpt lat="50.37071" lon="3.65025">
        <ele>61.1</ele>
        <time>2022-05-09T07:59:15.000Z</time>
      </trkpt>
      <trkpt lat="50.37066" lon="3.65023">
        <ele>61.2</ele>
        <time>2022-05-09T07:59:16.612Z</time>
      </trkpt>
      <trkpt lat="50.37059" lon="3.6502">
        <ele>61.3</ele>
        <time>2022-05-09T07:59:19.000Z</time>
      </trkpt>
      <trkpt lat="50.37053" lon="3.65017">
        <ele>61.4</ele>
        <time>2022-05-09T07:59:21.000Z</time>
      </trkpt>
      <trkpt lat="50.37047" lon="3.65013">
        <ele>61.7</ele>
        <time>2022-05-09T07:59:23.000Z</time>
      </trkpt>
      <trkpt lat="50.37042" lon="3.65012">
        <ele>61.8</ele>
        <time>2022-05-09T07:59:24.434Z</time>
      </trkpt>
      <trkpt lat="50.37034" lon="3.65006">
        <ele>62</ele>
        <time>2022-05-09T07:59:26.954Z</time>
      </trkpt>
      <trkpt lat="50.37028" lon="3.65002">
        <ele>62</ele>
        <time>2022-05-09T07:59:29.000Z</time>
      </trkpt>
      <trkpt lat="50.37021" lon="3.64995">
        <ele>62.1</ele>
        <time>2022-05-09T07:59:31.532Z</time>
      </trkpt>
      <trkpt lat="50.37015" lon="3.6499">
        <ele>62.2</ele>
        <time>2022-05-09T07:59:34.000Z</time>
      </trkpt>
      <trkpt lat="50.3701" lon="3.64985">
        <ele>62.2</ele>
        <time>2022-05-09T07:59:36.000Z</time>
      </trkpt>
      <trkpt lat="50.37005" lon="3.64981">
        <ele>62.1</ele>
        <time>2022-05-09T07:59:38.000Z</time>
      </trkpt>
      <trkpt lat="50.37" lon="3.64977">
        <ele>62</ele>
        <time>2022-05-09T07:59:39.910Z</time>
      </trkpt>
      <trkpt lat="50.36995" lon="3.64973">
        <ele>62.2</ele>
        <time>2022-05-09T07:59:42.000Z</time>
      </trkpt>
      <trkpt lat="50.36989" lon="3.64969">
        <ele>62.5</ele>
        <time>2022-05-09T07:59:44.000Z</time>
      </trkpt>
      <trkpt lat="50.36983" lon="3.64964">
        <ele>62.7</ele>
        <time>2022-05-09T07:59:46.000Z</time>
      </trkpt>
      <trkpt lat="50.36976" lon="3.6496">
        <ele>62.6</ele>
        <time>2022-05-09T07:59:48.000Z</time>
      </trkpt>
      <trkpt lat="50.36968" lon="3.64952">
        <ele>62.4</ele>
        <time>2022-05-09T07:59:51.000Z</time>
      </trkpt>
      <trkpt lat="50.36962" lon="3.64946">
        <ele>62.4</ele>
        <time>2022-05-09T07:59:53.000Z</time>
      </trkpt>
      <trkpt lat="50.36955" lon="3.64943">
        <ele>62.7</ele>
        <time>2022-05-09T07:59:55.000Z</time>
      </trkpt>
      <trkpt lat="50.36948" lon="3.64936">
        <ele>63</ele>
        <time>2022-05-09T07:59:56.979Z</time>
      </trkpt>
      <trkpt lat="50.36941" lon="3.64929">
        <ele>63</ele>
        <time>2022-05-09T07:59:59.000Z</time>
      </trkpt>
      <trkpt lat="50.36936" lon="3.64923">
        <ele>63</ele>
        <time>2022-05-09T08:00:01.000Z</time>
      </trkpt>
      <trkpt lat="50.36929" lon="3.64917">
        <ele>63</ele>
        <time>2022-05-09T08:00:03.044Z</time>
      </trkpt>
      <trkpt lat="50.36924" lon="3.64911">
        <ele>63.2</ele>
        <time>2022-05-09T08:00:05.000Z</time>
      </trkpt>
      <trkpt lat="50.36918" lon="3.64906">
        <ele>63.4</ele>
        <time>2022-05-09T08:00:07.000Z</time>
      </trkpt>
      <trkpt lat="50.36913" lon="3.64898">
        <ele>63.7</ele>
        <time>2022-05-09T08:00:09.000Z</time>
      </trkpt>
      <trkpt lat="50.36907" lon="3.64894">
        <ele>63.9</ele>
        <time>2022-05-09T08:00:11.000Z</time>
      </trkpt>
      <trkpt lat="50.369" lon="3.64888">
        <ele>64</ele>
        <time>2022-05-09T08:00:13.000Z</time>
      </trkpt>
      <trkpt lat="50.36894" lon="3.64882">
        <ele>64</ele>
        <time>2022-05-09T08:00:15.000Z</time>
      </trkpt>
      <trkpt lat="50.36887" lon="3.64875">
        <ele>64</ele>
        <time>2022-05-09T08:00:17.000Z</time>
      </trkpt>
      <trkpt lat="50.36883" lon="3.64872">
        <ele>64</ele>
        <time>2022-05-09T08:00:18.022Z</time>
      </trkpt>
      <trkpt lat="50.36877" lon="3.64865">
        <ele>64</ele>
        <time>2022-05-09T08:00:20.000Z</time>
      </trkpt>
      <trkpt lat="50.36871" lon="3.64858">
        <ele>64.1</ele>
        <time>2022-05-09T08:00:22.000Z</time>
      </trkpt>
      <trkpt lat="50.36865" lon="3.64853">
        <ele>64.3</ele>
        <time>2022-05-09T08:00:24.000Z</time>
      </trkpt>
      <trkpt lat="50.36858" lon="3.64848">
        <ele>64.5</ele>
        <time>2022-05-09T08:00:26.000Z</time>
      </trkpt>
      <trkpt lat="50.36852" lon="3.64844">
        <ele>64.5</ele>
        <time>2022-05-09T08:00:28.000Z</time>
      </trkpt>
      <trkpt lat="50.36845" lon="3.64839">
        <ele>64.5</ele>
        <time>2022-05-09T08:00:30.000Z</time>
      </trkpt>
      <trkpt lat="50.36839" lon="3.64835">
        <ele>64.2</ele>
        <time>2022-05-09T08:00:32.000Z</time>
      </trkpt>
      <trkpt lat="50.36831" lon="3.64831">
        <ele>64.1</ele>
        <time>2022-05-09T08:00:34.000Z</time>
      </trkpt>
      <trkpt lat="50.36825" lon="3.64827">
        <ele>64.5</ele>
        <time>2022-05-09T08:00:36.000Z</time>
      </trkpt>
      <trkpt lat="50.3682" lon="3.64823">
        <ele>64.7</ele>
        <time>2022-05-09T08:00:38.000Z</time>
      </trkpt>
      <trkpt lat="50.36813" lon="3.64819">
        <ele>64.9</ele>
        <time>2022-05-09T08:00:40.000Z</time>
      </trkpt>
      <trkpt lat="50.36807" lon="3.64816">
        <ele>65</ele>
        <time>2022-05-09T08:00:42.000Z</time>
      </trkpt>
      <trkpt lat="50.36802" lon="3.64812">
        <ele>65</ele>
        <time>2022-05-09T08:00:44.000Z</time>
      </trkpt>
      <trkpt lat="50.36796" lon="3.64806">
        <ele>65</ele>
        <time>2022-05-09T08:00:46.000Z</time>
      </trkpt>
      <trkpt lat="50.36791" lon="3.64802">
        <ele>65</ele>
        <time>2022-05-09T08:00:48.000Z</time>
      </trkpt>
      <trkpt lat="50.36786" lon="3.64806">
        <ele>65</ele>
        <time>2022-05-09T08:00:50.000Z</time>
      </trkpt>
      <trkpt lat="50.36792" lon="3.6481">
        <ele>65.1</ele>
        <time>2022-05-09T08:00:51.737Z</time>
      </trkpt>
      <trkpt lat="50.368" lon="3.64817">
        <ele>65.1</ele>
        <time>2022-05-09T08:00:54.000Z</time>
      </trkpt>
      <trkpt lat="50.36807" lon="3.64824">
        <ele>65</ele>
        <time>2022-05-09T08:00:56.000Z</time>
      </trkpt>
      <trkpt lat="50.36813" lon="3.64829">
        <ele>64.8</ele>
        <time>2022-05-09T08:00:58.000Z</time>
      </trkpt>
      <trkpt lat="50.36816" lon="3.64829">
        <ele>64.7</ele>
        <time>2022-05-09T08:00:59.690Z</time>
      </trkpt>
      <trkpt lat="50.3682" lon="3.64818">
        <ele>64.8</ele>
        <time>2022-05-09T08:01:03.818Z</time>
      </trkpt>
      <trkpt lat="50.36822" lon="3.64812">
        <ele>64.9</ele>
        <time>2022-05-09T08:01:06.000Z</time>
      </trkpt>
      <trkpt lat="50.36825" lon="3.64803">
        <ele>65.1</ele>
        <time>2022-05-09T08:01:08.418Z</time>
      </trkpt>
      <trkpt lat="50.36824" lon="3.64801">
        <ele>65.1</ele>
        <time>2022-05-09T08:01:09.000Z</time>
      </trkpt>
      <trkpt lat="50.36821" lon="3.6481">
        <ele>64.9</ele>
        <time>2022-05-09T08:01:14.000Z</time>
      </trkpt>
      <trkpt lat="50.36819" lon="3.64819">
        <ele>64.8</ele>
        <time>2022-05-09T08:01:16.000Z</time>
      </trkpt>
      <trkpt lat="50.36817" lon="3.64826">
        <ele>64.7</ele>
        <time>2022-05-09T08:01:18.000Z</time>
      </trkpt>
      <trkpt lat="50.36821" lon="3.64835">
        <ele>64.5</ele>
        <time>2022-05-09T08:01:20.000Z</time>
      </trkpt>
      <trkpt lat="50.36821" lon="3.64841">
        <ele>64.6</ele>
        <time>2022-05-09T08:01:22.000Z</time>
      </trkpt>
      <trkpt lat="50.3682" lon="3.6485">
        <ele>64.8</ele>
        <time>2022-05-09T08:01:23.930Z</time>
      </trkpt>
      <trkpt lat="50.36818" lon="3.64865">
        <ele>65</ele>
        <time>2022-05-09T08:01:26.000Z</time>
      </trkpt>
      <trkpt lat="50.36816" lon="3.64879">
        <ele>65</ele>
        <time>2022-05-09T08:01:28.000Z</time>
      </trkpt>
      <trkpt lat="50.36815" lon="3.64889">
        <ele>65</ele>
        <time>2022-05-09T08:01:28.996Z</time>
      </trkpt>
      <trkpt lat="50.36814" lon="3.64898">
        <ele>65</ele>
        <time>2022-05-09T08:01:30.152Z</time>
      </trkpt>
      <trkpt lat="50.36813" lon="3.64911">
        <ele>65</ele>
        <time>2022-05-09T08:01:32.035Z</time>
      </trkpt>
      <trkpt lat="50.36812" lon="3.64925">
        <ele>64.7</ele>
        <time>2022-05-09T08:01:33.000Z</time>
      </trkpt>
      <trkpt lat="50.3681" lon="3.64938">
        <ele>64.2</ele>
        <time>2022-05-09T08:01:34.000Z</time>
      </trkpt>
      <trkpt lat="50.36808" lon="3.64949">
        <ele>63.7</ele>
        <time>2022-05-09T08:01:35.000Z</time>
      </trkpt>
      <trkpt lat="50.36808" lon="3.6496">
        <ele>62.9</ele>
        <time>2022-05-09T08:01:36.000Z</time>
      </trkpt>
      <trkpt lat="50.36806" lon="3.64971">
        <ele>62.1</ele>
        <time>2022-05-09T08:01:37.000Z</time>
      </trkpt>
      <trkpt lat="50.36805" lon="3.64981">
        <ele>62</ele>
        <time>2022-05-09T08:01:38.000Z</time>
      </trkpt>
      <trkpt lat="50.36803" lon="3.64992">
        <ele>62.1</ele>
        <time>2022-05-09T08:01:39.000Z</time>
      </trkpt>
      <trkpt lat="50.36801" lon="3.65006">
        <ele>61.9</ele>
        <time>2022-05-09T08:01:40.000Z</time>
      </trkpt>
      <trkpt lat="50.36799" lon="3.65017">
        <ele>61.5</ele>
        <time>2022-05-09T08:01:41.000Z</time>
      </trkpt>
      <trkpt lat="50.36797" lon="3.65028">
        <ele>61</ele>
        <time>2022-05-09T08:01:42.000Z</time>
      </trkpt>
      <trkpt lat="50.36796" lon="3.65041">
        <ele>60.5</ele>
        <time>2022-05-09T08:01:43.000Z</time>
      </trkpt>
      <trkpt lat="50.36795" lon="3.65048">
        <ele>60.3</ele>
        <time>2022-05-09T08:01:43.977Z</time>
      </trkpt>
      <trkpt lat="50.36792" lon="3.65067">
        <ele>59.6</ele>
        <time>2022-05-09T08:01:45.000Z</time>
      </trkpt>
      <trkpt lat="50.3679" lon="3.65081">
        <ele>59.1</ele>
        <time>2022-05-09T08:01:46.000Z</time>
      </trkpt>
      <trkpt lat="50.36787" lon="3.65092">
        <ele>57.8</ele>
        <time>2022-05-09T08:01:47.000Z</time>
      </trkpt>
      <trkpt lat="50.36784" lon="3.65106">
        <ele>56</ele>
        <time>2022-05-09T08:01:48.000Z</time>
      </trkpt>
      <trkpt lat="50.36782" lon="3.65119">
        <ele>54.1</ele>
        <time>2022-05-09T08:01:49.000Z</time>
      </trkpt>
      <trkpt lat="50.36782" lon="3.65132">
        <ele>52.2</ele>
        <time>2022-05-09T08:01:50.000Z</time>
      </trkpt>
      <trkpt lat="50.36784" lon="3.65147">
        <ele>50.5</ele>
        <time>2022-05-09T08:01:51.000Z</time>
      </trkpt>
      <trkpt lat="50.36786" lon="3.6516">
        <ele>49.1</ele>
        <time>2022-05-09T08:01:52.000Z</time>
      </trkpt>
      <trkpt lat="50.36789" lon="3.65177">
        <ele>47.2</ele>
        <time>2022-05-09T08:01:53.000Z</time>
      </trkpt>
      <trkpt lat="50.36791" lon="3.65194">
        <ele>45.1</ele>
        <time>2022-05-09T08:01:54.000Z</time>
      </trkpt>
      <trkpt lat="50.36792" lon="3.65211">
        <ele>43.2</ele>
        <time>2022-05-09T08:01:55.000Z</time>
      </trkpt>
      <trkpt lat="50.36792" lon="3.65231">
        <ele>41.6</ele>
        <time>2022-05-09T08:01:56.000Z</time>
      </trkpt>
      <trkpt lat="50.36792" lon="3.65242">
        <ele>40.9</ele>
        <time>2022-05-09T08:01:57.000Z</time>
      </trkpt>
      <trkpt lat="50.36792" lon="3.65251">
        <ele>40.5</ele>
        <time>2022-05-09T08:01:58.000Z</time>
      </trkpt>
      <trkpt lat="50.36791" lon="3.65259">
        <ele>40.2</ele>
        <time>2022-05-09T08:01:59.000Z</time>
      </trkpt>
      <trkpt lat="50.36787" lon="3.65266">
        <ele>39.8</ele>
        <time>2022-05-09T08:02:02.000Z</time>
      </trkpt>
      <trkpt lat="50.36784" lon="3.6526">
        <ele>39.8</ele>
        <time>2022-05-09T08:02:05.000Z</time>
      </trkpt>
      <trkpt lat="50.3678" lon="3.65251">
        <ele>40</ele>
        <time>2022-05-09T08:02:07.000Z</time>
      </trkpt>
      <trkpt lat="50.36774" lon="3.65246">
        <ele>40.3</ele>
        <time>2022-05-09T08:02:08.944Z</time>
      </trkpt>
      <trkpt lat="50.36768" lon="3.65245">
        <ele>40.5</ele>
        <time>2022-05-09T08:02:10.000Z</time>
      </trkpt>
      <trkpt lat="50.36762" lon="3.65244">
        <ele>40.8</ele>
        <time>2022-05-09T08:02:11.000Z</time>
      </trkpt>
      <trkpt lat="50.36757" lon="3.65244">
        <ele>41</ele>
        <time>2022-05-09T08:02:12.000Z</time>
      </trkpt>
      <trkpt lat="50.36751" lon="3.65244">
        <ele>41.2</ele>
        <time>2022-05-09T08:02:13.000Z</time>
      </trkpt>
      <trkpt lat="50.36746" lon="3.65243">
        <ele>41.2</ele>
        <time>2022-05-09T08:02:14.000Z</time>
      </trkpt>
      <trkpt lat="50.36742" lon="3.65242">
        <ele>41.1</ele>
        <time>2022-05-09T08:02:15.000Z</time>
      </trkpt>
      <trkpt lat="50.36737" lon="3.65241">
        <ele>41</ele>
        <time>2022-05-09T08:02:16.000Z</time>
      </trkpt>
      <trkpt lat="50.36733" lon="3.65238">
        <ele>41.1</ele>
        <time>2022-05-09T08:02:17.000Z</time>
      </trkpt>
      <trkpt lat="50.36729" lon="3.65237">
        <ele>41.1</ele>
        <time>2022-05-09T08:02:18.000Z</time>
      </trkpt>
      <trkpt lat="50.36724" lon="3.65237">
        <ele>40.9</ele>
        <time>2022-05-09T08:02:19.652Z</time>
      </trkpt>
      <trkpt lat="50.36721" lon="3.65249">
        <ele>40.1</ele>
        <time>2022-05-09T08:02:20.633Z</time>
      </trkpt>
      <trkpt lat="50.36721" lon="3.65256">
        <ele>40.2</ele>
        <time>2022-05-09T08:02:22.000Z</time>
      </trkpt>
      <trkpt lat="50.3672" lon="3.65263">
        <ele>40.5</ele>
        <time>2022-05-09T08:02:22.976Z</time>
      </trkpt>
      <trkpt lat="50.36719" lon="3.65275">
        <ele>40.9</ele>
        <time>2022-05-09T08:02:24.032Z</time>
      </trkpt>
      <trkpt lat="50.36719" lon="3.65283">
        <ele>41</ele>
        <time>2022-05-09T08:02:25.093Z</time>
      </trkpt>
      <trkpt lat="50.36717" lon="3.65291">
        <ele>41</ele>
        <time>2022-05-09T08:02:26.000Z</time>
      </trkpt>
      <trkpt lat="50.36711" lon="3.65308">
        <ele>41</ele>
        <time>2022-05-09T08:02:29.000Z</time>
      </trkpt>
      <trkpt lat="50.36706" lon="3.65318">
        <ele>41</ele>
        <time>2022-05-09T08:02:31.000Z</time>
      </trkpt>
      <trkpt lat="50.36703" lon="3.65325">
        <ele>41</ele>
        <time>2022-05-09T08:02:32.000Z</time>
      </trkpt>
      <trkpt lat="50.367" lon="3.65331">
        <ele>41</ele>
        <time>2022-05-09T08:02:33.000Z</time>
      </trkpt>
      <trkpt lat="50.36696" lon="3.65341">
        <ele>41</ele>
        <time>2022-05-09T08:02:35.000Z</time>
      </trkpt>
      <trkpt lat="50.36693" lon="3.65348">
        <ele>41</ele>
        <time>2022-05-09T08:02:37.000Z</time>
      </trkpt>
      <trkpt lat="50.36689" lon="3.65359">
        <ele>41.2</ele>
        <time>2022-05-09T08:02:38.194Z</time>
      </trkpt>
      <trkpt lat="50.36687" lon="3.65368">
        <ele>41.6</ele>
        <time>2022-05-09T08:02:39.754Z</time>
      </trkpt>
      <trkpt lat="50.36684" lon="3.6538">
        <ele>42.2</ele>
        <time>2022-05-09T08:02:41.721Z</time>
      </trkpt>
      <trkpt lat="50.36679" lon="3.65395">
        <ele>42.8</ele>
        <time>2022-05-09T08:02:44.094Z</time>
      </trkpt>
      <trkpt lat="50.36677" lon="3.65405">
        <ele>43.3</ele>
        <time>2022-05-09T08:02:45.664Z</time>
      </trkpt>
      <trkpt lat="50.36675" lon="3.65413">
        <ele>43.8</ele>
        <time>2022-05-09T08:02:46.894Z</time>
      </trkpt>
      <trkpt lat="50.36674" lon="3.65422">
        <ele>44.1</ele>
        <time>2022-05-09T08:02:47.855Z</time>
      </trkpt>
      <trkpt lat="50.36672" lon="3.6543">
        <ele>44.2</ele>
        <time>2022-05-09T08:02:50.000Z</time>
      </trkpt>
      <trkpt lat="50.36669" lon="3.6544">
        <ele>44.2</ele>
        <time>2022-05-09T08:02:52.000Z</time>
      </trkpt>
      <trkpt lat="50.36666" lon="3.65451">
        <ele>44.3</ele>
        <time>2022-05-09T08:02:54.000Z</time>
      </trkpt>
      <trkpt lat="50.36663" lon="3.65462">
        <ele>45</ele>
        <time>2022-05-09T08:02:56.334Z</time>
      </trkpt>
      <trkpt lat="50.36659" lon="3.6547">
        <ele>45.5</ele>
        <time>2022-05-09T08:02:58.932Z</time>
      </trkpt>
      <trkpt lat="50.36655" lon="3.65478">
        <ele>46</ele>
        <time>2022-05-09T08:03:02.000Z</time>
      </trkpt>
      <trkpt lat="50.36649" lon="3.6548">
        <ele>46.3</ele>
        <time>2022-05-09T08:03:05.415Z</time>
      </trkpt>
      <trkpt lat="50.36643" lon="3.65482">
        <ele>46.5</ele>
        <time>2022-05-09T08:03:09.075Z</time>
      </trkpt>
      <trkpt lat="50.36637" lon="3.65481">
        <ele>46.8</ele>
        <time>2022-05-09T08:03:12.000Z</time>
      </trkpt>
      <trkpt lat="50.36631" lon="3.65478">
        <ele>47.3</ele>
        <time>2022-05-09T08:03:14.894Z</time>
      </trkpt>
      <trkpt lat="50.36626" lon="3.65475">
        <ele>47.5</ele>
        <time>2022-05-09T08:03:17.834Z</time>
      </trkpt>
      <trkpt lat="50.36622" lon="3.65471">
        <ele>47.6</ele>
        <time>2022-05-09T08:03:21.000Z</time>
      </trkpt>
      <trkpt lat="50.36617" lon="3.6547">
        <ele>47.7</ele>
        <time>2022-05-09T08:03:24.116Z</time>
      </trkpt>
      <trkpt lat="50.36613" lon="3.65466">
        <ele>47.7</ele>
        <time>2022-05-09T08:03:28.000Z</time>
      </trkpt>
      <trkpt lat="50.36608" lon="3.65461">
        <ele>47.7</ele>
        <time>2022-05-09T08:03:29.676Z</time>
      </trkpt>
      <trkpt lat="50.36603" lon="3.65455">
        <ele>47.7</ele>
        <time>2022-05-09T08:03:31.977Z</time>
      </trkpt>
      <trkpt lat="50.36596" lon="3.6545">
        <ele>47.7</ele>
        <time>2022-05-09T08:03:34.359Z</time>
      </trkpt>
      <trkpt lat="50.3659" lon="3.65447">
        <ele>47.9</ele>
        <time>2022-05-09T08:03:37.000Z</time>
      </trkpt>
      <trkpt lat="50.36585" lon="3.65443">
        <ele>47.9</ele>
        <time>2022-05-09T08:03:39.000Z</time>
      </trkpt>
      <trkpt lat="50.3658" lon="3.6544">
        <ele>47.7</ele>
        <time>2022-05-09T08:03:41.000Z</time>
      </trkpt>
      <trkpt lat="50.36569" lon="3.65433">
        <ele>47.4</ele>
        <time>2022-05-09T08:03:44.299Z</time>
      </trkpt>
      <trkpt lat="50.36564" lon="3.6543">
        <ele>47.3</ele>
        <time>2022-05-09T08:03:45.895Z</time>
      </trkpt>
      <trkpt lat="50.36558" lon="3.65426">
        <ele>47.3</ele>
        <time>2022-05-09T08:03:47.938Z</time>
      </trkpt>
      <trkpt lat="50.36552" lon="3.65423">
        <ele>47.3</ele>
        <time>2022-05-09T08:03:49.000Z</time>
      </trkpt>
      <trkpt lat="50.36544" lon="3.65418">
        <ele>47.4</ele>
        <time>2022-05-09T08:03:51.000Z</time>
      </trkpt>
      <trkpt lat="50.36538" lon="3.65414">
        <ele>47.5</ele>
        <time>2022-05-09T08:03:54.000Z</time>
      </trkpt>
      <trkpt lat="50.36532" lon="3.65411">
        <ele>47.5</ele>
        <time>2022-05-09T08:03:56.056Z</time>
      </trkpt>
      <trkpt lat="50.36525" lon="3.65408">
        <ele>47.4</ele>
        <time>2022-05-09T08:03:58.000Z</time>
      </trkpt>
      <trkpt lat="50.36511" lon="3.65401">
        <ele>46.9</ele>
        <time>2022-05-09T08:04:01.157Z</time>
      </trkpt>
      <trkpt lat="50.36504" lon="3.65397">
        <ele>46.6</ele>
        <time>2022-05-09T08:04:02.857Z</time>
      </trkpt>
      <trkpt lat="50.3649" lon="3.65389">
        <ele>46.4</ele>
        <time>2022-05-09T08:04:06.116Z</time>
      </trkpt>
      <trkpt lat="50.36483" lon="3.65385">
        <ele>46.4</ele>
        <time>2022-05-09T08:04:08.000Z</time>
      </trkpt>
      <trkpt lat="50.36478" lon="3.65383">
        <ele>46.4</ele>
        <time>2022-05-09T08:04:09.000Z</time>
      </trkpt>
      <trkpt lat="50.36474" lon="3.6538">
        <ele>46.3</ele>
        <time>2022-05-09T08:04:10.000Z</time>
      </trkpt>
      <trkpt lat="50.36469" lon="3.65378">
        <ele>46.3</ele>
        <time>2022-05-09T08:04:11.000Z</time>
      </trkpt>
      <trkpt lat="50.36463" lon="3.65376">
        <ele>46.4</ele>
        <time>2022-05-09T08:04:12.000Z</time>
      </trkpt>
      <trkpt lat="50.36458" lon="3.65374">
        <ele>46.4</ele>
        <time>2022-05-09T08:04:13.000Z</time>
      </trkpt>
      <trkpt lat="50.36454" lon="3.65372">
        <ele>46.5</ele>
        <time>2022-05-09T08:04:14.000Z</time>
      </trkpt>
      <trkpt lat="50.36449" lon="3.6537">
        <ele>46.5</ele>
        <time>2022-05-09T08:04:15.000Z</time>
      </trkpt>
      <trkpt lat="50.36443" lon="3.65368">
        <ele>46.5</ele>
        <time>2022-05-09T08:04:16.000Z</time>
      </trkpt>
      <trkpt lat="50.36434" lon="3.65365">
        <ele>46.2</ele>
        <time>2022-05-09T08:04:18.000Z</time>
      </trkpt>
      <trkpt lat="50.36429" lon="3.65363">
        <ele>46.1</ele>
        <time>2022-05-09T08:04:19.000Z</time>
      </trkpt>
      <trkpt lat="50.36424" lon="3.65362">
        <ele>46</ele>
        <time>2022-05-09T08:04:20.000Z</time>
      </trkpt>
      <trkpt lat="50.36419" lon="3.6536">
        <ele>46</ele>
        <time>2022-05-09T08:04:21.000Z</time>
      </trkpt>
      <trkpt lat="50.36414" lon="3.65358">
        <ele>45.9</ele>
        <time>2022-05-09T08:04:22.000Z</time>
      </trkpt>
      <trkpt lat="50.36409" lon="3.65356">
        <ele>45.8</ele>
        <time>2022-05-09T08:04:23.000Z</time>
      </trkpt>
      <trkpt lat="50.36403" lon="3.65353">
        <ele>45.7</ele>
        <time>2022-05-09T08:04:24.000Z</time>
      </trkpt>
      <trkpt lat="50.36394" lon="3.65349">
        <ele>45.6</ele>
        <time>2022-05-09T08:04:26.000Z</time>
      </trkpt>
      <trkpt lat="50.36385" lon="3.65346">
        <ele>45.5</ele>
        <time>2022-05-09T08:04:28.000Z</time>
      </trkpt>
      <trkpt lat="50.36379" lon="3.65343">
        <ele>45.4</ele>
        <time>2022-05-09T08:04:29.000Z</time>
      </trkpt>
      <trkpt lat="50.3637" lon="3.6534">
        <ele>45.2</ele>
        <time>2022-05-09T08:04:31.000Z</time>
      </trkpt>
      <trkpt lat="50.36361" lon="3.65336">
        <ele>45.1</ele>
        <time>2022-05-09T08:04:33.000Z</time>
      </trkpt>
      <trkpt lat="50.36355" lon="3.65334">
        <ele>45.5</ele>
        <time>2022-05-09T08:04:34.000Z</time>
      </trkpt>
      <trkpt lat="50.3635" lon="3.65331">
        <ele>45.6</ele>
        <time>2022-05-09T08:04:35.000Z</time>
      </trkpt>
      <trkpt lat="50.36346" lon="3.65329">
        <ele>45.8</ele>
        <time>2022-05-09T08:04:36.000Z</time>
      </trkpt>
      <trkpt lat="50.36337" lon="3.65325">
        <ele>45.9</ele>
        <time>2022-05-09T08:04:38.000Z</time>
      </trkpt>
      <trkpt lat="50.36333" lon="3.65324">
        <ele>46</ele>
        <time>2022-05-09T08:04:39.000Z</time>
      </trkpt>
      <trkpt lat="50.36327" lon="3.65322">
        <ele>45.9</ele>
        <time>2022-05-09T08:04:40.000Z</time>
      </trkpt>
      <trkpt lat="50.36319" lon="3.65319">
        <ele>45.7</ele>
        <time>2022-05-09T08:04:42.000Z</time>
      </trkpt>
      <trkpt lat="50.36313" lon="3.65317">
        <ele>45.5</ele>
        <time>2022-05-09T08:04:43.000Z</time>
      </trkpt>
      <trkpt lat="50.36309" lon="3.65316">
        <ele>45.4</ele>
        <time>2022-05-09T08:04:44.000Z</time>
      </trkpt>
      <trkpt lat="50.363" lon="3.65314">
        <ele>45.5</ele>
        <time>2022-05-09T08:04:46.000Z</time>
      </trkpt>
      <trkpt lat="50.36294" lon="3.65314">
        <ele>45.9</ele>
        <time>2022-05-09T08:04:48.000Z</time>
      </trkpt>
      <trkpt lat="50.36284" lon="3.65313">
        <ele>46.4</ele>
        <time>2022-05-09T08:04:50.000Z</time>
      </trkpt>
      <trkpt lat="50.36278" lon="3.65313">
        <ele>46.8</ele>
        <time>2022-05-09T08:04:52.000Z</time>
      </trkpt>
      <trkpt lat="50.36272" lon="3.65311">
        <ele>46.6</ele>
        <time>2022-05-09T08:04:53.000Z</time>
      </trkpt>
      <trkpt lat="50.36264" lon="3.6531">
        <ele>46.5</ele>
        <time>2022-05-09T08:04:55.860Z</time>
      </trkpt>
      <trkpt lat="50.36258" lon="3.65309">
        <ele>46.4</ele>
        <time>2022-05-09T08:04:58.000Z</time>
      </trkpt>
      <trkpt lat="50.36251" lon="3.65309">
        <ele>46.4</ele>
        <time>2022-05-09T08:05:00.000Z</time>
      </trkpt>
      <trkpt lat="50.36245" lon="3.65309">
        <ele>46.6</ele>
        <time>2022-05-09T08:05:02.000Z</time>
      </trkpt>
      <trkpt lat="50.3624" lon="3.65309">
        <ele>46.7</ele>
        <time>2022-05-09T08:05:03.960Z</time>
      </trkpt>
      <trkpt lat="50.36233" lon="3.65308">
        <ele>46.9</ele>
        <time>2022-05-09T08:05:06.000Z</time>
      </trkpt>
      <trkpt lat="50.36228" lon="3.65306">
        <ele>46.8</ele>
        <time>2022-05-09T08:05:07.740Z</time>
      </trkpt>
      <trkpt lat="50.36222" lon="3.65304">
        <ele>46.9</ele>
        <time>2022-05-09T08:05:10.021Z</time>
      </trkpt>
      <trkpt lat="50.36217" lon="3.65302">
        <ele>47.2</ele>
        <time>2022-05-09T08:05:12.000Z</time>
      </trkpt>
      <trkpt lat="50.36213" lon="3.65299">
        <ele>47.3</ele>
        <time>2022-05-09T08:05:15.000Z</time>
      </trkpt>
      <trkpt lat="50.36207" lon="3.65295">
        <ele>47.5</ele>
        <time>2022-05-09T08:05:18.000Z</time>
      </trkpt>
      <trkpt lat="50.36201" lon="3.65292">
        <ele>47.6</ele>
        <time>2022-05-09T08:05:21.000Z</time>
      </trkpt>
      <trkpt lat="50.36196" lon="3.6529">
        <ele>47.6</ele>
        <time>2022-05-09T08:05:23.064Z</time>
      </trkpt>
      <trkpt lat="50.3619" lon="3.65286">
        <ele>47.4</ele>
        <time>2022-05-09T08:05:25.320Z</time>
      </trkpt>
      <trkpt lat="50.36179" lon="3.65279">
        <ele>47.2</ele>
        <time>2022-05-09T08:05:28.421Z</time>
      </trkpt>
      <trkpt lat="50.36172" lon="3.65276">
        <ele>47.3</ele>
        <time>2022-05-09T08:05:29.622Z</time>
      </trkpt>
      <trkpt lat="50.36167" lon="3.65272">
        <ele>47.2</ele>
        <time>2022-05-09T08:05:31.083Z</time>
      </trkpt>
      <trkpt lat="50.36161" lon="3.65269">
        <ele>46.8</ele>
        <time>2022-05-09T08:05:33.079Z</time>
      </trkpt>
      <trkpt lat="50.36154" lon="3.65266">
        <ele>46.7</ele>
        <time>2022-05-09T08:05:34.659Z</time>
      </trkpt>
      <trkpt lat="50.36148" lon="3.65264">
        <ele>46.6</ele>
        <time>2022-05-09T08:05:36.000Z</time>
      </trkpt>
      <trkpt lat="50.36143" lon="3.65261">
        <ele>46.6</ele>
        <time>2022-05-09T08:05:37.000Z</time>
      </trkpt>
      <trkpt lat="50.36138" lon="3.65259">
        <ele>46.7</ele>
        <time>2022-05-09T08:05:38.000Z</time>
      </trkpt>
      <trkpt lat="50.36128" lon="3.65253">
        <ele>46.6</ele>
        <time>2022-05-09T08:05:40.000Z</time>
      </trkpt>
      <trkpt lat="50.36123" lon="3.65251">
        <ele>46.6</ele>
        <time>2022-05-09T08:05:41.000Z</time>
      </trkpt>
      <trkpt lat="50.36118" lon="3.65249">
        <ele>46.7</ele>
        <time>2022-05-09T08:05:42.000Z</time>
      </trkpt>
      <trkpt lat="50.36114" lon="3.65248">
        <ele>46.8</ele>
        <time>2022-05-09T08:05:43.000Z</time>
      </trkpt>
      <trkpt lat="50.36109" lon="3.65246">
        <ele>46.8</ele>
        <time>2022-05-09T08:05:44.000Z</time>
      </trkpt>
      <trkpt lat="50.36103" lon="3.65243">
        <ele>46.7</ele>
        <time>2022-05-09T08:05:45.000Z</time>
      </trkpt>
      <trkpt lat="50.36097" lon="3.65241">
        <ele>46.7</ele>
        <time>2022-05-09T08:05:46.000Z</time>
      </trkpt>
      <trkpt lat="50.3609" lon="3.65239">
        <ele>46.7</ele>
        <time>2022-05-09T08:05:48.000Z</time>
      </trkpt>
      <trkpt lat="50.36085" lon="3.65236">
        <ele>46.4</ele>
        <time>2022-05-09T08:05:49.000Z</time>
      </trkpt>
      <trkpt lat="50.3608" lon="3.65234">
        <ele>46.4</ele>
        <time>2022-05-09T08:05:50.000Z</time>
      </trkpt>
      <trkpt lat="50.36071" lon="3.65231">
        <ele>46.4</ele>
        <time>2022-05-09T08:05:52.000Z</time>
      </trkpt>
      <trkpt lat="50.36066" lon="3.65229">
        <ele>46.3</ele>
        <time>2022-05-09T08:05:53.000Z</time>
      </trkpt>
      <trkpt lat="50.36061" lon="3.65227">
        <ele>46.3</ele>
        <time>2022-05-09T08:05:54.000Z</time>
      </trkpt>
      <trkpt lat="50.36052" lon="3.65223">
        <ele>46.3</ele>
        <time>2022-05-09T08:05:56.000Z</time>
      </trkpt>
      <trkpt lat="50.36047" lon="3.65221">
        <ele>46.5</ele>
        <time>2022-05-09T08:05:57.000Z</time>
      </trkpt>
      <trkpt lat="50.36042" lon="3.65219">
        <ele>46.7</ele>
        <time>2022-05-09T08:05:58.000Z</time>
      </trkpt>
      <trkpt lat="50.36037" lon="3.65217">
        <ele>46.8</ele>
        <time>2022-05-09T08:05:59.000Z</time>
      </trkpt>
      <trkpt lat="50.36033" lon="3.65215">
        <ele>46.9</ele>
        <time>2022-05-09T08:06:00.000Z</time>
      </trkpt>
      <trkpt lat="50.36028" lon="3.65213">
        <ele>47</ele>
        <time>2022-05-09T08:06:01.000Z</time>
      </trkpt>
      <trkpt lat="50.36024" lon="3.65211">
        <ele>46.9</ele>
        <time>2022-05-09T08:06:02.000Z</time>
      </trkpt>
      <trkpt lat="50.36019" lon="3.65209">
        <ele>46.7</ele>
        <time>2022-05-09T08:06:03.000Z</time>
      </trkpt>
      <trkpt lat="50.36014" lon="3.65208">
        <ele>46.7</ele>
        <time>2022-05-09T08:06:04.000Z</time>
      </trkpt>
      <trkpt lat="50.36006" lon="3.65211">
        <ele>47.1</ele>
        <time>2022-05-09T08:06:06.232Z</time>
      </trkpt>
      <trkpt lat="50.36001" lon="3.65207">
        <ele>46.9</ele>
        <time>2022-05-09T08:06:07.553Z</time>
      </trkpt>
      <trkpt lat="50.35994" lon="3.65202">
        <ele>46.9</ele>
        <time>2022-05-09T08:06:08.936Z</time>
      </trkpt>
      <trkpt lat="50.35987" lon="3.65198">
        <ele>47.1</ele>
        <time>2022-05-09T08:06:11.000Z</time>
      </trkpt>
      <trkpt lat="50.35979" lon="3.65195">
        <ele>47.5</ele>
        <time>2022-05-09T08:06:13.012Z</time>
      </trkpt>
      <trkpt lat="50.35971" lon="3.65191">
        <ele>47.6</ele>
        <time>2022-05-09T08:06:15.000Z</time>
      </trkpt>
      <trkpt lat="50.35966" lon="3.65189">
        <ele>47.4</ele>
        <time>2022-05-09T08:06:16.033Z</time>
      </trkpt>
      <trkpt lat="50.35954" lon="3.65182">
        <ele>47</ele>
        <time>2022-05-09T08:06:18.875Z</time>
      </trkpt>
      <trkpt lat="50.35949" lon="3.65181">
        <ele>46.9</ele>
        <time>2022-05-09T08:06:20.000Z</time>
      </trkpt>
      <trkpt lat="50.3594" lon="3.65177">
        <ele>46.9</ele>
        <time>2022-05-09T08:06:22.000Z</time>
      </trkpt>
      <trkpt lat="50.35935" lon="3.65175">
        <ele>46.9</ele>
        <time>2022-05-09T08:06:23.000Z</time>
      </trkpt>
      <trkpt lat="50.35929" lon="3.65172">
        <ele>46.9</ele>
        <time>2022-05-09T08:06:24.000Z</time>
      </trkpt>
      <trkpt lat="50.35924" lon="3.6517">
        <ele>46.9</ele>
        <time>2022-05-09T08:06:25.000Z</time>
      </trkpt>
      <trkpt lat="50.35918" lon="3.65166">
        <ele>46.9</ele>
        <time>2022-05-09T08:06:26.000Z</time>
      </trkpt>
      <trkpt lat="50.35913" lon="3.65164">
        <ele>46.9</ele>
        <time>2022-05-09T08:06:27.000Z</time>
      </trkpt>
      <trkpt lat="50.35908" lon="3.65161">
        <ele>46.9</ele>
        <time>2022-05-09T08:06:28.000Z</time>
      </trkpt>
      <trkpt lat="50.35904" lon="3.65158">
        <ele>46.9</ele>
        <time>2022-05-09T08:06:29.000Z</time>
      </trkpt>
      <trkpt lat="50.35894" lon="3.65151">
        <ele>46.7</ele>
        <time>2022-05-09T08:06:31.000Z</time>
      </trkpt>
      <trkpt lat="50.35885" lon="3.65145">
        <ele>46.6</ele>
        <time>2022-05-09T08:06:33.000Z</time>
      </trkpt>
      <trkpt lat="50.3588" lon="3.65142">
        <ele>46.5</ele>
        <time>2022-05-09T08:06:34.000Z</time>
      </trkpt>
      <trkpt lat="50.35871" lon="3.65136">
        <ele>46.4</ele>
        <time>2022-05-09T08:06:36.000Z</time>
      </trkpt>
      <trkpt lat="50.35866" lon="3.65133">
        <ele>46.4</ele>
        <time>2022-05-09T08:06:37.000Z</time>
      </trkpt>
      <trkpt lat="50.35857" lon="3.65127">
        <ele>46.3</ele>
        <time>2022-05-09T08:06:39.000Z</time>
      </trkpt>
      <trkpt lat="50.3585" lon="3.65126">
        <ele>46.5</ele>
        <time>2022-05-09T08:06:41.000Z</time>
      </trkpt>
      <trkpt lat="50.35845" lon="3.65125">
        <ele>46.6</ele>
        <time>2022-05-09T08:06:42.000Z</time>
      </trkpt>
      <trkpt lat="50.35836" lon="3.65124">
        <ele>46.8</ele>
        <time>2022-05-09T08:06:44.000Z</time>
      </trkpt>
      <trkpt lat="50.35831" lon="3.65123">
        <ele>46.9</ele>
        <time>2022-05-09T08:06:45.669Z</time>
      </trkpt>
      <trkpt lat="50.35827" lon="3.65122">
        <ele>46.9</ele>
        <time>2022-05-09T08:06:47.110Z</time>
      </trkpt>
      <trkpt lat="50.35816" lon="3.65121">
        <ele>47.1</ele>
        <time>2022-05-09T08:06:48.829Z</time>
      </trkpt>
      <trkpt lat="50.35809" lon="3.65119">
        <ele>47.2</ele>
        <time>2022-05-09T08:06:50.000Z</time>
      </trkpt>
      <trkpt lat="50.35801" lon="3.65116">
        <ele>47.4</ele>
        <time>2022-05-09T08:06:52.712Z</time>
      </trkpt>
      <trkpt lat="50.35795" lon="3.65117">
        <ele>47.7</ele>
        <time>2022-05-09T08:06:53.813Z</time>
      </trkpt>
      <trkpt lat="50.35788" lon="3.65114">
        <ele>47.8</ele>
        <time>2022-05-09T08:06:56.034Z</time>
      </trkpt>
      <trkpt lat="50.35782" lon="3.65114">
        <ele>48</ele>
        <time>2022-05-09T08:06:58.000Z</time>
      </trkpt>
      <trkpt lat="50.35776" lon="3.65112">
        <ele>48.1</ele>
        <time>2022-05-09T08:06:58.950Z</time>
      </trkpt>
      <trkpt lat="50.35766" lon="3.6511">
        <ele>48.4</ele>
        <time>2022-05-09T08:07:01.890Z</time>
      </trkpt>
      <trkpt lat="50.35758" lon="3.65108">
        <ele>48.4</ele>
        <time>2022-05-09T08:07:04.000Z</time>
      </trkpt>
      <trkpt lat="50.35753" lon="3.65107">
        <ele>48.5</ele>
        <time>2022-05-09T08:07:05.000Z</time>
      </trkpt>
      <trkpt lat="50.35747" lon="3.65107">
        <ele>48.5</ele>
        <time>2022-05-09T08:07:07.374Z</time>
      </trkpt>
      <trkpt lat="50.35741" lon="3.65106">
        <ele>48.5</ele>
        <time>2022-05-09T08:07:08.852Z</time>
      </trkpt>
      <trkpt lat="50.35734" lon="3.65105">
        <ele>48.3</ele>
        <time>2022-05-09T08:07:11.000Z</time>
      </trkpt>
      <trkpt lat="50.35728" lon="3.65105">
        <ele>48.4</ele>
        <time>2022-05-09T08:07:13.000Z</time>
      </trkpt>
      <trkpt lat="50.35723" lon="3.65105">
        <ele>48.4</ele>
        <time>2022-05-09T08:07:14.933Z</time>
      </trkpt>
      <trkpt lat="50.35715" lon="3.65106">
        <ele>48.7</ele>
        <time>2022-05-09T08:07:17.332Z</time>
      </trkpt>
      <trkpt lat="50.3571" lon="3.65108">
        <ele>49.1</ele>
        <time>2022-05-09T08:07:18.673Z</time>
      </trkpt>
      <trkpt lat="50.35704" lon="3.65108">
        <ele>49.3</ele>
        <time>2022-05-09T08:07:19.854Z</time>
      </trkpt>
      <trkpt lat="50.35697" lon="3.65108">
        <ele>49.6</ele>
        <time>2022-05-09T08:07:23.000Z</time>
      </trkpt>
      <trkpt lat="50.3569" lon="3.65109">
        <ele>49.8</ele>
        <time>2022-05-09T08:07:25.097Z</time>
      </trkpt>
      <trkpt lat="50.35683" lon="3.65109">
        <ele>49.8</ele>
        <time>2022-05-09T08:07:27.499Z</time>
      </trkpt>
      <trkpt lat="50.35678" lon="3.65108">
        <ele>49.8</ele>
        <time>2022-05-09T08:07:28.492Z</time>
      </trkpt>
      <trkpt lat="50.35673" lon="3.65108">
        <ele>49.7</ele>
        <time>2022-05-09T08:07:30.754Z</time>
      </trkpt>
      <trkpt lat="50.35667" lon="3.6511">
        <ele>49.9</ele>
        <time>2022-05-09T08:07:32.972Z</time>
      </trkpt>
      <trkpt lat="50.3566" lon="3.6511">
        <ele>50</ele>
        <time>2022-05-09T08:07:35.550Z</time>
      </trkpt>
      <trkpt lat="50.35652" lon="3.65109">
        <ele>49.9</ele>
        <time>2022-05-09T08:07:38.000Z</time>
      </trkpt>
      <trkpt lat="50.35646" lon="3.65115">
        <ele>50.4</ele>
        <time>2022-05-09T08:07:40.000Z</time>
      </trkpt>
      <trkpt lat="50.35641" lon="3.65116">
        <ele>50.5</ele>
        <time>2022-05-09T08:07:42.091Z</time>
      </trkpt>
      <trkpt lat="50.35636" lon="3.65119">
        <ele>50.9</ele>
        <time>2022-05-09T08:07:44.114Z</time>
      </trkpt>
      <trkpt lat="50.3563" lon="3.6512">
        <ele>51.1</ele>
        <time>2022-05-09T08:07:47.000Z</time>
      </trkpt>
      <trkpt lat="50.35625" lon="3.65118">
        <ele>51</ele>
        <time>2022-05-09T08:07:50.000Z</time>
      </trkpt>
      <trkpt lat="50.3562" lon="3.65114">
        <ele>50.9</ele>
        <time>2022-05-09T08:07:53.000Z</time>
      </trkpt>
      <trkpt lat="50.35616" lon="3.65111">
        <ele>50.8</ele>
        <time>2022-05-09T08:07:55.000Z</time>
      </trkpt>
      <trkpt lat="50.3561" lon="3.65105">
        <ele>50.8</ele>
        <time>2022-05-09T08:07:57.028Z</time>
      </trkpt>
      <trkpt lat="50.35604" lon="3.65099">
        <ele>50.7</ele>
        <time>2022-05-09T08:07:59.106Z</time>
      </trkpt>
      <trkpt lat="50.35598" lon="3.65095">
        <ele>50.6</ele>
        <time>2022-05-09T08:08:00.733Z</time>
      </trkpt>
      <trkpt lat="50.35594" lon="3.65091">
        <ele>50.4</ele>
        <time>2022-05-09T08:08:02.000Z</time>
      </trkpt>
      <trkpt lat="50.35586" lon="3.65082">
        <ele>49.9</ele>
        <time>2022-05-09T08:08:03.972Z</time>
      </trkpt>
      <trkpt lat="50.35581" lon="3.65075">
        <ele>49.8</ele>
        <time>2022-05-09T08:08:05.000Z</time>
      </trkpt>
      <trkpt lat="50.35577" lon="3.6507">
        <ele>49.8</ele>
        <time>2022-05-09T08:08:06.000Z</time>
      </trkpt>
      <trkpt lat="50.35572" lon="3.65065">
        <ele>49.6</ele>
        <time>2022-05-09T08:08:07.000Z</time>
      </trkpt>
      <trkpt lat="50.35567" lon="3.65059">
        <ele>49.3</ele>
        <time>2022-05-09T08:08:08.000Z</time>
      </trkpt>
      <trkpt lat="50.3556" lon="3.65053">
        <ele>48.8</ele>
        <time>2022-05-09T08:08:09.000Z</time>
      </trkpt>
      <trkpt lat="50.35554" lon="3.65049">
        <ele>48.6</ele>
        <time>2022-05-09T08:08:10.000Z</time>
      </trkpt>
      <trkpt lat="50.35546" lon="3.65046">
        <ele>48.5</ele>
        <time>2022-05-09T08:08:11.000Z</time>
      </trkpt>
      <trkpt lat="50.35539" lon="3.65044">
        <ele>48.6</ele>
        <time>2022-05-09T08:08:12.000Z</time>
      </trkpt>
      <trkpt lat="50.35531" lon="3.65044">
        <ele>48.6</ele>
        <time>2022-05-09T08:08:13.000Z</time>
      </trkpt>
      <trkpt lat="50.35524" lon="3.65043">
        <ele>48.9</ele>
        <time>2022-05-09T08:08:14.000Z</time>
      </trkpt>
      <trkpt lat="50.35516" lon="3.65044">
        <ele>49.5</ele>
        <time>2022-05-09T08:08:15.000Z</time>
      </trkpt>
      <trkpt lat="50.35509" lon="3.65045">
        <ele>50.1</ele>
        <time>2022-05-09T08:08:16.000Z</time>
      </trkpt>
      <trkpt lat="50.35503" lon="3.65047">
        <ele>50.6</ele>
        <time>2022-05-09T08:08:17.000Z</time>
      </trkpt>
      <trkpt lat="50.35497" lon="3.65049">
        <ele>50.7</ele>
        <time>2022-05-09T08:08:18.000Z</time>
      </trkpt>
      <trkpt lat="50.35492" lon="3.6505">
        <ele>50.6</ele>
        <time>2022-05-09T08:08:19.000Z</time>
      </trkpt>
      <trkpt lat="50.35488" lon="3.65051">
        <ele>50.5</ele>
        <time>2022-05-09T08:08:20.000Z</time>
      </trkpt>
      <trkpt lat="50.35483" lon="3.65051">
        <ele>50.3</ele>
        <time>2022-05-09T08:08:21.000Z</time>
      </trkpt>
      <trkpt lat="50.35478" lon="3.65052">
        <ele>50.2</ele>
        <time>2022-05-09T08:08:22.000Z</time>
      </trkpt>
      <trkpt lat="50.3547" lon="3.65055">
        <ele>50.1</ele>
        <time>2022-05-09T08:08:24.000Z</time>
      </trkpt>
      <trkpt lat="50.35465" lon="3.65056">
        <ele>50.3</ele>
        <time>2022-05-09T08:08:25.902Z</time>
      </trkpt>
      <trkpt lat="50.35458" lon="3.65055">
        <ele>50.5</ele>
        <time>2022-05-09T08:08:28.000Z</time>
      </trkpt>
      <trkpt lat="50.3545" lon="3.65053">
        <ele>50.8</ele>
        <time>2022-05-09T08:08:30.000Z</time>
      </trkpt>
      <trkpt lat="50.35443" lon="3.6505">
        <ele>51.1</ele>
        <time>2022-05-09T08:08:32.000Z</time>
      </trkpt>
      <trkpt lat="50.35436" lon="3.65047">
        <ele>51.5</ele>
        <time>2022-05-09T08:08:34.000Z</time>
      </trkpt>
      <trkpt lat="50.35428" lon="3.65042">
        <ele>51.9</ele>
        <time>2022-05-09T08:08:36.000Z</time>
      </trkpt>
      <trkpt lat="50.3542" lon="3.65038">
        <ele>52.2</ele>
        <time>2022-05-09T08:08:38.000Z</time>
      </trkpt>
      <trkpt lat="50.35414" lon="3.65036">
        <ele>52.3</ele>
        <time>2022-05-09T08:08:40.000Z</time>
      </trkpt>
      <trkpt lat="50.35414" lon="3.65039">
        <ele>52.5</ele>
        <time>2022-05-09T08:08:42.124Z</time>
      </trkpt>
      <trkpt lat="50.35419" lon="3.65042">
        <ele>52.4</ele>
        <time>2022-05-09T08:08:48.000Z</time>
      </trkpt>
      <trkpt lat="50.35426" lon="3.65047">
        <ele>52.1</ele>
        <time>2022-05-09T08:08:50.000Z</time>
      </trkpt>
      <trkpt lat="50.35435" lon="3.6505">
        <ele>51.6</ele>
        <time>2022-05-09T08:08:52.000Z</time>
      </trkpt>
      <trkpt lat="50.3544" lon="3.65052">
        <ele>51.3</ele>
        <time>2022-05-09T08:08:53.000Z</time>
      </trkpt>
      <trkpt lat="50.35446" lon="3.65056">
        <ele>50.9</ele>
        <time>2022-05-09T08:08:54.000Z</time>
      </trkpt>
      <trkpt lat="50.35455" lon="3.65057">
        <ele>50.7</ele>
        <time>2022-05-09T08:08:56.000Z</time>
      </trkpt>
      <trkpt lat="50.35462" lon="3.65059">
        <ele>50.7</ele>
        <time>2022-05-09T08:08:57.000Z</time>
      </trkpt>
      <trkpt lat="50.35467" lon="3.65059">
        <ele>50.5</ele>
        <time>2022-05-09T08:08:58.000Z</time>
      </trkpt>
      <trkpt lat="50.3547" lon="3.65065">
        <ele>51</ele>
        <time>2022-05-09T08:08:59.000Z</time>
      </trkpt>
      <trkpt lat="50.35471" lon="3.65075">
        <ele>52.1</ele>
        <time>2022-05-09T08:09:01.000Z</time>
      </trkpt>
      <trkpt lat="50.35473" lon="3.65091">
        <ele>53.8</ele>
        <time>2022-05-09T08:09:03.000Z</time>
      </trkpt>
      <trkpt lat="50.35476" lon="3.65101">
        <ele>54.8</ele>
        <time>2022-05-09T08:09:04.397Z</time>
      </trkpt>
      <trkpt lat="50.3548" lon="3.65105">
        <ele>55.1</ele>
        <time>2022-05-09T08:09:06.518Z</time>
      </trkpt>
      <trkpt lat="50.35479" lon="3.65114">
        <ele>56</ele>
        <time>2022-05-09T08:09:08.696Z</time>
      </trkpt>
      <trkpt lat="50.35477" lon="3.65121">
        <ele>56.5</ele>
        <time>2022-05-09T08:09:11.000Z</time>
      </trkpt>
      <trkpt lat="50.35475" lon="3.65131">
        <ele>57.3</ele>
        <time>2022-05-09T08:09:14.000Z</time>
      </trkpt>
      <trkpt lat="50.35476" lon="3.65138">
        <ele>57.8</ele>
        <time>2022-05-09T08:09:15.918Z</time>
      </trkpt>
      <trkpt lat="50.35475" lon="3.65147">
        <ele>58.2</ele>
        <time>2022-05-09T08:09:19.000Z</time>
      </trkpt>
      <trkpt lat="50.35475" lon="3.65157">
        <ele>58.6</ele>
        <time>2022-05-09T08:09:22.000Z</time>
      </trkpt>
      <trkpt lat="50.35473" lon="3.65164">
        <ele>58.9</ele>
        <time>2022-05-09T08:09:24.122Z</time>
      </trkpt>
      <trkpt lat="50.35472" lon="3.65172">
        <ele>59.4</ele>
        <time>2022-05-09T08:09:26.700Z</time>
      </trkpt>
      <trkpt lat="50.35472" lon="3.6518">
        <ele>60</ele>
        <time>2022-05-09T08:09:29.000Z</time>
      </trkpt>
      <trkpt lat="50.35471" lon="3.65187">
        <ele>60.5</ele>
        <time>2022-05-09T08:09:31.000Z</time>
      </trkpt>
      <trkpt lat="50.35467" lon="3.65196">
        <ele>61.1</ele>
        <time>2022-05-09T08:09:33.000Z</time>
      </trkpt>
      <trkpt lat="50.35466" lon="3.65205">
        <ele>61.5</ele>
        <time>2022-05-09T08:09:38.958Z</time>
      </trkpt>
      <trkpt lat="50.35466" lon="3.65212">
        <ele>61.9</ele>
        <time>2022-05-09T08:09:40.879Z</time>
      </trkpt>
      <trkpt lat="50.35467" lon="3.65227">
        <ele>62.7</ele>
        <time>2022-05-09T08:09:43.000Z</time>
      </trkpt>
      <trkpt lat="50.35467" lon="3.65236">
        <ele>63.2</ele>
        <time>2022-05-09T08:09:44.359Z</time>
      </trkpt>
      <trkpt lat="50.35467" lon="3.65245">
        <ele>63.7</ele>
        <time>2022-05-09T08:09:45.876Z</time>
      </trkpt>
      <trkpt lat="50.35468" lon="3.65254">
        <ele>64</ele>
        <time>2022-05-09T08:09:48.000Z</time>
      </trkpt>
      <trkpt lat="50.35467" lon="3.65262">
        <ele>64</ele>
        <time>2022-05-09T08:09:50.336Z</time>
      </trkpt>
      <trkpt lat="50.35465" lon="3.6527">
        <ele>64</ele>
        <time>2022-05-09T08:09:52.922Z</time>
      </trkpt>
      <trkpt lat="50.35462" lon="3.65277">
        <ele>64</ele>
        <time>2022-05-09T08:09:55.120Z</time>
      </trkpt>
      <trkpt lat="50.3546" lon="3.65282">
        <ele>64.2</ele>
        <time>2022-05-09T08:09:57.097Z</time>
      </trkpt>
      <trkpt lat="50.35457" lon="3.65291">
        <ele>64.7</ele>
        <time>2022-05-09T08:09:59.341Z</time>
      </trkpt>
      <trkpt lat="50.35454" lon="3.65302">
        <ele>65.4</ele>
        <time>2022-05-09T08:10:02.038Z</time>
      </trkpt>
      <trkpt lat="50.35452" lon="3.65312">
        <ele>65.8</ele>
        <time>2022-05-09T08:10:06.000Z</time>
      </trkpt>
      <trkpt lat="50.3545" lon="3.65321">
        <ele>65.9</ele>
        <time>2022-05-09T08:10:08.060Z</time>
      </trkpt>
      <trkpt lat="50.35447" lon="3.65332">
        <ele>66</ele>
        <time>2022-05-09T08:10:10.998Z</time>
      </trkpt>
      <trkpt lat="50.35445" lon="3.65343">
        <ele>66.4</ele>
        <time>2022-05-09T08:10:13.539Z</time>
      </trkpt>
      <trkpt lat="50.35442" lon="3.65354">
        <ele>66.8</ele>
        <time>2022-05-09T08:10:16.041Z</time>
      </trkpt>
      <trkpt lat="50.3544" lon="3.65365">
        <ele>67.3</ele>
        <time>2022-05-09T08:10:20.738Z</time>
      </trkpt>
      <trkpt lat="50.35437" lon="3.65376">
        <ele>67.8</ele>
        <time>2022-05-09T08:10:23.000Z</time>
      </trkpt>
      <trkpt lat="50.35435" lon="3.65383">
        <ele>68.1</ele>
        <time>2022-05-09T08:10:26.000Z</time>
      </trkpt>
      <trkpt lat="50.35434" lon="3.65392">
        <ele>68.5</ele>
        <time>2022-05-09T08:10:29.000Z</time>
      </trkpt>
      <trkpt lat="50.35432" lon="3.65401">
        <ele>68.9</ele>
        <time>2022-05-09T08:10:34.000Z</time>
      </trkpt>
      <trkpt lat="50.35431" lon="3.65407">
        <ele>69.1</ele>
        <time>2022-05-09T08:10:39.000Z</time>
      </trkpt>
      <trkpt lat="50.35429" lon="3.65415">
        <ele>69.5</ele>
        <time>2022-05-09T08:10:45.000Z</time>
      </trkpt>
      <trkpt lat="50.35426" lon="3.65431">
        <ele>70.2</ele>
        <time>2022-05-09T08:11:51.000Z</time>
      </trkpt>
      <trkpt lat="50.35421" lon="3.6543">
        <ele>70.3</ele>
        <time>2022-05-09T08:11:53.000Z</time>
      </trkpt>
      <trkpt lat="50.35416" lon="3.65427">
        <ele>70.4</ele>
        <time>2022-05-09T08:11:55.958Z</time>
      </trkpt>
      <trkpt lat="50.35409" lon="3.65424">
        <ele>70.3</ele>
        <time>2022-05-09T08:11:58.131Z</time>
      </trkpt>
      <trkpt lat="50.35405" lon="3.65423">
        <ele>70.2</ele>
        <time>2022-05-09T08:11:59.377Z</time>
      </trkpt>
      <trkpt lat="50.35398" lon="3.6542">
        <ele>70.1</ele>
        <time>2022-05-09T08:12:01.836Z</time>
      </trkpt>
      <trkpt lat="50.35392" lon="3.65416">
        <ele>70</ele>
        <time>2022-05-09T08:12:04.281Z</time>
      </trkpt>
      <trkpt lat="50.35385" lon="3.65412">
        <ele>70</ele>
        <time>2022-05-09T08:12:06.000Z</time>
      </trkpt>
      <trkpt lat="50.35378" lon="3.65409">
        <ele>70</ele>
        <time>2022-05-09T08:12:08.719Z</time>
      </trkpt>
      <trkpt lat="50.35371" lon="3.65403">
        <ele>69.8</ele>
        <time>2022-05-09T08:12:11.000Z</time>
      </trkpt>
      <trkpt lat="50.35363" lon="3.654">
        <ele>69.8</ele>
        <time>2022-05-09T08:12:13.240Z</time>
      </trkpt>
      <trkpt lat="50.35354" lon="3.65397">
        <ele>69.9</ele>
        <time>2022-05-09T08:12:16.100Z</time>
      </trkpt>
      <trkpt lat="50.35349" lon="3.65395">
        <ele>70.1</ele>
        <time>2022-05-09T08:12:17.576Z</time>
      </trkpt>
      <trkpt lat="50.35342" lon="3.65393">
        <ele>70.5</ele>
        <time>2022-05-09T08:12:19.062Z</time>
      </trkpt>
      <trkpt lat="50.35338" lon="3.65391">
        <ele>70.7</ele>
        <time>2022-05-09T08:12:20.000Z</time>
      </trkpt>
      <trkpt lat="50.35332" lon="3.65388">
        <ele>70.9</ele>
        <time>2022-05-09T08:12:22.000Z</time>
      </trkpt>
      <trkpt lat="50.35327" lon="3.65384">
        <ele>70.7</ele>
        <time>2022-05-09T08:12:23.653Z</time>
      </trkpt>
      <trkpt lat="50.35318" lon="3.65379">
        <ele>70.5</ele>
        <time>2022-05-09T08:12:25.878Z</time>
      </trkpt>
      <trkpt lat="50.35312" lon="3.65375">
        <ele>70.4</ele>
        <time>2022-05-09T08:12:28.000Z</time>
      </trkpt>
      <trkpt lat="50.35301" lon="3.6537">
        <ele>70.3</ele>
        <time>2022-05-09T08:12:30.799Z</time>
      </trkpt>
      <trkpt lat="50.35297" lon="3.65368">
        <ele>70.2</ele>
        <time>2022-05-09T08:12:32.164Z</time>
      </trkpt>
      <trkpt lat="50.35292" lon="3.65366">
        <ele>70.2</ele>
        <time>2022-05-09T08:12:33.257Z</time>
      </trkpt>
      <trkpt lat="50.35284" lon="3.65361">
        <ele>70</ele>
        <time>2022-05-09T08:12:35.000Z</time>
      </trkpt>
      <trkpt lat="50.3528" lon="3.65358">
        <ele>70</ele>
        <time>2022-05-09T08:12:36.000Z</time>
      </trkpt>
      <trkpt lat="50.35276" lon="3.65355">
        <ele>70.1</ele>
        <time>2022-05-09T08:12:37.018Z</time>
      </trkpt>
      <trkpt lat="50.3527" lon="3.65347">
        <ele>70.1</ele>
        <time>2022-05-09T08:12:39.000Z</time>
      </trkpt>
      <trkpt lat="50.35265" lon="3.65342">
        <ele>70.1</ele>
        <time>2022-05-09T08:12:40.000Z</time>
      </trkpt>
      <trkpt lat="50.35261" lon="3.65338">
        <ele>70.1</ele>
        <time>2022-05-09T08:12:41.000Z</time>
      </trkpt>
      <trkpt lat="50.35257" lon="3.65334">
        <ele>70</ele>
        <time>2022-05-09T08:12:42.000Z</time>
      </trkpt>
      <trkpt lat="50.35252" lon="3.65329">
        <ele>69.9</ele>
        <time>2022-05-09T08:12:43.000Z</time>
      </trkpt>
      <trkpt lat="50.35247" lon="3.65326">
        <ele>69.8</ele>
        <time>2022-05-09T08:12:44.000Z</time>
      </trkpt>
      <trkpt lat="50.35242" lon="3.65323">
        <ele>69.7</ele>
        <time>2022-05-09T08:12:45.000Z</time>
      </trkpt>
      <trkpt lat="50.35237" lon="3.6532">
        <ele>69.7</ele>
        <time>2022-05-09T08:12:46.000Z</time>
      </trkpt>
      <trkpt lat="50.35232" lon="3.65317">
        <ele>69.8</ele>
        <time>2022-05-09T08:12:47.000Z</time>
      </trkpt>
      <trkpt lat="50.35226" lon="3.65314">
        <ele>69.9</ele>
        <time>2022-05-09T08:12:48.000Z</time>
      </trkpt>
      <trkpt lat="50.35221" lon="3.65311">
        <ele>70</ele>
        <time>2022-05-09T08:12:49.000Z</time>
      </trkpt>
      <trkpt lat="50.35215" lon="3.65309">
        <ele>69.8</ele>
        <time>2022-05-09T08:12:50.000Z</time>
      </trkpt>
      <trkpt lat="50.3521" lon="3.65307">
        <ele>69.6</ele>
        <time>2022-05-09T08:12:51.000Z</time>
      </trkpt>
      <trkpt lat="50.35205" lon="3.65306">
        <ele>69.4</ele>
        <time>2022-05-09T08:12:52.000Z</time>
      </trkpt>
      <trkpt lat="50.35199" lon="3.65304">
        <ele>69.1</ele>
        <time>2022-05-09T08:12:53.000Z</time>
      </trkpt>
      <trkpt lat="50.35194" lon="3.65302">
        <ele>68.9</ele>
        <time>2022-05-09T08:12:54.000Z</time>
      </trkpt>
      <trkpt lat="50.35188" lon="3.65301">
        <ele>68.9</ele>
        <time>2022-05-09T08:12:55.000Z</time>
      </trkpt>
      <trkpt lat="50.35183" lon="3.653">
        <ele>68.9</ele>
        <time>2022-05-09T08:12:56.000Z</time>
      </trkpt>
      <trkpt lat="50.35178" lon="3.65299">
        <ele>68.9</ele>
        <time>2022-05-09T08:12:57.000Z</time>
      </trkpt>
      <trkpt lat="50.35173" lon="3.65298">
        <ele>68.9</ele>
        <time>2022-05-09T08:12:58.000Z</time>
      </trkpt>
      <trkpt lat="50.35168" lon="3.65298">
        <ele>69</ele>
        <time>2022-05-09T08:12:59.000Z</time>
      </trkpt>
      <trkpt lat="50.35162" lon="3.65297">
        <ele>69</ele>
        <time>2022-05-09T08:13:00.000Z</time>
      </trkpt>
      <trkpt lat="50.35157" lon="3.65296">
        <ele>68.9</ele>
        <time>2022-05-09T08:13:01.000Z</time>
      </trkpt>
      <trkpt lat="50.35152" lon="3.65296">
        <ele>68.8</ele>
        <time>2022-05-09T08:13:02.000Z</time>
      </trkpt>
      <trkpt lat="50.35146" lon="3.65295">
        <ele>68.7</ele>
        <time>2022-05-09T08:13:03.000Z</time>
      </trkpt>
      <trkpt lat="50.35141" lon="3.65297">
        <ele>68.7</ele>
        <time>2022-05-09T08:13:04.000Z</time>
      </trkpt>
      <trkpt lat="50.35136" lon="3.653">
        <ele>68.8</ele>
        <time>2022-05-09T08:13:05.000Z</time>
      </trkpt>
      <trkpt lat="50.35132" lon="3.65303">
        <ele>68.9</ele>
        <time>2022-05-09T08:13:06.000Z</time>
      </trkpt>
      <trkpt lat="50.35126" lon="3.65306">
        <ele>69</ele>
        <time>2022-05-09T08:13:07.000Z</time>
      </trkpt>
      <trkpt lat="50.35121" lon="3.65308">
        <ele>69.1</ele>
        <time>2022-05-09T08:13:08.000Z</time>
      </trkpt>
      <trkpt lat="50.35116" lon="3.6531">
        <ele>69.2</ele>
        <time>2022-05-09T08:13:09.000Z</time>
      </trkpt>
      <trkpt lat="50.35111" lon="3.65312">
        <ele>69.2</ele>
        <time>2022-05-09T08:13:10.000Z</time>
      </trkpt>
      <trkpt lat="50.35106" lon="3.65313">
        <ele>69.2</ele>
        <time>2022-05-09T08:13:11.000Z</time>
      </trkpt>
      <trkpt lat="50.35101" lon="3.65315">
        <ele>69.1</ele>
        <time>2022-05-09T08:13:12.000Z</time>
      </trkpt>
      <trkpt lat="50.35096" lon="3.65317">
        <ele>69.1</ele>
        <time>2022-05-09T08:13:13.000Z</time>
      </trkpt>
      <trkpt lat="50.35091" lon="3.65319">
        <ele>69.1</ele>
        <time>2022-05-09T08:13:14.000Z</time>
      </trkpt>
      <trkpt lat="50.35086" lon="3.6532">
        <ele>69.1</ele>
        <time>2022-05-09T08:13:15.000Z</time>
      </trkpt>
      <trkpt lat="50.35081" lon="3.65321">
        <ele>69</ele>
        <time>2022-05-09T08:13:16.000Z</time>
      </trkpt>
      <trkpt lat="50.35076" lon="3.65323">
        <ele>68.9</ele>
        <time>2022-05-09T08:13:17.000Z</time>
      </trkpt>
      <trkpt lat="50.35067" lon="3.65325">
        <ele>68.6</ele>
        <time>2022-05-09T08:13:19.000Z</time>
      </trkpt>
      <trkpt lat="50.35057" lon="3.6533">
        <ele>68.1</ele>
        <time>2022-05-09T08:13:21.000Z</time>
      </trkpt>
      <trkpt lat="50.35052" lon="3.65331">
        <ele>67.9</ele>
        <time>2022-05-09T08:13:22.000Z</time>
      </trkpt>
      <trkpt lat="50.35047" lon="3.65332">
        <ele>67.7</ele>
        <time>2022-05-09T08:13:23.000Z</time>
      </trkpt>
      <trkpt lat="50.35041" lon="3.65333">
        <ele>67.5</ele>
        <time>2022-05-09T08:13:24.000Z</time>
      </trkpt>
      <trkpt lat="50.35035" lon="3.65335">
        <ele>67.3</ele>
        <time>2022-05-09T08:13:25.000Z</time>
      </trkpt>
      <trkpt lat="50.35029" lon="3.65336">
        <ele>67.2</ele>
        <time>2022-05-09T08:13:26.000Z</time>
      </trkpt>
      <trkpt lat="50.35023" lon="3.65337">
        <ele>67.1</ele>
        <time>2022-05-09T08:13:27.000Z</time>
      </trkpt>
      <trkpt lat="50.35016" lon="3.65338">
        <ele>66.9</ele>
        <time>2022-05-09T08:13:28.000Z</time>
      </trkpt>
      <trkpt lat="50.35009" lon="3.6534">
        <ele>66.6</ele>
        <time>2022-05-09T08:13:29.000Z</time>
      </trkpt>
      <trkpt lat="50.35002" lon="3.65341">
        <ele>66.4</ele>
        <time>2022-05-09T08:13:30.000Z</time>
      </trkpt>
      <trkpt lat="50.34996" lon="3.65343">
        <ele>66</ele>
        <time>2022-05-09T08:13:31.000Z</time>
      </trkpt>
      <trkpt lat="50.34989" lon="3.65346">
        <ele>65.6</ele>
        <time>2022-05-09T08:13:32.000Z</time>
      </trkpt>
      <trkpt lat="50.34983" lon="3.65349">
        <ele>65.4</ele>
        <time>2022-05-09T08:13:33.000Z</time>
      </trkpt>
      <trkpt lat="50.34976" lon="3.65353">
        <ele>65.4</ele>
        <time>2022-05-09T08:13:34.000Z</time>
      </trkpt>
      <trkpt lat="50.34969" lon="3.65357">
        <ele>65.4</ele>
        <time>2022-05-09T08:13:35.000Z</time>
      </trkpt>
      <trkpt lat="50.34963" lon="3.6536">
        <ele>65.6</ele>
        <time>2022-05-09T08:13:36.000Z</time>
      </trkpt>
      <trkpt lat="50.34956" lon="3.65364">
        <ele>65.7</ele>
        <time>2022-05-09T08:13:37.000Z</time>
      </trkpt>
      <trkpt lat="50.3495" lon="3.65368">
        <ele>65.7</ele>
        <time>2022-05-09T08:13:38.000Z</time>
      </trkpt>
      <trkpt lat="50.34945" lon="3.65371">
        <ele>65.7</ele>
        <time>2022-05-09T08:13:39.000Z</time>
      </trkpt>
      <trkpt lat="50.34938" lon="3.65375">
        <ele>65.2</ele>
        <time>2022-05-09T08:13:40.000Z</time>
      </trkpt>
      <trkpt lat="50.3493" lon="3.65378">
        <ele>64.8</ele>
        <time>2022-05-09T08:13:41.000Z</time>
      </trkpt>
      <trkpt lat="50.34924" lon="3.6538">
        <ele>64.4</ele>
        <time>2022-05-09T08:13:42.000Z</time>
      </trkpt>
      <trkpt lat="50.34917" lon="3.65383">
        <ele>64.1</ele>
        <time>2022-05-09T08:13:43.000Z</time>
      </trkpt>
      <trkpt lat="50.34911" lon="3.65385">
        <ele>64.2</ele>
        <time>2022-05-09T08:13:44.000Z</time>
      </trkpt>
      <trkpt lat="50.34905" lon="3.65386">
        <ele>64.2</ele>
        <time>2022-05-09T08:13:45.000Z</time>
      </trkpt>
      <trkpt lat="50.34898" lon="3.65388">
        <ele>64.2</ele>
        <time>2022-05-09T08:13:46.000Z</time>
      </trkpt>
      <trkpt lat="50.34892" lon="3.6539">
        <ele>64.2</ele>
        <time>2022-05-09T08:13:47.000Z</time>
      </trkpt>
      <trkpt lat="50.34886" lon="3.65392">
        <ele>64.1</ele>
        <time>2022-05-09T08:13:48.000Z</time>
      </trkpt>
      <trkpt lat="50.3488" lon="3.65393">
        <ele>63.7</ele>
        <time>2022-05-09T08:13:49.000Z</time>
      </trkpt>
      <trkpt lat="50.34875" lon="3.65394">
        <ele>63.4</ele>
        <time>2022-05-09T08:13:50.000Z</time>
      </trkpt>
      <trkpt lat="50.3487" lon="3.65396">
        <ele>63.2</ele>
        <time>2022-05-09T08:13:51.000Z</time>
      </trkpt>
      <trkpt lat="50.34865" lon="3.65398">
        <ele>62.9</ele>
        <time>2022-05-09T08:13:52.000Z</time>
      </trkpt>
      <trkpt lat="50.34858" lon="3.65401">
        <ele>63</ele>
        <time>2022-05-09T08:13:53.000Z</time>
      </trkpt>
      <trkpt lat="50.34851" lon="3.65404">
        <ele>63.1</ele>
        <time>2022-05-09T08:13:54.000Z</time>
      </trkpt>
      <trkpt lat="50.34843" lon="3.65408">
        <ele>63.3</ele>
        <time>2022-05-09T08:13:56.000Z</time>
      </trkpt>
      <trkpt lat="50.34837" lon="3.65412">
        <ele>63.5</ele>
        <time>2022-05-09T08:13:57.000Z</time>
      </trkpt>
      <trkpt lat="50.34832" lon="3.65415">
        <ele>63.6</ele>
        <time>2022-05-09T08:13:58.000Z</time>
      </trkpt>
      <trkpt lat="50.34827" lon="3.65419">
        <ele>63.7</ele>
        <time>2022-05-09T08:13:59.000Z</time>
      </trkpt>
      <trkpt lat="50.34815" lon="3.65426">
        <ele>63.6</ele>
        <time>2022-05-09T08:14:01.000Z</time>
      </trkpt>
      <trkpt lat="50.34808" lon="3.6543">
        <ele>63.7</ele>
        <time>2022-05-09T08:14:02.000Z</time>
      </trkpt>
      <trkpt lat="50.34802" lon="3.65435">
        <ele>64</ele>
        <time>2022-05-09T08:14:03.000Z</time>
      </trkpt>
      <trkpt lat="50.34797" lon="3.65439">
        <ele>64.1</ele>
        <time>2022-05-09T08:14:04.000Z</time>
      </trkpt>
      <trkpt lat="50.34791" lon="3.65441">
        <ele>63.9</ele>
        <time>2022-05-09T08:14:05.000Z</time>
      </trkpt>
      <trkpt lat="50.34786" lon="3.65442">
        <ele>63.6</ele>
        <time>2022-05-09T08:14:06.000Z</time>
      </trkpt>
      <trkpt lat="50.34781" lon="3.65444">
        <ele>63.2</ele>
        <time>2022-05-09T08:14:07.000Z</time>
      </trkpt>
      <trkpt lat="50.34775" lon="3.65445">
        <ele>63</ele>
        <time>2022-05-09T08:14:08.000Z</time>
      </trkpt>
      <trkpt lat="50.3477" lon="3.65446">
        <ele>63.2</ele>
        <time>2022-05-09T08:14:09.000Z</time>
      </trkpt>
      <trkpt lat="50.34763" lon="3.65446">
        <ele>63.3</ele>
        <time>2022-05-09T08:14:10.000Z</time>
      </trkpt>
      <trkpt lat="50.34754" lon="3.65447">
        <ele>63.3</ele>
        <time>2022-05-09T08:14:12.000Z</time>
      </trkpt>
      <trkpt lat="50.34749" lon="3.65447">
        <ele>63.3</ele>
        <time>2022-05-09T08:14:13.000Z</time>
      </trkpt>
      <trkpt lat="50.34744" lon="3.65447">
        <ele>63.3</ele>
        <time>2022-05-09T08:14:14.000Z</time>
      </trkpt>
      <trkpt lat="50.34737" lon="3.65448">
        <ele>63.3</ele>
        <time>2022-05-09T08:14:15.000Z</time>
      </trkpt>
      <trkpt lat="50.34732" lon="3.65449">
        <ele>63.4</ele>
        <time>2022-05-09T08:14:16.000Z</time>
      </trkpt>
      <trkpt lat="50.34727" lon="3.6545">
        <ele>63.4</ele>
        <time>2022-05-09T08:14:17.000Z</time>
      </trkpt>
      <trkpt lat="50.34722" lon="3.65452">
        <ele>63.5</ele>
        <time>2022-05-09T08:14:18.000Z</time>
      </trkpt>
      <trkpt lat="50.34716" lon="3.65454">
        <ele>63.4</ele>
        <time>2022-05-09T08:14:19.000Z</time>
      </trkpt>
      <trkpt lat="50.34711" lon="3.65456">
        <ele>63.4</ele>
        <time>2022-05-09T08:14:20.000Z</time>
      </trkpt>
      <trkpt lat="50.34705" lon="3.65459">
        <ele>63.4</ele>
        <time>2022-05-09T08:14:21.000Z</time>
      </trkpt>
      <trkpt lat="50.347" lon="3.65461">
        <ele>63.4</ele>
        <time>2022-05-09T08:14:22.000Z</time>
      </trkpt>
      <trkpt lat="50.34694" lon="3.65464">
        <ele>63.3</ele>
        <time>2022-05-09T08:14:23.000Z</time>
      </trkpt>
      <trkpt lat="50.34687" lon="3.65466">
        <ele>63</ele>
        <time>2022-05-09T08:14:24.000Z</time>
      </trkpt>
      <trkpt lat="50.34682" lon="3.65468">
        <ele>62.8</ele>
        <time>2022-05-09T08:14:25.000Z</time>
      </trkpt>
      <trkpt lat="50.34675" lon="3.65471">
        <ele>62.5</ele>
        <time>2022-05-09T08:14:26.000Z</time>
      </trkpt>
      <trkpt lat="50.3467" lon="3.65473">
        <ele>62.2</ele>
        <time>2022-05-09T08:14:27.000Z</time>
      </trkpt>
      <trkpt lat="50.34665" lon="3.65475">
        <ele>62.1</ele>
        <time>2022-05-09T08:14:28.000Z</time>
      </trkpt>
      <trkpt lat="50.3466" lon="3.65476">
        <ele>62.1</ele>
        <time>2022-05-09T08:14:29.000Z</time>
      </trkpt>
      <trkpt lat="50.34655" lon="3.65476">
        <ele>62.1</ele>
        <time>2022-05-09T08:14:30.000Z</time>
      </trkpt>
      <trkpt lat="50.34649" lon="3.65477">
        <ele>62.2</ele>
        <time>2022-05-09T08:14:31.000Z</time>
      </trkpt>
      <trkpt lat="50.34644" lon="3.65477">
        <ele>62.2</ele>
        <time>2022-05-09T08:14:32.000Z</time>
      </trkpt>
      <trkpt lat="50.34638" lon="3.65478">
        <ele>62.2</ele>
        <time>2022-05-09T08:14:33.000Z</time>
      </trkpt>
      <trkpt lat="50.34633" lon="3.65478">
        <ele>62.2</ele>
        <time>2022-05-09T08:14:34.000Z</time>
      </trkpt>
      <trkpt lat="50.34627" lon="3.65479">
        <ele>62.3</ele>
        <time>2022-05-09T08:14:35.000Z</time>
      </trkpt>
      <trkpt lat="50.34622" lon="3.65479">
        <ele>62.4</ele>
        <time>2022-05-09T08:14:36.000Z</time>
      </trkpt>
      <trkpt lat="50.34616" lon="3.65479">
        <ele>62.5</ele>
        <time>2022-05-09T08:14:37.000Z</time>
      </trkpt>
      <trkpt lat="50.34606" lon="3.65479">
        <ele>62.5</ele>
        <time>2022-05-09T08:14:39.000Z</time>
      </trkpt>
      <trkpt lat="50.34599" lon="3.65479">
        <ele>62.6</ele>
        <time>2022-05-09T08:14:40.000Z</time>
      </trkpt>
      <trkpt lat="50.34594" lon="3.65478">
        <ele>62.6</ele>
        <time>2022-05-09T08:14:41.000Z</time>
      </trkpt>
      <trkpt lat="50.34589" lon="3.65477">
        <ele>62.4</ele>
        <time>2022-05-09T08:14:42.000Z</time>
      </trkpt>
      <trkpt lat="50.34584" lon="3.65474">
        <ele>62.1</ele>
        <time>2022-05-09T08:14:43.000Z</time>
      </trkpt>
      <trkpt lat="50.34579" lon="3.65469">
        <ele>62</ele>
        <time>2022-05-09T08:14:44.000Z</time>
      </trkpt>
      <trkpt lat="50.34575" lon="3.65464">
        <ele>62</ele>
        <time>2022-05-09T08:14:45.000Z</time>
      </trkpt>
      <trkpt lat="50.34571" lon="3.65458">
        <ele>61.9</ele>
        <time>2022-05-09T08:14:46.000Z</time>
      </trkpt>
      <trkpt lat="50.34567" lon="3.65453">
        <ele>61.9</ele>
        <time>2022-05-09T08:14:47.000Z</time>
      </trkpt>
      <trkpt lat="50.34563" lon="3.65449">
        <ele>61.9</ele>
        <time>2022-05-09T08:14:48.000Z</time>
      </trkpt>
      <trkpt lat="50.34556" lon="3.65443">
        <ele>61.9</ele>
        <time>2022-05-09T08:14:49.000Z</time>
      </trkpt>
      <trkpt lat="50.3455" lon="3.65441">
        <ele>61.4</ele>
        <time>2022-05-09T08:14:50.000Z</time>
      </trkpt>
      <trkpt lat="50.34546" lon="3.65439">
        <ele>61.1</ele>
        <time>2022-05-09T08:14:51.000Z</time>
      </trkpt>
      <trkpt lat="50.34538" lon="3.65437">
        <ele>60.6</ele>
        <time>2022-05-09T08:14:52.000Z</time>
      </trkpt>
      <trkpt lat="50.34532" lon="3.65435">
        <ele>60.1</ele>
        <time>2022-05-09T08:14:53.000Z</time>
      </trkpt>
      <trkpt lat="50.34525" lon="3.65433">
        <ele>59.8</ele>
        <time>2022-05-09T08:14:54.000Z</time>
      </trkpt>
      <trkpt lat="50.34518" lon="3.65431">
        <ele>59.8</ele>
        <time>2022-05-09T08:14:55.000Z</time>
      </trkpt>
      <trkpt lat="50.34512" lon="3.65429">
        <ele>59.9</ele>
        <time>2022-05-09T08:14:56.000Z</time>
      </trkpt>
      <trkpt lat="50.34506" lon="3.65427">
        <ele>60.1</ele>
        <time>2022-05-09T08:14:57.000Z</time>
      </trkpt>
      <trkpt lat="50.34499" lon="3.65426">
        <ele>60.3</ele>
        <time>2022-05-09T08:14:58.000Z</time>
      </trkpt>
      <trkpt lat="50.34493" lon="3.65425">
        <ele>60.3</ele>
        <time>2022-05-09T08:14:59.000Z</time>
      </trkpt>
      <trkpt lat="50.34486" lon="3.65423">
        <ele>60.2</ele>
        <time>2022-05-09T08:15:00.000Z</time>
      </trkpt>
      <trkpt lat="50.34479" lon="3.65421">
        <ele>60.1</ele>
        <time>2022-05-09T08:15:01.000Z</time>
      </trkpt>
      <trkpt lat="50.34474" lon="3.65418">
        <ele>60.1</ele>
        <time>2022-05-09T08:15:02.000Z</time>
      </trkpt>
      <trkpt lat="50.34467" lon="3.65415">
        <ele>59.8</ele>
        <time>2022-05-09T08:15:03.000Z</time>
      </trkpt>
      <trkpt lat="50.34461" lon="3.65411">
        <ele>59.5</ele>
        <time>2022-05-09T08:15:04.000Z</time>
      </trkpt>
      <trkpt lat="50.34455" lon="3.65406">
        <ele>59.2</ele>
        <time>2022-05-09T08:15:05.000Z</time>
      </trkpt>
      <trkpt lat="50.34449" lon="3.65401">
        <ele>59.1</ele>
        <time>2022-05-09T08:15:06.000Z</time>
      </trkpt>
      <trkpt lat="50.34442" lon="3.65395">
        <ele>59.1</ele>
        <time>2022-05-09T08:15:07.000Z</time>
      </trkpt>
      <trkpt lat="50.34438" lon="3.65391">
        <ele>59.2</ele>
        <time>2022-05-09T08:15:07.972Z</time>
      </trkpt>
      <trkpt lat="50.3443" lon="3.65382">
        <ele>59.3</ele>
        <time>2022-05-09T08:15:09.000Z</time>
      </trkpt>
      <trkpt lat="50.34424" lon="3.65376">
        <ele>59.3</ele>
        <time>2022-05-09T08:15:10.000Z</time>
      </trkpt>
      <trkpt lat="50.34418" lon="3.65368">
        <ele>59.2</ele>
        <time>2022-05-09T08:15:11.000Z</time>
      </trkpt>
      <trkpt lat="50.34413" lon="3.65362">
        <ele>59.3</ele>
        <time>2022-05-09T08:15:12.000Z</time>
      </trkpt>
      <trkpt lat="50.34406" lon="3.65354">
        <ele>59.3</ele>
        <time>2022-05-09T08:15:13.000Z</time>
      </trkpt>
      <trkpt lat="50.344" lon="3.65348">
        <ele>58.8</ele>
        <time>2022-05-09T08:15:14.000Z</time>
      </trkpt>
      <trkpt lat="50.34393" lon="3.65343">
        <ele>57.9</ele>
        <time>2022-05-09T08:15:15.000Z</time>
      </trkpt>
      <trkpt lat="50.34386" lon="3.65339">
        <ele>57.4</ele>
        <time>2022-05-09T08:15:16.000Z</time>
      </trkpt>
      <trkpt lat="50.34379" lon="3.65338">
        <ele>57.8</ele>
        <time>2022-05-09T08:15:17.000Z</time>
      </trkpt>
      <trkpt lat="50.34372" lon="3.65336">
        <ele>58.3</ele>
        <time>2022-05-09T08:15:18.000Z</time>
      </trkpt>
      <trkpt lat="50.34361" lon="3.65331">
        <ele>59.1</ele>
        <time>2022-05-09T08:15:20.000Z</time>
      </trkpt>
      <trkpt lat="50.34356" lon="3.6533">
        <ele>59.5</ele>
        <time>2022-05-09T08:15:21.000Z</time>
      </trkpt>
      <trkpt lat="50.34351" lon="3.65329">
        <ele>59.9</ele>
        <time>2022-05-09T08:15:22.000Z</time>
      </trkpt>
      <trkpt lat="50.34343" lon="3.65328">
        <ele>60.4</ele>
        <time>2022-05-09T08:15:24.000Z</time>
      </trkpt>
      <trkpt lat="50.34337" lon="3.65327">
        <ele>60.8</ele>
        <time>2022-05-09T08:15:26.000Z</time>
      </trkpt>
      <trkpt lat="50.34331" lon="3.65329">
        <ele>61.1</ele>
        <time>2022-05-09T08:15:29.000Z</time>
      </trkpt>
      <trkpt lat="50.34339" lon="3.6533">
        <ele>60.6</ele>
        <time>2022-05-09T08:15:32.000Z</time>
      </trkpt>
      <trkpt lat="50.34345" lon="3.6533">
        <ele>60.2</ele>
        <time>2022-05-09T08:15:33.000Z</time>
      </trkpt>
      <trkpt lat="50.34354" lon="3.65332">
        <ele>59.6</ele>
        <time>2022-05-09T08:15:35.000Z</time>
      </trkpt>
      <trkpt lat="50.34359" lon="3.65333">
        <ele>59.2</ele>
        <time>2022-05-09T08:15:36.000Z</time>
      </trkpt>
      <trkpt lat="50.34366" lon="3.65336">
        <ele>58.8</ele>
        <time>2022-05-09T08:15:38.000Z</time>
      </trkpt>
      <trkpt lat="50.34374" lon="3.65339">
        <ele>58.5</ele>
        <time>2022-05-09T08:15:40.000Z</time>
      </trkpt>
      <trkpt lat="50.34379" lon="3.65341">
        <ele>58.4</ele>
        <time>2022-05-09T08:15:41.000Z</time>
      </trkpt>
      <trkpt lat="50.34388" lon="3.65342">
        <ele>57.6</ele>
        <time>2022-05-09T08:15:43.000Z</time>
      </trkpt>
      <trkpt lat="50.34394" lon="3.65338">
        <ele>57.2</ele>
        <time>2022-05-09T08:15:45.000Z</time>
      </trkpt>
      <trkpt lat="50.34394" lon="3.65327">
        <ele>56.5</ele>
        <time>2022-05-09T08:15:47.192Z</time>
      </trkpt>
      <trkpt lat="50.34395" lon="3.65319">
        <ele>56.4</ele>
        <time>2022-05-09T08:15:48.428Z</time>
      </trkpt>
      <trkpt lat="50.34394" lon="3.65308">
        <ele>56.2</ele>
        <time>2022-05-09T08:15:50.495Z</time>
      </trkpt>
      <trkpt lat="50.34392" lon="3.65293">
        <ele>56.1</ele>
        <time>2022-05-09T08:15:52.609Z</time>
      </trkpt>
      <trkpt lat="50.3439" lon="3.6528">
        <ele>56</ele>
        <time>2022-05-09T08:15:54.048Z</time>
      </trkpt>
      <trkpt lat="50.34388" lon="3.65269">
        <ele>55.7</ele>
        <time>2022-05-09T08:15:55.129Z</time>
      </trkpt>
      <trkpt lat="50.34389" lon="3.65255">
        <ele>55.2</ele>
        <time>2022-05-09T08:15:57.000Z</time>
      </trkpt>
      <trkpt lat="50.3439" lon="3.65247">
        <ele>54.8</ele>
        <time>2022-05-09T08:15:58.000Z</time>
      </trkpt>
      <trkpt lat="50.34392" lon="3.65238">
        <ele>54.5</ele>
        <time>2022-05-09T08:15:59.000Z</time>
      </trkpt>
      <trkpt lat="50.34395" lon="3.65229">
        <ele>54</ele>
        <time>2022-05-09T08:16:00.000Z</time>
      </trkpt>
      <trkpt lat="50.34396" lon="3.65218">
        <ele>53.7</ele>
        <time>2022-05-09T08:16:01.000Z</time>
      </trkpt>
      <trkpt lat="50.34398" lon="3.65209">
        <ele>53.7</ele>
        <time>2022-05-09T08:16:02.000Z</time>
      </trkpt>
      <trkpt lat="50.344" lon="3.65198">
        <ele>53.6</ele>
        <time>2022-05-09T08:16:03.000Z</time>
      </trkpt>
      <trkpt lat="50.34401" lon="3.65188">
        <ele>53.6</ele>
        <time>2022-05-09T08:16:04.000Z</time>
      </trkpt>
      <trkpt lat="50.34402" lon="3.65178">
        <ele>53.5</ele>
        <time>2022-05-09T08:16:05.000Z</time>
      </trkpt>
      <trkpt lat="50.34403" lon="3.65169">
        <ele>53.5</ele>
        <time>2022-05-09T08:16:06.000Z</time>
      </trkpt>
      <trkpt lat="50.34404" lon="3.65158">
        <ele>53.3</ele>
        <time>2022-05-09T08:16:07.000Z</time>
      </trkpt>
      <trkpt lat="50.34405" lon="3.6515">
        <ele>53.2</ele>
        <time>2022-05-09T08:16:08.000Z</time>
      </trkpt>
      <trkpt lat="50.34406" lon="3.65142">
        <ele>53</ele>
        <time>2022-05-09T08:16:09.000Z</time>
      </trkpt>
      <trkpt lat="50.34405" lon="3.65131">
        <ele>52.8</ele>
        <time>2022-05-09T08:16:10.000Z</time>
      </trkpt>
      <trkpt lat="50.34405" lon="3.65123">
        <ele>52.7</ele>
        <time>2022-05-09T08:16:11.000Z</time>
      </trkpt>
      <trkpt lat="50.34405" lon="3.65115">
        <ele>52.5</ele>
        <time>2022-05-09T08:16:12.371Z</time>
      </trkpt>
      <trkpt lat="50.34407" lon="3.65106">
        <ele>52.3</ele>
        <time>2022-05-09T08:16:14.000Z</time>
      </trkpt>
      <trkpt lat="50.34408" lon="3.65097">
        <ele>52.2</ele>
        <time>2022-05-09T08:16:19.867Z</time>
      </trkpt>
      <trkpt lat="50.34408" lon="3.6509">
        <ele>52.1</ele>
        <time>2022-05-09T08:16:21.129Z</time>
      </trkpt>
      <trkpt lat="50.34407" lon="3.65086">
        <ele>52</ele>
        <time>2022-05-09T08:16:21.852Z</time>
      </trkpt>
      <trkpt lat="50.34402" lon="3.65079">
        <ele>52.1</ele>
        <time>2022-05-09T08:16:24.529Z</time>
      </trkpt>
      <trkpt lat="50.34401" lon="3.65071">
        <ele>52.4</ele>
        <time>2022-05-09T08:16:25.729Z</time>
      </trkpt>
      <trkpt lat="50.34402" lon="3.65063">
        <ele>52.8</ele>
        <time>2022-05-09T08:16:26.911Z</time>
      </trkpt>
      <trkpt lat="50.34402" lon="3.65056">
        <ele>53</ele>
        <time>2022-05-09T08:16:28.946Z</time>
      </trkpt>
      <trkpt lat="50.34405" lon="3.65047">
        <ele>53.1</ele>
        <time>2022-05-09T08:16:31.006Z</time>
      </trkpt>
      <trkpt lat="50.34407" lon="3.65039">
        <ele>53.2</ele>
        <time>2022-05-09T08:16:33.000Z</time>
      </trkpt>
      <trkpt lat="50.34408" lon="3.65026">
        <ele>53.3</ele>
        <time>2022-05-09T08:16:36.000Z</time>
      </trkpt>
      <trkpt lat="50.34409" lon="3.65015">
        <ele>53.1</ele>
        <time>2022-05-09T08:16:39.548Z</time>
      </trkpt>
      <trkpt lat="50.34409" lon="3.65005">
        <ele>52.8</ele>
        <time>2022-05-09T08:16:42.000Z</time>
      </trkpt>
      <trkpt lat="50.34403" lon="3.64998">
        <ele>52.6</ele>
        <time>2022-05-09T08:16:43.989Z</time>
      </trkpt>
      <trkpt lat="50.34396" lon="3.64993">
        <ele>52.5</ele>
        <time>2022-05-09T08:16:46.126Z</time>
      </trkpt>
      <trkpt lat="50.34391" lon="3.64988">
        <ele>52.5</ele>
        <time>2022-05-09T08:16:48.067Z</time>
      </trkpt>
      <trkpt lat="50.34386" lon="3.64982">
        <ele>52.7</ele>
        <time>2022-05-09T08:16:49.292Z</time>
      </trkpt>
      <trkpt lat="50.34382" lon="3.64979">
        <ele>52.8</ele>
        <time>2022-05-09T08:16:50.347Z</time>
      </trkpt>
      <trkpt lat="50.34378" lon="3.64976">
        <ele>52.9</ele>
        <time>2022-05-09T08:16:51.850Z</time>
      </trkpt>
      <trkpt lat="50.34371" lon="3.64969">
        <ele>53.1</ele>
        <time>2022-05-09T08:16:54.109Z</time>
      </trkpt>
      <trkpt lat="50.34362" lon="3.64962">
        <ele>53.4</ele>
        <time>2022-05-09T08:16:57.088Z</time>
      </trkpt>
      <trkpt lat="50.34358" lon="3.64954">
        <ele>53.6</ele>
        <time>2022-05-09T08:16:59.549Z</time>
      </trkpt>
      <trkpt lat="50.34353" lon="3.6495">
        <ele>53.6</ele>
        <time>2022-05-09T08:17:00.968Z</time>
      </trkpt>
      <trkpt lat="50.34347" lon="3.64941">
        <ele>53.7</ele>
        <time>2022-05-09T08:17:04.000Z</time>
      </trkpt>
      <trkpt lat="50.34342" lon="3.64931">
        <ele>54.3</ele>
        <time>2022-05-09T08:17:07.000Z</time>
      </trkpt>
      <trkpt lat="50.34337" lon="3.64924">
        <ele>54.6</ele>
        <time>2022-05-09T08:17:08.967Z</time>
      </trkpt>
      <trkpt lat="50.34333" lon="3.64916">
        <ele>55</ele>
        <time>2022-05-09T08:17:11.708Z</time>
      </trkpt>
      <trkpt lat="50.34331" lon="3.64909">
        <ele>55.4</ele>
        <time>2022-05-09T08:17:13.051Z</time>
      </trkpt>
      <trkpt lat="50.34327" lon="3.64901">
        <ele>55.8</ele>
        <time>2022-05-09T08:17:16.409Z</time>
      </trkpt>
      <trkpt lat="50.34325" lon="3.64891">
        <ele>56.3</ele>
        <time>2022-05-09T08:17:19.866Z</time>
      </trkpt>
      <trkpt lat="50.34321" lon="3.6488">
        <ele>56.9</ele>
        <time>2022-05-09T08:17:22.000Z</time>
      </trkpt>
      <trkpt lat="50.3432" lon="3.64873">
        <ele>57.5</ele>
        <time>2022-05-09T08:17:23.000Z</time>
      </trkpt>
      <trkpt lat="50.34317" lon="3.64862">
        <ele>58.4</ele>
        <time>2022-05-09T08:17:25.000Z</time>
      </trkpt>
      <trkpt lat="50.34313" lon="3.64849">
        <ele>58.8</ele>
        <time>2022-05-09T08:17:27.969Z</time>
      </trkpt>
      <trkpt lat="50.34311" lon="3.64842">
        <ele>59</ele>
        <time>2022-05-09T08:17:30.386Z</time>
      </trkpt>
      <trkpt lat="50.34308" lon="3.64832">
        <ele>59.3</ele>
        <time>2022-05-09T08:17:33.066Z</time>
      </trkpt>
      <trkpt lat="50.34305" lon="3.64824">
        <ele>60.1</ele>
        <time>2022-05-09T08:17:35.000Z</time>
      </trkpt>
      <trkpt lat="50.34302" lon="3.64814">
        <ele>61.2</ele>
        <time>2022-05-09T08:17:36.990Z</time>
      </trkpt>
      <trkpt lat="50.34298" lon="3.64804">
        <ele>62.1</ele>
        <time>2022-05-09T08:17:39.631Z</time>
      </trkpt>
      <trkpt lat="50.34294" lon="3.64796">
        <ele>62.8</ele>
        <time>2022-05-09T08:17:41.570Z</time>
      </trkpt>
      <trkpt lat="50.3429" lon="3.64789">
        <ele>63.5</ele>
        <time>2022-05-09T08:17:44.000Z</time>
      </trkpt>
      <trkpt lat="50.34289" lon="3.6478">
        <ele>64.4</ele>
        <time>2022-05-09T08:17:47.650Z</time>
      </trkpt>
      <trkpt lat="50.34291" lon="3.64772">
        <ele>64.8</ele>
        <time>2022-05-09T08:17:49.000Z</time>
      </trkpt>
      <trkpt lat="50.34291" lon="3.64761">
        <ele>65.4</ele>
        <time>2022-05-09T08:17:52.000Z</time>
      </trkpt>
      <trkpt lat="50.34292" lon="3.64752">
        <ele>65.9</ele>
        <time>2022-05-09T08:17:55.023Z</time>
      </trkpt>
      <trkpt lat="50.34292" lon="3.64742">
        <ele>66.9</ele>
        <time>2022-05-09T08:17:58.000Z</time>
      </trkpt>
      <trkpt lat="50.3429" lon="3.64734">
        <ele>67.6</ele>
        <time>2022-05-09T08:17:59.000Z</time>
      </trkpt>
      <trkpt lat="50.34286" lon="3.64725">
        <ele>68.4</ele>
        <time>2022-05-09T08:18:02.000Z</time>
      </trkpt>
      <trkpt lat="50.34285" lon="3.64718">
        <ele>68.6</ele>
        <time>2022-05-09T08:18:04.000Z</time>
      </trkpt>
      <trkpt lat="50.34282" lon="3.64711">
        <ele>68.7</ele>
        <time>2022-05-09T08:18:07.000Z</time>
      </trkpt>
      <trkpt lat="50.34278" lon="3.64702">
        <ele>68.8</ele>
        <time>2022-05-09T08:18:10.000Z</time>
      </trkpt>
      <trkpt lat="50.34275" lon="3.64692">
        <ele>69.2</ele>
        <time>2022-05-09T08:18:13.000Z</time>
      </trkpt>
      <trkpt lat="50.34272" lon="3.64682">
        <ele>69.8</ele>
        <time>2022-05-09T08:18:16.000Z</time>
      </trkpt>
      <trkpt lat="50.34269" lon="3.64674">
        <ele>70.2</ele>
        <time>2022-05-09T08:18:19.000Z</time>
      </trkpt>
      <trkpt lat="50.34266" lon="3.64666">
        <ele>70.6</ele>
        <time>2022-05-09T08:18:22.000Z</time>
      </trkpt>
      <trkpt lat="50.34264" lon="3.64657">
        <ele>70.7</ele>
        <time>2022-05-09T08:18:25.000Z</time>
      </trkpt>
      <trkpt lat="50.34264" lon="3.64649">
        <ele>70.8</ele>
        <time>2022-05-09T08:18:27.000Z</time>
      </trkpt>
      <trkpt lat="50.34265" lon="3.64642">
        <ele>71</ele>
        <time>2022-05-09T08:18:29.000Z</time>
      </trkpt>
      <trkpt lat="50.34266" lon="3.64631">
        <ele>71.9</ele>
        <time>2022-05-09T08:18:32.000Z</time>
      </trkpt>
      <trkpt lat="50.34267" lon="3.64623">
        <ele>72.7</ele>
        <time>2022-05-09T08:18:35.000Z</time>
      </trkpt>
      <trkpt lat="50.34267" lon="3.64615">
        <ele>73.5</ele>
        <time>2022-05-09T08:18:37.000Z</time>
      </trkpt>
      <trkpt lat="50.34265" lon="3.64607">
        <ele>74.3</ele>
        <time>2022-05-09T08:18:39.000Z</time>
      </trkpt>
      <trkpt lat="50.34262" lon="3.64596">
        <ele>75</ele>
        <time>2022-05-09T08:18:42.955Z</time>
      </trkpt>
      <trkpt lat="50.3426" lon="3.64587">
        <ele>75.3</ele>
        <time>2022-05-09T08:18:46.000Z</time>
      </trkpt>
      <trkpt lat="50.34257" lon="3.64577">
        <ele>75.2</ele>
        <time>2022-05-09T08:18:49.493Z</time>
      </trkpt>
      <trkpt lat="50.34257" lon="3.6457">
        <ele>75.4</ele>
        <time>2022-05-09T08:18:52.062Z</time>
      </trkpt>
      <trkpt lat="50.34254" lon="3.64559">
        <ele>75.4</ele>
        <time>2022-05-09T08:18:55.499Z</time>
      </trkpt>
      <trkpt lat="50.34252" lon="3.6455">
        <ele>75.5</ele>
        <time>2022-05-09T08:18:58.000Z</time>
      </trkpt>
      <trkpt lat="50.34251" lon="3.64542">
        <ele>75.6</ele>
        <time>2022-05-09T08:19:01.000Z</time>
      </trkpt>
      <trkpt lat="50.3425" lon="3.64534">
        <ele>75.8</ele>
        <time>2022-05-09T08:19:04.000Z</time>
      </trkpt>
      <trkpt lat="50.34251" lon="3.64523">
        <ele>76.3</ele>
        <time>2022-05-09T08:19:07.000Z</time>
      </trkpt>
      <trkpt lat="50.34251" lon="3.64513">
        <ele>76.7</ele>
        <time>2022-05-09T08:19:10.000Z</time>
      </trkpt>
      <trkpt lat="50.34252" lon="3.64505">
        <ele>76.9</ele>
        <time>2022-05-09T08:19:12.000Z</time>
      </trkpt>
      <trkpt lat="50.3425" lon="3.64498">
        <ele>77.2</ele>
        <time>2022-05-09T08:19:15.000Z</time>
      </trkpt>
      <trkpt lat="50.34245" lon="3.64493">
        <ele>77.7</ele>
        <time>2022-05-09T08:19:17.000Z</time>
      </trkpt>
      <trkpt lat="50.34241" lon="3.6449">
        <ele>78.2</ele>
        <time>2022-05-09T08:19:19.000Z</time>
      </trkpt>
      <trkpt lat="50.34234" lon="3.64488">
        <ele>78.7</ele>
        <time>2022-05-09T08:19:22.000Z</time>
      </trkpt>
      <trkpt lat="50.34229" lon="3.64488">
        <ele>79</ele>
        <time>2022-05-09T08:19:24.000Z</time>
      </trkpt>
      <trkpt lat="50.34223" lon="3.64487">
        <ele>79.4</ele>
        <time>2022-05-09T08:19:26.000Z</time>
      </trkpt>
      <trkpt lat="50.34218" lon="3.64486">
        <ele>79.7</ele>
        <time>2022-05-09T08:19:28.000Z</time>
      </trkpt>
      <trkpt lat="50.34213" lon="3.64486">
        <ele>79.8</ele>
        <time>2022-05-09T08:19:30.000Z</time>
      </trkpt>
      <trkpt lat="50.34208" lon="3.64487">
        <ele>80</ele>
        <time>2022-05-09T08:19:32.000Z</time>
      </trkpt>
      <trkpt lat="50.34202" lon="3.64486">
        <ele>80.2</ele>
        <time>2022-05-09T08:19:34.000Z</time>
      </trkpt>
      <trkpt lat="50.34197" lon="3.64485">
        <ele>80.5</ele>
        <time>2022-05-09T08:19:36.000Z</time>
      </trkpt>
      <trkpt lat="50.3419" lon="3.64485">
        <ele>80.5</ele>
        <time>2022-05-09T08:19:38.000Z</time>
      </trkpt>
      <trkpt lat="50.34184" lon="3.64483">
        <ele>80.6</ele>
        <time>2022-05-09T08:19:41.000Z</time>
      </trkpt>
      <trkpt lat="50.34177" lon="3.64481">
        <ele>80.7</ele>
        <time>2022-05-09T08:19:43.000Z</time>
      </trkpt>
      <trkpt lat="50.34171" lon="3.64482">
        <ele>80.7</ele>
        <time>2022-05-09T08:19:45.000Z</time>
      </trkpt>
      <trkpt lat="50.34163" lon="3.6448">
        <ele>80.6</ele>
        <time>2022-05-09T08:19:47.000Z</time>
      </trkpt>
      <trkpt lat="50.34156" lon="3.6448">
        <ele>80.3</ele>
        <time>2022-05-09T08:19:49.000Z</time>
      </trkpt>
      <trkpt lat="50.34148" lon="3.64478">
        <ele>80.1</ele>
        <time>2022-05-09T08:19:51.000Z</time>
      </trkpt>
      <trkpt lat="50.3414" lon="3.64477">
        <ele>79.9</ele>
        <time>2022-05-09T08:19:53.000Z</time>
      </trkpt>
      <trkpt lat="50.3413" lon="3.64476">
        <ele>79.3</ele>
        <time>2022-05-09T08:19:55.000Z</time>
      </trkpt>
      <trkpt lat="50.34125" lon="3.64476">
        <ele>78.9</ele>
        <time>2022-05-09T08:19:56.000Z</time>
      </trkpt>
      <trkpt lat="50.34119" lon="3.64475">
        <ele>78.5</ele>
        <time>2022-05-09T08:19:57.000Z</time>
      </trkpt>
      <trkpt lat="50.34113" lon="3.64473">
        <ele>78.1</ele>
        <time>2022-05-09T08:19:58.000Z</time>
      </trkpt>
      <trkpt lat="50.34108" lon="3.64469">
        <ele>78.3</ele>
        <time>2022-05-09T08:19:59.000Z</time>
      </trkpt>
      <trkpt lat="50.34103" lon="3.64464">
        <ele>78.6</ele>
        <time>2022-05-09T08:20:00.000Z</time>
      </trkpt>
      <trkpt lat="50.341" lon="3.6446">
        <ele>78.8</ele>
        <time>2022-05-09T08:20:01.088Z</time>
      </trkpt>
      <trkpt lat="50.34094" lon="3.64452">
        <ele>78.8</ele>
        <time>2022-05-09T08:20:02.000Z</time>
      </trkpt>
      <trkpt lat="50.34089" lon="3.64447">
        <ele>78.6</ele>
        <time>2022-05-09T08:20:03.000Z</time>
      </trkpt>
      <trkpt lat="50.34085" lon="3.64443">
        <ele>78.3</ele>
        <time>2022-05-09T08:20:04.000Z</time>
      </trkpt>
      <trkpt lat="50.34081" lon="3.64439">
        <ele>78.7</ele>
        <time>2022-05-09T08:20:05.000Z</time>
      </trkpt>
      <trkpt lat="50.34076" lon="3.64427">
        <ele>80.1</ele>
        <time>2022-05-09T08:20:07.000Z</time>
      </trkpt>
      <trkpt lat="50.34073" lon="3.64419">
        <ele>80.8</ele>
        <time>2022-05-09T08:20:09.000Z</time>
      </trkpt>
      <trkpt lat="50.34071" lon="3.64408">
        <ele>81.4</ele>
        <time>2022-05-09T08:20:11.000Z</time>
      </trkpt>
      <trkpt lat="50.34071" lon="3.644">
        <ele>81.7</ele>
        <time>2022-05-09T08:20:12.000Z</time>
      </trkpt>
      <trkpt lat="50.34071" lon="3.64391">
        <ele>82.1</ele>
        <time>2022-05-09T08:20:14.000Z</time>
      </trkpt>
      <trkpt lat="50.3407" lon="3.64381">
        <ele>82.5</ele>
        <time>2022-05-09T08:20:16.000Z</time>
      </trkpt>
      <trkpt lat="50.3407" lon="3.64373">
        <ele>82.9</ele>
        <time>2022-05-09T08:20:18.000Z</time>
      </trkpt>
      <trkpt lat="50.3407" lon="3.64365">
        <ele>83.4</ele>
        <time>2022-05-09T08:20:20.000Z</time>
      </trkpt>
      <trkpt lat="50.3407" lon="3.64355">
        <ele>83.8</ele>
        <time>2022-05-09T08:20:22.000Z</time>
      </trkpt>
      <trkpt lat="50.3407" lon="3.64345">
        <ele>84.4</ele>
        <time>2022-05-09T08:20:24.000Z</time>
      </trkpt>
      <trkpt lat="50.3407" lon="3.64333">
        <ele>85.1</ele>
        <time>2022-05-09T08:20:26.000Z</time>
      </trkpt>
      <trkpt lat="50.3407" lon="3.64324">
        <ele>85.4</ele>
        <time>2022-05-09T08:20:28.000Z</time>
      </trkpt>
      <trkpt lat="50.34071" lon="3.64317">
        <ele>85.7</ele>
        <time>2022-05-09T08:20:30.929Z</time>
      </trkpt>
      <trkpt lat="50.3407" lon="3.64308">
        <ele>85.9</ele>
        <time>2022-05-09T08:20:33.000Z</time>
      </trkpt>
      <trkpt lat="50.3407" lon="3.64299">
        <ele>86.3</ele>
        <time>2022-05-09T08:20:35.000Z</time>
      </trkpt>
      <trkpt lat="50.34069" lon="3.64289">
        <ele>86.6</ele>
        <time>2022-05-09T08:20:37.000Z</time>
      </trkpt>
      <trkpt lat="50.34068" lon="3.64278">
        <ele>86.9</ele>
        <time>2022-05-09T08:20:39.000Z</time>
      </trkpt>
      <trkpt lat="50.34067" lon="3.64268">
        <ele>87.2</ele>
        <time>2022-05-09T08:20:41.102Z</time>
      </trkpt>
      <trkpt lat="50.34066" lon="3.64253">
        <ele>87.6</ele>
        <time>2022-05-09T08:20:43.060Z</time>
      </trkpt>
      <trkpt lat="50.34064" lon="3.64246">
        <ele>87.6</ele>
        <time>2022-05-09T08:20:45.000Z</time>
      </trkpt>
      <trkpt lat="50.34063" lon="3.64239">
        <ele>87.4</ele>
        <time>2022-05-09T08:20:46.064Z</time>
      </trkpt>
      <trkpt lat="50.34062" lon="3.64227">
        <ele>87</ele>
        <time>2022-05-09T08:20:49.041Z</time>
      </trkpt>
      <trkpt lat="50.3406" lon="3.64219">
        <ele>86.5</ele>
        <time>2022-05-09T08:20:50.734Z</time>
      </trkpt>
      <trkpt lat="50.34058" lon="3.64207">
        <ele>85.9</ele>
        <time>2022-05-09T08:20:53.000Z</time>
      </trkpt>
      <trkpt lat="50.34057" lon="3.64199">
        <ele>85.4</ele>
        <time>2022-05-09T08:20:54.923Z</time>
      </trkpt>
      <trkpt lat="50.34055" lon="3.6419">
        <ele>85.1</ele>
        <time>2022-05-09T08:20:56.842Z</time>
      </trkpt>
      <trkpt lat="50.34054" lon="3.64182">
        <ele>85.3</ele>
        <time>2022-05-09T08:20:58.902Z</time>
      </trkpt>
      <trkpt lat="50.34052" lon="3.64172">
        <ele>85.6</ele>
        <time>2022-05-09T08:21:01.000Z</time>
      </trkpt>
      <trkpt lat="50.34051" lon="3.64162">
        <ele>86.4</ele>
        <time>2022-05-09T08:21:03.001Z</time>
      </trkpt>
      <trkpt lat="50.34049" lon="3.64151">
        <ele>88.1</ele>
        <time>2022-05-09T08:21:05.375Z</time>
      </trkpt>
      <trkpt lat="50.34045" lon="3.64139">
        <ele>89.7</ele>
        <time>2022-05-09T08:21:07.860Z</time>
      </trkpt>
      <trkpt lat="50.34042" lon="3.64131">
        <ele>90</ele>
        <time>2022-05-09T08:21:10.000Z</time>
      </trkpt>
      <trkpt lat="50.34038" lon="3.64122">
        <ele>90</ele>
        <time>2022-05-09T08:21:12.000Z</time>
      </trkpt>
      <trkpt lat="50.34035" lon="3.64116">
        <ele>89.7</ele>
        <time>2022-05-09T08:21:14.000Z</time>
      </trkpt>
      <trkpt lat="50.34032" lon="3.64106">
        <ele>89</ele>
        <time>2022-05-09T08:21:16.471Z</time>
      </trkpt>
      <trkpt lat="50.3403" lon="3.64099">
        <ele>88.3</ele>
        <time>2022-05-09T08:21:18.727Z</time>
      </trkpt>
      <trkpt lat="50.34028" lon="3.6409">
        <ele>87.5</ele>
        <time>2022-05-09T08:21:21.029Z</time>
      </trkpt>
      <trkpt lat="50.34029" lon="3.64081">
        <ele>87.3</ele>
        <time>2022-05-09T08:21:23.000Z</time>
      </trkpt>
      <trkpt lat="50.3403" lon="3.64073">
        <ele>88.1</ele>
        <time>2022-05-09T08:21:25.000Z</time>
      </trkpt>
      <trkpt lat="50.34031" lon="3.64063">
        <ele>88.9</ele>
        <time>2022-05-09T08:21:27.724Z</time>
      </trkpt>
      <trkpt lat="50.34031" lon="3.64052">
        <ele>89.6</ele>
        <time>2022-05-09T08:21:30.000Z</time>
      </trkpt>
      <trkpt lat="50.3403" lon="3.64038">
        <ele>89.9</ele>
        <time>2022-05-09T08:21:33.023Z</time>
      </trkpt>
      <trkpt lat="50.34027" lon="3.64027">
        <ele>90</ele>
        <time>2022-05-09T08:21:36.000Z</time>
      </trkpt>
      <trkpt lat="50.34026" lon="3.64018">
        <ele>90.5</ele>
        <time>2022-05-09T08:21:39.000Z</time>
      </trkpt>
      <trkpt lat="50.34027" lon="3.64009">
        <ele>90.8</ele>
        <time>2022-05-09T08:21:42.000Z</time>
      </trkpt>
      <trkpt lat="50.34027" lon="3.63999">
        <ele>91.1</ele>
        <time>2022-05-09T08:21:44.821Z</time>
      </trkpt>
      <trkpt lat="50.34028" lon="3.63991">
        <ele>91.7</ele>
        <time>2022-05-09T08:21:48.000Z</time>
      </trkpt>
      <trkpt lat="50.34027" lon="3.63982">
        <ele>92.3</ele>
        <time>2022-05-09T08:21:50.926Z</time>
      </trkpt>
      <trkpt lat="50.34026" lon="3.63975">
        <ele>92.9</ele>
        <time>2022-05-09T08:21:53.048Z</time>
      </trkpt>
      <trkpt lat="50.34024" lon="3.63969">
        <ele>93.1</ele>
        <time>2022-05-09T08:21:55.000Z</time>
      </trkpt>
      <trkpt lat="50.34022" lon="3.63961">
        <ele>93.2</ele>
        <time>2022-05-09T08:21:57.103Z</time>
      </trkpt>
      <trkpt lat="50.34022" lon="3.63953">
        <ele>93.2</ele>
        <time>2022-05-09T08:21:59.000Z</time>
      </trkpt>
      <trkpt lat="50.34021" lon="3.63944">
        <ele>93.3</ele>
        <time>2022-05-09T08:22:01.000Z</time>
      </trkpt>
      <trkpt lat="50.34018" lon="3.63938">
        <ele>93.5</ele>
        <time>2022-05-09T08:22:03.000Z</time>
      </trkpt>
      <trkpt lat="50.34014" lon="3.63931">
        <ele>93.7</ele>
        <time>2022-05-09T08:22:05.000Z</time>
      </trkpt>
      <trkpt lat="50.3401" lon="3.63923">
        <ele>93.9</ele>
        <time>2022-05-09T08:22:07.493Z</time>
      </trkpt>
      <trkpt lat="50.34006" lon="3.63913">
        <ele>94.1</ele>
        <time>2022-05-09T08:22:09.908Z</time>
      </trkpt>
      <trkpt lat="50.34002" lon="3.63906">
        <ele>94.4</ele>
        <time>2022-05-09T08:22:12.000Z</time>
      </trkpt>
      <trkpt lat="50.33998" lon="3.639">
        <ele>94.8</ele>
        <time>2022-05-09T08:22:13.961Z</time>
      </trkpt>
      <trkpt lat="50.33996" lon="3.63892">
        <ele>95.3</ele>
        <time>2022-05-09T08:22:16.000Z</time>
      </trkpt>
      <trkpt lat="50.33992" lon="3.63882">
        <ele>95.9</ele>
        <time>2022-05-09T08:22:20.083Z</time>
      </trkpt>
      <trkpt lat="50.33989" lon="3.63872">
        <ele>96.1</ele>
        <time>2022-05-09T08:22:23.000Z</time>
      </trkpt>
      <trkpt lat="50.33986" lon="3.63866">
        <ele>96.1</ele>
        <time>2022-05-09T08:22:25.000Z</time>
      </trkpt>
      <trkpt lat="50.33982" lon="3.63857">
        <ele>95.8</ele>
        <time>2022-05-09T08:22:29.124Z</time>
      </trkpt>
      <trkpt lat="50.33978" lon="3.63848">
        <ele>95.5</ele>
        <time>2022-05-09T08:22:32.000Z</time>
      </trkpt>
      <trkpt lat="50.33974" lon="3.63842">
        <ele>95.3</ele>
        <time>2022-05-09T08:22:33.000Z</time>
      </trkpt>
      <trkpt lat="50.33972" lon="3.63836">
        <ele>95.2</ele>
        <time>2022-05-09T08:22:35.000Z</time>
      </trkpt>
      <trkpt lat="50.33969" lon="3.63829">
        <ele>95.4</ele>
        <time>2022-05-09T08:22:37.221Z</time>
      </trkpt>
      <trkpt lat="50.33967" lon="3.63822">
        <ele>95.6</ele>
        <time>2022-05-09T08:22:38.902Z</time>
      </trkpt>
      <trkpt lat="50.33963" lon="3.63816">
        <ele>95.9</ele>
        <time>2022-05-09T08:22:41.000Z</time>
      </trkpt>
      <trkpt lat="50.3396" lon="3.63809">
        <ele>96</ele>
        <time>2022-05-09T08:22:43.000Z</time>
      </trkpt>
      <trkpt lat="50.33957" lon="3.63802">
        <ele>96.1</ele>
        <time>2022-05-09T08:22:45.024Z</time>
      </trkpt>
      <trkpt lat="50.33955" lon="3.63796">
        <ele>96.2</ele>
        <time>2022-05-09T08:22:47.000Z</time>
      </trkpt>
      <trkpt lat="50.33952" lon="3.63787">
        <ele>96.2</ele>
        <time>2022-05-09T08:22:48.905Z</time>
      </trkpt>
      <trkpt lat="50.33949" lon="3.63779">
        <ele>96</ele>
        <time>2022-05-09T08:22:51.000Z</time>
      </trkpt>
      <trkpt lat="50.33946" lon="3.63774">
        <ele>96.1</ele>
        <time>2022-05-09T08:22:54.000Z</time>
      </trkpt>
      <trkpt lat="50.33944" lon="3.6376">
        <ele>96.6</ele>
        <time>2022-05-09T08:23:25.035Z</time>
      </trkpt>
      <trkpt lat="50.33946" lon="3.63741">
        <ele>97.3</ele>
        <time>2022-05-09T08:24:09.599Z</time>
      </trkpt>
      <trkpt lat="50.33945" lon="3.63722">
        <ele>98</ele>
        <time>2022-05-09T08:24:51.000Z</time>
      </trkpt>
      <trkpt lat="50.33943" lon="3.63716">
        <ele>98</ele>
        <time>2022-05-09T08:24:52.972Z</time>
      </trkpt>
      <trkpt lat="50.33941" lon="3.63706">
        <ele>98.1</ele>
        <time>2022-05-09T08:24:55.000Z</time>
      </trkpt>
      <trkpt lat="50.33939" lon="3.63699">
        <ele>98.2</ele>
        <time>2022-05-09T08:24:57.000Z</time>
      </trkpt>
      <trkpt lat="50.33936" lon="3.63692">
        <ele>98.3</ele>
        <time>2022-05-09T08:24:59.000Z</time>
      </trkpt>
      <trkpt lat="50.33932" lon="3.63681">
        <ele>98.4</ele>
        <time>2022-05-09T08:25:02.000Z</time>
      </trkpt>
      <trkpt lat="50.33929" lon="3.63673">
        <ele>98.6</ele>
        <time>2022-05-09T08:25:04.000Z</time>
      </trkpt>
      <trkpt lat="50.33926" lon="3.63666">
        <ele>98.7</ele>
        <time>2022-05-09T08:25:06.000Z</time>
      </trkpt>
      <trkpt lat="50.33923" lon="3.63656">
        <ele>98.9</ele>
        <time>2022-05-09T08:25:08.000Z</time>
      </trkpt>
      <trkpt lat="50.3392" lon="3.63646">
        <ele>99</ele>
        <time>2022-05-09T08:25:10.000Z</time>
      </trkpt>
      <trkpt lat="50.33917" lon="3.6364">
        <ele>99</ele>
        <time>2022-05-09T08:25:12.000Z</time>
      </trkpt>
      <trkpt lat="50.33914" lon="3.63632">
        <ele>99.1</ele>
        <time>2022-05-09T08:25:14.000Z</time>
      </trkpt>
      <trkpt lat="50.3391" lon="3.63623">
        <ele>99.2</ele>
        <time>2022-05-09T08:25:16.000Z</time>
      </trkpt>
      <trkpt lat="50.33907" lon="3.63617">
        <ele>99.4</ele>
        <time>2022-05-09T08:25:18.000Z</time>
      </trkpt>
      <trkpt lat="50.33903" lon="3.63607">
        <ele>99.6</ele>
        <time>2022-05-09T08:25:20.000Z</time>
      </trkpt>
      <trkpt lat="50.33901" lon="3.63601">
        <ele>99.7</ele>
        <time>2022-05-09T08:25:22.000Z</time>
      </trkpt>
      <trkpt lat="50.33897" lon="3.63592">
        <ele>99.9</ele>
        <time>2022-05-09T08:25:23.961Z</time>
      </trkpt>
      <trkpt lat="50.33894" lon="3.63586">
        <ele>100</ele>
        <time>2022-05-09T08:25:24.961Z</time>
      </trkpt>
      <trkpt lat="50.33891" lon="3.63574">
        <ele>100</ele>
        <time>2022-05-09T08:25:27.014Z</time>
      </trkpt>
      <trkpt lat="50.33886" lon="3.63563">
        <ele>100</ele>
        <time>2022-05-09T08:25:30.083Z</time>
      </trkpt>
      <trkpt lat="50.33883" lon="3.63557">
        <ele>100</ele>
        <time>2022-05-09T08:25:31.000Z</time>
      </trkpt>
      <trkpt lat="50.3388" lon="3.6355">
        <ele>100</ele>
        <time>2022-05-09T08:25:32.000Z</time>
      </trkpt>
      <trkpt lat="50.33879" lon="3.63541">
        <ele>100</ele>
        <time>2022-05-09T08:25:34.000Z</time>
      </trkpt>
      <trkpt lat="50.33877" lon="3.63534">
        <ele>100</ele>
        <time>2022-05-09T08:25:35.000Z</time>
      </trkpt>
      <trkpt lat="50.33874" lon="3.63526">
        <ele>100</ele>
        <time>2022-05-09T08:25:37.000Z</time>
      </trkpt>
      <trkpt lat="50.33872" lon="3.63519">
        <ele>99.9</ele>
        <time>2022-05-09T08:25:38.000Z</time>
      </trkpt>
      <trkpt lat="50.33867" lon="3.63508">
        <ele>99.9</ele>
        <time>2022-05-09T08:25:40.000Z</time>
      </trkpt>
      <trkpt lat="50.33858" lon="3.63488">
        <ele>99.6</ele>
        <time>2022-05-09T08:25:43.905Z</time>
      </trkpt>
      <trkpt lat="50.33855" lon="3.63481">
        <ele>99.5</ele>
        <time>2022-05-09T08:25:45.000Z</time>
      </trkpt>
      <trkpt lat="50.33851" lon="3.63471">
        <ele>99.4</ele>
        <time>2022-05-09T08:25:47.000Z</time>
      </trkpt>
      <trkpt lat="50.33847" lon="3.63465">
        <ele>99.4</ele>
        <time>2022-05-09T08:25:48.000Z</time>
      </trkpt>
      <trkpt lat="50.33844" lon="3.63458">
        <ele>99.3</ele>
        <time>2022-05-09T08:25:49.000Z</time>
      </trkpt>
      <trkpt lat="50.3384" lon="3.63451">
        <ele>99.2</ele>
        <time>2022-05-09T08:25:51.000Z</time>
      </trkpt>
      <trkpt lat="50.33836" lon="3.63445">
        <ele>99</ele>
        <time>2022-05-09T08:25:52.000Z</time>
      </trkpt>
      <trkpt lat="50.33832" lon="3.6344">
        <ele>99</ele>
        <time>2022-05-09T08:25:53.000Z</time>
      </trkpt>
      <trkpt lat="50.33828" lon="3.63434">
        <ele>99.1</ele>
        <time>2022-05-09T08:25:54.000Z</time>
      </trkpt>
      <trkpt lat="50.33822" lon="3.63424">
        <ele>99.1</ele>
        <time>2022-05-09T08:25:56.000Z</time>
      </trkpt>
      <trkpt lat="50.33819" lon="3.63419">
        <ele>99</ele>
        <time>2022-05-09T08:25:57.000Z</time>
      </trkpt>
      <trkpt lat="50.33816" lon="3.63414">
        <ele>99</ele>
        <time>2022-05-09T08:25:58.000Z</time>
      </trkpt>
      <trkpt lat="50.33811" lon="3.63409">
        <ele>98.9</ele>
        <time>2022-05-09T08:25:59.000Z</time>
      </trkpt>
      <trkpt lat="50.33805" lon="3.63399">
        <ele>99</ele>
        <time>2022-05-09T08:26:01.000Z</time>
      </trkpt>
      <trkpt lat="50.338" lon="3.63392">
        <ele>99</ele>
        <time>2022-05-09T08:26:02.000Z</time>
      </trkpt>
      <trkpt lat="50.33796" lon="3.63387">
        <ele>99</ele>
        <time>2022-05-09T08:26:03.000Z</time>
      </trkpt>
      <trkpt lat="50.3379" lon="3.63378">
        <ele>98.8</ele>
        <time>2022-05-09T08:26:05.000Z</time>
      </trkpt>
      <trkpt lat="50.33786" lon="3.63373">
        <ele>98.8</ele>
        <time>2022-05-09T08:26:06.000Z</time>
      </trkpt>
      <trkpt lat="50.33783" lon="3.63367">
        <ele>98.9</ele>
        <time>2022-05-09T08:26:07.000Z</time>
      </trkpt>
      <trkpt lat="50.33779" lon="3.63361">
        <ele>98.9</ele>
        <time>2022-05-09T08:26:08.000Z</time>
      </trkpt>
      <trkpt lat="50.33776" lon="3.63355">
        <ele>98.8</ele>
        <time>2022-05-09T08:26:09.000Z</time>
      </trkpt>
      <trkpt lat="50.33773" lon="3.6335">
        <ele>98.7</ele>
        <time>2022-05-09T08:26:10.000Z</time>
      </trkpt>
      <trkpt lat="50.33766" lon="3.6334">
        <ele>98.6</ele>
        <time>2022-05-09T08:26:12.000Z</time>
      </trkpt>
      <trkpt lat="50.33763" lon="3.63334">
        <ele>98.6</ele>
        <time>2022-05-09T08:26:13.000Z</time>
      </trkpt>
      <trkpt lat="50.33759" lon="3.63327">
        <ele>98.5</ele>
        <time>2022-05-09T08:26:14.000Z</time>
      </trkpt>
      <trkpt lat="50.33752" lon="3.63316">
        <ele>98.4</ele>
        <time>2022-05-09T08:26:16.000Z</time>
      </trkpt>
      <trkpt lat="50.33745" lon="3.63306">
        <ele>98.2</ele>
        <time>2022-05-09T08:26:18.000Z</time>
      </trkpt>
      <trkpt lat="50.33741" lon="3.63299">
        <ele>98.1</ele>
        <time>2022-05-09T08:26:19.000Z</time>
      </trkpt>
      <trkpt lat="50.33735" lon="3.63288">
        <ele>97.9</ele>
        <time>2022-05-09T08:26:21.000Z</time>
      </trkpt>
      <trkpt lat="50.33729" lon="3.63277">
        <ele>97.8</ele>
        <time>2022-05-09T08:26:23.000Z</time>
      </trkpt>
      <trkpt lat="50.33725" lon="3.63271">
        <ele>97.9</ele>
        <time>2022-05-09T08:26:24.000Z</time>
      </trkpt>
      <trkpt lat="50.33721" lon="3.63264">
        <ele>98</ele>
        <time>2022-05-09T08:26:25.000Z</time>
      </trkpt>
      <trkpt lat="50.33718" lon="3.63258">
        <ele>98</ele>
        <time>2022-05-09T08:26:26.000Z</time>
      </trkpt>
      <trkpt lat="50.33714" lon="3.63253">
        <ele>98</ele>
        <time>2022-05-09T08:26:27.000Z</time>
      </trkpt>
      <trkpt lat="50.33711" lon="3.63247">
        <ele>97.9</ele>
        <time>2022-05-09T08:26:28.000Z</time>
      </trkpt>
      <trkpt lat="50.33707" lon="3.63241">
        <ele>97.9</ele>
        <time>2022-05-09T08:26:29.000Z</time>
      </trkpt>
      <trkpt lat="50.33704" lon="3.63235">
        <ele>97.8</ele>
        <time>2022-05-09T08:26:30.000Z</time>
      </trkpt>
      <trkpt lat="50.33699" lon="3.63221">
        <ele>97.8</ele>
        <time>2022-05-09T08:26:32.000Z</time>
      </trkpt>
      <trkpt lat="50.33698" lon="3.63213">
        <ele>97.9</ele>
        <time>2022-05-09T08:26:33.000Z</time>
      </trkpt>
      <trkpt lat="50.33697" lon="3.63206">
        <ele>97.9</ele>
        <time>2022-05-09T08:26:34.000Z</time>
      </trkpt>
      <trkpt lat="50.33696" lon="3.63197">
        <ele>97.9</ele>
        <time>2022-05-09T08:26:35.000Z</time>
      </trkpt>
      <trkpt lat="50.33695" lon="3.63189">
        <ele>97.8</ele>
        <time>2022-05-09T08:26:36.000Z</time>
      </trkpt>
      <trkpt lat="50.33694" lon="3.63181">
        <ele>97.5</ele>
        <time>2022-05-09T08:26:37.000Z</time>
      </trkpt>
      <trkpt lat="50.33693" lon="3.63172">
        <ele>97.2</ele>
        <time>2022-05-09T08:26:38.000Z</time>
      </trkpt>
      <trkpt lat="50.33692" lon="3.63162">
        <ele>97.1</ele>
        <time>2022-05-09T08:26:39.000Z</time>
      </trkpt>
      <trkpt lat="50.33691" lon="3.63154">
        <ele>97.1</ele>
        <time>2022-05-09T08:26:40.000Z</time>
      </trkpt>
      <trkpt lat="50.3369" lon="3.63144">
        <ele>97</ele>
        <time>2022-05-09T08:26:41.000Z</time>
      </trkpt>
      <trkpt lat="50.33689" lon="3.63134">
        <ele>96.9</ele>
        <time>2022-05-09T08:26:42.000Z</time>
      </trkpt>
      <trkpt lat="50.33688" lon="3.63121">
        <ele>96.5</ele>
        <time>2022-05-09T08:26:43.000Z</time>
      </trkpt>
      <trkpt lat="50.33688" lon="3.6311">
        <ele>96.2</ele>
        <time>2022-05-09T08:26:44.000Z</time>
      </trkpt>
      <trkpt lat="50.33687" lon="3.63101">
        <ele>96.3</ele>
        <time>2022-05-09T08:26:45.000Z</time>
      </trkpt>
      <trkpt lat="50.33687" lon="3.63093">
        <ele>96.3</ele>
        <time>2022-05-09T08:26:46.078Z</time>
      </trkpt>
      <trkpt lat="50.33686" lon="3.63076">
        <ele>96.3</ele>
        <time>2022-05-09T08:26:47.000Z</time>
      </trkpt>
      <trkpt lat="50.33685" lon="3.63063">
        <ele>96.4</ele>
        <time>2022-05-09T08:26:48.000Z</time>
      </trkpt>
      <trkpt lat="50.33684" lon="3.6305">
        <ele>96.4</ele>
        <time>2022-05-09T08:26:49.000Z</time>
      </trkpt>
      <trkpt lat="50.33684" lon="3.63037">
        <ele>96.4</ele>
        <time>2022-05-09T08:26:50.000Z</time>
      </trkpt>
      <trkpt lat="50.33683" lon="3.63024">
        <ele>96.4</ele>
        <time>2022-05-09T08:26:51.000Z</time>
      </trkpt>
      <trkpt lat="50.33682" lon="3.63012">
        <ele>96.4</ele>
        <time>2022-05-09T08:26:52.000Z</time>
      </trkpt>
      <trkpt lat="50.33682" lon="3.62996">
        <ele>96.4</ele>
        <time>2022-05-09T08:26:53.000Z</time>
      </trkpt>
      <trkpt lat="50.33681" lon="3.62984">
        <ele>96.2</ele>
        <time>2022-05-09T08:26:54.000Z</time>
      </trkpt>
      <trkpt lat="50.33681" lon="3.62972">
        <ele>96</ele>
        <time>2022-05-09T08:26:55.000Z</time>
      </trkpt>
      <trkpt lat="50.33681" lon="3.6296">
        <ele>95.8</ele>
        <time>2022-05-09T08:26:56.000Z</time>
      </trkpt>
      <trkpt lat="50.33681" lon="3.62944">
        <ele>95.5</ele>
        <time>2022-05-09T08:26:57.000Z</time>
      </trkpt>
      <trkpt lat="50.33681" lon="3.62934">
        <ele>95.3</ele>
        <time>2022-05-09T08:26:58.000Z</time>
      </trkpt>
      <trkpt lat="50.33681" lon="3.62919">
        <ele>95.1</ele>
        <time>2022-05-09T08:26:59.000Z</time>
      </trkpt>
      <trkpt lat="50.33681" lon="3.62909">
        <ele>94.9</ele>
        <time>2022-05-09T08:27:00.000Z</time>
      </trkpt>
      <trkpt lat="50.33681" lon="3.62898">
        <ele>94.7</ele>
        <time>2022-05-09T08:27:01.000Z</time>
      </trkpt>
      <trkpt lat="50.33681" lon="3.62884">
        <ele>94.4</ele>
        <time>2022-05-09T08:27:02.000Z</time>
      </trkpt>
      <trkpt lat="50.33681" lon="3.62873">
        <ele>93.9</ele>
        <time>2022-05-09T08:27:03.000Z</time>
      </trkpt>
      <trkpt lat="50.33682" lon="3.62862">
        <ele>93.6</ele>
        <time>2022-05-09T08:27:04.000Z</time>
      </trkpt>
      <trkpt lat="50.33683" lon="3.62851">
        <ele>93.4</ele>
        <time>2022-05-09T08:27:05.000Z</time>
      </trkpt>
      <trkpt lat="50.33685" lon="3.62838">
        <ele>93.1</ele>
        <time>2022-05-09T08:27:06.000Z</time>
      </trkpt>
      <trkpt lat="50.33687" lon="3.62829">
        <ele>92.8</ele>
        <time>2022-05-09T08:27:07.000Z</time>
      </trkpt>
      <trkpt lat="50.33688" lon="3.62817">
        <ele>92.4</ele>
        <time>2022-05-09T08:27:08.000Z</time>
      </trkpt>
      <trkpt lat="50.33689" lon="3.62809">
        <ele>92.1</ele>
        <time>2022-05-09T08:27:09.000Z</time>
      </trkpt>
      <trkpt lat="50.33691" lon="3.628">
        <ele>92</ele>
        <time>2022-05-09T08:27:10.000Z</time>
      </trkpt>
      <trkpt lat="50.33694" lon="3.62789">
        <ele>92</ele>
        <time>2022-05-09T08:27:11.000Z</time>
      </trkpt>
      <trkpt lat="50.33695" lon="3.62781">
        <ele>92</ele>
        <time>2022-05-09T08:27:12.000Z</time>
      </trkpt>
      <trkpt lat="50.33698" lon="3.6277">
        <ele>91.7</ele>
        <time>2022-05-09T08:27:13.000Z</time>
      </trkpt>
      <trkpt lat="50.33699" lon="3.62761">
        <ele>91.4</ele>
        <time>2022-05-09T08:27:14.000Z</time>
      </trkpt>
      <trkpt lat="50.33701" lon="3.62753">
        <ele>91.1</ele>
        <time>2022-05-09T08:27:15.000Z</time>
      </trkpt>
      <trkpt lat="50.33703" lon="3.62745">
        <ele>90.9</ele>
        <time>2022-05-09T08:27:16.000Z</time>
      </trkpt>
      <trkpt lat="50.33705" lon="3.62734">
        <ele>90.8</ele>
        <time>2022-05-09T08:27:17.000Z</time>
      </trkpt>
      <trkpt lat="50.33706" lon="3.62727">
        <ele>90.7</ele>
        <time>2022-05-09T08:27:18.000Z</time>
      </trkpt>
      <trkpt lat="50.33708" lon="3.62719">
        <ele>90.5</ele>
        <time>2022-05-09T08:27:19.000Z</time>
      </trkpt>
      <trkpt lat="50.3371" lon="3.62709">
        <ele>90.2</ele>
        <time>2022-05-09T08:27:20.000Z</time>
      </trkpt>
      <trkpt lat="50.33712" lon="3.62701">
        <ele>90.1</ele>
        <time>2022-05-09T08:27:21.000Z</time>
      </trkpt>
      <trkpt lat="50.33714" lon="3.62694">
        <ele>90</ele>
        <time>2022-05-09T08:27:22.000Z</time>
      </trkpt>
      <trkpt lat="50.33715" lon="3.62686">
        <ele>90</ele>
        <time>2022-05-09T08:27:23.000Z</time>
      </trkpt>
      <trkpt lat="50.33717" lon="3.62677">
        <ele>90</ele>
        <time>2022-05-09T08:27:24.000Z</time>
      </trkpt>
      <trkpt lat="50.33719" lon="3.6267">
        <ele>90</ele>
        <time>2022-05-09T08:27:25.000Z</time>
      </trkpt>
      <trkpt lat="50.3372" lon="3.62661">
        <ele>90</ele>
        <time>2022-05-09T08:27:26.000Z</time>
      </trkpt>
      <trkpt lat="50.33722" lon="3.62654">
        <ele>90</ele>
        <time>2022-05-09T08:27:27.000Z</time>
      </trkpt>
      <trkpt lat="50.33724" lon="3.62646">
        <ele>90</ele>
        <time>2022-05-09T08:27:28.000Z</time>
      </trkpt>
      <trkpt lat="50.33725" lon="3.62638">
        <ele>89.9</ele>
        <time>2022-05-09T08:27:29.000Z</time>
      </trkpt>
      <trkpt lat="50.33727" lon="3.6263">
        <ele>89.8</ele>
        <time>2022-05-09T08:27:30.000Z</time>
      </trkpt>
      <trkpt lat="50.33729" lon="3.62621">
        <ele>89.8</ele>
        <time>2022-05-09T08:27:31.000Z</time>
      </trkpt>
      <trkpt lat="50.3373" lon="3.62611">
        <ele>89.7</ele>
        <time>2022-05-09T08:27:32.000Z</time>
      </trkpt>
      <trkpt lat="50.33732" lon="3.62604">
        <ele>89.7</ele>
        <time>2022-05-09T08:27:33.000Z</time>
      </trkpt>
      <trkpt lat="50.33733" lon="3.62597">
        <ele>89.6</ele>
        <time>2022-05-09T08:27:34.000Z</time>
      </trkpt>
      <trkpt lat="50.33734" lon="3.62588">
        <ele>89.6</ele>
        <time>2022-05-09T08:27:35.000Z</time>
      </trkpt>
      <trkpt lat="50.33736" lon="3.62574">
        <ele>89.5</ele>
        <time>2022-05-09T08:27:37.000Z</time>
      </trkpt>
      <trkpt lat="50.33737" lon="3.62561">
        <ele>89.5</ele>
        <time>2022-05-09T08:27:39.000Z</time>
      </trkpt>
      <trkpt lat="50.33738" lon="3.62554">
        <ele>89.4</ele>
        <time>2022-05-09T08:27:40.000Z</time>
      </trkpt>
      <trkpt lat="50.33739" lon="3.62546">
        <ele>89.4</ele>
        <time>2022-05-09T08:27:41.000Z</time>
      </trkpt>
      <trkpt lat="50.33741" lon="3.62535">
        <ele>89.3</ele>
        <time>2022-05-09T08:27:43.000Z</time>
      </trkpt>
      <trkpt lat="50.33742" lon="3.62526">
        <ele>89.3</ele>
        <time>2022-05-09T08:27:44.000Z</time>
      </trkpt>
      <trkpt lat="50.33744" lon="3.62516">
        <ele>89.6</ele>
        <time>2022-05-09T08:27:46.000Z</time>
      </trkpt>
      <trkpt lat="50.33745" lon="3.62508">
        <ele>89.8</ele>
        <time>2022-05-09T08:27:47.000Z</time>
      </trkpt>
      <trkpt lat="50.33746" lon="3.62495">
        <ele>90</ele>
        <time>2022-05-09T08:27:49.000Z</time>
      </trkpt>
      <trkpt lat="50.33747" lon="3.62487">
        <ele>90</ele>
        <time>2022-05-09T08:27:50.000Z</time>
      </trkpt>
      <trkpt lat="50.33748" lon="3.62475">
        <ele>90</ele>
        <time>2022-05-09T08:27:52.000Z</time>
      </trkpt>
      <trkpt lat="50.33748" lon="3.62466">
        <ele>90</ele>
        <time>2022-05-09T08:27:53.000Z</time>
      </trkpt>
      <trkpt lat="50.33749" lon="3.62457">
        <ele>90</ele>
        <time>2022-05-09T08:27:55.000Z</time>
      </trkpt>
      <trkpt lat="50.3375" lon="3.62449">
        <ele>90</ele>
        <time>2022-05-09T08:27:56.082Z</time>
      </trkpt>
      <trkpt lat="50.33751" lon="3.62437">
        <ele>90</ele>
        <time>2022-05-09T08:27:58.000Z</time>
      </trkpt>
      <trkpt lat="50.33752" lon="3.62424">
        <ele>90.1</ele>
        <time>2022-05-09T08:28:00.000Z</time>
      </trkpt>
      <trkpt lat="50.33752" lon="3.62416">
        <ele>90.1</ele>
        <time>2022-05-09T08:28:02.114Z</time>
      </trkpt>
      <trkpt lat="50.33753" lon="3.62408">
        <ele>90.4</ele>
        <time>2022-05-09T08:28:03.634Z</time>
      </trkpt>
      <trkpt lat="50.33754" lon="3.62395">
        <ele>90.8</ele>
        <time>2022-05-09T08:28:06.000Z</time>
      </trkpt>
      <trkpt lat="50.33755" lon="3.62386">
        <ele>91</ele>
        <time>2022-05-09T08:28:08.063Z</time>
      </trkpt>
      <trkpt lat="50.33755" lon="3.62378">
        <ele>91.1</ele>
        <time>2022-05-09T08:28:10.000Z</time>
      </trkpt>
      <trkpt lat="50.33756" lon="3.62369">
        <ele>91.1</ele>
        <time>2022-05-09T08:28:12.000Z</time>
      </trkpt>
      <trkpt lat="50.33757" lon="3.62361">
        <ele>91.2</ele>
        <time>2022-05-09T08:28:14.000Z</time>
      </trkpt>
      <trkpt lat="50.33757" lon="3.62354">
        <ele>91.3</ele>
        <time>2022-05-09T08:28:16.000Z</time>
      </trkpt>
      <trkpt lat="50.33757" lon="3.62342">
        <ele>91.4</ele>
        <time>2022-05-09T08:28:18.000Z</time>
      </trkpt>
      <trkpt lat="50.33757" lon="3.62333">
        <ele>91.5</ele>
        <time>2022-05-09T08:28:20.422Z</time>
      </trkpt>
      <trkpt lat="50.33757" lon="3.62324">
        <ele>91.8</ele>
        <time>2022-05-09T08:28:23.000Z</time>
      </trkpt>
      <trkpt lat="50.33758" lon="3.62314">
        <ele>92.1</ele>
        <time>2022-05-09T08:28:25.000Z</time>
      </trkpt>
      <trkpt lat="50.33759" lon="3.62304">
        <ele>92.4</ele>
        <time>2022-05-09T08:28:27.543Z</time>
      </trkpt>
      <trkpt lat="50.33758" lon="3.62296">
        <ele>92.6</ele>
        <time>2022-05-09T08:28:29.067Z</time>
      </trkpt>
      <trkpt lat="50.33758" lon="3.62289">
        <ele>92.9</ele>
        <time>2022-05-09T08:28:30.943Z</time>
      </trkpt>
      <trkpt lat="50.33759" lon="3.62279">
        <ele>93.3</ele>
        <time>2022-05-09T08:28:34.000Z</time>
      </trkpt>
      <trkpt lat="50.3376" lon="3.62271">
        <ele>93.4</ele>
        <time>2022-05-09T08:28:36.000Z</time>
      </trkpt>
      <trkpt lat="50.33761" lon="3.62263">
        <ele>93.4</ele>
        <time>2022-05-09T08:28:38.000Z</time>
      </trkpt>
      <trkpt lat="50.33762" lon="3.62256">
        <ele>93.4</ele>
        <time>2022-05-09T08:28:40.000Z</time>
      </trkpt>
      <trkpt lat="50.33763" lon="3.62248">
        <ele>93.5</ele>
        <time>2022-05-09T08:28:41.926Z</time>
      </trkpt>
      <trkpt lat="50.33763" lon="3.6224">
        <ele>93.7</ele>
        <time>2022-05-09T08:28:44.004Z</time>
      </trkpt>
      <trkpt lat="50.33766" lon="3.62231">
        <ele>93.9</ele>
        <time>2022-05-09T08:28:46.507Z</time>
      </trkpt>
      <trkpt lat="50.33768" lon="3.62222">
        <ele>94</ele>
        <time>2022-05-09T08:28:49.000Z</time>
      </trkpt>
      <trkpt lat="50.3377" lon="3.62215">
        <ele>94.1</ele>
        <time>2022-05-09T08:28:51.000Z</time>
      </trkpt>
      <trkpt lat="50.33772" lon="3.62208">
        <ele>94.1</ele>
        <time>2022-05-09T08:28:53.000Z</time>
      </trkpt>
      <trkpt lat="50.33776" lon="3.62199">
        <ele>94.1</ele>
        <time>2022-05-09T08:28:55.986Z</time>
      </trkpt>
      <trkpt lat="50.33779" lon="3.62193">
        <ele>94.1</ele>
        <time>2022-05-09T08:28:58.000Z</time>
      </trkpt>
      <trkpt lat="50.33782" lon="3.62187">
        <ele>94.5</ele>
        <time>2022-05-09T08:29:00.000Z</time>
      </trkpt>
      <trkpt lat="50.33786" lon="3.62175">
        <ele>95.1</ele>
        <time>2022-05-09T08:29:03.745Z</time>
      </trkpt>
      <trkpt lat="50.33789" lon="3.62165">
        <ele>95.5</ele>
        <time>2022-05-09T08:29:06.165Z</time>
      </trkpt>
      <trkpt lat="50.33792" lon="3.62156">
        <ele>95.7</ele>
        <time>2022-05-09T08:29:09.000Z</time>
      </trkpt>
      <trkpt lat="50.33794" lon="3.62149">
        <ele>95.8</ele>
        <time>2022-05-09T08:29:11.000Z</time>
      </trkpt>
      <trkpt lat="50.33797" lon="3.62139">
        <ele>96</ele>
        <time>2022-05-09T08:29:14.000Z</time>
      </trkpt>
      <trkpt lat="50.338" lon="3.62132">
        <ele>96.1</ele>
        <time>2022-05-09T08:29:17.000Z</time>
      </trkpt>
      <trkpt lat="50.33803" lon="3.62124">
        <ele>96.1</ele>
        <time>2022-05-09T08:29:19.168Z</time>
      </trkpt>
      <trkpt lat="50.33806" lon="3.62116">
        <ele>96</ele>
        <time>2022-05-09T08:29:22.000Z</time>
      </trkpt>
      <trkpt lat="50.33807" lon="3.62109">
        <ele>96.2</ele>
        <time>2022-05-09T08:29:24.000Z</time>
      </trkpt>
      <trkpt lat="50.3381" lon="3.62099">
        <ele>96.7</ele>
        <time>2022-05-09T08:29:27.000Z</time>
      </trkpt>
      <trkpt lat="50.33812" lon="3.62091">
        <ele>97</ele>
        <time>2022-05-09T08:29:30.000Z</time>
      </trkpt>
      <trkpt lat="50.33816" lon="3.6208">
        <ele>97.4</ele>
        <time>2022-05-09T08:29:33.967Z</time>
      </trkpt>
      <trkpt lat="50.33817" lon="3.62073">
        <ele>97.6</ele>
        <time>2022-05-09T08:29:36.000Z</time>
      </trkpt>
      <trkpt lat="50.33819" lon="3.62064">
        <ele>97.8</ele>
        <time>2022-05-09T08:29:38.000Z</time>
      </trkpt>
      <trkpt lat="50.33822" lon="3.62056">
        <ele>98</ele>
        <time>2022-05-09T08:29:40.000Z</time>
      </trkpt>
      <trkpt lat="50.33824" lon="3.62047">
        <ele>97.8</ele>
        <time>2022-05-09T08:29:43.125Z</time>
      </trkpt>
      <trkpt lat="50.33827" lon="3.62036">
        <ele>97.5</ele>
        <time>2022-05-09T08:29:46.062Z</time>
      </trkpt>
      <trkpt lat="50.33829" lon="3.62026">
        <ele>97.1</ele>
        <time>2022-05-09T08:29:48.000Z</time>
      </trkpt>
      <trkpt lat="50.33831" lon="3.62017">
        <ele>96.7</ele>
        <time>2022-05-09T08:29:51.000Z</time>
      </trkpt>
      <trkpt lat="50.33834" lon="3.62005">
        <ele>96.2</ele>
        <time>2022-05-09T08:29:53.451Z</time>
      </trkpt>
      <trkpt lat="50.33835" lon="3.61996">
        <ele>96</ele>
        <time>2022-05-09T08:29:55.000Z</time>
      </trkpt>
      <trkpt lat="50.33838" lon="3.61985">
        <ele>96.1</ele>
        <time>2022-05-09T08:29:57.000Z</time>
      </trkpt>
      <trkpt lat="50.33839" lon="3.61974">
        <ele>96</ele>
        <time>2022-05-09T08:29:59.000Z</time>
      </trkpt>
      <trkpt lat="50.33841" lon="3.61963">
        <ele>96</ele>
        <time>2022-05-09T08:30:00.000Z</time>
      </trkpt>
      <trkpt lat="50.33844" lon="3.61952">
        <ele>96</ele>
        <time>2022-05-09T08:30:02.000Z</time>
      </trkpt>
      <trkpt lat="50.33845" lon="3.61945">
        <ele>96</ele>
        <time>2022-05-09T08:30:03.000Z</time>
      </trkpt>
      <trkpt lat="50.33847" lon="3.61937">
        <ele>95.7</ele>
        <time>2022-05-09T08:30:04.000Z</time>
      </trkpt>
      <trkpt lat="50.3385" lon="3.61922">
        <ele>95.2</ele>
        <time>2022-05-09T08:30:06.000Z</time>
      </trkpt>
      <trkpt lat="50.33852" lon="3.61913">
        <ele>94.8</ele>
        <time>2022-05-09T08:30:07.000Z</time>
      </trkpt>
      <trkpt lat="50.33853" lon="3.61905">
        <ele>94.3</ele>
        <time>2022-05-09T08:30:08.000Z</time>
      </trkpt>
      <trkpt lat="50.33855" lon="3.61897">
        <ele>93.7</ele>
        <time>2022-05-09T08:30:09.000Z</time>
      </trkpt>
      <trkpt lat="50.33857" lon="3.61886">
        <ele>93.2</ele>
        <time>2022-05-09T08:30:10.000Z</time>
      </trkpt>
      <trkpt lat="50.33858" lon="3.61878">
        <ele>93.1</ele>
        <time>2022-05-09T08:30:11.000Z</time>
      </trkpt>
      <trkpt lat="50.33859" lon="3.61867">
        <ele>93.1</ele>
        <time>2022-05-09T08:30:12.000Z</time>
      </trkpt>
      <trkpt lat="50.33861" lon="3.61858">
        <ele>92.9</ele>
        <time>2022-05-09T08:30:13.000Z</time>
      </trkpt>
      <trkpt lat="50.33862" lon="3.61849">
        <ele>92.6</ele>
        <time>2022-05-09T08:30:14.000Z</time>
      </trkpt>
      <trkpt lat="50.33864" lon="3.6184">
        <ele>92.3</ele>
        <time>2022-05-09T08:30:15.000Z</time>
      </trkpt>
      <trkpt lat="50.33866" lon="3.61828">
        <ele>92</ele>
        <time>2022-05-09T08:30:16.000Z</time>
      </trkpt>
      <trkpt lat="50.33867" lon="3.6182">
        <ele>91.7</ele>
        <time>2022-05-09T08:30:17.000Z</time>
      </trkpt>
      <trkpt lat="50.33868" lon="3.61809">
        <ele>91.4</ele>
        <time>2022-05-09T08:30:18.000Z</time>
      </trkpt>
      <trkpt lat="50.3387" lon="3.61799">
        <ele>91.2</ele>
        <time>2022-05-09T08:30:19.000Z</time>
      </trkpt>
      <trkpt lat="50.33871" lon="3.6179">
        <ele>91.2</ele>
        <time>2022-05-09T08:30:20.000Z</time>
      </trkpt>
      <trkpt lat="50.33873" lon="3.61782">
        <ele>91.1</ele>
        <time>2022-05-09T08:30:21.000Z</time>
      </trkpt>
      <trkpt lat="50.33874" lon="3.61771">
        <ele>90.9</ele>
        <time>2022-05-09T08:30:22.000Z</time>
      </trkpt>
      <trkpt lat="50.33876" lon="3.61763">
        <ele>90.7</ele>
        <time>2022-05-09T08:30:23.000Z</time>
      </trkpt>
      <trkpt lat="50.33878" lon="3.61751">
        <ele>90.4</ele>
        <time>2022-05-09T08:30:24.000Z</time>
      </trkpt>
      <trkpt lat="50.3388" lon="3.61741">
        <ele>90</ele>
        <time>2022-05-09T08:30:25.000Z</time>
      </trkpt>
      <trkpt lat="50.33882" lon="3.61731">
        <ele>89.6</ele>
        <time>2022-05-09T08:30:26.000Z</time>
      </trkpt>
      <trkpt lat="50.33884" lon="3.61717">
        <ele>89.2</ele>
        <time>2022-05-09T08:30:27.000Z</time>
      </trkpt>
      <trkpt lat="50.33886" lon="3.61707">
        <ele>89.1</ele>
        <time>2022-05-09T08:30:28.000Z</time>
      </trkpt>
      <trkpt lat="50.33887" lon="3.61699">
        <ele>89.1</ele>
        <time>2022-05-09T08:30:29.000Z</time>
      </trkpt>
      <trkpt lat="50.33889" lon="3.6169">
        <ele>89</ele>
        <time>2022-05-09T08:30:30.000Z</time>
      </trkpt>
      <trkpt lat="50.33891" lon="3.61678">
        <ele>88.9</ele>
        <time>2022-05-09T08:30:31.000Z</time>
      </trkpt>
      <trkpt lat="50.33892" lon="3.6167">
        <ele>88.9</ele>
        <time>2022-05-09T08:30:32.000Z</time>
      </trkpt>
      <trkpt lat="50.33894" lon="3.61658">
        <ele>88.8</ele>
        <time>2022-05-09T08:30:33.000Z</time>
      </trkpt>
      <trkpt lat="50.33895" lon="3.61651">
        <ele>88.8</ele>
        <time>2022-05-09T08:30:34.000Z</time>
      </trkpt>
      <trkpt lat="50.33896" lon="3.61642">
        <ele>88.7</ele>
        <time>2022-05-09T08:30:35.000Z</time>
      </trkpt>
      <trkpt lat="50.33898" lon="3.61629">
        <ele>88.4</ele>
        <time>2022-05-09T08:30:36.000Z</time>
      </trkpt>
      <trkpt lat="50.33899" lon="3.61621">
        <ele>88.2</ele>
        <time>2022-05-09T08:30:37.000Z</time>
      </trkpt>
      <trkpt lat="50.33901" lon="3.61611">
        <ele>88</ele>
        <time>2022-05-09T08:30:38.000Z</time>
      </trkpt>
      <trkpt lat="50.33903" lon="3.61596">
        <ele>87.7</ele>
        <time>2022-05-09T08:30:40.000Z</time>
      </trkpt>
      <trkpt lat="50.33905" lon="3.61586">
        <ele>87.5</ele>
        <time>2022-05-09T08:30:41.000Z</time>
      </trkpt>
      <trkpt lat="50.33907" lon="3.61571">
        <ele>87.6</ele>
        <time>2022-05-09T08:30:43.000Z</time>
      </trkpt>
      <trkpt lat="50.33909" lon="3.6156">
        <ele>87.9</ele>
        <time>2022-05-09T08:30:44.000Z</time>
      </trkpt>
      <trkpt lat="50.3391" lon="3.61553">
        <ele>88</ele>
        <time>2022-05-09T08:30:45.000Z</time>
      </trkpt>
      <trkpt lat="50.33911" lon="3.61546">
        <ele>88</ele>
        <time>2022-05-09T08:30:46.000Z</time>
      </trkpt>
      <trkpt lat="50.33912" lon="3.61538">
        <ele>88</ele>
        <time>2022-05-09T08:30:47.000Z</time>
      </trkpt>
      <trkpt lat="50.33913" lon="3.61527">
        <ele>88</ele>
        <time>2022-05-09T08:30:48.000Z</time>
      </trkpt>
      <trkpt lat="50.33916" lon="3.61514">
        <ele>88</ele>
        <time>2022-05-09T08:30:50.000Z</time>
      </trkpt>
      <trkpt lat="50.33918" lon="3.61506">
        <ele>88</ele>
        <time>2022-05-09T08:30:51.000Z</time>
      </trkpt>
      <trkpt lat="50.3392" lon="3.61493">
        <ele>88.1</ele>
        <time>2022-05-09T08:30:53.000Z</time>
      </trkpt>
      <trkpt lat="50.33921" lon="3.61485">
        <ele>88.4</ele>
        <time>2022-05-09T08:30:54.000Z</time>
      </trkpt>
      <trkpt lat="50.33923" lon="3.61475">
        <ele>88.7</ele>
        <time>2022-05-09T08:30:56.000Z</time>
      </trkpt>
      <trkpt lat="50.33925" lon="3.61461">
        <ele>88.8</ele>
        <time>2022-05-09T08:30:58.000Z</time>
      </trkpt>
      <trkpt lat="50.33927" lon="3.61451">
        <ele>88.9</ele>
        <time>2022-05-09T08:31:00.000Z</time>
      </trkpt>
      <trkpt lat="50.33929" lon="3.61444">
        <ele>89</ele>
        <time>2022-05-09T08:31:01.000Z</time>
      </trkpt>
      <trkpt lat="50.3393" lon="3.61432">
        <ele>89.2</ele>
        <time>2022-05-09T08:31:03.000Z</time>
      </trkpt>
      <trkpt lat="50.33932" lon="3.61422">
        <ele>89.4</ele>
        <time>2022-05-09T08:31:05.000Z</time>
      </trkpt>
      <trkpt lat="50.33933" lon="3.61415">
        <ele>89.4</ele>
        <time>2022-05-09T08:31:06.000Z</time>
      </trkpt>
      <trkpt lat="50.33936" lon="3.61405">
        <ele>89.3</ele>
        <time>2022-05-09T08:31:07.903Z</time>
      </trkpt>
      <trkpt lat="50.33937" lon="3.61394">
        <ele>89.3</ele>
        <time>2022-05-09T08:31:10.001Z</time>
      </trkpt>
      <trkpt lat="50.3394" lon="3.6138">
        <ele>89.2</ele>
        <time>2022-05-09T08:31:12.000Z</time>
      </trkpt>
      <trkpt lat="50.33942" lon="3.6137">
        <ele>89.2</ele>
        <time>2022-05-09T08:31:14.281Z</time>
      </trkpt>
      <trkpt lat="50.33943" lon="3.61361">
        <ele>89.1</ele>
        <time>2022-05-09T08:31:15.763Z</time>
      </trkpt>
      <trkpt lat="50.33943" lon="3.61353">
        <ele>89.1</ele>
        <time>2022-05-09T08:31:18.000Z</time>
      </trkpt>
      <trkpt lat="50.33944" lon="3.61346">
        <ele>89</ele>
        <time>2022-05-09T08:31:20.000Z</time>
      </trkpt>
      <trkpt lat="50.33945" lon="3.61338">
        <ele>89</ele>
        <time>2022-05-09T08:31:21.000Z</time>
      </trkpt>
      <trkpt lat="50.33946" lon="3.61327">
        <ele>89</ele>
        <time>2022-05-09T08:31:23.000Z</time>
      </trkpt>
      <trkpt lat="50.33947" lon="3.61319">
        <ele>89</ele>
        <time>2022-05-09T08:31:24.801Z</time>
      </trkpt>
      <trkpt lat="50.33948" lon="3.6131">
        <ele>89</ele>
        <time>2022-05-09T08:31:26.021Z</time>
      </trkpt>
      <trkpt lat="50.33949" lon="3.613">
        <ele>89.2</ele>
        <time>2022-05-09T08:31:27.903Z</time>
      </trkpt>
      <trkpt lat="50.3395" lon="3.61292">
        <ele>89.5</ele>
        <time>2022-05-09T08:31:29.122Z</time>
      </trkpt>
      <trkpt lat="50.33951" lon="3.61285">
        <ele>89.7</ele>
        <time>2022-05-09T08:31:30.921Z</time>
      </trkpt>
      <trkpt lat="50.33951" lon="3.61277">
        <ele>90</ele>
        <time>2022-05-09T08:31:32.000Z</time>
      </trkpt>
      <trkpt lat="50.33952" lon="3.6127">
        <ele>89.8</ele>
        <time>2022-05-09T08:31:34.063Z</time>
      </trkpt>
      <trkpt lat="50.33952" lon="3.61259">
        <ele>89.5</ele>
        <time>2022-05-09T08:31:36.000Z</time>
      </trkpt>
      <trkpt lat="50.33954" lon="3.61244">
        <ele>89.1</ele>
        <time>2022-05-09T08:31:38.000Z</time>
      </trkpt>
      <trkpt lat="50.33955" lon="3.61234">
        <ele>88.8</ele>
        <time>2022-05-09T08:31:40.141Z</time>
      </trkpt>
      <trkpt lat="50.33956" lon="3.61218">
        <ele>88.3</ele>
        <time>2022-05-09T08:31:42.200Z</time>
      </trkpt>
      <trkpt lat="50.33957" lon="3.612">
        <ele>88.1</ele>
        <time>2022-05-09T08:31:45.140Z</time>
      </trkpt>
      <trkpt lat="50.33957" lon="3.61193">
        <ele>88</ele>
        <time>2022-05-09T08:31:46.523Z</time>
      </trkpt>
      <trkpt lat="50.33959" lon="3.61181">
        <ele>88</ele>
        <time>2022-05-09T08:31:48.040Z</time>
      </trkpt>
      <trkpt lat="50.33962" lon="3.61163">
        <ele>88</ele>
        <time>2022-05-09T08:31:50.983Z</time>
      </trkpt>
      <trkpt lat="50.33963" lon="3.61151">
        <ele>88</ele>
        <time>2022-05-09T08:31:53.043Z</time>
      </trkpt>
      <trkpt lat="50.33964" lon="3.61142">
        <ele>88</ele>
        <time>2022-05-09T08:31:54.000Z</time>
      </trkpt>
      <trkpt lat="50.33965" lon="3.61133">
        <ele>88.1</ele>
        <time>2022-05-09T08:31:55.381Z</time>
      </trkpt>
      <trkpt lat="50.33966" lon="3.61125">
        <ele>88.1</ele>
        <time>2022-05-09T08:31:56.529Z</time>
      </trkpt>
      <trkpt lat="50.33966" lon="3.61116">
        <ele>88.2</ele>
        <time>2022-05-09T08:31:57.961Z</time>
      </trkpt>
      <trkpt lat="50.33969" lon="3.61101">
        <ele>88.1</ele>
        <time>2022-05-09T08:32:00.000Z</time>
      </trkpt>
      <trkpt lat="50.33971" lon="3.61092">
        <ele>88.1</ele>
        <time>2022-05-09T08:32:01.144Z</time>
      </trkpt>
      <trkpt lat="50.33974" lon="3.61078">
        <ele>88</ele>
        <time>2022-05-09T08:32:03.760Z</time>
      </trkpt>
      <trkpt lat="50.33976" lon="3.61066">
        <ele>87.9</ele>
        <time>2022-05-09T08:32:06.000Z</time>
      </trkpt>
      <trkpt lat="50.33978" lon="3.61056">
        <ele>87.8</ele>
        <time>2022-05-09T08:32:08.000Z</time>
      </trkpt>
      <trkpt lat="50.33979" lon="3.61048">
        <ele>87.6</ele>
        <time>2022-05-09T08:32:09.000Z</time>
      </trkpt>
      <trkpt lat="50.3398" lon="3.6104">
        <ele>87.3</ele>
        <time>2022-05-09T08:32:10.000Z</time>
      </trkpt>
      <trkpt lat="50.33981" lon="3.61032">
        <ele>87.1</ele>
        <time>2022-05-09T08:32:11.000Z</time>
      </trkpt>
      <trkpt lat="50.33983" lon="3.61018">
        <ele>87.2</ele>
        <time>2022-05-09T08:32:13.000Z</time>
      </trkpt>
      <trkpt lat="50.33985" lon="3.61">
        <ele>87.5</ele>
        <time>2022-05-09T08:32:15.000Z</time>
      </trkpt>
      <trkpt lat="50.33989" lon="3.60985">
        <ele>87.1</ele>
        <time>2022-05-09T08:32:18.000Z</time>
      </trkpt>
      <trkpt lat="50.33991" lon="3.60969">
        <ele>86.7</ele>
        <time>2022-05-09T08:32:19.963Z</time>
      </trkpt>
      <trkpt lat="50.33991" lon="3.6096">
        <ele>86.6</ele>
        <time>2022-05-09T08:32:22.000Z</time>
      </trkpt>
      <trkpt lat="50.33995" lon="3.60942">
        <ele>86.4</ele>
        <time>2022-05-09T08:32:24.000Z</time>
      </trkpt>
      <trkpt lat="50.33996" lon="3.60931">
        <ele>86.3</ele>
        <time>2022-05-09T08:32:25.858Z</time>
      </trkpt>
      <trkpt lat="50.33998" lon="3.6092">
        <ele>86.2</ele>
        <time>2022-05-09T08:32:27.000Z</time>
      </trkpt>
      <trkpt lat="50.33999" lon="3.6091">
        <ele>86.1</ele>
        <time>2022-05-09T08:32:29.000Z</time>
      </trkpt>
      <trkpt lat="50.34" lon="3.60903">
        <ele>86</ele>
        <time>2022-05-09T08:32:30.000Z</time>
      </trkpt>
      <trkpt lat="50.34001" lon="3.60889">
        <ele>86</ele>
        <time>2022-05-09T08:32:32.000Z</time>
      </trkpt>
      <trkpt lat="50.34002" lon="3.60876">
        <ele>85.9</ele>
        <time>2022-05-09T08:32:34.000Z</time>
      </trkpt>
      <trkpt lat="50.34004" lon="3.60865">
        <ele>85.9</ele>
        <time>2022-05-09T08:32:35.000Z</time>
      </trkpt>
      <trkpt lat="50.34005" lon="3.60853">
        <ele>86.1</ele>
        <time>2022-05-09T08:32:37.000Z</time>
      </trkpt>
      <trkpt lat="50.34007" lon="3.60841">
        <ele>86.3</ele>
        <time>2022-05-09T08:32:39.000Z</time>
      </trkpt>
      <trkpt lat="50.34008" lon="3.60834">
        <ele>86.4</ele>
        <time>2022-05-09T08:32:40.000Z</time>
      </trkpt>
      <trkpt lat="50.34009" lon="3.60824">
        <ele>86.5</ele>
        <time>2022-05-09T08:32:41.028Z</time>
      </trkpt>
      <trkpt lat="50.3401" lon="3.60813">
        <ele>86.5</ele>
        <time>2022-05-09T08:32:43.000Z</time>
      </trkpt>
      <trkpt lat="50.3401" lon="3.60799">
        <ele>86.6</ele>
        <time>2022-05-09T08:32:45.000Z</time>
      </trkpt>
      <trkpt lat="50.3401" lon="3.60785">
        <ele>86.7</ele>
        <time>2022-05-09T08:32:47.000Z</time>
      </trkpt>
      <trkpt lat="50.34009" lon="3.60775">
        <ele>86.7</ele>
        <time>2022-05-09T08:32:48.000Z</time>
      </trkpt>
      <trkpt lat="50.34009" lon="3.60767">
        <ele>86.8</ele>
        <time>2022-05-09T08:32:49.000Z</time>
      </trkpt>
      <trkpt lat="50.34008" lon="3.6076">
        <ele>86.9</ele>
        <time>2022-05-09T08:32:50.000Z</time>
      </trkpt>
      <trkpt lat="50.34007" lon="3.60744">
        <ele>86.8</ele>
        <time>2022-05-09T08:32:52.000Z</time>
      </trkpt>
      <trkpt lat="50.34005" lon="3.60729">
        <ele>86.4</ele>
        <time>2022-05-09T08:32:54.000Z</time>
      </trkpt>
      <trkpt lat="50.34004" lon="3.60722">
        <ele>86.1</ele>
        <time>2022-05-09T08:32:55.000Z</time>
      </trkpt>
      <trkpt lat="50.34002" lon="3.60708">
        <ele>86.1</ele>
        <time>2022-05-09T08:32:57.000Z</time>
      </trkpt>
      <trkpt lat="50.34001" lon="3.60699">
        <ele>86</ele>
        <time>2022-05-09T08:32:58.000Z</time>
      </trkpt>
      <trkpt lat="50.34" lon="3.60692">
        <ele>85.9</ele>
        <time>2022-05-09T08:32:59.000Z</time>
      </trkpt>
      <trkpt lat="50.33999" lon="3.60683">
        <ele>85.7</ele>
        <time>2022-05-09T08:33:00.000Z</time>
      </trkpt>
      <trkpt lat="50.33998" lon="3.60675">
        <ele>85.5</ele>
        <time>2022-05-09T08:33:01.000Z</time>
      </trkpt>
      <trkpt lat="50.33996" lon="3.60665">
        <ele>85.4</ele>
        <time>2022-05-09T08:33:02.000Z</time>
      </trkpt>
      <trkpt lat="50.33996" lon="3.60657">
        <ele>85.7</ele>
        <time>2022-05-09T08:33:03.000Z</time>
      </trkpt>
      <trkpt lat="50.33995" lon="3.60649">
        <ele>86</ele>
        <time>2022-05-09T08:33:04.000Z</time>
      </trkpt>
      <trkpt lat="50.33994" lon="3.6064">
        <ele>86.2</ele>
        <time>2022-05-09T08:33:05.000Z</time>
      </trkpt>
      <trkpt lat="50.33993" lon="3.60629">
        <ele>86.3</ele>
        <time>2022-05-09T08:33:06.000Z</time>
      </trkpt>
      <trkpt lat="50.33992" lon="3.60621">
        <ele>86.3</ele>
        <time>2022-05-09T08:33:07.000Z</time>
      </trkpt>
      <trkpt lat="50.33992" lon="3.60612">
        <ele>86.3</ele>
        <time>2022-05-09T08:33:08.000Z</time>
      </trkpt>
      <trkpt lat="50.33992" lon="3.60601">
        <ele>86.3</ele>
        <time>2022-05-09T08:33:09.000Z</time>
      </trkpt>
      <trkpt lat="50.33992" lon="3.60593">
        <ele>86.3</ele>
        <time>2022-05-09T08:33:10.000Z</time>
      </trkpt>
      <trkpt lat="50.33992" lon="3.60583">
        <ele>86.3</ele>
        <time>2022-05-09T08:33:11.000Z</time>
      </trkpt>
      <trkpt lat="50.33994" lon="3.60575">
        <ele>86</ele>
        <time>2022-05-09T08:33:12.000Z</time>
      </trkpt>
      <trkpt lat="50.33994" lon="3.60564">
        <ele>85.7</ele>
        <time>2022-05-09T08:33:13.000Z</time>
      </trkpt>
      <trkpt lat="50.33996" lon="3.60557">
        <ele>85.4</ele>
        <time>2022-05-09T08:33:14.000Z</time>
      </trkpt>
      <trkpt lat="50.33998" lon="3.60548">
        <ele>84.6</ele>
        <time>2022-05-09T08:33:15.000Z</time>
      </trkpt>
      <trkpt lat="50.33999" lon="3.60539">
        <ele>83.9</ele>
        <time>2022-05-09T08:33:16.000Z</time>
      </trkpt>
      <trkpt lat="50.34" lon="3.60531">
        <ele>83.2</ele>
        <time>2022-05-09T08:33:17.000Z</time>
      </trkpt>
      <trkpt lat="50.34001" lon="3.60523">
        <ele>82.9</ele>
        <time>2022-05-09T08:33:18.000Z</time>
      </trkpt>
      <trkpt lat="50.34002" lon="3.60514">
        <ele>82.7</ele>
        <time>2022-05-09T08:33:19.000Z</time>
      </trkpt>
      <trkpt lat="50.34003" lon="3.60505">
        <ele>82.5</ele>
        <time>2022-05-09T08:33:20.000Z</time>
      </trkpt>
      <trkpt lat="50.34003" lon="3.60496">
        <ele>82.3</ele>
        <time>2022-05-09T08:33:21.000Z</time>
      </trkpt>
      <trkpt lat="50.34004" lon="3.60488">
        <ele>82.4</ele>
        <time>2022-05-09T08:33:22.000Z</time>
      </trkpt>
      <trkpt lat="50.34005" lon="3.60479">
        <ele>82.5</ele>
        <time>2022-05-09T08:33:23.000Z</time>
      </trkpt>
      <trkpt lat="50.34005" lon="3.60468">
        <ele>82.8</ele>
        <time>2022-05-09T08:33:24.000Z</time>
      </trkpt>
      <trkpt lat="50.34006" lon="3.60461">
        <ele>83.2</ele>
        <time>2022-05-09T08:33:25.000Z</time>
      </trkpt>
      <trkpt lat="50.34006" lon="3.6045">
        <ele>83.7</ele>
        <time>2022-05-09T08:33:26.000Z</time>
      </trkpt>
      <trkpt lat="50.34006" lon="3.60442">
        <ele>83.9</ele>
        <time>2022-05-09T08:33:27.000Z</time>
      </trkpt>
      <trkpt lat="50.34007" lon="3.60435">
        <ele>83.7</ele>
        <time>2022-05-09T08:33:28.000Z</time>
      </trkpt>
      <trkpt lat="50.34009" lon="3.60427">
        <ele>83.6</ele>
        <time>2022-05-09T08:33:29.000Z</time>
      </trkpt>
      <trkpt lat="50.34011" lon="3.60419">
        <ele>83.4</ele>
        <time>2022-05-09T08:33:30.000Z</time>
      </trkpt>
      <trkpt lat="50.34012" lon="3.60411">
        <ele>83.4</ele>
        <time>2022-05-09T08:33:31.000Z</time>
      </trkpt>
      <trkpt lat="50.34013" lon="3.60403">
        <ele>83.5</ele>
        <time>2022-05-09T08:33:32.000Z</time>
      </trkpt>
      <trkpt lat="50.34014" lon="3.60394">
        <ele>83.5</ele>
        <time>2022-05-09T08:33:33.000Z</time>
      </trkpt>
      <trkpt lat="50.34015" lon="3.60386">
        <ele>83.4</ele>
        <time>2022-05-09T08:33:34.000Z</time>
      </trkpt>
      <trkpt lat="50.34017" lon="3.60375">
        <ele>83</ele>
        <time>2022-05-09T08:33:35.000Z</time>
      </trkpt>
      <trkpt lat="50.34018" lon="3.60367">
        <ele>82.6</ele>
        <time>2022-05-09T08:33:36.000Z</time>
      </trkpt>
      <trkpt lat="50.3402" lon="3.60359">
        <ele>82.2</ele>
        <time>2022-05-09T08:33:37.000Z</time>
      </trkpt>
      <trkpt lat="50.34021" lon="3.60347">
        <ele>81.5</ele>
        <time>2022-05-09T08:33:38.000Z</time>
      </trkpt>
      <trkpt lat="50.34021" lon="3.60339">
        <ele>81</ele>
        <time>2022-05-09T08:33:39.000Z</time>
      </trkpt>
      <trkpt lat="50.34022" lon="3.60329">
        <ele>80.5</ele>
        <time>2022-05-09T08:33:40.000Z</time>
      </trkpt>
      <trkpt lat="50.34023" lon="3.60321">
        <ele>80.1</ele>
        <time>2022-05-09T08:33:41.000Z</time>
      </trkpt>
      <trkpt lat="50.34024" lon="3.60311">
        <ele>79.6</ele>
        <time>2022-05-09T08:33:42.000Z</time>
      </trkpt>
      <trkpt lat="50.34024" lon="3.60302">
        <ele>79.2</ele>
        <time>2022-05-09T08:33:43.000Z</time>
      </trkpt>
      <trkpt lat="50.34025" lon="3.60293">
        <ele>78.8</ele>
        <time>2022-05-09T08:33:44.000Z</time>
      </trkpt>
      <trkpt lat="50.34026" lon="3.60284">
        <ele>78.5</ele>
        <time>2022-05-09T08:33:45.000Z</time>
      </trkpt>
      <trkpt lat="50.34026" lon="3.60275">
        <ele>78.3</ele>
        <time>2022-05-09T08:33:46.000Z</time>
      </trkpt>
      <trkpt lat="50.34027" lon="3.60267">
        <ele>78.5</ele>
        <time>2022-05-09T08:33:47.000Z</time>
      </trkpt>
      <trkpt lat="50.34028" lon="3.60259">
        <ele>78.7</ele>
        <time>2022-05-09T08:33:48.000Z</time>
      </trkpt>
      <trkpt lat="50.3403" lon="3.60251">
        <ele>79.1</ele>
        <time>2022-05-09T08:33:49.000Z</time>
      </trkpt>
      <trkpt lat="50.34031" lon="3.60243">
        <ele>79.5</ele>
        <time>2022-05-09T08:33:50.000Z</time>
      </trkpt>
      <trkpt lat="50.34033" lon="3.60233">
        <ele>79.9</ele>
        <time>2022-05-09T08:33:51.000Z</time>
      </trkpt>
      <trkpt lat="50.34036" lon="3.60218">
        <ele>80.3</ele>
        <time>2022-05-09T08:33:53.000Z</time>
      </trkpt>
      <trkpt lat="50.34038" lon="3.60211">
        <ele>80.2</ele>
        <time>2022-05-09T08:33:54.000Z</time>
      </trkpt>
      <trkpt lat="50.3404" lon="3.60202">
        <ele>80.1</ele>
        <time>2022-05-09T08:33:55.000Z</time>
      </trkpt>
      <trkpt lat="50.34042" lon="3.60192">
        <ele>79.9</ele>
        <time>2022-05-09T08:33:56.000Z</time>
      </trkpt>
      <trkpt lat="50.34043" lon="3.60185">
        <ele>79.6</ele>
        <time>2022-05-09T08:33:57.000Z</time>
      </trkpt>
      <trkpt lat="50.34045" lon="3.60176">
        <ele>79.1</ele>
        <time>2022-05-09T08:33:58.000Z</time>
      </trkpt>
      <trkpt lat="50.34047" lon="3.60168">
        <ele>78.7</ele>
        <time>2022-05-09T08:33:59.000Z</time>
      </trkpt>
      <trkpt lat="50.34049" lon="3.60159">
        <ele>78.2</ele>
        <time>2022-05-09T08:34:00.000Z</time>
      </trkpt>
      <trkpt lat="50.34051" lon="3.60152">
        <ele>77.8</ele>
        <time>2022-05-09T08:34:01.000Z</time>
      </trkpt>
      <trkpt lat="50.34053" lon="3.60142">
        <ele>77.3</ele>
        <time>2022-05-09T08:34:02.000Z</time>
      </trkpt>
      <trkpt lat="50.34055" lon="3.60135">
        <ele>77</ele>
        <time>2022-05-09T08:34:03.000Z</time>
      </trkpt>
      <trkpt lat="50.34057" lon="3.60125">
        <ele>77.2</ele>
        <time>2022-05-09T08:34:04.000Z</time>
      </trkpt>
      <trkpt lat="50.34059" lon="3.60117">
        <ele>77.3</ele>
        <time>2022-05-09T08:34:05.000Z</time>
      </trkpt>
      <trkpt lat="50.34061" lon="3.60109">
        <ele>77.4</ele>
        <time>2022-05-09T08:34:06.000Z</time>
      </trkpt>
      <trkpt lat="50.34062" lon="3.60101">
        <ele>77.4</ele>
        <time>2022-05-09T08:34:07.000Z</time>
      </trkpt>
      <trkpt lat="50.34064" lon="3.60093">
        <ele>77.4</ele>
        <time>2022-05-09T08:34:08.000Z</time>
      </trkpt>
      <trkpt lat="50.34066" lon="3.60085">
        <ele>77.4</ele>
        <time>2022-05-09T08:34:09.000Z</time>
      </trkpt>
      <trkpt lat="50.34067" lon="3.60078">
        <ele>77.4</ele>
        <time>2022-05-09T08:34:10.000Z</time>
      </trkpt>
      <trkpt lat="50.34068" lon="3.6007">
        <ele>77.5</ele>
        <time>2022-05-09T08:34:11.000Z</time>
      </trkpt>
      <trkpt lat="50.3407" lon="3.60063">
        <ele>77.5</ele>
        <time>2022-05-09T08:34:12.000Z</time>
      </trkpt>
      <trkpt lat="50.34072" lon="3.60053">
        <ele>77.5</ele>
        <time>2022-05-09T08:34:13.000Z</time>
      </trkpt>
      <trkpt lat="50.34074" lon="3.60038">
        <ele>77.2</ele>
        <time>2022-05-09T08:34:15.000Z</time>
      </trkpt>
      <trkpt lat="50.34077" lon="3.60025">
        <ele>76.9</ele>
        <time>2022-05-09T08:34:17.000Z</time>
      </trkpt>
      <trkpt lat="50.34078" lon="3.60018">
        <ele>76.7</ele>
        <time>2022-05-09T08:34:18.000Z</time>
      </trkpt>
      <trkpt lat="50.34081" lon="3.60004">
        <ele>76.2</ele>
        <time>2022-05-09T08:34:20.000Z</time>
      </trkpt>
      <trkpt lat="50.34083" lon="3.59997">
        <ele>75.9</ele>
        <time>2022-05-09T08:34:21.000Z</time>
      </trkpt>
      <trkpt lat="50.34084" lon="3.59988">
        <ele>75.6</ele>
        <time>2022-05-09T08:34:22.000Z</time>
      </trkpt>
      <trkpt lat="50.34087" lon="3.59977">
        <ele>75.3</ele>
        <time>2022-05-09T08:34:24.000Z</time>
      </trkpt>
      <trkpt lat="50.34089" lon="3.59965">
        <ele>75.2</ele>
        <time>2022-05-09T08:34:26.000Z</time>
      </trkpt>
      <trkpt lat="50.34092" lon="3.59953">
        <ele>75.3</ele>
        <time>2022-05-09T08:34:28.000Z</time>
      </trkpt>
      <trkpt lat="50.34094" lon="3.59941">
        <ele>75.3</ele>
        <time>2022-05-09T08:34:30.000Z</time>
      </trkpt>
      <trkpt lat="50.34096" lon="3.59929">
        <ele>75.2</ele>
        <time>2022-05-09T08:34:32.415Z</time>
      </trkpt>
      <trkpt lat="50.34098" lon="3.59923">
        <ele>75.1</ele>
        <time>2022-05-09T08:34:33.635Z</time>
      </trkpt>
      <trkpt lat="50.34101" lon="3.59913">
        <ele>75</ele>
        <time>2022-05-09T08:34:35.000Z</time>
      </trkpt>
      <trkpt lat="50.34103" lon="3.59903">
        <ele>75.1</ele>
        <time>2022-05-09T08:34:37.000Z</time>
      </trkpt>
      <trkpt lat="50.34106" lon="3.59891">
        <ele>75.2</ele>
        <time>2022-05-09T08:34:39.000Z</time>
      </trkpt>
      <trkpt lat="50.3411" lon="3.59882">
        <ele>75.1</ele>
        <time>2022-05-09T08:34:41.000Z</time>
      </trkpt>
      <trkpt lat="50.34112" lon="3.59871">
        <ele>75</ele>
        <time>2022-05-09T08:34:43.000Z</time>
      </trkpt>
      <trkpt lat="50.34116" lon="3.59856">
        <ele>75.1</ele>
        <time>2022-05-09T08:34:45.055Z</time>
      </trkpt>
      <trkpt lat="50.34119" lon="3.59848">
        <ele>75.3</ele>
        <time>2022-05-09T08:34:46.532Z</time>
      </trkpt>
      <trkpt lat="50.3412" lon="3.59841">
        <ele>75.5</ele>
        <time>2022-05-09T08:34:47.570Z</time>
      </trkpt>
      <trkpt lat="50.34121" lon="3.59841">
        <ele>75.5</ele>
        <time>2022-05-09T08:34:47.733Z</time>
      </trkpt>
      <trkpt lat="50.34119" lon="3.5984">
        <ele>75.5</ele>
        <time>2022-05-09T08:34:51.421Z</time>
      </trkpt>
      <trkpt lat="50.34117" lon="3.59843">
        <ele>75.5</ele>
        <time>2022-05-09T08:34:55.000Z</time>
      </trkpt>
      <trkpt lat="50.34116" lon="3.59851">
        <ele>75.3</ele>
        <time>2022-05-09T08:34:57.000Z</time>
      </trkpt>
      <trkpt lat="50.34113" lon="3.5986">
        <ele>75</ele>
        <time>2022-05-09T08:34:59.654Z</time>
      </trkpt>
      <trkpt lat="50.34111" lon="3.59868">
        <ele>75</ele>
        <time>2022-05-09T08:35:02.014Z</time>
      </trkpt>
      <trkpt lat="50.3411" lon="3.59875">
        <ele>75.1</ele>
        <time>2022-05-09T08:35:03.428Z</time>
      </trkpt>
      <trkpt lat="50.34107" lon="3.59885">
        <ele>75.1</ele>
        <time>2022-05-09T08:35:05.000Z</time>
      </trkpt>
      <trkpt lat="50.34105" lon="3.59893">
        <ele>75.2</ele>
        <time>2022-05-09T08:35:07.000Z</time>
      </trkpt>
      <trkpt lat="50.34105" lon="3.59903">
        <ele>75.1</ele>
        <time>2022-05-09T08:35:08.000Z</time>
      </trkpt>
      <trkpt lat="50.34115" lon="3.59909">
        <ele>75</ele>
        <time>2022-05-09T08:35:11.000Z</time>
      </trkpt>
      <trkpt lat="50.34121" lon="3.59908">
        <ele>75</ele>
        <time>2022-05-09T08:35:12.551Z</time>
      </trkpt>
      <trkpt lat="50.34131" lon="3.59908">
        <ele>75</ele>
        <time>2022-05-09T08:35:14.994Z</time>
      </trkpt>
      <trkpt lat="50.3414" lon="3.59906">
        <ele>75</ele>
        <time>2022-05-09T08:35:17.000Z</time>
      </trkpt>
      <trkpt lat="50.34151" lon="3.59906">
        <ele>74.7</ele>
        <time>2022-05-09T08:35:19.000Z</time>
      </trkpt>
      <trkpt lat="50.34162" lon="3.59905">
        <ele>74.5</ele>
        <time>2022-05-09T08:35:22.000Z</time>
      </trkpt>
      <trkpt lat="50.34167" lon="3.59905">
        <ele>74.4</ele>
        <time>2022-05-09T08:35:23.000Z</time>
      </trkpt>
      <trkpt lat="50.34176" lon="3.59904">
        <ele>74.3</ele>
        <time>2022-05-09T08:35:25.000Z</time>
      </trkpt>
      <trkpt lat="50.34182" lon="3.59903">
        <ele>74.2</ele>
        <time>2022-05-09T08:35:26.000Z</time>
      </trkpt>
      <trkpt lat="50.3419" lon="3.59901">
        <ele>74.1</ele>
        <time>2022-05-09T08:35:28.000Z</time>
      </trkpt>
      <trkpt lat="50.34196" lon="3.599">
        <ele>74</ele>
        <time>2022-05-09T08:35:29.000Z</time>
      </trkpt>
      <trkpt lat="50.34201" lon="3.59899">
        <ele>74</ele>
        <time>2022-05-09T08:35:30.000Z</time>
      </trkpt>
      <trkpt lat="50.34206" lon="3.59898">
        <ele>74</ele>
        <time>2022-05-09T08:35:31.000Z</time>
      </trkpt>
      <trkpt lat="50.34211" lon="3.59898">
        <ele>74</ele>
        <time>2022-05-09T08:35:32.000Z</time>
      </trkpt>
      <trkpt lat="50.34218" lon="3.59896">
        <ele>74</ele>
        <time>2022-05-09T08:35:33.000Z</time>
      </trkpt>
      <trkpt lat="50.34222" lon="3.59895">
        <ele>74</ele>
        <time>2022-05-09T08:35:34.000Z</time>
      </trkpt>
      <trkpt lat="50.34227" lon="3.59893">
        <ele>73.8</ele>
        <time>2022-05-09T08:35:35.000Z</time>
      </trkpt>
      <trkpt lat="50.34232" lon="3.59891">
        <ele>73.6</ele>
        <time>2022-05-09T08:35:36.000Z</time>
      </trkpt>
      <trkpt lat="50.34241" lon="3.59889">
        <ele>73.3</ele>
        <time>2022-05-09T08:35:38.000Z</time>
      </trkpt>
      <trkpt lat="50.34247" lon="3.59888">
        <ele>73.1</ele>
        <time>2022-05-09T08:35:39.000Z</time>
      </trkpt>
      <trkpt lat="50.34255" lon="3.59888">
        <ele>73</ele>
        <time>2022-05-09T08:35:41.000Z</time>
      </trkpt>
      <trkpt lat="50.34261" lon="3.59888">
        <ele>73</ele>
        <time>2022-05-09T08:35:42.000Z</time>
      </trkpt>
      <trkpt lat="50.34266" lon="3.59888">
        <ele>73</ele>
        <time>2022-05-09T08:35:43.000Z</time>
      </trkpt>
      <trkpt lat="50.34271" lon="3.59887">
        <ele>73</ele>
        <time>2022-05-09T08:35:44.000Z</time>
      </trkpt>
      <trkpt lat="50.34276" lon="3.59888">
        <ele>73</ele>
        <time>2022-05-09T08:35:45.000Z</time>
      </trkpt>
      <trkpt lat="50.34282" lon="3.59887">
        <ele>73</ele>
        <time>2022-05-09T08:35:46.000Z</time>
      </trkpt>
      <trkpt lat="50.34292" lon="3.59885">
        <ele>73</ele>
        <time>2022-05-09T08:35:48.000Z</time>
      </trkpt>
      <trkpt lat="50.34298" lon="3.59884">
        <ele>73</ele>
        <time>2022-05-09T08:35:49.000Z</time>
      </trkpt>
      <trkpt lat="50.34303" lon="3.59883">
        <ele>73</ele>
        <time>2022-05-09T08:35:50.000Z</time>
      </trkpt>
      <trkpt lat="50.34308" lon="3.59882">
        <ele>72.9</ele>
        <time>2022-05-09T08:35:51.000Z</time>
      </trkpt>
      <trkpt lat="50.34313" lon="3.59882">
        <ele>72.7</ele>
        <time>2022-05-09T08:35:52.000Z</time>
      </trkpt>
      <trkpt lat="50.34318" lon="3.5988">
        <ele>72.6</ele>
        <time>2022-05-09T08:35:53.000Z</time>
      </trkpt>
      <trkpt lat="50.34324" lon="3.59878">
        <ele>72.3</ele>
        <time>2022-05-09T08:35:54.000Z</time>
      </trkpt>
      <trkpt lat="50.34334" lon="3.59876">
        <ele>72</ele>
        <time>2022-05-09T08:35:56.000Z</time>
      </trkpt>
      <trkpt lat="50.34339" lon="3.59875">
        <ele>71.9</ele>
        <time>2022-05-09T08:35:57.000Z</time>
      </trkpt>
      <trkpt lat="50.34344" lon="3.59873">
        <ele>71.8</ele>
        <time>2022-05-09T08:35:58.000Z</time>
      </trkpt>
      <trkpt lat="50.34351" lon="3.59871">
        <ele>71.6</ele>
        <time>2022-05-09T08:35:59.000Z</time>
      </trkpt>
      <trkpt lat="50.34356" lon="3.59869">
        <ele>71.4</ele>
        <time>2022-05-09T08:36:00.000Z</time>
      </trkpt>
      <trkpt lat="50.34362" lon="3.59866">
        <ele>71.2</ele>
        <time>2022-05-09T08:36:01.000Z</time>
      </trkpt>
      <trkpt lat="50.34367" lon="3.59864">
        <ele>71.1</ele>
        <time>2022-05-09T08:36:02.000Z</time>
      </trkpt>
      <trkpt lat="50.34372" lon="3.59863">
        <ele>71.1</ele>
        <time>2022-05-09T08:36:03.000Z</time>
      </trkpt>
      <trkpt lat="50.34377" lon="3.59861">
        <ele>71</ele>
        <time>2022-05-09T08:36:04.000Z</time>
      </trkpt>
      <trkpt lat="50.34383" lon="3.5986">
        <ele>71</ele>
        <time>2022-05-09T08:36:05.000Z</time>
      </trkpt>
      <trkpt lat="50.34388" lon="3.59859">
        <ele>71</ele>
        <time>2022-05-09T08:36:06.000Z</time>
      </trkpt>
      <trkpt lat="50.34394" lon="3.59858">
        <ele>71</ele>
        <time>2022-05-09T08:36:07.000Z</time>
      </trkpt>
      <trkpt lat="50.34399" lon="3.59855">
        <ele>71</ele>
        <time>2022-05-09T08:36:08.000Z</time>
      </trkpt>
      <trkpt lat="50.34405" lon="3.59853">
        <ele>71</ele>
        <time>2022-05-09T08:36:09.000Z</time>
      </trkpt>
      <trkpt lat="50.3441" lon="3.59851">
        <ele>71</ele>
        <time>2022-05-09T08:36:10.000Z</time>
      </trkpt>
      <trkpt lat="50.34415" lon="3.5985">
        <ele>71</ele>
        <time>2022-05-09T08:36:11.000Z</time>
      </trkpt>
      <trkpt lat="50.34421" lon="3.59848">
        <ele>71.1</ele>
        <time>2022-05-09T08:36:12.000Z</time>
      </trkpt>
      <trkpt lat="50.34426" lon="3.59846">
        <ele>71.2</ele>
        <time>2022-05-09T08:36:13.000Z</time>
      </trkpt>
      <trkpt lat="50.34431" lon="3.59845">
        <ele>71.2</ele>
        <time>2022-05-09T08:36:14.000Z</time>
      </trkpt>
      <trkpt lat="50.34436" lon="3.59843">
        <ele>71.2</ele>
        <time>2022-05-09T08:36:15.000Z</time>
      </trkpt>
      <trkpt lat="50.34442" lon="3.59841">
        <ele>71.3</ele>
        <time>2022-05-09T08:36:16.000Z</time>
      </trkpt>
      <trkpt lat="50.34447" lon="3.5984">
        <ele>71.2</ele>
        <time>2022-05-09T08:36:17.000Z</time>
      </trkpt>
      <trkpt lat="50.34452" lon="3.59839">
        <ele>71</ele>
        <time>2022-05-09T08:36:18.000Z</time>
      </trkpt>
      <trkpt lat="50.34457" lon="3.59837">
        <ele>70.7</ele>
        <time>2022-05-09T08:36:19.000Z</time>
      </trkpt>
      <trkpt lat="50.34463" lon="3.59835">
        <ele>70.5</ele>
        <time>2022-05-09T08:36:20.000Z</time>
      </trkpt>
      <trkpt lat="50.34468" lon="3.59833">
        <ele>70.2</ele>
        <time>2022-05-09T08:36:21.000Z</time>
      </trkpt>
      <trkpt lat="50.34473" lon="3.59831">
        <ele>70</ele>
        <time>2022-05-09T08:36:22.000Z</time>
      </trkpt>
      <trkpt lat="50.34478" lon="3.59829">
        <ele>70.2</ele>
        <time>2022-05-09T08:36:23.000Z</time>
      </trkpt>
      <trkpt lat="50.34484" lon="3.59826">
        <ele>70.2</ele>
        <time>2022-05-09T08:36:24.000Z</time>
      </trkpt>
      <trkpt lat="50.34489" lon="3.59823">
        <ele>70.2</ele>
        <time>2022-05-09T08:36:25.000Z</time>
      </trkpt>
      <trkpt lat="50.34494" lon="3.5982">
        <ele>70.1</ele>
        <time>2022-05-09T08:36:26.000Z</time>
      </trkpt>
      <trkpt lat="50.34499" lon="3.59818">
        <ele>69.9</ele>
        <time>2022-05-09T08:36:27.000Z</time>
      </trkpt>
      <trkpt lat="50.34504" lon="3.59814">
        <ele>69.6</ele>
        <time>2022-05-09T08:36:28.000Z</time>
      </trkpt>
      <trkpt lat="50.34509" lon="3.59811">
        <ele>69.3</ele>
        <time>2022-05-09T08:36:29.000Z</time>
      </trkpt>
      <trkpt lat="50.34514" lon="3.59808">
        <ele>69.1</ele>
        <time>2022-05-09T08:36:30.000Z</time>
      </trkpt>
      <trkpt lat="50.34519" lon="3.59805">
        <ele>69</ele>
        <time>2022-05-09T08:36:31.000Z</time>
      </trkpt>
      <trkpt lat="50.34524" lon="3.59802">
        <ele>69</ele>
        <time>2022-05-09T08:36:32.000Z</time>
      </trkpt>
      <trkpt lat="50.34529" lon="3.59799">
        <ele>69</ele>
        <time>2022-05-09T08:36:33.000Z</time>
      </trkpt>
      <trkpt lat="50.34534" lon="3.59796">
        <ele>68.9</ele>
        <time>2022-05-09T08:36:34.000Z</time>
      </trkpt>
      <trkpt lat="50.34539" lon="3.59793">
        <ele>68.8</ele>
        <time>2022-05-09T08:36:35.000Z</time>
      </trkpt>
      <trkpt lat="50.34544" lon="3.5979">
        <ele>68.7</ele>
        <time>2022-05-09T08:36:36.000Z</time>
      </trkpt>
      <trkpt lat="50.3455" lon="3.59787">
        <ele>68.5</ele>
        <time>2022-05-09T08:36:37.000Z</time>
      </trkpt>
      <trkpt lat="50.34555" lon="3.59784">
        <ele>68.3</ele>
        <time>2022-05-09T08:36:38.000Z</time>
      </trkpt>
      <trkpt lat="50.34561" lon="3.59781">
        <ele>68.1</ele>
        <time>2022-05-09T08:36:39.000Z</time>
      </trkpt>
      <trkpt lat="50.34565" lon="3.59779">
        <ele>68</ele>
        <time>2022-05-09T08:36:40.000Z</time>
      </trkpt>
      <trkpt lat="50.34572" lon="3.59776">
        <ele>68</ele>
        <time>2022-05-09T08:36:41.000Z</time>
      </trkpt>
      <trkpt lat="50.34576" lon="3.59774">
        <ele>68</ele>
        <time>2022-05-09T08:36:42.000Z</time>
      </trkpt>
      <trkpt lat="50.34582" lon="3.59771">
        <ele>68</ele>
        <time>2022-05-09T08:36:43.000Z</time>
      </trkpt>
      <trkpt lat="50.34592" lon="3.59766">
        <ele>68</ele>
        <time>2022-05-09T08:36:45.000Z</time>
      </trkpt>
      <trkpt lat="50.34597" lon="3.59764">
        <ele>68</ele>
        <time>2022-05-09T08:36:46.000Z</time>
      </trkpt>
      <trkpt lat="50.34602" lon="3.59761">
        <ele>68</ele>
        <time>2022-05-09T08:36:47.000Z</time>
      </trkpt>
      <trkpt lat="50.34608" lon="3.59758">
        <ele>68</ele>
        <time>2022-05-09T08:36:48.000Z</time>
      </trkpt>
      <trkpt lat="50.34613" lon="3.59755">
        <ele>68</ele>
        <time>2022-05-09T08:36:49.000Z</time>
      </trkpt>
      <trkpt lat="50.34618" lon="3.59753">
        <ele>67.8</ele>
        <time>2022-05-09T08:36:50.000Z</time>
      </trkpt>
      <trkpt lat="50.34624" lon="3.5975">
        <ele>67.5</ele>
        <time>2022-05-09T08:36:51.000Z</time>
      </trkpt>
      <trkpt lat="50.34629" lon="3.59748">
        <ele>67.4</ele>
        <time>2022-05-09T08:36:52.000Z</time>
      </trkpt>
      <trkpt lat="50.34634" lon="3.59745">
        <ele>67.2</ele>
        <time>2022-05-09T08:36:53.000Z</time>
      </trkpt>
      <trkpt lat="50.34641" lon="3.59742">
        <ele>67</ele>
        <time>2022-05-09T08:36:54.000Z</time>
      </trkpt>
      <trkpt lat="50.34645" lon="3.59739">
        <ele>67</ele>
        <time>2022-05-09T08:36:55.000Z</time>
      </trkpt>
      <trkpt lat="50.34654" lon="3.59734">
        <ele>67</ele>
        <time>2022-05-09T08:36:57.000Z</time>
      </trkpt>
      <trkpt lat="50.34659" lon="3.59731">
        <ele>67</ele>
        <time>2022-05-09T08:36:58.000Z</time>
      </trkpt>
      <trkpt lat="50.34664" lon="3.59729">
        <ele>67</ele>
        <time>2022-05-09T08:36:59.000Z</time>
      </trkpt>
      <trkpt lat="50.34668" lon="3.59727">
        <ele>67</ele>
        <time>2022-05-09T08:37:00.000Z</time>
      </trkpt>
      <trkpt lat="50.34673" lon="3.59724">
        <ele>67</ele>
        <time>2022-05-09T08:37:01.000Z</time>
      </trkpt>
      <trkpt lat="50.34679" lon="3.5972">
        <ele>67</ele>
        <time>2022-05-09T08:37:02.000Z</time>
      </trkpt>
      <trkpt lat="50.34684" lon="3.59718">
        <ele>67</ele>
        <time>2022-05-09T08:37:03.000Z</time>
      </trkpt>
      <trkpt lat="50.34689" lon="3.59716">
        <ele>67</ele>
        <time>2022-05-09T08:37:04.000Z</time>
      </trkpt>
      <trkpt lat="50.34694" lon="3.59714">
        <ele>67</ele>
        <time>2022-05-09T08:37:05.000Z</time>
      </trkpt>
      <trkpt lat="50.34703" lon="3.5971">
        <ele>66.8</ele>
        <time>2022-05-09T08:37:07.000Z</time>
      </trkpt>
      <trkpt lat="50.34711" lon="3.59707">
        <ele>66.7</ele>
        <time>2022-05-09T08:37:09.000Z</time>
      </trkpt>
      <trkpt lat="50.34715" lon="3.59705">
        <ele>66.7</ele>
        <time>2022-05-09T08:37:10.000Z</time>
      </trkpt>
      <trkpt lat="50.3472" lon="3.59703">
        <ele>66.7</ele>
        <time>2022-05-09T08:37:11.000Z</time>
      </trkpt>
      <trkpt lat="50.34726" lon="3.59702">
        <ele>66.7</ele>
        <time>2022-05-09T08:37:12.000Z</time>
      </trkpt>
      <trkpt lat="50.34733" lon="3.59702">
        <ele>66.6</ele>
        <time>2022-05-09T08:37:14.000Z</time>
      </trkpt>
      <trkpt lat="50.3474" lon="3.59705">
        <ele>66.4</ele>
        <time>2022-05-09T08:37:16.000Z</time>
      </trkpt>
      <trkpt lat="50.34746" lon="3.59708">
        <ele>66.1</ele>
        <time>2022-05-09T08:37:17.000Z</time>
      </trkpt>
      <trkpt lat="50.34751" lon="3.59709">
        <ele>66</ele>
        <time>2022-05-09T08:37:18.000Z</time>
      </trkpt>
      <trkpt lat="50.34757" lon="3.59709">
        <ele>66.1</ele>
        <time>2022-05-09T08:37:19.000Z</time>
      </trkpt>
      <trkpt lat="50.34762" lon="3.5971">
        <ele>66.2</ele>
        <time>2022-05-09T08:37:20.944Z</time>
      </trkpt>
      <trkpt lat="50.34767" lon="3.59707">
        <ele>66.3</ele>
        <time>2022-05-09T08:37:22.000Z</time>
      </trkpt>
      <trkpt lat="50.3478" lon="3.59706">
        <ele>66.5</ele>
        <time>2022-05-09T08:37:25.000Z</time>
      </trkpt>
      <trkpt lat="50.34786" lon="3.59706">
        <ele>66.7</ele>
        <time>2022-05-09T08:37:27.000Z</time>
      </trkpt>
      <trkpt lat="50.34796" lon="3.59706">
        <ele>67.1</ele>
        <time>2022-05-09T08:37:29.000Z</time>
      </trkpt>
      <trkpt lat="50.34803" lon="3.59707">
        <ele>67.4</ele>
        <time>2022-05-09T08:37:31.000Z</time>
      </trkpt>
      <trkpt lat="50.34808" lon="3.59708">
        <ele>67.6</ele>
        <time>2022-05-09T08:37:32.190Z</time>
      </trkpt>
      <trkpt lat="50.34815" lon="3.59712">
        <ele>68</ele>
        <time>2022-05-09T08:37:35.000Z</time>
      </trkpt>
      <trkpt lat="50.3482" lon="3.59713">
        <ele>68.2</ele>
        <time>2022-05-09T08:37:37.000Z</time>
      </trkpt>
      <trkpt lat="50.34825" lon="3.59714">
        <ele>68.4</ele>
        <time>2022-05-09T08:37:39.000Z</time>
      </trkpt>
      <trkpt lat="50.34829" lon="3.59715">
        <ele>68.6</ele>
        <time>2022-05-09T08:37:41.000Z</time>
      </trkpt>
      <trkpt lat="50.34836" lon="3.59717">
        <ele>68.8</ele>
        <time>2022-05-09T08:37:43.369Z</time>
      </trkpt>
      <trkpt lat="50.34841" lon="3.59718">
        <ele>68.9</ele>
        <time>2022-05-09T08:37:45.000Z</time>
      </trkpt>
      <trkpt lat="50.34847" lon="3.5972">
        <ele>69</ele>
        <time>2022-05-09T08:37:47.000Z</time>
      </trkpt>
      <trkpt lat="50.34853" lon="3.59725">
        <ele>69</ele>
        <time>2022-05-09T08:37:49.000Z</time>
      </trkpt>
      <trkpt lat="50.34857" lon="3.5973">
        <ele>69</ele>
        <time>2022-05-09T08:37:51.000Z</time>
      </trkpt>
      <trkpt lat="50.34861" lon="3.59735">
        <ele>69</ele>
        <time>2022-05-09T08:37:53.000Z</time>
      </trkpt>
      <trkpt lat="50.34866" lon="3.59739">
        <ele>69</ele>
        <time>2022-05-09T08:37:55.000Z</time>
      </trkpt>
      <trkpt lat="50.34871" lon="3.59743">
        <ele>69</ele>
        <time>2022-05-09T08:37:57.000Z</time>
      </trkpt>
      <trkpt lat="50.34875" lon="3.59749">
        <ele>69</ele>
        <time>2022-05-09T08:37:59.005Z</time>
      </trkpt>
      <trkpt lat="50.34881" lon="3.59749">
        <ele>69</ele>
        <time>2022-05-09T08:38:01.000Z</time>
      </trkpt>
      <trkpt lat="50.34885" lon="3.59743">
        <ele>69</ele>
        <time>2022-05-09T08:38:02.466Z</time>
      </trkpt>
      <trkpt lat="50.34892" lon="3.59734">
        <ele>69.1</ele>
        <time>2022-05-09T08:38:04.106Z</time>
      </trkpt>
      <trkpt lat="50.34899" lon="3.59725">
        <ele>69</ele>
        <time>2022-05-09T08:38:06.000Z</time>
      </trkpt>
      <trkpt lat="50.34905" lon="3.59715">
        <ele>69</ele>
        <time>2022-05-09T08:38:08.000Z</time>
      </trkpt>
      <trkpt lat="50.34909" lon="3.5971">
        <ele>69</ele>
        <time>2022-05-09T08:38:09.000Z</time>
      </trkpt>
      <trkpt lat="50.34913" lon="3.59706">
        <ele>69</ele>
        <time>2022-05-09T08:38:10.000Z</time>
      </trkpt>
      <trkpt lat="50.34917" lon="3.59701">
        <ele>69</ele>
        <time>2022-05-09T08:38:11.000Z</time>
      </trkpt>
      <trkpt lat="50.34921" lon="3.59696">
        <ele>69</ele>
        <time>2022-05-09T08:38:12.000Z</time>
      </trkpt>
      <trkpt lat="50.34924" lon="3.59691">
        <ele>68.9</ele>
        <time>2022-05-09T08:38:13.000Z</time>
      </trkpt>
      <trkpt lat="50.34928" lon="3.59686">
        <ele>68.7</ele>
        <time>2022-05-09T08:38:14.000Z</time>
      </trkpt>
      <trkpt lat="50.34932" lon="3.59682">
        <ele>68.5</ele>
        <time>2022-05-09T08:38:15.000Z</time>
      </trkpt>
      <trkpt lat="50.34937" lon="3.59677">
        <ele>68.4</ele>
        <time>2022-05-09T08:38:16.000Z</time>
      </trkpt>
      <trkpt lat="50.34945" lon="3.59667">
        <ele>68</ele>
        <time>2022-05-09T08:38:18.000Z</time>
      </trkpt>
      <trkpt lat="50.34949" lon="3.59661">
        <ele>68.1</ele>
        <time>2022-05-09T08:38:19.000Z</time>
      </trkpt>
      <trkpt lat="50.34953" lon="3.59655">
        <ele>68.2</ele>
        <time>2022-05-09T08:38:20.000Z</time>
      </trkpt>
      <trkpt lat="50.34958" lon="3.5965">
        <ele>68.2</ele>
        <time>2022-05-09T08:38:21.000Z</time>
      </trkpt>
      <trkpt lat="50.34962" lon="3.59646">
        <ele>68.2</ele>
        <time>2022-05-09T08:38:22.000Z</time>
      </trkpt>
      <trkpt lat="50.34967" lon="3.59641">
        <ele>68.1</ele>
        <time>2022-05-09T08:38:23.000Z</time>
      </trkpt>
      <trkpt lat="50.34972" lon="3.59636">
        <ele>67.9</ele>
        <time>2022-05-09T08:38:24.000Z</time>
      </trkpt>
      <trkpt lat="50.34976" lon="3.59631">
        <ele>67.7</ele>
        <time>2022-05-09T08:38:25.000Z</time>
      </trkpt>
      <trkpt lat="50.34981" lon="3.59626">
        <ele>67.5</ele>
        <time>2022-05-09T08:38:26.000Z</time>
      </trkpt>
      <trkpt lat="50.34986" lon="3.59622">
        <ele>67.4</ele>
        <time>2022-05-09T08:38:27.000Z</time>
      </trkpt>
      <trkpt lat="50.34992" lon="3.5962">
        <ele>67.3</ele>
        <time>2022-05-09T08:38:28.000Z</time>
      </trkpt>
      <trkpt lat="50.34996" lon="3.5962">
        <ele>67.3</ele>
        <time>2022-05-09T08:38:29.000Z</time>
      </trkpt>
      <trkpt lat="50.35001" lon="3.59616">
        <ele>67.2</ele>
        <time>2022-05-09T08:38:30.000Z</time>
      </trkpt>
      <trkpt lat="50.35001" lon="3.59606">
        <ele>67</ele>
        <time>2022-05-09T08:38:31.000Z</time>
      </trkpt>
      <trkpt lat="50.35003" lon="3.59597">
        <ele>67.1</ele>
        <time>2022-05-09T08:38:32.000Z</time>
      </trkpt>
      <trkpt lat="50.35005" lon="3.59586">
        <ele>67.2</ele>
        <time>2022-05-09T08:38:33.000Z</time>
      </trkpt>
      <trkpt lat="50.35008" lon="3.59574">
        <ele>67</ele>
        <time>2022-05-09T08:38:34.000Z</time>
      </trkpt>
      <trkpt lat="50.3501" lon="3.59568">
        <ele>66.8</ele>
        <time>2022-05-09T08:38:35.000Z</time>
      </trkpt>
      <trkpt lat="50.35011" lon="3.59561">
        <ele>66.6</ele>
        <time>2022-05-09T08:38:36.000Z</time>
      </trkpt>
      <trkpt lat="50.35014" lon="3.5955">
        <ele>66.4</ele>
        <time>2022-05-09T08:38:37.000Z</time>
      </trkpt>
      <trkpt lat="50.35015" lon="3.59547">
        <ele>66.4</ele>
        <time>2022-05-09T08:38:38.000Z</time>
      </trkpt>
      <trkpt lat="50.35016" lon="3.59539">
        <ele>66.2</ele>
        <time>2022-05-09T08:38:39.000Z</time>
      </trkpt>
      <trkpt lat="50.35018" lon="3.59525">
        <ele>66</ele>
        <time>2022-05-09T08:38:41.000Z</time>
      </trkpt>
      <trkpt lat="50.35014" lon="3.59527">
        <ele>66</ele>
        <time>2022-05-09T08:38:42.548Z</time>
      </trkpt>
      <trkpt lat="50.35012" lon="3.59536">
        <ele>66.1</ele>
        <time>2022-05-09T08:38:45.000Z</time>
      </trkpt>
      <trkpt lat="50.35015" lon="3.59544">
        <ele>66.3</ele>
        <time>2022-05-09T08:38:47.000Z</time>
      </trkpt>
      <trkpt lat="50.35019" lon="3.59551">
        <ele>66.6</ele>
        <time>2022-05-09T08:38:49.000Z</time>
      </trkpt>
      <trkpt lat="50.35024" lon="3.59557">
        <ele>66.9</ele>
        <time>2022-05-09T08:38:51.000Z</time>
      </trkpt>
      <trkpt lat="50.35029" lon="3.59562">
        <ele>67.3</ele>
        <time>2022-05-09T08:38:53.000Z</time>
      </trkpt>
      <trkpt lat="50.35036" lon="3.59568">
        <ele>67.8</ele>
        <time>2022-05-09T08:38:55.000Z</time>
      </trkpt>
      <trkpt lat="50.35042" lon="3.59577">
        <ele>68.3</ele>
        <time>2022-05-09T08:38:57.000Z</time>
      </trkpt>
      <trkpt lat="50.35049" lon="3.59585">
        <ele>68.8</ele>
        <time>2022-05-09T08:38:59.000Z</time>
      </trkpt>
      <trkpt lat="50.35057" lon="3.59591">
        <ele>69</ele>
        <time>2022-05-09T08:39:01.470Z</time>
      </trkpt>
      <trkpt lat="50.35061" lon="3.59596">
        <ele>69.1</ele>
        <time>2022-05-09T08:39:03.000Z</time>
      </trkpt>
      <trkpt lat="50.35066" lon="3.59604">
        <ele>69.3</ele>
        <time>2022-05-09T08:39:05.000Z</time>
      </trkpt>
      <trkpt lat="50.35072" lon="3.59608">
        <ele>69.5</ele>
        <time>2022-05-09T08:39:07.000Z</time>
      </trkpt>
      <trkpt lat="50.35078" lon="3.5961">
        <ele>69.8</ele>
        <time>2022-05-09T08:39:09.000Z</time>
      </trkpt>
      <trkpt lat="50.35082" lon="3.59603">
        <ele>69.7</ele>
        <time>2022-05-09T08:39:11.000Z</time>
      </trkpt>
      <trkpt lat="50.35086" lon="3.59595">
        <ele>69.5</ele>
        <time>2022-05-09T08:39:13.000Z</time>
      </trkpt>
      <trkpt lat="50.35089" lon="3.59586">
        <ele>69.3</ele>
        <time>2022-05-09T08:39:15.000Z</time>
      </trkpt>
      <trkpt lat="50.35092" lon="3.59582">
        <ele>69.3</ele>
        <time>2022-05-09T08:39:17.000Z</time>
      </trkpt>
      <trkpt lat="50.35098" lon="3.5958">
        <ele>69.5</ele>
        <time>2022-05-09T08:39:17.480Z</time>
      </trkpt>
      <trkpt lat="50.35102" lon="3.59572">
        <ele>69.4</ele>
        <time>2022-05-09T08:39:18.000Z</time>
      </trkpt>
      <trkpt lat="50.35106" lon="3.59561">
        <ele>69.2</ele>
        <time>2022-05-09T08:39:20.800Z</time>
      </trkpt>
      <trkpt lat="50.35108" lon="3.59562">
        <ele>69.2</ele>
        <time>2022-05-09T08:39:29.079Z</time>
      </trkpt>
      <trkpt lat="50.35104" lon="3.59571">
        <ele>69.4</ele>
        <time>2022-05-09T08:39:30.878Z</time>
      </trkpt>
      <trkpt lat="50.35101" lon="3.59578">
        <ele>69.5</ele>
        <time>2022-05-09T08:39:32.000Z</time>
      </trkpt>
      <trkpt lat="50.351" lon="3.59583">
        <ele>69.6</ele>
        <time>2022-05-09T08:39:33.023Z</time>
      </trkpt>
      <trkpt lat="50.35102" lon="3.59588">
        <ele>69.7</ele>
        <time>2022-05-09T08:39:34.000Z</time>
      </trkpt>
      <trkpt lat="50.35106" lon="3.59594">
        <ele>69.9</ele>
        <time>2022-05-09T08:39:37.000Z</time>
      </trkpt>
      <trkpt lat="50.3511" lon="3.59599">
        <ele>70</ele>
        <time>2022-05-09T08:39:39.000Z</time>
      </trkpt>
      <trkpt lat="50.35115" lon="3.59604">
        <ele>70</ele>
        <time>2022-05-09T08:39:41.000Z</time>
      </trkpt>
      <trkpt lat="50.3512" lon="3.59611">
        <ele>70</ele>
        <time>2022-05-09T08:39:43.000Z</time>
      </trkpt>
      <trkpt lat="50.35126" lon="3.59616">
        <ele>70</ele>
        <time>2022-05-09T08:39:45.000Z</time>
      </trkpt>
      <trkpt lat="50.35132" lon="3.59624">
        <ele>70</ele>
        <time>2022-05-09T08:39:47.000Z</time>
      </trkpt>
      <trkpt lat="50.35137" lon="3.59631">
        <ele>70</ele>
        <time>2022-05-09T08:39:49.000Z</time>
      </trkpt>
      <trkpt lat="50.35143" lon="3.59639">
        <ele>70</ele>
        <time>2022-05-09T08:39:51.000Z</time>
      </trkpt>
      <trkpt lat="50.35149" lon="3.59645">
        <ele>70.1</ele>
        <time>2022-05-09T08:39:53.000Z</time>
      </trkpt>
      <trkpt lat="50.35155" lon="3.59652">
        <ele>70.3</ele>
        <time>2022-05-09T08:39:55.000Z</time>
      </trkpt>
      <trkpt lat="50.3516" lon="3.59657">
        <ele>70.5</ele>
        <time>2022-05-09T08:39:57.000Z</time>
      </trkpt>
      <trkpt lat="50.35164" lon="3.59663">
        <ele>70.8</ele>
        <time>2022-05-09T08:39:59.000Z</time>
      </trkpt>
      <trkpt lat="50.3517" lon="3.59668">
        <ele>70.9</ele>
        <time>2022-05-09T08:40:01.000Z</time>
      </trkpt>
      <trkpt lat="50.35175" lon="3.59673">
        <ele>70.7</ele>
        <time>2022-05-09T08:40:03.000Z</time>
      </trkpt>
      <trkpt lat="50.35182" lon="3.59675">
        <ele>70.5</ele>
        <time>2022-05-09T08:40:05.000Z</time>
      </trkpt>
      <trkpt lat="50.35188" lon="3.59677">
        <ele>70.2</ele>
        <time>2022-05-09T08:40:07.000Z</time>
      </trkpt>
      <trkpt lat="50.35194" lon="3.59678">
        <ele>70</ele>
        <time>2022-05-09T08:40:22.000Z</time>
      </trkpt>
      <trkpt lat="50.35198" lon="3.59682">
        <ele>69.9</ele>
        <time>2022-05-09T08:40:24.000Z</time>
      </trkpt>
      <trkpt lat="50.35203" lon="3.59687">
        <ele>69.7</ele>
        <time>2022-05-09T08:40:26.000Z</time>
      </trkpt>
      <trkpt lat="50.35208" lon="3.59695">
        <ele>69.5</ele>
        <time>2022-05-09T08:40:28.000Z</time>
      </trkpt>
      <trkpt lat="50.35215" lon="3.597">
        <ele>69.3</ele>
        <time>2022-05-09T08:40:30.000Z</time>
      </trkpt>
      <trkpt lat="50.35221" lon="3.59694">
        <ele>69.1</ele>
        <time>2022-05-09T08:40:32.000Z</time>
      </trkpt>
      <trkpt lat="50.35225" lon="3.59684">
        <ele>69.1</ele>
        <time>2022-05-09T08:40:34.000Z</time>
      </trkpt>
      <trkpt lat="50.35228" lon="3.59676">
        <ele>69.2</ele>
        <time>2022-05-09T08:40:35.204Z</time>
      </trkpt>
      <trkpt lat="50.35232" lon="3.59662">
        <ele>69.4</ele>
        <time>2022-05-09T08:40:37.000Z</time>
      </trkpt>
      <trkpt lat="50.35237" lon="3.5965">
        <ele>69.5</ele>
        <time>2022-05-09T08:40:39.000Z</time>
      </trkpt>
      <trkpt lat="50.35239" lon="3.59643">
        <ele>69.4</ele>
        <time>2022-05-09T08:40:40.000Z</time>
      </trkpt>
      <trkpt lat="50.35242" lon="3.59635">
        <ele>69.2</ele>
        <time>2022-05-09T08:40:41.000Z</time>
      </trkpt>
      <trkpt lat="50.35248" lon="3.59624">
        <ele>68.6</ele>
        <time>2022-05-09T08:40:43.000Z</time>
      </trkpt>
      <trkpt lat="50.3525" lon="3.59617">
        <ele>68.2</ele>
        <time>2022-05-09T08:40:44.000Z</time>
      </trkpt>
      <trkpt lat="50.35255" lon="3.59607">
        <ele>68.3</ele>
        <time>2022-05-09T08:40:46.000Z</time>
      </trkpt>
      <trkpt lat="50.35259" lon="3.59598">
        <ele>68.5</ele>
        <time>2022-05-09T08:40:47.000Z</time>
      </trkpt>
      <trkpt lat="50.35264" lon="3.5959">
        <ele>68.5</ele>
        <time>2022-05-09T08:40:49.000Z</time>
      </trkpt>
      <trkpt lat="50.35267" lon="3.59582">
        <ele>68.4</ele>
        <time>2022-05-09T08:40:50.000Z</time>
      </trkpt>
      <trkpt lat="50.3527" lon="3.59576">
        <ele>68.3</ele>
        <time>2022-05-09T08:40:51.000Z</time>
      </trkpt>
      <trkpt lat="50.35274" lon="3.59569">
        <ele>68.2</ele>
        <time>2022-05-09T08:40:52.000Z</time>
      </trkpt>
      <trkpt lat="50.35279" lon="3.59558">
        <ele>68.1</ele>
        <time>2022-05-09T08:40:54.000Z</time>
      </trkpt>
      <trkpt lat="50.35284" lon="3.59551">
        <ele>68.2</ele>
        <time>2022-05-09T08:40:55.000Z</time>
      </trkpt>
      <trkpt lat="50.35288" lon="3.59546">
        <ele>68.2</ele>
        <time>2022-05-09T08:40:56.000Z</time>
      </trkpt>
      <trkpt lat="50.35293" lon="3.5954">
        <ele>68.2</ele>
        <time>2022-05-09T08:40:57.000Z</time>
      </trkpt>
      <trkpt lat="50.35301" lon="3.5953">
        <ele>68.1</ele>
        <time>2022-05-09T08:40:59.000Z</time>
      </trkpt>
      <trkpt lat="50.35304" lon="3.59526">
        <ele>68</ele>
        <time>2022-05-09T08:41:00.000Z</time>
      </trkpt>
      <trkpt lat="50.35309" lon="3.5952">
        <ele>68.1</ele>
        <time>2022-05-09T08:41:01.000Z</time>
      </trkpt>
      <trkpt lat="50.35315" lon="3.59509">
        <ele>68.1</ele>
        <time>2022-05-09T08:41:03.000Z</time>
      </trkpt>
      <trkpt lat="50.35319" lon="3.59504">
        <ele>68.1</ele>
        <time>2022-05-09T08:41:04.000Z</time>
      </trkpt>
      <trkpt lat="50.35323" lon="3.595">
        <ele>68</ele>
        <time>2022-05-09T08:41:05.000Z</time>
      </trkpt>
      <trkpt lat="50.35327" lon="3.59495">
        <ele>68</ele>
        <time>2022-05-09T08:41:06.000Z</time>
      </trkpt>
      <trkpt lat="50.3533" lon="3.59489">
        <ele>68</ele>
        <time>2022-05-09T08:41:07.000Z</time>
      </trkpt>
      <trkpt lat="50.35334" lon="3.59484">
        <ele>68</ele>
        <time>2022-05-09T08:41:08.000Z</time>
      </trkpt>
      <trkpt lat="50.35338" lon="3.59479">
        <ele>68</ele>
        <time>2022-05-09T08:41:09.000Z</time>
      </trkpt>
      <trkpt lat="50.35346" lon="3.59469">
        <ele>67.9</ele>
        <time>2022-05-09T08:41:11.000Z</time>
      </trkpt>
      <trkpt lat="50.3535" lon="3.59465">
        <ele>67.9</ele>
        <time>2022-05-09T08:41:12.000Z</time>
      </trkpt>
      <trkpt lat="50.35356" lon="3.59456">
        <ele>67.9</ele>
        <time>2022-05-09T08:41:14.000Z</time>
      </trkpt>
      <trkpt lat="50.3536" lon="3.59452">
        <ele>68</ele>
        <time>2022-05-09T08:41:15.000Z</time>
      </trkpt>
      <trkpt lat="50.35365" lon="3.59447">
        <ele>67.9</ele>
        <time>2022-05-09T08:41:16.000Z</time>
      </trkpt>
      <trkpt lat="50.35372" lon="3.5944">
        <ele>67.5</ele>
        <time>2022-05-09T08:41:18.000Z</time>
      </trkpt>
      <trkpt lat="50.35378" lon="3.59437">
        <ele>67.3</ele>
        <time>2022-05-09T08:41:19.000Z</time>
      </trkpt>
      <trkpt lat="50.35386" lon="3.5943">
        <ele>67</ele>
        <time>2022-05-09T08:41:21.000Z</time>
      </trkpt>
      <trkpt lat="50.35391" lon="3.59427">
        <ele>67</ele>
        <time>2022-05-09T08:41:22.000Z</time>
      </trkpt>
      <trkpt lat="50.35398" lon="3.59423">
        <ele>67</ele>
        <time>2022-05-09T08:41:24.000Z</time>
      </trkpt>
      <trkpt lat="50.35403" lon="3.59419">
        <ele>67</ele>
        <time>2022-05-09T08:41:25.000Z</time>
      </trkpt>
      <trkpt lat="50.35411" lon="3.59414">
        <ele>67</ele>
        <time>2022-05-09T08:41:27.000Z</time>
      </trkpt>
      <trkpt lat="50.35416" lon="3.59412">
        <ele>67</ele>
        <time>2022-05-09T08:41:28.000Z</time>
      </trkpt>
      <trkpt lat="50.35423" lon="3.59405">
        <ele>67</ele>
        <time>2022-05-09T08:41:30.000Z</time>
      </trkpt>
      <trkpt lat="50.35432" lon="3.594">
        <ele>67</ele>
        <time>2022-05-09T08:41:32.000Z</time>
      </trkpt>
      <trkpt lat="50.35436" lon="3.59397">
        <ele>67</ele>
        <time>2022-05-09T08:41:33.000Z</time>
      </trkpt>
      <trkpt lat="50.3544" lon="3.59395">
        <ele>67</ele>
        <time>2022-05-09T08:41:34.000Z</time>
      </trkpt>
      <trkpt lat="50.35448" lon="3.59389">
        <ele>67</ele>
        <time>2022-05-09T08:41:36.000Z</time>
      </trkpt>
      <trkpt lat="50.35456" lon="3.59385">
        <ele>67</ele>
        <time>2022-05-09T08:41:38.000Z</time>
      </trkpt>
      <trkpt lat="50.35461" lon="3.59382">
        <ele>67</ele>
        <time>2022-05-09T08:41:39.000Z</time>
      </trkpt>
      <trkpt lat="50.35469" lon="3.59376">
        <ele>67</ele>
        <time>2022-05-09T08:41:41.000Z</time>
      </trkpt>
      <trkpt lat="50.35477" lon="3.59371">
        <ele>67.1</ele>
        <time>2022-05-09T08:41:43.000Z</time>
      </trkpt>
      <trkpt lat="50.35482" lon="3.59368">
        <ele>67.1</ele>
        <time>2022-05-09T08:41:44.000Z</time>
      </trkpt>
      <trkpt lat="50.35486" lon="3.59366">
        <ele>67.1</ele>
        <time>2022-05-09T08:41:45.000Z</time>
      </trkpt>
      <trkpt lat="50.3549" lon="3.59363">
        <ele>67.1</ele>
        <time>2022-05-09T08:41:46.000Z</time>
      </trkpt>
      <trkpt lat="50.35495" lon="3.5936">
        <ele>67</ele>
        <time>2022-05-09T08:41:47.000Z</time>
      </trkpt>
      <trkpt lat="50.35502" lon="3.59355">
        <ele>67</ele>
        <time>2022-05-09T08:41:49.000Z</time>
      </trkpt>
      <trkpt lat="50.35507" lon="3.5935">
        <ele>67</ele>
        <time>2022-05-09T08:41:50.000Z</time>
      </trkpt>
      <trkpt lat="50.35514" lon="3.59343">
        <ele>67</ele>
        <time>2022-05-09T08:41:52.000Z</time>
      </trkpt>
      <trkpt lat="50.35522" lon="3.59334">
        <ele>67</ele>
        <time>2022-05-09T08:41:54.392Z</time>
      </trkpt>
      <trkpt lat="50.35532" lon="3.59322">
        <ele>67</ele>
        <time>2022-05-09T08:41:57.000Z</time>
      </trkpt>
      <trkpt lat="50.35538" lon="3.59311">
        <ele>67</ele>
        <time>2022-05-09T08:41:59.000Z</time>
      </trkpt>
      <trkpt lat="50.35543" lon="3.59303">
        <ele>67</ele>
        <time>2022-05-09T08:42:01.000Z</time>
      </trkpt>
      <trkpt lat="50.35549" lon="3.59296">
        <ele>67</ele>
        <time>2022-05-09T08:42:03.000Z</time>
      </trkpt>
      <trkpt lat="50.35555" lon="3.59287">
        <ele>67</ele>
        <time>2022-05-09T08:42:04.995Z</time>
      </trkpt>
      <trkpt lat="50.35561" lon="3.59278">
        <ele>67</ele>
        <time>2022-05-09T08:42:07.000Z</time>
      </trkpt>
      <trkpt lat="50.35564" lon="3.59271">
        <ele>66.8</ele>
        <time>2022-05-09T08:42:08.000Z</time>
      </trkpt>
      <trkpt lat="50.35571" lon="3.59262">
        <ele>66.4</ele>
        <time>2022-05-09T08:42:10.000Z</time>
      </trkpt>
      <trkpt lat="50.35578" lon="3.59252">
        <ele>66.1</ele>
        <time>2022-05-09T08:42:12.000Z</time>
      </trkpt>
      <trkpt lat="50.35584" lon="3.59245">
        <ele>66</ele>
        <time>2022-05-09T08:42:14.000Z</time>
      </trkpt>
      <trkpt lat="50.3559" lon="3.59237">
        <ele>66</ele>
        <time>2022-05-09T08:42:16.000Z</time>
      </trkpt>
      <trkpt lat="50.35594" lon="3.59231">
        <ele>66</ele>
        <time>2022-05-09T08:42:17.000Z</time>
      </trkpt>
      <trkpt lat="50.35598" lon="3.59225">
        <ele>66</ele>
        <time>2022-05-09T08:42:18.000Z</time>
      </trkpt>
      <trkpt lat="50.35604" lon="3.59215">
        <ele>66</ele>
        <time>2022-05-09T08:42:20.000Z</time>
      </trkpt>
      <trkpt lat="50.35608" lon="3.5921">
        <ele>66</ele>
        <time>2022-05-09T08:42:21.000Z</time>
      </trkpt>
      <trkpt lat="50.35615" lon="3.59204">
        <ele>66</ele>
        <time>2022-05-09T08:42:23.000Z</time>
      </trkpt>
      <trkpt lat="50.35619" lon="3.592">
        <ele>66</ele>
        <time>2022-05-09T08:42:24.000Z</time>
      </trkpt>
      <trkpt lat="50.35623" lon="3.59196">
        <ele>66</ele>
        <time>2022-05-09T08:42:25.000Z</time>
      </trkpt>
      <trkpt lat="50.35631" lon="3.59193">
        <ele>66</ele>
        <time>2022-05-09T08:42:27.000Z</time>
      </trkpt>
      <trkpt lat="50.35636" lon="3.5919">
        <ele>66</ele>
        <time>2022-05-09T08:42:28.000Z</time>
      </trkpt>
      <trkpt lat="50.3564" lon="3.59187">
        <ele>66</ele>
        <time>2022-05-09T08:42:29.000Z</time>
      </trkpt>
      <trkpt lat="50.35645" lon="3.59184">
        <ele>66</ele>
        <time>2022-05-09T08:42:30.000Z</time>
      </trkpt>
      <trkpt lat="50.35654" lon="3.59178">
        <ele>66</ele>
        <time>2022-05-09T08:42:32.000Z</time>
      </trkpt>
      <trkpt lat="50.35658" lon="3.59175">
        <ele>66</ele>
        <time>2022-05-09T08:42:33.000Z</time>
      </trkpt>
      <trkpt lat="50.35663" lon="3.59172">
        <ele>66</ele>
        <time>2022-05-09T08:42:34.000Z</time>
      </trkpt>
      <trkpt lat="50.35667" lon="3.59168">
        <ele>66</ele>
        <time>2022-05-09T08:42:35.000Z</time>
      </trkpt>
      <trkpt lat="50.35671" lon="3.59165">
        <ele>65.8</ele>
        <time>2022-05-09T08:42:36.000Z</time>
      </trkpt>
      <trkpt lat="50.35675" lon="3.59162">
        <ele>65.7</ele>
        <time>2022-05-09T08:42:37.000Z</time>
      </trkpt>
      <trkpt lat="50.3568" lon="3.59157">
        <ele>65.5</ele>
        <time>2022-05-09T08:42:38.000Z</time>
      </trkpt>
      <trkpt lat="50.35684" lon="3.59154">
        <ele>65.4</ele>
        <time>2022-05-09T08:42:39.000Z</time>
      </trkpt>
      <trkpt lat="50.35689" lon="3.5915">
        <ele>65.2</ele>
        <time>2022-05-09T08:42:40.000Z</time>
      </trkpt>
      <trkpt lat="50.35693" lon="3.59146">
        <ele>65</ele>
        <time>2022-05-09T08:42:41.000Z</time>
      </trkpt>
      <trkpt lat="50.35699" lon="3.59143">
        <ele>65</ele>
        <time>2022-05-09T08:42:42.000Z</time>
      </trkpt>
      <trkpt lat="50.35703" lon="3.5914">
        <ele>65</ele>
        <time>2022-05-09T08:42:43.000Z</time>
      </trkpt>
      <trkpt lat="50.35708" lon="3.59137">
        <ele>65</ele>
        <time>2022-05-09T08:42:44.000Z</time>
      </trkpt>
      <trkpt lat="50.35713" lon="3.59135">
        <ele>64.9</ele>
        <time>2022-05-09T08:42:45.000Z</time>
      </trkpt>
      <trkpt lat="50.35719" lon="3.59132">
        <ele>64.8</ele>
        <time>2022-05-09T08:42:46.000Z</time>
      </trkpt>
      <trkpt lat="50.35724" lon="3.59129">
        <ele>64.6</ele>
        <time>2022-05-09T08:42:47.000Z</time>
      </trkpt>
      <trkpt lat="50.35728" lon="3.59127">
        <ele>64.4</ele>
        <time>2022-05-09T08:42:48.000Z</time>
      </trkpt>
      <trkpt lat="50.35733" lon="3.59123">
        <ele>64.3</ele>
        <time>2022-05-09T08:42:49.000Z</time>
      </trkpt>
      <trkpt lat="50.35737" lon="3.59118">
        <ele>64.1</ele>
        <time>2022-05-09T08:42:50.000Z</time>
      </trkpt>
      <trkpt lat="50.35747" lon="3.5911">
        <ele>64</ele>
        <time>2022-05-09T08:42:52.000Z</time>
      </trkpt>
      <trkpt lat="50.35752" lon="3.59106">
        <ele>63.9</ele>
        <time>2022-05-09T08:42:53.000Z</time>
      </trkpt>
      <trkpt lat="50.35757" lon="3.59103">
        <ele>63.8</ele>
        <time>2022-05-09T08:42:54.000Z</time>
      </trkpt>
      <trkpt lat="50.35762" lon="3.59099">
        <ele>63.6</ele>
        <time>2022-05-09T08:42:55.000Z</time>
      </trkpt>
      <trkpt lat="50.35766" lon="3.59095">
        <ele>63.4</ele>
        <time>2022-05-09T08:42:56.000Z</time>
      </trkpt>
      <trkpt lat="50.35771" lon="3.59092">
        <ele>63.2</ele>
        <time>2022-05-09T08:42:57.000Z</time>
      </trkpt>
      <trkpt lat="50.35776" lon="3.5909">
        <ele>63.1</ele>
        <time>2022-05-09T08:42:58.000Z</time>
      </trkpt>
      <trkpt lat="50.35781" lon="3.59087">
        <ele>62.9</ele>
        <time>2022-05-09T08:42:59.000Z</time>
      </trkpt>
      <trkpt lat="50.35787" lon="3.59086">
        <ele>62.7</ele>
        <time>2022-05-09T08:43:00.000Z</time>
      </trkpt>
      <trkpt lat="50.35792" lon="3.59086">
        <ele>62.5</ele>
        <time>2022-05-09T08:43:01.000Z</time>
      </trkpt>
      <trkpt lat="50.35799" lon="3.59085">
        <ele>62.2</ele>
        <time>2022-05-09T08:43:02.000Z</time>
      </trkpt>
      <trkpt lat="50.35804" lon="3.59083">
        <ele>62.1</ele>
        <time>2022-05-09T08:43:03.000Z</time>
      </trkpt>
      <trkpt lat="50.3581" lon="3.59082">
        <ele>61.9</ele>
        <time>2022-05-09T08:43:04.000Z</time>
      </trkpt>
      <trkpt lat="50.35816" lon="3.59082">
        <ele>61.7</ele>
        <time>2022-05-09T08:43:05.000Z</time>
      </trkpt>
      <trkpt lat="50.35823" lon="3.59082">
        <ele>61.4</ele>
        <time>2022-05-09T08:43:06.000Z</time>
      </trkpt>
      <trkpt lat="50.35828" lon="3.59082">
        <ele>61.3</ele>
        <time>2022-05-09T08:43:07.000Z</time>
      </trkpt>
      <trkpt lat="50.35834" lon="3.59083">
        <ele>61.1</ele>
        <time>2022-05-09T08:43:08.000Z</time>
      </trkpt>
      <trkpt lat="50.35846" lon="3.59087">
        <ele>61</ele>
        <time>2022-05-09T08:43:10.000Z</time>
      </trkpt>
      <trkpt lat="50.35853" lon="3.59091">
        <ele>61</ele>
        <time>2022-05-09T08:43:11.000Z</time>
      </trkpt>
      <trkpt lat="50.35858" lon="3.59094">
        <ele>61</ele>
        <time>2022-05-09T08:43:12.000Z</time>
      </trkpt>
      <trkpt lat="50.35863" lon="3.59096">
        <ele>61</ele>
        <time>2022-05-09T08:43:13.000Z</time>
      </trkpt>
      <trkpt lat="50.35867" lon="3.59098">
        <ele>61</ele>
        <time>2022-05-09T08:43:15.000Z</time>
      </trkpt>
      <trkpt lat="50.35873" lon="3.59096">
        <ele>61</ele>
        <time>2022-05-09T08:43:17.000Z</time>
      </trkpt>
      <trkpt lat="50.35876" lon="3.59087">
        <ele>61</ele>
        <time>2022-05-09T08:43:19.000Z</time>
      </trkpt>
      <trkpt lat="50.35877" lon="3.59077">
        <ele>61.1</ele>
        <time>2022-05-09T08:43:21.000Z</time>
      </trkpt>
      <trkpt lat="50.35878" lon="3.59063">
        <ele>61.3</ele>
        <time>2022-05-09T08:43:23.000Z</time>
      </trkpt>
      <trkpt lat="50.35878" lon="3.59056">
        <ele>61.4</ele>
        <time>2022-05-09T08:43:24.000Z</time>
      </trkpt>
      <trkpt lat="50.3588" lon="3.59043">
        <ele>61.5</ele>
        <time>2022-05-09T08:43:26.000Z</time>
      </trkpt>
      <trkpt lat="50.35881" lon="3.59029">
        <ele>61.5</ele>
        <time>2022-05-09T08:43:28.000Z</time>
      </trkpt>
      <trkpt lat="50.35883" lon="3.59017">
        <ele>61.1</ele>
        <time>2022-05-09T08:43:30.000Z</time>
      </trkpt>
      <trkpt lat="50.35885" lon="3.59008">
        <ele>60.7</ele>
        <time>2022-05-09T08:43:31.000Z</time>
      </trkpt>
      <trkpt lat="50.35885" lon="3.59001">
        <ele>60.5</ele>
        <time>2022-05-09T08:43:32.000Z</time>
      </trkpt>
      <trkpt lat="50.35886" lon="3.58988">
        <ele>59.9</ele>
        <time>2022-05-09T08:43:34.000Z</time>
      </trkpt>
      <trkpt lat="50.35888" lon="3.58973">
        <ele>59.1</ele>
        <time>2022-05-09T08:43:36.000Z</time>
      </trkpt>
      <trkpt lat="50.3589" lon="3.5896">
        <ele>59</ele>
        <time>2022-05-09T08:43:38.000Z</time>
      </trkpt>
      <trkpt lat="50.35891" lon="3.58951">
        <ele>59.1</ele>
        <time>2022-05-09T08:43:39.000Z</time>
      </trkpt>
      <trkpt lat="50.35891" lon="3.58943">
        <ele>59.1</ele>
        <time>2022-05-09T08:43:40.000Z</time>
      </trkpt>
      <trkpt lat="50.35893" lon="3.5893">
        <ele>59.1</ele>
        <time>2022-05-09T08:43:42.000Z</time>
      </trkpt>
      <trkpt lat="50.35894" lon="3.58922">
        <ele>59</ele>
        <time>2022-05-09T08:43:43.000Z</time>
      </trkpt>
      <trkpt lat="50.35896" lon="3.58907">
        <ele>59</ele>
        <time>2022-05-09T08:43:45.000Z</time>
      </trkpt>
      <trkpt lat="50.35896" lon="3.589">
        <ele>59</ele>
        <time>2022-05-09T08:43:46.000Z</time>
      </trkpt>
      <trkpt lat="50.35897" lon="3.58892">
        <ele>59</ele>
        <time>2022-05-09T08:43:47.000Z</time>
      </trkpt>
      <trkpt lat="50.35897" lon="3.58885">
        <ele>59</ele>
        <time>2022-05-09T08:43:48.000Z</time>
      </trkpt>
      <trkpt lat="50.35898" lon="3.58876">
        <ele>59</ele>
        <time>2022-05-09T08:43:49.000Z</time>
      </trkpt>
      <trkpt lat="50.359" lon="3.58862">
        <ele>59</ele>
        <time>2022-05-09T08:43:51.000Z</time>
      </trkpt>
      <trkpt lat="50.35901" lon="3.58854">
        <ele>59</ele>
        <time>2022-05-09T08:43:52.000Z</time>
      </trkpt>
      <trkpt lat="50.35902" lon="3.58839">
        <ele>59</ele>
        <time>2022-05-09T08:43:54.000Z</time>
      </trkpt>
      <trkpt lat="50.35904" lon="3.58826">
        <ele>59</ele>
        <time>2022-05-09T08:43:56.000Z</time>
      </trkpt>
      <trkpt lat="50.35904" lon="3.58817">
        <ele>59</ele>
        <time>2022-05-09T08:43:57.000Z</time>
      </trkpt>
      <trkpt lat="50.35906" lon="3.58803">
        <ele>59</ele>
        <time>2022-05-09T08:43:59.000Z</time>
      </trkpt>
      <trkpt lat="50.35907" lon="3.58794">
        <ele>59.1</ele>
        <time>2022-05-09T08:44:00.000Z</time>
      </trkpt>
      <trkpt lat="50.35908" lon="3.58779">
        <ele>59.3</ele>
        <time>2022-05-09T08:44:02.000Z</time>
      </trkpt>
      <trkpt lat="50.35909" lon="3.58772">
        <ele>59.4</ele>
        <time>2022-05-09T08:44:03.000Z</time>
      </trkpt>
      <trkpt lat="50.3591" lon="3.58759">
        <ele>59.8</ele>
        <time>2022-05-09T08:44:05.000Z</time>
      </trkpt>
      <trkpt lat="50.35911" lon="3.5875">
        <ele>60</ele>
        <time>2022-05-09T08:44:06.000Z</time>
      </trkpt>
      <trkpt lat="50.35912" lon="3.58739">
        <ele>59.7</ele>
        <time>2022-05-09T08:44:08.000Z</time>
      </trkpt>
      <trkpt lat="50.35914" lon="3.5873">
        <ele>59.4</ele>
        <time>2022-05-09T08:44:09.000Z</time>
      </trkpt>
      <trkpt lat="50.35914" lon="3.5872">
        <ele>58.7</ele>
        <time>2022-05-09T08:44:11.000Z</time>
      </trkpt>
      <trkpt lat="50.35915" lon="3.58709">
        <ele>57.2</ele>
        <time>2022-05-09T08:44:12.000Z</time>
      </trkpt>
      <trkpt lat="50.35916" lon="3.58694">
        <ele>55.1</ele>
        <time>2022-05-09T08:44:14.000Z</time>
      </trkpt>
      <trkpt lat="50.35917" lon="3.58686">
        <ele>55</ele>
        <time>2022-05-09T08:44:15.000Z</time>
      </trkpt>
      <trkpt lat="50.35918" lon="3.58672">
        <ele>55</ele>
        <time>2022-05-09T08:44:17.000Z</time>
      </trkpt>
      <trkpt lat="50.35919" lon="3.58665">
        <ele>55.2</ele>
        <time>2022-05-09T08:44:18.000Z</time>
      </trkpt>
      <trkpt lat="50.3592" lon="3.58656">
        <ele>55.9</ele>
        <time>2022-05-09T08:44:19.000Z</time>
      </trkpt>
      <trkpt lat="50.35921" lon="3.58642">
        <ele>56.8</ele>
        <time>2022-05-09T08:44:21.000Z</time>
      </trkpt>
      <trkpt lat="50.35922" lon="3.58634">
        <ele>57.5</ele>
        <time>2022-05-09T08:44:22.000Z</time>
      </trkpt>
      <trkpt lat="50.35923" lon="3.58626">
        <ele>58.1</ele>
        <time>2022-05-09T08:44:23.000Z</time>
      </trkpt>
      <trkpt lat="50.35923" lon="3.58618">
        <ele>58.7</ele>
        <time>2022-05-09T08:44:24.000Z</time>
      </trkpt>
      <trkpt lat="50.35924" lon="3.58611">
        <ele>59.3</ele>
        <time>2022-05-09T08:44:25.000Z</time>
      </trkpt>
      <trkpt lat="50.35924" lon="3.58604">
        <ele>59</ele>
        <time>2022-05-09T08:44:26.000Z</time>
      </trkpt>
      <trkpt lat="50.35925" lon="3.58595">
        <ele>58.7</ele>
        <time>2022-05-09T08:44:27.000Z</time>
      </trkpt>
      <trkpt lat="50.35926" lon="3.58588">
        <ele>58.4</ele>
        <time>2022-05-09T08:44:28.000Z</time>
      </trkpt>
      <trkpt lat="50.35927" lon="3.58579">
        <ele>58.1</ele>
        <time>2022-05-09T08:44:29.000Z</time>
      </trkpt>
      <trkpt lat="50.35928" lon="3.58569">
        <ele>57.7</ele>
        <time>2022-05-09T08:44:30.000Z</time>
      </trkpt>
      <trkpt lat="50.35929" lon="3.58562">
        <ele>57.4</ele>
        <time>2022-05-09T08:44:31.000Z</time>
      </trkpt>
      <trkpt lat="50.35929" lon="3.58554">
        <ele>57.1</ele>
        <time>2022-05-09T08:44:32.000Z</time>
      </trkpt>
      <trkpt lat="50.35931" lon="3.58543">
        <ele>57</ele>
        <time>2022-05-09T08:44:33.000Z</time>
      </trkpt>
      <trkpt lat="50.35931" lon="3.58535">
        <ele>57</ele>
        <time>2022-05-09T08:44:34.000Z</time>
      </trkpt>
      <trkpt lat="50.35933" lon="3.58527">
        <ele>57</ele>
        <time>2022-05-09T08:44:35.000Z</time>
      </trkpt>
      <trkpt lat="50.35938" lon="3.58519">
        <ele>56.7</ele>
        <time>2022-05-09T08:44:36.000Z</time>
      </trkpt>
      <trkpt lat="50.35945" lon="3.58515">
        <ele>56.5</ele>
        <time>2022-05-09T08:44:37.000Z</time>
      </trkpt>
      <trkpt lat="50.3595" lon="3.58515">
        <ele>56.4</ele>
        <time>2022-05-09T08:44:38.000Z</time>
      </trkpt>
      <trkpt lat="50.35956" lon="3.58515">
        <ele>56.3</ele>
        <time>2022-05-09T08:44:39.000Z</time>
      </trkpt>
      <trkpt lat="50.35964" lon="3.58514">
        <ele>56.2</ele>
        <time>2022-05-09T08:44:40.000Z</time>
      </trkpt>
      <trkpt lat="50.35969" lon="3.58516">
        <ele>56.1</ele>
        <time>2022-05-09T08:44:41.000Z</time>
      </trkpt>
      <trkpt lat="50.35975" lon="3.58522">
        <ele>55.9</ele>
        <time>2022-05-09T08:44:42.000Z</time>
      </trkpt>
      <trkpt lat="50.35977" lon="3.5853">
        <ele>55.8</ele>
        <time>2022-05-09T08:44:43.000Z</time>
      </trkpt>
      <trkpt lat="50.35979" lon="3.58542">
        <ele>55.8</ele>
        <time>2022-05-09T08:44:44.000Z</time>
      </trkpt>
      <trkpt lat="50.35978" lon="3.5855">
        <ele>55.8</ele>
        <time>2022-05-09T08:44:45.000Z</time>
      </trkpt>
      <trkpt lat="50.35975" lon="3.58561">
        <ele>55.9</ele>
        <time>2022-05-09T08:44:46.000Z</time>
      </trkpt>
      <trkpt lat="50.35972" lon="3.5857">
        <ele>56</ele>
        <time>2022-05-09T08:44:47.000Z</time>
      </trkpt>
      <trkpt lat="50.3597" lon="3.58577">
        <ele>56.1</ele>
        <time>2022-05-09T08:44:48.000Z</time>
      </trkpt>
      <trkpt lat="50.35967" lon="3.58582">
        <ele>56.2</ele>
        <time>2022-05-09T08:44:49.000Z</time>
      </trkpt>
      <trkpt lat="50.35964" lon="3.58588">
        <ele>56.4</ele>
        <time>2022-05-09T08:44:50.000Z</time>
      </trkpt>
      <trkpt lat="50.35961" lon="3.58595">
        <ele>56.7</ele>
        <time>2022-05-09T08:44:51.000Z</time>
      </trkpt>
      <trkpt lat="50.35957" lon="3.58604">
        <ele>56.9</ele>
        <time>2022-05-09T08:44:53.000Z</time>
      </trkpt>
      <trkpt lat="50.35954" lon="3.58614">
        <ele>57</ele>
        <time>2022-05-09T08:44:55.000Z</time>
      </trkpt>
      <trkpt lat="50.35951" lon="3.58622">
        <ele>57</ele>
        <time>2022-05-09T08:44:56.000Z</time>
      </trkpt>
      <trkpt lat="50.35949" lon="3.58629">
        <ele>57</ele>
        <time>2022-05-09T08:44:57.000Z</time>
      </trkpt>
      <trkpt lat="50.35948" lon="3.58636">
        <ele>57</ele>
        <time>2022-05-09T08:44:58.000Z</time>
      </trkpt>
      <trkpt lat="50.35948" lon="3.58649">
        <ele>56.7</ele>
        <time>2022-05-09T08:45:00.303Z</time>
      </trkpt>
      <trkpt lat="50.35952" lon="3.58663">
        <ele>56.3</ele>
        <time>2022-05-09T08:45:03.002Z</time>
      </trkpt>
      <trkpt lat="50.35959" lon="3.58673">
        <ele>56.3</ele>
        <time>2022-05-09T08:45:05.000Z</time>
      </trkpt>
      <trkpt lat="50.35965" lon="3.58679">
        <ele>56.3</ele>
        <time>2022-05-09T08:45:07.803Z</time>
      </trkpt>
      <trkpt lat="50.35974" lon="3.58689">
        <ele>56.2</ele>
        <time>2022-05-09T08:45:10.318Z</time>
      </trkpt>
      <trkpt lat="50.35979" lon="3.58693">
        <ele>56</ele>
        <time>2022-05-09T08:45:11.701Z</time>
      </trkpt>
      <trkpt lat="50.35985" lon="3.587">
        <ele>55.8</ele>
        <time>2022-05-09T08:45:13.000Z</time>
      </trkpt>
      <trkpt lat="50.35992" lon="3.58709">
        <ele>55.7</ele>
        <time>2022-05-09T08:45:15.000Z</time>
      </trkpt>
      <trkpt lat="50.35999" lon="3.58717">
        <ele>55.9</ele>
        <time>2022-05-09T08:45:17.000Z</time>
      </trkpt>
      <trkpt lat="50.36002" lon="3.58722">
        <ele>56</ele>
        <time>2022-05-09T08:45:18.000Z</time>
      </trkpt>
      <trkpt lat="50.36006" lon="3.58727">
        <ele>55.7</ele>
        <time>2022-05-09T08:45:19.000Z</time>
      </trkpt>
      <trkpt lat="50.36011" lon="3.58733">
        <ele>55.5</ele>
        <time>2022-05-09T08:45:20.000Z</time>
      </trkpt>
      <trkpt lat="50.36015" lon="3.58738">
        <ele>55.5</ele>
        <time>2022-05-09T08:45:21.000Z</time>
      </trkpt>
      <trkpt lat="50.36019" lon="3.58743">
        <ele>55.5</ele>
        <time>2022-05-09T08:45:22.000Z</time>
      </trkpt>
      <trkpt lat="50.36024" lon="3.58749">
        <ele>55.8</ele>
        <time>2022-05-09T08:45:23.000Z</time>
      </trkpt>
      <trkpt lat="50.36028" lon="3.58754">
        <ele>55.9</ele>
        <time>2022-05-09T08:45:24.000Z</time>
      </trkpt>
      <trkpt lat="50.36032" lon="3.58761">
        <ele>55.6</ele>
        <time>2022-05-09T08:45:25.000Z</time>
      </trkpt>
      <trkpt lat="50.36035" lon="3.58766">
        <ele>55.5</ele>
        <time>2022-05-09T08:45:26.000Z</time>
      </trkpt>
      <trkpt lat="50.36039" lon="3.58771">
        <ele>55.4</ele>
        <time>2022-05-09T08:45:27.000Z</time>
      </trkpt>
      <trkpt lat="50.36044" lon="3.58777">
        <ele>55.6</ele>
        <time>2022-05-09T08:45:28.000Z</time>
      </trkpt>
      <trkpt lat="50.36048" lon="3.58782">
        <ele>55.6</ele>
        <time>2022-05-09T08:45:29.000Z</time>
      </trkpt>
      <trkpt lat="50.36051" lon="3.58787">
        <ele>55.5</ele>
        <time>2022-05-09T08:45:30.000Z</time>
      </trkpt>
      <trkpt lat="50.36056" lon="3.58793">
        <ele>55.4</ele>
        <time>2022-05-09T08:45:31.000Z</time>
      </trkpt>
      <trkpt lat="50.3606" lon="3.58798">
        <ele>55.3</ele>
        <time>2022-05-09T08:45:32.000Z</time>
      </trkpt>
      <trkpt lat="50.36064" lon="3.58803">
        <ele>55.3</ele>
        <time>2022-05-09T08:45:33.000Z</time>
      </trkpt>
      <trkpt lat="50.36072" lon="3.58811">
        <ele>55.5</ele>
        <time>2022-05-09T08:45:35.000Z</time>
      </trkpt>
      <trkpt lat="50.36077" lon="3.58816">
        <ele>55.7</ele>
        <time>2022-05-09T08:45:37.000Z</time>
      </trkpt>
      <trkpt lat="50.36083" lon="3.58825">
        <ele>56</ele>
        <time>2022-05-09T08:45:39.000Z</time>
      </trkpt>
      <trkpt lat="50.36087" lon="3.5883">
        <ele>56</ele>
        <time>2022-05-09T08:45:40.000Z</time>
      </trkpt>
      <trkpt lat="50.36091" lon="3.58836">
        <ele>55.9</ele>
        <time>2022-05-09T08:45:42.000Z</time>
      </trkpt>
      <trkpt lat="50.36096" lon="3.58838">
        <ele>55.8</ele>
        <time>2022-05-09T08:45:44.041Z</time>
      </trkpt>
      <trkpt lat="50.361" lon="3.58842">
        <ele>55.7</ele>
        <time>2022-05-09T08:45:45.025Z</time>
      </trkpt>
      <trkpt lat="50.36103" lon="3.58847">
        <ele>55.7</ele>
        <time>2022-05-09T08:45:45.979Z</time>
      </trkpt>
      <trkpt lat="50.36108" lon="3.58853">
        <ele>55.8</ele>
        <time>2022-05-09T08:45:47.000Z</time>
      </trkpt>
      <trkpt lat="50.36112" lon="3.58857">
        <ele>56</ele>
        <time>2022-05-09T08:45:48.160Z</time>
      </trkpt>
      <trkpt lat="50.36118" lon="3.58866">
        <ele>55.8</ele>
        <time>2022-05-09T08:45:50.062Z</time>
      </trkpt>
      <trkpt lat="50.36124" lon="3.58872">
        <ele>55.6</ele>
        <time>2022-05-09T08:45:52.941Z</time>
      </trkpt>
      <trkpt lat="50.3613" lon="3.58882">
        <ele>55.5</ele>
        <time>2022-05-09T08:45:55.583Z</time>
      </trkpt>
      <trkpt lat="50.36135" lon="3.58889">
        <ele>55.7</ele>
        <time>2022-05-09T08:45:57.821Z</time>
      </trkpt>
      <trkpt lat="50.36143" lon="3.58898">
        <ele>55.3</ele>
        <time>2022-05-09T08:45:59.986Z</time>
      </trkpt>
      <trkpt lat="50.36149" lon="3.58908">
        <ele>54.8</ele>
        <time>2022-05-09T08:46:02.105Z</time>
      </trkpt>
      <trkpt lat="50.36156" lon="3.58914">
        <ele>54.7</ele>
        <time>2022-05-09T08:46:04.583Z</time>
      </trkpt>
      <trkpt lat="50.3616" lon="3.58921">
        <ele>54.7</ele>
        <time>2022-05-09T08:46:06.326Z</time>
      </trkpt>
      <trkpt lat="50.36166" lon="3.58928">
        <ele>55</ele>
        <time>2022-05-09T08:46:08.663Z</time>
      </trkpt>
      <trkpt lat="50.36172" lon="3.58936">
        <ele>55</ele>
        <time>2022-05-09T08:46:11.000Z</time>
      </trkpt>
      <trkpt lat="50.3618" lon="3.58945">
        <ele>55</ele>
        <time>2022-05-09T08:46:13.344Z</time>
      </trkpt>
      <trkpt lat="50.36185" lon="3.58951">
        <ele>54.9</ele>
        <time>2022-05-09T08:46:15.000Z</time>
      </trkpt>
      <trkpt lat="50.36188" lon="3.58956">
        <ele>54.9</ele>
        <time>2022-05-09T08:46:16.085Z</time>
      </trkpt>
      <trkpt lat="50.36192" lon="3.58962">
        <ele>54.9</ele>
        <time>2022-05-09T08:46:17.000Z</time>
      </trkpt>
      <trkpt lat="50.36196" lon="3.58967">
        <ele>55</ele>
        <time>2022-05-09T08:46:18.000Z</time>
      </trkpt>
      <trkpt lat="50.362" lon="3.58972">
        <ele>55</ele>
        <time>2022-05-09T08:46:19.000Z</time>
      </trkpt>
      <trkpt lat="50.36203" lon="3.58977">
        <ele>54.9</ele>
        <time>2022-05-09T08:46:20.000Z</time>
      </trkpt>
      <trkpt lat="50.36207" lon="3.58982">
        <ele>54.8</ele>
        <time>2022-05-09T08:46:21.000Z</time>
      </trkpt>
      <trkpt lat="50.36211" lon="3.58987">
        <ele>54.8</ele>
        <time>2022-05-09T08:46:22.000Z</time>
      </trkpt>
      <trkpt lat="50.36214" lon="3.58992">
        <ele>54.8</ele>
        <time>2022-05-09T08:46:23.000Z</time>
      </trkpt>
      <trkpt lat="50.36222" lon="3.59003">
        <ele>54.9</ele>
        <time>2022-05-09T08:46:25.000Z</time>
      </trkpt>
      <trkpt lat="50.36227" lon="3.5901">
        <ele>54.5</ele>
        <time>2022-05-09T08:46:26.000Z</time>
      </trkpt>
      <trkpt lat="50.36231" lon="3.59015">
        <ele>54.3</ele>
        <time>2022-05-09T08:46:27.000Z</time>
      </trkpt>
      <trkpt lat="50.36235" lon="3.5902">
        <ele>54.1</ele>
        <time>2022-05-09T08:46:28.000Z</time>
      </trkpt>
      <trkpt lat="50.3624" lon="3.59027">
        <ele>54</ele>
        <time>2022-05-09T08:46:29.000Z</time>
      </trkpt>
      <trkpt lat="50.36243" lon="3.59032">
        <ele>54</ele>
        <time>2022-05-09T08:46:30.000Z</time>
      </trkpt>
      <trkpt lat="50.36247" lon="3.59038">
        <ele>54</ele>
        <time>2022-05-09T08:46:31.000Z</time>
      </trkpt>
      <trkpt lat="50.36252" lon="3.59044">
        <ele>53.9</ele>
        <time>2022-05-09T08:46:32.000Z</time>
      </trkpt>
      <trkpt lat="50.36257" lon="3.59049">
        <ele>53.8</ele>
        <time>2022-05-09T08:46:33.000Z</time>
      </trkpt>
      <trkpt lat="50.36261" lon="3.59055">
        <ele>53.6</ele>
        <time>2022-05-09T08:46:34.000Z</time>
      </trkpt>
      <trkpt lat="50.36265" lon="3.59061">
        <ele>53.5</ele>
        <time>2022-05-09T08:46:35.000Z</time>
      </trkpt>
      <trkpt lat="50.3627" lon="3.59067">
        <ele>53.3</ele>
        <time>2022-05-09T08:46:36.000Z</time>
      </trkpt>
      <trkpt lat="50.36273" lon="3.59072">
        <ele>53.2</ele>
        <time>2022-05-09T08:46:37.000Z</time>
      </trkpt>
      <trkpt lat="50.36278" lon="3.59079">
        <ele>53</ele>
        <time>2022-05-09T08:46:38.000Z</time>
      </trkpt>
      <trkpt lat="50.36282" lon="3.59084">
        <ele>53</ele>
        <time>2022-05-09T08:46:39.000Z</time>
      </trkpt>
      <trkpt lat="50.36286" lon="3.59089">
        <ele>53</ele>
        <time>2022-05-09T08:46:40.000Z</time>
      </trkpt>
      <trkpt lat="50.36291" lon="3.59096">
        <ele>53</ele>
        <time>2022-05-09T08:46:41.000Z</time>
      </trkpt>
      <trkpt lat="50.36295" lon="3.59102">
        <ele>53</ele>
        <time>2022-05-09T08:46:42.000Z</time>
      </trkpt>
      <trkpt lat="50.36299" lon="3.59107">
        <ele>53</ele>
        <time>2022-05-09T08:46:43.000Z</time>
      </trkpt>
      <trkpt lat="50.36304" lon="3.59112">
        <ele>53</ele>
        <time>2022-05-09T08:46:44.000Z</time>
      </trkpt>
      <trkpt lat="50.36307" lon="3.59117">
        <ele>52.9</ele>
        <time>2022-05-09T08:46:45.000Z</time>
      </trkpt>
      <trkpt lat="50.36312" lon="3.59124">
        <ele>52.8</ele>
        <time>2022-05-09T08:46:46.000Z</time>
      </trkpt>
      <trkpt lat="50.36316" lon="3.59129">
        <ele>52.6</ele>
        <time>2022-05-09T08:46:47.000Z</time>
      </trkpt>
      <trkpt lat="50.36321" lon="3.59135">
        <ele>52.5</ele>
        <time>2022-05-09T08:46:48.000Z</time>
      </trkpt>
      <trkpt lat="50.36326" lon="3.59141">
        <ele>52.3</ele>
        <time>2022-05-09T08:46:49.000Z</time>
      </trkpt>
      <trkpt lat="50.36331" lon="3.59147">
        <ele>52.3</ele>
        <time>2022-05-09T08:46:50.000Z</time>
      </trkpt>
      <trkpt lat="50.36335" lon="3.59151">
        <ele>52.4</ele>
        <time>2022-05-09T08:46:51.000Z</time>
      </trkpt>
      <trkpt lat="50.3634" lon="3.59156">
        <ele>52.3</ele>
        <time>2022-05-09T08:46:52.000Z</time>
      </trkpt>
      <trkpt lat="50.36343" lon="3.59161">
        <ele>52.2</ele>
        <time>2022-05-09T08:46:53.000Z</time>
      </trkpt>
      <trkpt lat="50.36347" lon="3.59166">
        <ele>52</ele>
        <time>2022-05-09T08:46:54.000Z</time>
      </trkpt>
      <trkpt lat="50.36351" lon="3.59172">
        <ele>51.9</ele>
        <time>2022-05-09T08:46:55.000Z</time>
      </trkpt>
      <trkpt lat="50.36357" lon="3.59181">
        <ele>51.8</ele>
        <time>2022-05-09T08:46:57.000Z</time>
      </trkpt>
      <trkpt lat="50.36361" lon="3.59187">
        <ele>51.7</ele>
        <time>2022-05-09T08:46:58.000Z</time>
      </trkpt>
      <trkpt lat="50.36368" lon="3.59196">
        <ele>52.1</ele>
        <time>2022-05-09T08:47:00.000Z</time>
      </trkpt>
      <trkpt lat="50.36373" lon="3.59204">
        <ele>52.2</ele>
        <time>2022-05-09T08:47:02.000Z</time>
      </trkpt>
      <trkpt lat="50.36377" lon="3.59209">
        <ele>52.2</ele>
        <time>2022-05-09T08:47:03.000Z</time>
      </trkpt>
      <trkpt lat="50.36382" lon="3.59214">
        <ele>52.2</ele>
        <time>2022-05-09T08:47:04.000Z</time>
      </trkpt>
      <trkpt lat="50.36388" lon="3.59224">
        <ele>52.1</ele>
        <time>2022-05-09T08:47:06.000Z</time>
      </trkpt>
      <trkpt lat="50.36392" lon="3.59229">
        <ele>52.2</ele>
        <time>2022-05-09T08:47:07.000Z</time>
      </trkpt>
      <trkpt lat="50.36403" lon="3.59242">
        <ele>52.4</ele>
        <time>2022-05-09T08:47:10.000Z</time>
      </trkpt>
      <trkpt lat="50.36406" lon="3.59246">
        <ele>52.3</ele>
        <time>2022-05-09T08:47:11.000Z</time>
      </trkpt>
      <trkpt lat="50.3641" lon="3.59251">
        <ele>52.2</ele>
        <time>2022-05-09T08:47:13.057Z</time>
      </trkpt>
      <trkpt lat="50.36414" lon="3.59256">
        <ele>52.1</ele>
        <time>2022-05-09T08:47:14.018Z</time>
      </trkpt>
      <trkpt lat="50.3642" lon="3.59264">
        <ele>52</ele>
        <time>2022-05-09T08:47:15.137Z</time>
      </trkpt>
      <trkpt lat="50.36426" lon="3.59272">
        <ele>52</ele>
        <time>2022-05-09T08:47:16.957Z</time>
      </trkpt>
      <trkpt lat="50.36431" lon="3.5928">
        <ele>52</ele>
        <time>2022-05-09T08:47:18.000Z</time>
      </trkpt>
      <trkpt lat="50.36438" lon="3.59288">
        <ele>52</ele>
        <time>2022-05-09T08:47:20.000Z</time>
      </trkpt>
      <trkpt lat="50.36446" lon="3.59296">
        <ele>52</ele>
        <time>2022-05-09T08:47:22.000Z</time>
      </trkpt>
      <trkpt lat="50.3645" lon="3.59301">
        <ele>51.8</ele>
        <time>2022-05-09T08:47:23.000Z</time>
      </trkpt>
      <trkpt lat="50.36453" lon="3.59306">
        <ele>51.7</ele>
        <time>2022-05-09T08:47:24.000Z</time>
      </trkpt>
      <trkpt lat="50.36456" lon="3.59311">
        <ele>51.6</ele>
        <time>2022-05-09T08:47:25.000Z</time>
      </trkpt>
      <trkpt lat="50.3646" lon="3.59316">
        <ele>51.4</ele>
        <time>2022-05-09T08:47:26.000Z</time>
      </trkpt>
      <trkpt lat="50.36464" lon="3.5932">
        <ele>51.3</ele>
        <time>2022-05-09T08:47:27.000Z</time>
      </trkpt>
      <trkpt lat="50.36468" lon="3.59324">
        <ele>51.2</ele>
        <time>2022-05-09T08:47:28.000Z</time>
      </trkpt>
      <trkpt lat="50.36472" lon="3.59329">
        <ele>51</ele>
        <time>2022-05-09T08:47:29.000Z</time>
      </trkpt>
      <trkpt lat="50.36475" lon="3.59334">
        <ele>51</ele>
        <time>2022-05-09T08:47:30.000Z</time>
      </trkpt>
      <trkpt lat="50.36479" lon="3.59339">
        <ele>51.1</ele>
        <time>2022-05-09T08:47:31.000Z</time>
      </trkpt>
      <trkpt lat="50.36482" lon="3.59344">
        <ele>51.2</ele>
        <time>2022-05-09T08:47:32.000Z</time>
      </trkpt>
      <trkpt lat="50.36486" lon="3.59348">
        <ele>51.3</ele>
        <time>2022-05-09T08:47:33.000Z</time>
      </trkpt>
      <trkpt lat="50.36491" lon="3.59353">
        <ele>51.2</ele>
        <time>2022-05-09T08:47:34.000Z</time>
      </trkpt>
      <trkpt lat="50.36495" lon="3.59358">
        <ele>51.2</ele>
        <time>2022-05-09T08:47:35.000Z</time>
      </trkpt>
      <trkpt lat="50.36499" lon="3.59364">
        <ele>51</ele>
        <time>2022-05-09T08:47:36.000Z</time>
      </trkpt>
      <trkpt lat="50.36503" lon="3.59369">
        <ele>50.9</ele>
        <time>2022-05-09T08:47:37.000Z</time>
      </trkpt>
      <trkpt lat="50.36508" lon="3.59375">
        <ele>50.7</ele>
        <time>2022-05-09T08:47:38.000Z</time>
      </trkpt>
      <trkpt lat="50.36512" lon="3.5938">
        <ele>50.6</ele>
        <time>2022-05-09T08:47:39.000Z</time>
      </trkpt>
      <trkpt lat="50.36515" lon="3.59386">
        <ele>50.4</ele>
        <time>2022-05-09T08:47:40.000Z</time>
      </trkpt>
      <trkpt lat="50.36519" lon="3.59391">
        <ele>50.4</ele>
        <time>2022-05-09T08:47:41.000Z</time>
      </trkpt>
      <trkpt lat="50.36524" lon="3.59396">
        <ele>50.4</ele>
        <time>2022-05-09T08:47:42.000Z</time>
      </trkpt>
      <trkpt lat="50.36529" lon="3.594">
        <ele>50.4</ele>
        <time>2022-05-09T08:47:43.000Z</time>
      </trkpt>
      <trkpt lat="50.36533" lon="3.59405">
        <ele>50.5</ele>
        <time>2022-05-09T08:47:44.000Z</time>
      </trkpt>
      <trkpt lat="50.36537" lon="3.5941">
        <ele>50.5</ele>
        <time>2022-05-09T08:47:45.000Z</time>
      </trkpt>
      <trkpt lat="50.3654" lon="3.59416">
        <ele>50.5</ele>
        <time>2022-05-09T08:47:46.000Z</time>
      </trkpt>
      <trkpt lat="50.36544" lon="3.5942">
        <ele>50.5</ele>
        <time>2022-05-09T08:47:47.000Z</time>
      </trkpt>
      <trkpt lat="50.36551" lon="3.59429">
        <ele>50.5</ele>
        <time>2022-05-09T08:47:49.000Z</time>
      </trkpt>
      <trkpt lat="50.36559" lon="3.59438">
        <ele>50.7</ele>
        <time>2022-05-09T08:47:51.000Z</time>
      </trkpt>
      <trkpt lat="50.36565" lon="3.59446">
        <ele>50.7</ele>
        <time>2022-05-09T08:47:53.000Z</time>
      </trkpt>
      <trkpt lat="50.36571" lon="3.59455">
        <ele>50.6</ele>
        <time>2022-05-09T08:47:55.000Z</time>
      </trkpt>
      <trkpt lat="50.36576" lon="3.59463">
        <ele>50.7</ele>
        <time>2022-05-09T08:47:57.000Z</time>
      </trkpt>
      <trkpt lat="50.36581" lon="3.5947">
        <ele>50.9</ele>
        <time>2022-05-09T08:47:59.000Z</time>
      </trkpt>
      <trkpt lat="50.36588" lon="3.59477">
        <ele>50.9</ele>
        <time>2022-05-09T08:48:01.000Z</time>
      </trkpt>
      <trkpt lat="50.36592" lon="3.59481">
        <ele>50.8</ele>
        <time>2022-05-09T08:48:02.000Z</time>
      </trkpt>
      <trkpt lat="50.36598" lon="3.59491">
        <ele>50.8</ele>
        <time>2022-05-09T08:48:04.013Z</time>
      </trkpt>
      <trkpt lat="50.36604" lon="3.59499">
        <ele>51</ele>
        <time>2022-05-09T08:48:06.000Z</time>
      </trkpt>
      <trkpt lat="50.36611" lon="3.59507">
        <ele>50.8</ele>
        <time>2022-05-09T08:48:08.000Z</time>
      </trkpt>
      <trkpt lat="50.36615" lon="3.59511">
        <ele>50.5</ele>
        <time>2022-05-09T08:48:10.000Z</time>
      </trkpt>
      <trkpt lat="50.3662" lon="3.59518">
        <ele>50.2</ele>
        <time>2022-05-09T08:48:12.000Z</time>
      </trkpt>
      <trkpt lat="50.36625" lon="3.59525">
        <ele>50</ele>
        <time>2022-05-09T08:48:14.000Z</time>
      </trkpt>
      <trkpt lat="50.36631" lon="3.59532">
        <ele>50</ele>
        <time>2022-05-09T08:48:16.000Z</time>
      </trkpt>
      <trkpt lat="50.36636" lon="3.59539">
        <ele>50</ele>
        <time>2022-05-09T08:48:17.932Z</time>
      </trkpt>
      <trkpt lat="50.3664" lon="3.59544">
        <ele>50</ele>
        <time>2022-05-09T08:48:19.000Z</time>
      </trkpt>
      <trkpt lat="50.36647" lon="3.5955">
        <ele>50</ele>
        <time>2022-05-09T08:48:21.000Z</time>
      </trkpt>
      <trkpt lat="50.36654" lon="3.5955">
        <ele>50</ele>
        <time>2022-05-09T08:48:23.000Z</time>
      </trkpt>
      <trkpt lat="50.3666" lon="3.59543">
        <ele>50</ele>
        <time>2022-05-09T08:48:25.000Z</time>
      </trkpt>
      <trkpt lat="50.36669" lon="3.59531">
        <ele>50</ele>
        <time>2022-05-09T08:48:28.000Z</time>
      </trkpt>
      <trkpt lat="50.36676" lon="3.59524">
        <ele>50</ele>
        <time>2022-05-09T08:48:30.000Z</time>
      </trkpt>
      <trkpt lat="50.36683" lon="3.59515">
        <ele>50</ele>
        <time>2022-05-09T08:48:32.000Z</time>
      </trkpt>
      <trkpt lat="50.36686" lon="3.5951">
        <ele>50</ele>
        <time>2022-05-09T08:48:33.000Z</time>
      </trkpt>
      <trkpt lat="50.36693" lon="3.595">
        <ele>50</ele>
        <time>2022-05-09T08:48:35.000Z</time>
      </trkpt>
      <trkpt lat="50.367" lon="3.59491">
        <ele>49.5</ele>
        <time>2022-05-09T08:48:37.000Z</time>
      </trkpt>
      <trkpt lat="50.36705" lon="3.59485">
        <ele>49.3</ele>
        <time>2022-05-09T08:48:38.000Z</time>
      </trkpt>
      <trkpt lat="50.36709" lon="3.5948">
        <ele>49.1</ele>
        <time>2022-05-09T08:48:39.000Z</time>
      </trkpt>
      <trkpt lat="50.36713" lon="3.59476">
        <ele>49</ele>
        <time>2022-05-09T08:48:40.000Z</time>
      </trkpt>
      <trkpt lat="50.36716" lon="3.59469">
        <ele>49</ele>
        <time>2022-05-09T08:48:41.000Z</time>
      </trkpt>
      <trkpt lat="50.36723" lon="3.5946">
        <ele>49</ele>
        <time>2022-05-09T08:48:43.000Z</time>
      </trkpt>
      <trkpt lat="50.36729" lon="3.59452">
        <ele>49.2</ele>
        <time>2022-05-09T08:48:45.000Z</time>
      </trkpt>
      <trkpt lat="50.36736" lon="3.59442">
        <ele>49.5</ele>
        <time>2022-05-09T08:48:47.000Z</time>
      </trkpt>
      <trkpt lat="50.36742" lon="3.59435">
        <ele>49.7</ele>
        <time>2022-05-09T08:48:49.000Z</time>
      </trkpt>
      <trkpt lat="50.36749" lon="3.59425">
        <ele>50</ele>
        <time>2022-05-09T08:48:51.000Z</time>
      </trkpt>
      <trkpt lat="50.36754" lon="3.59418">
        <ele>50</ele>
        <time>2022-05-09T08:48:53.000Z</time>
      </trkpt>
      <trkpt lat="50.3676" lon="3.59412">
        <ele>50</ele>
        <time>2022-05-09T08:48:55.000Z</time>
      </trkpt>
      <trkpt lat="50.36765" lon="3.59405">
        <ele>50</ele>
        <time>2022-05-09T08:48:56.063Z</time>
      </trkpt>
      <trkpt lat="50.3677" lon="3.59399">
        <ele>50</ele>
        <time>2022-05-09T08:48:57.022Z</time>
      </trkpt>
      <trkpt lat="50.36775" lon="3.59391">
        <ele>50</ele>
        <time>2022-05-09T08:48:59.000Z</time>
      </trkpt>
      <trkpt lat="50.36779" lon="3.59387">
        <ele>49.9</ele>
        <time>2022-05-09T08:49:00.000Z</time>
      </trkpt>
      <trkpt lat="50.36785" lon="3.59378">
        <ele>49.6</ele>
        <time>2022-05-09T08:49:02.000Z</time>
      </trkpt>
      <trkpt lat="50.36789" lon="3.59373">
        <ele>49.4</ele>
        <time>2022-05-09T08:49:03.000Z</time>
      </trkpt>
      <trkpt lat="50.36793" lon="3.59369">
        <ele>49.3</ele>
        <time>2022-05-09T08:49:04.000Z</time>
      </trkpt>
      <trkpt lat="50.36801" lon="3.59358">
        <ele>49</ele>
        <time>2022-05-09T08:49:07.000Z</time>
      </trkpt>
      <trkpt lat="50.36806" lon="3.59352">
        <ele>49</ele>
        <time>2022-05-09T08:49:08.000Z</time>
      </trkpt>
      <trkpt lat="50.3681" lon="3.59348">
        <ele>49.1</ele>
        <time>2022-05-09T08:49:09.000Z</time>
      </trkpt>
      <trkpt lat="50.36816" lon="3.59341">
        <ele>49.1</ele>
        <time>2022-05-09T08:49:11.000Z</time>
      </trkpt>
      <trkpt lat="50.3682" lon="3.59336">
        <ele>49</ele>
        <time>2022-05-09T08:49:12.000Z</time>
      </trkpt>
      <trkpt lat="50.36827" lon="3.59327">
        <ele>49</ele>
        <time>2022-05-09T08:49:14.000Z</time>
      </trkpt>
      <trkpt lat="50.36832" lon="3.59322">
        <ele>49</ele>
        <time>2022-05-09T08:49:15.000Z</time>
      </trkpt>
      <trkpt lat="50.36835" lon="3.59317">
        <ele>49</ele>
        <time>2022-05-09T08:49:16.000Z</time>
      </trkpt>
      <trkpt lat="50.36839" lon="3.59312">
        <ele>49</ele>
        <time>2022-05-09T08:49:17.000Z</time>
      </trkpt>
      <trkpt lat="50.36842" lon="3.59306">
        <ele>49</ele>
        <time>2022-05-09T08:49:18.000Z</time>
      </trkpt>
      <trkpt lat="50.36849" lon="3.59298">
        <ele>49</ele>
        <time>2022-05-09T08:49:20.000Z</time>
      </trkpt>
      <trkpt lat="50.36853" lon="3.59293">
        <ele>49</ele>
        <time>2022-05-09T08:49:21.000Z</time>
      </trkpt>
      <trkpt lat="50.36857" lon="3.59288">
        <ele>49</ele>
        <time>2022-05-09T08:49:22.000Z</time>
      </trkpt>
      <trkpt lat="50.3686" lon="3.59283">
        <ele>49</ele>
        <time>2022-05-09T08:49:23.000Z</time>
      </trkpt>
      <trkpt lat="50.36864" lon="3.59278">
        <ele>48.9</ele>
        <time>2022-05-09T08:49:24.000Z</time>
      </trkpt>
      <trkpt lat="50.36868" lon="3.59272">
        <ele>48.7</ele>
        <time>2022-05-09T08:49:25.000Z</time>
      </trkpt>
      <trkpt lat="50.36877" lon="3.59262">
        <ele>48.4</ele>
        <time>2022-05-09T08:49:27.000Z</time>
      </trkpt>
      <trkpt lat="50.3688" lon="3.59257">
        <ele>48.3</ele>
        <time>2022-05-09T08:49:28.000Z</time>
      </trkpt>
      <trkpt lat="50.36884" lon="3.59252">
        <ele>48.2</ele>
        <time>2022-05-09T08:49:29.000Z</time>
      </trkpt>
      <trkpt lat="50.36888" lon="3.59248">
        <ele>48</ele>
        <time>2022-05-09T08:49:30.000Z</time>
      </trkpt>
      <trkpt lat="50.36893" lon="3.59242">
        <ele>48.1</ele>
        <time>2022-05-09T08:49:31.000Z</time>
      </trkpt>
      <trkpt lat="50.36901" lon="3.59233">
        <ele>48.2</ele>
        <time>2022-05-09T08:49:33.000Z</time>
      </trkpt>
      <trkpt lat="50.36904" lon="3.59228">
        <ele>48.1</ele>
        <time>2022-05-09T08:49:34.000Z</time>
      </trkpt>
      <trkpt lat="50.36912" lon="3.59219">
        <ele>48</ele>
        <time>2022-05-09T08:49:36.000Z</time>
      </trkpt>
      <trkpt lat="50.36916" lon="3.59212">
        <ele>48</ele>
        <time>2022-05-09T08:49:37.000Z</time>
      </trkpt>
      <trkpt lat="50.36924" lon="3.59202">
        <ele>48</ele>
        <time>2022-05-09T08:49:39.000Z</time>
      </trkpt>
      <trkpt lat="50.36928" lon="3.59197">
        <ele>48</ele>
        <time>2022-05-09T08:49:40.000Z</time>
      </trkpt>
      <trkpt lat="50.36931" lon="3.59192">
        <ele>47.9</ele>
        <time>2022-05-09T08:49:41.000Z</time>
      </trkpt>
      <trkpt lat="50.36939" lon="3.59183">
        <ele>47.6</ele>
        <time>2022-05-09T08:49:43.000Z</time>
      </trkpt>
      <trkpt lat="50.36942" lon="3.59178">
        <ele>47.4</ele>
        <time>2022-05-09T08:49:44.000Z</time>
      </trkpt>
      <trkpt lat="50.36946" lon="3.59173">
        <ele>47.2</ele>
        <time>2022-05-09T08:49:45.000Z</time>
      </trkpt>
      <trkpt lat="50.36951" lon="3.59167">
        <ele>47</ele>
        <time>2022-05-09T08:49:46.000Z</time>
      </trkpt>
      <trkpt lat="50.36959" lon="3.59157">
        <ele>46.6</ele>
        <time>2022-05-09T08:49:48.000Z</time>
      </trkpt>
      <trkpt lat="50.36967" lon="3.59146">
        <ele>46.3</ele>
        <time>2022-05-09T08:49:50.000Z</time>
      </trkpt>
      <trkpt lat="50.36971" lon="3.59141">
        <ele>46.1</ele>
        <time>2022-05-09T08:49:51.000Z</time>
      </trkpt>
      <trkpt lat="50.36974" lon="3.59136">
        <ele>46</ele>
        <time>2022-05-09T08:49:52.000Z</time>
      </trkpt>
      <trkpt lat="50.36978" lon="3.59131">
        <ele>45.9</ele>
        <time>2022-05-09T08:49:53.000Z</time>
      </trkpt>
      <trkpt lat="50.36982" lon="3.59126">
        <ele>45.8</ele>
        <time>2022-05-09T08:49:54.000Z</time>
      </trkpt>
      <trkpt lat="50.3699" lon="3.59117">
        <ele>45.5</ele>
        <time>2022-05-09T08:49:56.000Z</time>
      </trkpt>
      <trkpt lat="50.36995" lon="3.59113">
        <ele>45.3</ele>
        <time>2022-05-09T08:49:57.000Z</time>
      </trkpt>
      <trkpt lat="50.36999" lon="3.5911">
        <ele>45</ele>
        <time>2022-05-09T08:49:58.000Z</time>
      </trkpt>
      <trkpt lat="50.37004" lon="3.59106">
        <ele>45</ele>
        <time>2022-05-09T08:49:59.000Z</time>
      </trkpt>
      <trkpt lat="50.3701" lon="3.59101">
        <ele>45</ele>
        <time>2022-05-09T08:50:00.000Z</time>
      </trkpt>
      <trkpt lat="50.37014" lon="3.59098">
        <ele>45</ele>
        <time>2022-05-09T08:50:01.000Z</time>
      </trkpt>
      <trkpt lat="50.3702" lon="3.59094">
        <ele>45</ele>
        <time>2022-05-09T08:50:02.000Z</time>
      </trkpt>
      <trkpt lat="50.37024" lon="3.59091">
        <ele>45</ele>
        <time>2022-05-09T08:50:03.000Z</time>
      </trkpt>
      <trkpt lat="50.37029" lon="3.59088">
        <ele>45</ele>
        <time>2022-05-09T08:50:04.000Z</time>
      </trkpt>
      <trkpt lat="50.37034" lon="3.59084">
        <ele>44.8</ele>
        <time>2022-05-09T08:50:05.000Z</time>
      </trkpt>
      <trkpt lat="50.37039" lon="3.59079">
        <ele>44.6</ele>
        <time>2022-05-09T08:50:06.000Z</time>
      </trkpt>
      <trkpt lat="50.37044" lon="3.59076">
        <ele>44.6</ele>
        <time>2022-05-09T08:50:07.000Z</time>
      </trkpt>
      <trkpt lat="50.3705" lon="3.59072">
        <ele>44.5</ele>
        <time>2022-05-09T08:50:08.000Z</time>
      </trkpt>
      <trkpt lat="50.37055" lon="3.59068">
        <ele>44.6</ele>
        <time>2022-05-09T08:50:09.000Z</time>
      </trkpt>
      <trkpt lat="50.37059" lon="3.59065">
        <ele>44.6</ele>
        <time>2022-05-09T08:50:10.000Z</time>
      </trkpt>
      <trkpt lat="50.37064" lon="3.59062">
        <ele>44.5</ele>
        <time>2022-05-09T08:50:11.000Z</time>
      </trkpt>
      <trkpt lat="50.3707" lon="3.59058">
        <ele>44.4</ele>
        <time>2022-05-09T08:50:12.000Z</time>
      </trkpt>
      <trkpt lat="50.37075" lon="3.59055">
        <ele>44.3</ele>
        <time>2022-05-09T08:50:13.000Z</time>
      </trkpt>
      <trkpt lat="50.3708" lon="3.59051">
        <ele>44.1</ele>
        <time>2022-05-09T08:50:14.000Z</time>
      </trkpt>
      <trkpt lat="50.37086" lon="3.59047">
        <ele>44</ele>
        <time>2022-05-09T08:50:15.000Z</time>
      </trkpt>
      <trkpt lat="50.3709" lon="3.59044">
        <ele>44</ele>
        <time>2022-05-09T08:50:16.000Z</time>
      </trkpt>
      <trkpt lat="50.37097" lon="3.5904">
        <ele>44</ele>
        <time>2022-05-09T08:50:17.000Z</time>
      </trkpt>
      <trkpt lat="50.37102" lon="3.59036">
        <ele>44</ele>
        <time>2022-05-09T08:50:18.000Z</time>
      </trkpt>
      <trkpt lat="50.37106" lon="3.59032">
        <ele>44</ele>
        <time>2022-05-09T08:50:19.000Z</time>
      </trkpt>
      <trkpt lat="50.37111" lon="3.59028">
        <ele>44</ele>
        <time>2022-05-09T08:50:20.000Z</time>
      </trkpt>
      <trkpt lat="50.37117" lon="3.59024">
        <ele>43.8</ele>
        <time>2022-05-09T08:50:21.000Z</time>
      </trkpt>
      <trkpt lat="50.37121" lon="3.5902">
        <ele>43.6</ele>
        <time>2022-05-09T08:50:22.000Z</time>
      </trkpt>
      <trkpt lat="50.37127" lon="3.59015">
        <ele>43.4</ele>
        <time>2022-05-09T08:50:23.000Z</time>
      </trkpt>
      <trkpt lat="50.37132" lon="3.5901">
        <ele>43.3</ele>
        <time>2022-05-09T08:50:24.000Z</time>
      </trkpt>
      <trkpt lat="50.37136" lon="3.59006">
        <ele>43.1</ele>
        <time>2022-05-09T08:50:25.000Z</time>
      </trkpt>
      <trkpt lat="50.37141" lon="3.59002">
        <ele>43</ele>
        <time>2022-05-09T08:50:26.000Z</time>
      </trkpt>
      <trkpt lat="50.37147" lon="3.58997">
        <ele>43</ele>
        <time>2022-05-09T08:50:27.000Z</time>
      </trkpt>
      <trkpt lat="50.37151" lon="3.58993">
        <ele>42.9</ele>
        <time>2022-05-09T08:50:28.000Z</time>
      </trkpt>
      <trkpt lat="50.37156" lon="3.58988">
        <ele>42.7</ele>
        <time>2022-05-09T08:50:29.000Z</time>
      </trkpt>
      <trkpt lat="50.3716" lon="3.58984">
        <ele>42.6</ele>
        <time>2022-05-09T08:50:30.000Z</time>
      </trkpt>
      <trkpt lat="50.37165" lon="3.58981">
        <ele>42.4</ele>
        <time>2022-05-09T08:50:31.000Z</time>
      </trkpt>
      <trkpt lat="50.37169" lon="3.58977">
        <ele>42.2</ele>
        <time>2022-05-09T08:50:32.000Z</time>
      </trkpt>
      <trkpt lat="50.37175" lon="3.58971">
        <ele>42</ele>
        <time>2022-05-09T08:50:33.000Z</time>
      </trkpt>
      <trkpt lat="50.3718" lon="3.58968">
        <ele>42.1</ele>
        <time>2022-05-09T08:50:34.000Z</time>
      </trkpt>
      <trkpt lat="50.37186" lon="3.58963">
        <ele>42.1</ele>
        <time>2022-05-09T08:50:35.000Z</time>
      </trkpt>
      <trkpt lat="50.37191" lon="3.58959">
        <ele>42.1</ele>
        <time>2022-05-09T08:50:36.000Z</time>
      </trkpt>
      <trkpt lat="50.37196" lon="3.58955">
        <ele>42</ele>
        <time>2022-05-09T08:50:37.000Z</time>
      </trkpt>
      <trkpt lat="50.372" lon="3.58951">
        <ele>42</ele>
        <time>2022-05-09T08:50:38.000Z</time>
      </trkpt>
      <trkpt lat="50.37206" lon="3.58947">
        <ele>42</ele>
        <time>2022-05-09T08:50:39.000Z</time>
      </trkpt>
      <trkpt lat="50.3721" lon="3.58942">
        <ele>42</ele>
        <time>2022-05-09T08:50:40.000Z</time>
      </trkpt>
      <trkpt lat="50.37215" lon="3.58937">
        <ele>42</ele>
        <time>2022-05-09T08:50:41.000Z</time>
      </trkpt>
      <trkpt lat="50.37221" lon="3.58933">
        <ele>42</ele>
        <time>2022-05-09T08:50:42.000Z</time>
      </trkpt>
      <trkpt lat="50.37225" lon="3.58929">
        <ele>42</ele>
        <time>2022-05-09T08:50:43.000Z</time>
      </trkpt>
      <trkpt lat="50.3723" lon="3.58925">
        <ele>42</ele>
        <time>2022-05-09T08:50:44.000Z</time>
      </trkpt>
      <trkpt lat="50.37234" lon="3.58921">
        <ele>42</ele>
        <time>2022-05-09T08:50:45.000Z</time>
      </trkpt>
      <trkpt lat="50.37239" lon="3.58917">
        <ele>42</ele>
        <time>2022-05-09T08:50:46.000Z</time>
      </trkpt>
      <trkpt lat="50.37244" lon="3.58914">
        <ele>42</ele>
        <time>2022-05-09T08:50:47.000Z</time>
      </trkpt>
      <trkpt lat="50.37249" lon="3.58911">
        <ele>42</ele>
        <time>2022-05-09T08:50:48.000Z</time>
      </trkpt>
      <trkpt lat="50.37254" lon="3.58908">
        <ele>42</ele>
        <time>2022-05-09T08:50:49.000Z</time>
      </trkpt>
      <trkpt lat="50.37259" lon="3.58906">
        <ele>41.9</ele>
        <time>2022-05-09T08:50:50.000Z</time>
      </trkpt>
      <trkpt lat="50.37264" lon="3.58904">
        <ele>41.8</ele>
        <time>2022-05-09T08:50:51.000Z</time>
      </trkpt>
      <trkpt lat="50.37269" lon="3.58902">
        <ele>41.6</ele>
        <time>2022-05-09T08:50:52.000Z</time>
      </trkpt>
      <trkpt lat="50.37274" lon="3.58899">
        <ele>41.5</ele>
        <time>2022-05-09T08:50:53.000Z</time>
      </trkpt>
      <trkpt lat="50.3728" lon="3.58897">
        <ele>41.2</ele>
        <time>2022-05-09T08:50:54.000Z</time>
      </trkpt>
      <trkpt lat="50.37285" lon="3.58894">
        <ele>40.9</ele>
        <time>2022-05-09T08:50:55.000Z</time>
      </trkpt>
      <trkpt lat="50.37291" lon="3.58892">
        <ele>40.6</ele>
        <time>2022-05-09T08:50:56.000Z</time>
      </trkpt>
      <trkpt lat="50.37297" lon="3.58889">
        <ele>40.3</ele>
        <time>2022-05-09T08:50:57.000Z</time>
      </trkpt>
      <trkpt lat="50.37303" lon="3.58887">
        <ele>40.2</ele>
        <time>2022-05-09T08:50:58.000Z</time>
      </trkpt>
      <trkpt lat="50.37309" lon="3.58884">
        <ele>40.1</ele>
        <time>2022-05-09T08:50:59.000Z</time>
      </trkpt>
      <trkpt lat="50.37315" lon="3.58881">
        <ele>40.2</ele>
        <time>2022-05-09T08:51:00.000Z</time>
      </trkpt>
      <trkpt lat="50.37321" lon="3.58878">
        <ele>40.2</ele>
        <time>2022-05-09T08:51:01.000Z</time>
      </trkpt>
      <trkpt lat="50.37326" lon="3.58876">
        <ele>40.1</ele>
        <time>2022-05-09T08:51:02.000Z</time>
      </trkpt>
      <trkpt lat="50.37333" lon="3.58873">
        <ele>40</ele>
        <time>2022-05-09T08:51:03.000Z</time>
      </trkpt>
      <trkpt lat="50.37339" lon="3.5887">
        <ele>39.9</ele>
        <time>2022-05-09T08:51:04.000Z</time>
      </trkpt>
      <trkpt lat="50.37345" lon="3.58867">
        <ele>39.7</ele>
        <time>2022-05-09T08:51:05.000Z</time>
      </trkpt>
      <trkpt lat="50.37351" lon="3.58862">
        <ele>39.4</ele>
        <time>2022-05-09T08:51:06.000Z</time>
      </trkpt>
      <trkpt lat="50.37356" lon="3.58858">
        <ele>39.3</ele>
        <time>2022-05-09T08:51:07.000Z</time>
      </trkpt>
      <trkpt lat="50.37362" lon="3.58853">
        <ele>39.3</ele>
        <time>2022-05-09T08:51:08.000Z</time>
      </trkpt>
      <trkpt lat="50.37368" lon="3.58848">
        <ele>39.5</ele>
        <time>2022-05-09T08:51:09.000Z</time>
      </trkpt>
      <trkpt lat="50.37374" lon="3.58844">
        <ele>39.5</ele>
        <time>2022-05-09T08:51:10.000Z</time>
      </trkpt>
      <trkpt lat="50.3738" lon="3.58838">
        <ele>39.4</ele>
        <time>2022-05-09T08:51:11.000Z</time>
      </trkpt>
      <trkpt lat="50.37385" lon="3.58833">
        <ele>39.2</ele>
        <time>2022-05-09T08:51:12.000Z</time>
      </trkpt>
      <trkpt lat="50.37391" lon="3.58828">
        <ele>39.2</ele>
        <time>2022-05-09T08:51:13.000Z</time>
      </trkpt>
      <trkpt lat="50.37398" lon="3.58823">
        <ele>39</ele>
        <time>2022-05-09T08:51:14.000Z</time>
      </trkpt>
      <trkpt lat="50.37403" lon="3.58818">
        <ele>38.7</ele>
        <time>2022-05-09T08:51:15.000Z</time>
      </trkpt>
      <trkpt lat="50.37409" lon="3.58813">
        <ele>38.2</ele>
        <time>2022-05-09T08:51:16.000Z</time>
      </trkpt>
      <trkpt lat="50.37415" lon="3.58806">
        <ele>37.1</ele>
        <time>2022-05-09T08:51:17.000Z</time>
      </trkpt>
      <trkpt lat="50.37421" lon="3.588">
        <ele>37.5</ele>
        <time>2022-05-09T08:51:18.000Z</time>
      </trkpt>
      <trkpt lat="50.37426" lon="3.58795">
        <ele>37.7</ele>
        <time>2022-05-09T08:51:19.000Z</time>
      </trkpt>
      <trkpt lat="50.37431" lon="3.5879">
        <ele>37.8</ele>
        <time>2022-05-09T08:51:20.000Z</time>
      </trkpt>
      <trkpt lat="50.37438" lon="3.58783">
        <ele>37.5</ele>
        <time>2022-05-09T08:51:21.000Z</time>
      </trkpt>
      <trkpt lat="50.37442" lon="3.58778">
        <ele>37.2</ele>
        <time>2022-05-09T08:51:22.000Z</time>
      </trkpt>
      <trkpt lat="50.37449" lon="3.58772">
        <ele>37.2</ele>
        <time>2022-05-09T08:51:23.000Z</time>
      </trkpt>
      <trkpt lat="50.37454" lon="3.58767">
        <ele>37.1</ele>
        <time>2022-05-09T08:51:24.000Z</time>
      </trkpt>
      <trkpt lat="50.3746" lon="3.58761">
        <ele>36.9</ele>
        <time>2022-05-09T08:51:25.000Z</time>
      </trkpt>
      <trkpt lat="50.37466" lon="3.58756">
        <ele>36.6</ele>
        <time>2022-05-09T08:51:26.000Z</time>
      </trkpt>
      <trkpt lat="50.37471" lon="3.58751">
        <ele>36.1</ele>
        <time>2022-05-09T08:51:27.000Z</time>
      </trkpt>
      <trkpt lat="50.37475" lon="3.58747">
        <ele>36.1</ele>
        <time>2022-05-09T08:51:28.000Z</time>
      </trkpt>
      <trkpt lat="50.37481" lon="3.5874">
        <ele>36.1</ele>
        <time>2022-05-09T08:51:29.000Z</time>
      </trkpt>
      <trkpt lat="50.37486" lon="3.58735">
        <ele>36</ele>
        <time>2022-05-09T08:51:30.000Z</time>
      </trkpt>
      <trkpt lat="50.37491" lon="3.5873">
        <ele>35.8</ele>
        <time>2022-05-09T08:51:31.000Z</time>
      </trkpt>
      <trkpt lat="50.37497" lon="3.58724">
        <ele>35.3</ele>
        <time>2022-05-09T08:51:32.000Z</time>
      </trkpt>
      <trkpt lat="50.37501" lon="3.58719">
        <ele>35.1</ele>
        <time>2022-05-09T08:51:33.000Z</time>
      </trkpt>
      <trkpt lat="50.37506" lon="3.58715">
        <ele>35.2</ele>
        <time>2022-05-09T08:51:34.000Z</time>
      </trkpt>
      <trkpt lat="50.37512" lon="3.5871">
        <ele>35.3</ele>
        <time>2022-05-09T08:51:35.000Z</time>
      </trkpt>
      <trkpt lat="50.37517" lon="3.58706">
        <ele>35.2</ele>
        <time>2022-05-09T08:51:36.000Z</time>
      </trkpt>
      <trkpt lat="50.37523" lon="3.58701">
        <ele>35.1</ele>
        <time>2022-05-09T08:51:37.000Z</time>
      </trkpt>
      <trkpt lat="50.37527" lon="3.58698">
        <ele>35</ele>
        <time>2022-05-09T08:51:38.000Z</time>
      </trkpt>
      <trkpt lat="50.37532" lon="3.58694">
        <ele>35</ele>
        <time>2022-05-09T08:51:39.000Z</time>
      </trkpt>
      <trkpt lat="50.37537" lon="3.5869">
        <ele>35</ele>
        <time>2022-05-09T08:51:40.000Z</time>
      </trkpt>
      <trkpt lat="50.37542" lon="3.58687">
        <ele>34.9</ele>
        <time>2022-05-09T08:51:41.000Z</time>
      </trkpt>
      <trkpt lat="50.37547" lon="3.58682">
        <ele>34.7</ele>
        <time>2022-05-09T08:51:42.000Z</time>
      </trkpt>
      <trkpt lat="50.37553" lon="3.58677">
        <ele>34.4</ele>
        <time>2022-05-09T08:51:43.000Z</time>
      </trkpt>
      <trkpt lat="50.37557" lon="3.58673">
        <ele>34.2</ele>
        <time>2022-05-09T08:51:44.000Z</time>
      </trkpt>
      <trkpt lat="50.37563" lon="3.58668">
        <ele>34</ele>
        <time>2022-05-09T08:51:45.000Z</time>
      </trkpt>
      <trkpt lat="50.37568" lon="3.58664">
        <ele>34</ele>
        <time>2022-05-09T08:51:46.000Z</time>
      </trkpt>
      <trkpt lat="50.37572" lon="3.5866">
        <ele>34</ele>
        <time>2022-05-09T08:51:47.000Z</time>
      </trkpt>
      <trkpt lat="50.37577" lon="3.58656">
        <ele>34</ele>
        <time>2022-05-09T08:51:48.000Z</time>
      </trkpt>
      <trkpt lat="50.37584" lon="3.58651">
        <ele>34</ele>
        <time>2022-05-09T08:51:49.000Z</time>
      </trkpt>
      <trkpt lat="50.37588" lon="3.58647">
        <ele>34</ele>
        <time>2022-05-09T08:51:50.000Z</time>
      </trkpt>
      <trkpt lat="50.37594" lon="3.58642">
        <ele>34</ele>
        <time>2022-05-09T08:51:51.000Z</time>
      </trkpt>
      <trkpt lat="50.37598" lon="3.58637">
        <ele>34</ele>
        <time>2022-05-09T08:51:52.000Z</time>
      </trkpt>
      <trkpt lat="50.37603" lon="3.58633">
        <ele>34</ele>
        <time>2022-05-09T08:51:53.000Z</time>
      </trkpt>
      <trkpt lat="50.37612" lon="3.58624">
        <ele>34</ele>
        <time>2022-05-09T08:51:55.000Z</time>
      </trkpt>
      <trkpt lat="50.37618" lon="3.58619">
        <ele>33.7</ele>
        <time>2022-05-09T08:51:56.000Z</time>
      </trkpt>
      <trkpt lat="50.37622" lon="3.58615">
        <ele>33.6</ele>
        <time>2022-05-09T08:51:57.000Z</time>
      </trkpt>
      <trkpt lat="50.37627" lon="3.58611">
        <ele>33.4</ele>
        <time>2022-05-09T08:51:58.000Z</time>
      </trkpt>
      <trkpt lat="50.37633" lon="3.58606">
        <ele>33.2</ele>
        <time>2022-05-09T08:51:59.000Z</time>
      </trkpt>
      <trkpt lat="50.37638" lon="3.58602">
        <ele>33</ele>
        <time>2022-05-09T08:52:00.000Z</time>
      </trkpt>
      <trkpt lat="50.37643" lon="3.58597">
        <ele>33</ele>
        <time>2022-05-09T08:52:01.000Z</time>
      </trkpt>
      <trkpt lat="50.37648" lon="3.58593">
        <ele>33</ele>
        <time>2022-05-09T08:52:02.000Z</time>
      </trkpt>
      <trkpt lat="50.37653" lon="3.58589">
        <ele>33</ele>
        <time>2022-05-09T08:52:03.000Z</time>
      </trkpt>
      <trkpt lat="50.37658" lon="3.58585">
        <ele>33</ele>
        <time>2022-05-09T08:52:04.000Z</time>
      </trkpt>
      <trkpt lat="50.37667" lon="3.58576">
        <ele>33</ele>
        <time>2022-05-09T08:52:06.000Z</time>
      </trkpt>
      <trkpt lat="50.37672" lon="3.58571">
        <ele>33</ele>
        <time>2022-05-09T08:52:07.000Z</time>
      </trkpt>
      <trkpt lat="50.37676" lon="3.58568">
        <ele>33</ele>
        <time>2022-05-09T08:52:08.000Z</time>
      </trkpt>
      <trkpt lat="50.37683" lon="3.58564">
        <ele>33</ele>
        <time>2022-05-09T08:52:09.000Z</time>
      </trkpt>
      <trkpt lat="50.37687" lon="3.58561">
        <ele>33</ele>
        <time>2022-05-09T08:52:10.000Z</time>
      </trkpt>
      <trkpt lat="50.37692" lon="3.58558">
        <ele>33</ele>
        <time>2022-05-09T08:52:11.000Z</time>
      </trkpt>
      <trkpt lat="50.37698" lon="3.58554">
        <ele>32.9</ele>
        <time>2022-05-09T08:52:12.000Z</time>
      </trkpt>
      <trkpt lat="50.37703" lon="3.58551">
        <ele>32.7</ele>
        <time>2022-05-09T08:52:13.000Z</time>
      </trkpt>
      <trkpt lat="50.37708" lon="3.58549">
        <ele>32.5</ele>
        <time>2022-05-09T08:52:14.000Z</time>
      </trkpt>
      <trkpt lat="50.37713" lon="3.58546">
        <ele>32.3</ele>
        <time>2022-05-09T08:52:15.000Z</time>
      </trkpt>
      <trkpt lat="50.37718" lon="3.58543">
        <ele>32.1</ele>
        <time>2022-05-09T08:52:16.000Z</time>
      </trkpt>
      <trkpt lat="50.37724" lon="3.58541">
        <ele>32</ele>
        <time>2022-05-09T08:52:17.000Z</time>
      </trkpt>
      <trkpt lat="50.37729" lon="3.58539">
        <ele>32</ele>
        <time>2022-05-09T08:52:18.000Z</time>
      </trkpt>
      <trkpt lat="50.37739" lon="3.58534">
        <ele>32</ele>
        <time>2022-05-09T08:52:20.000Z</time>
      </trkpt>
      <trkpt lat="50.37746" lon="3.5853">
        <ele>32</ele>
        <time>2022-05-09T08:52:21.000Z</time>
      </trkpt>
      <trkpt lat="50.37755" lon="3.58525">
        <ele>32</ele>
        <time>2022-05-09T08:52:23.000Z</time>
      </trkpt>
      <trkpt lat="50.3776" lon="3.58523">
        <ele>32</ele>
        <time>2022-05-09T08:52:24.000Z</time>
      </trkpt>
      <trkpt lat="50.37765" lon="3.58519">
        <ele>32</ele>
        <time>2022-05-09T08:52:25.000Z</time>
      </trkpt>
      <trkpt lat="50.37769" lon="3.58513">
        <ele>32</ele>
        <time>2022-05-09T08:52:26.000Z</time>
      </trkpt>
      <trkpt lat="50.3777" lon="3.58505">
        <ele>32</ele>
        <time>2022-05-09T08:52:27.000Z</time>
      </trkpt>
      <trkpt lat="50.37769" lon="3.58497">
        <ele>32</ele>
        <time>2022-05-09T08:52:28.000Z</time>
      </trkpt>
      <trkpt lat="50.37768" lon="3.58489">
        <ele>32</ele>
        <time>2022-05-09T08:52:29.000Z</time>
      </trkpt>
      <trkpt lat="50.37767" lon="3.58479">
        <ele>32</ele>
        <time>2022-05-09T08:52:30.000Z</time>
      </trkpt>
      <trkpt lat="50.37766" lon="3.5847">
        <ele>32</ele>
        <time>2022-05-09T08:52:31.000Z</time>
      </trkpt>
      <trkpt lat="50.37765" lon="3.5846">
        <ele>32</ele>
        <time>2022-05-09T08:52:32.000Z</time>
      </trkpt>
      <trkpt lat="50.37764" lon="3.58452">
        <ele>32</ele>
        <time>2022-05-09T08:52:33.000Z</time>
      </trkpt>
      <trkpt lat="50.37763" lon="3.58444">
        <ele>32</ele>
        <time>2022-05-09T08:52:34.000Z</time>
      </trkpt>
      <trkpt lat="50.37763" lon="3.58435">
        <ele>32.2</ele>
        <time>2022-05-09T08:52:35.000Z</time>
      </trkpt>
      <trkpt lat="50.37762" lon="3.58427">
        <ele>32.4</ele>
        <time>2022-05-09T08:52:36.000Z</time>
      </trkpt>
      <trkpt lat="50.37761" lon="3.58418">
        <ele>32.6</ele>
        <time>2022-05-09T08:52:37.000Z</time>
      </trkpt>
      <trkpt lat="50.37761" lon="3.5841">
        <ele>32.6</ele>
        <time>2022-05-09T08:52:38.000Z</time>
      </trkpt>
      <trkpt lat="50.3776" lon="3.58402">
        <ele>32.6</ele>
        <time>2022-05-09T08:52:39.000Z</time>
      </trkpt>
      <trkpt lat="50.3776" lon="3.58392">
        <ele>32.7</ele>
        <time>2022-05-09T08:52:40.000Z</time>
      </trkpt>
      <trkpt lat="50.37759" lon="3.58383">
        <ele>32.7</ele>
        <time>2022-05-09T08:52:41.000Z</time>
      </trkpt>
      <trkpt lat="50.37759" lon="3.58375">
        <ele>32.8</ele>
        <time>2022-05-09T08:52:42.000Z</time>
      </trkpt>
      <trkpt lat="50.37758" lon="3.58365">
        <ele>33</ele>
        <time>2022-05-09T08:52:43.000Z</time>
      </trkpt>
      <trkpt lat="50.37757" lon="3.58358">
        <ele>33</ele>
        <time>2022-05-09T08:52:44.000Z</time>
      </trkpt>
      <trkpt lat="50.37757" lon="3.5835">
        <ele>33</ele>
        <time>2022-05-09T08:52:45.000Z</time>
      </trkpt>
      <trkpt lat="50.37756" lon="3.58341">
        <ele>33</ele>
        <time>2022-05-09T08:52:46.000Z</time>
      </trkpt>
      <trkpt lat="50.37755" lon="3.58325">
        <ele>33</ele>
        <time>2022-05-09T08:52:48.000Z</time>
      </trkpt>
      <trkpt lat="50.37755" lon="3.58317">
        <ele>33</ele>
        <time>2022-05-09T08:52:49.000Z</time>
      </trkpt>
      <trkpt lat="50.37754" lon="3.5831">
        <ele>33</ele>
        <time>2022-05-09T08:52:50.000Z</time>
      </trkpt>
      <trkpt lat="50.37754" lon="3.58303">
        <ele>33</ele>
        <time>2022-05-09T08:52:51.000Z</time>
      </trkpt>
      <trkpt lat="50.37753" lon="3.58292">
        <ele>33</ele>
        <time>2022-05-09T08:52:53.000Z</time>
      </trkpt>
      <trkpt lat="50.37753" lon="3.58285">
        <ele>33</ele>
        <time>2022-05-09T08:52:54.000Z</time>
      </trkpt>
      <trkpt lat="50.37752" lon="3.58278">
        <ele>33</ele>
        <time>2022-05-09T08:52:55.000Z</time>
      </trkpt>
      <trkpt lat="50.3775" lon="3.58263">
        <ele>33</ele>
        <time>2022-05-09T08:52:57.000Z</time>
      </trkpt>
      <trkpt lat="50.37748" lon="3.58255">
        <ele>33</ele>
        <time>2022-05-09T08:52:59.000Z</time>
      </trkpt>
      <trkpt lat="50.37748" lon="3.58237">
        <ele>33</ele>
        <time>2022-05-09T08:53:01.708Z</time>
      </trkpt>
      <trkpt lat="50.37747" lon="3.58228">
        <ele>33</ele>
        <time>2022-05-09T08:53:03.268Z</time>
      </trkpt>
      <trkpt lat="50.37747" lon="3.58215">
        <ele>33</ele>
        <time>2022-05-09T08:53:05.429Z</time>
      </trkpt>
      <trkpt lat="50.37747" lon="3.58208">
        <ele>33</ele>
        <time>2022-05-09T08:53:06.610Z</time>
      </trkpt>
      <trkpt lat="50.37747" lon="3.58196">
        <ele>33</ele>
        <time>2022-05-09T08:53:09.000Z</time>
      </trkpt>
      <trkpt lat="50.37748" lon="3.58186">
        <ele>33</ele>
        <time>2022-05-09T08:53:11.000Z</time>
      </trkpt>
      <trkpt lat="50.37747" lon="3.58178">
        <ele>33</ele>
        <time>2022-05-09T08:53:12.330Z</time>
      </trkpt>
      <trkpt lat="50.37745" lon="3.58169">
        <ele>33</ele>
        <time>2022-05-09T08:53:13.948Z</time>
      </trkpt>
      <trkpt lat="50.37744" lon="3.58157">
        <ele>33</ele>
        <time>2022-05-09T08:53:16.090Z</time>
      </trkpt>
      <trkpt lat="50.37743" lon="3.58146">
        <ele>33</ele>
        <time>2022-05-09T08:53:18.000Z</time>
      </trkpt>
      <trkpt lat="50.37743" lon="3.58132">
        <ele>33</ele>
        <time>2022-05-09T08:53:20.867Z</time>
      </trkpt>
      <trkpt lat="50.37741" lon="3.58118">
        <ele>33</ele>
        <time>2022-05-09T08:53:23.686Z</time>
      </trkpt>
      <trkpt lat="50.37741" lon="3.58107">
        <ele>33</ele>
        <time>2022-05-09T08:53:25.634Z</time>
      </trkpt>
      <trkpt lat="50.37742" lon="3.58093">
        <ele>33</ele>
        <time>2022-05-09T08:53:27.926Z</time>
      </trkpt>
      <trkpt lat="50.37741" lon="3.58074">
        <ele>33.1</ele>
        <time>2022-05-09T08:53:30.965Z</time>
      </trkpt>
      <trkpt lat="50.37741" lon="3.58063">
        <ele>33.2</ele>
        <time>2022-05-09T08:53:32.747Z</time>
      </trkpt>
      <trkpt lat="50.37742" lon="3.58053">
        <ele>33.3</ele>
        <time>2022-05-09T08:53:35.000Z</time>
      </trkpt>
      <trkpt lat="50.37741" lon="3.58039">
        <ele>33.3</ele>
        <time>2022-05-09T08:53:37.626Z</time>
      </trkpt>
      <trkpt lat="50.37739" lon="3.58027">
        <ele>33.4</ele>
        <time>2022-05-09T08:53:39.849Z</time>
      </trkpt>
      <trkpt lat="50.37738" lon="3.58013">
        <ele>33.4</ele>
        <time>2022-05-09T08:53:41.847Z</time>
      </trkpt>
      <trkpt lat="50.37735" lon="3.58005">
        <ele>33.5</ele>
        <time>2022-05-09T08:53:43.667Z</time>
      </trkpt>
      <trkpt lat="50.37734" lon="3.57998">
        <ele>33.6</ele>
        <time>2022-05-09T08:53:45.069Z</time>
      </trkpt>
      <trkpt lat="50.37733" lon="3.57988">
        <ele>33.6</ele>
        <time>2022-05-09T08:53:47.000Z</time>
      </trkpt>
      <trkpt lat="50.3773" lon="3.57978">
        <ele>33.7</ele>
        <time>2022-05-09T08:53:49.000Z</time>
      </trkpt>
      <trkpt lat="50.37729" lon="3.57969">
        <ele>33.8</ele>
        <time>2022-05-09T08:53:50.827Z</time>
      </trkpt>
      <trkpt lat="50.37727" lon="3.57961">
        <ele>33.8</ele>
        <time>2022-05-09T08:53:52.000Z</time>
      </trkpt>
      <trkpt lat="50.37725" lon="3.57949">
        <ele>33.9</ele>
        <time>2022-05-09T08:53:54.775Z</time>
      </trkpt>
      <trkpt lat="50.3772" lon="3.57932">
        <ele>34</ele>
        <time>2022-05-09T08:53:58.000Z</time>
      </trkpt>
      <trkpt lat="50.37718" lon="3.57918">
        <ele>34.1</ele>
        <time>2022-05-09T08:54:00.889Z</time>
      </trkpt>
      <trkpt lat="50.37716" lon="3.57906">
        <ele>34.2</ele>
        <time>2022-05-09T08:54:03.000Z</time>
      </trkpt>
      <trkpt lat="50.37714" lon="3.57896">
        <ele>34.3</ele>
        <time>2022-05-09T08:54:05.000Z</time>
      </trkpt>
      <trkpt lat="50.37712" lon="3.57887">
        <ele>34.4</ele>
        <time>2022-05-09T08:54:07.000Z</time>
      </trkpt>
      <trkpt lat="50.3771" lon="3.57873">
        <ele>34.5</ele>
        <time>2022-05-09T08:54:09.000Z</time>
      </trkpt>
      <trkpt lat="50.37708" lon="3.57865">
        <ele>34.5</ele>
        <time>2022-05-09T08:54:11.000Z</time>
      </trkpt>
      <trkpt lat="50.37707" lon="3.57851">
        <ele>34.6</ele>
        <time>2022-05-09T08:54:13.107Z</time>
      </trkpt>
      <trkpt lat="50.37709" lon="3.57846">
        <ele>34.5</ele>
        <time>2022-05-09T08:54:15.047Z</time>
      </trkpt>
      <trkpt lat="50.37717" lon="3.57838">
        <ele>34.2</ele>
        <time>2022-05-09T08:54:17.192Z</time>
      </trkpt>
      <trkpt lat="50.37724" lon="3.57831">
        <ele>33.9</ele>
        <time>2022-05-09T08:54:19.000Z</time>
      </trkpt>
      <trkpt lat="50.37732" lon="3.57824">
        <ele>33.6</ele>
        <time>2022-05-09T08:54:21.000Z</time>
      </trkpt>
      <trkpt lat="50.37736" lon="3.5782">
        <ele>33.5</ele>
        <time>2022-05-09T08:54:22.000Z</time>
      </trkpt>
      <trkpt lat="50.37741" lon="3.57816">
        <ele>33.3</ele>
        <time>2022-05-09T08:54:23.000Z</time>
      </trkpt>
      <trkpt lat="50.37745" lon="3.57812">
        <ele>33.2</ele>
        <time>2022-05-09T08:54:24.000Z</time>
      </trkpt>
      <trkpt lat="50.37749" lon="3.57808">
        <ele>33</ele>
        <time>2022-05-09T08:54:25.000Z</time>
      </trkpt>
      <trkpt lat="50.37754" lon="3.57804">
        <ele>32.9</ele>
        <time>2022-05-09T08:54:26.000Z</time>
      </trkpt>
      <trkpt lat="50.37758" lon="3.57799">
        <ele>32.7</ele>
        <time>2022-05-09T08:54:27.000Z</time>
      </trkpt>
      <trkpt lat="50.37763" lon="3.57794">
        <ele>32.5</ele>
        <time>2022-05-09T08:54:28.000Z</time>
      </trkpt>
      <trkpt lat="50.37767" lon="3.5779">
        <ele>32.4</ele>
        <time>2022-05-09T08:54:29.000Z</time>
      </trkpt>
      <trkpt lat="50.37772" lon="3.57785">
        <ele>32.2</ele>
        <time>2022-05-09T08:54:30.000Z</time>
      </trkpt>
      <trkpt lat="50.37778" lon="3.57779">
        <ele>32</ele>
        <time>2022-05-09T08:54:31.000Z</time>
      </trkpt>
      <trkpt lat="50.37786" lon="3.57771">
        <ele>32</ele>
        <time>2022-05-09T08:54:33.000Z</time>
      </trkpt>
      <trkpt lat="50.3779" lon="3.57766">
        <ele>32</ele>
        <time>2022-05-09T08:54:34.000Z</time>
      </trkpt>
      <trkpt lat="50.37795" lon="3.57762">
        <ele>32</ele>
        <time>2022-05-09T08:54:35.000Z</time>
      </trkpt>
      <trkpt lat="50.378" lon="3.57758">
        <ele>32</ele>
        <time>2022-05-09T08:54:36.000Z</time>
      </trkpt>
      <trkpt lat="50.37804" lon="3.57753">
        <ele>32</ele>
        <time>2022-05-09T08:54:37.000Z</time>
      </trkpt>
      <trkpt lat="50.37813" lon="3.57744">
        <ele>31.7</ele>
        <time>2022-05-09T08:54:39.000Z</time>
      </trkpt>
      <trkpt lat="50.37817" lon="3.57739">
        <ele>31.6</ele>
        <time>2022-05-09T08:54:40.000Z</time>
      </trkpt>
      <trkpt lat="50.37821" lon="3.57735">
        <ele>31.5</ele>
        <time>2022-05-09T08:54:41.000Z</time>
      </trkpt>
      <trkpt lat="50.37828" lon="3.57726">
        <ele>31.2</ele>
        <time>2022-05-09T08:54:43.000Z</time>
      </trkpt>
      <trkpt lat="50.37833" lon="3.57723">
        <ele>31</ele>
        <time>2022-05-09T08:54:44.000Z</time>
      </trkpt>
      <trkpt lat="50.37837" lon="3.5772">
        <ele>31</ele>
        <time>2022-05-09T08:54:45.000Z</time>
      </trkpt>
      <trkpt lat="50.37842" lon="3.57715">
        <ele>31</ele>
        <time>2022-05-09T08:54:47.000Z</time>
      </trkpt>
      <trkpt lat="50.37842" lon="3.57709">
        <ele>31</ele>
        <time>2022-05-09T08:54:49.000Z</time>
      </trkpt>
      <trkpt lat="50.37838" lon="3.57701">
        <ele>31</ele>
        <time>2022-05-09T08:54:51.000Z</time>
      </trkpt>
      <trkpt lat="50.37836" lon="3.57694">
        <ele>31</ele>
        <time>2022-05-09T08:54:53.000Z</time>
      </trkpt>
      <trkpt lat="50.37833" lon="3.57686">
        <ele>31</ele>
        <time>2022-05-09T08:54:56.000Z</time>
      </trkpt>
      <trkpt lat="50.37834" lon="3.57678">
        <ele>31</ele>
        <time>2022-05-09T08:54:58.000Z</time>
      </trkpt>
      <trkpt lat="50.37839" lon="3.57671">
        <ele>31</ele>
        <time>2022-05-09T08:55:00.000Z</time>
      </trkpt>
      <trkpt lat="50.37837" lon="3.57663">
        <ele>31</ele>
        <time>2022-05-09T08:55:02.000Z</time>
      </trkpt>
      <trkpt lat="50.37834" lon="3.57653">
        <ele>31</ele>
        <time>2022-05-09T08:55:05.000Z</time>
      </trkpt>
      <trkpt lat="50.37831" lon="3.57645">
        <ele>31</ele>
        <time>2022-05-09T08:55:07.000Z</time>
      </trkpt>
      <trkpt lat="50.37835" lon="3.57639">
        <ele>31</ele>
        <time>2022-05-09T08:55:08.000Z</time>
      </trkpt>
      <trkpt lat="50.37843" lon="3.57637">
        <ele>31</ele>
        <time>2022-05-09T08:55:10.000Z</time>
      </trkpt>
      <trkpt lat="50.37848" lon="3.57635">
        <ele>31</ele>
        <time>2022-05-09T08:55:11.000Z</time>
      </trkpt>
      <trkpt lat="50.37853" lon="3.57633">
        <ele>31</ele>
        <time>2022-05-09T08:55:12.000Z</time>
      </trkpt>
      <trkpt lat="50.37859" lon="3.57632">
        <ele>31</ele>
        <time>2022-05-09T08:55:13.000Z</time>
      </trkpt>
      <trkpt lat="50.37864" lon="3.5763">
        <ele>30.9</ele>
        <time>2022-05-09T08:55:14.000Z</time>
      </trkpt>
      <trkpt lat="50.37869" lon="3.57629">
        <ele>30.7</ele>
        <time>2022-05-09T08:55:15.000Z</time>
      </trkpt>
      <trkpt lat="50.37874" lon="3.57627">
        <ele>30.5</ele>
        <time>2022-05-09T08:55:16.000Z</time>
      </trkpt>
      <trkpt lat="50.37879" lon="3.57625">
        <ele>30.4</ele>
        <time>2022-05-09T08:55:17.000Z</time>
      </trkpt>
      <trkpt lat="50.37883" lon="3.57622">
        <ele>30.2</ele>
        <time>2022-05-09T08:55:18.000Z</time>
      </trkpt>
      <trkpt lat="50.37888" lon="3.57619">
        <ele>30</ele>
        <time>2022-05-09T08:55:19.000Z</time>
      </trkpt>
      <trkpt lat="50.37893" lon="3.57617">
        <ele>30</ele>
        <time>2022-05-09T08:55:20.000Z</time>
      </trkpt>
      <trkpt lat="50.37898" lon="3.57615">
        <ele>30</ele>
        <time>2022-05-09T08:55:21.000Z</time>
      </trkpt>
      <trkpt lat="50.37903" lon="3.57613">
        <ele>30</ele>
        <time>2022-05-09T08:55:22.000Z</time>
      </trkpt>
      <trkpt lat="50.37907" lon="3.57611">
        <ele>30</ele>
        <time>2022-05-09T08:55:23.000Z</time>
      </trkpt>
      <trkpt lat="50.37912" lon="3.5761">
        <ele>30</ele>
        <time>2022-05-09T08:55:24.000Z</time>
      </trkpt>
      <trkpt lat="50.37917" lon="3.57609">
        <ele>30</ele>
        <time>2022-05-09T08:55:25.000Z</time>
      </trkpt>
      <trkpt lat="50.37922" lon="3.57608">
        <ele>30</ele>
        <time>2022-05-09T08:55:26.000Z</time>
      </trkpt>
      <trkpt lat="50.37927" lon="3.57606">
        <ele>30</ele>
        <time>2022-05-09T08:55:27.000Z</time>
      </trkpt>
      <trkpt lat="50.37933" lon="3.57605">
        <ele>30</ele>
        <time>2022-05-09T08:55:28.000Z</time>
      </trkpt>
      <trkpt lat="50.37938" lon="3.57603">
        <ele>30</ele>
        <time>2022-05-09T08:55:29.000Z</time>
      </trkpt>
      <trkpt lat="50.37942" lon="3.57602">
        <ele>30</ele>
        <time>2022-05-09T08:55:30.000Z</time>
      </trkpt>
      <trkpt lat="50.37947" lon="3.57599">
        <ele>29.9</ele>
        <time>2022-05-09T08:55:31.000Z</time>
      </trkpt>
      <trkpt lat="50.37951" lon="3.57597">
        <ele>29.8</ele>
        <time>2022-05-09T08:55:32.000Z</time>
      </trkpt>
      <trkpt lat="50.37956" lon="3.57594">
        <ele>29.6</ele>
        <time>2022-05-09T08:55:33.000Z</time>
      </trkpt>
      <trkpt lat="50.37961" lon="3.57591">
        <ele>29.4</ele>
        <time>2022-05-09T08:55:34.000Z</time>
      </trkpt>
      <trkpt lat="50.37969" lon="3.57587">
        <ele>29.1</ele>
        <time>2022-05-09T08:55:36.000Z</time>
      </trkpt>
      <trkpt lat="50.37974" lon="3.57585">
        <ele>29</ele>
        <time>2022-05-09T08:55:37.000Z</time>
      </trkpt>
      <trkpt lat="50.37979" lon="3.57583">
        <ele>29</ele>
        <time>2022-05-09T08:55:38.000Z</time>
      </trkpt>
      <trkpt lat="50.37985" lon="3.57581">
        <ele>29</ele>
        <time>2022-05-09T08:55:39.000Z</time>
      </trkpt>
      <trkpt lat="50.37995" lon="3.57578">
        <ele>29</ele>
        <time>2022-05-09T08:55:41.000Z</time>
      </trkpt>
      <trkpt lat="50.38004" lon="3.57575">
        <ele>29</ele>
        <time>2022-05-09T08:55:43.000Z</time>
      </trkpt>
      <trkpt lat="50.38009" lon="3.57573">
        <ele>28.9</ele>
        <time>2022-05-09T08:55:44.000Z</time>
      </trkpt>
      <trkpt lat="50.38018" lon="3.57569">
        <ele>28.7</ele>
        <time>2022-05-09T08:55:46.000Z</time>
      </trkpt>
      <trkpt lat="50.38024" lon="3.57567">
        <ele>28.5</ele>
        <time>2022-05-09T08:55:47.000Z</time>
      </trkpt>
      <trkpt lat="50.38032" lon="3.57564">
        <ele>28.3</ele>
        <time>2022-05-09T08:55:49.000Z</time>
      </trkpt>
      <trkpt lat="50.38037" lon="3.57563">
        <ele>28.2</ele>
        <time>2022-05-09T08:55:50.000Z</time>
      </trkpt>
      <trkpt lat="50.38042" lon="3.57561">
        <ele>28.1</ele>
        <time>2022-05-09T08:55:51.000Z</time>
      </trkpt>
      <trkpt lat="50.38047" lon="3.57559">
        <ele>28</ele>
        <time>2022-05-09T08:55:52.000Z</time>
      </trkpt>
      <trkpt lat="50.38053" lon="3.57556">
        <ele>28</ele>
        <time>2022-05-09T08:55:53.000Z</time>
      </trkpt>
      <trkpt lat="50.38058" lon="3.57555">
        <ele>28</ele>
        <time>2022-05-09T08:55:54.000Z</time>
      </trkpt>
      <trkpt lat="50.38067" lon="3.57551">
        <ele>28</ele>
        <time>2022-05-09T08:55:56.000Z</time>
      </trkpt>
      <trkpt lat="50.38075" lon="3.57548">
        <ele>28</ele>
        <time>2022-05-09T08:55:58.000Z</time>
      </trkpt>
      <trkpt lat="50.38084" lon="3.57544">
        <ele>28</ele>
        <time>2022-05-09T08:56:00.000Z</time>
      </trkpt>
      <trkpt lat="50.38093" lon="3.57541">
        <ele>27.6</ele>
        <time>2022-05-09T08:56:02.000Z</time>
      </trkpt>
      <trkpt lat="50.38099" lon="3.5754">
        <ele>27.4</ele>
        <time>2022-05-09T08:56:04.000Z</time>
      </trkpt>
      <trkpt lat="50.38106" lon="3.57537">
        <ele>27.2</ele>
        <time>2022-05-09T08:56:05.000Z</time>
      </trkpt>
      <trkpt lat="50.38113" lon="3.57535">
        <ele>27</ele>
        <time>2022-05-09T08:56:07.000Z</time>
      </trkpt>
      <trkpt lat="50.38118" lon="3.57533">
        <ele>27</ele>
        <time>2022-05-09T08:56:09.000Z</time>
      </trkpt>
      <trkpt lat="50.38126" lon="3.57533">
        <ele>27</ele>
        <time>2022-05-09T08:56:10.958Z</time>
      </trkpt>
      <trkpt lat="50.38131" lon="3.57532">
        <ele>27</ele>
        <time>2022-05-09T08:56:12.000Z</time>
      </trkpt>
      <trkpt lat="50.38139" lon="3.57528">
        <ele>27</ele>
        <time>2022-05-09T08:56:14.137Z</time>
      </trkpt>
      <trkpt lat="50.38143" lon="3.57527">
        <ele>27</ele>
        <time>2022-05-09T08:56:15.177Z</time>
      </trkpt>
      <trkpt lat="50.38149" lon="3.57523">
        <ele>27</ele>
        <time>2022-05-09T08:56:16.508Z</time>
      </trkpt>
      <trkpt lat="50.38154" lon="3.57521">
        <ele>27</ele>
        <time>2022-05-09T08:56:17.955Z</time>
      </trkpt>
      <trkpt lat="50.38159" lon="3.57519">
        <ele>27</ele>
        <time>2022-05-09T08:56:19.000Z</time>
      </trkpt>
      <trkpt lat="50.38165" lon="3.57515">
        <ele>27</ele>
        <time>2022-05-09T08:56:20.733Z</time>
      </trkpt>
      <trkpt lat="50.38171" lon="3.57514">
        <ele>27</ele>
        <time>2022-05-09T08:56:22.155Z</time>
      </trkpt>
      <trkpt lat="50.38177" lon="3.57512">
        <ele>27</ele>
        <time>2022-05-09T08:56:23.716Z</time>
      </trkpt>
      <trkpt lat="50.38186" lon="3.57509">
        <ele>27</ele>
        <time>2022-05-09T08:56:26.000Z</time>
      </trkpt>
      <trkpt lat="50.38193" lon="3.57506">
        <ele>27</ele>
        <time>2022-05-09T08:56:27.978Z</time>
      </trkpt>
      <trkpt lat="50.38198" lon="3.57504">
        <ele>26.9</ele>
        <time>2022-05-09T08:56:29.000Z</time>
      </trkpt>
      <trkpt lat="50.38206" lon="3.57502">
        <ele>26.6</ele>
        <time>2022-05-09T08:56:31.000Z</time>
      </trkpt>
      <trkpt lat="50.38215" lon="3.57499">
        <ele>26.3</ele>
        <time>2022-05-09T08:56:33.000Z</time>
      </trkpt>
      <trkpt lat="50.38219" lon="3.57497">
        <ele>26.1</ele>
        <time>2022-05-09T08:56:33.997Z</time>
      </trkpt>
      <trkpt lat="50.38224" lon="3.57495">
        <ele>26</ele>
        <time>2022-05-09T08:56:35.000Z</time>
      </trkpt>
      <trkpt lat="50.38232" lon="3.57492">
        <ele>26</ele>
        <time>2022-05-09T08:56:37.000Z</time>
      </trkpt>
      <trkpt lat="50.38237" lon="3.57489">
        <ele>26</ele>
        <time>2022-05-09T08:56:38.000Z</time>
      </trkpt>
      <trkpt lat="50.38246" lon="3.57486">
        <ele>26</ele>
        <time>2022-05-09T08:56:40.000Z</time>
      </trkpt>
      <trkpt lat="50.38253" lon="3.57487">
        <ele>26</ele>
        <time>2022-05-09T08:56:42.109Z</time>
      </trkpt>
      <trkpt lat="50.38258" lon="3.57483">
        <ele>26</ele>
        <time>2022-05-09T08:56:43.030Z</time>
      </trkpt>
      <trkpt lat="50.38269" lon="3.57478">
        <ele>26</ele>
        <time>2022-05-09T08:56:45.747Z</time>
      </trkpt>
      <trkpt lat="50.38278" lon="3.57476">
        <ele>26</ele>
        <time>2022-05-09T08:56:47.871Z</time>
      </trkpt>
      <trkpt lat="50.38283" lon="3.57474">
        <ele>26</ele>
        <time>2022-05-09T08:56:49.000Z</time>
      </trkpt>
      <trkpt lat="50.38288" lon="3.57472">
        <ele>26</ele>
        <time>2022-05-09T08:56:50.000Z</time>
      </trkpt>
      <trkpt lat="50.38296" lon="3.57472">
        <ele>26</ele>
        <time>2022-05-09T08:56:52.000Z</time>
      </trkpt>
      <trkpt lat="50.38304" lon="3.57468">
        <ele>25.9</ele>
        <time>2022-05-09T08:56:54.186Z</time>
      </trkpt>
      <trkpt lat="50.38314" lon="3.57462">
        <ele>25.4</ele>
        <time>2022-05-09T08:56:56.000Z</time>
      </trkpt>
      <trkpt lat="50.38321" lon="3.57459">
        <ele>25.2</ele>
        <time>2022-05-09T08:56:57.000Z</time>
      </trkpt>
      <trkpt lat="50.38326" lon="3.57457">
        <ele>25.1</ele>
        <time>2022-05-09T08:56:59.000Z</time>
      </trkpt>
      <trkpt lat="50.38337" lon="3.57453">
        <ele>25</ele>
        <time>2022-05-09T08:57:01.000Z</time>
      </trkpt>
      <trkpt lat="50.38348" lon="3.57449">
        <ele>25</ele>
        <time>2022-05-09T08:57:03.186Z</time>
      </trkpt>
      <trkpt lat="50.38354" lon="3.57446">
        <ele>25</ele>
        <time>2022-05-09T08:57:05.000Z</time>
      </trkpt>
      <trkpt lat="50.38361" lon="3.57443">
        <ele>25</ele>
        <time>2022-05-09T08:57:07.000Z</time>
      </trkpt>
      <trkpt lat="50.38366" lon="3.57441">
        <ele>25</ele>
        <time>2022-05-09T08:57:08.000Z</time>
      </trkpt>
      <trkpt lat="50.38371" lon="3.57438">
        <ele>25</ele>
        <time>2022-05-09T08:57:09.000Z</time>
      </trkpt>
      <trkpt lat="50.3838" lon="3.57435">
        <ele>25</ele>
        <time>2022-05-09T08:57:11.000Z</time>
      </trkpt>
      <trkpt lat="50.38387" lon="3.57432">
        <ele>25</ele>
        <time>2022-05-09T08:57:12.000Z</time>
      </trkpt>
      <trkpt lat="50.38392" lon="3.57431">
        <ele>24.9</ele>
        <time>2022-05-09T08:57:14.000Z</time>
      </trkpt>
      <trkpt lat="50.38397" lon="3.57428">
        <ele>24.7</ele>
        <time>2022-05-09T08:57:15.000Z</time>
      </trkpt>
      <trkpt lat="50.38402" lon="3.57425">
        <ele>24.5</ele>
        <time>2022-05-09T08:57:17.067Z</time>
      </trkpt>
      <trkpt lat="50.38409" lon="3.57421">
        <ele>24.3</ele>
        <time>2022-05-09T08:57:18.000Z</time>
      </trkpt>
      <trkpt lat="50.38413" lon="3.5742">
        <ele>24.1</ele>
        <time>2022-05-09T08:57:19.000Z</time>
      </trkpt>
      <trkpt lat="50.38418" lon="3.57419">
        <ele>24</ele>
        <time>2022-05-09T08:57:20.000Z</time>
      </trkpt>
      <trkpt lat="50.38425" lon="3.57416">
        <ele>24</ele>
        <time>2022-05-09T08:57:22.000Z</time>
      </trkpt>
      <trkpt lat="50.38432" lon="3.57412">
        <ele>24</ele>
        <time>2022-05-09T08:57:23.000Z</time>
      </trkpt>
      <trkpt lat="50.3844" lon="3.5741">
        <ele>24</ele>
        <time>2022-05-09T08:57:25.000Z</time>
      </trkpt>
      <trkpt lat="50.38445" lon="3.57407">
        <ele>24</ele>
        <time>2022-05-09T08:57:26.000Z</time>
      </trkpt>
      <trkpt lat="50.38456" lon="3.57401">
        <ele>23.6</ele>
        <time>2022-05-09T08:57:28.000Z</time>
      </trkpt>
      <trkpt lat="50.3846" lon="3.57399">
        <ele>23.4</ele>
        <time>2022-05-09T08:57:29.608Z</time>
      </trkpt>
      <trkpt lat="50.38464" lon="3.57397">
        <ele>23.3</ele>
        <time>2022-05-09T08:57:30.791Z</time>
      </trkpt>
      <trkpt lat="50.38472" lon="3.57393">
        <ele>23</ele>
        <time>2022-05-09T08:57:32.991Z</time>
      </trkpt>
      <trkpt lat="50.38478" lon="3.5739">
        <ele>23</ele>
        <time>2022-05-09T08:57:34.000Z</time>
      </trkpt>
      <trkpt lat="50.38487" lon="3.57385">
        <ele>23</ele>
        <time>2022-05-09T08:57:36.000Z</time>
      </trkpt>
      <trkpt lat="50.38493" lon="3.57381">
        <ele>23</ele>
        <time>2022-05-09T08:57:38.063Z</time>
      </trkpt>
      <trkpt lat="50.38504" lon="3.57372">
        <ele>22.9</ele>
        <time>2022-05-09T08:57:41.091Z</time>
      </trkpt>
      <trkpt lat="50.38509" lon="3.57366">
        <ele>22.7</ele>
        <time>2022-05-09T08:57:43.000Z</time>
      </trkpt>
      <trkpt lat="50.38514" lon="3.57358">
        <ele>22.5</ele>
        <time>2022-05-09T08:57:44.068Z</time>
      </trkpt>
      <trkpt lat="50.38517" lon="3.57347">
        <ele>22.4</ele>
        <time>2022-05-09T08:57:46.000Z</time>
      </trkpt>
      <trkpt lat="50.3852" lon="3.57333">
        <ele>22.3</ele>
        <time>2022-05-09T08:57:48.000Z</time>
      </trkpt>
      <trkpt lat="50.38521" lon="3.57325">
        <ele>22.3</ele>
        <time>2022-05-09T08:57:49.000Z</time>
      </trkpt>
      <trkpt lat="50.38519" lon="3.57311">
        <ele>22.3</ele>
        <time>2022-05-09T08:57:51.000Z</time>
      </trkpt>
      <trkpt lat="50.38516" lon="3.57298">
        <ele>22.4</ele>
        <time>2022-05-09T08:57:53.000Z</time>
      </trkpt>
      <trkpt lat="50.38514" lon="3.5729">
        <ele>22.5</ele>
        <time>2022-05-09T08:57:54.000Z</time>
      </trkpt>
      <trkpt lat="50.38513" lon="3.57283">
        <ele>22.5</ele>
        <time>2022-05-09T08:57:55.000Z</time>
      </trkpt>
      <trkpt lat="50.38511" lon="3.57276">
        <ele>22.6</ele>
        <time>2022-05-09T08:57:56.000Z</time>
      </trkpt>
      <trkpt lat="50.38509" lon="3.57269">
        <ele>22.7</ele>
        <time>2022-05-09T08:57:57.000Z</time>
      </trkpt>
      <trkpt lat="50.38507" lon="3.5726">
        <ele>22.7</ele>
        <time>2022-05-09T08:57:58.000Z</time>
      </trkpt>
      <trkpt lat="50.38506" lon="3.57253">
        <ele>22.8</ele>
        <time>2022-05-09T08:57:59.000Z</time>
      </trkpt>
      <trkpt lat="50.38505" lon="3.57246">
        <ele>22.7</ele>
        <time>2022-05-09T08:58:00.000Z</time>
      </trkpt>
      <trkpt lat="50.38501" lon="3.57233">
        <ele>22.4</ele>
        <time>2022-05-09T08:58:02.000Z</time>
      </trkpt>
      <trkpt lat="50.38499" lon="3.57226">
        <ele>22.1</ele>
        <time>2022-05-09T08:58:03.000Z</time>
      </trkpt>
      <trkpt lat="50.38498" lon="3.57219">
        <ele>22.1</ele>
        <time>2022-05-09T08:58:04.000Z</time>
      </trkpt>
      <trkpt lat="50.38497" lon="3.57211">
        <ele>22.1</ele>
        <time>2022-05-09T08:58:05.000Z</time>
      </trkpt>
      <trkpt lat="50.38498" lon="3.57203">
        <ele>22</ele>
        <time>2022-05-09T08:58:06.000Z</time>
      </trkpt>
      <trkpt lat="50.385" lon="3.57197">
        <ele>22</ele>
        <time>2022-05-09T08:58:07.000Z</time>
      </trkpt>
      <trkpt lat="50.38504" lon="3.57192">
        <ele>22</ele>
        <time>2022-05-09T08:58:08.000Z</time>
      </trkpt>
      <trkpt lat="50.38509" lon="3.57189">
        <ele>21.9</ele>
        <time>2022-05-09T08:58:09.000Z</time>
      </trkpt>
      <trkpt lat="50.38514" lon="3.57187">
        <ele>21.9</ele>
        <time>2022-05-09T08:58:10.000Z</time>
      </trkpt>
      <trkpt lat="50.38518" lon="3.57184">
        <ele>21.7</ele>
        <time>2022-05-09T08:58:11.000Z</time>
      </trkpt>
      <trkpt lat="50.38527" lon="3.57178">
        <ele>21.4</ele>
        <time>2022-05-09T08:58:13.000Z</time>
      </trkpt>
      <trkpt lat="50.38531" lon="3.57175">
        <ele>21.4</ele>
        <time>2022-05-09T08:58:14.000Z</time>
      </trkpt>
      <trkpt lat="50.38536" lon="3.57172">
        <ele>21.4</ele>
        <time>2022-05-09T08:58:15.000Z</time>
      </trkpt>
      <trkpt lat="50.3854" lon="3.5717">
        <ele>21.5</ele>
        <time>2022-05-09T08:58:16.000Z</time>
      </trkpt>
      <trkpt lat="50.38547" lon="3.57165">
        <ele>21.6</ele>
        <time>2022-05-09T08:58:18.014Z</time>
      </trkpt>
      <trkpt lat="50.38553" lon="3.57161">
        <ele>21.7</ele>
        <time>2022-05-09T08:58:19.000Z</time>
      </trkpt>
      <trkpt lat="50.38561" lon="3.57159">
        <ele>21.6</ele>
        <time>2022-05-09T08:58:21.000Z</time>
      </trkpt>
      <trkpt lat="50.38567" lon="3.57156">
        <ele>21.4</ele>
        <time>2022-05-09T08:58:22.000Z</time>
      </trkpt>
      <trkpt lat="50.38574" lon="3.57152">
        <ele>21.2</ele>
        <time>2022-05-09T08:58:24.000Z</time>
      </trkpt>
      <trkpt lat="50.3858" lon="3.57149">
        <ele>21</ele>
        <time>2022-05-09T08:58:26.000Z</time>
      </trkpt>
      <trkpt lat="50.38589" lon="3.57146">
        <ele>21</ele>
        <time>2022-05-09T08:58:28.000Z</time>
      </trkpt>
      <trkpt lat="50.38595" lon="3.57146">
        <ele>20.9</ele>
        <time>2022-05-09T08:58:29.000Z</time>
      </trkpt>
      <trkpt lat="50.38597" lon="3.57146">
        <ele>20.9</ele>
        <time>2022-05-09T08:58:32.000Z</time>
      </trkpt>
      <trkpt lat="50.38597" lon="3.57142">
        <ele>20.9</ele>
        <time>2022-05-09T08:58:41.000Z</time>
      </trkpt>
      <trkpt lat="50.38591" lon="3.57141">
        <ele>21</ele>
        <time>2022-05-09T08:58:43.000Z</time>
      </trkpt>
      <trkpt lat="50.38583" lon="3.57144">
        <ele>21</ele>
        <time>2022-05-09T08:58:44.748Z</time>
      </trkpt>
      <trkpt lat="50.38577" lon="3.57148">
        <ele>21.1</ele>
        <time>2022-05-09T08:58:46.000Z</time>
      </trkpt>
      <trkpt lat="50.3857" lon="3.57152">
        <ele>21.2</ele>
        <time>2022-05-09T08:58:48.689Z</time>
      </trkpt>
      <trkpt lat="50.38571" lon="3.57159">
        <ele>21.3</ele>
        <time>2022-05-09T08:58:51.000Z</time>
      </trkpt>
      <trkpt lat="50.38573" lon="3.57162">
        <ele>21.3</ele>
        <time>2022-05-09T08:58:53.000Z</time>
      </trkpt>
      <trkpt lat="50.38576" lon="3.57174">
        <ele>21.2</ele>
        <time>2022-05-09T08:58:55.000Z</time>
      </trkpt>
      <trkpt lat="50.38577" lon="3.57181">
        <ele>21.1</ele>
        <time>2022-05-09T08:58:56.000Z</time>
      </trkpt>
      <trkpt lat="50.3858" lon="3.5719">
        <ele>21</ele>
        <time>2022-05-09T08:58:58.000Z</time>
      </trkpt>
      <trkpt lat="50.38581" lon="3.57198">
        <ele>21.1</ele>
        <time>2022-05-09T08:58:59.067Z</time>
      </trkpt>
      <trkpt lat="50.38584" lon="3.57207">
        <ele>21.4</ele>
        <time>2022-05-09T08:59:01.000Z</time>
      </trkpt>
      <trkpt lat="50.38587" lon="3.5722">
        <ele>21.8</ele>
        <time>2022-05-09T08:59:03.787Z</time>
      </trkpt>
      <trkpt lat="50.38589" lon="3.57227">
        <ele>21.7</ele>
        <time>2022-05-09T08:59:05.000Z</time>
      </trkpt>
      <trkpt lat="50.38591" lon="3.57237">
        <ele>21.3</ele>
        <time>2022-05-09T08:59:07.000Z</time>
      </trkpt>
      <trkpt lat="50.38593" lon="3.57245">
        <ele>21.1</ele>
        <time>2022-05-09T08:59:09.405Z</time>
      </trkpt>
      <trkpt lat="50.38594" lon="3.57252">
        <ele>21</ele>
        <time>2022-05-09T08:59:10.571Z</time>
      </trkpt>
      <trkpt lat="50.38595" lon="3.57264">
        <ele>21</ele>
        <time>2022-05-09T08:59:12.967Z</time>
      </trkpt>
      <trkpt lat="50.38598" lon="3.57271">
        <ele>21</ele>
        <time>2022-05-09T08:59:14.144Z</time>
      </trkpt>
      <trkpt lat="50.38601" lon="3.57279">
        <ele>21</ele>
        <time>2022-05-09T08:59:15.609Z</time>
      </trkpt>
      <trkpt lat="50.38602" lon="3.57294">
        <ele>21</ele>
        <time>2022-05-09T08:59:19.000Z</time>
      </trkpt>
      <trkpt lat="50.38606" lon="3.57307">
        <ele>21.1</ele>
        <time>2022-05-09T08:59:21.987Z</time>
      </trkpt>
      <trkpt lat="50.38607" lon="3.57318">
        <ele>21.4</ele>
        <time>2022-05-09T08:59:24.000Z</time>
      </trkpt>
      <trkpt lat="50.3861" lon="3.57331">
        <ele>21.9</ele>
        <time>2022-05-09T08:59:26.467Z</time>
      </trkpt>
      <trkpt lat="50.38612" lon="3.57343">
        <ele>22</ele>
        <time>2022-05-09T08:59:28.648Z</time>
      </trkpt>
      <trkpt lat="50.38615" lon="3.57352">
        <ele>21.8</ele>
        <time>2022-05-09T08:59:32.000Z</time>
      </trkpt>
      <trkpt lat="50.38615" lon="3.57361">
        <ele>21.8</ele>
        <time>2022-05-09T08:59:33.930Z</time>
      </trkpt>
      <trkpt lat="50.3862" lon="3.57373">
        <ele>21.7</ele>
        <time>2022-05-09T08:59:36.448Z</time>
      </trkpt>
      <trkpt lat="50.38623" lon="3.57382">
        <ele>21.6</ele>
        <time>2022-05-09T08:59:37.831Z</time>
      </trkpt>
      <trkpt lat="50.38623" lon="3.57389">
        <ele>21.6</ele>
        <time>2022-05-09T08:59:40.000Z</time>
      </trkpt>
      <trkpt lat="50.38625" lon="3.57397">
        <ele>21.4</ele>
        <time>2022-05-09T08:59:41.000Z</time>
      </trkpt>
      <trkpt lat="50.38626" lon="3.57404">
        <ele>21.2</ele>
        <time>2022-05-09T08:59:43.009Z</time>
      </trkpt>
      <trkpt lat="50.38629" lon="3.57419">
        <ele>21.1</ele>
        <time>2022-05-09T08:59:45.689Z</time>
      </trkpt>
      <trkpt lat="50.3863" lon="3.57427">
        <ele>21.3</ele>
        <time>2022-05-09T08:59:46.898Z</time>
      </trkpt>
      <trkpt lat="50.38633" lon="3.57438">
        <ele>21.6</ele>
        <time>2022-05-09T08:59:49.000Z</time>
      </trkpt>
      <trkpt lat="50.38635" lon="3.57445">
        <ele>21.8</ele>
        <time>2022-05-09T08:59:51.000Z</time>
      </trkpt>
      <trkpt lat="50.38639" lon="3.57459">
        <ele>22</ele>
        <time>2022-05-09T08:59:53.147Z</time>
      </trkpt>
      <trkpt lat="50.38641" lon="3.57471">
        <ele>21.9</ele>
        <time>2022-05-09T08:59:55.829Z</time>
      </trkpt>
      <trkpt lat="50.38643" lon="3.57484">
        <ele>21.8</ele>
        <time>2022-05-09T08:59:59.105Z</time>
      </trkpt>
      <trkpt lat="50.38645" lon="3.57493">
        <ele>21.8</ele>
        <time>2022-05-09T09:00:00.648Z</time>
      </trkpt>
      <trkpt lat="50.38647" lon="3.57504">
        <ele>21.7</ele>
        <time>2022-05-09T09:00:02.909Z</time>
      </trkpt>
      <trkpt lat="50.3865" lon="3.57518">
        <ele>21.6</ele>
        <time>2022-05-09T09:00:05.906Z</time>
      </trkpt>
      <trkpt lat="50.38652" lon="3.57525">
        <ele>21.5</ele>
        <time>2022-05-09T09:00:08.000Z</time>
      </trkpt>
      <trkpt lat="50.38654" lon="3.57533">
        <ele>21.4</ele>
        <time>2022-05-09T09:00:09.000Z</time>
      </trkpt>
      <trkpt lat="50.38657" lon="3.57545">
        <ele>21.1</ele>
        <time>2022-05-09T09:00:11.686Z</time>
      </trkpt>
      <trkpt lat="50.38658" lon="3.57552">
        <ele>21</ele>
        <time>2022-05-09T09:00:13.128Z</time>
      </trkpt>
      <trkpt lat="50.38658" lon="3.5756">
        <ele>21.1</ele>
        <time>2022-05-09T09:00:15.000Z</time>
      </trkpt>
      <trkpt lat="50.38662" lon="3.57574">
        <ele>21.6</ele>
        <time>2022-05-09T09:00:17.627Z</time>
      </trkpt>
      <trkpt lat="50.38664" lon="3.57581">
        <ele>21.9</ele>
        <time>2022-05-09T09:00:18.967Z</time>
      </trkpt>
      <trkpt lat="50.38667" lon="3.57591">
        <ele>22</ele>
        <time>2022-05-09T09:00:21.000Z</time>
      </trkpt>
      <trkpt lat="50.38668" lon="3.57599">
        <ele>21.9</ele>
        <time>2022-05-09T09:00:23.750Z</time>
      </trkpt>
      <trkpt lat="50.3867" lon="3.57612">
        <ele>21.9</ele>
        <time>2022-05-09T09:00:27.673Z</time>
      </trkpt>
      <trkpt lat="50.38673" lon="3.57621">
        <ele>21.8</ele>
        <time>2022-05-09T09:00:30.000Z</time>
      </trkpt>
      <trkpt lat="50.38675" lon="3.57629">
        <ele>21.7</ele>
        <time>2022-05-09T09:00:32.085Z</time>
      </trkpt>
      <trkpt lat="50.38676" lon="3.57637">
        <ele>21.6</ele>
        <time>2022-05-09T09:00:33.987Z</time>
      </trkpt>
      <trkpt lat="50.38677" lon="3.57648">
        <ele>21.6</ele>
        <time>2022-05-09T09:00:37.000Z</time>
      </trkpt>
      <trkpt lat="50.3868" lon="3.57656">
        <ele>21.5</ele>
        <time>2022-05-09T09:00:39.000Z</time>
      </trkpt>
      <trkpt lat="50.38682" lon="3.57664">
        <ele>21.4</ele>
        <time>2022-05-09T09:00:41.626Z</time>
      </trkpt>
      <trkpt lat="50.38683" lon="3.57672">
        <ele>21.3</ele>
        <time>2022-05-09T09:00:43.126Z</time>
      </trkpt>
      <trkpt lat="50.38686" lon="3.57685">
        <ele>21.1</ele>
        <time>2022-05-09T09:00:46.044Z</time>
      </trkpt>
      <trkpt lat="50.38687" lon="3.57695">
        <ele>21</ele>
        <time>2022-05-09T09:00:48.178Z</time>
      </trkpt>
      <trkpt lat="50.38688" lon="3.57704">
        <ele>21.3</ele>
        <time>2022-05-09T09:00:49.906Z</time>
      </trkpt>
      <trkpt lat="50.38689" lon="3.57711">
        <ele>21.6</ele>
        <time>2022-05-09T09:00:51.006Z</time>
      </trkpt>
      <trkpt lat="50.38692" lon="3.57723">
        <ele>22</ele>
        <time>2022-05-09T09:00:53.569Z</time>
      </trkpt>
      <trkpt lat="50.38695" lon="3.57734">
        <ele>22</ele>
        <time>2022-05-09T09:00:56.149Z</time>
      </trkpt>
      <trkpt lat="50.38698" lon="3.57747">
        <ele>21.9</ele>
        <time>2022-05-09T09:00:58.966Z</time>
      </trkpt>
      <trkpt lat="50.38701" lon="3.5776">
        <ele>21.8</ele>
        <time>2022-05-09T09:01:02.044Z</time>
      </trkpt>
      <trkpt lat="50.38703" lon="3.57767">
        <ele>21.7</ele>
        <time>2022-05-09T09:01:04.000Z</time>
      </trkpt>
      <trkpt lat="50.38705" lon="3.57776">
        <ele>21.6</ele>
        <time>2022-05-09T09:01:06.000Z</time>
      </trkpt>
      <trkpt lat="50.38708" lon="3.57789">
        <ele>21.7</ele>
        <time>2022-05-09T09:01:08.326Z</time>
      </trkpt>
      <trkpt lat="50.38709" lon="3.57796">
        <ele>21.8</ele>
        <time>2022-05-09T09:01:09.609Z</time>
      </trkpt>
      <trkpt lat="50.38711" lon="3.57808">
        <ele>22</ele>
        <time>2022-05-09T09:01:12.000Z</time>
      </trkpt>
      <trkpt lat="50.38715" lon="3.57819">
        <ele>22.1</ele>
        <time>2022-05-09T09:01:14.645Z</time>
      </trkpt>
      <trkpt lat="50.38716" lon="3.57828">
        <ele>22.2</ele>
        <time>2022-05-09T09:01:16.996Z</time>
      </trkpt>
      <trkpt lat="50.38718" lon="3.57839">
        <ele>22.2</ele>
        <time>2022-05-09T09:01:19.946Z</time>
      </trkpt>
      <trkpt lat="50.38721" lon="3.57847">
        <ele>22</ele>
        <time>2022-05-09T09:01:21.987Z</time>
      </trkpt>
      <trkpt lat="50.38723" lon="3.57858">
        <ele>22</ele>
        <time>2022-05-09T09:01:25.009Z</time>
      </trkpt>
      <trkpt lat="50.38724" lon="3.57866">
        <ele>22.1</ele>
        <time>2022-05-09T09:01:27.000Z</time>
      </trkpt>
      <trkpt lat="50.38727" lon="3.57877">
        <ele>22.3</ele>
        <time>2022-05-09T09:01:30.108Z</time>
      </trkpt>
      <trkpt lat="50.38728" lon="3.57884">
        <ele>22.5</ele>
        <time>2022-05-09T09:01:31.605Z</time>
      </trkpt>
      <trkpt lat="50.3873" lon="3.57895">
        <ele>22.5</ele>
        <time>2022-05-09T09:01:34.025Z</time>
      </trkpt>
      <trkpt lat="50.38733" lon="3.57902">
        <ele>22.4</ele>
        <time>2022-05-09T09:01:36.150Z</time>
      </trkpt>
      <trkpt lat="50.38735" lon="3.5791">
        <ele>22.4</ele>
        <time>2022-05-09T09:01:39.126Z</time>
      </trkpt>
      <trkpt lat="50.38737" lon="3.57918">
        <ele>22.5</ele>
        <time>2022-05-09T09:01:41.906Z</time>
      </trkpt>
      <trkpt lat="50.38739" lon="3.57929">
        <ele>22.4</ele>
        <time>2022-05-09T09:01:45.066Z</time>
      </trkpt>
      <trkpt lat="50.38742" lon="3.57938">
        <ele>22.3</ele>
        <time>2022-05-09T09:01:47.808Z</time>
      </trkpt>
      <trkpt lat="50.38743" lon="3.57945">
        <ele>22.3</ele>
        <time>2022-05-09T09:01:50.000Z</time>
      </trkpt>
      <trkpt lat="50.38744" lon="3.57954">
        <ele>22.2</ele>
        <time>2022-05-09T09:01:52.000Z</time>
      </trkpt>
      <trkpt lat="50.38747" lon="3.57962">
        <ele>22.1</ele>
        <time>2022-05-09T09:01:55.049Z</time>
      </trkpt>
      <trkpt lat="50.38748" lon="3.5797">
        <ele>22.1</ele>
        <time>2022-05-09T09:01:57.785Z</time>
      </trkpt>
      <trkpt lat="50.3875" lon="3.57979">
        <ele>22.2</ele>
        <time>2022-05-09T09:02:01.000Z</time>
      </trkpt>
      <trkpt lat="50.38752" lon="3.57985">
        <ele>22.4</ele>
        <time>2022-05-09T09:02:02.904Z</time>
      </trkpt>
      <trkpt lat="50.38753" lon="3.57995">
        <ele>22.7</ele>
        <time>2022-05-09T09:02:05.647Z</time>
      </trkpt>
      <trkpt lat="50.38756" lon="3.58003">
        <ele>22.8</ele>
        <time>2022-05-09T09:02:08.965Z</time>
      </trkpt>
      <trkpt lat="50.38757" lon="3.58011">
        <ele>22.7</ele>
        <time>2022-05-09T09:02:11.025Z</time>
      </trkpt>
      <trkpt lat="50.38759" lon="3.5802">
        <ele>22.7</ele>
        <time>2022-05-09T09:02:14.228Z</time>
      </trkpt>
      <trkpt lat="50.3876" lon="3.58029">
        <ele>22.7</ele>
        <time>2022-05-09T09:02:17.000Z</time>
      </trkpt>
      <trkpt lat="50.38763" lon="3.5804">
        <ele>22.7</ele>
        <time>2022-05-09T09:02:20.787Z</time>
      </trkpt>
      <trkpt lat="50.38763" lon="3.58049">
        <ele>22.9</ele>
        <time>2022-05-09T09:02:23.000Z</time>
      </trkpt>
      <trkpt lat="50.38765" lon="3.58057">
        <ele>23</ele>
        <time>2022-05-09T09:02:25.952Z</time>
      </trkpt>
      <trkpt lat="50.38767" lon="3.58065">
        <ele>23</ele>
        <time>2022-05-09T09:02:28.927Z</time>
      </trkpt>
      <trkpt lat="50.3877" lon="3.58075">
        <ele>23</ele>
        <time>2022-05-09T09:02:31.068Z</time>
      </trkpt>
      <trkpt lat="50.38772" lon="3.58082">
        <ele>23</ele>
        <time>2022-05-09T09:02:33.685Z</time>
      </trkpt>
      <trkpt lat="50.38772" lon="3.58093">
        <ele>23</ele>
        <time>2022-05-09T09:02:36.966Z</time>
      </trkpt>
      <trkpt lat="50.38776" lon="3.58107">
        <ele>23</ele>
        <time>2022-05-09T09:02:41.000Z</time>
      </trkpt>
      <trkpt lat="50.38778" lon="3.58117">
        <ele>23</ele>
        <time>2022-05-09T09:02:45.008Z</time>
      </trkpt>
      <trkpt lat="50.38781" lon="3.58121">
        <ele>23</ele>
        <time>2022-05-09T09:02:49.000Z</time>
      </trkpt>
      <trkpt lat="50.38786" lon="3.58117">
        <ele>23</ele>
        <time>2022-05-09T09:02:51.000Z</time>
      </trkpt>
      <trkpt lat="50.38792" lon="3.58114">
        <ele>23</ele>
        <time>2022-05-09T09:02:53.768Z</time>
      </trkpt>
      <trkpt lat="50.38796" lon="3.58109">
        <ele>22.9</ele>
        <time>2022-05-09T09:02:56.000Z</time>
      </trkpt>
      <trkpt lat="50.38802" lon="3.58106">
        <ele>22.8</ele>
        <time>2022-05-09T09:02:58.000Z</time>
      </trkpt>
      <trkpt lat="50.38807" lon="3.58101">
        <ele>22.6</ele>
        <time>2022-05-09T09:03:00.068Z</time>
      </trkpt>
      <trkpt lat="50.38814" lon="3.58096">
        <ele>22.5</ele>
        <time>2022-05-09T09:03:02.287Z</time>
      </trkpt>
      <trkpt lat="50.38821" lon="3.58089">
        <ele>22.2</ele>
        <time>2022-05-09T09:03:04.910Z</time>
      </trkpt>
      <trkpt lat="50.38827" lon="3.58083">
        <ele>22</ele>
        <time>2022-05-09T09:03:07.000Z</time>
      </trkpt>
      <trkpt lat="50.38833" lon="3.58076">
        <ele>22</ele>
        <time>2022-05-09T09:03:09.000Z</time>
      </trkpt>
      <trkpt lat="50.38841" lon="3.58067">
        <ele>22</ele>
        <time>2022-05-09T09:03:11.626Z</time>
      </trkpt>
      <trkpt lat="50.38846" lon="3.58061">
        <ele>22</ele>
        <time>2022-05-09T09:03:13.066Z</time>
      </trkpt>
      <trkpt lat="50.38852" lon="3.58053">
        <ele>22</ele>
        <time>2022-05-09T09:03:15.000Z</time>
      </trkpt>
      <trkpt lat="50.38859" lon="3.58045">
        <ele>22</ele>
        <time>2022-05-09T09:03:17.000Z</time>
      </trkpt>
      <trkpt lat="50.38865" lon="3.58036">
        <ele>22</ele>
        <time>2022-05-09T09:03:19.000Z</time>
      </trkpt>
      <trkpt lat="50.38871" lon="3.58036">
        <ele>22</ele>
        <time>2022-05-09T09:03:21.000Z</time>
      </trkpt>
      <trkpt lat="50.38875" lon="3.58038">
        <ele>22</ele>
        <time>2022-05-09T09:03:22.000Z</time>
      </trkpt>
      <trkpt lat="50.38881" lon="3.58049">
        <ele>22</ele>
        <time>2022-05-09T09:03:24.000Z</time>
      </trkpt>
      <trkpt lat="50.38884" lon="3.58054">
        <ele>22</ele>
        <time>2022-05-09T09:03:25.000Z</time>
      </trkpt>
      <trkpt lat="50.38886" lon="3.5806">
        <ele>22</ele>
        <time>2022-05-09T09:03:26.000Z</time>
      </trkpt>
      <trkpt lat="50.38894" lon="3.58074">
        <ele>21.9</ele>
        <time>2022-05-09T09:03:29.000Z</time>
      </trkpt>
      <trkpt lat="50.38899" lon="3.58083">
        <ele>22</ele>
        <time>2022-05-09T09:03:31.000Z</time>
      </trkpt>
      <trkpt lat="50.38904" lon="3.58089">
        <ele>22</ele>
        <time>2022-05-09T09:03:33.000Z</time>
      </trkpt>
      <trkpt lat="50.38911" lon="3.58097">
        <ele>22</ele>
        <time>2022-05-09T09:03:35.000Z</time>
      </trkpt>
      <trkpt lat="50.38916" lon="3.58106">
        <ele>22</ele>
        <time>2022-05-09T09:03:37.000Z</time>
      </trkpt>
      <trkpt lat="50.38921" lon="3.58114">
        <ele>22</ele>
        <time>2022-05-09T09:03:39.000Z</time>
      </trkpt>
      <trkpt lat="50.38925" lon="3.58124">
        <ele>22</ele>
        <time>2022-05-09T09:03:41.000Z</time>
      </trkpt>
      <trkpt lat="50.3893" lon="3.58134">
        <ele>22</ele>
        <time>2022-05-09T09:03:43.000Z</time>
      </trkpt>
      <trkpt lat="50.38935" lon="3.58142">
        <ele>22</ele>
        <time>2022-05-09T09:03:45.000Z</time>
      </trkpt>
      <trkpt lat="50.3894" lon="3.58148">
        <ele>22</ele>
        <time>2022-05-09T09:03:46.950Z</time>
      </trkpt>
      <trkpt lat="50.38944" lon="3.58155">
        <ele>22</ele>
        <time>2022-05-09T09:03:48.000Z</time>
      </trkpt>
      <trkpt lat="50.38947" lon="3.58161">
        <ele>21.9</ele>
        <time>2022-05-09T09:03:49.000Z</time>
      </trkpt>
      <trkpt lat="50.38951" lon="3.58167">
        <ele>21.8</ele>
        <time>2022-05-09T09:03:50.000Z</time>
      </trkpt>
      <trkpt lat="50.38954" lon="3.58172">
        <ele>21.7</ele>
        <time>2022-05-09T09:03:51.000Z</time>
      </trkpt>
      <trkpt lat="50.38959" lon="3.5818">
        <ele>21.7</ele>
        <time>2022-05-09T09:03:52.967Z</time>
      </trkpt>
      <trkpt lat="50.38963" lon="3.58188">
        <ele>21.8</ele>
        <time>2022-05-09T09:03:54.000Z</time>
      </trkpt>
      <trkpt lat="50.38968" lon="3.58197">
        <ele>22</ele>
        <time>2022-05-09T09:03:56.000Z</time>
      </trkpt>
      <trkpt lat="50.38971" lon="3.58203">
        <ele>22</ele>
        <time>2022-05-09T09:03:57.000Z</time>
      </trkpt>
      <trkpt lat="50.38976" lon="3.58212">
        <ele>21.9</ele>
        <time>2022-05-09T09:03:59.000Z</time>
      </trkpt>
      <trkpt lat="50.38979" lon="3.58217">
        <ele>22</ele>
        <time>2022-05-09T09:04:00.000Z</time>
      </trkpt>
      <trkpt lat="50.38985" lon="3.58226">
        <ele>22</ele>
        <time>2022-05-09T09:04:02.000Z</time>
      </trkpt>
      <trkpt lat="50.38991" lon="3.58235">
        <ele>22</ele>
        <time>2022-05-09T09:04:04.000Z</time>
      </trkpt>
      <trkpt lat="50.38994" lon="3.5824">
        <ele>22</ele>
        <time>2022-05-09T09:04:05.000Z</time>
      </trkpt>
      <trkpt lat="50.39" lon="3.5825">
        <ele>22</ele>
        <time>2022-05-09T09:04:07.000Z</time>
      </trkpt>
      <trkpt lat="50.39003" lon="3.58256">
        <ele>21.9</ele>
        <time>2022-05-09T09:04:08.000Z</time>
      </trkpt>
      <trkpt lat="50.39007" lon="3.5826">
        <ele>21.7</ele>
        <time>2022-05-09T09:04:09.000Z</time>
      </trkpt>
      <trkpt lat="50.3901" lon="3.58265">
        <ele>21.6</ele>
        <time>2022-05-09T09:04:10.000Z</time>
      </trkpt>
      <trkpt lat="50.39018" lon="3.5828">
        <ele>21.4</ele>
        <time>2022-05-09T09:04:13.009Z</time>
      </trkpt>
      <trkpt lat="50.39024" lon="3.5829">
        <ele>21.5</ele>
        <time>2022-05-09T09:04:15.000Z</time>
      </trkpt>
      <trkpt lat="50.3903" lon="3.58301">
        <ele>21.7</ele>
        <time>2022-05-09T09:04:17.000Z</time>
      </trkpt>
      <trkpt lat="50.39034" lon="3.58306">
        <ele>21.8</ele>
        <time>2022-05-09T09:04:18.000Z</time>
      </trkpt>
      <trkpt lat="50.3904" lon="3.58317">
        <ele>21.6</ele>
        <time>2022-05-09T09:04:20.000Z</time>
      </trkpt>
      <trkpt lat="50.39046" lon="3.58328">
        <ele>21.3</ele>
        <time>2022-05-09T09:04:23.000Z</time>
      </trkpt>
      <trkpt lat="50.39051" lon="3.58334">
        <ele>21.2</ele>
        <time>2022-05-09T09:04:25.000Z</time>
      </trkpt>
      <trkpt lat="50.39055" lon="3.58339">
        <ele>21.2</ele>
        <time>2022-05-09T09:04:26.110Z</time>
      </trkpt>
      <trkpt lat="50.39061" lon="3.58343">
        <ele>21.3</ele>
        <time>2022-05-09T09:04:27.931Z</time>
      </trkpt>
      <trkpt lat="50.39066" lon="3.58341">
        <ele>21.3</ele>
        <time>2022-05-09T09:04:29.000Z</time>
      </trkpt>
      <trkpt lat="50.39071" lon="3.58335">
        <ele>21.1</ele>
        <time>2022-05-09T09:04:31.000Z</time>
      </trkpt>
      <trkpt lat="50.39073" lon="3.58324">
        <ele>21</ele>
        <time>2022-05-09T09:04:33.852Z</time>
      </trkpt>
      <trkpt lat="50.3907" lon="3.5832">
        <ele>21</ele>
        <time>2022-05-09T09:04:36.000Z</time>
      </trkpt>
      <trkpt lat="50.3907" lon="3.5833">
        <ele>21</ele>
        <time>2022-05-09T09:04:38.000Z</time>
      </trkpt>
      <trkpt lat="50.39067" lon="3.58339">
        <ele>21.2</ele>
        <time>2022-05-09T09:04:39.285Z</time>
      </trkpt>
      <trkpt lat="50.3906" lon="3.58347">
        <ele>21.5</ele>
        <time>2022-05-09T09:04:40.911Z</time>
      </trkpt>
      <trkpt lat="50.3906" lon="3.58355">
        <ele>21.8</ele>
        <time>2022-05-09T09:04:42.000Z</time>
      </trkpt>
      <trkpt lat="50.39063" lon="3.58368">
        <ele>21.8</ele>
        <time>2022-05-09T09:04:44.000Z</time>
      </trkpt>
      <trkpt lat="50.39066" lon="3.58379">
        <ele>21.6</ele>
        <time>2022-05-09T09:04:46.000Z</time>
      </trkpt>
      <trkpt lat="50.39071" lon="3.58389">
        <ele>21.6</ele>
        <time>2022-05-09T09:04:48.000Z</time>
      </trkpt>
      <trkpt lat="50.39075" lon="3.58398">
        <ele>21.5</ele>
        <time>2022-05-09T09:04:50.000Z</time>
      </trkpt>
      <trkpt lat="50.39079" lon="3.58408">
        <ele>21.3</ele>
        <time>2022-05-09T09:04:51.000Z</time>
      </trkpt>
      <trkpt lat="50.39084" lon="3.58415">
        <ele>21.1</ele>
        <time>2022-05-09T09:04:53.000Z</time>
      </trkpt>
      <trkpt lat="50.3909" lon="3.58423">
        <ele>21</ele>
        <time>2022-05-09T09:04:55.000Z</time>
      </trkpt>
      <trkpt lat="50.39095" lon="3.58428">
        <ele>21</ele>
        <time>2022-05-09T09:04:56.000Z</time>
      </trkpt>
      <trkpt lat="50.39103" lon="3.58441">
        <ele>21</ele>
        <time>2022-05-09T09:04:59.070Z</time>
      </trkpt>
      <trkpt lat="50.39109" lon="3.58449">
        <ele>21</ele>
        <time>2022-05-09T09:05:01.000Z</time>
      </trkpt>
      <trkpt lat="50.39119" lon="3.58463">
        <ele>21</ele>
        <time>2022-05-09T09:05:04.011Z</time>
      </trkpt>
      <trkpt lat="50.39125" lon="3.58474">
        <ele>21</ele>
        <time>2022-05-09T09:05:06.000Z</time>
      </trkpt>
      <trkpt lat="50.39132" lon="3.58486">
        <ele>21</ele>
        <time>2022-05-09T09:05:09.000Z</time>
      </trkpt>
      <trkpt lat="50.39135" lon="3.58492">
        <ele>21</ele>
        <time>2022-05-09T09:05:09.906Z</time>
      </trkpt>
      <trkpt lat="50.39142" lon="3.58504">
        <ele>21</ele>
        <time>2022-05-09T09:05:12.000Z</time>
      </trkpt>
      <trkpt lat="50.39145" lon="3.58509">
        <ele>21</ele>
        <time>2022-05-09T09:05:13.000Z</time>
      </trkpt>
      <trkpt lat="50.39148" lon="3.58512">
        <ele>21</ele>
        <time>2022-05-09T09:05:14.000Z</time>
      </trkpt>
      <trkpt lat="50.39154" lon="3.58522">
        <ele>21</ele>
        <time>2022-05-09T09:05:16.000Z</time>
      </trkpt>
      <trkpt lat="50.3916" lon="3.58534">
        <ele>21</ele>
        <time>2022-05-09T09:05:18.524Z</time>
      </trkpt>
      <trkpt lat="50.39164" lon="3.5854">
        <ele>21</ele>
        <time>2022-05-09T09:05:20.022Z</time>
      </trkpt>
      <trkpt lat="50.3917" lon="3.58549">
        <ele>21</ele>
        <time>2022-05-09T09:05:22.000Z</time>
      </trkpt>
      <trkpt lat="50.39173" lon="3.58554">
        <ele>21</ele>
        <time>2022-05-09T09:05:22.923Z</time>
      </trkpt>
      <trkpt lat="50.39178" lon="3.58562">
        <ele>21</ele>
        <time>2022-05-09T09:05:25.083Z</time>
      </trkpt>
      <trkpt lat="50.39185" lon="3.5857">
        <ele>21</ele>
        <time>2022-05-09T09:05:27.224Z</time>
      </trkpt>
      <trkpt lat="50.3919" lon="3.58579">
        <ele>21</ele>
        <time>2022-05-09T09:05:29.342Z</time>
      </trkpt>
      <trkpt lat="50.39197" lon="3.58591">
        <ele>21</ele>
        <time>2022-05-09T09:05:32.105Z</time>
      </trkpt>
      <trkpt lat="50.39202" lon="3.586">
        <ele>21</ele>
        <time>2022-05-09T09:05:34.083Z</time>
      </trkpt>
      <trkpt lat="50.39206" lon="3.58608">
        <ele>21</ele>
        <time>2022-05-09T09:05:36.023Z</time>
      </trkpt>
      <trkpt lat="50.39211" lon="3.58615">
        <ele>21</ele>
        <time>2022-05-09T09:05:38.000Z</time>
      </trkpt>
      <trkpt lat="50.39215" lon="3.58624">
        <ele>21</ele>
        <time>2022-05-09T09:05:40.041Z</time>
      </trkpt>
      <trkpt lat="50.3922" lon="3.58631">
        <ele>21</ele>
        <time>2022-05-09T09:05:42.000Z</time>
      </trkpt>
      <trkpt lat="50.39225" lon="3.58639">
        <ele>21</ele>
        <time>2022-05-09T09:05:44.000Z</time>
      </trkpt>
      <trkpt lat="50.39229" lon="3.58647">
        <ele>21</ele>
        <time>2022-05-09T09:05:46.000Z</time>
      </trkpt>
      <trkpt lat="50.39235" lon="3.58657">
        <ele>21</ele>
        <time>2022-05-09T09:05:48.555Z</time>
      </trkpt>
      <trkpt lat="50.3924" lon="3.58665">
        <ele>21</ele>
        <time>2022-05-09T09:05:51.000Z</time>
      </trkpt>
      <trkpt lat="50.39244" lon="3.58674">
        <ele>21</ele>
        <time>2022-05-09T09:05:52.933Z</time>
      </trkpt>
      <trkpt lat="50.39248" lon="3.58681">
        <ele>21</ele>
        <time>2022-05-09T09:05:54.442Z</time>
      </trkpt>
      <trkpt lat="50.39255" lon="3.58691">
        <ele>21</ele>
        <time>2022-05-09T09:05:57.000Z</time>
      </trkpt>
      <trkpt lat="50.3926" lon="3.58699">
        <ele>21</ele>
        <time>2022-05-09T09:05:59.015Z</time>
      </trkpt>
      <trkpt lat="50.39265" lon="3.58709">
        <ele>21</ele>
        <time>2022-05-09T09:06:01.000Z</time>
      </trkpt>
      <trkpt lat="50.39273" lon="3.58724">
        <ele>21</ele>
        <time>2022-05-09T09:06:04.000Z</time>
      </trkpt>
      <trkpt lat="50.39277" lon="3.58732">
        <ele>21</ele>
        <time>2022-05-09T09:06:06.000Z</time>
      </trkpt>
      <trkpt lat="50.39283" lon="3.58741">
        <ele>21</ele>
        <time>2022-05-09T09:06:08.000Z</time>
      </trkpt>
      <trkpt lat="50.39288" lon="3.58749">
        <ele>21</ele>
        <time>2022-05-09T09:06:10.000Z</time>
      </trkpt>
      <trkpt lat="50.39293" lon="3.58758">
        <ele>21</ele>
        <time>2022-05-09T09:06:11.948Z</time>
      </trkpt>
      <trkpt lat="50.39298" lon="3.58767">
        <ele>21</ele>
        <time>2022-05-09T09:06:14.000Z</time>
      </trkpt>
      <trkpt lat="50.39301" lon="3.58773">
        <ele>21</ele>
        <time>2022-05-09T09:06:15.044Z</time>
      </trkpt>
      <trkpt lat="50.39307" lon="3.58781">
        <ele>21</ele>
        <time>2022-05-09T09:06:17.000Z</time>
      </trkpt>
      <trkpt lat="50.39313" lon="3.5879">
        <ele>21</ele>
        <time>2022-05-09T09:06:19.000Z</time>
      </trkpt>
      <trkpt lat="50.39319" lon="3.58797">
        <ele>21</ele>
        <time>2022-05-09T09:06:21.000Z</time>
      </trkpt>
      <trkpt lat="50.39324" lon="3.58805">
        <ele>21</ele>
        <time>2022-05-09T09:06:23.000Z</time>
      </trkpt>
      <trkpt lat="50.39328" lon="3.58814">
        <ele>21</ele>
        <time>2022-05-09T09:06:25.000Z</time>
      </trkpt>
      <trkpt lat="50.39333" lon="3.58821">
        <ele>21</ele>
        <time>2022-05-09T09:06:26.905Z</time>
      </trkpt>
      <trkpt lat="50.39336" lon="3.58827">
        <ele>21</ele>
        <time>2022-05-09T09:06:28.000Z</time>
      </trkpt>
      <trkpt lat="50.39341" lon="3.58836">
        <ele>21</ele>
        <time>2022-05-09T09:06:30.000Z</time>
      </trkpt>
      <trkpt lat="50.39346" lon="3.58844">
        <ele>21</ele>
        <time>2022-05-09T09:06:32.000Z</time>
      </trkpt>
      <trkpt lat="50.3935" lon="3.58852">
        <ele>21</ele>
        <time>2022-05-09T09:06:34.000Z</time>
      </trkpt>
      <trkpt lat="50.39356" lon="3.5886">
        <ele>21</ele>
        <time>2022-05-09T09:06:36.000Z</time>
      </trkpt>
      <trkpt lat="50.39359" lon="3.58866">
        <ele>20.8</ele>
        <time>2022-05-09T09:06:37.000Z</time>
      </trkpt>
      <trkpt lat="50.39364" lon="3.58876">
        <ele>20.5</ele>
        <time>2022-05-09T09:06:39.000Z</time>
      </trkpt>
      <trkpt lat="50.39367" lon="3.58882">
        <ele>20.2</ele>
        <time>2022-05-09T09:06:40.000Z</time>
      </trkpt>
      <trkpt lat="50.39373" lon="3.58892">
        <ele>20</ele>
        <time>2022-05-09T09:06:42.000Z</time>
      </trkpt>
      <trkpt lat="50.39378" lon="3.58901">
        <ele>20</ele>
        <time>2022-05-09T09:06:44.000Z</time>
      </trkpt>
      <trkpt lat="50.39382" lon="3.58906">
        <ele>20</ele>
        <time>2022-05-09T09:06:45.000Z</time>
      </trkpt>
      <trkpt lat="50.39387" lon="3.58916">
        <ele>20</ele>
        <time>2022-05-09T09:06:47.000Z</time>
      </trkpt>
      <trkpt lat="50.39391" lon="3.58922">
        <ele>20</ele>
        <time>2022-05-09T09:06:48.000Z</time>
      </trkpt>
      <trkpt lat="50.39397" lon="3.5893">
        <ele>20</ele>
        <time>2022-05-09T09:06:50.000Z</time>
      </trkpt>
      <trkpt lat="50.39403" lon="3.58938">
        <ele>20</ele>
        <time>2022-05-09T09:06:52.000Z</time>
      </trkpt>
      <trkpt lat="50.39406" lon="3.58944">
        <ele>20</ele>
        <time>2022-05-09T09:06:53.064Z</time>
      </trkpt>
      <trkpt lat="50.39411" lon="3.58952">
        <ele>20</ele>
        <time>2022-05-09T09:06:55.125Z</time>
      </trkpt>
      <trkpt lat="50.39415" lon="3.58948">
        <ele>20</ele>
        <time>2022-05-09T09:06:56.745Z</time>
      </trkpt>
      <trkpt lat="50.39416" lon="3.58939">
        <ele>20</ele>
        <time>2022-05-09T09:06:59.000Z</time>
      </trkpt>
      <trkpt lat="50.39421" lon="3.5893">
        <ele>20</ele>
        <time>2022-05-09T09:07:01.000Z</time>
      </trkpt>
      <trkpt lat="50.39427" lon="3.5892">
        <ele>20</ele>
        <time>2022-05-09T09:07:03.000Z</time>
      </trkpt>
      <trkpt lat="50.39433" lon="3.5891">
        <ele>20</ele>
        <time>2022-05-09T09:07:04.924Z</time>
      </trkpt>
      <trkpt lat="50.39438" lon="3.58903">
        <ele>20</ele>
        <time>2022-05-09T09:07:06.000Z</time>
      </trkpt>
      <trkpt lat="50.39441" lon="3.58898">
        <ele>20</ele>
        <time>2022-05-09T09:07:07.164Z</time>
      </trkpt>
      <trkpt lat="50.39446" lon="3.58889">
        <ele>20</ele>
        <time>2022-05-09T09:07:09.000Z</time>
      </trkpt>
      <trkpt lat="50.39455" lon="3.58878">
        <ele>19.6</ele>
        <time>2022-05-09T09:07:11.461Z</time>
      </trkpt>
      <trkpt lat="50.39459" lon="3.58873">
        <ele>19.4</ele>
        <time>2022-05-09T09:07:12.782Z</time>
      </trkpt>
      <trkpt lat="50.39467" lon="3.58858">
        <ele>19</ele>
        <time>2022-05-09T09:07:15.146Z</time>
      </trkpt>
      <trkpt lat="50.39471" lon="3.58851">
        <ele>19</ele>
        <time>2022-05-09T09:07:16.845Z</time>
      </trkpt>
      <trkpt lat="50.39478" lon="3.58842">
        <ele>19</ele>
        <time>2022-05-09T09:07:19.295Z</time>
      </trkpt>
      <trkpt lat="50.39481" lon="3.58837">
        <ele>19</ele>
        <time>2022-05-09T09:07:20.543Z</time>
      </trkpt>
      <trkpt lat="50.39487" lon="3.58828">
        <ele>19</ele>
        <time>2022-05-09T09:07:22.645Z</time>
      </trkpt>
      <trkpt lat="50.39493" lon="3.58819">
        <ele>19</ele>
        <time>2022-05-09T09:07:25.000Z</time>
      </trkpt>
      <trkpt lat="50.39499" lon="3.58812">
        <ele>19</ele>
        <time>2022-05-09T09:07:27.000Z</time>
      </trkpt>
      <trkpt lat="50.39506" lon="3.58799">
        <ele>19</ele>
        <time>2022-05-09T09:07:29.401Z</time>
      </trkpt>
      <trkpt lat="50.39512" lon="3.58787">
        <ele>19</ele>
        <time>2022-05-09T09:07:31.147Z</time>
      </trkpt>
      <trkpt lat="50.39517" lon="3.58781">
        <ele>19</ele>
        <time>2022-05-09T09:07:33.000Z</time>
      </trkpt>
      <trkpt lat="50.39523" lon="3.58771">
        <ele>19</ele>
        <time>2022-05-09T09:07:35.044Z</time>
      </trkpt>
      <trkpt lat="50.39528" lon="3.58762">
        <ele>19</ele>
        <time>2022-05-09T09:07:35.961Z</time>
      </trkpt>
      <trkpt lat="50.39535" lon="3.58753">
        <ele>19</ele>
        <time>2022-05-09T09:07:37.963Z</time>
      </trkpt>
      <trkpt lat="50.39541" lon="3.58745">
        <ele>19</ele>
        <time>2022-05-09T09:07:39.000Z</time>
      </trkpt>
      <trkpt lat="50.39544" lon="3.58739">
        <ele>19</ele>
        <time>2022-05-09T09:07:40.000Z</time>
      </trkpt>
      <trkpt lat="50.3955" lon="3.58731">
        <ele>19</ele>
        <time>2022-05-09T09:07:41.000Z</time>
      </trkpt>
      <trkpt lat="50.39557" lon="3.58718">
        <ele>19</ele>
        <time>2022-05-09T09:07:44.149Z</time>
      </trkpt>
      <trkpt lat="50.39562" lon="3.58709">
        <ele>19</ele>
        <time>2022-05-09T09:07:45.902Z</time>
      </trkpt>
      <trkpt lat="50.39566" lon="3.587">
        <ele>19</ele>
        <time>2022-05-09T09:07:47.082Z</time>
      </trkpt>
      <trkpt lat="50.39571" lon="3.58693">
        <ele>19</ele>
        <time>2022-05-09T09:07:48.000Z</time>
      </trkpt>
      <trkpt lat="50.39578" lon="3.58687">
        <ele>19</ele>
        <time>2022-05-09T09:07:49.801Z</time>
      </trkpt>
      <trkpt lat="50.39583" lon="3.58683">
        <ele>19</ele>
        <time>2022-05-09T09:07:50.942Z</time>
      </trkpt>
      <trkpt lat="50.39587" lon="3.58678">
        <ele>19</ele>
        <time>2022-05-09T09:07:52.100Z</time>
      </trkpt>
      <trkpt lat="50.39591" lon="3.5867">
        <ele>19</ele>
        <time>2022-05-09T09:07:53.610Z</time>
      </trkpt>
      <trkpt lat="50.39597" lon="3.58661">
        <ele>19</ele>
        <time>2022-05-09T09:07:55.121Z</time>
      </trkpt>
      <trkpt lat="50.39603" lon="3.58655">
        <ele>19</ele>
        <time>2022-05-09T09:07:57.000Z</time>
      </trkpt>
      <trkpt lat="50.39607" lon="3.5865">
        <ele>19</ele>
        <time>2022-05-09T09:07:58.000Z</time>
      </trkpt>
      <trkpt lat="50.39613" lon="3.58641">
        <ele>18.9</ele>
        <time>2022-05-09T09:08:00.000Z</time>
      </trkpt>
      <trkpt lat="50.39618" lon="3.58634">
        <ele>18.6</ele>
        <time>2022-05-09T09:08:01.000Z</time>
      </trkpt>
      <trkpt lat="50.39621" lon="3.5863">
        <ele>18.4</ele>
        <time>2022-05-09T09:08:02.000Z</time>
      </trkpt>
      <trkpt lat="50.39625" lon="3.58624">
        <ele>18.2</ele>
        <time>2022-05-09T09:08:03.000Z</time>
      </trkpt>
      <trkpt lat="50.39631" lon="3.58617">
        <ele>18.1</ele>
        <time>2022-05-09T09:08:05.000Z</time>
      </trkpt>
      <trkpt lat="50.39636" lon="3.58608">
        <ele>18.1</ele>
        <time>2022-05-09T09:08:07.131Z</time>
      </trkpt>
      <trkpt lat="50.39641" lon="3.58602">
        <ele>18.3</ele>
        <time>2022-05-09T09:08:08.174Z</time>
      </trkpt>
      <trkpt lat="50.3965" lon="3.58601">
        <ele>18.2</ele>
        <time>2022-05-09T09:08:11.000Z</time>
      </trkpt>
      <trkpt lat="50.39655" lon="3.58603">
        <ele>18.1</ele>
        <time>2022-05-09T09:08:19.000Z</time>
      </trkpt>
      <trkpt lat="50.3966" lon="3.58595">
        <ele>18.1</ele>
        <time>2022-05-09T09:08:34.000Z</time>
      </trkpt>
      <trkpt lat="50.39665" lon="3.58587">
        <ele>18.1</ele>
        <time>2022-05-09T09:08:38.000Z</time>
      </trkpt>
      <trkpt lat="50.39668" lon="3.5858">
        <ele>18</ele>
        <time>2022-05-09T09:08:40.000Z</time>
      </trkpt>
      <trkpt lat="50.39673" lon="3.58577">
        <ele>18</ele>
        <time>2022-05-09T09:08:43.000Z</time>
      </trkpt>
      <trkpt lat="50.39677" lon="3.58573">
        <ele>18</ele>
        <time>2022-05-09T09:08:46.000Z</time>
      </trkpt>
      <trkpt lat="50.39682" lon="3.5857">
        <ele>18</ele>
        <time>2022-05-09T09:08:49.000Z</time>
      </trkpt>
      <trkpt lat="50.39685" lon="3.58565">
        <ele>18</ele>
        <time>2022-05-09T09:08:52.000Z</time>
      </trkpt>
      <trkpt lat="50.3969" lon="3.58559">
        <ele>18</ele>
        <time>2022-05-09T09:08:55.000Z</time>
      </trkpt>
      <trkpt lat="50.39692" lon="3.58552">
        <ele>18</ele>
        <time>2022-05-09T09:08:58.000Z</time>
      </trkpt>
      <trkpt lat="50.39695" lon="3.58543">
        <ele>18</ele>
        <time>2022-05-09T09:09:02.000Z</time>
      </trkpt>
      <trkpt lat="50.39699" lon="3.58536">
        <ele>18</ele>
        <time>2022-05-09T09:09:06.000Z</time>
      </trkpt>
      <trkpt lat="50.39705" lon="3.58531">
        <ele>18</ele>
        <time>2022-05-09T09:09:09.000Z</time>
      </trkpt>
      <trkpt lat="50.3971" lon="3.58529">
        <ele>18</ele>
        <time>2022-05-09T09:09:11.312Z</time>
      </trkpt>
      <trkpt lat="50.39716" lon="3.58529">
        <ele>18</ele>
        <time>2022-05-09T09:09:14.000Z</time>
      </trkpt>
      <trkpt lat="50.39722" lon="3.58527">
        <ele>18</ele>
        <time>2022-05-09T09:09:15.993Z</time>
      </trkpt>
      <trkpt lat="50.39725" lon="3.58522">
        <ele>18</ele>
        <time>2022-05-09T09:09:18.000Z</time>
      </trkpt>
      <trkpt lat="50.39729" lon="3.58513">
        <ele>18</ele>
        <time>2022-05-09T09:09:21.832Z</time>
      </trkpt>
      <trkpt lat="50.3973" lon="3.58502">
        <ele>18</ele>
        <time>2022-05-09T09:09:24.000Z</time>
      </trkpt>
      <trkpt lat="50.39732" lon="3.58489">
        <ele>18</ele>
        <time>2022-05-09T09:09:27.000Z</time>
      </trkpt>
      <trkpt lat="50.39735" lon="3.5848">
        <ele>18</ele>
        <time>2022-05-09T09:09:29.093Z</time>
      </trkpt>
      <trkpt lat="50.39741" lon="3.58473">
        <ele>18</ele>
        <time>2022-05-09T09:09:31.455Z</time>
      </trkpt>
      <trkpt lat="50.39745" lon="3.58466">
        <ele>18</ele>
        <time>2022-05-09T09:09:34.033Z</time>
      </trkpt>
      <trkpt lat="50.3975" lon="3.5846">
        <ele>18</ele>
        <time>2022-05-09T09:09:36.000Z</time>
      </trkpt>
      <trkpt lat="50.39755" lon="3.58448">
        <ele>18</ele>
        <time>2022-05-09T09:09:38.000Z</time>
      </trkpt>
      <trkpt lat="50.39759" lon="3.58441">
        <ele>17.9</ele>
        <time>2022-05-09T09:09:40.974Z</time>
      </trkpt>
      <trkpt lat="50.39763" lon="3.58435">
        <ele>17.8</ele>
        <time>2022-05-09T09:09:43.000Z</time>
      </trkpt>
      <trkpt lat="50.39773" lon="3.58425">
        <ele>17.9</ele>
        <time>2022-05-09T09:09:46.000Z</time>
      </trkpt>
      <trkpt lat="50.39777" lon="3.58422">
        <ele>18</ele>
        <time>2022-05-09T09:09:48.000Z</time>
      </trkpt>
      <trkpt lat="50.39781" lon="3.58415">
        <ele>18</ele>
        <time>2022-05-09T09:09:50.433Z</time>
      </trkpt>
      <trkpt lat="50.39785" lon="3.58411">
        <ele>18</ele>
        <time>2022-05-09T09:09:52.030Z</time>
      </trkpt>
      <trkpt lat="50.39789" lon="3.58403">
        <ele>18</ele>
        <time>2022-05-09T09:09:54.000Z</time>
      </trkpt>
      <trkpt lat="50.39793" lon="3.58397">
        <ele>18</ele>
        <time>2022-05-09T09:09:56.000Z</time>
      </trkpt>
      <trkpt lat="50.398" lon="3.5839">
        <ele>18</ele>
        <time>2022-05-09T09:09:58.000Z</time>
      </trkpt>
      <trkpt lat="50.39808" lon="3.58388">
        <ele>17.9</ele>
        <time>2022-05-09T09:10:00.000Z</time>
      </trkpt>
      <trkpt lat="50.39814" lon="3.58394">
        <ele>17.8</ele>
        <time>2022-05-09T09:10:02.000Z</time>
      </trkpt>
      <trkpt lat="50.39819" lon="3.58402">
        <ele>17.7</ele>
        <time>2022-05-09T09:10:03.991Z</time>
      </trkpt>
      <trkpt lat="50.39824" lon="3.58412">
        <ele>17.9</ele>
        <time>2022-05-09T09:10:06.633Z</time>
      </trkpt>
      <trkpt lat="50.39827" lon="3.58418">
        <ele>18</ele>
        <time>2022-05-09T09:10:08.000Z</time>
      </trkpt>
      <trkpt lat="50.39832" lon="3.58425">
        <ele>18</ele>
        <time>2022-05-09T09:10:10.054Z</time>
      </trkpt>
      <trkpt lat="50.39837" lon="3.58432">
        <ele>18</ele>
        <time>2022-05-09T09:10:11.972Z</time>
      </trkpt>
      <trkpt lat="50.3984" lon="3.5844">
        <ele>18</ele>
        <time>2022-05-09T09:10:14.000Z</time>
      </trkpt>
      <trkpt lat="50.39841" lon="3.58447">
        <ele>18</ele>
        <time>2022-05-09T09:10:16.000Z</time>
      </trkpt>
      <trkpt lat="50.39841" lon="3.58455">
        <ele>18</ele>
        <time>2022-05-09T09:10:17.913Z</time>
      </trkpt>
      <trkpt lat="50.3984" lon="3.58463">
        <ele>18</ele>
        <time>2022-05-09T09:10:20.000Z</time>
      </trkpt>
      <trkpt lat="50.3984" lon="3.58471">
        <ele>18</ele>
        <time>2022-05-09T09:10:22.000Z</time>
      </trkpt>
      <trkpt lat="50.39838" lon="3.5848">
        <ele>18</ele>
        <time>2022-05-09T09:10:24.000Z</time>
      </trkpt>
      <trkpt lat="50.39836" lon="3.58488">
        <ele>18</ele>
        <time>2022-05-09T09:10:26.000Z</time>
      </trkpt>
      <trkpt lat="50.3983" lon="3.58495">
        <ele>17.9</ele>
        <time>2022-05-09T09:10:28.130Z</time>
      </trkpt>
      <trkpt lat="50.39826" lon="3.58501">
        <ele>17.8</ele>
        <time>2022-05-09T09:10:29.751Z</time>
      </trkpt>
      <trkpt lat="50.39822" lon="3.58509">
        <ele>17.7</ele>
        <time>2022-05-09T09:10:31.789Z</time>
      </trkpt>
      <trkpt lat="50.39817" lon="3.58515">
        <ele>17.7</ele>
        <time>2022-05-09T09:10:33.912Z</time>
      </trkpt>
      <trkpt lat="50.39811" lon="3.58522">
        <ele>17.8</ele>
        <time>2022-05-09T09:10:36.131Z</time>
      </trkpt>
      <trkpt lat="50.39808" lon="3.58529">
        <ele>18</ele>
        <time>2022-05-09T09:10:38.000Z</time>
      </trkpt>
      <trkpt lat="50.39806" lon="3.58539">
        <ele>18</ele>
        <time>2022-05-09T09:10:40.000Z</time>
      </trkpt>
      <trkpt lat="50.39803" lon="3.58548">
        <ele>18</ele>
        <time>2022-05-09T09:10:42.000Z</time>
      </trkpt>
      <trkpt lat="50.39805" lon="3.58538">
        <ele>18</ele>
        <time>2022-05-09T09:10:49.862Z</time>
      </trkpt>
      <trkpt lat="50.39799" lon="3.58535">
        <ele>18</ele>
        <time>2022-05-09T09:10:53.000Z</time>
      </trkpt>
      <trkpt lat="50.39795" lon="3.58531">
        <ele>18</ele>
        <time>2022-05-09T09:10:55.000Z</time>
      </trkpt>
      <trkpt lat="50.3979" lon="3.58527">
        <ele>18</ele>
        <time>2022-05-09T09:10:58.093Z</time>
      </trkpt>
      <trkpt lat="50.39783" lon="3.58525">
        <ele>18</ele>
        <time>2022-05-09T09:11:00.791Z</time>
      </trkpt>
      <trkpt lat="50.39776" lon="3.58531">
        <ele>18</ele>
        <time>2022-05-09T09:11:03.000Z</time>
      </trkpt>
      <trkpt lat="50.39773" lon="3.58537">
        <ele>18.1</ele>
        <time>2022-05-09T09:11:04.951Z</time>
      </trkpt>
      <trkpt lat="50.39769" lon="3.58545">
        <ele>18.2</ele>
        <time>2022-05-09T09:11:07.000Z</time>
      </trkpt>
      <trkpt lat="50.39766" lon="3.58551">
        <ele>18.4</ele>
        <time>2022-05-09T09:11:09.109Z</time>
      </trkpt>
      <trkpt lat="50.39761" lon="3.58553">
        <ele>18.5</ele>
        <time>2022-05-09T09:11:11.000Z</time>
      </trkpt>
      <trkpt lat="50.39755" lon="3.5856">
        <ele>18.8</ele>
        <time>2022-05-09T09:11:13.895Z</time>
      </trkpt>
      <trkpt lat="50.39751" lon="3.58563">
        <ele>19</ele>
        <time>2022-05-09T09:11:15.751Z</time>
      </trkpt>
      <trkpt lat="50.39746" lon="3.58571">
        <ele>18.8</ele>
        <time>2022-05-09T09:11:19.311Z</time>
      </trkpt>
      <trkpt lat="50.39737" lon="3.58577">
        <ele>18.5</ele>
        <time>2022-05-09T09:11:22.000Z</time>
      </trkpt>
      <trkpt lat="50.39732" lon="3.58582">
        <ele>18.3</ele>
        <time>2022-05-09T09:11:24.052Z</time>
      </trkpt>
      <trkpt lat="50.39726" lon="3.58585">
        <ele>18.2</ele>
        <time>2022-05-09T09:11:27.000Z</time>
      </trkpt>
      <trkpt lat="50.39722" lon="3.58595">
        <ele>18</ele>
        <time>2022-05-09T09:11:30.750Z</time>
      </trkpt>
      <trkpt lat="50.39719" lon="3.58602">
        <ele>18</ele>
        <time>2022-05-09T09:11:33.000Z</time>
      </trkpt>
      <trkpt lat="50.39716" lon="3.58612">
        <ele>18</ele>
        <time>2022-05-09T09:11:36.000Z</time>
      </trkpt>
      <trkpt lat="50.39714" lon="3.58622">
        <ele>18.3</ele>
        <time>2022-05-09T09:11:39.850Z</time>
      </trkpt>
      <trkpt lat="50.39711" lon="3.58633">
        <ele>18.5</ele>
        <time>2022-05-09T09:11:43.000Z</time>
      </trkpt>
      <trkpt lat="50.39712" lon="3.58641">
        <ele>18.6</ele>
        <time>2022-05-09T09:11:46.000Z</time>
      </trkpt>
      <trkpt lat="50.39711" lon="3.58649">
        <ele>18.6</ele>
        <time>2022-05-09T09:11:49.000Z</time>
      </trkpt>
      <trkpt lat="50.39716" lon="3.58649">
        <ele>18.8</ele>
        <time>2022-05-09T09:11:53.000Z</time>
      </trkpt>
      <trkpt lat="50.39723" lon="3.58645">
        <ele>19</ele>
        <time>2022-05-09T09:11:56.734Z</time>
      </trkpt>
      <trkpt lat="50.39719" lon="3.5865">
        <ele>18.9</ele>
        <time>2022-05-09T09:12:05.000Z</time>
      </trkpt>
      <trkpt lat="50.39712" lon="3.5866">
        <ele>18.6</ele>
        <time>2022-05-09T09:12:08.000Z</time>
      </trkpt>
      <trkpt lat="50.39709" lon="3.58677">
        <ele>18.5</ele>
        <time>2022-05-09T09:12:11.032Z</time>
      </trkpt>
      <trkpt lat="50.39708" lon="3.58684">
        <ele>18.5</ele>
        <time>2022-05-09T09:12:12.000Z</time>
      </trkpt>
      <trkpt lat="50.39706" lon="3.58696">
        <ele>18.4</ele>
        <time>2022-05-09T09:12:15.000Z</time>
      </trkpt>
      <trkpt lat="50.39708" lon="3.58706">
        <ele>18.5</ele>
        <time>2022-05-09T09:12:17.000Z</time>
      </trkpt>
      <trkpt lat="50.39708" lon="3.58721">
        <ele>18.5</ele>
        <time>2022-05-09T09:12:20.000Z</time>
      </trkpt>
      <trkpt lat="50.39706" lon="3.58735">
        <ele>18.4</ele>
        <time>2022-05-09T09:12:22.000Z</time>
      </trkpt>
      <trkpt lat="50.39709" lon="3.58746">
        <ele>18.5</ele>
        <time>2022-05-09T09:12:24.089Z</time>
      </trkpt>
      <trkpt lat="50.39713" lon="3.58757">
        <ele>18.8</ele>
        <time>2022-05-09T09:12:26.000Z</time>
      </trkpt>
      <trkpt lat="50.39716" lon="3.58766">
        <ele>18.9</ele>
        <time>2022-05-09T09:12:27.931Z</time>
      </trkpt>
      <trkpt lat="50.39717" lon="3.58774">
        <ele>19</ele>
        <time>2022-05-09T09:12:29.000Z</time>
      </trkpt>
      <trkpt lat="50.3972" lon="3.58782">
        <ele>19</ele>
        <time>2022-05-09T09:12:30.933Z</time>
      </trkpt>
      <trkpt lat="50.39719" lon="3.58774">
        <ele>19</ele>
        <time>2022-05-09T09:12:37.916Z</time>
      </trkpt>
      <trkpt lat="50.39715" lon="3.58769">
        <ele>18.9</ele>
        <time>2022-05-09T09:12:41.000Z</time>
      </trkpt>
      <trkpt lat="50.39714" lon="3.58759">
        <ele>18.8</ele>
        <time>2022-05-09T09:12:44.871Z</time>
      </trkpt>
      <trkpt lat="50.39719" lon="3.58755">
        <ele>18.9</ele>
        <time>2022-05-09T09:12:46.074Z</time>
      </trkpt>
      <trkpt lat="50.39722" lon="3.5875">
        <ele>19</ele>
        <time>2022-05-09T09:12:48.000Z</time>
      </trkpt>
      <trkpt lat="50.39725" lon="3.58744">
        <ele>19.1</ele>
        <time>2022-05-09T09:12:50.000Z</time>
      </trkpt>
      <trkpt lat="50.39731" lon="3.58734">
        <ele>19.5</ele>
        <time>2022-05-09T09:12:52.353Z</time>
      </trkpt>
      <trkpt lat="50.39735" lon="3.58725">
        <ele>19.9</ele>
        <time>2022-05-09T09:12:54.709Z</time>
      </trkpt>
      <trkpt lat="50.39737" lon="3.58717">
        <ele>20</ele>
        <time>2022-05-09T09:12:57.000Z</time>
      </trkpt>
      <trkpt lat="50.3974" lon="3.58709">
        <ele>20.3</ele>
        <time>2022-05-09T09:13:00.000Z</time>
      </trkpt>
      <trkpt lat="50.39742" lon="3.58701">
        <ele>20.5</ele>
        <time>2022-05-09T09:13:03.000Z</time>
      </trkpt>
      <trkpt lat="50.39746" lon="3.5869">
        <ele>20.7</ele>
        <time>2022-05-09T09:13:05.792Z</time>
      </trkpt>
      <trkpt lat="50.39748" lon="3.58684">
        <ele>20.8</ele>
        <time>2022-05-09T09:13:07.000Z</time>
      </trkpt>
      <trkpt lat="50.39751" lon="3.58675">
        <ele>21.1</ele>
        <time>2022-05-09T09:13:09.000Z</time>
      </trkpt>
      <trkpt lat="50.39755" lon="3.58667">
        <ele>21.2</ele>
        <time>2022-05-09T09:13:11.580Z</time>
      </trkpt>
      <trkpt lat="50.39757" lon="3.5866">
        <ele>21.1</ele>
        <time>2022-05-09T09:13:13.351Z</time>
      </trkpt>
      <trkpt lat="50.39761" lon="3.58656">
        <ele>21.1</ele>
        <time>2022-05-09T09:13:15.000Z</time>
      </trkpt>
      <trkpt lat="50.39764" lon="3.58651">
        <ele>21.2</ele>
        <time>2022-05-09T09:13:17.000Z</time>
      </trkpt>
      <trkpt lat="50.39771" lon="3.58641">
        <ele>21.5</ele>
        <time>2022-05-09T09:13:20.000Z</time>
      </trkpt>
      <trkpt lat="50.39776" lon="3.58632">
        <ele>21.7</ele>
        <time>2022-05-09T09:13:22.612Z</time>
      </trkpt>
      <trkpt lat="50.39779" lon="3.58623">
        <ele>21.5</ele>
        <time>2022-05-09T09:13:25.000Z</time>
      </trkpt>
      <trkpt lat="50.39782" lon="3.58609">
        <ele>21</ele>
        <time>2022-05-09T09:13:27.000Z</time>
      </trkpt>
      <trkpt lat="50.39785" lon="3.58594">
        <ele>20</ele>
        <time>2022-05-09T09:13:29.000Z</time>
      </trkpt>
      <trkpt lat="50.39789" lon="3.58584">
        <ele>19.4</ele>
        <time>2022-05-09T09:13:30.000Z</time>
      </trkpt>
      <trkpt lat="50.39792" lon="3.58579">
        <ele>19.2</ele>
        <time>2022-05-09T09:13:31.000Z</time>
      </trkpt>
      <trkpt lat="50.39796" lon="3.58572">
        <ele>19</ele>
        <time>2022-05-09T09:13:32.000Z</time>
      </trkpt>
      <trkpt lat="50.39802" lon="3.58554">
        <ele>18</ele>
        <time>2022-05-09T09:13:34.000Z</time>
      </trkpt>
      <trkpt lat="50.39804" lon="3.58546">
        <ele>18</ele>
        <time>2022-05-09T09:13:35.000Z</time>
      </trkpt>
      <trkpt lat="50.39807" lon="3.58537">
        <ele>18</ele>
        <time>2022-05-09T09:13:36.000Z</time>
      </trkpt>
      <trkpt lat="50.39809" lon="3.58528">
        <ele>18</ele>
        <time>2022-05-09T09:13:37.000Z</time>
      </trkpt>
      <trkpt lat="50.39812" lon="3.58521">
        <ele>17.8</ele>
        <time>2022-05-09T09:13:38.000Z</time>
      </trkpt>
      <trkpt lat="50.39814" lon="3.58515">
        <ele>17.7</ele>
        <time>2022-05-09T09:13:40.866Z</time>
      </trkpt>
      <trkpt lat="50.39817" lon="3.58516">
        <ele>17.7</ele>
        <time>2022-05-09T09:13:42.025Z</time>
      </trkpt>
      <trkpt lat="50.39819" lon="3.58524">
        <ele>17.9</ele>
        <time>2022-05-09T09:13:43.620Z</time>
      </trkpt>
      <trkpt lat="50.39822" lon="3.58533">
        <ele>18</ele>
        <time>2022-05-09T09:13:45.988Z</time>
      </trkpt>
      <trkpt lat="50.39826" lon="3.58541">
        <ele>18</ele>
        <time>2022-05-09T09:13:48.000Z</time>
      </trkpt>
      <trkpt lat="50.3983" lon="3.58546">
        <ele>18</ele>
        <time>2022-05-09T09:13:49.487Z</time>
      </trkpt>
      <trkpt lat="50.39833" lon="3.58554">
        <ele>18</ele>
        <time>2022-05-09T09:13:51.124Z</time>
      </trkpt>
      <trkpt lat="50.39836" lon="3.58561">
        <ele>18.2</ele>
        <time>2022-05-09T09:13:52.446Z</time>
      </trkpt>
      <trkpt lat="50.39838" lon="3.5857">
        <ele>18.4</ele>
        <time>2022-05-09T09:13:54.031Z</time>
      </trkpt>
      <trkpt lat="50.39842" lon="3.58582">
        <ele>18.6</ele>
        <time>2022-05-09T09:13:56.065Z</time>
      </trkpt>
      <trkpt lat="50.39846" lon="3.58595">
        <ele>18.8</ele>
        <time>2022-05-09T09:13:58.548Z</time>
      </trkpt>
      <trkpt lat="50.39848" lon="3.58601">
        <ele>18.8</ele>
        <time>2022-05-09T09:13:59.903Z</time>
      </trkpt>
      <trkpt lat="50.39852" lon="3.5861">
        <ele>18.7</ele>
        <time>2022-05-09T09:14:02.000Z</time>
      </trkpt>
      <trkpt lat="50.39857" lon="3.58618">
        <ele>18.3</ele>
        <time>2022-05-09T09:14:04.000Z</time>
      </trkpt>
      <trkpt lat="50.39864" lon="3.58625">
        <ele>18</ele>
        <time>2022-05-09T09:14:06.367Z</time>
      </trkpt>
      <trkpt lat="50.39872" lon="3.5864">
        <ele>18</ele>
        <time>2022-05-09T09:14:09.970Z</time>
      </trkpt>
      <trkpt lat="50.39881" lon="3.58637">
        <ele>18</ele>
        <time>2022-05-09T09:14:12.000Z</time>
      </trkpt>
      <trkpt lat="50.39886" lon="3.5863">
        <ele>18</ele>
        <time>2022-05-09T09:14:13.947Z</time>
      </trkpt>
      <trkpt lat="50.3989" lon="3.5862">
        <ele>18</ele>
        <time>2022-05-09T09:14:15.000Z</time>
      </trkpt>
      <trkpt lat="50.39893" lon="3.58613">
        <ele>18</ele>
        <time>2022-05-09T09:14:16.000Z</time>
      </trkpt>
      <trkpt lat="50.399" lon="3.58601">
        <ele>18</ele>
        <time>2022-05-09T09:14:19.000Z</time>
      </trkpt>
      <trkpt lat="50.39906" lon="3.58593">
        <ele>18</ele>
        <time>2022-05-09T09:14:20.924Z</time>
      </trkpt>
      <trkpt lat="50.3991" lon="3.58588">
        <ele>18</ele>
        <time>2022-05-09T09:14:22.000Z</time>
      </trkpt>
      <trkpt lat="50.39913" lon="3.58583">
        <ele>18</ele>
        <time>2022-05-09T09:14:23.000Z</time>
      </trkpt>
      <trkpt lat="50.39919" lon="3.58575">
        <ele>18</ele>
        <time>2022-05-09T09:14:25.089Z</time>
      </trkpt>
      <trkpt lat="50.39922" lon="3.58568">
        <ele>18</ele>
        <time>2022-05-09T09:14:27.000Z</time>
      </trkpt>
      <trkpt lat="50.39926" lon="3.58561">
        <ele>18</ele>
        <time>2022-05-09T09:14:28.000Z</time>
      </trkpt>
      <trkpt lat="50.39929" lon="3.58556">
        <ele>18</ele>
        <time>2022-05-09T09:14:29.000Z</time>
      </trkpt>
      <trkpt lat="50.39935" lon="3.58548">
        <ele>18.2</ele>
        <time>2022-05-09T09:14:30.949Z</time>
      </trkpt>
      <trkpt lat="50.39939" lon="3.58542">
        <ele>18.4</ele>
        <time>2022-05-09T09:14:32.059Z</time>
      </trkpt>
      <trkpt lat="50.39943" lon="3.58535">
        <ele>18.7</ele>
        <time>2022-05-09T09:14:33.000Z</time>
      </trkpt>
      <trkpt lat="50.39946" lon="3.5853">
        <ele>18.9</ele>
        <time>2022-05-09T09:14:34.000Z</time>
      </trkpt>
      <trkpt lat="50.39953" lon="3.5852">
        <ele>18.8</ele>
        <time>2022-05-09T09:14:36.000Z</time>
      </trkpt>
      <trkpt lat="50.39958" lon="3.58513">
        <ele>18.7</ele>
        <time>2022-05-09T09:14:38.000Z</time>
      </trkpt>
      <trkpt lat="50.39961" lon="3.58507">
        <ele>18.7</ele>
        <time>2022-05-09T09:14:39.000Z</time>
      </trkpt>
      <trkpt lat="50.39967" lon="3.58498">
        <ele>18.8</ele>
        <time>2022-05-09T09:14:41.000Z</time>
      </trkpt>
      <trkpt lat="50.39973" lon="3.5849">
        <ele>19</ele>
        <time>2022-05-09T09:14:43.000Z</time>
      </trkpt>
      <trkpt lat="50.39979" lon="3.5848">
        <ele>19</ele>
        <time>2022-05-09T09:14:45.000Z</time>
      </trkpt>
      <trkpt lat="50.39985" lon="3.58472">
        <ele>19</ele>
        <time>2022-05-09T09:14:47.000Z</time>
      </trkpt>
      <trkpt lat="50.39991" lon="3.58463">
        <ele>18.7</ele>
        <time>2022-05-09T09:14:49.000Z</time>
      </trkpt>
      <trkpt lat="50.39998" lon="3.58456">
        <ele>18.4</ele>
        <time>2022-05-09T09:14:51.000Z</time>
      </trkpt>
      <trkpt lat="50.40005" lon="3.58448">
        <ele>18.1</ele>
        <time>2022-05-09T09:14:53.000Z</time>
      </trkpt>
      <trkpt lat="50.40011" lon="3.5844">
        <ele>18</ele>
        <time>2022-05-09T09:14:55.000Z</time>
      </trkpt>
      <trkpt lat="50.40019" lon="3.58432">
        <ele>18</ele>
        <time>2022-05-09T09:14:57.000Z</time>
      </trkpt>
      <trkpt lat="50.40023" lon="3.58427">
        <ele>18</ele>
        <time>2022-05-09T09:14:58.000Z</time>
      </trkpt>
      <trkpt lat="50.40028" lon="3.58423">
        <ele>18</ele>
        <time>2022-05-09T09:14:59.000Z</time>
      </trkpt>
      <trkpt lat="50.40031" lon="3.58418">
        <ele>18</ele>
        <time>2022-05-09T09:15:00.000Z</time>
      </trkpt>
      <trkpt lat="50.40037" lon="3.58411">
        <ele>18</ele>
        <time>2022-05-09T09:15:02.034Z</time>
      </trkpt>
      <trkpt lat="50.40042" lon="3.58404">
        <ele>18</ele>
        <time>2022-05-09T09:15:03.000Z</time>
      </trkpt>
      <trkpt lat="50.40047" lon="3.58398">
        <ele>18</ele>
        <time>2022-05-09T09:15:04.000Z</time>
      </trkpt>
      <trkpt lat="50.4005" lon="3.58394">
        <ele>18</ele>
        <time>2022-05-09T09:15:05.000Z</time>
      </trkpt>
      <trkpt lat="50.40054" lon="3.5839">
        <ele>18</ele>
        <time>2022-05-09T09:15:06.000Z</time>
      </trkpt>
      <trkpt lat="50.40058" lon="3.58385">
        <ele>18</ele>
        <time>2022-05-09T09:15:07.000Z</time>
      </trkpt>
      <trkpt lat="50.40061" lon="3.5838">
        <ele>18</ele>
        <time>2022-05-09T09:15:08.000Z</time>
      </trkpt>
      <trkpt lat="50.40066" lon="3.58374">
        <ele>18</ele>
        <time>2022-05-09T09:15:09.000Z</time>
      </trkpt>
      <trkpt lat="50.40073" lon="3.58365">
        <ele>18</ele>
        <time>2022-05-09T09:15:11.000Z</time>
      </trkpt>
      <trkpt lat="50.40081" lon="3.58357">
        <ele>18</ele>
        <time>2022-05-09T09:15:13.000Z</time>
      </trkpt>
      <trkpt lat="50.40085" lon="3.58351">
        <ele>18</ele>
        <time>2022-05-09T09:15:14.000Z</time>
      </trkpt>
      <trkpt lat="50.40094" lon="3.58343">
        <ele>18</ele>
        <time>2022-05-09T09:15:16.000Z</time>
      </trkpt>
      <trkpt lat="50.40098" lon="3.58338">
        <ele>18</ele>
        <time>2022-05-09T09:15:17.000Z</time>
      </trkpt>
      <trkpt lat="50.40102" lon="3.58332">
        <ele>18</ele>
        <time>2022-05-09T09:15:18.000Z</time>
      </trkpt>
      <trkpt lat="50.40107" lon="3.58326">
        <ele>18</ele>
        <time>2022-05-09T09:15:19.000Z</time>
      </trkpt>
      <trkpt lat="50.4011" lon="3.58322">
        <ele>18</ele>
        <time>2022-05-09T09:15:20.000Z</time>
      </trkpt>
      <trkpt lat="50.40115" lon="3.58318">
        <ele>18</ele>
        <time>2022-05-09T09:15:21.000Z</time>
      </trkpt>
      <trkpt lat="50.4012" lon="3.58313">
        <ele>18</ele>
        <time>2022-05-09T09:15:22.000Z</time>
      </trkpt>
      <trkpt lat="50.40128" lon="3.58302">
        <ele>18</ele>
        <time>2022-05-09T09:15:24.000Z</time>
      </trkpt>
      <trkpt lat="50.40132" lon="3.58297">
        <ele>18</ele>
        <time>2022-05-09T09:15:25.000Z</time>
      </trkpt>
      <trkpt lat="50.40136" lon="3.58294">
        <ele>18</ele>
        <time>2022-05-09T09:15:26.000Z</time>
      </trkpt>
      <trkpt lat="50.4014" lon="3.58289">
        <ele>18</ele>
        <time>2022-05-09T09:15:27.000Z</time>
      </trkpt>
      <trkpt lat="50.40144" lon="3.58285">
        <ele>18</ele>
        <time>2022-05-09T09:15:28.000Z</time>
      </trkpt>
      <trkpt lat="50.40148" lon="3.58279">
        <ele>18</ele>
        <time>2022-05-09T09:15:29.000Z</time>
      </trkpt>
      <trkpt lat="50.40155" lon="3.58271">
        <ele>18</ele>
        <time>2022-05-09T09:15:31.000Z</time>
      </trkpt>
      <trkpt lat="50.40159" lon="3.58266">
        <ele>18</ele>
        <time>2022-05-09T09:15:32.000Z</time>
      </trkpt>
      <trkpt lat="50.40163" lon="3.58262">
        <ele>18</ele>
        <time>2022-05-09T09:15:33.000Z</time>
      </trkpt>
      <trkpt lat="50.40168" lon="3.58256">
        <ele>18</ele>
        <time>2022-05-09T09:15:34.000Z</time>
      </trkpt>
      <trkpt lat="50.40175" lon="3.58245">
        <ele>18</ele>
        <time>2022-05-09T09:15:36.000Z</time>
      </trkpt>
      <trkpt lat="50.40179" lon="3.58241">
        <ele>18</ele>
        <time>2022-05-09T09:15:37.000Z</time>
      </trkpt>
      <trkpt lat="50.40183" lon="3.58237">
        <ele>18</ele>
        <time>2022-05-09T09:15:38.000Z</time>
      </trkpt>
      <trkpt lat="50.40187" lon="3.58233">
        <ele>18</ele>
        <time>2022-05-09T09:15:39.000Z</time>
      </trkpt>
      <trkpt lat="50.4019" lon="3.58229">
        <ele>18</ele>
        <time>2022-05-09T09:15:40.000Z</time>
      </trkpt>
      <trkpt lat="50.40197" lon="3.58221">
        <ele>18</ele>
        <time>2022-05-09T09:15:42.000Z</time>
      </trkpt>
      <trkpt lat="50.40204" lon="3.58213">
        <ele>18</ele>
        <time>2022-05-09T09:15:44.000Z</time>
      </trkpt>
      <trkpt lat="50.40211" lon="3.58205">
        <ele>18</ele>
        <time>2022-05-09T09:15:46.000Z</time>
      </trkpt>
      <trkpt lat="50.40215" lon="3.58199">
        <ele>18</ele>
        <time>2022-05-09T09:15:47.000Z</time>
      </trkpt>
      <trkpt lat="50.40222" lon="3.5819">
        <ele>18</ele>
        <time>2022-05-09T09:15:49.000Z</time>
      </trkpt>
      <trkpt lat="50.40226" lon="3.58185">
        <ele>18</ele>
        <time>2022-05-09T09:15:50.000Z</time>
      </trkpt>
      <trkpt lat="50.40232" lon="3.58176">
        <ele>18</ele>
        <time>2022-05-09T09:15:52.000Z</time>
      </trkpt>
      <trkpt lat="50.40241" lon="3.58168">
        <ele>18</ele>
        <time>2022-05-09T09:15:54.000Z</time>
      </trkpt>
      <trkpt lat="50.40248" lon="3.58161">
        <ele>18</ele>
        <time>2022-05-09T09:15:56.000Z</time>
      </trkpt>
      <trkpt lat="50.40252" lon="3.58157">
        <ele>18</ele>
        <time>2022-05-09T09:15:57.000Z</time>
      </trkpt>
      <trkpt lat="50.40259" lon="3.5815">
        <ele>18</ele>
        <time>2022-05-09T09:15:59.000Z</time>
      </trkpt>
      <trkpt lat="50.40264" lon="3.58146">
        <ele>18</ele>
        <time>2022-05-09T09:16:00.000Z</time>
      </trkpt>
      <trkpt lat="50.40271" lon="3.58138">
        <ele>18</ele>
        <time>2022-05-09T09:16:02.000Z</time>
      </trkpt>
      <trkpt lat="50.40278" lon="3.58129">
        <ele>18</ele>
        <time>2022-05-09T09:16:04.000Z</time>
      </trkpt>
      <trkpt lat="50.40285" lon="3.5812">
        <ele>18</ele>
        <time>2022-05-09T09:16:06.000Z</time>
      </trkpt>
      <trkpt lat="50.40291" lon="3.58113">
        <ele>18</ele>
        <time>2022-05-09T09:16:08.000Z</time>
      </trkpt>
      <trkpt lat="50.40295" lon="3.58106">
        <ele>18</ele>
        <time>2022-05-09T09:16:09.000Z</time>
      </trkpt>
      <trkpt lat="50.40298" lon="3.581">
        <ele>18</ele>
        <time>2022-05-09T09:16:10.000Z</time>
      </trkpt>
      <trkpt lat="50.40304" lon="3.58092">
        <ele>18</ele>
        <time>2022-05-09T09:16:12.000Z</time>
      </trkpt>
      <trkpt lat="50.40308" lon="3.58086">
        <ele>18</ele>
        <time>2022-05-09T09:16:13.000Z</time>
      </trkpt>
      <trkpt lat="50.40314" lon="3.58079">
        <ele>18</ele>
        <time>2022-05-09T09:16:15.000Z</time>
      </trkpt>
      <trkpt lat="50.40318" lon="3.58074">
        <ele>18</ele>
        <time>2022-05-09T09:16:16.000Z</time>
      </trkpt>
      <trkpt lat="50.40324" lon="3.58066">
        <ele>18</ele>
        <time>2022-05-09T09:16:18.000Z</time>
      </trkpt>
      <trkpt lat="50.40331" lon="3.58059">
        <ele>18</ele>
        <time>2022-05-09T09:16:20.000Z</time>
      </trkpt>
      <trkpt lat="50.40334" lon="3.58054">
        <ele>18</ele>
        <time>2022-05-09T09:16:21.000Z</time>
      </trkpt>
      <trkpt lat="50.40341" lon="3.58046">
        <ele>18</ele>
        <time>2022-05-09T09:16:23.000Z</time>
      </trkpt>
      <trkpt lat="50.40347" lon="3.58038">
        <ele>18</ele>
        <time>2022-05-09T09:16:25.000Z</time>
      </trkpt>
      <trkpt lat="50.40353" lon="3.58031">
        <ele>18</ele>
        <time>2022-05-09T09:16:27.000Z</time>
      </trkpt>
      <trkpt lat="50.40357" lon="3.58027">
        <ele>18</ele>
        <time>2022-05-09T09:16:28.000Z</time>
      </trkpt>
      <trkpt lat="50.4036" lon="3.58022">
        <ele>18</ele>
        <time>2022-05-09T09:16:29.000Z</time>
      </trkpt>
      <trkpt lat="50.40365" lon="3.58017">
        <ele>18</ele>
        <time>2022-05-09T09:16:30.000Z</time>
      </trkpt>
      <trkpt lat="50.40368" lon="3.58012">
        <ele>18</ele>
        <time>2022-05-09T09:16:31.000Z</time>
      </trkpt>
      <trkpt lat="50.40375" lon="3.58005">
        <ele>18</ele>
        <time>2022-05-09T09:16:33.000Z</time>
      </trkpt>
      <trkpt lat="50.40379" lon="3.58001">
        <ele>18</ele>
        <time>2022-05-09T09:16:34.000Z</time>
      </trkpt>
      <trkpt lat="50.40383" lon="3.57996">
        <ele>18</ele>
        <time>2022-05-09T09:16:35.000Z</time>
      </trkpt>
      <trkpt lat="50.40387" lon="3.57991">
        <ele>18</ele>
        <time>2022-05-09T09:16:36.000Z</time>
      </trkpt>
      <trkpt lat="50.40391" lon="3.57986">
        <ele>18</ele>
        <time>2022-05-09T09:16:37.000Z</time>
      </trkpt>
      <trkpt lat="50.40397" lon="3.57978">
        <ele>18</ele>
        <time>2022-05-09T09:16:39.000Z</time>
      </trkpt>
      <trkpt lat="50.40404" lon="3.5797">
        <ele>18</ele>
        <time>2022-05-09T09:16:41.000Z</time>
      </trkpt>
      <trkpt lat="50.40408" lon="3.57966">
        <ele>18</ele>
        <time>2022-05-09T09:16:42.000Z</time>
      </trkpt>
      <trkpt lat="50.40415" lon="3.57964">
        <ele>18</ele>
        <time>2022-05-09T09:16:44.000Z</time>
      </trkpt>
      <trkpt lat="50.40422" lon="3.57967">
        <ele>18</ele>
        <time>2022-05-09T09:16:46.000Z</time>
      </trkpt>
      <trkpt lat="50.40428" lon="3.5797">
        <ele>18</ele>
        <time>2022-05-09T09:16:48.000Z</time>
      </trkpt>
      <trkpt lat="50.40433" lon="3.57975">
        <ele>18</ele>
        <time>2022-05-09T09:16:50.000Z</time>
      </trkpt>
      <trkpt lat="50.40439" lon="3.57981">
        <ele>18</ele>
        <time>2022-05-09T09:16:53.000Z</time>
      </trkpt>
      <trkpt lat="50.40443" lon="3.57982">
        <ele>18</ele>
        <time>2022-05-09T09:16:55.000Z</time>
      </trkpt>
      <trkpt lat="50.40449" lon="3.57983">
        <ele>18</ele>
        <time>2022-05-09T09:16:57.000Z</time>
      </trkpt>
      <trkpt lat="50.40451" lon="3.57974">
        <ele>18</ele>
        <time>2022-05-09T09:16:59.000Z</time>
      </trkpt>
      <trkpt lat="50.40447" lon="3.57968">
        <ele>18</ele>
        <time>2022-05-09T09:17:00.000Z</time>
      </trkpt>
      <trkpt lat="50.40443" lon="3.57959">
        <ele>18</ele>
        <time>2022-05-09T09:17:01.000Z</time>
      </trkpt>
      <trkpt lat="50.4044" lon="3.5795">
        <ele>18</ele>
        <time>2022-05-09T09:17:02.000Z</time>
      </trkpt>
      <trkpt lat="50.40438" lon="3.57941">
        <ele>18</ele>
        <time>2022-05-09T09:17:03.000Z</time>
      </trkpt>
      <trkpt lat="50.40438" lon="3.57933">
        <ele>18</ele>
        <time>2022-05-09T09:17:04.000Z</time>
      </trkpt>
      <trkpt lat="50.4044" lon="3.57925">
        <ele>18</ele>
        <time>2022-05-09T09:17:05.000Z</time>
      </trkpt>
      <trkpt lat="50.40444" lon="3.57918">
        <ele>18</ele>
        <time>2022-05-09T09:17:06.000Z</time>
      </trkpt>
      <trkpt lat="50.40449" lon="3.57913">
        <ele>18</ele>
        <time>2022-05-09T09:17:07.000Z</time>
      </trkpt>
      <trkpt lat="50.40453" lon="3.57908">
        <ele>18</ele>
        <time>2022-05-09T09:17:08.000Z</time>
      </trkpt>
      <trkpt lat="50.40457" lon="3.57903">
        <ele>18</ele>
        <time>2022-05-09T09:17:09.000Z</time>
      </trkpt>
      <trkpt lat="50.40462" lon="3.57898">
        <ele>18</ele>
        <time>2022-05-09T09:17:10.000Z</time>
      </trkpt>
      <trkpt lat="50.40466" lon="3.57894">
        <ele>18</ele>
        <time>2022-05-09T09:17:11.000Z</time>
      </trkpt>
      <trkpt lat="50.4047" lon="3.57889">
        <ele>18</ele>
        <time>2022-05-09T09:17:12.000Z</time>
      </trkpt>
      <trkpt lat="50.40473" lon="3.57883">
        <ele>18</ele>
        <time>2022-05-09T09:17:13.000Z</time>
      </trkpt>
      <trkpt lat="50.40477" lon="3.57878">
        <ele>18</ele>
        <time>2022-05-09T09:17:13.991Z</time>
      </trkpt>
      <trkpt lat="50.40481" lon="3.57873">
        <ele>18</ele>
        <time>2022-05-09T09:17:15.000Z</time>
      </trkpt>
      <trkpt lat="50.40484" lon="3.57869">
        <ele>18</ele>
        <time>2022-05-09T09:17:16.000Z</time>
      </trkpt>
      <trkpt lat="50.40488" lon="3.57865">
        <ele>18</ele>
        <time>2022-05-09T09:17:17.000Z</time>
      </trkpt>
      <trkpt lat="50.40495" lon="3.57858">
        <ele>18</ele>
        <time>2022-05-09T09:17:19.000Z</time>
      </trkpt>
      <trkpt lat="50.40499" lon="3.57854">
        <ele>18</ele>
        <time>2022-05-09T09:17:20.000Z</time>
      </trkpt>
      <trkpt lat="50.40505" lon="3.57847">
        <ele>18</ele>
        <time>2022-05-09T09:17:22.030Z</time>
      </trkpt>
      <trkpt lat="50.4051" lon="3.57842">
        <ele>18</ele>
        <time>2022-05-09T09:17:23.000Z</time>
      </trkpt>
      <trkpt lat="50.40517" lon="3.57834">
        <ele>18</ele>
        <time>2022-05-09T09:17:25.000Z</time>
      </trkpt>
      <trkpt lat="50.40521" lon="3.57829">
        <ele>18</ele>
        <time>2022-05-09T09:17:26.000Z</time>
      </trkpt>
      <trkpt lat="50.40525" lon="3.57825">
        <ele>18</ele>
        <time>2022-05-09T09:17:27.000Z</time>
      </trkpt>
      <trkpt lat="50.40533" lon="3.57815">
        <ele>17.9</ele>
        <time>2022-05-09T09:17:29.000Z</time>
      </trkpt>
      <trkpt lat="50.40537" lon="3.57811">
        <ele>17.7</ele>
        <time>2022-05-09T09:17:30.000Z</time>
      </trkpt>
      <trkpt lat="50.40541" lon="3.57806">
        <ele>17.5</ele>
        <time>2022-05-09T09:17:31.000Z</time>
      </trkpt>
      <trkpt lat="50.40544" lon="3.57802">
        <ele>17.4</ele>
        <time>2022-05-09T09:17:32.000Z</time>
      </trkpt>
      <trkpt lat="50.40548" lon="3.57797">
        <ele>17.3</ele>
        <time>2022-05-09T09:17:33.000Z</time>
      </trkpt>
      <trkpt lat="50.40553" lon="3.57791">
        <ele>17.1</ele>
        <time>2022-05-09T09:17:35.000Z</time>
      </trkpt>
      <trkpt lat="50.40561" lon="3.57782">
        <ele>17</ele>
        <time>2022-05-09T09:17:37.000Z</time>
      </trkpt>
      <trkpt lat="50.40567" lon="3.57774">
        <ele>17</ele>
        <time>2022-05-09T09:17:39.000Z</time>
      </trkpt>
      <trkpt lat="50.40572" lon="3.57769">
        <ele>17</ele>
        <time>2022-05-09T09:17:40.000Z</time>
      </trkpt>
      <trkpt lat="50.40578" lon="3.57762">
        <ele>17</ele>
        <time>2022-05-09T09:17:42.000Z</time>
      </trkpt>
      <trkpt lat="50.40583" lon="3.57757">
        <ele>17</ele>
        <time>2022-05-09T09:17:42.978Z</time>
      </trkpt>
      <trkpt lat="50.40588" lon="3.57752">
        <ele>17</ele>
        <time>2022-05-09T09:17:45.000Z</time>
      </trkpt>
      <trkpt lat="50.40593" lon="3.57747">
        <ele>17</ele>
        <time>2022-05-09T09:17:46.000Z</time>
      </trkpt>
      <trkpt lat="50.406" lon="3.57739">
        <ele>17</ele>
        <time>2022-05-09T09:17:48.000Z</time>
      </trkpt>
      <trkpt lat="50.40605" lon="3.57732">
        <ele>17</ele>
        <time>2022-05-09T09:17:50.000Z</time>
      </trkpt>
      <trkpt lat="50.40609" lon="3.57726">
        <ele>17</ele>
        <time>2022-05-09T09:17:51.060Z</time>
      </trkpt>
      <trkpt lat="50.40613" lon="3.5772">
        <ele>17</ele>
        <time>2022-05-09T09:17:53.000Z</time>
      </trkpt>
      <trkpt lat="50.40617" lon="3.57714">
        <ele>17</ele>
        <time>2022-05-09T09:17:54.000Z</time>
      </trkpt>
      <trkpt lat="50.40626" lon="3.57705">
        <ele>17</ele>
        <time>2022-05-09T09:17:57.000Z</time>
      </trkpt>
      <trkpt lat="50.40633" lon="3.57697">
        <ele>17</ele>
        <time>2022-05-09T09:17:59.661Z</time>
      </trkpt>
      <trkpt lat="50.40638" lon="3.57691">
        <ele>17.1</ele>
        <time>2022-05-09T09:18:01.000Z</time>
      </trkpt>
      <trkpt lat="50.40645" lon="3.57685">
        <ele>17.4</ele>
        <time>2022-05-09T09:18:03.000Z</time>
      </trkpt>
      <trkpt lat="50.40649" lon="3.57678">
        <ele>17.6</ele>
        <time>2022-05-09T09:18:05.062Z</time>
      </trkpt>
      <trkpt lat="50.40654" lon="3.57671">
        <ele>17.8</ele>
        <time>2022-05-09T09:18:07.000Z</time>
      </trkpt>
      <trkpt lat="50.40659" lon="3.57664">
        <ele>18</ele>
        <time>2022-05-09T09:18:09.000Z</time>
      </trkpt>
      <trkpt lat="50.40663" lon="3.57659">
        <ele>18</ele>
        <time>2022-05-09T09:18:10.000Z</time>
      </trkpt>
      <trkpt lat="50.40668" lon="3.57652">
        <ele>18</ele>
        <time>2022-05-09T09:18:12.000Z</time>
      </trkpt>
      <trkpt lat="50.40673" lon="3.57643">
        <ele>18</ele>
        <time>2022-05-09T09:18:14.000Z</time>
      </trkpt>
      <trkpt lat="50.40679" lon="3.57635">
        <ele>18</ele>
        <time>2022-05-09T09:18:16.078Z</time>
      </trkpt>
      <trkpt lat="50.40684" lon="3.57629">
        <ele>18</ele>
        <time>2022-05-09T09:18:18.000Z</time>
      </trkpt>
      <trkpt lat="50.40689" lon="3.57622">
        <ele>18</ele>
        <time>2022-05-09T09:18:20.000Z</time>
      </trkpt>
      <trkpt lat="50.40693" lon="3.57617">
        <ele>18</ele>
        <time>2022-05-09T09:18:21.000Z</time>
      </trkpt>
      <trkpt lat="50.40698" lon="3.57612">
        <ele>17.9</ele>
        <time>2022-05-09T09:18:22.000Z</time>
      </trkpt>
      <trkpt lat="50.40703" lon="3.5761">
        <ele>17.6</ele>
        <time>2022-05-09T09:18:23.000Z</time>
      </trkpt>
      <trkpt lat="50.4071" lon="3.57602">
        <ele>17.3</ele>
        <time>2022-05-09T09:18:25.017Z</time>
      </trkpt>
      <trkpt lat="50.40716" lon="3.57596">
        <ele>17.1</ele>
        <time>2022-05-09T09:18:27.000Z</time>
      </trkpt>
      <trkpt lat="50.4072" lon="3.57592">
        <ele>17</ele>
        <time>2022-05-09T09:18:28.000Z</time>
      </trkpt>
      <trkpt lat="50.40725" lon="3.57586">
        <ele>17</ele>
        <time>2022-05-09T09:18:29.000Z</time>
      </trkpt>
      <trkpt lat="50.40728" lon="3.57581">
        <ele>17</ele>
        <time>2022-05-09T09:18:30.011Z</time>
      </trkpt>
      <trkpt lat="50.40736" lon="3.57572">
        <ele>17.2</ele>
        <time>2022-05-09T09:18:33.000Z</time>
      </trkpt>
      <trkpt lat="50.4074" lon="3.57567">
        <ele>17.4</ele>
        <time>2022-05-09T09:18:34.000Z</time>
      </trkpt>
      <trkpt lat="50.40744" lon="3.57561">
        <ele>17.6</ele>
        <time>2022-05-09T09:18:36.000Z</time>
      </trkpt>
      <trkpt lat="50.4075" lon="3.57558">
        <ele>17.9</ele>
        <time>2022-05-09T09:18:37.176Z</time>
      </trkpt>
      <trkpt lat="50.40755" lon="3.57552">
        <ele>17.7</ele>
        <time>2022-05-09T09:18:38.769Z</time>
      </trkpt>
      <trkpt lat="50.40763" lon="3.57539">
        <ele>17.5</ele>
        <time>2022-05-09T09:18:42.000Z</time>
      </trkpt>
      <trkpt lat="50.40767" lon="3.57531">
        <ele>17.6</ele>
        <time>2022-05-09T09:18:44.000Z</time>
      </trkpt>
      <trkpt lat="50.40771" lon="3.57523">
        <ele>17.7</ele>
        <time>2022-05-09T09:18:45.000Z</time>
      </trkpt>
      <trkpt lat="50.40774" lon="3.57512">
        <ele>17.9</ele>
        <time>2022-05-09T09:18:47.000Z</time>
      </trkpt>
      <trkpt lat="50.4078" lon="3.57495">
        <ele>18</ele>
        <time>2022-05-09T09:18:50.452Z</time>
      </trkpt>
      <trkpt lat="50.40783" lon="3.57487">
        <ele>18</ele>
        <time>2022-05-09T09:18:52.000Z</time>
      </trkpt>
      <trkpt lat="50.40786" lon="3.57477">
        <ele>18</ele>
        <time>2022-05-09T09:18:54.000Z</time>
      </trkpt>
      <trkpt lat="50.40788" lon="3.57469">
        <ele>18</ele>
        <time>2022-05-09T09:18:55.000Z</time>
      </trkpt>
      <trkpt lat="50.40792" lon="3.57461">
        <ele>18</ele>
        <time>2022-05-09T09:18:57.042Z</time>
      </trkpt>
      <trkpt lat="50.40795" lon="3.57453">
        <ele>18</ele>
        <time>2022-05-09T09:18:58.914Z</time>
      </trkpt>
      <trkpt lat="50.40797" lon="3.57443">
        <ele>18</ele>
        <time>2022-05-09T09:19:01.000Z</time>
      </trkpt>
      <trkpt lat="50.408" lon="3.57435">
        <ele>18</ele>
        <time>2022-05-09T09:19:02.000Z</time>
      </trkpt>
      <trkpt lat="50.40803" lon="3.57428">
        <ele>18</ele>
        <time>2022-05-09T09:19:03.000Z</time>
      </trkpt>
      <trkpt lat="50.40806" lon="3.57416">
        <ele>18</ele>
        <time>2022-05-09T09:19:05.000Z</time>
      </trkpt>
      <trkpt lat="50.40809" lon="3.57408">
        <ele>18</ele>
        <time>2022-05-09T09:19:07.000Z</time>
      </trkpt>
      <trkpt lat="50.40812" lon="3.57402">
        <ele>18</ele>
        <time>2022-05-09T09:19:08.000Z</time>
      </trkpt>
      <trkpt lat="50.40813" lon="3.57393">
        <ele>18</ele>
        <time>2022-05-09T09:19:10.000Z</time>
      </trkpt>
      <trkpt lat="50.40817" lon="3.57384">
        <ele>18</ele>
        <time>2022-05-09T09:19:11.000Z</time>
      </trkpt>
      <trkpt lat="50.4082" lon="3.57377">
        <ele>18</ele>
        <time>2022-05-09T09:19:13.000Z</time>
      </trkpt>
      <trkpt lat="50.40822" lon="3.57368">
        <ele>18</ele>
        <time>2022-05-09T09:19:14.000Z</time>
      </trkpt>
      <trkpt lat="50.40825" lon="3.5736">
        <ele>18</ele>
        <time>2022-05-09T09:19:16.000Z</time>
      </trkpt>
      <trkpt lat="50.40829" lon="3.57354">
        <ele>18</ele>
        <time>2022-05-09T09:19:17.000Z</time>
      </trkpt>
      <trkpt lat="50.40832" lon="3.57343">
        <ele>18</ele>
        <time>2022-05-09T09:19:19.453Z</time>
      </trkpt>
      <trkpt lat="50.40836" lon="3.57333">
        <ele>18</ele>
        <time>2022-05-09T09:19:21.015Z</time>
      </trkpt>
      <trkpt lat="50.40833" lon="3.57332">
        <ele>18</ele>
        <time>2022-05-09T09:19:25.000Z</time>
      </trkpt>
      <trkpt lat="50.40829" lon="3.57342">
        <ele>18</ele>
        <time>2022-05-09T09:19:26.000Z</time>
      </trkpt>
      <trkpt lat="50.40827" lon="3.57354">
        <ele>18</ele>
        <time>2022-05-09T09:19:28.000Z</time>
      </trkpt>
      <trkpt lat="50.40832" lon="3.5736">
        <ele>18</ele>
        <time>2022-05-09T09:19:31.000Z</time>
      </trkpt>
      <trkpt lat="50.40836" lon="3.57363">
        <ele>18</ele>
        <time>2022-05-09T09:19:32.000Z</time>
      </trkpt>
      <trkpt lat="50.40844" lon="3.5737">
        <ele>18</ele>
        <time>2022-05-09T09:19:34.000Z</time>
      </trkpt>
      <trkpt lat="50.40847" lon="3.57373">
        <ele>18</ele>
        <time>2022-05-09T09:19:35.000Z</time>
      </trkpt>
      <trkpt lat="50.40853" lon="3.57378">
        <ele>18</ele>
        <time>2022-05-09T09:19:37.000Z</time>
      </trkpt>
      <trkpt lat="50.40858" lon="3.57381">
        <ele>18</ele>
        <time>2022-05-09T09:19:39.000Z</time>
      </trkpt>
      <trkpt lat="50.40865" lon="3.57387">
        <ele>18</ele>
        <time>2022-05-09T09:19:41.000Z</time>
      </trkpt>
      <trkpt lat="50.4087" lon="3.57394">
        <ele>18</ele>
        <time>2022-05-09T09:19:43.000Z</time>
      </trkpt>
      <trkpt lat="50.40875" lon="3.57398">
        <ele>18</ele>
        <time>2022-05-09T09:19:44.000Z</time>
      </trkpt>
      <trkpt lat="50.40881" lon="3.57402">
        <ele>18</ele>
        <time>2022-05-09T09:19:46.000Z</time>
      </trkpt>
      <trkpt lat="50.40886" lon="3.57406">
        <ele>18</ele>
        <time>2022-05-09T09:19:47.000Z</time>
      </trkpt>
      <trkpt lat="50.40894" lon="3.57411">
        <ele>18.1</ele>
        <time>2022-05-09T09:19:49.000Z</time>
      </trkpt>
      <trkpt lat="50.409" lon="3.57417">
        <ele>18.4</ele>
        <time>2022-05-09T09:19:51.000Z</time>
      </trkpt>
      <trkpt lat="50.40905" lon="3.5742">
        <ele>18.5</ele>
        <time>2022-05-09T09:19:52.000Z</time>
      </trkpt>
      <trkpt lat="50.4091" lon="3.57424">
        <ele>18.6</ele>
        <time>2022-05-09T09:19:54.000Z</time>
      </trkpt>
      <trkpt lat="50.40916" lon="3.5743">
        <ele>18.5</ele>
        <time>2022-05-09T09:19:56.000Z</time>
      </trkpt>
      <trkpt lat="50.40922" lon="3.57434">
        <ele>18.4</ele>
        <time>2022-05-09T09:19:58.000Z</time>
      </trkpt>
      <trkpt lat="50.40929" lon="3.57435">
        <ele>18.5</ele>
        <time>2022-05-09T09:20:00.078Z</time>
      </trkpt>
      <trkpt lat="50.40935" lon="3.57433">
        <ele>18.5</ele>
        <time>2022-05-09T09:20:02.000Z</time>
      </trkpt>
      <trkpt lat="50.40938" lon="3.57429">
        <ele>18.5</ele>
        <time>2022-05-09T09:20:03.000Z</time>
      </trkpt>
      <trkpt lat="50.40938" lon="3.57422">
        <ele>18.3</ele>
        <time>2022-05-09T09:20:05.611Z</time>
      </trkpt>
      <trkpt lat="50.4094" lon="3.57418">
        <ele>18.2</ele>
        <time>2022-05-09T09:20:07.440Z</time>
      </trkpt>
      <trkpt lat="50.40944" lon="3.57416">
        <ele>18</ele>
        <time>2022-05-09T09:20:09.887Z</time>
      </trkpt>
      <trkpt lat="50.40951" lon="3.57418">
        <ele>18</ele>
        <time>2022-05-09T09:20:12.000Z</time>
      </trkpt>
      <trkpt lat="50.40956" lon="3.57424">
        <ele>18.2</ele>
        <time>2022-05-09T09:20:15.000Z</time>
      </trkpt>
      <trkpt lat="50.4096" lon="3.57429">
        <ele>18.2</ele>
        <time>2022-05-09T09:20:17.000Z</time>
      </trkpt>
      <trkpt lat="50.40966" lon="3.57433">
        <ele>18.1</ele>
        <time>2022-05-09T09:20:19.000Z</time>
      </trkpt>
      <trkpt lat="50.40974" lon="3.57435">
        <ele>18</ele>
        <time>2022-05-09T09:20:21.000Z</time>
      </trkpt>
      <trkpt lat="50.40981" lon="3.57439">
        <ele>18</ele>
        <time>2022-05-09T09:20:23.000Z</time>
      </trkpt>
      <trkpt lat="50.40988" lon="3.57445">
        <ele>18</ele>
        <time>2022-05-09T09:20:25.000Z</time>
      </trkpt>
      <trkpt lat="50.40997" lon="3.57448">
        <ele>18</ele>
        <time>2022-05-09T09:20:27.000Z</time>
      </trkpt>
      <trkpt lat="50.41003" lon="3.57451">
        <ele>18</ele>
        <time>2022-05-09T09:20:29.000Z</time>
      </trkpt>
      <trkpt lat="50.41009" lon="3.57453">
        <ele>18</ele>
        <time>2022-05-09T09:20:30.000Z</time>
      </trkpt>
      <trkpt lat="50.41018" lon="3.57458">
        <ele>18</ele>
        <time>2022-05-09T09:20:32.000Z</time>
      </trkpt>
      <trkpt lat="50.41024" lon="3.57461">
        <ele>18</ele>
        <time>2022-05-09T09:20:34.132Z</time>
      </trkpt>
      <trkpt lat="50.41032" lon="3.57466">
        <ele>18</ele>
        <time>2022-05-09T09:20:36.000Z</time>
      </trkpt>
      <trkpt lat="50.4104" lon="3.57469">
        <ele>18</ele>
        <time>2022-05-09T09:20:38.000Z</time>
      </trkpt>
      <trkpt lat="50.41053" lon="3.57475">
        <ele>17.9</ele>
        <time>2022-05-09T09:20:41.000Z</time>
      </trkpt>
      <trkpt lat="50.41059" lon="3.57478">
        <ele>17.8</ele>
        <time>2022-05-09T09:20:43.000Z</time>
      </trkpt>
      <trkpt lat="50.41065" lon="3.57483">
        <ele>17.7</ele>
        <time>2022-05-09T09:20:44.000Z</time>
      </trkpt>
      <trkpt lat="50.41073" lon="3.57488">
        <ele>17.8</ele>
        <time>2022-05-09T09:20:46.000Z</time>
      </trkpt>
      <trkpt lat="50.4108" lon="3.57491">
        <ele>17.9</ele>
        <time>2022-05-09T09:20:48.052Z</time>
      </trkpt>
      <trkpt lat="50.41088" lon="3.57495">
        <ele>18</ele>
        <time>2022-05-09T09:20:50.000Z</time>
      </trkpt>
      <trkpt lat="50.41094" lon="3.57498">
        <ele>18</ele>
        <time>2022-05-09T09:20:52.000Z</time>
      </trkpt>
      <trkpt lat="50.411" lon="3.57499">
        <ele>18</ele>
        <time>2022-05-09T09:20:53.329Z</time>
      </trkpt>
      <trkpt lat="50.41105" lon="3.57504">
        <ele>18</ele>
        <time>2022-05-09T09:20:54.452Z</time>
      </trkpt>
      <trkpt lat="50.4111" lon="3.57505">
        <ele>18</ele>
        <time>2022-05-09T09:20:55.831Z</time>
      </trkpt>
      <trkpt lat="50.41116" lon="3.5751">
        <ele>17.9</ele>
        <time>2022-05-09T09:20:58.000Z</time>
      </trkpt>
      <trkpt lat="50.41121" lon="3.57514">
        <ele>17.8</ele>
        <time>2022-05-09T09:20:59.000Z</time>
      </trkpt>
      <trkpt lat="50.41125" lon="3.57517">
        <ele>17.8</ele>
        <time>2022-05-09T09:21:00.252Z</time>
      </trkpt>
      <trkpt lat="50.41135" lon="3.57523">
        <ele>17.8</ele>
        <time>2022-05-09T09:21:03.000Z</time>
      </trkpt>
      <trkpt lat="50.41141" lon="3.57526">
        <ele>17.9</ele>
        <time>2022-05-09T09:21:05.000Z</time>
      </trkpt>
      <trkpt lat="50.41148" lon="3.57531">
        <ele>17.9</ele>
        <time>2022-05-09T09:21:07.090Z</time>
      </trkpt>
      <trkpt lat="50.41156" lon="3.57535">
        <ele>17.7</ele>
        <time>2022-05-09T09:21:09.000Z</time>
      </trkpt>
      <trkpt lat="50.41162" lon="3.57538">
        <ele>17.6</ele>
        <time>2022-05-09T09:21:11.000Z</time>
      </trkpt>
      <trkpt lat="50.41168" lon="3.57541">
        <ele>17.5</ele>
        <time>2022-05-09T09:21:13.000Z</time>
      </trkpt>
      <trkpt lat="50.41174" lon="3.57544">
        <ele>17.6</ele>
        <time>2022-05-09T09:21:15.070Z</time>
      </trkpt>
      <trkpt lat="50.4118" lon="3.57547">
        <ele>17.6</ele>
        <time>2022-05-09T09:21:17.000Z</time>
      </trkpt>
      <trkpt lat="50.41188" lon="3.57554">
        <ele>17.8</ele>
        <time>2022-05-09T09:21:19.931Z</time>
      </trkpt>
      <trkpt lat="50.41196" lon="3.57558">
        <ele>17.9</ele>
        <time>2022-05-09T09:21:22.000Z</time>
      </trkpt>
      <trkpt lat="50.41204" lon="3.57565">
        <ele>17.8</ele>
        <time>2022-05-09T09:21:24.000Z</time>
      </trkpt>
      <trkpt lat="50.41208" lon="3.57566">
        <ele>17.8</ele>
        <time>2022-05-09T09:21:25.000Z</time>
      </trkpt>
      <trkpt lat="50.41212" lon="3.5757">
        <ele>17.8</ele>
        <time>2022-05-09T09:21:26.000Z</time>
      </trkpt>
      <trkpt lat="50.41219" lon="3.57578">
        <ele>17.9</ele>
        <time>2022-05-09T09:21:28.000Z</time>
      </trkpt>
      <trkpt lat="50.41224" lon="3.57587">
        <ele>17.9</ele>
        <time>2022-05-09T09:21:30.052Z</time>
      </trkpt>
      <trkpt lat="50.41229" lon="3.57594">
        <ele>17.7</ele>
        <time>2022-05-09T09:21:32.000Z</time>
      </trkpt>
      <trkpt lat="50.41235" lon="3.57601">
        <ele>17.7</ele>
        <time>2022-05-09T09:21:34.000Z</time>
      </trkpt>
      <trkpt lat="50.41237" lon="3.57607">
        <ele>17.6</ele>
        <time>2022-05-09T09:21:34.988Z</time>
      </trkpt>
      <trkpt lat="50.41238" lon="3.57613">
        <ele>17.6</ele>
        <time>2022-05-09T09:21:36.000Z</time>
      </trkpt>
      <trkpt lat="50.41238" lon="3.57621">
        <ele>17.7</ele>
        <time>2022-05-09T09:21:37.000Z</time>
      </trkpt>
      <trkpt lat="50.41238" lon="3.57625">
        <ele>17.8</ele>
        <time>2022-05-09T09:21:37.401Z</time>
      </trkpt>
      <trkpt lat="50.4124" lon="3.57629">
        <ele>17.9</ele>
        <time>2022-05-09T09:21:38.012Z</time>
      </trkpt>
      <trkpt lat="50.41246" lon="3.57635">
        <ele>18</ele>
        <time>2022-05-09T09:21:40.173Z</time>
      </trkpt>
      <trkpt lat="50.41252" lon="3.57636">
        <ele>18</ele>
        <time>2022-05-09T09:21:41.806Z</time>
      </trkpt>
      <trkpt lat="50.41259" lon="3.57634">
        <ele>18</ele>
        <time>2022-05-09T09:21:43.014Z</time>
      </trkpt>
      <trkpt lat="50.41267" lon="3.5763">
        <ele>18</ele>
        <time>2022-05-09T09:21:45.000Z</time>
      </trkpt>
      <trkpt lat="50.41274" lon="3.57623">
        <ele>18</ele>
        <time>2022-05-09T09:21:47.069Z</time>
      </trkpt>
      <trkpt lat="50.41278" lon="3.57612">
        <ele>18</ele>
        <time>2022-05-09T09:21:49.000Z</time>
      </trkpt>
      <trkpt lat="50.41279" lon="3.57602">
        <ele>17.9</ele>
        <time>2022-05-09T09:21:50.000Z</time>
      </trkpt>
      <trkpt lat="50.41279" lon="3.57594">
        <ele>17.9</ele>
        <time>2022-05-09T09:21:51.000Z</time>
      </trkpt>
      <trkpt lat="50.41279" lon="3.57586">
        <ele>18</ele>
        <time>2022-05-09T09:21:52.000Z</time>
      </trkpt>
      <trkpt lat="50.41278" lon="3.57579">
        <ele>18.2</ele>
        <time>2022-05-09T09:21:53.000Z</time>
      </trkpt>
      <trkpt lat="50.41279" lon="3.5757">
        <ele>18.4</ele>
        <time>2022-05-09T09:21:54.000Z</time>
      </trkpt>
      <trkpt lat="50.41282" lon="3.57563">
        <ele>18.6</ele>
        <time>2022-05-09T09:21:55.000Z</time>
      </trkpt>
      <trkpt lat="50.41287" lon="3.57551">
        <ele>18.6</ele>
        <time>2022-05-09T09:21:57.000Z</time>
      </trkpt>
      <trkpt lat="50.4129" lon="3.57544">
        <ele>18.3</ele>
        <time>2022-05-09T09:21:58.000Z</time>
      </trkpt>
      <trkpt lat="50.41295" lon="3.57534">
        <ele>18.1</ele>
        <time>2022-05-09T09:22:00.000Z</time>
      </trkpt>
      <trkpt lat="50.41301" lon="3.57521">
        <ele>18.4</ele>
        <time>2022-05-09T09:22:02.000Z</time>
      </trkpt>
      <trkpt lat="50.41305" lon="3.57511">
        <ele>19.2</ele>
        <time>2022-05-09T09:22:04.000Z</time>
      </trkpt>
      <trkpt lat="50.41307" lon="3.57503">
        <ele>19.7</ele>
        <time>2022-05-09T09:22:05.000Z</time>
      </trkpt>
      <trkpt lat="50.41309" lon="3.57496">
        <ele>19.8</ele>
        <time>2022-05-09T09:22:06.000Z</time>
      </trkpt>
      <trkpt lat="50.41311" lon="3.5749">
        <ele>19.6</ele>
        <time>2022-05-09T09:22:07.000Z</time>
      </trkpt>
      <trkpt lat="50.41315" lon="3.57478">
        <ele>19.4</ele>
        <time>2022-05-09T09:22:09.000Z</time>
      </trkpt>
      <trkpt lat="50.41318" lon="3.5747">
        <ele>19.4</ele>
        <time>2022-05-09T09:22:10.000Z</time>
      </trkpt>
      <trkpt lat="50.41322" lon="3.57461">
        <ele>19.7</ele>
        <time>2022-05-09T09:22:12.000Z</time>
      </trkpt>
      <trkpt lat="50.41325" lon="3.57454">
        <ele>19.9</ele>
        <time>2022-05-09T09:22:13.000Z</time>
      </trkpt>
      <trkpt lat="50.41328" lon="3.57445">
        <ele>20.4</ele>
        <time>2022-05-09T09:22:15.000Z</time>
      </trkpt>
      <trkpt lat="50.41332" lon="3.57434">
        <ele>20.8</ele>
        <time>2022-05-09T09:22:17.000Z</time>
      </trkpt>
      <trkpt lat="50.41336" lon="3.57421">
        <ele>20.7</ele>
        <time>2022-05-09T09:22:19.000Z</time>
      </trkpt>
      <trkpt lat="50.4134" lon="3.5741">
        <ele>20.2</ele>
        <time>2022-05-09T09:22:21.000Z</time>
      </trkpt>
      <trkpt lat="50.41343" lon="3.57399">
        <ele>19.8</ele>
        <time>2022-05-09T09:22:23.000Z</time>
      </trkpt>
      <trkpt lat="50.41345" lon="3.57392">
        <ele>19.6</ele>
        <time>2022-05-09T09:22:24.000Z</time>
      </trkpt>
      <trkpt lat="50.41348" lon="3.57383">
        <ele>19.6</ele>
        <time>2022-05-09T09:22:26.000Z</time>
      </trkpt>
      <trkpt lat="50.41351" lon="3.57376">
        <ele>19.8</ele>
        <time>2022-05-09T09:22:27.000Z</time>
      </trkpt>
      <trkpt lat="50.41355" lon="3.57368">
        <ele>20.2</ele>
        <time>2022-05-09T09:22:29.000Z</time>
      </trkpt>
      <trkpt lat="50.41356" lon="3.57361">
        <ele>20.6</ele>
        <time>2022-05-09T09:22:30.000Z</time>
      </trkpt>
      <trkpt lat="50.41359" lon="3.57351">
        <ele>21.2</ele>
        <time>2022-05-09T09:22:32.000Z</time>
      </trkpt>
      <trkpt lat="50.41361" lon="3.57344">
        <ele>21.6</ele>
        <time>2022-05-09T09:22:34.000Z</time>
      </trkpt>
      <trkpt lat="50.41364" lon="3.57334">
        <ele>21.6</ele>
        <time>2022-05-09T09:22:37.000Z</time>
      </trkpt>
      <trkpt lat="50.41367" lon="3.57325">
        <ele>21.5</ele>
        <time>2022-05-09T09:22:39.000Z</time>
      </trkpt>
      <trkpt lat="50.4137" lon="3.57315">
        <ele>21.3</ele>
        <time>2022-05-09T09:22:41.000Z</time>
      </trkpt>
      <trkpt lat="50.41372" lon="3.57308">
        <ele>21.3</ele>
        <time>2022-05-09T09:22:42.000Z</time>
      </trkpt>
      <trkpt lat="50.41375" lon="3.57299">
        <ele>21.4</ele>
        <time>2022-05-09T09:22:44.000Z</time>
      </trkpt>
      <trkpt lat="50.41377" lon="3.57291">
        <ele>21.5</ele>
        <time>2022-05-09T09:22:45.000Z</time>
      </trkpt>
      <trkpt lat="50.41379" lon="3.57284">
        <ele>21.7</ele>
        <time>2022-05-09T09:22:47.000Z</time>
      </trkpt>
      <trkpt lat="50.41382" lon="3.57277">
        <ele>21.9</ele>
        <time>2022-05-09T09:22:49.000Z</time>
      </trkpt>
      <trkpt lat="50.41384" lon="3.5727">
        <ele>22</ele>
        <time>2022-05-09T09:22:50.000Z</time>
      </trkpt>
      <trkpt lat="50.41386" lon="3.57258">
        <ele>22.6</ele>
        <time>2022-05-09T09:22:52.000Z</time>
      </trkpt>
      <trkpt lat="50.41389" lon="3.57249">
        <ele>23</ele>
        <time>2022-05-09T09:22:54.000Z</time>
      </trkpt>
      <trkpt lat="50.41393" lon="3.5724">
        <ele>22.8</ele>
        <time>2022-05-09T09:22:56.000Z</time>
      </trkpt>
      <trkpt lat="50.41396" lon="3.57229">
        <ele>22.5</ele>
        <time>2022-05-09T09:22:58.000Z</time>
      </trkpt>
      <trkpt lat="50.414" lon="3.57218">
        <ele>22.2</ele>
        <time>2022-05-09T09:23:00.000Z</time>
      </trkpt>
      <trkpt lat="50.41402" lon="3.57211">
        <ele>22</ele>
        <time>2022-05-09T09:23:02.000Z</time>
      </trkpt>
      <trkpt lat="50.41403" lon="3.57202">
        <ele>21.7</ele>
        <time>2022-05-09T09:23:04.000Z</time>
      </trkpt>
      <trkpt lat="50.41406" lon="3.57191">
        <ele>21.2</ele>
        <time>2022-05-09T09:23:08.000Z</time>
      </trkpt>
      <trkpt lat="50.41409" lon="3.57184">
        <ele>20.4</ele>
        <time>2022-05-09T09:23:11.000Z</time>
      </trkpt>
      <trkpt lat="50.41411" lon="3.57176">
        <ele>19.8</ele>
        <time>2022-05-09T09:23:13.000Z</time>
      </trkpt>
      <trkpt lat="50.41415" lon="3.57167">
        <ele>19.2</ele>
        <time>2022-05-09T09:23:15.000Z</time>
      </trkpt>
      <trkpt lat="50.41417" lon="3.5716">
        <ele>19</ele>
        <time>2022-05-09T09:23:17.000Z</time>
      </trkpt>
      <trkpt lat="50.41419" lon="3.5715">
        <ele>19</ele>
        <time>2022-05-09T09:23:19.000Z</time>
      </trkpt>
      <trkpt lat="50.41422" lon="3.57142">
        <ele>19</ele>
        <time>2022-05-09T09:23:21.000Z</time>
      </trkpt>
      <trkpt lat="50.41425" lon="3.57131">
        <ele>19</ele>
        <time>2022-05-09T09:23:23.000Z</time>
      </trkpt>
      <trkpt lat="50.41428" lon="3.57121">
        <ele>19</ele>
        <time>2022-05-09T09:23:25.000Z</time>
      </trkpt>
      <trkpt lat="50.41431" lon="3.57111">
        <ele>19</ele>
        <time>2022-05-09T09:23:27.000Z</time>
      </trkpt>
      <trkpt lat="50.41434" lon="3.571">
        <ele>19</ele>
        <time>2022-05-09T09:23:29.000Z</time>
      </trkpt>
      <trkpt lat="50.41438" lon="3.57089">
        <ele>19</ele>
        <time>2022-05-09T09:23:31.000Z</time>
      </trkpt>
      <trkpt lat="50.41442" lon="3.57075">
        <ele>20.2</ele>
        <time>2022-05-09T09:23:33.000Z</time>
      </trkpt>
      <trkpt lat="50.41446" lon="3.57059">
        <ele>22.2</ele>
        <time>2022-05-09T09:23:35.000Z</time>
      </trkpt>
      <trkpt lat="50.41448" lon="3.57052">
        <ele>22.4</ele>
        <time>2022-05-09T09:23:36.000Z</time>
      </trkpt>
      <trkpt lat="50.4145" lon="3.57044">
        <ele>22.1</ele>
        <time>2022-05-09T09:23:37.000Z</time>
      </trkpt>
      <trkpt lat="50.41452" lon="3.57035">
        <ele>21.9</ele>
        <time>2022-05-09T09:23:38.000Z</time>
      </trkpt>
      <trkpt lat="50.41455" lon="3.57027">
        <ele>21.5</ele>
        <time>2022-05-09T09:23:39.000Z</time>
      </trkpt>
      <trkpt lat="50.41459" lon="3.57017">
        <ele>20.8</ele>
        <time>2022-05-09T09:23:40.000Z</time>
      </trkpt>
      <trkpt lat="50.41461" lon="3.5701">
        <ele>20.6</ele>
        <time>2022-05-09T09:23:41.000Z</time>
      </trkpt>
      <trkpt lat="50.41465" lon="3.57002">
        <ele>20.7</ele>
        <time>2022-05-09T09:23:42.000Z</time>
      </trkpt>
      <trkpt lat="50.41467" lon="3.56991">
        <ele>21</ele>
        <time>2022-05-09T09:23:43.000Z</time>
      </trkpt>
      <trkpt lat="50.4147" lon="3.56981">
        <ele>21.5</ele>
        <time>2022-05-09T09:23:44.000Z</time>
      </trkpt>
      <trkpt lat="50.41474" lon="3.56973">
        <ele>21.7</ele>
        <time>2022-05-09T09:23:45.000Z</time>
      </trkpt>
      <trkpt lat="50.41477" lon="3.56964">
        <ele>21.3</ele>
        <time>2022-05-09T09:23:46.000Z</time>
      </trkpt>
      <trkpt lat="50.4148" lon="3.56952">
        <ele>20.8</ele>
        <time>2022-05-09T09:23:47.000Z</time>
      </trkpt>
      <trkpt lat="50.41483" lon="3.56944">
        <ele>20.5</ele>
        <time>2022-05-09T09:23:48.000Z</time>
      </trkpt>
      <trkpt lat="50.41487" lon="3.56933">
        <ele>19.7</ele>
        <time>2022-05-09T09:23:49.000Z</time>
      </trkpt>
      <trkpt lat="50.41489" lon="3.56924">
        <ele>19.4</ele>
        <time>2022-05-09T09:23:50.000Z</time>
      </trkpt>
      <trkpt lat="50.41492" lon="3.56915">
        <ele>19.3</ele>
        <time>2022-05-09T09:23:51.000Z</time>
      </trkpt>
      <trkpt lat="50.41496" lon="3.56903">
        <ele>19.8</ele>
        <time>2022-05-09T09:23:52.000Z</time>
      </trkpt>
      <trkpt lat="50.41498" lon="3.56895">
        <ele>20.4</ele>
        <time>2022-05-09T09:23:53.000Z</time>
      </trkpt>
      <trkpt lat="50.415" lon="3.56887">
        <ele>20.9</ele>
        <time>2022-05-09T09:23:54.000Z</time>
      </trkpt>
      <trkpt lat="50.41503" lon="3.56876">
        <ele>20.5</ele>
        <time>2022-05-09T09:23:55.000Z</time>
      </trkpt>
      <trkpt lat="50.41506" lon="3.56867">
        <ele>20.2</ele>
        <time>2022-05-09T09:23:56.000Z</time>
      </trkpt>
      <trkpt lat="50.41508" lon="3.56857">
        <ele>19.6</ele>
        <time>2022-05-09T09:23:57.000Z</time>
      </trkpt>
      <trkpt lat="50.41512" lon="3.56845">
        <ele>18.9</ele>
        <time>2022-05-09T09:23:58.000Z</time>
      </trkpt>
      <trkpt lat="50.41514" lon="3.56837">
        <ele>18.5</ele>
        <time>2022-05-09T09:23:59.000Z</time>
      </trkpt>
      <trkpt lat="50.41517" lon="3.56829">
        <ele>18.4</ele>
        <time>2022-05-09T09:24:00.000Z</time>
      </trkpt>
      <trkpt lat="50.41521" lon="3.56818">
        <ele>18.5</ele>
        <time>2022-05-09T09:24:01.000Z</time>
      </trkpt>
      <trkpt lat="50.41523" lon="3.56809">
        <ele>18.7</ele>
        <time>2022-05-09T09:24:02.000Z</time>
      </trkpt>
      <trkpt lat="50.41527" lon="3.56798">
        <ele>19</ele>
        <time>2022-05-09T09:24:03.000Z</time>
      </trkpt>
      <trkpt lat="50.41529" lon="3.56789">
        <ele>18.9</ele>
        <time>2022-05-09T09:24:04.000Z</time>
      </trkpt>
      <trkpt lat="50.41532" lon="3.5678">
        <ele>18.7</ele>
        <time>2022-05-09T09:24:05.000Z</time>
      </trkpt>
      <trkpt lat="50.41535" lon="3.56769">
        <ele>18.6</ele>
        <time>2022-05-09T09:24:06.000Z</time>
      </trkpt>
      <trkpt lat="50.41538" lon="3.56761">
        <ele>18.5</ele>
        <time>2022-05-09T09:24:07.000Z</time>
      </trkpt>
      <trkpt lat="50.41541" lon="3.56752">
        <ele>18.5</ele>
        <time>2022-05-09T09:24:08.000Z</time>
      </trkpt>
      <trkpt lat="50.41544" lon="3.56741">
        <ele>18.5</ele>
        <time>2022-05-09T09:24:09.000Z</time>
      </trkpt>
      <trkpt lat="50.41547" lon="3.56733">
        <ele>18.5</ele>
        <time>2022-05-09T09:24:10.000Z</time>
      </trkpt>
      <trkpt lat="50.4155" lon="3.56722">
        <ele>18.8</ele>
        <time>2022-05-09T09:24:11.000Z</time>
      </trkpt>
      <trkpt lat="50.41552" lon="3.56713">
        <ele>18.9</ele>
        <time>2022-05-09T09:24:12.000Z</time>
      </trkpt>
      <trkpt lat="50.41555" lon="3.56704">
        <ele>19</ele>
        <time>2022-05-09T09:24:13.000Z</time>
      </trkpt>
      <trkpt lat="50.41557" lon="3.56696">
        <ele>19</ele>
        <time>2022-05-09T09:24:14.000Z</time>
      </trkpt>
      <trkpt lat="50.41559" lon="3.56685">
        <ele>19</ele>
        <time>2022-05-09T09:24:15.000Z</time>
      </trkpt>
      <trkpt lat="50.41562" lon="3.56678">
        <ele>19</ele>
        <time>2022-05-09T09:24:16.000Z</time>
      </trkpt>
      <trkpt lat="50.41565" lon="3.56669">
        <ele>19</ele>
        <time>2022-05-09T09:24:17.000Z</time>
      </trkpt>
      <trkpt lat="50.41568" lon="3.56659">
        <ele>19</ele>
        <time>2022-05-09T09:24:18.000Z</time>
      </trkpt>
      <trkpt lat="50.4157" lon="3.56652">
        <ele>19</ele>
        <time>2022-05-09T09:24:19.000Z</time>
      </trkpt>
      <trkpt lat="50.41573" lon="3.56644">
        <ele>19</ele>
        <time>2022-05-09T09:24:20.000Z</time>
      </trkpt>
      <trkpt lat="50.41576" lon="3.56634">
        <ele>19</ele>
        <time>2022-05-09T09:24:21.000Z</time>
      </trkpt>
      <trkpt lat="50.41578" lon="3.56626">
        <ele>19</ele>
        <time>2022-05-09T09:24:22.000Z</time>
      </trkpt>
      <trkpt lat="50.41581" lon="3.56618">
        <ele>19</ele>
        <time>2022-05-09T09:24:23.000Z</time>
      </trkpt>
      <trkpt lat="50.41584" lon="3.56608">
        <ele>19</ele>
        <time>2022-05-09T09:24:24.000Z</time>
      </trkpt>
      <trkpt lat="50.41586" lon="3.56601">
        <ele>19</ele>
        <time>2022-05-09T09:24:25.000Z</time>
      </trkpt>
      <trkpt lat="50.41589" lon="3.56594">
        <ele>19</ele>
        <time>2022-05-09T09:24:26.000Z</time>
      </trkpt>
      <trkpt lat="50.41592" lon="3.56584">
        <ele>19</ele>
        <time>2022-05-09T09:24:27.000Z</time>
      </trkpt>
      <trkpt lat="50.41594" lon="3.56578">
        <ele>19</ele>
        <time>2022-05-09T09:24:28.000Z</time>
      </trkpt>
      <trkpt lat="50.41597" lon="3.56569">
        <ele>19</ele>
        <time>2022-05-09T09:24:29.000Z</time>
      </trkpt>
      <trkpt lat="50.416" lon="3.56561">
        <ele>19</ele>
        <time>2022-05-09T09:24:30.000Z</time>
      </trkpt>
      <trkpt lat="50.41602" lon="3.56554">
        <ele>19</ele>
        <time>2022-05-09T09:24:31.000Z</time>
      </trkpt>
      <trkpt lat="50.41604" lon="3.56547">
        <ele>19</ele>
        <time>2022-05-09T09:24:32.000Z</time>
      </trkpt>
      <trkpt lat="50.41607" lon="3.56538">
        <ele>19</ele>
        <time>2022-05-09T09:24:33.000Z</time>
      </trkpt>
      <trkpt lat="50.41609" lon="3.56531">
        <ele>19</ele>
        <time>2022-05-09T09:24:34.000Z</time>
      </trkpt>
      <trkpt lat="50.41611" lon="3.56522">
        <ele>18.8</ele>
        <time>2022-05-09T09:24:35.000Z</time>
      </trkpt>
      <trkpt lat="50.41613" lon="3.56515">
        <ele>18.5</ele>
        <time>2022-05-09T09:24:36.000Z</time>
      </trkpt>
      <trkpt lat="50.41615" lon="3.56508">
        <ele>18.2</ele>
        <time>2022-05-09T09:24:37.000Z</time>
      </trkpt>
      <trkpt lat="50.41617" lon="3.56501">
        <ele>18</ele>
        <time>2022-05-09T09:24:38.000Z</time>
      </trkpt>
      <trkpt lat="50.4162" lon="3.56493">
        <ele>18.2</ele>
        <time>2022-05-09T09:24:39.000Z</time>
      </trkpt>
      <trkpt lat="50.41624" lon="3.56479">
        <ele>18.4</ele>
        <time>2022-05-09T09:24:41.000Z</time>
      </trkpt>
      <trkpt lat="50.41627" lon="3.5647">
        <ele>18.4</ele>
        <time>2022-05-09T09:24:42.000Z</time>
      </trkpt>
      <trkpt lat="50.41628" lon="3.56463">
        <ele>18.4</ele>
        <time>2022-05-09T09:24:43.000Z</time>
      </trkpt>
      <trkpt lat="50.4163" lon="3.56457">
        <ele>18.3</ele>
        <time>2022-05-09T09:24:44.000Z</time>
      </trkpt>
      <trkpt lat="50.41632" lon="3.5645">
        <ele>18.3</ele>
        <time>2022-05-09T09:24:45.000Z</time>
      </trkpt>
      <trkpt lat="50.41634" lon="3.56442">
        <ele>18.2</ele>
        <time>2022-05-09T09:24:46.000Z</time>
      </trkpt>
      <trkpt lat="50.41639" lon="3.56429">
        <ele>18</ele>
        <time>2022-05-09T09:24:48.000Z</time>
      </trkpt>
      <trkpt lat="50.41641" lon="3.56422">
        <ele>17.9</ele>
        <time>2022-05-09T09:24:49.000Z</time>
      </trkpt>
      <trkpt lat="50.41645" lon="3.56409">
        <ele>17.8</ele>
        <time>2022-05-09T09:24:51.000Z</time>
      </trkpt>
      <trkpt lat="50.41647" lon="3.56401">
        <ele>17.7</ele>
        <time>2022-05-09T09:24:52.000Z</time>
      </trkpt>
      <trkpt lat="50.41651" lon="3.56388">
        <ele>17.5</ele>
        <time>2022-05-09T09:24:54.000Z</time>
      </trkpt>
      <trkpt lat="50.41653" lon="3.56381">
        <ele>17.4</ele>
        <time>2022-05-09T09:24:55.000Z</time>
      </trkpt>
      <trkpt lat="50.41656" lon="3.56367">
        <ele>17.1</ele>
        <time>2022-05-09T09:24:57.000Z</time>
      </trkpt>
      <trkpt lat="50.41659" lon="3.56361">
        <ele>17</ele>
        <time>2022-05-09T09:24:58.000Z</time>
      </trkpt>
      <trkpt lat="50.41661" lon="3.56353">
        <ele>17.2</ele>
        <time>2022-05-09T09:24:59.000Z</time>
      </trkpt>
      <trkpt lat="50.41665" lon="3.56339">
        <ele>17.8</ele>
        <time>2022-05-09T09:25:01.000Z</time>
      </trkpt>
      <trkpt lat="50.41668" lon="3.56331">
        <ele>18</ele>
        <time>2022-05-09T09:25:02.000Z</time>
      </trkpt>
      <trkpt lat="50.41672" lon="3.56319">
        <ele>17.8</ele>
        <time>2022-05-09T09:25:04.000Z</time>
      </trkpt>
      <trkpt lat="50.41674" lon="3.56312">
        <ele>17.7</ele>
        <time>2022-05-09T09:25:05.000Z</time>
      </trkpt>
      <trkpt lat="50.41677" lon="3.56304">
        <ele>17.6</ele>
        <time>2022-05-09T09:25:06.000Z</time>
      </trkpt>
      <trkpt lat="50.4168" lon="3.56291">
        <ele>17.2</ele>
        <time>2022-05-09T09:25:08.000Z</time>
      </trkpt>
      <trkpt lat="50.41682" lon="3.56284">
        <ele>17.1</ele>
        <time>2022-05-09T09:25:09.000Z</time>
      </trkpt>
      <trkpt lat="50.41684" lon="3.56277">
        <ele>17</ele>
        <time>2022-05-09T09:25:10.000Z</time>
      </trkpt>
      <trkpt lat="50.41687" lon="3.56269">
        <ele>17.2</ele>
        <time>2022-05-09T09:25:11.000Z</time>
      </trkpt>
      <trkpt lat="50.4169" lon="3.56261">
        <ele>17.5</ele>
        <time>2022-05-09T09:25:12.000Z</time>
      </trkpt>
      <trkpt lat="50.41692" lon="3.56254">
        <ele>17.8</ele>
        <time>2022-05-09T09:25:13.000Z</time>
      </trkpt>
      <trkpt lat="50.41694" lon="3.56247">
        <ele>18</ele>
        <time>2022-05-09T09:25:14.000Z</time>
      </trkpt>
      <trkpt lat="50.41696" lon="3.56241">
        <ele>17.9</ele>
        <time>2022-05-09T09:25:15.000Z</time>
      </trkpt>
      <trkpt lat="50.417" lon="3.56227">
        <ele>17.6</ele>
        <time>2022-05-09T09:25:17.000Z</time>
      </trkpt>
      <trkpt lat="50.41702" lon="3.56221">
        <ele>17.4</ele>
        <time>2022-05-09T09:25:18.000Z</time>
      </trkpt>
      <trkpt lat="50.41703" lon="3.56214">
        <ele>17.2</ele>
        <time>2022-05-09T09:25:19.000Z</time>
      </trkpt>
      <trkpt lat="50.41706" lon="3.56206">
        <ele>17.1</ele>
        <time>2022-05-09T09:25:20.000Z</time>
      </trkpt>
      <trkpt lat="50.41709" lon="3.56194">
        <ele>17</ele>
        <time>2022-05-09T09:25:22.000Z</time>
      </trkpt>
      <trkpt lat="50.41711" lon="3.56188">
        <ele>17</ele>
        <time>2022-05-09T09:25:23.000Z</time>
      </trkpt>
      <trkpt lat="50.41715" lon="3.56173">
        <ele>17</ele>
        <time>2022-05-09T09:25:25.000Z</time>
      </trkpt>
      <trkpt lat="50.41717" lon="3.56166">
        <ele>17</ele>
        <time>2022-05-09T09:25:26.000Z</time>
      </trkpt>
      <trkpt lat="50.41719" lon="3.56159">
        <ele>17.2</ele>
        <time>2022-05-09T09:25:27.000Z</time>
      </trkpt>
      <trkpt lat="50.41722" lon="3.56151">
        <ele>17.5</ele>
        <time>2022-05-09T09:25:28.000Z</time>
      </trkpt>
      <trkpt lat="50.41726" lon="3.5614">
        <ele>17.9</ele>
        <time>2022-05-09T09:25:30.000Z</time>
      </trkpt>
      <trkpt lat="50.41728" lon="3.56133">
        <ele>17.6</ele>
        <time>2022-05-09T09:25:31.000Z</time>
      </trkpt>
      <trkpt lat="50.4173" lon="3.56126">
        <ele>17.4</ele>
        <time>2022-05-09T09:25:32.000Z</time>
      </trkpt>
      <trkpt lat="50.41733" lon="3.56119">
        <ele>17.2</ele>
        <time>2022-05-09T09:25:33.000Z</time>
      </trkpt>
      <trkpt lat="50.41735" lon="3.56112">
        <ele>17</ele>
        <time>2022-05-09T09:25:34.000Z</time>
      </trkpt>
      <trkpt lat="50.41737" lon="3.56105">
        <ele>17</ele>
        <time>2022-05-09T09:25:35.000Z</time>
      </trkpt>
      <trkpt lat="50.4174" lon="3.56091">
        <ele>17</ele>
        <time>2022-05-09T09:25:37.000Z</time>
      </trkpt>
      <trkpt lat="50.41742" lon="3.56084">
        <ele>17</ele>
        <time>2022-05-09T09:25:38.000Z</time>
      </trkpt>
      <trkpt lat="50.41744" lon="3.56077">
        <ele>17.2</ele>
        <time>2022-05-09T09:25:39.000Z</time>
      </trkpt>
      <trkpt lat="50.41746" lon="3.5607">
        <ele>17.4</ele>
        <time>2022-05-09T09:25:40.000Z</time>
      </trkpt>
      <trkpt lat="50.41748" lon="3.56064">
        <ele>17.7</ele>
        <time>2022-05-09T09:25:41.000Z</time>
      </trkpt>
      <trkpt lat="50.4175" lon="3.56057">
        <ele>18</ele>
        <time>2022-05-09T09:25:42.000Z</time>
      </trkpt>
      <trkpt lat="50.41753" lon="3.56047">
        <ele>17.9</ele>
        <time>2022-05-09T09:25:43.912Z</time>
      </trkpt>
      <trkpt lat="50.41755" lon="3.56038">
        <ele>17.8</ele>
        <time>2022-05-09T09:25:45.000Z</time>
      </trkpt>
      <trkpt lat="50.41759" lon="3.56025">
        <ele>17.7</ele>
        <time>2022-05-09T09:25:47.000Z</time>
      </trkpt>
      <trkpt lat="50.41763" lon="3.56013">
        <ele>17.8</ele>
        <time>2022-05-09T09:25:49.000Z</time>
      </trkpt>
      <trkpt lat="50.41766" lon="3.56003">
        <ele>17.9</ele>
        <time>2022-05-09T09:25:51.000Z</time>
      </trkpt>
      <trkpt lat="50.4177" lon="3.55993">
        <ele>18</ele>
        <time>2022-05-09T09:25:53.000Z</time>
      </trkpt>
      <trkpt lat="50.41774" lon="3.55979">
        <ele>18</ele>
        <time>2022-05-09T09:25:55.356Z</time>
      </trkpt>
      <trkpt lat="50.41775" lon="3.55972">
        <ele>18</ele>
        <time>2022-05-09T09:25:56.514Z</time>
      </trkpt>
      <trkpt lat="50.41776" lon="3.55965">
        <ele>18</ele>
        <time>2022-05-09T09:25:57.815Z</time>
      </trkpt>
      <trkpt lat="50.41777" lon="3.55958">
        <ele>18</ele>
        <time>2022-05-09T09:25:59.000Z</time>
      </trkpt>
      <trkpt lat="50.41778" lon="3.55946">
        <ele>18</ele>
        <time>2022-05-09T09:26:01.000Z</time>
      </trkpt>
      <trkpt lat="50.4178" lon="3.55935">
        <ele>18.3</ele>
        <time>2022-05-09T09:26:03.000Z</time>
      </trkpt>
      <trkpt lat="50.41782" lon="3.55921">
        <ele>18.7</ele>
        <time>2022-05-09T09:26:06.000Z</time>
      </trkpt>
      <trkpt lat="50.41784" lon="3.55912">
        <ele>18.8</ele>
        <time>2022-05-09T09:26:08.000Z</time>
      </trkpt>
      <trkpt lat="50.41787" lon="3.55901">
        <ele>18.9</ele>
        <time>2022-05-09T09:26:10.000Z</time>
      </trkpt>
      <trkpt lat="50.4179" lon="3.55892">
        <ele>19</ele>
        <time>2022-05-09T09:26:11.992Z</time>
      </trkpt>
      <trkpt lat="50.41793" lon="3.55884">
        <ele>19</ele>
        <time>2022-05-09T09:26:13.000Z</time>
      </trkpt>
      <trkpt lat="50.41796" lon="3.55876">
        <ele>19</ele>
        <time>2022-05-09T09:26:14.000Z</time>
      </trkpt>
      <trkpt lat="50.41797" lon="3.55868">
        <ele>19</ele>
        <time>2022-05-09T09:26:15.000Z</time>
      </trkpt>
      <trkpt lat="50.41797" lon="3.5586">
        <ele>19</ele>
        <time>2022-05-09T09:26:16.000Z</time>
      </trkpt>
      <trkpt lat="50.41797" lon="3.55853">
        <ele>19</ele>
        <time>2022-05-09T09:26:17.000Z</time>
      </trkpt>
      <trkpt lat="50.41793" lon="3.55844">
        <ele>19</ele>
        <time>2022-05-09T09:26:19.117Z</time>
      </trkpt>
      <trkpt lat="50.41783" lon="3.55845">
        <ele>19</ele>
        <time>2022-05-09T09:26:21.000Z</time>
      </trkpt>
      <trkpt lat="50.41778" lon="3.55845">
        <ele>19</ele>
        <time>2022-05-09T09:26:22.000Z</time>
      </trkpt>
      <trkpt lat="50.41774" lon="3.55847">
        <ele>18.9</ele>
        <time>2022-05-09T09:26:23.000Z</time>
      </trkpt>
      <trkpt lat="50.41768" lon="3.55848">
        <ele>18.8</ele>
        <time>2022-05-09T09:26:24.000Z</time>
      </trkpt>
      <trkpt lat="50.41763" lon="3.55847">
        <ele>18.7</ele>
        <time>2022-05-09T09:26:25.000Z</time>
      </trkpt>
      <trkpt lat="50.41754" lon="3.55848">
        <ele>18.6</ele>
        <time>2022-05-09T09:26:27.000Z</time>
      </trkpt>
      <trkpt lat="50.41749" lon="3.55848">
        <ele>18.5</ele>
        <time>2022-05-09T09:26:28.000Z</time>
      </trkpt>
      <trkpt lat="50.41742" lon="3.55846">
        <ele>18.6</ele>
        <time>2022-05-09T09:26:30.000Z</time>
      </trkpt>
      <trkpt lat="50.41735" lon="3.55845">
        <ele>18.8</ele>
        <time>2022-05-09T09:26:32.180Z</time>
      </trkpt>
      <trkpt lat="50.41728" lon="3.55848">
        <ele>18.9</ele>
        <time>2022-05-09T09:26:33.635Z</time>
      </trkpt>
      <trkpt lat="50.41723" lon="3.55848">
        <ele>19</ele>
        <time>2022-05-09T09:26:35.000Z</time>
      </trkpt>
      <trkpt lat="50.41715" lon="3.55846">
        <ele>19.3</ele>
        <time>2022-05-09T09:26:37.000Z</time>
      </trkpt>
      <trkpt lat="50.41708" lon="3.55846">
        <ele>19.5</ele>
        <time>2022-05-09T09:26:39.176Z</time>
      </trkpt>
      <trkpt lat="50.417" lon="3.55848">
        <ele>19.8</ele>
        <time>2022-05-09T09:26:41.557Z</time>
      </trkpt>
      <trkpt lat="50.41692" lon="3.55849">
        <ele>20</ele>
        <time>2022-05-09T09:26:44.000Z</time>
      </trkpt>
      <trkpt lat="50.41685" lon="3.55849">
        <ele>20</ele>
        <time>2022-05-09T09:26:46.000Z</time>
      </trkpt>
      <trkpt lat="50.41678" lon="3.55849">
        <ele>20</ele>
        <time>2022-05-09T09:26:48.000Z</time>
      </trkpt>
      <trkpt lat="50.41672" lon="3.5585">
        <ele>20</ele>
        <time>2022-05-09T09:26:50.000Z</time>
      </trkpt>
      <trkpt lat="50.41661" lon="3.55851">
        <ele>20.2</ele>
        <time>2022-05-09T09:26:52.934Z</time>
      </trkpt>
      <trkpt lat="50.41653" lon="3.5585">
        <ele>20.5</ele>
        <time>2022-05-09T09:26:55.000Z</time>
      </trkpt>
      <trkpt lat="50.41646" lon="3.55851">
        <ele>20.7</ele>
        <time>2022-05-09T09:26:57.000Z</time>
      </trkpt>
      <trkpt lat="50.41639" lon="3.55848">
        <ele>21</ele>
        <time>2022-05-09T09:26:59.000Z</time>
      </trkpt>
      <trkpt lat="50.41633" lon="3.55844">
        <ele>21.2</ele>
        <time>2022-05-09T09:27:02.000Z</time>
      </trkpt>
      <trkpt lat="50.41628" lon="3.55832">
        <ele>21.4</ele>
        <time>2022-05-09T09:27:03.995Z</time>
      </trkpt>
      <trkpt lat="50.41626" lon="3.55825">
        <ele>21.5</ele>
        <time>2022-05-09T09:27:05.000Z</time>
      </trkpt>
      <trkpt lat="50.41621" lon="3.55815">
        <ele>21.6</ele>
        <time>2022-05-09T09:27:07.055Z</time>
      </trkpt>
      <trkpt lat="50.41615" lon="3.55803">
        <ele>21.8</ele>
        <time>2022-05-09T09:27:10.000Z</time>
      </trkpt>
      <trkpt lat="50.41612" lon="3.55791">
        <ele>21.9</ele>
        <time>2022-05-09T09:27:12.000Z</time>
      </trkpt>
      <trkpt lat="50.41608" lon="3.55779">
        <ele>22</ele>
        <time>2022-05-09T09:27:14.073Z</time>
      </trkpt>
      <trkpt lat="50.41604" lon="3.55772">
        <ele>21.8</ele>
        <time>2022-05-09T09:27:16.000Z</time>
      </trkpt>
      <trkpt lat="50.416" lon="3.55765">
        <ele>21.7</ele>
        <time>2022-05-09T09:27:18.000Z</time>
      </trkpt>
      <trkpt lat="50.41597" lon="3.55756">
        <ele>21.6</ele>
        <time>2022-05-09T09:27:20.000Z</time>
      </trkpt>
      <trkpt lat="50.41595" lon="3.55749">
        <ele>21.6</ele>
        <time>2022-05-09T09:27:20.998Z</time>
      </trkpt>
      <trkpt lat="50.41591" lon="3.55739">
        <ele>21.7</ele>
        <time>2022-05-09T09:27:23.000Z</time>
      </trkpt>
      <trkpt lat="50.41587" lon="3.5573">
        <ele>21.9</ele>
        <time>2022-05-09T09:27:25.160Z</time>
      </trkpt>
      <trkpt lat="50.41584" lon="3.55721">
        <ele>21.9</ele>
        <time>2022-05-09T09:27:26.639Z</time>
      </trkpt>
      <trkpt lat="50.41582" lon="3.55714">
        <ele>21.7</ele>
        <time>2022-05-09T09:27:28.000Z</time>
      </trkpt>
      <trkpt lat="50.41577" lon="3.55697">
        <ele>21.3</ele>
        <time>2022-05-09T09:27:30.000Z</time>
      </trkpt>
      <trkpt lat="50.41574" lon="3.55689">
        <ele>21.3</ele>
        <time>2022-05-09T09:27:32.000Z</time>
      </trkpt>
      <trkpt lat="50.4157" lon="3.55677">
        <ele>21.5</ele>
        <time>2022-05-09T09:27:34.000Z</time>
      </trkpt>
      <trkpt lat="50.41567" lon="3.55671">
        <ele>21.6</ele>
        <time>2022-05-09T09:27:35.000Z</time>
      </trkpt>
      <trkpt lat="50.41562" lon="3.55659">
        <ele>21.5</ele>
        <time>2022-05-09T09:27:37.276Z</time>
      </trkpt>
      <trkpt lat="50.41559" lon="3.55651">
        <ele>21.3</ele>
        <time>2022-05-09T09:27:38.582Z</time>
      </trkpt>
      <trkpt lat="50.41553" lon="3.55634">
        <ele>21.1</ele>
        <time>2022-05-09T09:27:41.073Z</time>
      </trkpt>
      <trkpt lat="50.41549" lon="3.55625">
        <ele>21.3</ele>
        <time>2022-05-09T09:27:43.000Z</time>
      </trkpt>
      <trkpt lat="50.41549" lon="3.55616">
        <ele>21.2</ele>
        <time>2022-05-09T09:27:45.396Z</time>
      </trkpt>
      <trkpt lat="50.41553" lon="3.55607">
        <ele>21.1</ele>
        <time>2022-05-09T09:27:47.000Z</time>
      </trkpt>
      <trkpt lat="50.41559" lon="3.55602">
        <ele>20.9</ele>
        <time>2022-05-09T09:27:48.000Z</time>
      </trkpt>
      <trkpt lat="50.41562" lon="3.55596">
        <ele>20.8</ele>
        <time>2022-05-09T09:27:49.000Z</time>
      </trkpt>
      <trkpt lat="50.41566" lon="3.5559">
        <ele>20.6</ele>
        <time>2022-05-09T09:27:50.000Z</time>
      </trkpt>
      <trkpt lat="50.4157" lon="3.55585">
        <ele>20.5</ele>
        <time>2022-05-09T09:27:51.000Z</time>
      </trkpt>
      <trkpt lat="50.41575" lon="3.55579">
        <ele>20.2</ele>
        <time>2022-05-09T09:27:52.000Z</time>
      </trkpt>
      <trkpt lat="50.41581" lon="3.55571">
        <ele>19.6</ele>
        <time>2022-05-09T09:27:53.000Z</time>
      </trkpt>
      <trkpt lat="50.41585" lon="3.55565">
        <ele>19.3</ele>
        <time>2022-05-09T09:27:54.000Z</time>
      </trkpt>
      <trkpt lat="50.41589" lon="3.55558">
        <ele>19.1</ele>
        <time>2022-05-09T09:27:55.000Z</time>
      </trkpt>
      <trkpt lat="50.41595" lon="3.55552">
        <ele>19</ele>
        <time>2022-05-09T09:27:56.000Z</time>
      </trkpt>
      <trkpt lat="50.416" lon="3.55544">
        <ele>19</ele>
        <time>2022-05-09T09:27:57.000Z</time>
      </trkpt>
      <trkpt lat="50.41605" lon="3.55536">
        <ele>19</ele>
        <time>2022-05-09T09:27:58.000Z</time>
      </trkpt>
      <trkpt lat="50.41609" lon="3.55531">
        <ele>19</ele>
        <time>2022-05-09T09:27:58.913Z</time>
      </trkpt>
      <trkpt lat="50.41615" lon="3.55522">
        <ele>18.7</ele>
        <time>2022-05-09T09:28:00.000Z</time>
      </trkpt>
      <trkpt lat="50.4162" lon="3.55515">
        <ele>18.4</ele>
        <time>2022-05-09T09:28:01.000Z</time>
      </trkpt>
      <trkpt lat="50.41625" lon="3.55507">
        <ele>18.1</ele>
        <time>2022-05-09T09:28:02.000Z</time>
      </trkpt>
      <trkpt lat="50.4163" lon="3.555">
        <ele>18</ele>
        <time>2022-05-09T09:28:03.000Z</time>
      </trkpt>
      <trkpt lat="50.41634" lon="3.55493">
        <ele>18</ele>
        <time>2022-05-09T09:28:04.000Z</time>
      </trkpt>
      <trkpt lat="50.4164" lon="3.55485">
        <ele>18</ele>
        <time>2022-05-09T09:28:05.000Z</time>
      </trkpt>
      <trkpt lat="50.41645" lon="3.55478">
        <ele>18</ele>
        <time>2022-05-09T09:28:06.000Z</time>
      </trkpt>
      <trkpt lat="50.41648" lon="3.55474">
        <ele>18</ele>
        <time>2022-05-09T09:28:06.967Z</time>
      </trkpt>
      <trkpt lat="50.41655" lon="3.55464">
        <ele>18</ele>
        <time>2022-05-09T09:28:08.000Z</time>
      </trkpt>
      <trkpt lat="50.41659" lon="3.55456">
        <ele>18</ele>
        <time>2022-05-09T09:28:09.000Z</time>
      </trkpt>
      <trkpt lat="50.41664" lon="3.55449">
        <ele>18</ele>
        <time>2022-05-09T09:28:10.000Z</time>
      </trkpt>
      <trkpt lat="50.41669" lon="3.55443">
        <ele>18</ele>
        <time>2022-05-09T09:28:11.000Z</time>
      </trkpt>
      <trkpt lat="50.41674" lon="3.55436">
        <ele>18</ele>
        <time>2022-05-09T09:28:12.000Z</time>
      </trkpt>
      <trkpt lat="50.41678" lon="3.55429">
        <ele>18</ele>
        <time>2022-05-09T09:28:13.000Z</time>
      </trkpt>
      <trkpt lat="50.41683" lon="3.55424">
        <ele>18</ele>
        <time>2022-05-09T09:28:14.000Z</time>
      </trkpt>
      <trkpt lat="50.41687" lon="3.55418">
        <ele>18</ele>
        <time>2022-05-09T09:28:15.000Z</time>
      </trkpt>
      <trkpt lat="50.41691" lon="3.55412">
        <ele>18</ele>
        <time>2022-05-09T09:28:16.000Z</time>
      </trkpt>
      <trkpt lat="50.41695" lon="3.55407">
        <ele>18</ele>
        <time>2022-05-09T09:28:17.000Z</time>
      </trkpt>
      <trkpt lat="50.41699" lon="3.55401">
        <ele>18.2</ele>
        <time>2022-05-09T09:28:18.000Z</time>
      </trkpt>
      <trkpt lat="50.41703" lon="3.55396">
        <ele>18.3</ele>
        <time>2022-05-09T09:28:19.000Z</time>
      </trkpt>
      <trkpt lat="50.41707" lon="3.5539">
        <ele>18.4</ele>
        <time>2022-05-09T09:28:20.000Z</time>
      </trkpt>
      <trkpt lat="50.4171" lon="3.55385">
        <ele>18.6</ele>
        <time>2022-05-09T09:28:21.000Z</time>
      </trkpt>
      <trkpt lat="50.41714" lon="3.55379">
        <ele>18.7</ele>
        <time>2022-05-09T09:28:22.000Z</time>
      </trkpt>
      <trkpt lat="50.41718" lon="3.55374">
        <ele>18.8</ele>
        <time>2022-05-09T09:28:23.000Z</time>
      </trkpt>
      <trkpt lat="50.41724" lon="3.55364">
        <ele>19.1</ele>
        <time>2022-05-09T09:28:25.000Z</time>
      </trkpt>
      <trkpt lat="50.41727" lon="3.55359">
        <ele>19.2</ele>
        <time>2022-05-09T09:28:26.000Z</time>
      </trkpt>
      <trkpt lat="50.41732" lon="3.55352">
        <ele>19.4</ele>
        <time>2022-05-09T09:28:28.000Z</time>
      </trkpt>
      <trkpt lat="50.41738" lon="3.55345">
        <ele>19.6</ele>
        <time>2022-05-09T09:28:30.000Z</time>
      </trkpt>
      <trkpt lat="50.41743" lon="3.55338">
        <ele>19.7</ele>
        <time>2022-05-09T09:28:32.000Z</time>
      </trkpt>
      <trkpt lat="50.41747" lon="3.55331">
        <ele>19.9</ele>
        <time>2022-05-09T09:28:34.000Z</time>
      </trkpt>
      <trkpt lat="50.41751" lon="3.55327">
        <ele>20.1</ele>
        <time>2022-05-09T09:28:36.000Z</time>
      </trkpt>
      <trkpt lat="50.41757" lon="3.55318">
        <ele>20.5</ele>
        <time>2022-05-09T09:28:40.042Z</time>
      </trkpt>
      <trkpt lat="50.41761" lon="3.55312">
        <ele>20.8</ele>
        <time>2022-05-09T09:28:42.000Z</time>
      </trkpt>
      <trkpt lat="50.41764" lon="3.55306">
        <ele>21</ele>
        <time>2022-05-09T09:28:44.000Z</time>
      </trkpt>
      <trkpt lat="50.41769" lon="3.553">
        <ele>21.5</ele>
        <time>2022-05-09T09:28:46.582Z</time>
      </trkpt>
      <trkpt lat="50.41774" lon="3.55294">
        <ele>21.8</ele>
        <time>2022-05-09T09:28:49.000Z</time>
      </trkpt>
      <trkpt lat="50.41779" lon="3.55287">
        <ele>22</ele>
        <time>2022-05-09T09:28:51.000Z</time>
      </trkpt>
      <trkpt lat="50.41785" lon="3.55281">
        <ele>22.2</ele>
        <time>2022-05-09T09:28:53.000Z</time>
      </trkpt>
      <trkpt lat="50.41789" lon="3.55274">
        <ele>22.4</ele>
        <time>2022-05-09T09:28:55.000Z</time>
      </trkpt>
      <trkpt lat="50.41794" lon="3.55266">
        <ele>22.6</ele>
        <time>2022-05-09T09:28:57.000Z</time>
      </trkpt>
      <trkpt lat="50.41799" lon="3.55261">
        <ele>22.8</ele>
        <time>2022-05-09T09:28:59.000Z</time>
      </trkpt>
      <trkpt lat="50.41804" lon="3.55256">
        <ele>22.9</ele>
        <time>2022-05-09T09:29:01.000Z</time>
      </trkpt>
      <trkpt lat="50.41808" lon="3.5525">
        <ele>23</ele>
        <time>2022-05-09T09:29:03.000Z</time>
      </trkpt>
      <trkpt lat="50.41811" lon="3.55245">
        <ele>23</ele>
        <time>2022-05-09T09:29:05.000Z</time>
      </trkpt>
      <trkpt lat="50.41815" lon="3.55238">
        <ele>23.1</ele>
        <time>2022-05-09T09:29:07.000Z</time>
      </trkpt>
      <trkpt lat="50.41821" lon="3.5523">
        <ele>23.4</ele>
        <time>2022-05-09T09:29:10.000Z</time>
      </trkpt>
      <trkpt lat="50.41826" lon="3.55225">
        <ele>23.7</ele>
        <time>2022-05-09T09:29:12.000Z</time>
      </trkpt>
      <trkpt lat="50.41832" lon="3.55218">
        <ele>24</ele>
        <time>2022-05-09T09:29:15.000Z</time>
      </trkpt>
      <trkpt lat="50.41836" lon="3.55212">
        <ele>24</ele>
        <time>2022-05-09T09:29:17.000Z</time>
      </trkpt>
      <trkpt lat="50.4184" lon="3.55206">
        <ele>24</ele>
        <time>2022-05-09T09:29:19.000Z</time>
      </trkpt>
      <trkpt lat="50.41843" lon="3.552">
        <ele>24</ele>
        <time>2022-05-09T09:29:21.000Z</time>
      </trkpt>
      <trkpt lat="50.41847" lon="3.55195">
        <ele>24</ele>
        <time>2022-05-09T09:29:23.000Z</time>
      </trkpt>
      <trkpt lat="50.41852" lon="3.55189">
        <ele>24.2</ele>
        <time>2022-05-09T09:29:25.000Z</time>
      </trkpt>
      <trkpt lat="50.41856" lon="3.55182">
        <ele>24.5</ele>
        <time>2022-05-09T09:29:27.000Z</time>
      </trkpt>
      <trkpt lat="50.41859" lon="3.55176">
        <ele>24.7</ele>
        <time>2022-05-09T09:29:28.927Z</time>
      </trkpt>
      <trkpt lat="50.41864" lon="3.55169">
        <ele>24.9</ele>
        <time>2022-05-09T09:29:31.000Z</time>
      </trkpt>
      <trkpt lat="50.41868" lon="3.55163">
        <ele>25.1</ele>
        <time>2022-05-09T09:29:33.000Z</time>
      </trkpt>
      <trkpt lat="50.41872" lon="3.55156">
        <ele>25.2</ele>
        <time>2022-05-09T09:29:35.000Z</time>
      </trkpt>
      <trkpt lat="50.41877" lon="3.55151">
        <ele>25.3</ele>
        <time>2022-05-09T09:29:37.000Z</time>
      </trkpt>
      <trkpt lat="50.41884" lon="3.55141">
        <ele>25.2</ele>
        <time>2022-05-09T09:29:40.000Z</time>
      </trkpt>
      <trkpt lat="50.4189" lon="3.55133">
        <ele>25.2</ele>
        <time>2022-05-09T09:29:42.641Z</time>
      </trkpt>
      <trkpt lat="50.41894" lon="3.55127">
        <ele>25.4</ele>
        <time>2022-05-09T09:29:45.000Z</time>
      </trkpt>
      <trkpt lat="50.41895" lon="3.5512">
        <ele>25.7</ele>
        <time>2022-05-09T09:29:47.059Z</time>
      </trkpt>
      <trkpt lat="50.41892" lon="3.55113">
        <ele>25.9</ele>
        <time>2022-05-09T09:29:48.975Z</time>
      </trkpt>
      <trkpt lat="50.41888" lon="3.55106">
        <ele>26.2</ele>
        <time>2022-05-09T09:29:51.000Z</time>
      </trkpt>
      <trkpt lat="50.41886" lon="3.55096">
        <ele>26.7</ele>
        <time>2022-05-09T09:29:53.000Z</time>
      </trkpt>
      <trkpt lat="50.41885" lon="3.55085">
        <ele>27.1</ele>
        <time>2022-05-09T09:29:55.078Z</time>
      </trkpt>
      <trkpt lat="50.41884" lon="3.55077">
        <ele>27.3</ele>
        <time>2022-05-09T09:29:56.920Z</time>
      </trkpt>
      <trkpt lat="50.41883" lon="3.5507">
        <ele>27.4</ele>
        <time>2022-05-09T09:29:58.000Z</time>
      </trkpt>
      <trkpt lat="50.41881" lon="3.55058">
        <ele>27.8</ele>
        <time>2022-05-09T09:30:00.321Z</time>
      </trkpt>
      <trkpt lat="50.4188" lon="3.5505">
        <ele>28.2</ele>
        <time>2022-05-09T09:30:01.803Z</time>
      </trkpt>
      <trkpt lat="50.41877" lon="3.55039">
        <ele>28.9</ele>
        <time>2022-05-09T09:30:04.000Z</time>
      </trkpt>
      <trkpt lat="50.41876" lon="3.55029">
        <ele>29.4</ele>
        <time>2022-05-09T09:30:06.000Z</time>
      </trkpt>
      <trkpt lat="50.41875" lon="3.55019">
        <ele>29.4</ele>
        <time>2022-05-09T09:30:07.942Z</time>
      </trkpt>
      <trkpt lat="50.41872" lon="3.55006">
        <ele>29.5</ele>
        <time>2022-05-09T09:30:10.762Z</time>
      </trkpt>
      <trkpt lat="50.41872" lon="3.54997">
        <ele>29.4</ele>
        <time>2022-05-09T09:30:13.000Z</time>
      </trkpt>
      <trkpt lat="50.41871" lon="3.54989">
        <ele>29.4</ele>
        <time>2022-05-09T09:30:14.939Z</time>
      </trkpt>
      <trkpt lat="50.41869" lon="3.5498">
        <ele>29.3</ele>
        <time>2022-05-09T09:30:17.000Z</time>
      </trkpt>
      <trkpt lat="50.41868" lon="3.54969">
        <ele>29.1</ele>
        <time>2022-05-09T09:30:19.000Z</time>
      </trkpt>
      <trkpt lat="50.41868" lon="3.54961">
        <ele>29</ele>
        <time>2022-05-09T09:30:20.000Z</time>
      </trkpt>
      <trkpt lat="50.41867" lon="3.5495">
        <ele>28.8</ele>
        <time>2022-05-09T09:30:22.703Z</time>
      </trkpt>
      <trkpt lat="50.41866" lon="3.54939">
        <ele>28.5</ele>
        <time>2022-05-09T09:30:25.000Z</time>
      </trkpt>
      <trkpt lat="50.41865" lon="3.54932">
        <ele>28.3</ele>
        <time>2022-05-09T09:30:26.000Z</time>
      </trkpt>
      <trkpt lat="50.41865" lon="3.54924">
        <ele>28.1</ele>
        <time>2022-05-09T09:30:27.998Z</time>
      </trkpt>
      <trkpt lat="50.41863" lon="3.54911">
        <ele>27.9</ele>
        <time>2022-05-09T09:30:30.678Z</time>
      </trkpt>
      <trkpt lat="50.41863" lon="3.54904">
        <ele>27.9</ele>
        <time>2022-05-09T09:30:32.000Z</time>
      </trkpt>
      <trkpt lat="50.41861" lon="3.54893">
        <ele>28.1</ele>
        <time>2022-05-09T09:30:35.000Z</time>
      </trkpt>
      <trkpt lat="50.41859" lon="3.54885">
        <ele>28.2</ele>
        <time>2022-05-09T09:30:37.000Z</time>
      </trkpt>
      <trkpt lat="50.41857" lon="3.54878">
        <ele>28.2</ele>
        <time>2022-05-09T09:30:38.000Z</time>
      </trkpt>
      <trkpt lat="50.41856" lon="3.54871">
        <ele>28.2</ele>
        <time>2022-05-09T09:30:40.081Z</time>
      </trkpt>
      <trkpt lat="50.41855" lon="3.54862">
        <ele>28.2</ele>
        <time>2022-05-09T09:30:42.000Z</time>
      </trkpt>
      <trkpt lat="50.41853" lon="3.54852">
        <ele>28.3</ele>
        <time>2022-05-09T09:30:44.000Z</time>
      </trkpt>
      <trkpt lat="50.41851" lon="3.54843">
        <ele>28.4</ele>
        <time>2022-05-09T09:30:47.000Z</time>
      </trkpt>
      <trkpt lat="50.41849" lon="3.54836">
        <ele>28.4</ele>
        <time>2022-05-09T09:30:49.001Z</time>
      </trkpt>
      <trkpt lat="50.41848" lon="3.54823">
        <ele>28.7</ele>
        <time>2022-05-09T09:30:51.000Z</time>
      </trkpt>
      <trkpt lat="50.41847" lon="3.54814">
        <ele>28.9</ele>
        <time>2022-05-09T09:30:53.078Z</time>
      </trkpt>
      <trkpt lat="50.41846" lon="3.54805">
        <ele>29.1</ele>
        <time>2022-05-09T09:30:55.380Z</time>
      </trkpt>
      <trkpt lat="50.41844" lon="3.54793">
        <ele>29.2</ele>
        <time>2022-05-09T09:30:58.000Z</time>
      </trkpt>
      <trkpt lat="50.41843" lon="3.54785">
        <ele>29.3</ele>
        <time>2022-05-09T09:31:00.000Z</time>
      </trkpt>
      <trkpt lat="50.41842" lon="3.54772">
        <ele>29.3</ele>
        <time>2022-05-09T09:31:03.000Z</time>
      </trkpt>
      <trkpt lat="50.4184" lon="3.54764">
        <ele>29.4</ele>
        <time>2022-05-09T09:31:05.000Z</time>
      </trkpt>
      <trkpt lat="50.41838" lon="3.54755">
        <ele>29.5</ele>
        <time>2022-05-09T09:31:07.000Z</time>
      </trkpt>
      <trkpt lat="50.41836" lon="3.54744">
        <ele>29.9</ele>
        <time>2022-05-09T09:31:10.000Z</time>
      </trkpt>
      <trkpt lat="50.41835" lon="3.54736">
        <ele>30.3</ele>
        <time>2022-05-09T09:31:11.958Z</time>
      </trkpt>
      <trkpt lat="50.41835" lon="3.54718">
        <ele>30.8</ele>
        <time>2022-05-09T09:31:16.000Z</time>
      </trkpt>
      <trkpt lat="50.41834" lon="3.5471">
        <ele>31</ele>
        <time>2022-05-09T09:31:18.000Z</time>
      </trkpt>
      <trkpt lat="50.41833" lon="3.54699">
        <ele>31.1</ele>
        <time>2022-05-09T09:31:20.000Z</time>
      </trkpt>
      <trkpt lat="50.41831" lon="3.54689">
        <ele>31.3</ele>
        <time>2022-05-09T09:31:22.000Z</time>
      </trkpt>
      <trkpt lat="50.41829" lon="3.54678">
        <ele>31.5</ele>
        <time>2022-05-09T09:31:24.000Z</time>
      </trkpt>
      <trkpt lat="50.41828" lon="3.54666">
        <ele>31.5</ele>
        <time>2022-05-09T09:31:27.000Z</time>
      </trkpt>
      <trkpt lat="50.41826" lon="3.54657">
        <ele>31.4</ele>
        <time>2022-05-09T09:31:29.000Z</time>
      </trkpt>
      <trkpt lat="50.41824" lon="3.54646">
        <ele>31.2</ele>
        <time>2022-05-09T09:31:32.000Z</time>
      </trkpt>
      <trkpt lat="50.41823" lon="3.54638">
        <ele>31.2</ele>
        <time>2022-05-09T09:31:34.000Z</time>
      </trkpt>
      <trkpt lat="50.41822" lon="3.5463">
        <ele>31.3</ele>
        <time>2022-05-09T09:31:36.000Z</time>
      </trkpt>
      <trkpt lat="50.41824" lon="3.5462">
        <ele>31.2</ele>
        <time>2022-05-09T09:31:38.000Z</time>
      </trkpt>
      <trkpt lat="50.41825" lon="3.54613">
        <ele>31.3</ele>
        <time>2022-05-09T09:31:38.920Z</time>
      </trkpt>
      <trkpt lat="50.41829" lon="3.54603">
        <ele>31.1</ele>
        <time>2022-05-09T09:31:41.163Z</time>
      </trkpt>
      <trkpt lat="50.41831" lon="3.54595">
        <ele>31</ele>
        <time>2022-05-09T09:31:43.000Z</time>
      </trkpt>
      <trkpt lat="50.41836" lon="3.54584">
        <ele>30.9</ele>
        <time>2022-05-09T09:31:46.000Z</time>
      </trkpt>
      <trkpt lat="50.4184" lon="3.54577">
        <ele>30.8</ele>
        <time>2022-05-09T09:31:48.000Z</time>
      </trkpt>
      <trkpt lat="50.41843" lon="3.5457">
        <ele>30.7</ele>
        <time>2022-05-09T09:31:49.000Z</time>
      </trkpt>
      <trkpt lat="50.41846" lon="3.5456">
        <ele>30.5</ele>
        <time>2022-05-09T09:31:51.780Z</time>
      </trkpt>
      <trkpt lat="50.41851" lon="3.5455">
        <ele>30.5</ele>
        <time>2022-05-09T09:31:53.959Z</time>
      </trkpt>
      <trkpt lat="50.41853" lon="3.5454">
        <ele>30.7</ele>
        <time>2022-05-09T09:31:55.945Z</time>
      </trkpt>
      <trkpt lat="50.41857" lon="3.5453">
        <ele>30.9</ele>
        <time>2022-05-09T09:31:58.000Z</time>
      </trkpt>
      <trkpt lat="50.4186" lon="3.54518">
        <ele>31</ele>
        <time>2022-05-09T09:32:00.573Z</time>
      </trkpt>
      <trkpt lat="50.41862" lon="3.54511">
        <ele>31</ele>
        <time>2022-05-09T09:32:02.000Z</time>
      </trkpt>
      <trkpt lat="50.41865" lon="3.54503">
        <ele>31</ele>
        <time>2022-05-09T09:32:04.000Z</time>
      </trkpt>
      <trkpt lat="50.41869" lon="3.54494">
        <ele>31</ele>
        <time>2022-05-09T09:32:06.000Z</time>
      </trkpt>
      <trkpt lat="50.41874" lon="3.54481">
        <ele>31</ele>
        <time>2022-05-09T09:32:09.000Z</time>
      </trkpt>
      <trkpt lat="50.41878" lon="3.54467">
        <ele>31</ele>
        <time>2022-05-09T09:32:12.000Z</time>
      </trkpt>
      <trkpt lat="50.41882" lon="3.54457">
        <ele>31</ele>
        <time>2022-05-09T09:32:14.680Z</time>
      </trkpt>
      <trkpt lat="50.41885" lon="3.54445">
        <ele>31</ele>
        <time>2022-05-09T09:32:17.224Z</time>
      </trkpt>
      <trkpt lat="50.41888" lon="3.54438">
        <ele>31.2</ele>
        <time>2022-05-09T09:32:19.040Z</time>
      </trkpt>
      <trkpt lat="50.41891" lon="3.5443">
        <ele>31.5</ele>
        <time>2022-05-09T09:32:21.022Z</time>
      </trkpt>
      <trkpt lat="50.41894" lon="3.54421">
        <ele>31.7</ele>
        <time>2022-05-09T09:32:23.000Z</time>
      </trkpt>
      <trkpt lat="50.41898" lon="3.54411">
        <ele>31.7</ele>
        <time>2022-05-09T09:32:25.116Z</time>
      </trkpt>
      <trkpt lat="50.41901" lon="3.54402">
        <ele>31.6</ele>
        <time>2022-05-09T09:32:27.000Z</time>
      </trkpt>
      <trkpt lat="50.41904" lon="3.54393">
        <ele>31.5</ele>
        <time>2022-05-09T09:32:29.000Z</time>
      </trkpt>
      <trkpt lat="50.41908" lon="3.54382">
        <ele>31.3</ele>
        <time>2022-05-09T09:32:31.083Z</time>
      </trkpt>
      <trkpt lat="50.41912" lon="3.54372">
        <ele>31.2</ele>
        <time>2022-05-09T09:32:32.142Z</time>
      </trkpt>
      <trkpt lat="50.41915" lon="3.54364">
        <ele>31.1</ele>
        <time>2022-05-09T09:32:34.000Z</time>
      </trkpt>
      <trkpt lat="50.41918" lon="3.54358">
        <ele>31</ele>
        <time>2022-05-09T09:32:35.002Z</time>
      </trkpt>
      <trkpt lat="50.41923" lon="3.5434">
        <ele>31</ele>
        <time>2022-05-09T09:32:37.963Z</time>
      </trkpt>
      <trkpt lat="50.41926" lon="3.54329">
        <ele>31</ele>
        <time>2022-05-09T09:32:40.000Z</time>
      </trkpt>
      <trkpt lat="50.41928" lon="3.54321">
        <ele>31</ele>
        <time>2022-05-09T09:32:41.000Z</time>
      </trkpt>
      <trkpt lat="50.41931" lon="3.54313">
        <ele>31</ele>
        <time>2022-05-09T09:32:43.000Z</time>
      </trkpt>
      <trkpt lat="50.41932" lon="3.54305">
        <ele>31</ele>
        <time>2022-05-09T09:32:44.000Z</time>
      </trkpt>
      <trkpt lat="50.41935" lon="3.54298">
        <ele>31</ele>
        <time>2022-05-09T09:32:45.000Z</time>
      </trkpt>
      <trkpt lat="50.4194" lon="3.54291">
        <ele>31</ele>
        <time>2022-05-09T09:32:46.860Z</time>
      </trkpt>
      <trkpt lat="50.41944" lon="3.54283">
        <ele>31</ele>
        <time>2022-05-09T09:32:48.184Z</time>
      </trkpt>
      <trkpt lat="50.41947" lon="3.54271">
        <ele>30.9</ele>
        <time>2022-05-09T09:32:50.000Z</time>
      </trkpt>
      <trkpt lat="50.4195" lon="3.54265">
        <ele>30.8</ele>
        <time>2022-05-09T09:32:51.000Z</time>
      </trkpt>
      <trkpt lat="50.41954" lon="3.54252">
        <ele>30.7</ele>
        <time>2022-05-09T09:32:53.000Z</time>
      </trkpt>
      <trkpt lat="50.41957" lon="3.54244">
        <ele>30.6</ele>
        <time>2022-05-09T09:32:54.000Z</time>
      </trkpt>
      <trkpt lat="50.41959" lon="3.54237">
        <ele>30.5</ele>
        <time>2022-05-09T09:32:55.000Z</time>
      </trkpt>
      <trkpt lat="50.41961" lon="3.54229">
        <ele>30.4</ele>
        <time>2022-05-09T09:32:56.000Z</time>
      </trkpt>
      <trkpt lat="50.41964" lon="3.5422">
        <ele>30.3</ele>
        <time>2022-05-09T09:32:57.000Z</time>
      </trkpt>
      <trkpt lat="50.41966" lon="3.54213">
        <ele>30.2</ele>
        <time>2022-05-09T09:32:58.000Z</time>
      </trkpt>
      <trkpt lat="50.41968" lon="3.54207">
        <ele>30.2</ele>
        <time>2022-05-09T09:32:59.000Z</time>
      </trkpt>
      <trkpt lat="50.4197" lon="3.542">
        <ele>30.1</ele>
        <time>2022-05-09T09:33:00.000Z</time>
      </trkpt>
      <trkpt lat="50.41973" lon="3.54192">
        <ele>30</ele>
        <time>2022-05-09T09:33:01.000Z</time>
      </trkpt>
      <trkpt lat="50.41975" lon="3.54185">
        <ele>30</ele>
        <time>2022-05-09T09:33:02.000Z</time>
      </trkpt>
      <trkpt lat="50.41978" lon="3.54177">
        <ele>30</ele>
        <time>2022-05-09T09:33:03.000Z</time>
      </trkpt>
      <trkpt lat="50.4198" lon="3.5417">
        <ele>30</ele>
        <time>2022-05-09T09:33:04.000Z</time>
      </trkpt>
      <trkpt lat="50.41982" lon="3.54163">
        <ele>30</ele>
        <time>2022-05-09T09:33:05.000Z</time>
      </trkpt>
      <trkpt lat="50.41983" lon="3.54156">
        <ele>30</ele>
        <time>2022-05-09T09:33:06.000Z</time>
      </trkpt>
      <trkpt lat="50.41984" lon="3.54146">
        <ele>30</ele>
        <time>2022-05-09T09:33:07.000Z</time>
      </trkpt>
      <trkpt lat="50.41984" lon="3.54139">
        <ele>30</ele>
        <time>2022-05-09T09:33:08.000Z</time>
      </trkpt>
      <trkpt lat="50.41984" lon="3.5413">
        <ele>30</ele>
        <time>2022-05-09T09:33:09.000Z</time>
      </trkpt>
      <trkpt lat="50.41985" lon="3.54122">
        <ele>30</ele>
        <time>2022-05-09T09:33:10.000Z</time>
      </trkpt>
      <trkpt lat="50.41986" lon="3.54115">
        <ele>30</ele>
        <time>2022-05-09T09:33:11.000Z</time>
      </trkpt>
      <trkpt lat="50.41987" lon="3.54108">
        <ele>29.9</ele>
        <time>2022-05-09T09:33:12.000Z</time>
      </trkpt>
      <trkpt lat="50.4199" lon="3.54099">
        <ele>29.7</ele>
        <time>2022-05-09T09:33:13.000Z</time>
      </trkpt>
      <trkpt lat="50.41994" lon="3.54086">
        <ele>29.3</ele>
        <time>2022-05-09T09:33:15.000Z</time>
      </trkpt>
      <trkpt lat="50.41998" lon="3.54078">
        <ele>29.1</ele>
        <time>2022-05-09T09:33:16.000Z</time>
      </trkpt>
      <trkpt lat="50.42003" lon="3.54065">
        <ele>29</ele>
        <time>2022-05-09T09:33:18.000Z</time>
      </trkpt>
      <trkpt lat="50.42005" lon="3.54058">
        <ele>29</ele>
        <time>2022-05-09T09:33:19.000Z</time>
      </trkpt>
      <trkpt lat="50.42007" lon="3.54052">
        <ele>29</ele>
        <time>2022-05-09T09:33:20.000Z</time>
      </trkpt>
      <trkpt lat="50.4201" lon="3.54045">
        <ele>29</ele>
        <time>2022-05-09T09:33:21.000Z</time>
      </trkpt>
      <trkpt lat="50.42013" lon="3.54037">
        <ele>29</ele>
        <time>2022-05-09T09:33:22.000Z</time>
      </trkpt>
      <trkpt lat="50.42017" lon="3.54026">
        <ele>29</ele>
        <time>2022-05-09T09:33:24.000Z</time>
      </trkpt>
      <trkpt lat="50.42019" lon="3.54018">
        <ele>29</ele>
        <time>2022-05-09T09:33:25.000Z</time>
      </trkpt>
      <trkpt lat="50.42022" lon="3.54012">
        <ele>29</ele>
        <time>2022-05-09T09:33:26.000Z</time>
      </trkpt>
      <trkpt lat="50.42026" lon="3.54001">
        <ele>29</ele>
        <time>2022-05-09T09:33:28.000Z</time>
      </trkpt>
      <trkpt lat="50.4203" lon="3.53989">
        <ele>29</ele>
        <time>2022-05-09T09:33:30.000Z</time>
      </trkpt>
      <trkpt lat="50.42034" lon="3.53976">
        <ele>29</ele>
        <time>2022-05-09T09:33:32.000Z</time>
      </trkpt>
      <trkpt lat="50.42037" lon="3.53968">
        <ele>29</ele>
        <time>2022-05-09T09:33:34.009Z</time>
      </trkpt>
      <trkpt lat="50.42041" lon="3.53962">
        <ele>28.8</ele>
        <time>2022-05-09T09:33:36.107Z</time>
      </trkpt>
      <trkpt lat="50.42045" lon="3.53946">
        <ele>28.4</ele>
        <time>2022-05-09T09:33:38.000Z</time>
      </trkpt>
      <trkpt lat="50.42048" lon="3.53936">
        <ele>28.3</ele>
        <time>2022-05-09T09:33:39.707Z</time>
      </trkpt>
      <trkpt lat="50.42051" lon="3.53925">
        <ele>28.2</ele>
        <time>2022-05-09T09:33:42.007Z</time>
      </trkpt>
      <trkpt lat="50.42054" lon="3.53918">
        <ele>28.1</ele>
        <time>2022-05-09T09:33:44.000Z</time>
      </trkpt>
      <trkpt lat="50.42058" lon="3.53908">
        <ele>28</ele>
        <time>2022-05-09T09:33:46.000Z</time>
      </trkpt>
      <trkpt lat="50.4206" lon="3.53902">
        <ele>28</ele>
        <time>2022-05-09T09:33:47.107Z</time>
      </trkpt>
      <trkpt lat="50.42063" lon="3.53891">
        <ele>28</ele>
        <time>2022-05-09T09:33:50.000Z</time>
      </trkpt>
      <trkpt lat="50.42065" lon="3.53883">
        <ele>28</ele>
        <time>2022-05-09T09:33:52.105Z</time>
      </trkpt>
      <trkpt lat="50.42068" lon="3.53875">
        <ele>28</ele>
        <time>2022-05-09T09:34:49.000Z</time>
      </trkpt>
      <trkpt lat="50.42069" lon="3.53866">
        <ele>28</ele>
        <time>2022-05-09T09:34:52.930Z</time>
      </trkpt>
      <trkpt lat="50.42072" lon="3.53859">
        <ele>28</ele>
        <time>2022-05-09T09:34:53.986Z</time>
      </trkpt>
      <trkpt lat="50.42075" lon="3.53853">
        <ele>27.8</ele>
        <time>2022-05-09T09:34:56.000Z</time>
      </trkpt>
      <trkpt lat="50.42078" lon="3.53846">
        <ele>27.5</ele>
        <time>2022-05-09T09:35:31.000Z</time>
      </trkpt>
      <trkpt lat="50.4208" lon="3.53839">
        <ele>27.3</ele>
        <time>2022-05-09T09:35:33.000Z</time>
      </trkpt>
      <trkpt lat="50.42083" lon="3.5383">
        <ele>27</ele>
        <time>2022-05-09T09:35:37.000Z</time>
      </trkpt>
      <trkpt lat="50.42085" lon="3.53822">
        <ele>27</ele>
        <time>2022-05-09T09:35:38.686Z</time>
      </trkpt>
      <trkpt lat="50.42088" lon="3.53814">
        <ele>27</ele>
        <time>2022-05-09T09:35:41.000Z</time>
      </trkpt>
      <trkpt lat="50.42092" lon="3.53806">
        <ele>27</ele>
        <time>2022-05-09T09:35:43.989Z</time>
      </trkpt>
      <trkpt lat="50.42096" lon="3.53796">
        <ele>27</ele>
        <time>2022-05-09T09:35:46.909Z</time>
      </trkpt>
      <trkpt lat="50.42099" lon="3.53787">
        <ele>27</ele>
        <time>2022-05-09T09:35:49.088Z</time>
      </trkpt>
      <trkpt lat="50.42101" lon="3.53778">
        <ele>27</ele>
        <time>2022-05-09T09:35:51.825Z</time>
      </trkpt>
      <trkpt lat="50.42104" lon="3.5377">
        <ele>27</ele>
        <time>2022-05-09T09:35:54.000Z</time>
      </trkpt>
      <trkpt lat="50.42107" lon="3.53759">
        <ele>27</ele>
        <time>2022-05-09T09:35:56.229Z</time>
      </trkpt>
      <trkpt lat="50.42111" lon="3.53748">
        <ele>27</ele>
        <time>2022-05-09T09:35:58.448Z</time>
      </trkpt>
      <trkpt lat="50.42113" lon="3.53741">
        <ele>27</ele>
        <time>2022-05-09T09:35:59.748Z</time>
      </trkpt>
      <trkpt lat="50.42117" lon="3.53733">
        <ele>27</ele>
        <time>2022-05-09T09:36:02.005Z</time>
      </trkpt>
      <trkpt lat="50.42119" lon="3.53724">
        <ele>27</ele>
        <time>2022-05-09T09:36:04.228Z</time>
      </trkpt>
      <trkpt lat="50.42121" lon="3.53714">
        <ele>27</ele>
        <time>2022-05-09T09:36:06.448Z</time>
      </trkpt>
      <trkpt lat="50.42122" lon="3.53703">
        <ele>27</ele>
        <time>2022-05-09T09:36:08.607Z</time>
      </trkpt>
      <trkpt lat="50.4212" lon="3.53695">
        <ele>27</ele>
        <time>2022-05-09T09:36:10.000Z</time>
      </trkpt>
      <trkpt lat="50.42117" lon="3.53685">
        <ele>27</ele>
        <time>2022-05-09T09:36:12.000Z</time>
      </trkpt>
      <trkpt lat="50.42113" lon="3.53676">
        <ele>27</ele>
        <time>2022-05-09T09:36:13.929Z</time>
      </trkpt>
      <trkpt lat="50.42108" lon="3.53668">
        <ele>27</ele>
        <time>2022-05-09T09:36:16.247Z</time>
      </trkpt>
      <trkpt lat="50.42103" lon="3.5366">
        <ele>27</ele>
        <time>2022-05-09T09:36:17.525Z</time>
      </trkpt>
      <trkpt lat="50.42096" lon="3.53651">
        <ele>27</ele>
        <time>2022-05-09T09:36:20.000Z</time>
      </trkpt>
      <trkpt lat="50.42091" lon="3.53644">
        <ele>27</ele>
        <time>2022-05-09T09:36:22.112Z</time>
      </trkpt>
      <trkpt lat="50.42086" lon="3.53636">
        <ele>27</ele>
        <time>2022-05-09T09:36:23.705Z</time>
      </trkpt>
      <trkpt lat="50.42082" lon="3.5363">
        <ele>27</ele>
        <time>2022-05-09T09:36:25.000Z</time>
      </trkpt>
      <trkpt lat="50.42078" lon="3.53623">
        <ele>26.8</ele>
        <time>2022-05-09T09:36:26.585Z</time>
      </trkpt>
      <trkpt lat="50.42076" lon="3.53617">
        <ele>26.7</ele>
        <time>2022-05-09T09:36:28.000Z</time>
      </trkpt>
      <trkpt lat="50.42073" lon="3.53612">
        <ele>26.6</ele>
        <time>2022-05-09T09:36:29.000Z</time>
      </trkpt>
      <trkpt lat="50.42069" lon="3.53607">
        <ele>26.5</ele>
        <time>2022-05-09T09:36:30.000Z</time>
      </trkpt>
      <trkpt lat="50.42064" lon="3.53599">
        <ele>26.3</ele>
        <time>2022-05-09T09:36:32.000Z</time>
      </trkpt>
      <trkpt lat="50.42057" lon="3.53587">
        <ele>26.1</ele>
        <time>2022-05-09T09:36:35.000Z</time>
      </trkpt>
      <trkpt lat="50.42051" lon="3.53576">
        <ele>26</ele>
        <time>2022-05-09T09:36:37.000Z</time>
      </trkpt>
      <trkpt lat="50.42045" lon="3.53568">
        <ele>26</ele>
        <time>2022-05-09T09:36:39.000Z</time>
      </trkpt>
      <trkpt lat="50.42042" lon="3.53562">
        <ele>26</ele>
        <time>2022-05-09T09:36:40.000Z</time>
      </trkpt>
      <trkpt lat="50.42036" lon="3.53555">
        <ele>26</ele>
        <time>2022-05-09T09:36:41.986Z</time>
      </trkpt>
      <trkpt lat="50.42033" lon="3.53548">
        <ele>26</ele>
        <time>2022-05-09T09:36:44.009Z</time>
      </trkpt>
      <trkpt lat="50.42026" lon="3.53534">
        <ele>26</ele>
        <time>2022-05-09T09:36:46.000Z</time>
      </trkpt>
      <trkpt lat="50.42023" lon="3.53529">
        <ele>26</ele>
        <time>2022-05-09T09:36:47.087Z</time>
      </trkpt>
      <trkpt lat="50.42018" lon="3.53522">
        <ele>26</ele>
        <time>2022-05-09T09:36:49.000Z</time>
      </trkpt>
      <trkpt lat="50.42015" lon="3.53517">
        <ele>26</ele>
        <time>2022-05-09T09:36:50.000Z</time>
      </trkpt>
      <trkpt lat="50.42008" lon="3.53506">
        <ele>26</ele>
        <time>2022-05-09T09:36:52.849Z</time>
      </trkpt>
      <trkpt lat="50.42" lon="3.53493">
        <ele>26.3</ele>
        <time>2022-05-09T09:36:55.527Z</time>
      </trkpt>
      <trkpt lat="50.41997" lon="3.53485">
        <ele>26.6</ele>
        <time>2022-05-09T09:36:56.906Z</time>
      </trkpt>
      <trkpt lat="50.41993" lon="3.53479">
        <ele>26.8</ele>
        <time>2022-05-09T09:36:58.125Z</time>
      </trkpt>
      <trkpt lat="50.41988" lon="3.53471">
        <ele>27</ele>
        <time>2022-05-09T09:37:00.000Z</time>
      </trkpt>
      <trkpt lat="50.41984" lon="3.53464">
        <ele>27</ele>
        <time>2022-05-09T09:37:01.000Z</time>
      </trkpt>
      <trkpt lat="50.41981" lon="3.53458">
        <ele>27</ele>
        <time>2022-05-09T09:37:02.000Z</time>
      </trkpt>
      <trkpt lat="50.41978" lon="3.53452">
        <ele>27</ele>
        <time>2022-05-09T09:37:03.000Z</time>
      </trkpt>
      <trkpt lat="50.41973" lon="3.53445">
        <ele>27</ele>
        <time>2022-05-09T09:37:04.000Z</time>
      </trkpt>
      <trkpt lat="50.4197" lon="3.53438">
        <ele>27.3</ele>
        <time>2022-05-09T09:37:05.000Z</time>
      </trkpt>
      <trkpt lat="50.41968" lon="3.53432">
        <ele>27.5</ele>
        <time>2022-05-09T09:37:06.000Z</time>
      </trkpt>
      <trkpt lat="50.41966" lon="3.53425">
        <ele>27.7</ele>
        <time>2022-05-09T09:37:07.000Z</time>
      </trkpt>
      <trkpt lat="50.41966" lon="3.53417">
        <ele>27.7</ele>
        <time>2022-05-09T09:37:08.000Z</time>
      </trkpt>
      <trkpt lat="50.41967" lon="3.53408">
        <ele>27.5</ele>
        <time>2022-05-09T09:37:09.000Z</time>
      </trkpt>
      <trkpt lat="50.4197" lon="3.53394">
        <ele>27.1</ele>
        <time>2022-05-09T09:37:11.000Z</time>
      </trkpt>
      <trkpt lat="50.41972" lon="3.53384">
        <ele>27</ele>
        <time>2022-05-09T09:37:13.000Z</time>
      </trkpt>
      <trkpt lat="50.41974" lon="3.53376">
        <ele>27</ele>
        <time>2022-05-09T09:37:14.000Z</time>
      </trkpt>
      <trkpt lat="50.41977" lon="3.53366">
        <ele>26.9</ele>
        <time>2022-05-09T09:37:16.000Z</time>
      </trkpt>
      <trkpt lat="50.41978" lon="3.53358">
        <ele>26.7</ele>
        <time>2022-05-09T09:37:17.000Z</time>
      </trkpt>
      <trkpt lat="50.4198" lon="3.53349">
        <ele>26.4</ele>
        <time>2022-05-09T09:37:19.092Z</time>
      </trkpt>
      <trkpt lat="50.41981" lon="3.53337">
        <ele>26.1</ele>
        <time>2022-05-09T09:37:20.375Z</time>
      </trkpt>
      <trkpt lat="50.41984" lon="3.53323">
        <ele>26</ele>
        <time>2022-05-09T09:37:22.530Z</time>
      </trkpt>
      <trkpt lat="50.41987" lon="3.53309">
        <ele>26</ele>
        <time>2022-05-09T09:37:24.570Z</time>
      </trkpt>
      <trkpt lat="50.41989" lon="3.53299">
        <ele>26.1</ele>
        <time>2022-05-09T09:37:27.000Z</time>
      </trkpt>
      <trkpt lat="50.41991" lon="3.5329">
        <ele>26.2</ele>
        <time>2022-05-09T09:37:28.000Z</time>
      </trkpt>
      <trkpt lat="50.41992" lon="3.53284">
        <ele>26.2</ele>
        <time>2022-05-09T09:37:29.000Z</time>
      </trkpt>
      <trkpt lat="50.41993" lon="3.53275">
        <ele>26.3</ele>
        <time>2022-05-09T09:37:31.230Z</time>
      </trkpt>
      <trkpt lat="50.41995" lon="3.53266">
        <ele>26.5</ele>
        <time>2022-05-09T09:37:32.493Z</time>
      </trkpt>
      <trkpt lat="50.41997" lon="3.53253">
        <ele>26.9</ele>
        <time>2022-05-09T09:37:35.000Z</time>
      </trkpt>
      <trkpt lat="50.41998" lon="3.53245">
        <ele>27</ele>
        <time>2022-05-09T09:37:36.000Z</time>
      </trkpt>
      <trkpt lat="50.42" lon="3.53236">
        <ele>27</ele>
        <time>2022-05-09T09:37:38.000Z</time>
      </trkpt>
      <trkpt lat="50.42003" lon="3.53229">
        <ele>26.9</ele>
        <time>2022-05-09T09:37:39.052Z</time>
      </trkpt>
      <trkpt lat="50.42007" lon="3.5321">
        <ele>26.9</ele>
        <time>2022-05-09T09:37:41.954Z</time>
      </trkpt>
      <trkpt lat="50.42008" lon="3.53203">
        <ele>26.9</ele>
        <time>2022-05-09T09:37:43.000Z</time>
      </trkpt>
      <trkpt lat="50.4201" lon="3.53195">
        <ele>27</ele>
        <time>2022-05-09T09:37:44.773Z</time>
      </trkpt>
      <trkpt lat="50.42011" lon="3.53188">
        <ele>27.1</ele>
        <time>2022-05-09T09:37:46.000Z</time>
      </trkpt>
      <trkpt lat="50.42013" lon="3.53174">
        <ele>27.4</ele>
        <time>2022-05-09T09:37:47.933Z</time>
      </trkpt>
      <trkpt lat="50.42014" lon="3.53167">
        <ele>27.5</ele>
        <time>2022-05-09T09:37:49.000Z</time>
      </trkpt>
      <trkpt lat="50.42017" lon="3.53149">
        <ele>27.4</ele>
        <time>2022-05-09T09:37:52.000Z</time>
      </trkpt>
      <trkpt lat="50.42018" lon="3.5314">
        <ele>27.3</ele>
        <time>2022-05-09T09:37:54.000Z</time>
      </trkpt>
      <trkpt lat="50.4202" lon="3.53131">
        <ele>27.3</ele>
        <time>2022-05-09T09:37:55.000Z</time>
      </trkpt>
      <trkpt lat="50.42021" lon="3.53122">
        <ele>27.2</ele>
        <time>2022-05-09T09:37:56.000Z</time>
      </trkpt>
      <trkpt lat="50.42022" lon="3.53113">
        <ele>27.2</ele>
        <time>2022-05-09T09:37:58.169Z</time>
      </trkpt>
      <trkpt lat="50.42024" lon="3.53102">
        <ele>27.1</ele>
        <time>2022-05-09T09:37:59.850Z</time>
      </trkpt>
      <trkpt lat="50.42028" lon="3.53089">
        <ele>27</ele>
        <time>2022-05-09T09:38:02.049Z</time>
      </trkpt>
      <trkpt lat="50.42029" lon="3.53082">
        <ele>26.9</ele>
        <time>2022-05-09T09:38:03.572Z</time>
      </trkpt>
      <trkpt lat="50.4203" lon="3.53074">
        <ele>26.9</ele>
        <time>2022-05-09T09:38:04.513Z</time>
      </trkpt>
      <trkpt lat="50.42032" lon="3.53063">
        <ele>26.9</ele>
        <time>2022-05-09T09:38:06.770Z</time>
      </trkpt>
      <trkpt lat="50.42033" lon="3.53054">
        <ele>26.8</ele>
        <time>2022-05-09T09:38:08.000Z</time>
      </trkpt>
      <trkpt lat="50.42035" lon="3.5305">
        <ele>26.7</ele>
        <time>2022-05-09T09:38:09.068Z</time>
      </trkpt>
      <trkpt lat="50.42038" lon="3.53051">
        <ele>26.6</ele>
        <time>2022-05-09T09:38:10.073Z</time>
      </trkpt>
      <trkpt lat="50.42043" lon="3.53055">
        <ele>26.4</ele>
        <time>2022-05-09T09:38:12.000Z</time>
      </trkpt>
      <trkpt lat="50.42051" lon="3.53063">
        <ele>26.2</ele>
        <time>2022-05-09T09:38:14.693Z</time>
      </trkpt>
      <trkpt lat="50.42057" lon="3.53068">
        <ele>26</ele>
        <time>2022-05-09T09:38:17.000Z</time>
      </trkpt>
      <trkpt lat="50.42064" lon="3.53077">
        <ele>26</ele>
        <time>2022-05-09T09:38:20.112Z</time>
      </trkpt>
      <trkpt lat="50.42069" lon="3.53083">
        <ele>26</ele>
        <time>2022-05-09T09:38:21.910Z</time>
      </trkpt>
      <trkpt lat="50.42076" lon="3.53091">
        <ele>26</ele>
        <time>2022-05-09T09:38:24.090Z</time>
      </trkpt>
      <trkpt lat="50.42085" lon="3.53091">
        <ele>25.9</ele>
        <time>2022-05-09T09:38:27.000Z</time>
      </trkpt>
      <trkpt lat="50.42093" lon="3.53085">
        <ele>25.7</ele>
        <time>2022-05-09T09:38:29.593Z</time>
      </trkpt>
      <trkpt lat="50.42098" lon="3.53078">
        <ele>25.5</ele>
        <time>2022-05-09T09:38:31.832Z</time>
      </trkpt>
      <trkpt lat="50.42103" lon="3.53071">
        <ele>25.3</ele>
        <time>2022-05-09T09:38:33.000Z</time>
      </trkpt>
      <trkpt lat="50.42106" lon="3.53065">
        <ele>25.2</ele>
        <time>2022-05-09T09:38:34.000Z</time>
      </trkpt>
      <trkpt lat="50.42111" lon="3.53063">
        <ele>25</ele>
        <time>2022-05-09T09:38:35.674Z</time>
      </trkpt>
      <trkpt lat="50.42115" lon="3.53058">
        <ele>24.9</ele>
        <time>2022-05-09T09:38:36.830Z</time>
      </trkpt>
      <trkpt lat="50.42122" lon="3.53051">
        <ele>24.6</ele>
        <time>2022-05-09T09:38:39.000Z</time>
      </trkpt>
      <trkpt lat="50.42129" lon="3.53043">
        <ele>24.3</ele>
        <time>2022-05-09T09:38:41.000Z</time>
      </trkpt>
      <trkpt lat="50.42134" lon="3.53037">
        <ele>24.2</ele>
        <time>2022-05-09T09:38:41.992Z</time>
      </trkpt>
      <trkpt lat="50.42142" lon="3.5303">
        <ele>23.9</ele>
        <time>2022-05-09T09:38:44.000Z</time>
      </trkpt>
      <trkpt lat="50.42149" lon="3.53024">
        <ele>23.6</ele>
        <time>2022-05-09T09:38:46.000Z</time>
      </trkpt>
      <trkpt lat="50.42158" lon="3.53017">
        <ele>23.3</ele>
        <time>2022-05-09T09:38:48.000Z</time>
      </trkpt>
      <trkpt lat="50.42162" lon="3.53013">
        <ele>23.2</ele>
        <time>2022-05-09T09:38:49.000Z</time>
      </trkpt>
      <trkpt lat="50.4217" lon="3.53007">
        <ele>23</ele>
        <time>2022-05-09T09:38:51.000Z</time>
      </trkpt>
      <trkpt lat="50.42174" lon="3.53004">
        <ele>23</ele>
        <time>2022-05-09T09:38:52.000Z</time>
      </trkpt>
      <trkpt lat="50.42178" lon="3.53001">
        <ele>23</ele>
        <time>2022-05-09T09:38:53.000Z</time>
      </trkpt>
      <trkpt lat="50.42182" lon="3.52998">
        <ele>23</ele>
        <time>2022-05-09T09:38:54.000Z</time>
      </trkpt>
      <trkpt lat="50.42188" lon="3.52994">
        <ele>23</ele>
        <time>2022-05-09T09:38:55.000Z</time>
      </trkpt>
      <trkpt lat="50.42192" lon="3.5299">
        <ele>23</ele>
        <time>2022-05-09T09:38:56.000Z</time>
      </trkpt>
      <trkpt lat="50.422" lon="3.52985">
        <ele>23</ele>
        <time>2022-05-09T09:38:58.000Z</time>
      </trkpt>
      <trkpt lat="50.42205" lon="3.52981">
        <ele>23</ele>
        <time>2022-05-09T09:38:59.000Z</time>
      </trkpt>
      <trkpt lat="50.42215" lon="3.52976">
        <ele>23</ele>
        <time>2022-05-09T09:39:01.000Z</time>
      </trkpt>
      <trkpt lat="50.4222" lon="3.52974">
        <ele>23</ele>
        <time>2022-05-09T09:39:02.000Z</time>
      </trkpt>
      <trkpt lat="50.42224" lon="3.52971">
        <ele>23</ele>
        <time>2022-05-09T09:39:03.000Z</time>
      </trkpt>
      <trkpt lat="50.42229" lon="3.52969">
        <ele>23</ele>
        <time>2022-05-09T09:39:04.000Z</time>
      </trkpt>
      <trkpt lat="50.42235" lon="3.52967">
        <ele>23</ele>
        <time>2022-05-09T09:39:05.000Z</time>
      </trkpt>
      <trkpt lat="50.42244" lon="3.52963">
        <ele>23</ele>
        <time>2022-05-09T09:39:07.000Z</time>
      </trkpt>
      <trkpt lat="50.4225" lon="3.52961">
        <ele>23</ele>
        <time>2022-05-09T09:39:08.000Z</time>
      </trkpt>
      <trkpt lat="50.42255" lon="3.52959">
        <ele>23</ele>
        <time>2022-05-09T09:39:09.000Z</time>
      </trkpt>
      <trkpt lat="50.4226" lon="3.52958">
        <ele>23</ele>
        <time>2022-05-09T09:39:10.000Z</time>
      </trkpt>
      <trkpt lat="50.42264" lon="3.52956">
        <ele>23</ele>
        <time>2022-05-09T09:39:11.000Z</time>
      </trkpt>
      <trkpt lat="50.42269" lon="3.52955">
        <ele>23</ele>
        <time>2022-05-09T09:39:12.000Z</time>
      </trkpt>
      <trkpt lat="50.42274" lon="3.52955">
        <ele>23</ele>
        <time>2022-05-09T09:39:13.000Z</time>
      </trkpt>
      <trkpt lat="50.42283" lon="3.52954">
        <ele>23</ele>
        <time>2022-05-09T09:39:15.000Z</time>
      </trkpt>
      <trkpt lat="50.42289" lon="3.52953">
        <ele>23</ele>
        <time>2022-05-09T09:39:17.000Z</time>
      </trkpt>
      <trkpt lat="50.42297" lon="3.52951">
        <ele>23</ele>
        <time>2022-05-09T09:39:19.000Z</time>
      </trkpt>
      <trkpt lat="50.42305" lon="3.52951">
        <ele>23</ele>
        <time>2022-05-09T09:39:21.000Z</time>
      </trkpt>
      <trkpt lat="50.42311" lon="3.52949">
        <ele>23</ele>
        <time>2022-05-09T09:39:23.000Z</time>
      </trkpt>
      <trkpt lat="50.42317" lon="3.52947">
        <ele>23</ele>
        <time>2022-05-09T09:39:25.000Z</time>
      </trkpt>
      <trkpt lat="50.42326" lon="3.52947">
        <ele>23</ele>
        <time>2022-05-09T09:39:27.754Z</time>
      </trkpt>
      <trkpt lat="50.42336" lon="3.52946">
        <ele>23</ele>
        <time>2022-05-09T09:39:29.933Z</time>
      </trkpt>
      <trkpt lat="50.42346" lon="3.52944">
        <ele>23</ele>
        <time>2022-05-09T09:39:32.000Z</time>
      </trkpt>
      <trkpt lat="50.42352" lon="3.52944">
        <ele>23</ele>
        <time>2022-05-09T09:39:33.876Z</time>
      </trkpt>
      <trkpt lat="50.42361" lon="3.5295">
        <ele>23</ele>
        <time>2022-05-09T09:39:37.057Z</time>
      </trkpt>
      <trkpt lat="50.42369" lon="3.5295">
        <ele>23</ele>
        <time>2022-05-09T09:39:39.000Z</time>
      </trkpt>
      <trkpt lat="50.42375" lon="3.52951">
        <ele>23</ele>
        <time>2022-05-09T09:39:41.000Z</time>
      </trkpt>
      <trkpt lat="50.42382" lon="3.52948">
        <ele>23</ele>
        <time>2022-05-09T09:39:44.116Z</time>
      </trkpt>
      <trkpt lat="50.42388" lon="3.52941">
        <ele>23</ele>
        <time>2022-05-09T09:39:47.000Z</time>
      </trkpt>
      <trkpt lat="50.42392" lon="3.52931">
        <ele>23</ele>
        <time>2022-05-09T09:39:50.000Z</time>
      </trkpt>
      <trkpt lat="50.42395" lon="3.52925">
        <ele>23</ele>
        <time>2022-05-09T09:39:52.000Z</time>
      </trkpt>
      <trkpt lat="50.42398" lon="3.52918">
        <ele>23</ele>
        <time>2022-05-09T09:39:52.992Z</time>
      </trkpt>
      <trkpt lat="50.42402" lon="3.52908">
        <ele>23</ele>
        <time>2022-05-09T09:39:55.652Z</time>
      </trkpt>
      <trkpt lat="50.42405" lon="3.52901">
        <ele>23</ele>
        <time>2022-05-09T09:39:57.000Z</time>
      </trkpt>
      <trkpt lat="50.42409" lon="3.52892">
        <ele>23</ele>
        <time>2022-05-09T09:39:59.000Z</time>
      </trkpt>
      <trkpt lat="50.42413" lon="3.5288">
        <ele>23</ele>
        <time>2022-05-09T09:40:01.000Z</time>
      </trkpt>
      <trkpt lat="50.42416" lon="3.5287">
        <ele>23</ele>
        <time>2022-05-09T09:40:04.000Z</time>
      </trkpt>
      <trkpt lat="50.42418" lon="3.52863">
        <ele>23</ele>
        <time>2022-05-09T09:40:06.000Z</time>
      </trkpt>
      <trkpt lat="50.4242" lon="3.52857">
        <ele>23</ele>
        <time>2022-05-09T09:40:07.000Z</time>
      </trkpt>
      <trkpt lat="50.42425" lon="3.52846">
        <ele>23</ele>
        <time>2022-05-09T09:40:09.000Z</time>
      </trkpt>
      <trkpt lat="50.42427" lon="3.5284">
        <ele>23</ele>
        <time>2022-05-09T09:40:10.000Z</time>
      </trkpt>
      <trkpt lat="50.42429" lon="3.52833">
        <ele>23</ele>
        <time>2022-05-09T09:40:12.000Z</time>
      </trkpt>
      <trkpt lat="50.42434" lon="3.52821">
        <ele>23</ele>
        <time>2022-05-09T09:40:14.635Z</time>
      </trkpt>
      <trkpt lat="50.42438" lon="3.52809">
        <ele>23</ele>
        <time>2022-05-09T09:40:17.056Z</time>
      </trkpt>
      <trkpt lat="50.42441" lon="3.52799">
        <ele>23</ele>
        <time>2022-05-09T09:40:19.000Z</time>
      </trkpt>
      <trkpt lat="50.42444" lon="3.52789">
        <ele>23</ele>
        <time>2022-05-09T09:40:22.654Z</time>
      </trkpt>
      <trkpt lat="50.42446" lon="3.52782">
        <ele>23.1</ele>
        <time>2022-05-09T09:40:23.912Z</time>
      </trkpt>
      <trkpt lat="50.42448" lon="3.52775">
        <ele>23.2</ele>
        <time>2022-05-09T09:40:25.907Z</time>
      </trkpt>
      <trkpt lat="50.42451" lon="3.52768">
        <ele>23.5</ele>
        <time>2022-05-09T09:40:28.917Z</time>
      </trkpt>
      <trkpt lat="50.42454" lon="3.52757">
        <ele>23.8</ele>
        <time>2022-05-09T09:40:32.000Z</time>
      </trkpt>
      <trkpt lat="50.42457" lon="3.52749">
        <ele>24</ele>
        <time>2022-05-09T09:40:34.555Z</time>
      </trkpt>
      <trkpt lat="50.4246" lon="3.52743">
        <ele>24</ele>
        <time>2022-05-09T09:40:36.872Z</time>
      </trkpt>
      <trkpt lat="50.42463" lon="3.52733">
        <ele>24</ele>
        <time>2022-05-09T09:40:39.135Z</time>
      </trkpt>
      <trkpt lat="50.42465" lon="3.52723">
        <ele>24</ele>
        <time>2022-05-09T09:40:41.732Z</time>
      </trkpt>
      <trkpt lat="50.42468" lon="3.52714">
        <ele>24</ele>
        <time>2022-05-09T09:40:44.000Z</time>
      </trkpt>
      <trkpt lat="50.42471" lon="3.52705">
        <ele>24</ele>
        <time>2022-05-09T09:40:46.000Z</time>
      </trkpt>
      <trkpt lat="50.42473" lon="3.52699">
        <ele>24</ele>
        <time>2022-05-09T09:40:48.000Z</time>
      </trkpt>
      <trkpt lat="50.42478" lon="3.5269">
        <ele>24.3</ele>
        <time>2022-05-09T09:40:50.000Z</time>
      </trkpt>
      <trkpt lat="50.42482" lon="3.52679">
        <ele>24.9</ele>
        <time>2022-05-09T09:40:53.000Z</time>
      </trkpt>
      <trkpt lat="50.42484" lon="3.52671">
        <ele>25.3</ele>
        <time>2022-05-09T09:40:55.000Z</time>
      </trkpt>
      <trkpt lat="50.42488" lon="3.52664">
        <ele>25.6</ele>
        <time>2022-05-09T09:40:56.915Z</time>
      </trkpt>
      <trkpt lat="50.42492" lon="3.52651">
        <ele>25.7</ele>
        <time>2022-05-09T09:40:59.614Z</time>
      </trkpt>
      <trkpt lat="50.42494" lon="3.52645">
        <ele>25.8</ele>
        <time>2022-05-09T09:41:01.017Z</time>
      </trkpt>
      <trkpt lat="50.42498" lon="3.52637">
        <ele>25.9</ele>
        <time>2022-05-09T09:41:03.000Z</time>
      </trkpt>
      <trkpt lat="50.425" lon="3.52628">
        <ele>26</ele>
        <time>2022-05-09T09:41:05.000Z</time>
      </trkpt>
      <trkpt lat="50.42502" lon="3.52617">
        <ele>26.1</ele>
        <time>2022-05-09T09:41:08.593Z</time>
      </trkpt>
      <trkpt lat="50.42506" lon="3.52608">
        <ele>26.5</ele>
        <time>2022-05-09T09:41:11.053Z</time>
      </trkpt>
      <trkpt lat="50.42509" lon="3.52601">
        <ele>26.9</ele>
        <time>2022-05-09T09:41:13.972Z</time>
      </trkpt>
      <trkpt lat="50.42512" lon="3.52592">
        <ele>27.3</ele>
        <time>2022-05-09T09:41:15.893Z</time>
      </trkpt>
      <trkpt lat="50.42514" lon="3.52586">
        <ele>27.5</ele>
        <time>2022-05-09T09:41:17.000Z</time>
      </trkpt>
      <trkpt lat="50.42516" lon="3.52574">
        <ele>27.6</ele>
        <time>2022-05-09T09:41:19.892Z</time>
      </trkpt>
      <trkpt lat="50.42519" lon="3.52566">
        <ele>27.7</ele>
        <time>2022-05-09T09:41:23.000Z</time>
      </trkpt>
      <trkpt lat="50.42523" lon="3.52559">
        <ele>27.8</ele>
        <time>2022-05-09T09:48:18.000Z</time>
      </trkpt>
      <trkpt lat="50.42527" lon="3.52551">
        <ele>28</ele>
        <time>2022-05-09T09:48:21.000Z</time>
      </trkpt>
      <trkpt lat="50.42529" lon="3.52544">
        <ele>28</ele>
        <time>2022-05-09T09:48:23.000Z</time>
      </trkpt>
      <trkpt lat="50.42535" lon="3.52526">
        <ele>28.2</ele>
        <time>2022-05-09T09:48:28.000Z</time>
      </trkpt>
      <trkpt lat="50.42537" lon="3.52521">
        <ele>28.3</ele>
        <time>2022-05-09T09:48:29.000Z</time>
      </trkpt>
      <trkpt lat="50.4254" lon="3.52512">
        <ele>28.4</ele>
        <time>2022-05-09T09:48:31.000Z</time>
      </trkpt>
      <trkpt lat="50.42544" lon="3.52503">
        <ele>28.6</ele>
        <time>2022-05-09T09:48:33.000Z</time>
      </trkpt>
      <trkpt lat="50.42547" lon="3.52494">
        <ele>28.7</ele>
        <time>2022-05-09T09:48:35.000Z</time>
      </trkpt>
      <trkpt lat="50.42548" lon="3.52487">
        <ele>28.7</ele>
        <time>2022-05-09T09:48:36.138Z</time>
      </trkpt>
      <trkpt lat="50.4255" lon="3.52479">
        <ele>28.8</ele>
        <time>2022-05-09T09:48:38.094Z</time>
      </trkpt>
      <trkpt lat="50.42554" lon="3.52467">
        <ele>29</ele>
        <time>2022-05-09T09:48:40.616Z</time>
      </trkpt>
      <trkpt lat="50.42558" lon="3.52457">
        <ele>29.1</ele>
        <time>2022-05-09T09:48:43.000Z</time>
      </trkpt>
      <trkpt lat="50.42561" lon="3.52448">
        <ele>29.2</ele>
        <time>2022-05-09T09:48:44.073Z</time>
      </trkpt>
      <trkpt lat="50.42564" lon="3.52441">
        <ele>29.3</ele>
        <time>2022-05-09T09:48:46.277Z</time>
      </trkpt>
      <trkpt lat="50.42567" lon="3.52431">
        <ele>29.4</ele>
        <time>2022-05-09T09:48:49.000Z</time>
      </trkpt>
      <trkpt lat="50.42572" lon="3.52419">
        <ele>29.6</ele>
        <time>2022-05-09T09:48:52.073Z</time>
      </trkpt>
      <trkpt lat="50.42574" lon="3.52412">
        <ele>29.7</ele>
        <time>2022-05-09T09:48:54.000Z</time>
      </trkpt>
      <trkpt lat="50.42579" lon="3.52399">
        <ele>29.9</ele>
        <time>2022-05-09T09:48:56.974Z</time>
      </trkpt>
      <trkpt lat="50.42582" lon="3.5239">
        <ele>29.9</ele>
        <time>2022-05-09T09:48:59.000Z</time>
      </trkpt>
      <trkpt lat="50.42586" lon="3.52378">
        <ele>30</ele>
        <time>2022-05-09T09:49:01.498Z</time>
      </trkpt>
      <trkpt lat="50.42588" lon="3.52371">
        <ele>30.1</ele>
        <time>2022-05-09T09:49:03.878Z</time>
      </trkpt>
      <trkpt lat="50.4259" lon="3.52364">
        <ele>30.2</ele>
        <time>2022-05-09T09:49:04.812Z</time>
      </trkpt>
      <trkpt lat="50.42592" lon="3.52355">
        <ele>30.3</ele>
        <time>2022-05-09T09:49:06.853Z</time>
      </trkpt>
      <trkpt lat="50.42596" lon="3.52346">
        <ele>30.5</ele>
        <time>2022-05-09T09:49:08.931Z</time>
      </trkpt>
      <trkpt lat="50.426" lon="3.52334">
        <ele>30.6</ele>
        <time>2022-05-09T09:49:11.000Z</time>
      </trkpt>
      <trkpt lat="50.42604" lon="3.52327">
        <ele>30.8</ele>
        <time>2022-05-09T09:49:13.000Z</time>
      </trkpt>
      <trkpt lat="50.42606" lon="3.52319">
        <ele>30.8</ele>
        <time>2022-05-09T09:49:14.853Z</time>
      </trkpt>
      <trkpt lat="50.42608" lon="3.52313">
        <ele>30.9</ele>
        <time>2022-05-09T09:49:16.000Z</time>
      </trkpt>
      <trkpt lat="50.4261" lon="3.52307">
        <ele>31</ele>
        <time>2022-05-09T09:49:16.976Z</time>
      </trkpt>
      <trkpt lat="50.42613" lon="3.523">
        <ele>31</ele>
        <time>2022-05-09T09:49:18.573Z</time>
      </trkpt>
      <trkpt lat="50.42616" lon="3.52291">
        <ele>31.1</ele>
        <time>2022-05-09T09:49:21.154Z</time>
      </trkpt>
      <trkpt lat="50.42618" lon="3.52283">
        <ele>31.2</ele>
        <time>2022-05-09T09:49:23.000Z</time>
      </trkpt>
      <trkpt lat="50.42623" lon="3.5227">
        <ele>31.4</ele>
        <time>2022-05-09T09:49:25.096Z</time>
      </trkpt>
      <trkpt lat="50.42625" lon="3.52263">
        <ele>31.5</ele>
        <time>2022-05-09T09:49:26.535Z</time>
      </trkpt>
      <trkpt lat="50.42628" lon="3.52254">
        <ele>31.6</ele>
        <time>2022-05-09T09:49:28.597Z</time>
      </trkpt>
      <trkpt lat="50.42631" lon="3.52248">
        <ele>31.7</ele>
        <time>2022-05-09T09:49:29.652Z</time>
      </trkpt>
      <trkpt lat="50.42635" lon="3.52238">
        <ele>31.9</ele>
        <time>2022-05-09T09:49:32.273Z</time>
      </trkpt>
      <trkpt lat="50.42638" lon="3.5223">
        <ele>32</ele>
        <time>2022-05-09T09:49:34.000Z</time>
      </trkpt>
      <trkpt lat="50.4264" lon="3.52222">
        <ele>32.1</ele>
        <time>2022-05-09T09:49:36.514Z</time>
      </trkpt>
      <trkpt lat="50.42643" lon="3.52214">
        <ele>32.2</ele>
        <time>2022-05-09T09:49:39.000Z</time>
      </trkpt>
      <trkpt lat="50.42646" lon="3.52204">
        <ele>32.3</ele>
        <time>2022-05-09T09:49:42.632Z</time>
      </trkpt>
      <trkpt lat="50.4265" lon="3.52195">
        <ele>32.4</ele>
        <time>2022-05-09T09:49:45.000Z</time>
      </trkpt>
      <trkpt lat="50.42652" lon="3.52184">
        <ele>32.7</ele>
        <time>2022-05-09T09:49:47.933Z</time>
      </trkpt>
      <trkpt lat="50.42655" lon="3.52178">
        <ele>32.8</ele>
        <time>2022-05-09T09:49:49.000Z</time>
      </trkpt>
      <trkpt lat="50.4266" lon="3.52166">
        <ele>33</ele>
        <time>2022-05-09T09:49:53.000Z</time>
      </trkpt>
      <trkpt lat="50.42663" lon="3.52158">
        <ele>33</ele>
        <time>2022-05-09T09:49:55.000Z</time>
      </trkpt>
      <trkpt lat="50.42665" lon="3.52152">
        <ele>33</ele>
        <time>2022-05-09T09:49:57.000Z</time>
      </trkpt>
      <trkpt lat="50.42669" lon="3.52144">
        <ele>33.1</ele>
        <time>2022-05-09T09:50:00.000Z</time>
      </trkpt>
      <trkpt lat="50.42671" lon="3.52137">
        <ele>33.2</ele>
        <time>2022-05-09T09:50:02.000Z</time>
      </trkpt>
      <trkpt lat="50.42675" lon="3.52131">
        <ele>33.5</ele>
        <time>2022-05-09T09:50:04.000Z</time>
      </trkpt>
      <trkpt lat="50.42677" lon="3.52124">
        <ele>33.7</ele>
        <time>2022-05-09T09:50:06.000Z</time>
      </trkpt>
      <trkpt lat="50.4268" lon="3.52114">
        <ele>33.9</ele>
        <time>2022-05-09T09:50:08.774Z</time>
      </trkpt>
      <trkpt lat="50.42682" lon="3.52105">
        <ele>34</ele>
        <time>2022-05-09T09:50:11.074Z</time>
      </trkpt>
      <trkpt lat="50.42686" lon="3.521">
        <ele>34</ele>
        <time>2022-05-09T09:50:13.052Z</time>
      </trkpt>
      <trkpt lat="50.42692" lon="3.52099">
        <ele>34</ele>
        <time>2022-05-09T09:50:15.000Z</time>
      </trkpt>
      <trkpt lat="50.42697" lon="3.52103">
        <ele>34.1</ele>
        <time>2022-05-09T09:50:17.215Z</time>
      </trkpt>
      <trkpt lat="50.42703" lon="3.52109">
        <ele>34.3</ele>
        <time>2022-05-09T09:50:19.450Z</time>
      </trkpt>
      <trkpt lat="50.42709" lon="3.52118">
        <ele>34.4</ele>
        <time>2022-05-09T09:50:21.854Z</time>
      </trkpt>
      <trkpt lat="50.42715" lon="3.52127">
        <ele>34.3</ele>
        <time>2022-05-09T09:50:24.000Z</time>
      </trkpt>
      <trkpt lat="50.4272" lon="3.52134">
        <ele>34.1</ele>
        <time>2022-05-09T09:50:26.000Z</time>
      </trkpt>
      <trkpt lat="50.42727" lon="3.52145">
        <ele>34.1</ele>
        <time>2022-05-09T09:50:28.553Z</time>
      </trkpt>
      <trkpt lat="50.42731" lon="3.52151">
        <ele>34.2</ele>
        <time>2022-05-09T09:50:29.891Z</time>
      </trkpt>
      <trkpt lat="50.42736" lon="3.52159">
        <ele>34.1</ele>
        <time>2022-05-09T09:50:31.833Z</time>
      </trkpt>
      <trkpt lat="50.42741" lon="3.52166">
        <ele>34</ele>
        <time>2022-05-09T09:50:33.000Z</time>
      </trkpt>
      <trkpt lat="50.42744" lon="3.52171">
        <ele>34</ele>
        <time>2022-05-09T09:50:34.000Z</time>
      </trkpt>
      <trkpt lat="50.42747" lon="3.52177">
        <ele>34</ele>
        <time>2022-05-09T09:50:35.000Z</time>
      </trkpt>
      <trkpt lat="50.42754" lon="3.52187">
        <ele>34</ele>
        <time>2022-05-09T09:50:37.000Z</time>
      </trkpt>
      <trkpt lat="50.42758" lon="3.52192">
        <ele>34</ele>
        <time>2022-05-09T09:50:38.000Z</time>
      </trkpt>
      <trkpt lat="50.42762" lon="3.52196">
        <ele>34</ele>
        <time>2022-05-09T09:50:39.000Z</time>
      </trkpt>
      <trkpt lat="50.42765" lon="3.52201">
        <ele>34</ele>
        <time>2022-05-09T09:50:40.000Z</time>
      </trkpt>
      <trkpt lat="50.42775" lon="3.52214">
        <ele>34</ele>
        <time>2022-05-09T09:50:42.833Z</time>
      </trkpt>
      <trkpt lat="50.42781" lon="3.52226">
        <ele>34</ele>
        <time>2022-05-09T09:50:44.956Z</time>
      </trkpt>
      <trkpt lat="50.42786" lon="3.52233">
        <ele>34</ele>
        <time>2022-05-09T09:50:47.000Z</time>
      </trkpt>
      <trkpt lat="50.4279" lon="3.52237">
        <ele>34</ele>
        <time>2022-05-09T09:50:48.000Z</time>
      </trkpt>
      <trkpt lat="50.42795" lon="3.52243">
        <ele>34</ele>
        <time>2022-05-09T09:50:49.000Z</time>
      </trkpt>
      <trkpt lat="50.42799" lon="3.52249">
        <ele>34</ele>
        <time>2022-05-09T09:50:50.000Z</time>
      </trkpt>
      <trkpt lat="50.42804" lon="3.52254">
        <ele>34</ele>
        <time>2022-05-09T09:50:52.000Z</time>
      </trkpt>
      <trkpt lat="50.42808" lon="3.52261">
        <ele>34.1</ele>
        <time>2022-05-09T09:50:54.114Z</time>
      </trkpt>
      <trkpt lat="50.42811" lon="3.52266">
        <ele>34.2</ele>
        <time>2022-05-09T09:50:55.454Z</time>
      </trkpt>
      <trkpt lat="50.42817" lon="3.52273">
        <ele>34.4</ele>
        <time>2022-05-09T09:50:57.816Z</time>
      </trkpt>
      <trkpt lat="50.42822" lon="3.52282">
        <ele>34.6</ele>
        <time>2022-05-09T09:51:00.313Z</time>
      </trkpt>
      <trkpt lat="50.42826" lon="3.52289">
        <ele>34.7</ele>
        <time>2022-05-09T09:51:02.253Z</time>
      </trkpt>
      <trkpt lat="50.42831" lon="3.52296">
        <ele>34.9</ele>
        <time>2022-05-09T09:51:04.774Z</time>
      </trkpt>
      <trkpt lat="50.42835" lon="3.523">
        <ele>35.1</ele>
        <time>2022-05-09T09:51:06.012Z</time>
      </trkpt>
      <trkpt lat="50.4284" lon="3.52308">
        <ele>35.2</ele>
        <time>2022-05-09T09:51:08.000Z</time>
      </trkpt>
      <trkpt lat="50.42845" lon="3.52316">
        <ele>35.4</ele>
        <time>2022-05-09T09:51:11.138Z</time>
      </trkpt>
      <trkpt lat="50.42849" lon="3.52323">
        <ele>35.6</ele>
        <time>2022-05-09T09:51:13.336Z</time>
      </trkpt>
      <trkpt lat="50.42852" lon="3.52327">
        <ele>35.7</ele>
        <time>2022-05-09T09:51:14.950Z</time>
      </trkpt>
      <trkpt lat="50.42856" lon="3.52333">
        <ele>35.8</ele>
        <time>2022-05-09T09:51:17.118Z</time>
      </trkpt>
      <trkpt lat="50.42859" lon="3.5234">
        <ele>35.7</ele>
        <time>2022-05-09T09:51:18.815Z</time>
      </trkpt>
      <trkpt lat="50.42864" lon="3.52346">
        <ele>35.7</ele>
        <time>2022-05-09T09:51:21.875Z</time>
      </trkpt>
      <trkpt lat="50.42867" lon="3.52351">
        <ele>35.7</ele>
        <time>2022-05-09T09:51:24.000Z</time>
      </trkpt>
      <trkpt lat="50.42871" lon="3.52357">
        <ele>35.8</ele>
        <time>2022-05-09T09:51:26.000Z</time>
      </trkpt>
      <trkpt lat="50.42873" lon="3.52362">
        <ele>35.9</ele>
        <time>2022-05-09T09:51:28.000Z</time>
      </trkpt>
      <trkpt lat="50.42879" lon="3.52371">
        <ele>36.1</ele>
        <time>2022-05-09T09:51:31.000Z</time>
      </trkpt>
      <trkpt lat="50.42885" lon="3.52378">
        <ele>36.2</ele>
        <time>2022-05-09T09:51:33.000Z</time>
      </trkpt>
      <trkpt lat="50.42888" lon="3.52383">
        <ele>36.2</ele>
        <time>2022-05-09T09:51:35.000Z</time>
      </trkpt>
      <trkpt lat="50.42893" lon="3.5239">
        <ele>36.1</ele>
        <time>2022-05-09T09:51:38.000Z</time>
      </trkpt>
      <trkpt lat="50.42897" lon="3.52397">
        <ele>36</ele>
        <time>2022-05-09T09:51:39.973Z</time>
      </trkpt>
      <trkpt lat="50.42901" lon="3.52403">
        <ele>35.9</ele>
        <time>2022-05-09T09:51:42.000Z</time>
      </trkpt>
      <trkpt lat="50.42907" lon="3.52409">
        <ele>35.9</ele>
        <time>2022-05-09T09:51:44.000Z</time>
      </trkpt>
      <trkpt lat="50.42913" lon="3.52417">
        <ele>35.9</ele>
        <time>2022-05-09T09:51:47.000Z</time>
      </trkpt>
      <trkpt lat="50.4292" lon="3.52426">
        <ele>35.7</ele>
        <time>2022-05-09T09:51:49.793Z</time>
      </trkpt>
      <trkpt lat="50.42923" lon="3.52431">
        <ele>35.6</ele>
        <time>2022-05-09T09:51:51.993Z</time>
      </trkpt>
      <trkpt lat="50.42927" lon="3.52437">
        <ele>35.5</ele>
        <time>2022-05-09T09:51:54.000Z</time>
      </trkpt>
      <trkpt lat="50.42933" lon="3.52444">
        <ele>35.6</ele>
        <time>2022-05-09T09:51:56.296Z</time>
      </trkpt>
      <trkpt lat="50.42938" lon="3.52453">
        <ele>35.5</ele>
        <time>2022-05-09T09:51:58.835Z</time>
      </trkpt>
      <trkpt lat="50.42943" lon="3.5246">
        <ele>35.4</ele>
        <time>2022-05-09T09:52:01.015Z</time>
      </trkpt>
      <trkpt lat="50.42947" lon="3.52468">
        <ele>35.2</ele>
        <time>2022-05-09T09:52:03.000Z</time>
      </trkpt>
      <trkpt lat="50.42955" lon="3.52478">
        <ele>35.3</ele>
        <time>2022-05-09T09:52:07.000Z</time>
      </trkpt>
      <trkpt lat="50.42959" lon="3.52484">
        <ele>35.3</ele>
        <time>2022-05-09T09:52:08.974Z</time>
      </trkpt>
      <trkpt lat="50.42963" lon="3.52489">
        <ele>35.3</ele>
        <time>2022-05-09T09:52:11.000Z</time>
      </trkpt>
      <trkpt lat="50.42966" lon="3.52494">
        <ele>35.2</ele>
        <time>2022-05-09T09:52:13.000Z</time>
      </trkpt>
      <trkpt lat="50.42974" lon="3.52503">
        <ele>35</ele>
        <time>2022-05-09T09:52:16.715Z</time>
      </trkpt>
      <trkpt lat="50.42977" lon="3.5251">
        <ele>35.2</ele>
        <time>2022-05-09T09:52:19.054Z</time>
      </trkpt>
      <trkpt lat="50.42982" lon="3.52517">
        <ele>35.3</ele>
        <time>2022-05-09T09:52:21.000Z</time>
      </trkpt>
      <trkpt lat="50.42986" lon="3.52522">
        <ele>35.5</ele>
        <time>2022-05-09T09:52:23.155Z</time>
      </trkpt>
      <trkpt lat="50.42992" lon="3.52529">
        <ele>35.7</ele>
        <time>2022-05-09T09:52:25.531Z</time>
      </trkpt>
      <trkpt lat="50.42998" lon="3.52537">
        <ele>35.6</ele>
        <time>2022-05-09T09:52:27.895Z</time>
      </trkpt>
      <trkpt lat="50.43001" lon="3.52542">
        <ele>35.5</ele>
        <time>2022-05-09T09:52:30.000Z</time>
      </trkpt>
      <trkpt lat="50.43006" lon="3.52551">
        <ele>35.4</ele>
        <time>2022-05-09T09:52:32.014Z</time>
      </trkpt>
      <trkpt lat="50.43012" lon="3.52556">
        <ele>35.4</ele>
        <time>2022-05-09T09:52:34.000Z</time>
      </trkpt>
      <trkpt lat="50.43019" lon="3.52566">
        <ele>35.7</ele>
        <time>2022-05-09T09:52:36.693Z</time>
      </trkpt>
      <trkpt lat="50.43022" lon="3.52572">
        <ele>35.8</ele>
        <time>2022-05-09T09:52:38.013Z</time>
      </trkpt>
      <trkpt lat="50.43028" lon="3.52582">
        <ele>36</ele>
        <time>2022-05-09T09:52:40.000Z</time>
      </trkpt>
      <trkpt lat="50.43033" lon="3.52588">
        <ele>36</ele>
        <time>2022-05-09T09:52:42.000Z</time>
      </trkpt>
      <trkpt lat="50.43039" lon="3.52597">
        <ele>36</ele>
        <time>2022-05-09T09:52:43.396Z</time>
      </trkpt>
      <trkpt lat="50.43043" lon="3.52604">
        <ele>36</ele>
        <time>2022-05-09T09:52:44.535Z</time>
      </trkpt>
      <trkpt lat="50.43051" lon="3.52614">
        <ele>36</ele>
        <time>2022-05-09T09:52:47.000Z</time>
      </trkpt>
      <trkpt lat="50.43058" lon="3.52625">
        <ele>36.1</ele>
        <time>2022-05-09T09:52:49.000Z</time>
      </trkpt>
      <trkpt lat="50.43064" lon="3.52634">
        <ele>36.3</ele>
        <time>2022-05-09T09:52:51.296Z</time>
      </trkpt>
      <trkpt lat="50.43068" lon="3.52641">
        <ele>36.4</ele>
        <time>2022-05-09T09:52:52.813Z</time>
      </trkpt>
      <trkpt lat="50.43074" lon="3.52649">
        <ele>36.6</ele>
        <time>2022-05-09T09:52:54.716Z</time>
      </trkpt>
      <trkpt lat="50.43078" lon="3.52656">
        <ele>36.8</ele>
        <time>2022-05-09T09:52:55.893Z</time>
      </trkpt>
      <trkpt lat="50.43082" lon="3.52663">
        <ele>37</ele>
        <time>2022-05-09T09:52:58.000Z</time>
      </trkpt>
      <trkpt lat="50.43088" lon="3.52672">
        <ele>37</ele>
        <time>2022-05-09T09:53:00.000Z</time>
      </trkpt>
      <trkpt lat="50.43093" lon="3.52676">
        <ele>37</ele>
        <time>2022-05-09T09:53:01.000Z</time>
      </trkpt>
      <trkpt lat="50.43096" lon="3.52683">
        <ele>37</ele>
        <time>2022-05-09T09:53:02.815Z</time>
      </trkpt>
      <trkpt lat="50.431" lon="3.52691">
        <ele>37</ele>
        <time>2022-05-09T09:53:05.000Z</time>
      </trkpt>
      <trkpt lat="50.43104" lon="3.52696">
        <ele>37</ele>
        <time>2022-05-09T09:53:06.000Z</time>
      </trkpt>
      <trkpt lat="50.43109" lon="3.52703">
        <ele>37</ele>
        <time>2022-05-09T09:53:08.000Z</time>
      </trkpt>
      <trkpt lat="50.43112" lon="3.52709">
        <ele>37</ele>
        <time>2022-05-09T09:53:09.077Z</time>
      </trkpt>
      <trkpt lat="50.43117" lon="3.52715">
        <ele>37</ele>
        <time>2022-05-09T09:53:11.097Z</time>
      </trkpt>
      <trkpt lat="50.43122" lon="3.52722">
        <ele>37</ele>
        <time>2022-05-09T09:53:12.078Z</time>
      </trkpt>
      <trkpt lat="50.4313" lon="3.52735">
        <ele>37</ele>
        <time>2022-05-09T09:53:15.000Z</time>
      </trkpt>
      <trkpt lat="50.43133" lon="3.52741">
        <ele>37</ele>
        <time>2022-05-09T09:53:15.977Z</time>
      </trkpt>
      <trkpt lat="50.43138" lon="3.52746">
        <ele>37</ele>
        <time>2022-05-09T09:53:17.815Z</time>
      </trkpt>
      <trkpt lat="50.43143" lon="3.52753">
        <ele>37</ele>
        <time>2022-05-09T09:53:19.139Z</time>
      </trkpt>
      <trkpt lat="50.43148" lon="3.52761">
        <ele>37</ele>
        <time>2022-05-09T09:53:21.033Z</time>
      </trkpt>
      <trkpt lat="50.43152" lon="3.52766">
        <ele>37</ele>
        <time>2022-05-09T09:53:22.000Z</time>
      </trkpt>
      <trkpt lat="50.43156" lon="3.52772">
        <ele>37</ele>
        <time>2022-05-09T09:53:23.435Z</time>
      </trkpt>
      <trkpt lat="50.43161" lon="3.52777">
        <ele>37</ele>
        <time>2022-05-09T09:53:24.394Z</time>
      </trkpt>
      <trkpt lat="50.43169" lon="3.52788">
        <ele>36.6</ele>
        <time>2022-05-09T09:53:27.037Z</time>
      </trkpt>
      <trkpt lat="50.43176" lon="3.52798">
        <ele>36.3</ele>
        <time>2022-05-09T09:53:29.000Z</time>
      </trkpt>
      <trkpt lat="50.4318" lon="3.52802">
        <ele>36.1</ele>
        <time>2022-05-09T09:53:31.017Z</time>
      </trkpt>
      <trkpt lat="50.43185" lon="3.52808">
        <ele>36</ele>
        <time>2022-05-09T09:53:32.017Z</time>
      </trkpt>
      <trkpt lat="50.4319" lon="3.52812">
        <ele>36</ele>
        <time>2022-05-09T09:53:33.553Z</time>
      </trkpt>
      <trkpt lat="50.43192" lon="3.52819">
        <ele>36</ele>
        <time>2022-05-09T09:53:34.676Z</time>
      </trkpt>
      <trkpt lat="50.43198" lon="3.52828">
        <ele>36</ele>
        <time>2022-05-09T09:53:36.054Z</time>
      </trkpt>
      <trkpt lat="50.43203" lon="3.52836">
        <ele>36</ele>
        <time>2022-05-09T09:53:37.975Z</time>
      </trkpt>
      <trkpt lat="50.4321" lon="3.52847">
        <ele>36</ele>
        <time>2022-05-09T09:53:41.000Z</time>
      </trkpt>
      <trkpt lat="50.43215" lon="3.52853">
        <ele>36</ele>
        <time>2022-05-09T09:53:42.458Z</time>
      </trkpt>
      <trkpt lat="50.43221" lon="3.52864">
        <ele>36</ele>
        <time>2022-05-09T09:53:45.035Z</time>
      </trkpt>
      <trkpt lat="50.43225" lon="3.5287">
        <ele>36</ele>
        <time>2022-05-09T09:53:46.996Z</time>
      </trkpt>
      <trkpt lat="50.43231" lon="3.52877">
        <ele>36</ele>
        <time>2022-05-09T09:53:48.556Z</time>
      </trkpt>
      <trkpt lat="50.4324" lon="3.52889">
        <ele>36</ele>
        <time>2022-05-09T09:53:51.116Z</time>
      </trkpt>
      <trkpt lat="50.43243" lon="3.52894">
        <ele>36</ele>
        <time>2022-05-09T09:53:52.637Z</time>
      </trkpt>
      <trkpt lat="50.43248" lon="3.529">
        <ele>36</ele>
        <time>2022-05-09T09:53:53.978Z</time>
      </trkpt>
      <trkpt lat="50.43251" lon="3.52906">
        <ele>36</ele>
        <time>2022-05-09T09:53:55.000Z</time>
      </trkpt>
      <trkpt lat="50.43254" lon="3.52912">
        <ele>36</ele>
        <time>2022-05-09T09:53:56.000Z</time>
      </trkpt>
      <trkpt lat="50.43263" lon="3.52921">
        <ele>36</ele>
        <time>2022-05-09T09:53:59.000Z</time>
      </trkpt>
      <trkpt lat="50.43266" lon="3.52926">
        <ele>36</ele>
        <time>2022-05-09T09:54:00.014Z</time>
      </trkpt>
      <trkpt lat="50.43274" lon="3.52938">
        <ele>36</ele>
        <time>2022-05-09T09:54:03.154Z</time>
      </trkpt>
      <trkpt lat="50.43278" lon="3.52944">
        <ele>36</ele>
        <time>2022-05-09T09:54:04.696Z</time>
      </trkpt>
      <trkpt lat="50.43283" lon="3.52952">
        <ele>35.7</ele>
        <time>2022-05-09T09:54:06.000Z</time>
      </trkpt>
      <trkpt lat="50.4329" lon="3.52961">
        <ele>35.4</ele>
        <time>2022-05-09T09:54:08.375Z</time>
      </trkpt>
      <trkpt lat="50.43298" lon="3.52973">
        <ele>35</ele>
        <time>2022-05-09T09:54:10.737Z</time>
      </trkpt>
      <trkpt lat="50.43303" lon="3.52979">
        <ele>35</ele>
        <time>2022-05-09T09:54:11.875Z</time>
      </trkpt>
      <trkpt lat="50.43306" lon="3.52984">
        <ele>35</ele>
        <time>2022-05-09T09:54:13.000Z</time>
      </trkpt>
      <trkpt lat="50.43309" lon="3.52992">
        <ele>35</ele>
        <time>2022-05-09T09:54:14.972Z</time>
      </trkpt>
      <trkpt lat="50.43314" lon="3.52997">
        <ele>35</ele>
        <time>2022-05-09T09:54:15.953Z</time>
      </trkpt>
      <trkpt lat="50.43319" lon="3.53003">
        <ele>35</ele>
        <time>2022-05-09T09:54:18.099Z</time>
      </trkpt>
      <trkpt lat="50.43323" lon="3.53009">
        <ele>35</ele>
        <time>2022-05-09T09:54:19.000Z</time>
      </trkpt>
      <trkpt lat="50.43327" lon="3.53015">
        <ele>35</ele>
        <time>2022-05-09T09:54:20.000Z</time>
      </trkpt>
      <trkpt lat="50.43335" lon="3.53026">
        <ele>35</ele>
        <time>2022-05-09T09:54:22.676Z</time>
      </trkpt>
      <trkpt lat="50.4334" lon="3.53034">
        <ele>35</ele>
        <time>2022-05-09T09:54:25.116Z</time>
      </trkpt>
      <trkpt lat="50.43345" lon="3.53042">
        <ele>35</ele>
        <time>2022-05-09T09:54:27.253Z</time>
      </trkpt>
      <trkpt lat="50.43353" lon="3.53052">
        <ele>35</ele>
        <time>2022-05-09T09:54:29.674Z</time>
      </trkpt>
      <trkpt lat="50.43357" lon="3.53058">
        <ele>35</ele>
        <time>2022-05-09T09:54:32.000Z</time>
      </trkpt>
      <trkpt lat="50.43362" lon="3.53066">
        <ele>35</ele>
        <time>2022-05-09T09:54:34.000Z</time>
      </trkpt>
      <trkpt lat="50.43368" lon="3.53073">
        <ele>35</ele>
        <time>2022-05-09T09:54:35.873Z</time>
      </trkpt>
      <trkpt lat="50.43375" lon="3.53083">
        <ele>35</ele>
        <time>2022-05-09T09:54:38.874Z</time>
      </trkpt>
      <trkpt lat="50.43381" lon="3.53092">
        <ele>35</ele>
        <time>2022-05-09T09:54:41.976Z</time>
      </trkpt>
      <trkpt lat="50.43386" lon="3.53102">
        <ele>35</ele>
        <time>2022-05-09T09:54:44.000Z</time>
      </trkpt>
      <trkpt lat="50.43392" lon="3.53111">
        <ele>35</ele>
        <time>2022-05-09T09:54:47.034Z</time>
      </trkpt>
      <trkpt lat="50.43398" lon="3.53119">
        <ele>35</ele>
        <time>2022-05-09T09:54:50.000Z</time>
      </trkpt>
      <trkpt lat="50.43402" lon="3.53126">
        <ele>35</ele>
        <time>2022-05-09T09:54:52.000Z</time>
      </trkpt>
      <trkpt lat="50.43406" lon="3.53131">
        <ele>35</ele>
        <time>2022-05-09T09:54:54.814Z</time>
      </trkpt>
      <trkpt lat="50.43412" lon="3.53139">
        <ele>35</ele>
        <time>2022-05-09T09:54:59.000Z</time>
      </trkpt>
      <trkpt lat="50.43413" lon="3.53136">
        <ele>35</ele>
        <time>2022-05-09T09:55:02.000Z</time>
      </trkpt>
      <trkpt lat="50.43408" lon="3.5313">
        <ele>35</ele>
        <time>2022-05-09T09:55:05.000Z</time>
      </trkpt>
      <trkpt lat="50.43403" lon="3.53123">
        <ele>35</ele>
        <time>2022-05-09T09:55:08.000Z</time>
      </trkpt>
      <trkpt lat="50.43398" lon="3.53116">
        <ele>35</ele>
        <time>2022-05-09T09:55:09.955Z</time>
      </trkpt>
      <trkpt lat="50.43393" lon="3.53109">
        <ele>35</ele>
        <time>2022-05-09T09:55:11.000Z</time>
      </trkpt>
      <trkpt lat="50.43389" lon="3.53104">
        <ele>35</ele>
        <time>2022-05-09T09:55:12.000Z</time>
      </trkpt>
      <trkpt lat="50.43385" lon="3.53097">
        <ele>35</ele>
        <time>2022-05-09T09:55:13.619Z</time>
      </trkpt>
      <trkpt lat="50.43383" lon="3.53093">
        <ele>35</ele>
        <time>2022-05-09T09:55:15.112Z</time>
      </trkpt>
      <trkpt lat="50.43383" lon="3.53085">
        <ele>35</ele>
        <time>2022-05-09T09:55:17.072Z</time>
      </trkpt>
      <trkpt lat="50.43386" lon="3.5308">
        <ele>35</ele>
        <time>2022-05-09T09:55:18.000Z</time>
      </trkpt>
      <trkpt lat="50.4339" lon="3.53075">
        <ele>35</ele>
        <time>2022-05-09T09:55:19.037Z</time>
      </trkpt>
      <trkpt lat="50.43395" lon="3.53069">
        <ele>35</ele>
        <time>2022-05-09T09:55:21.000Z</time>
      </trkpt>
      <trkpt lat="50.434" lon="3.53064">
        <ele>35</ele>
        <time>2022-05-09T09:55:24.000Z</time>
      </trkpt>
      <trkpt lat="50.43404" lon="3.5306">
        <ele>35</ele>
        <time>2022-05-09T09:55:25.054Z</time>
      </trkpt>
      <trkpt lat="50.43411" lon="3.53053">
        <ele>35</ele>
        <time>2022-05-09T09:55:28.000Z</time>
      </trkpt>
      <trkpt lat="50.43416" lon="3.53045">
        <ele>35</ele>
        <time>2022-05-09T09:55:30.000Z</time>
      </trkpt>
      <trkpt lat="50.43423" lon="3.5304">
        <ele>35</ele>
        <time>2022-05-09T09:55:33.000Z</time>
      </trkpt>
      <trkpt lat="50.43429" lon="3.53032">
        <ele>35</ele>
        <time>2022-05-09T09:55:35.755Z</time>
      </trkpt>
      <trkpt lat="50.43432" lon="3.53022">
        <ele>35</ele>
        <time>2022-05-09T09:55:38.054Z</time>
      </trkpt>
      <trkpt lat="50.43437" lon="3.53016">
        <ele>35</ele>
        <time>2022-05-09T09:55:39.895Z</time>
      </trkpt>
      <trkpt lat="50.43441" lon="3.5301">
        <ele>35</ele>
        <time>2022-05-09T09:55:42.137Z</time>
      </trkpt>
      <trkpt lat="50.43446" lon="3.53002">
        <ele>35</ele>
        <time>2022-05-09T09:55:43.793Z</time>
      </trkpt>
      <trkpt lat="50.43452" lon="3.52994">
        <ele>35</ele>
        <time>2022-05-09T09:55:46.573Z</time>
      </trkpt>
      <trkpt lat="50.43458" lon="3.52983">
        <ele>35</ele>
        <time>2022-05-09T09:55:49.096Z</time>
      </trkpt>
      <trkpt lat="50.43463" lon="3.52975">
        <ele>35</ele>
        <time>2022-05-09T09:55:52.053Z</time>
      </trkpt>
      <trkpt lat="50.43467" lon="3.52969">
        <ele>35</ele>
        <time>2022-05-09T09:55:54.000Z</time>
      </trkpt>
      <trkpt lat="50.43471" lon="3.52964">
        <ele>35</ele>
        <time>2022-05-09T09:55:55.093Z</time>
      </trkpt>
      <trkpt lat="50.43478" lon="3.52955">
        <ele>35</ele>
        <time>2022-05-09T09:55:57.595Z</time>
      </trkpt>
      <trkpt lat="50.43484" lon="3.52944">
        <ele>35</ele>
        <time>2022-05-09T09:56:00.636Z</time>
      </trkpt>
      <trkpt lat="50.43487" lon="3.52938">
        <ele>35</ele>
        <time>2022-05-09T09:56:02.000Z</time>
      </trkpt>
      <trkpt lat="50.43493" lon="3.52932">
        <ele>35</ele>
        <time>2022-05-09T09:56:03.997Z</time>
      </trkpt>
      <trkpt lat="50.435" lon="3.52923">
        <ele>35</ele>
        <time>2022-05-09T09:56:06.033Z</time>
      </trkpt>
      <trkpt lat="50.43506" lon="3.52913">
        <ele>35</ele>
        <time>2022-05-09T09:56:08.314Z</time>
      </trkpt>
      <trkpt lat="50.43514" lon="3.52903">
        <ele>35</ele>
        <time>2022-05-09T09:56:11.037Z</time>
      </trkpt>
      <trkpt lat="50.43521" lon="3.52895">
        <ele>35</ele>
        <time>2022-05-09T09:56:13.000Z</time>
      </trkpt>
      <trkpt lat="50.43527" lon="3.52889">
        <ele>35</ele>
        <time>2022-05-09T09:56:14.937Z</time>
      </trkpt>
      <trkpt lat="50.43532" lon="3.5288">
        <ele>35.3</ele>
        <time>2022-05-09T09:56:17.074Z</time>
      </trkpt>
      <trkpt lat="50.43536" lon="3.52875">
        <ele>35.4</ele>
        <time>2022-05-09T09:56:18.937Z</time>
      </trkpt>
      <trkpt lat="50.4354" lon="3.52868">
        <ele>35.4</ele>
        <time>2022-05-09T09:56:20.777Z</time>
      </trkpt>
      <trkpt lat="50.43544" lon="3.5286">
        <ele>35.4</ele>
        <time>2022-05-09T09:56:22.000Z</time>
      </trkpt>
      <trkpt lat="50.43549" lon="3.52855">
        <ele>35.4</ele>
        <time>2022-05-09T09:56:24.000Z</time>
      </trkpt>
      <trkpt lat="50.43552" lon="3.52849">
        <ele>35.5</ele>
        <time>2022-05-09T09:56:25.000Z</time>
      </trkpt>
      <trkpt lat="50.43557" lon="3.5284">
        <ele>35.8</ele>
        <time>2022-05-09T09:56:27.000Z</time>
      </trkpt>
      <trkpt lat="50.43562" lon="3.52832">
        <ele>36</ele>
        <time>2022-05-09T09:56:29.000Z</time>
      </trkpt>
      <trkpt lat="50.43567" lon="3.52824">
        <ele>36</ele>
        <time>2022-05-09T09:56:31.000Z</time>
      </trkpt>
      <trkpt lat="50.43572" lon="3.52817">
        <ele>36</ele>
        <time>2022-05-09T09:56:32.816Z</time>
      </trkpt>
      <trkpt lat="50.43577" lon="3.52809">
        <ele>36</ele>
        <time>2022-05-09T09:56:35.016Z</time>
      </trkpt>
      <trkpt lat="50.43582" lon="3.52804">
        <ele>36</ele>
        <time>2022-05-09T09:56:37.000Z</time>
      </trkpt>
      <trkpt lat="50.43586" lon="3.52798">
        <ele>36</ele>
        <time>2022-05-09T09:56:37.954Z</time>
      </trkpt>
      <trkpt lat="50.4359" lon="3.5279">
        <ele>36</ele>
        <time>2022-05-09T09:56:40.114Z</time>
      </trkpt>
      <trkpt lat="50.43595" lon="3.52781">
        <ele>36</ele>
        <time>2022-05-09T09:56:42.737Z</time>
      </trkpt>
      <trkpt lat="50.436" lon="3.52774">
        <ele>36</ele>
        <time>2022-05-09T09:56:45.000Z</time>
      </trkpt>
      <trkpt lat="50.43606" lon="3.52767">
        <ele>36</ele>
        <time>2022-05-09T09:56:47.257Z</time>
      </trkpt>
      <trkpt lat="50.43612" lon="3.52764">
        <ele>36</ele>
        <time>2022-05-09T09:56:49.696Z</time>
      </trkpt>
      <trkpt lat="50.43617" lon="3.52762">
        <ele>36</ele>
        <time>2022-05-09T09:56:51.000Z</time>
      </trkpt>
      <trkpt lat="50.43621" lon="3.52758">
        <ele>36</ele>
        <time>2022-05-09T09:56:53.000Z</time>
      </trkpt>
      <trkpt lat="50.43626" lon="3.52752">
        <ele>36</ele>
        <time>2022-05-09T09:56:56.000Z</time>
      </trkpt>
      <trkpt lat="50.43629" lon="3.52745">
        <ele>36</ele>
        <time>2022-05-09T09:56:58.000Z</time>
      </trkpt>
      <trkpt lat="50.43633" lon="3.52738">
        <ele>36</ele>
        <time>2022-05-09T09:57:01.000Z</time>
      </trkpt>
      <trkpt lat="50.43638" lon="3.52732">
        <ele>36</ele>
        <time>2022-05-09T09:57:04.054Z</time>
      </trkpt>
      <trkpt lat="50.43643" lon="3.52723">
        <ele>36</ele>
        <time>2022-05-09T09:57:06.233Z</time>
      </trkpt>
      <trkpt lat="50.43648" lon="3.52714">
        <ele>36</ele>
        <time>2022-05-09T09:57:08.838Z</time>
      </trkpt>
      <trkpt lat="50.43654" lon="3.52707">
        <ele>36</ele>
        <time>2022-05-09T09:57:11.000Z</time>
      </trkpt>
      <trkpt lat="50.4366" lon="3.52702">
        <ele>36</ele>
        <time>2022-05-09T09:57:13.000Z</time>
      </trkpt>
      <trkpt lat="50.43665" lon="3.52693">
        <ele>36</ele>
        <time>2022-05-09T09:57:15.315Z</time>
      </trkpt>
      <trkpt lat="50.43672" lon="3.52684">
        <ele>36</ele>
        <time>2022-05-09T09:57:17.756Z</time>
      </trkpt>
      <trkpt lat="50.43676" lon="3.52681">
        <ele>36</ele>
        <time>2022-05-09T09:57:18.995Z</time>
      </trkpt>
      <trkpt lat="50.43682" lon="3.52675">
        <ele>36</ele>
        <time>2022-05-09T09:57:21.016Z</time>
      </trkpt>
      <trkpt lat="50.43689" lon="3.52668">
        <ele>36</ele>
        <time>2022-05-09T09:57:23.000Z</time>
      </trkpt>
      <trkpt lat="50.43693" lon="3.52664">
        <ele>36</ele>
        <time>2022-05-09T09:57:24.295Z</time>
      </trkpt>
      <trkpt lat="50.43698" lon="3.52655">
        <ele>36</ele>
        <time>2022-05-09T09:57:26.838Z</time>
      </trkpt>
      <trkpt lat="50.43702" lon="3.52647">
        <ele>36</ele>
        <time>2022-05-09T09:57:29.000Z</time>
      </trkpt>
      <trkpt lat="50.43707" lon="3.5264">
        <ele>36</ele>
        <time>2022-05-09T09:57:32.000Z</time>
      </trkpt>
      <trkpt lat="50.43713" lon="3.52636">
        <ele>36.1</ele>
        <time>2022-05-09T09:57:35.056Z</time>
      </trkpt>
      <trkpt lat="50.43719" lon="3.5263">
        <ele>36.3</ele>
        <time>2022-05-09T09:57:37.718Z</time>
      </trkpt>
      <trkpt lat="50.43724" lon="3.52624">
        <ele>36.5</ele>
        <time>2022-05-09T09:57:40.000Z</time>
      </trkpt>
      <trkpt lat="50.43729" lon="3.52617">
        <ele>36.6</ele>
        <time>2022-05-09T09:57:41.977Z</time>
      </trkpt>
      <trkpt lat="50.43734" lon="3.5261">
        <ele>36.6</ele>
        <time>2022-05-09T09:57:45.000Z</time>
      </trkpt>
      <trkpt lat="50.43739" lon="3.52602">
        <ele>36.4</ele>
        <time>2022-05-09T09:57:48.057Z</time>
      </trkpt>
      <trkpt lat="50.43744" lon="3.52596">
        <ele>36.2</ele>
        <time>2022-05-09T09:57:51.000Z</time>
      </trkpt>
      <trkpt lat="50.43751" lon="3.52585">
        <ele>36</ele>
        <time>2022-05-09T09:57:54.116Z</time>
      </trkpt>
      <trkpt lat="50.43758" lon="3.52576">
        <ele>36.2</ele>
        <time>2022-05-09T09:57:56.733Z</time>
      </trkpt>
      <trkpt lat="50.43762" lon="3.5257">
        <ele>36.3</ele>
        <time>2022-05-09T09:57:59.000Z</time>
      </trkpt>
      <trkpt lat="50.43767" lon="3.52561">
        <ele>36.3</ele>
        <time>2022-05-09T09:58:01.195Z</time>
      </trkpt>
      <trkpt lat="50.43771" lon="3.52555">
        <ele>36.3</ele>
        <time>2022-05-09T09:58:03.077Z</time>
      </trkpt>
      <trkpt lat="50.43774" lon="3.52549">
        <ele>36.3</ele>
        <time>2022-05-09T09:58:05.000Z</time>
      </trkpt>
      <trkpt lat="50.43778" lon="3.52543">
        <ele>36.4</ele>
        <time>2022-05-09T09:58:07.116Z</time>
      </trkpt>
      <trkpt lat="50.43783" lon="3.52536">
        <ele>36.6</ele>
        <time>2022-05-09T09:58:10.000Z</time>
      </trkpt>
      <trkpt lat="50.43787" lon="3.52529">
        <ele>36.6</ele>
        <time>2022-05-09T09:58:12.000Z</time>
      </trkpt>
      <trkpt lat="50.43793" lon="3.52521">
        <ele>36.5</ele>
        <time>2022-05-09T09:58:14.958Z</time>
      </trkpt>
      <trkpt lat="50.43797" lon="3.52516">
        <ele>36.3</ele>
        <time>2022-05-09T09:58:17.000Z</time>
      </trkpt>
      <trkpt lat="50.43803" lon="3.52508">
        <ele>36.1</ele>
        <time>2022-05-09T09:58:20.993Z</time>
      </trkpt>
      <trkpt lat="50.43806" lon="3.52504">
        <ele>36</ele>
        <time>2022-05-09T09:58:23.000Z</time>
      </trkpt>
      <trkpt lat="50.4381" lon="3.52497">
        <ele>36</ele>
        <time>2022-05-09T09:58:25.000Z</time>
      </trkpt>
      <trkpt lat="50.43816" lon="3.52489">
        <ele>36</ele>
        <time>2022-05-09T09:58:27.098Z</time>
      </trkpt>
      <trkpt lat="50.4382" lon="3.52482">
        <ele>36</ele>
        <time>2022-05-09T09:58:28.995Z</time>
      </trkpt>
      <trkpt lat="50.43824" lon="3.52474">
        <ele>36</ele>
        <time>2022-05-09T09:58:31.016Z</time>
      </trkpt>
      <trkpt lat="50.43829" lon="3.52466">
        <ele>36</ele>
        <time>2022-05-09T09:58:34.000Z</time>
      </trkpt>
      <trkpt lat="50.43833" lon="3.52461">
        <ele>36</ele>
        <time>2022-05-09T09:58:36.000Z</time>
      </trkpt>
      <trkpt lat="50.43837" lon="3.52457">
        <ele>36</ele>
        <time>2022-05-09T09:58:38.592Z</time>
      </trkpt>
      <trkpt lat="50.43844" lon="3.52447">
        <ele>36</ele>
        <time>2022-05-09T09:58:41.942Z</time>
      </trkpt>
      <trkpt lat="50.43851" lon="3.5244">
        <ele>36</ele>
        <time>2022-05-09T09:58:44.000Z</time>
      </trkpt>
      <trkpt lat="50.43856" lon="3.52436">
        <ele>36</ele>
        <time>2022-05-09T09:58:46.000Z</time>
      </trkpt>
      <trkpt lat="50.4386" lon="3.52432">
        <ele>36</ele>
        <time>2022-05-09T09:58:47.000Z</time>
      </trkpt>
      <trkpt lat="50.43863" lon="3.52426">
        <ele>36</ele>
        <time>2022-05-09T09:58:49.057Z</time>
      </trkpt>
      <trkpt lat="50.43869" lon="3.52421">
        <ele>36</ele>
        <time>2022-05-09T09:58:51.000Z</time>
      </trkpt>
      <trkpt lat="50.43872" lon="3.52415">
        <ele>36</ele>
        <time>2022-05-09T09:58:52.955Z</time>
      </trkpt>
      <trkpt lat="50.43877" lon="3.52407">
        <ele>36</ele>
        <time>2022-05-09T09:58:55.692Z</time>
      </trkpt>
      <trkpt lat="50.4388" lon="3.52396">
        <ele>36</ele>
        <time>2022-05-09T09:58:58.000Z</time>
      </trkpt>
      <trkpt lat="50.43884" lon="3.5239">
        <ele>36</ele>
        <time>2022-05-09T09:59:00.000Z</time>
      </trkpt>
      <trkpt lat="50.43888" lon="3.52385">
        <ele>36</ele>
        <time>2022-05-09T09:59:01.058Z</time>
      </trkpt>
      <trkpt lat="50.43893" lon="3.52378">
        <ele>36.1</ele>
        <time>2022-05-09T09:59:03.000Z</time>
      </trkpt>
      <trkpt lat="50.43899" lon="3.5237">
        <ele>36.4</ele>
        <time>2022-05-09T09:59:06.016Z</time>
      </trkpt>
      <trkpt lat="50.43901" lon="3.52364">
        <ele>36.4</ele>
        <time>2022-05-09T09:59:07.996Z</time>
      </trkpt>
      <trkpt lat="50.43906" lon="3.52356">
        <ele>36.6</ele>
        <time>2022-05-09T09:59:10.094Z</time>
      </trkpt>
      <trkpt lat="50.43912" lon="3.52349">
        <ele>36.8</ele>
        <time>2022-05-09T09:59:12.118Z</time>
      </trkpt>
      <trkpt lat="50.43916" lon="3.52343">
        <ele>37</ele>
        <time>2022-05-09T09:59:14.696Z</time>
      </trkpt>
      <trkpt lat="50.43921" lon="3.52334">
        <ele>37</ele>
        <time>2022-05-09T09:59:17.000Z</time>
      </trkpt>
      <trkpt lat="50.43925" lon="3.52328">
        <ele>36.9</ele>
        <time>2022-05-09T09:59:19.000Z</time>
      </trkpt>
      <trkpt lat="50.43928" lon="3.52323">
        <ele>36.8</ele>
        <time>2022-05-09T09:59:20.000Z</time>
      </trkpt>
      <trkpt lat="50.43935" lon="3.52314">
        <ele>36.8</ele>
        <time>2022-05-09T09:59:22.398Z</time>
      </trkpt>
      <trkpt lat="50.43939" lon="3.52304">
        <ele>36.8</ele>
        <time>2022-05-09T09:59:25.000Z</time>
      </trkpt>
      <trkpt lat="50.43945" lon="3.52298">
        <ele>37</ele>
        <time>2022-05-09T09:59:27.117Z</time>
      </trkpt>
      <trkpt lat="50.43949" lon="3.52292">
        <ele>37.1</ele>
        <time>2022-05-09T09:59:29.115Z</time>
      </trkpt>
      <trkpt lat="50.43954" lon="3.52286">
        <ele>37.3</ele>
        <time>2022-05-09T09:59:31.000Z</time>
      </trkpt>
      <trkpt lat="50.43961" lon="3.52278">
        <ele>37.6</ele>
        <time>2022-05-09T09:59:33.815Z</time>
      </trkpt>
      <trkpt lat="50.43965" lon="3.52273">
        <ele>37.7</ele>
        <time>2022-05-09T09:59:35.775Z</time>
      </trkpt>
      <trkpt lat="50.43969" lon="3.52269">
        <ele>37.9</ele>
        <time>2022-05-09T09:59:37.000Z</time>
      </trkpt>
      <trkpt lat="50.43973" lon="3.52264">
        <ele>38</ele>
        <time>2022-05-09T09:59:39.000Z</time>
      </trkpt>
      <trkpt lat="50.43979" lon="3.52265">
        <ele>38.1</ele>
        <time>2022-05-09T09:59:42.000Z</time>
      </trkpt>
      <trkpt lat="50.43985" lon="3.52269">
        <ele>38.1</ele>
        <time>2022-05-09T09:59:45.000Z</time>
      </trkpt>
      <trkpt lat="50.4399" lon="3.52278">
        <ele>38</ele>
        <time>2022-05-09T09:59:48.073Z</time>
      </trkpt>
      <trkpt lat="50.43993" lon="3.52283">
        <ele>38</ele>
        <time>2022-05-09T09:59:50.000Z</time>
      </trkpt>
      <trkpt lat="50.43998" lon="3.52289">
        <ele>38</ele>
        <time>2022-05-09T09:59:52.976Z</time>
      </trkpt>
      <trkpt lat="50.44001" lon="3.52294">
        <ele>38</ele>
        <time>2022-05-09T09:59:55.074Z</time>
      </trkpt>
      <trkpt lat="50.44005" lon="3.523">
        <ele>38</ele>
        <time>2022-05-09T09:59:57.015Z</time>
      </trkpt>
      <trkpt lat="50.4401" lon="3.52305">
        <ele>38</ele>
        <time>2022-05-09T09:59:59.574Z</time>
      </trkpt>
      <trkpt lat="50.44013" lon="3.5231">
        <ele>38</ele>
        <time>2022-05-09T10:00:01.553Z</time>
      </trkpt>
      <trkpt lat="50.44018" lon="3.52316">
        <ele>38</ele>
        <time>2022-05-09T10:00:03.757Z</time>
      </trkpt>
      <trkpt lat="50.44021" lon="3.5232">
        <ele>38</ele>
        <time>2022-05-09T10:00:05.000Z</time>
      </trkpt>
      <trkpt lat="50.44027" lon="3.52327">
        <ele>38</ele>
        <time>2022-05-09T10:00:07.878Z</time>
      </trkpt>
      <trkpt lat="50.44033" lon="3.52338">
        <ele>38</ele>
        <time>2022-05-09T10:00:11.037Z</time>
      </trkpt>
      <trkpt lat="50.44037" lon="3.52344">
        <ele>38</ele>
        <time>2022-05-09T10:00:13.015Z</time>
      </trkpt>
      <trkpt lat="50.4404" lon="3.52348">
        <ele>38</ele>
        <time>2022-05-09T10:00:14.000Z</time>
      </trkpt>
      <trkpt lat="50.44046" lon="3.52353">
        <ele>38</ele>
        <time>2022-05-09T10:00:16.000Z</time>
      </trkpt>
      <trkpt lat="50.44051" lon="3.52362">
        <ele>38</ele>
        <time>2022-05-09T10:00:18.394Z</time>
      </trkpt>
      <trkpt lat="50.44055" lon="3.52367">
        <ele>38</ele>
        <time>2022-05-09T10:00:19.657Z</time>
      </trkpt>
      <trkpt lat="50.4406" lon="3.52373">
        <ele>38</ele>
        <time>2022-05-09T10:00:22.000Z</time>
      </trkpt>
      <trkpt lat="50.44063" lon="3.52379">
        <ele>38</ele>
        <time>2022-05-09T10:00:22.974Z</time>
      </trkpt>
      <trkpt lat="50.44068" lon="3.52385">
        <ele>38</ele>
        <time>2022-05-09T10:00:25.000Z</time>
      </trkpt>
      <trkpt lat="50.44075" lon="3.52391">
        <ele>38</ele>
        <time>2022-05-09T10:00:27.917Z</time>
      </trkpt>
      <trkpt lat="50.4408" lon="3.52401">
        <ele>38</ele>
        <time>2022-05-09T10:00:31.000Z</time>
      </trkpt>
      <trkpt lat="50.44085" lon="3.5241">
        <ele>38</ele>
        <time>2022-05-09T10:00:33.054Z</time>
      </trkpt>
      <trkpt lat="50.44089" lon="3.52414">
        <ele>38</ele>
        <time>2022-05-09T10:00:36.000Z</time>
      </trkpt>
      <trkpt lat="50.44093" lon="3.52418">
        <ele>38</ele>
        <time>2022-05-09T10:00:37.000Z</time>
      </trkpt>
      <trkpt lat="50.44098" lon="3.52426">
        <ele>38</ele>
        <time>2022-05-09T10:00:39.296Z</time>
      </trkpt>
      <trkpt lat="50.44102" lon="3.52431">
        <ele>38</ele>
        <time>2022-05-09T10:00:40.954Z</time>
      </trkpt>
      <trkpt lat="50.44105" lon="3.52439">
        <ele>38</ele>
        <time>2022-05-09T10:00:43.115Z</time>
      </trkpt>
      <trkpt lat="50.44108" lon="3.52446">
        <ele>38</ele>
        <time>2022-05-09T10:00:45.000Z</time>
      </trkpt>
      <trkpt lat="50.44112" lon="3.52453">
        <ele>37.7</ele>
        <time>2022-05-09T10:00:47.135Z</time>
      </trkpt>
      <trkpt lat="50.44121" lon="3.52467">
        <ele>37.5</ele>
        <time>2022-05-09T10:00:50.000Z</time>
      </trkpt>
      <trkpt lat="50.44124" lon="3.52472">
        <ele>37.5</ele>
        <time>2022-05-09T10:00:51.594Z</time>
      </trkpt>
      <trkpt lat="50.44128" lon="3.52477">
        <ele>37.5</ele>
        <time>2022-05-09T10:00:53.000Z</time>
      </trkpt>
      <trkpt lat="50.44137" lon="3.52483">
        <ele>37.6</ele>
        <time>2022-05-09T10:00:56.000Z</time>
      </trkpt>
      <trkpt lat="50.44143" lon="3.52486">
        <ele>37.6</ele>
        <time>2022-05-09T10:00:58.000Z</time>
      </trkpt>
      <trkpt lat="50.44148" lon="3.5249">
        <ele>37.6</ele>
        <time>2022-05-09T10:00:59.000Z</time>
      </trkpt>
      <trkpt lat="50.44153" lon="3.52493">
        <ele>37.6</ele>
        <time>2022-05-09T10:01:00.000Z</time>
      </trkpt>
      <trkpt lat="50.44157" lon="3.52496">
        <ele>37.7</ele>
        <time>2022-05-09T10:01:01.138Z</time>
      </trkpt>
      <trkpt lat="50.44162" lon="3.525">
        <ele>37.8</ele>
        <time>2022-05-09T10:01:02.735Z</time>
      </trkpt>
      <trkpt lat="50.44169" lon="3.52506">
        <ele>37.8</ele>
        <time>2022-05-09T10:01:05.000Z</time>
      </trkpt>
      <trkpt lat="50.44176" lon="3.52511">
        <ele>37.7</ele>
        <time>2022-05-09T10:01:06.943Z</time>
      </trkpt>
      <trkpt lat="50.44182" lon="3.52517">
        <ele>37.7</ele>
        <time>2022-05-09T10:01:09.000Z</time>
      </trkpt>
      <trkpt lat="50.44191" lon="3.52525">
        <ele>37.9</ele>
        <time>2022-05-09T10:01:11.000Z</time>
      </trkpt>
      <trkpt lat="50.44196" lon="3.52529">
        <ele>38</ele>
        <time>2022-05-09T10:01:12.000Z</time>
      </trkpt>
      <trkpt lat="50.44203" lon="3.52531">
        <ele>38</ele>
        <time>2022-05-09T10:01:14.072Z</time>
      </trkpt>
      <trkpt lat="50.44209" lon="3.52536">
        <ele>38</ele>
        <time>2022-05-09T10:01:15.000Z</time>
      </trkpt>
      <trkpt lat="50.44215" lon="3.52541">
        <ele>38</ele>
        <time>2022-05-09T10:01:17.000Z</time>
      </trkpt>
      <trkpt lat="50.4422" lon="3.52546">
        <ele>38</ele>
        <time>2022-05-09T10:01:18.000Z</time>
      </trkpt>
      <trkpt lat="50.44228" lon="3.52553">
        <ele>38</ele>
        <time>2022-05-09T10:01:20.000Z</time>
      </trkpt>
      <trkpt lat="50.44237" lon="3.52559">
        <ele>38</ele>
        <time>2022-05-09T10:01:22.117Z</time>
      </trkpt>
      <trkpt lat="50.44242" lon="3.52563">
        <ele>38</ele>
        <time>2022-05-09T10:01:23.475Z</time>
      </trkpt>
      <trkpt lat="50.44249" lon="3.52568">
        <ele>38</ele>
        <time>2022-05-09T10:01:25.000Z</time>
      </trkpt>
      <trkpt lat="50.44255" lon="3.52573">
        <ele>37.8</ele>
        <time>2022-05-09T10:01:26.101Z</time>
      </trkpt>
      <trkpt lat="50.4426" lon="3.52576">
        <ele>37.6</ele>
        <time>2022-05-09T10:01:28.000Z</time>
      </trkpt>
      <trkpt lat="50.44267" lon="3.52579">
        <ele>37.4</ele>
        <time>2022-05-09T10:01:28.991Z</time>
      </trkpt>
      <trkpt lat="50.44277" lon="3.52582">
        <ele>37</ele>
        <time>2022-05-09T10:01:31.031Z</time>
      </trkpt>
      <trkpt lat="50.44282" lon="3.52587">
        <ele>37.1</ele>
        <time>2022-05-09T10:01:32.911Z</time>
      </trkpt>
      <trkpt lat="50.44287" lon="3.52591">
        <ele>37.2</ele>
        <time>2022-05-09T10:01:34.000Z</time>
      </trkpt>
      <trkpt lat="50.44295" lon="3.52597">
        <ele>37.2</ele>
        <time>2022-05-09T10:01:36.000Z</time>
      </trkpt>
      <trkpt lat="50.443" lon="3.526">
        <ele>37.1</ele>
        <time>2022-05-09T10:01:37.000Z</time>
      </trkpt>
      <trkpt lat="50.44305" lon="3.52605">
        <ele>37</ele>
        <time>2022-05-09T10:01:39.000Z</time>
      </trkpt>
      <trkpt lat="50.4431" lon="3.52609">
        <ele>37</ele>
        <time>2022-05-09T10:01:40.000Z</time>
      </trkpt>
      <trkpt lat="50.44315" lon="3.52611">
        <ele>37</ele>
        <time>2022-05-09T10:01:42.000Z</time>
      </trkpt>
      <trkpt lat="50.44319" lon="3.52615">
        <ele>37.1</ele>
        <time>2022-05-09T10:01:43.000Z</time>
      </trkpt>
      <trkpt lat="50.44324" lon="3.52618">
        <ele>37.2</ele>
        <time>2022-05-09T10:01:45.000Z</time>
      </trkpt>
      <trkpt lat="50.44328" lon="3.5262">
        <ele>37.3</ele>
        <time>2022-05-09T10:01:46.000Z</time>
      </trkpt>
      <trkpt lat="50.44335" lon="3.52624">
        <ele>37.5</ele>
        <time>2022-05-09T10:01:48.000Z</time>
      </trkpt>
      <trkpt lat="50.44342" lon="3.52629">
        <ele>37.6</ele>
        <time>2022-05-09T10:01:50.492Z</time>
      </trkpt>
      <trkpt lat="50.44348" lon="3.52634">
        <ele>37.8</ele>
        <time>2022-05-09T10:01:52.000Z</time>
      </trkpt>
      <trkpt lat="50.44353" lon="3.52638">
        <ele>38</ele>
        <time>2022-05-09T10:01:54.000Z</time>
      </trkpt>
      <trkpt lat="50.44358" lon="3.52641">
        <ele>38</ele>
        <time>2022-05-09T10:01:54.929Z</time>
      </trkpt>
      <trkpt lat="50.44364" lon="3.52646">
        <ele>38</ele>
        <time>2022-05-09T10:01:57.000Z</time>
      </trkpt>
      <trkpt lat="50.44369" lon="3.52649">
        <ele>37.9</ele>
        <time>2022-05-09T10:01:58.000Z</time>
      </trkpt>
      <trkpt lat="50.44375" lon="3.52653">
        <ele>37.7</ele>
        <time>2022-05-09T10:02:00.000Z</time>
      </trkpt>
      <trkpt lat="50.4438" lon="3.52659">
        <ele>37.5</ele>
        <time>2022-05-09T10:02:01.000Z</time>
      </trkpt>
      <trkpt lat="50.44385" lon="3.52663">
        <ele>37.2</ele>
        <time>2022-05-09T10:02:03.000Z</time>
      </trkpt>
      <trkpt lat="50.4439" lon="3.52665">
        <ele>37.1</ele>
        <time>2022-05-09T10:02:04.000Z</time>
      </trkpt>
      <trkpt lat="50.44397" lon="3.52671">
        <ele>37.3</ele>
        <time>2022-05-09T10:02:06.000Z</time>
      </trkpt>
      <trkpt lat="50.44403" lon="3.52674">
        <ele>37.4</ele>
        <time>2022-05-09T10:02:07.000Z</time>
      </trkpt>
      <trkpt lat="50.44411" lon="3.5268">
        <ele>37.4</ele>
        <time>2022-05-09T10:02:09.000Z</time>
      </trkpt>
      <trkpt lat="50.44418" lon="3.52685">
        <ele>37.3</ele>
        <time>2022-05-09T10:02:11.000Z</time>
      </trkpt>
      <trkpt lat="50.44422" lon="3.52688">
        <ele>37.2</ele>
        <time>2022-05-09T10:02:12.000Z</time>
      </trkpt>
      <trkpt lat="50.44427" lon="3.52691">
        <ele>37.1</ele>
        <time>2022-05-09T10:02:13.000Z</time>
      </trkpt>
      <trkpt lat="50.44431" lon="3.52695">
        <ele>37</ele>
        <time>2022-05-09T10:02:14.000Z</time>
      </trkpt>
      <trkpt lat="50.44435" lon="3.527">
        <ele>37</ele>
        <time>2022-05-09T10:02:15.000Z</time>
      </trkpt>
      <trkpt lat="50.44441" lon="3.52704">
        <ele>37</ele>
        <time>2022-05-09T10:02:16.000Z</time>
      </trkpt>
      <trkpt lat="50.44445" lon="3.52708">
        <ele>37</ele>
        <time>2022-05-09T10:02:17.000Z</time>
      </trkpt>
      <trkpt lat="50.44451" lon="3.52711">
        <ele>37.1</ele>
        <time>2022-05-09T10:02:18.000Z</time>
      </trkpt>
      <trkpt lat="50.44456" lon="3.52715">
        <ele>37.1</ele>
        <time>2022-05-09T10:02:19.000Z</time>
      </trkpt>
      <trkpt lat="50.44461" lon="3.52719">
        <ele>37.1</ele>
        <time>2022-05-09T10:02:20.000Z</time>
      </trkpt>
      <trkpt lat="50.44466" lon="3.52723">
        <ele>37</ele>
        <time>2022-05-09T10:02:21.000Z</time>
      </trkpt>
      <trkpt lat="50.4447" lon="3.52727">
        <ele>36.8</ele>
        <time>2022-05-09T10:02:22.000Z</time>
      </trkpt>
      <trkpt lat="50.44476" lon="3.52731">
        <ele>36.7</ele>
        <time>2022-05-09T10:02:23.000Z</time>
      </trkpt>
      <trkpt lat="50.44481" lon="3.52735">
        <ele>36.7</ele>
        <time>2022-05-09T10:02:24.000Z</time>
      </trkpt>
      <trkpt lat="50.44487" lon="3.52739">
        <ele>36.7</ele>
        <time>2022-05-09T10:02:25.000Z</time>
      </trkpt>
      <trkpt lat="50.44492" lon="3.52742">
        <ele>36.8</ele>
        <time>2022-05-09T10:02:26.000Z</time>
      </trkpt>
      <trkpt lat="50.44496" lon="3.52745">
        <ele>36.9</ele>
        <time>2022-05-09T10:02:27.000Z</time>
      </trkpt>
      <trkpt lat="50.445" lon="3.52748">
        <ele>37</ele>
        <time>2022-05-09T10:02:28.000Z</time>
      </trkpt>
      <trkpt lat="50.4451" lon="3.52755">
        <ele>36.8</ele>
        <time>2022-05-09T10:02:30.000Z</time>
      </trkpt>
      <trkpt lat="50.44516" lon="3.52759">
        <ele>36.7</ele>
        <time>2022-05-09T10:02:31.000Z</time>
      </trkpt>
      <trkpt lat="50.44521" lon="3.52763">
        <ele>36.5</ele>
        <time>2022-05-09T10:02:32.000Z</time>
      </trkpt>
      <trkpt lat="50.44525" lon="3.52766">
        <ele>36.4</ele>
        <time>2022-05-09T10:02:33.000Z</time>
      </trkpt>
      <trkpt lat="50.4453" lon="3.52769">
        <ele>36.4</ele>
        <time>2022-05-09T10:02:34.000Z</time>
      </trkpt>
      <trkpt lat="50.44534" lon="3.52773">
        <ele>36.4</ele>
        <time>2022-05-09T10:02:35.000Z</time>
      </trkpt>
      <trkpt lat="50.44538" lon="3.52776">
        <ele>36.4</ele>
        <time>2022-05-09T10:02:36.000Z</time>
      </trkpt>
      <trkpt lat="50.44542" lon="3.52779">
        <ele>36.5</ele>
        <time>2022-05-09T10:02:37.000Z</time>
      </trkpt>
      <trkpt lat="50.44547" lon="3.52783">
        <ele>36.7</ele>
        <time>2022-05-09T10:02:38.000Z</time>
      </trkpt>
      <trkpt lat="50.44552" lon="3.52787">
        <ele>36.9</ele>
        <time>2022-05-09T10:02:39.000Z</time>
      </trkpt>
      <trkpt lat="50.44556" lon="3.52791">
        <ele>37</ele>
        <time>2022-05-09T10:02:40.000Z</time>
      </trkpt>
      <trkpt lat="50.44562" lon="3.52793">
        <ele>37</ele>
        <time>2022-05-09T10:02:41.000Z</time>
      </trkpt>
      <trkpt lat="50.44567" lon="3.52794">
        <ele>37</ele>
        <time>2022-05-09T10:02:42.000Z</time>
      </trkpt>
      <trkpt lat="50.44573" lon="3.52795">
        <ele>37</ele>
        <time>2022-05-09T10:02:43.000Z</time>
      </trkpt>
      <trkpt lat="50.44579" lon="3.52795">
        <ele>37</ele>
        <time>2022-05-09T10:02:44.000Z</time>
      </trkpt>
      <trkpt lat="50.44584" lon="3.52795">
        <ele>37</ele>
        <time>2022-05-09T10:02:45.000Z</time>
      </trkpt>
      <trkpt lat="50.4459" lon="3.52796">
        <ele>36.8</ele>
        <time>2022-05-09T10:02:46.000Z</time>
      </trkpt>
      <trkpt lat="50.44595" lon="3.52796">
        <ele>36.6</ele>
        <time>2022-05-09T10:02:47.000Z</time>
      </trkpt>
      <trkpt lat="50.44602" lon="3.52796">
        <ele>36.3</ele>
        <time>2022-05-09T10:02:48.000Z</time>
      </trkpt>
      <trkpt lat="50.44609" lon="3.52796">
        <ele>36.1</ele>
        <time>2022-05-09T10:02:49.000Z</time>
      </trkpt>
      <trkpt lat="50.44615" lon="3.52797">
        <ele>35.9</ele>
        <time>2022-05-09T10:02:50.000Z</time>
      </trkpt>
      <trkpt lat="50.4462" lon="3.52797">
        <ele>35.8</ele>
        <time>2022-05-09T10:02:51.087Z</time>
      </trkpt>
      <trkpt lat="50.44629" lon="3.52798">
        <ele>35.5</ele>
        <time>2022-05-09T10:02:52.000Z</time>
      </trkpt>
      <trkpt lat="50.44637" lon="3.52797">
        <ele>35.4</ele>
        <time>2022-05-09T10:02:53.000Z</time>
      </trkpt>
      <trkpt lat="50.44644" lon="3.52798">
        <ele>35.2</ele>
        <time>2022-05-09T10:02:54.000Z</time>
      </trkpt>
      <trkpt lat="50.44651" lon="3.52799">
        <ele>35.1</ele>
        <time>2022-05-09T10:02:55.000Z</time>
      </trkpt>
      <trkpt lat="50.44656" lon="3.52799">
        <ele>35.1</ele>
        <time>2022-05-09T10:02:56.041Z</time>
      </trkpt>
      <trkpt lat="50.44669" lon="3.52799">
        <ele>34.9</ele>
        <time>2022-05-09T10:02:57.000Z</time>
      </trkpt>
      <trkpt lat="50.44676" lon="3.52798">
        <ele>34.7</ele>
        <time>2022-05-09T10:02:58.000Z</time>
      </trkpt>
      <trkpt lat="50.44684" lon="3.52797">
        <ele>34.4</ele>
        <time>2022-05-09T10:02:59.000Z</time>
      </trkpt>
      <trkpt lat="50.44692" lon="3.52797">
        <ele>34.1</ele>
        <time>2022-05-09T10:03:00.000Z</time>
      </trkpt>
      <trkpt lat="50.447" lon="3.52797">
        <ele>33.9</ele>
        <time>2022-05-09T10:03:01.000Z</time>
      </trkpt>
      <trkpt lat="50.44707" lon="3.52797">
        <ele>33.9</ele>
        <time>2022-05-09T10:03:02.000Z</time>
      </trkpt>
      <trkpt lat="50.44713" lon="3.52796">
        <ele>33.8</ele>
        <time>2022-05-09T10:03:03.000Z</time>
      </trkpt>
      <trkpt lat="50.44719" lon="3.52795">
        <ele>33.7</ele>
        <time>2022-05-09T10:03:04.000Z</time>
      </trkpt>
      <trkpt lat="50.44726" lon="3.52794">
        <ele>33.4</ele>
        <time>2022-05-09T10:03:05.000Z</time>
      </trkpt>
      <trkpt lat="50.44733" lon="3.52793">
        <ele>32.9</ele>
        <time>2022-05-09T10:03:06.000Z</time>
      </trkpt>
      <trkpt lat="50.4474" lon="3.52791">
        <ele>32.5</ele>
        <time>2022-05-09T10:03:07.000Z</time>
      </trkpt>
      <trkpt lat="50.44745" lon="3.5279">
        <ele>32.3</ele>
        <time>2022-05-09T10:03:08.000Z</time>
      </trkpt>
      <trkpt lat="50.44758" lon="3.52784">
        <ele>31.8</ele>
        <time>2022-05-09T10:03:10.000Z</time>
      </trkpt>
      <trkpt lat="50.44764" lon="3.5278">
        <ele>31.5</ele>
        <time>2022-05-09T10:03:11.000Z</time>
      </trkpt>
      <trkpt lat="50.4477" lon="3.52776">
        <ele>31.3</ele>
        <time>2022-05-09T10:03:12.000Z</time>
      </trkpt>
      <trkpt lat="50.44775" lon="3.52772">
        <ele>31.3</ele>
        <time>2022-05-09T10:03:13.000Z</time>
      </trkpt>
      <trkpt lat="50.44782" lon="3.52767">
        <ele>31.3</ele>
        <time>2022-05-09T10:03:14.000Z</time>
      </trkpt>
      <trkpt lat="50.44788" lon="3.52763">
        <ele>31.3</ele>
        <time>2022-05-09T10:03:15.000Z</time>
      </trkpt>
      <trkpt lat="50.44794" lon="3.52759">
        <ele>31.3</ele>
        <time>2022-05-09T10:03:16.000Z</time>
      </trkpt>
      <trkpt lat="50.44801" lon="3.52754">
        <ele>31.2</ele>
        <time>2022-05-09T10:03:17.000Z</time>
      </trkpt>
      <trkpt lat="50.44808" lon="3.52749">
        <ele>31</ele>
        <time>2022-05-09T10:03:18.000Z</time>
      </trkpt>
      <trkpt lat="50.44814" lon="3.52744">
        <ele>30.8</ele>
        <time>2022-05-09T10:03:19.000Z</time>
      </trkpt>
      <trkpt lat="50.44821" lon="3.52739">
        <ele>30.6</ele>
        <time>2022-05-09T10:03:20.000Z</time>
      </trkpt>
      <trkpt lat="50.44827" lon="3.52735">
        <ele>30.5</ele>
        <time>2022-05-09T10:03:21.000Z</time>
      </trkpt>
      <trkpt lat="50.44834" lon="3.52731">
        <ele>30.3</ele>
        <time>2022-05-09T10:03:22.000Z</time>
      </trkpt>
      <trkpt lat="50.4484" lon="3.52728">
        <ele>30.1</ele>
        <time>2022-05-09T10:03:23.000Z</time>
      </trkpt>
      <trkpt lat="50.44846" lon="3.52725">
        <ele>30.1</ele>
        <time>2022-05-09T10:03:24.000Z</time>
      </trkpt>
      <trkpt lat="50.44852" lon="3.52722">
        <ele>30</ele>
        <time>2022-05-09T10:03:25.000Z</time>
      </trkpt>
      <trkpt lat="50.44858" lon="3.52719">
        <ele>29.9</ele>
        <time>2022-05-09T10:03:26.000Z</time>
      </trkpt>
      <trkpt lat="50.44864" lon="3.52716">
        <ele>29.8</ele>
        <time>2022-05-09T10:03:27.000Z</time>
      </trkpt>
      <trkpt lat="50.4487" lon="3.52713">
        <ele>29.8</ele>
        <time>2022-05-09T10:03:28.000Z</time>
      </trkpt>
      <trkpt lat="50.44876" lon="3.52708">
        <ele>29.8</ele>
        <time>2022-05-09T10:03:29.000Z</time>
      </trkpt>
      <trkpt lat="50.44882" lon="3.52704">
        <ele>29.8</ele>
        <time>2022-05-09T10:03:30.000Z</time>
      </trkpt>
      <trkpt lat="50.44887" lon="3.52699">
        <ele>29.9</ele>
        <time>2022-05-09T10:03:31.000Z</time>
      </trkpt>
      <trkpt lat="50.44892" lon="3.52695">
        <ele>30</ele>
        <time>2022-05-09T10:03:32.000Z</time>
      </trkpt>
      <trkpt lat="50.44896" lon="3.52692">
        <ele>30</ele>
        <time>2022-05-09T10:03:33.000Z</time>
      </trkpt>
      <trkpt lat="50.449" lon="3.52688">
        <ele>30</ele>
        <time>2022-05-09T10:03:34.000Z</time>
      </trkpt>
      <trkpt lat="50.44906" lon="3.52685">
        <ele>30</ele>
        <time>2022-05-09T10:03:35.000Z</time>
      </trkpt>
      <trkpt lat="50.4491" lon="3.52682">
        <ele>30</ele>
        <time>2022-05-09T10:03:36.000Z</time>
      </trkpt>
      <trkpt lat="50.44915" lon="3.52678">
        <ele>30</ele>
        <time>2022-05-09T10:03:37.000Z</time>
      </trkpt>
      <trkpt lat="50.44923" lon="3.52673">
        <ele>30.1</ele>
        <time>2022-05-09T10:03:39.000Z</time>
      </trkpt>
      <trkpt lat="50.44927" lon="3.5267">
        <ele>30.1</ele>
        <time>2022-05-09T10:03:40.000Z</time>
      </trkpt>
      <trkpt lat="50.44932" lon="3.52667">
        <ele>30</ele>
        <time>2022-05-09T10:03:41.000Z</time>
      </trkpt>
      <trkpt lat="50.44936" lon="3.52664">
        <ele>30</ele>
        <time>2022-05-09T10:03:42.000Z</time>
      </trkpt>
      <trkpt lat="50.4494" lon="3.52661">
        <ele>30</ele>
        <time>2022-05-09T10:03:43.000Z</time>
      </trkpt>
      <trkpt lat="50.44945" lon="3.52657">
        <ele>30</ele>
        <time>2022-05-09T10:03:44.000Z</time>
      </trkpt>
      <trkpt lat="50.44954" lon="3.5265">
        <ele>29.8</ele>
        <time>2022-05-09T10:03:46.000Z</time>
      </trkpt>
      <trkpt lat="50.44958" lon="3.52647">
        <ele>29.7</ele>
        <time>2022-05-09T10:03:47.000Z</time>
      </trkpt>
      <trkpt lat="50.44963" lon="3.52643">
        <ele>29.4</ele>
        <time>2022-05-09T10:03:48.000Z</time>
      </trkpt>
    </trkseg>
  </trk>
</gpx>